<?xml version="1.0" encoding="UTF-8"?>
<gpx version="1.1" creator="https://www.youtrack.es" xsi:schemaLocation="http://www.topografix.com/GPX/1/1 http://www.topografix.com/GPX/1/1/gpx.xsd http://www.garmin.com/xmlschemas/GpxExtensions/v3 http://www.garmin.com/xmlschemas/GpxExtensionsv3.xsd http://www.garmin.com/xmlschemas/TrackPointExtension/v1 http://www.garmin.com/xmlschemas/TrackPointExtensionv1.xsd" xmlns:gpxtpx="http://www.garmin.com/xmlschemas/TrackPointExtension/v1" xmlns:gpxx="http://www.garmin.com/xmlschemas/GpxExtensions/v3" xmlns:xsi="http://www.w3.org/2001/XMLSchema-instance">
  <metadata>
    <link href="https://www.youtrack.es">
      <text>YouTrack.es</text>
    </link>
    <time>2026-05-10T13:42:46Z</time>
  </metadata>
  <wpt lat="41.7189" lon="2.32093">
    <ele>974.4</ele>
    <time>2021-02-13T10:39:41Z</time>
    <name>Entrada Tsunami</name>
  </wpt>
  <wpt lat="41.7189" lon="2.32105">
    <ele>976.4</ele>
    <time>2021-02-13T10:40:51Z</time>
    <name>Foto</name>
  </wpt>
  <wpt lat="41.7177" lon="2.31476">
    <ele>899.6</ele>
    <time>2021-02-13T10:53:29Z</time>
    <name>Entrada llaços</name>
  </wpt>
  <wpt lat="41.6953" lon="2.32483">
    <ele>557.6</ele>
    <time>2021-02-13T11:21:13Z</time>
    <name>Foto</name>
  </wpt>
  <wpt lat="41.6927" lon="2.32559">
    <ele>439</ele>
    <time>2021-02-13T11:30:42Z</time>
    <name>Fin llaços</name>
  </wpt>
  <wpt lat="41.7189" lon="2.32093">
    <ele>974.4</ele>
    <time>2021-02-13T10:39:41Z</time>
    <name>Entrada Tsunami</name>
  </wpt>
  <wpt lat="41.7189" lon="2.32105">
    <ele>976.4</ele>
    <time>2021-02-13T10:40:51Z</time>
    <name>Foto</name>
  </wpt>
  <wpt lat="41.7177" lon="2.31476">
    <ele>899.6</ele>
    <time>2021-02-13T10:53:29Z</time>
    <name>Entrada llaços</name>
  </wpt>
  <wpt lat="41.6953" lon="2.32483">
    <ele>557.6</ele>
    <time>2021-02-13T11:21:13Z</time>
    <name>Foto</name>
  </wpt>
  <wpt lat="41.6927" lon="2.32559">
    <ele>439</ele>
    <time>2021-02-13T11:30:42Z</time>
    <name>Fin llaços</name>
  </wpt>
  <trk>
    <src>https://www.youtrack.es</src>
    <link href="https://www.youtrack.es/ruta/40018-la-garriga">
      <text>YouTrack.es</text>
    </link>
    <trkseg>
      <trkpt lat="41.694693" lon="2.284515">
        <ele>252.848</ele>
        <time>2021-02-13T09:02:13Z</time>
      </trkpt>
      <trkpt lat="41.694772" lon="2.284476">
        <ele>252.961</ele>
        <time>2021-02-13T09:02:15Z</time>
      </trkpt>
      <trkpt lat="41.694817" lon="2.284473">
        <ele>252.917</ele>
        <time>2021-02-13T09:02:17Z</time>
      </trkpt>
      <trkpt lat="41.694859" lon="2.284452">
        <ele>253.008</ele>
        <time>2021-02-13T09:02:20Z</time>
      </trkpt>
      <trkpt lat="41.694904" lon="2.284430">
        <ele>253.050</ele>
        <time>2021-02-13T09:02:22Z</time>
      </trkpt>
      <trkpt lat="41.694957" lon="2.284419">
        <ele>253.069</ele>
        <time>2021-02-13T09:02:25Z</time>
      </trkpt>
      <trkpt lat="41.695005" lon="2.284411">
        <ele>253.080</ele>
        <time>2021-02-13T09:02:28Z</time>
      </trkpt>
      <trkpt lat="41.695057" lon="2.284405">
        <ele>252.889</ele>
        <time>2021-02-13T09:02:32Z</time>
      </trkpt>
      <trkpt lat="41.695104" lon="2.284401">
        <ele>252.692</ele>
        <time>2021-02-13T09:02:34Z</time>
      </trkpt>
      <trkpt lat="41.695162" lon="2.284390">
        <ele>252.484</ele>
        <time>2021-02-13T09:02:36Z</time>
      </trkpt>
      <trkpt lat="41.695208" lon="2.284385">
        <ele>252.394</ele>
        <time>2021-02-13T09:02:40Z</time>
      </trkpt>
      <trkpt lat="41.695263" lon="2.284380">
        <ele>252.130</ele>
        <time>2021-02-13T09:02:45Z</time>
      </trkpt>
      <trkpt lat="41.695317" lon="2.284376">
        <ele>251.951</ele>
        <time>2021-02-13T09:02:50Z</time>
      </trkpt>
      <trkpt lat="41.695369" lon="2.284357">
        <ele>251.701</ele>
        <time>2021-02-13T09:03:05Z</time>
      </trkpt>
      <trkpt lat="41.695381" lon="2.284299">
        <ele>251.611</ele>
        <time>2021-02-13T09:03:53Z</time>
      </trkpt>
      <trkpt lat="41.695397" lon="2.284356">
        <ele>251.608</ele>
        <time>2021-02-13T09:04:02Z</time>
      </trkpt>
      <trkpt lat="41.695417" lon="2.284410">
        <ele>251.591</ele>
        <time>2021-02-13T09:05:17Z</time>
      </trkpt>
      <trkpt lat="41.695454" lon="2.284450">
        <ele>251.450</ele>
        <time>2021-02-13T09:05:43Z</time>
      </trkpt>
      <trkpt lat="41.695515" lon="2.284442">
        <ele>251.191</ele>
        <time>2021-02-13T09:05:46Z</time>
      </trkpt>
      <trkpt lat="41.695575" lon="2.284454">
        <ele>251.040</ele>
        <time>2021-02-13T09:05:49Z</time>
      </trkpt>
      <trkpt lat="41.695624" lon="2.284448">
        <ele>251.083</ele>
        <time>2021-02-13T09:05:51Z</time>
      </trkpt>
      <trkpt lat="41.695673" lon="2.284463">
        <ele>251.055</ele>
        <time>2021-02-13T09:05:53Z</time>
      </trkpt>
      <trkpt lat="41.695718" lon="2.284504">
        <ele>251.175</ele>
        <time>2021-02-13T09:05:56Z</time>
      </trkpt>
      <trkpt lat="41.695738" lon="2.284568">
        <ele>251.371</ele>
        <time>2021-02-13T09:05:59Z</time>
      </trkpt>
      <trkpt lat="41.695758" lon="2.284659">
        <ele>251.657</ele>
        <time>2021-02-13T09:06:01Z</time>
      </trkpt>
      <trkpt lat="41.695772" lon="2.284746">
        <ele>251.800</ele>
        <time>2021-02-13T09:06:03Z</time>
      </trkpt>
      <trkpt lat="41.695784" lon="2.284823">
        <ele>251.820</ele>
        <time>2021-02-13T09:06:05Z</time>
      </trkpt>
      <trkpt lat="41.695802" lon="2.284918">
        <ele>251.908</ele>
        <time>2021-02-13T09:06:07Z</time>
      </trkpt>
      <trkpt lat="41.695823" lon="2.285008">
        <ele>252.031</ele>
        <time>2021-02-13T09:06:09Z</time>
      </trkpt>
      <trkpt lat="41.695833" lon="2.285089">
        <ele>252.010</ele>
        <time>2021-02-13T09:06:11Z</time>
      </trkpt>
      <trkpt lat="41.695835" lon="2.285166">
        <ele>252.051</ele>
        <time>2021-02-13T09:06:13Z</time>
      </trkpt>
      <trkpt lat="41.695857" lon="2.285237">
        <ele>252.010</ele>
        <time>2021-02-13T09:06:15Z</time>
      </trkpt>
      <trkpt lat="41.695891" lon="2.285308">
        <ele>252.193</ele>
        <time>2021-02-13T09:06:17Z</time>
      </trkpt>
      <trkpt lat="41.695928" lon="2.285373">
        <ele>252.315</ele>
        <time>2021-02-13T09:06:19Z</time>
      </trkpt>
      <trkpt lat="41.695974" lon="2.285442">
        <ele>252.675</ele>
        <time>2021-02-13T09:06:21Z</time>
      </trkpt>
      <trkpt lat="41.696022" lon="2.285504">
        <ele>252.821</ele>
        <time>2021-02-13T09:06:23Z</time>
      </trkpt>
      <trkpt lat="41.696065" lon="2.285571">
        <ele>253.128</ele>
        <time>2021-02-13T09:06:25Z</time>
      </trkpt>
      <trkpt lat="41.696110" lon="2.285631">
        <ele>253.389</ele>
        <time>2021-02-13T09:06:27Z</time>
      </trkpt>
      <trkpt lat="41.696168" lon="2.285660">
        <ele>253.617</ele>
        <time>2021-02-13T09:06:29Z</time>
      </trkpt>
      <trkpt lat="41.696229" lon="2.285659">
        <ele>253.808</ele>
        <time>2021-02-13T09:06:31Z</time>
      </trkpt>
      <trkpt lat="41.696294" lon="2.285653">
        <ele>254.068</ele>
        <time>2021-02-13T09:06:34Z</time>
      </trkpt>
      <trkpt lat="41.696357" lon="2.285643">
        <ele>254.287</ele>
        <time>2021-02-13T09:06:36Z</time>
      </trkpt>
      <trkpt lat="41.696422" lon="2.285620">
        <ele>254.428</ele>
        <time>2021-02-13T09:06:38Z</time>
      </trkpt>
      <trkpt lat="41.696492" lon="2.285594">
        <ele>254.727</ele>
        <time>2021-02-13T09:06:40Z</time>
      </trkpt>
      <trkpt lat="41.696559" lon="2.285560">
        <ele>254.720</ele>
        <time>2021-02-13T09:06:42Z</time>
      </trkpt>
      <trkpt lat="41.696622" lon="2.285527">
        <ele>254.632</ele>
        <time>2021-02-13T09:06:44Z</time>
      </trkpt>
      <trkpt lat="41.696682" lon="2.285504">
        <ele>254.552</ele>
        <time>2021-02-13T09:06:46Z</time>
      </trkpt>
      <trkpt lat="41.696746" lon="2.285484">
        <ele>254.798</ele>
        <time>2021-02-13T09:06:48Z</time>
      </trkpt>
      <trkpt lat="41.696814" lon="2.285469">
        <ele>255.018</ele>
        <time>2021-02-13T09:06:50Z</time>
      </trkpt>
      <trkpt lat="41.696883" lon="2.285445">
        <ele>255.198</ele>
        <time>2021-02-13T09:06:52Z</time>
      </trkpt>
      <trkpt lat="41.696954" lon="2.285420">
        <ele>255.117</ele>
        <time>2021-02-13T09:06:54Z</time>
      </trkpt>
      <trkpt lat="41.697021" lon="2.285401">
        <ele>255.508</ele>
        <time>2021-02-13T09:06:56Z</time>
      </trkpt>
      <trkpt lat="41.697098" lon="2.285378">
        <ele>255.937</ele>
        <time>2021-02-13T09:06:58Z</time>
      </trkpt>
      <trkpt lat="41.697170" lon="2.285353">
        <ele>256.326</ele>
        <time>2021-02-13T09:07:00Z</time>
      </trkpt>
      <trkpt lat="41.697215" lon="2.285340">
        <ele>256.647</ele>
        <time>2021-02-13T09:07:02Z</time>
      </trkpt>
      <trkpt lat="41.697265" lon="2.285322">
        <ele>256.826</ele>
        <time>2021-02-13T09:07:03Z</time>
      </trkpt>
      <trkpt lat="41.697333" lon="2.285292">
        <ele>256.979</ele>
        <time>2021-02-13T09:07:05Z</time>
      </trkpt>
      <trkpt lat="41.697448" lon="2.285275">
        <ele>257.641</ele>
        <time>2021-02-13T09:07:07Z</time>
      </trkpt>
      <trkpt lat="41.697495" lon="2.285228">
        <ele>257.641</ele>
        <time>2021-02-13T09:07:10Z</time>
      </trkpt>
      <trkpt lat="41.697551" lon="2.285230">
        <ele>258.287</ele>
        <time>2021-02-13T09:07:11Z</time>
      </trkpt>
      <trkpt lat="41.697599" lon="2.285227">
        <ele>258.876</ele>
        <time>2021-02-13T09:07:12Z</time>
      </trkpt>
      <trkpt lat="41.697671" lon="2.285206">
        <ele>259.590</ele>
        <time>2021-02-13T09:07:14Z</time>
      </trkpt>
      <trkpt lat="41.697722" lon="2.285195">
        <ele>260.019</ele>
        <time>2021-02-13T09:07:16Z</time>
      </trkpt>
      <trkpt lat="41.697802" lon="2.285177">
        <ele>260.808</ele>
        <time>2021-02-13T09:07:18Z</time>
      </trkpt>
      <trkpt lat="41.697871" lon="2.285157">
        <ele>261.273</ele>
        <time>2021-02-13T09:07:20Z</time>
      </trkpt>
      <trkpt lat="41.697934" lon="2.285140">
        <ele>261.682</ele>
        <time>2021-02-13T09:07:22Z</time>
      </trkpt>
      <trkpt lat="41.697997" lon="2.285115">
        <ele>262.053</ele>
        <time>2021-02-13T09:07:24Z</time>
      </trkpt>
      <trkpt lat="41.698053" lon="2.285089">
        <ele>262.382</ele>
        <time>2021-02-13T09:07:26Z</time>
      </trkpt>
      <trkpt lat="41.698118" lon="2.285072">
        <ele>262.435</ele>
        <time>2021-02-13T09:07:28Z</time>
      </trkpt>
      <trkpt lat="41.698183" lon="2.285051">
        <ele>262.677</ele>
        <time>2021-02-13T09:07:30Z</time>
      </trkpt>
      <trkpt lat="41.698252" lon="2.285034">
        <ele>262.767</ele>
        <time>2021-02-13T09:07:32Z</time>
      </trkpt>
      <trkpt lat="41.698318" lon="2.285015">
        <ele>262.933</ele>
        <time>2021-02-13T09:07:34Z</time>
      </trkpt>
      <trkpt lat="41.698382" lon="2.284991">
        <ele>263.351</ele>
        <time>2021-02-13T09:07:36Z</time>
      </trkpt>
      <trkpt lat="41.698448" lon="2.284969">
        <ele>263.701</ele>
        <time>2021-02-13T09:07:38Z</time>
      </trkpt>
      <trkpt lat="41.698515" lon="2.284948">
        <ele>264.011</ele>
        <time>2021-02-13T09:07:40Z</time>
      </trkpt>
      <trkpt lat="41.698565" lon="2.284932">
        <ele>264.208</ele>
        <time>2021-02-13T09:07:42Z</time>
      </trkpt>
      <trkpt lat="41.698612" lon="2.284923">
        <ele>264.451</ele>
        <time>2021-02-13T09:07:43Z</time>
      </trkpt>
      <trkpt lat="41.698666" lon="2.284918">
        <ele>264.550</ele>
        <time>2021-02-13T09:07:45Z</time>
      </trkpt>
      <trkpt lat="41.698711" lon="2.284956">
        <ele>264.781</ele>
        <time>2021-02-13T09:07:48Z</time>
      </trkpt>
      <trkpt lat="41.698673" lon="2.284993">
        <ele>265.040</ele>
        <time>2021-02-13T09:07:50Z</time>
      </trkpt>
      <trkpt lat="41.698620" lon="2.285035">
        <ele>265.083</ele>
        <time>2021-02-13T09:07:52Z</time>
      </trkpt>
      <trkpt lat="41.698577" lon="2.285087">
        <ele>264.825</ele>
        <time>2021-02-13T09:07:54Z</time>
      </trkpt>
      <trkpt lat="41.698533" lon="2.285148">
        <ele>264.485</ele>
        <time>2021-02-13T09:07:56Z</time>
      </trkpt>
      <trkpt lat="41.698491" lon="2.285209">
        <ele>264.111</ele>
        <time>2021-02-13T09:07:58Z</time>
      </trkpt>
      <trkpt lat="41.698465" lon="2.285276">
        <ele>263.997</ele>
        <time>2021-02-13T09:08:00Z</time>
      </trkpt>
      <trkpt lat="41.698437" lon="2.285339">
        <ele>263.923</ele>
        <time>2021-02-13T09:08:02Z</time>
      </trkpt>
      <trkpt lat="41.698421" lon="2.285407">
        <ele>263.925</ele>
        <time>2021-02-13T09:08:04Z</time>
      </trkpt>
      <trkpt lat="41.698398" lon="2.285474">
        <ele>264.008</ele>
        <time>2021-02-13T09:08:06Z</time>
      </trkpt>
      <trkpt lat="41.698383" lon="2.285537">
        <ele>264.175</ele>
        <time>2021-02-13T09:08:08Z</time>
      </trkpt>
      <trkpt lat="41.698361" lon="2.285605">
        <ele>264.574</ele>
        <time>2021-02-13T09:08:10Z</time>
      </trkpt>
      <trkpt lat="41.698344" lon="2.285696">
        <ele>265.125</ele>
        <time>2021-02-13T09:08:12Z</time>
      </trkpt>
      <trkpt lat="41.698352" lon="2.285792">
        <ele>265.854</ele>
        <time>2021-02-13T09:08:14Z</time>
      </trkpt>
      <trkpt lat="41.698383" lon="2.285863">
        <ele>266.877</ele>
        <time>2021-02-13T09:08:16Z</time>
      </trkpt>
      <trkpt lat="41.698442" lon="2.285907">
        <ele>267.719</ele>
        <time>2021-02-13T09:08:18Z</time>
      </trkpt>
      <trkpt lat="41.698508" lon="2.285922">
        <ele>268.329</ele>
        <time>2021-02-13T09:08:20Z</time>
      </trkpt>
      <trkpt lat="41.698572" lon="2.285910">
        <ele>268.625</ele>
        <time>2021-02-13T09:08:22Z</time>
      </trkpt>
      <trkpt lat="41.698630" lon="2.285884">
        <ele>268.819</ele>
        <time>2021-02-13T09:08:24Z</time>
      </trkpt>
      <trkpt lat="41.698686" lon="2.285855">
        <ele>269.309</ele>
        <time>2021-02-13T09:08:26Z</time>
      </trkpt>
      <trkpt lat="41.698740" lon="2.285834">
        <ele>269.919</ele>
        <time>2021-02-13T09:08:28Z</time>
      </trkpt>
      <trkpt lat="41.698807" lon="2.285807">
        <ele>270.508</ele>
        <time>2021-02-13T09:08:30Z</time>
      </trkpt>
      <trkpt lat="41.698871" lon="2.285775">
        <ele>271.147</ele>
        <time>2021-02-13T09:08:32Z</time>
      </trkpt>
      <trkpt lat="41.698933" lon="2.285751">
        <ele>271.526</ele>
        <time>2021-02-13T09:08:34Z</time>
      </trkpt>
      <trkpt lat="41.698988" lon="2.285724">
        <ele>271.697</ele>
        <time>2021-02-13T09:08:36Z</time>
      </trkpt>
      <trkpt lat="41.699042" lon="2.285697">
        <ele>271.666</ele>
        <time>2021-02-13T09:08:38Z</time>
      </trkpt>
      <trkpt lat="41.699093" lon="2.285672">
        <ele>271.649</ele>
        <time>2021-02-13T09:08:40Z</time>
      </trkpt>
      <trkpt lat="41.699145" lon="2.285636">
        <ele>271.371</ele>
        <time>2021-02-13T09:08:42Z</time>
      </trkpt>
      <trkpt lat="41.699187" lon="2.285595">
        <ele>270.831</ele>
        <time>2021-02-13T09:08:44Z</time>
      </trkpt>
      <trkpt lat="41.699237" lon="2.285546">
        <ele>270.277</ele>
        <time>2021-02-13T09:08:46Z</time>
      </trkpt>
      <trkpt lat="41.699287" lon="2.285509">
        <ele>270.066</ele>
        <time>2021-02-13T09:08:48Z</time>
      </trkpt>
      <trkpt lat="41.699339" lon="2.285482">
        <ele>270.029</ele>
        <time>2021-02-13T09:08:50Z</time>
      </trkpt>
      <trkpt lat="41.699404" lon="2.285468">
        <ele>270.221</ele>
        <time>2021-02-13T09:08:53Z</time>
      </trkpt>
      <trkpt lat="41.699453" lon="2.285504">
        <ele>270.708</ele>
        <time>2021-02-13T09:08:56Z</time>
      </trkpt>
      <trkpt lat="41.699486" lon="2.285559">
        <ele>271.352</ele>
        <time>2021-02-13T09:08:58Z</time>
      </trkpt>
      <trkpt lat="41.699524" lon="2.285600">
        <ele>271.981</ele>
        <time>2021-02-13T09:09:00Z</time>
      </trkpt>
      <trkpt lat="41.699561" lon="2.285660">
        <ele>272.522</ele>
        <time>2021-02-13T09:09:03Z</time>
      </trkpt>
      <trkpt lat="41.699591" lon="2.285718">
        <ele>272.921</ele>
        <time>2021-02-13T09:09:05Z</time>
      </trkpt>
      <trkpt lat="41.699623" lon="2.285774">
        <ele>273.154</ele>
        <time>2021-02-13T09:09:07Z</time>
      </trkpt>
      <trkpt lat="41.699655" lon="2.285826">
        <ele>273.216</ele>
        <time>2021-02-13T09:09:09Z</time>
      </trkpt>
      <trkpt lat="41.699686" lon="2.285881">
        <ele>273.256</ele>
        <time>2021-02-13T09:09:11Z</time>
      </trkpt>
      <trkpt lat="41.699715" lon="2.285939">
        <ele>273.062</ele>
        <time>2021-02-13T09:09:13Z</time>
      </trkpt>
      <trkpt lat="41.699749" lon="2.285991">
        <ele>273.377</ele>
        <time>2021-02-13T09:09:15Z</time>
      </trkpt>
      <trkpt lat="41.699778" lon="2.286057">
        <ele>273.661</ele>
        <time>2021-02-13T09:09:17Z</time>
      </trkpt>
      <trkpt lat="41.699803" lon="2.286140">
        <ele>274.027</ele>
        <time>2021-02-13T09:09:19Z</time>
      </trkpt>
      <trkpt lat="41.699827" lon="2.286209">
        <ele>274.608</ele>
        <time>2021-02-13T09:09:21Z</time>
      </trkpt>
      <trkpt lat="41.699855" lon="2.286269">
        <ele>275.033</ele>
        <time>2021-02-13T09:09:23Z</time>
      </trkpt>
      <trkpt lat="41.699881" lon="2.286325">
        <ele>275.452</ele>
        <time>2021-02-13T09:09:25Z</time>
      </trkpt>
      <trkpt lat="41.699917" lon="2.286393">
        <ele>275.753</ele>
        <time>2021-02-13T09:09:28Z</time>
      </trkpt>
      <trkpt lat="41.699950" lon="2.286436">
        <ele>276.162</ele>
        <time>2021-02-13T09:09:30Z</time>
      </trkpt>
      <trkpt lat="41.699996" lon="2.286489">
        <ele>276.775</ele>
        <time>2021-02-13T09:09:33Z</time>
      </trkpt>
      <trkpt lat="41.700021" lon="2.286543">
        <ele>277.347</ele>
        <time>2021-02-13T09:09:36Z</time>
      </trkpt>
      <trkpt lat="41.699999" lon="2.286622">
        <ele>277.747</ele>
        <time>2021-02-13T09:09:39Z</time>
      </trkpt>
      <trkpt lat="41.699955" lon="2.286653">
        <ele>277.673</ele>
        <time>2021-02-13T09:09:41Z</time>
      </trkpt>
      <trkpt lat="41.699903" lon="2.286665">
        <ele>277.316</ele>
        <time>2021-02-13T09:09:43Z</time>
      </trkpt>
      <trkpt lat="41.699850" lon="2.286682">
        <ele>277.076</ele>
        <time>2021-02-13T09:09:45Z</time>
      </trkpt>
      <trkpt lat="41.699775" lon="2.286748">
        <ele>277.113</ele>
        <time>2021-02-13T09:09:47Z</time>
      </trkpt>
      <trkpt lat="41.699755" lon="2.286814">
        <ele>277.708</ele>
        <time>2021-02-13T09:09:48Z</time>
      </trkpt>
      <trkpt lat="41.699750" lon="2.286976">
        <ele>279.427</ele>
        <time>2021-02-13T09:09:50Z</time>
      </trkpt>
      <trkpt lat="41.699774" lon="2.287048">
        <ele>280.476</ele>
        <time>2021-02-13T09:09:53Z</time>
      </trkpt>
      <trkpt lat="41.699804" lon="2.287131">
        <ele>281.567</ele>
        <time>2021-02-13T09:09:55Z</time>
      </trkpt>
      <trkpt lat="41.699848" lon="2.287211">
        <ele>282.476</ele>
        <time>2021-02-13T09:09:57Z</time>
      </trkpt>
      <trkpt lat="41.699897" lon="2.287291">
        <ele>283.859</ele>
        <time>2021-02-13T09:09:59Z</time>
      </trkpt>
      <trkpt lat="41.699944" lon="2.287350">
        <ele>284.931</ele>
        <time>2021-02-13T09:10:01Z</time>
      </trkpt>
      <trkpt lat="41.699988" lon="2.287422">
        <ele>286.381</ele>
        <time>2021-02-13T09:10:04Z</time>
      </trkpt>
      <trkpt lat="41.700020" lon="2.287468">
        <ele>287.147</ele>
        <time>2021-02-13T09:10:06Z</time>
      </trkpt>
      <trkpt lat="41.700061" lon="2.287523">
        <ele>287.986</ele>
        <time>2021-02-13T09:10:09Z</time>
      </trkpt>
      <trkpt lat="41.700114" lon="2.287561">
        <ele>288.060</ele>
        <time>2021-02-13T09:10:12Z</time>
      </trkpt>
      <trkpt lat="41.700160" lon="2.287581">
        <ele>287.826</ele>
        <time>2021-02-13T09:10:14Z</time>
      </trkpt>
      <trkpt lat="41.700219" lon="2.287631">
        <ele>287.808</ele>
        <time>2021-02-13T09:10:17Z</time>
      </trkpt>
      <trkpt lat="41.700279" lon="2.287671">
        <ele>287.524</ele>
        <time>2021-02-13T09:10:20Z</time>
      </trkpt>
      <trkpt lat="41.700334" lon="2.287706">
        <ele>287.943</ele>
        <time>2021-02-13T09:10:23Z</time>
      </trkpt>
      <trkpt lat="41.700378" lon="2.287743">
        <ele>288.294</ele>
        <time>2021-02-13T09:10:27Z</time>
      </trkpt>
      <trkpt lat="41.700406" lon="2.287799">
        <ele>288.953</ele>
        <time>2021-02-13T09:10:33Z</time>
      </trkpt>
      <trkpt lat="41.700449" lon="2.287833">
        <ele>289.316</ele>
        <time>2021-02-13T09:10:36Z</time>
      </trkpt>
      <trkpt lat="41.700494" lon="2.287866">
        <ele>289.598</ele>
        <time>2021-02-13T09:10:40Z</time>
      </trkpt>
      <trkpt lat="41.700514" lon="2.287924">
        <ele>290.078</ele>
        <time>2021-02-13T09:10:43Z</time>
      </trkpt>
      <trkpt lat="41.700539" lon="2.287980">
        <ele>290.444</ele>
        <time>2021-02-13T09:10:47Z</time>
      </trkpt>
      <trkpt lat="41.700567" lon="2.288032">
        <ele>291.036</ele>
        <time>2021-02-13T09:10:50Z</time>
      </trkpt>
      <trkpt lat="41.700572" lon="2.288094">
        <ele>292.017</ele>
        <time>2021-02-13T09:10:53Z</time>
      </trkpt>
      <trkpt lat="41.700578" lon="2.288161">
        <ele>293.218</ele>
        <time>2021-02-13T09:10:55Z</time>
      </trkpt>
      <trkpt lat="41.700578" lon="2.288238">
        <ele>294.508</ele>
        <time>2021-02-13T09:10:58Z</time>
      </trkpt>
      <trkpt lat="41.700577" lon="2.288313">
        <ele>295.819</ele>
        <time>2021-02-13T09:11:01Z</time>
      </trkpt>
      <trkpt lat="41.700575" lon="2.288401">
        <ele>296.638</ele>
        <time>2021-02-13T09:11:04Z</time>
      </trkpt>
      <trkpt lat="41.700580" lon="2.288488">
        <ele>297.289</ele>
        <time>2021-02-13T09:11:09Z</time>
      </trkpt>
      <trkpt lat="41.700593" lon="2.288548">
        <ele>297.748</ele>
        <time>2021-02-13T09:11:11Z</time>
      </trkpt>
      <trkpt lat="41.700607" lon="2.288620">
        <ele>298.221</ele>
        <time>2021-02-13T09:11:14Z</time>
      </trkpt>
      <trkpt lat="41.700609" lon="2.288681">
        <ele>298.693</ele>
        <time>2021-02-13T09:11:16Z</time>
      </trkpt>
      <trkpt lat="41.700607" lon="2.288744">
        <ele>299.123</ele>
        <time>2021-02-13T09:11:19Z</time>
      </trkpt>
      <trkpt lat="41.700596" lon="2.288805">
        <ele>299.429</ele>
        <time>2021-02-13T09:11:22Z</time>
      </trkpt>
      <trkpt lat="41.700590" lon="2.288876">
        <ele>299.943</ele>
        <time>2021-02-13T09:11:25Z</time>
      </trkpt>
      <trkpt lat="41.700580" lon="2.288941">
        <ele>300.264</ele>
        <time>2021-02-13T09:11:28Z</time>
      </trkpt>
      <trkpt lat="41.700565" lon="2.289002">
        <ele>300.410</ele>
        <time>2021-02-13T09:11:31Z</time>
      </trkpt>
      <trkpt lat="41.700556" lon="2.289083">
        <ele>300.708</ele>
        <time>2021-02-13T09:11:34Z</time>
      </trkpt>
      <trkpt lat="41.700542" lon="2.289156">
        <ele>301.430</ele>
        <time>2021-02-13T09:11:37Z</time>
      </trkpt>
      <trkpt lat="41.700539" lon="2.289223">
        <ele>301.849</ele>
        <time>2021-02-13T09:11:40Z</time>
      </trkpt>
      <trkpt lat="41.700535" lon="2.289295">
        <ele>302.210</ele>
        <time>2021-02-13T09:11:43Z</time>
      </trkpt>
      <trkpt lat="41.700542" lon="2.289358">
        <ele>302.219</ele>
        <time>2021-02-13T09:11:46Z</time>
      </trkpt>
      <trkpt lat="41.700557" lon="2.289431">
        <ele>302.012</ele>
        <time>2021-02-13T09:11:49Z</time>
      </trkpt>
      <trkpt lat="41.700584" lon="2.289496">
        <ele>303.214</ele>
        <time>2021-02-13T09:11:52Z</time>
      </trkpt>
      <trkpt lat="41.700602" lon="2.289572">
        <ele>304.764</ele>
        <time>2021-02-13T09:11:55Z</time>
      </trkpt>
      <trkpt lat="41.700611" lon="2.289633">
        <ele>305.820</ele>
        <time>2021-02-13T09:11:59Z</time>
      </trkpt>
      <trkpt lat="41.700631" lon="2.289706">
        <ele>306.917</ele>
        <time>2021-02-13T09:12:12Z</time>
      </trkpt>
      <trkpt lat="41.700642" lon="2.289770">
        <ele>307.687</ele>
        <time>2021-02-13T09:12:15Z</time>
      </trkpt>
      <trkpt lat="41.700651" lon="2.289829">
        <ele>308.115</ele>
        <time>2021-02-13T09:12:19Z</time>
      </trkpt>
      <trkpt lat="41.700665" lon="2.289897">
        <ele>308.608</ele>
        <time>2021-02-13T09:12:24Z</time>
      </trkpt>
      <trkpt lat="41.700697" lon="2.289964">
        <ele>308.667</ele>
        <time>2021-02-13T09:12:28Z</time>
      </trkpt>
      <trkpt lat="41.700708" lon="2.290030">
        <ele>308.946</ele>
        <time>2021-02-13T09:12:31Z</time>
      </trkpt>
      <trkpt lat="41.700729" lon="2.290089">
        <ele>308.797</ele>
        <time>2021-02-13T09:12:36Z</time>
      </trkpt>
      <trkpt lat="41.700771" lon="2.290133">
        <ele>307.956</ele>
        <time>2021-02-13T09:12:39Z</time>
      </trkpt>
      <trkpt lat="41.700807" lon="2.290185">
        <ele>307.339</ele>
        <time>2021-02-13T09:12:42Z</time>
      </trkpt>
      <trkpt lat="41.700829" lon="2.290278">
        <ele>307.141</ele>
        <time>2021-02-13T09:12:46Z</time>
      </trkpt>
      <trkpt lat="41.700859" lon="2.290323">
        <ele>308.011</ele>
        <time>2021-02-13T09:12:48Z</time>
      </trkpt>
      <trkpt lat="41.700896" lon="2.290386">
        <ele>309.167</ele>
        <time>2021-02-13T09:12:51Z</time>
      </trkpt>
      <trkpt lat="41.700902" lon="2.290471">
        <ele>310.169</ele>
        <time>2021-02-13T09:12:54Z</time>
      </trkpt>
      <trkpt lat="41.700911" lon="2.290545">
        <ele>310.904</ele>
        <time>2021-02-13T09:12:57Z</time>
      </trkpt>
      <trkpt lat="41.700911" lon="2.290618">
        <ele>312.324</ele>
        <time>2021-02-13T09:13:00Z</time>
      </trkpt>
      <trkpt lat="41.700918" lon="2.290706">
        <ele>314.108</ele>
        <time>2021-02-13T09:13:05Z</time>
      </trkpt>
      <trkpt lat="41.700945" lon="2.290797">
        <ele>315.792</ele>
        <time>2021-02-13T09:13:09Z</time>
      </trkpt>
      <trkpt lat="41.700978" lon="2.290856">
        <ele>316.381</ele>
        <time>2021-02-13T09:13:11Z</time>
      </trkpt>
      <trkpt lat="41.701034" lon="2.290910">
        <ele>316.332</ele>
        <time>2021-02-13T09:13:14Z</time>
      </trkpt>
      <trkpt lat="41.701060" lon="2.290974">
        <ele>316.991</ele>
        <time>2021-02-13T09:13:17Z</time>
      </trkpt>
      <trkpt lat="41.701060" lon="2.291062">
        <ele>318.254</ele>
        <time>2021-02-13T09:13:21Z</time>
      </trkpt>
      <trkpt lat="41.701092" lon="2.291123">
        <ele>318.536</ele>
        <time>2021-02-13T09:13:24Z</time>
      </trkpt>
      <trkpt lat="41.701099" lon="2.291198">
        <ele>319.286</ele>
        <time>2021-02-13T09:13:28Z</time>
      </trkpt>
      <trkpt lat="41.701135" lon="2.291250">
        <ele>319.692</ele>
        <time>2021-02-13T09:13:31Z</time>
      </trkpt>
      <trkpt lat="41.701155" lon="2.291317">
        <ele>320.312</ele>
        <time>2021-02-13T09:13:35Z</time>
      </trkpt>
      <trkpt lat="41.701191" lon="2.291376">
        <ele>320.932</ele>
        <time>2021-02-13T09:13:39Z</time>
      </trkpt>
      <trkpt lat="41.701208" lon="2.291451">
        <ele>321.705</ele>
        <time>2021-02-13T09:13:43Z</time>
      </trkpt>
      <trkpt lat="41.701244" lon="2.291512">
        <ele>322.308</ele>
        <time>2021-02-13T09:13:47Z</time>
      </trkpt>
      <trkpt lat="41.701288" lon="2.291565">
        <ele>322.717</ele>
        <time>2021-02-13T09:13:51Z</time>
      </trkpt>
      <trkpt lat="41.701322" lon="2.291635">
        <ele>323.296</ele>
        <time>2021-02-13T09:13:55Z</time>
      </trkpt>
      <trkpt lat="41.701361" lon="2.291699">
        <ele>323.787</ele>
        <time>2021-02-13T09:13:59Z</time>
      </trkpt>
      <trkpt lat="41.701394" lon="2.291767">
        <ele>324.516</ele>
        <time>2021-02-13T09:14:03Z</time>
      </trkpt>
      <trkpt lat="41.701416" lon="2.291841">
        <ele>325.669</ele>
        <time>2021-02-13T09:14:07Z</time>
      </trkpt>
      <trkpt lat="41.701430" lon="2.291922">
        <ele>326.741</ele>
        <time>2021-02-13T09:14:11Z</time>
      </trkpt>
      <trkpt lat="41.701481" lon="2.291970">
        <ele>327.581</ele>
        <time>2021-02-13T09:14:15Z</time>
      </trkpt>
      <trkpt lat="41.701523" lon="2.292060">
        <ele>329.187</ele>
        <time>2021-02-13T09:14:19Z</time>
      </trkpt>
      <trkpt lat="41.701567" lon="2.292144">
        <ele>330.298</ele>
        <time>2021-02-13T09:14:23Z</time>
      </trkpt>
      <trkpt lat="41.701619" lon="2.292216">
        <ele>330.615</ele>
        <time>2021-02-13T09:14:27Z</time>
      </trkpt>
      <trkpt lat="41.701663" lon="2.292320">
        <ele>331.826</ele>
        <time>2021-02-13T09:14:31Z</time>
      </trkpt>
      <trkpt lat="41.701708" lon="2.292407">
        <ele>333.408</ele>
        <time>2021-02-13T09:14:35Z</time>
      </trkpt>
      <trkpt lat="41.701738" lon="2.292486">
        <ele>334.545</ele>
        <time>2021-02-13T09:14:41Z</time>
      </trkpt>
      <trkpt lat="41.701754" lon="2.292562">
        <ele>336.034</ele>
        <time>2021-02-13T09:14:43Z</time>
      </trkpt>
      <trkpt lat="41.701758" lon="2.292646">
        <ele>337.815</ele>
        <time>2021-02-13T09:14:45Z</time>
      </trkpt>
      <trkpt lat="41.701767" lon="2.292723">
        <ele>339.434</ele>
        <time>2021-02-13T09:14:47Z</time>
      </trkpt>
      <trkpt lat="41.701801" lon="2.292810">
        <ele>340.827</ele>
        <time>2021-02-13T09:14:49Z</time>
      </trkpt>
      <trkpt lat="41.701863" lon="2.292914">
        <ele>342.179</ele>
        <time>2021-02-13T09:14:53Z</time>
      </trkpt>
      <trkpt lat="41.701868" lon="2.292975">
        <ele>343.259</ele>
        <time>2021-02-13T09:14:56Z</time>
      </trkpt>
      <trkpt lat="41.701895" lon="2.293040">
        <ele>343.915</ele>
        <time>2021-02-13T09:15:00Z</time>
      </trkpt>
      <trkpt lat="41.701931" lon="2.293077">
        <ele>343.866</ele>
        <time>2021-02-13T09:15:02Z</time>
      </trkpt>
      <trkpt lat="41.701978" lon="2.293117">
        <ele>344.229</ele>
        <time>2021-02-13T09:15:05Z</time>
      </trkpt>
      <trkpt lat="41.702051" lon="2.293150">
        <ele>344.421</ele>
        <time>2021-02-13T09:15:11Z</time>
      </trkpt>
      <trkpt lat="41.702107" lon="2.293133">
        <ele>343.908</ele>
        <time>2021-02-13T09:15:14Z</time>
      </trkpt>
      <trkpt lat="41.702139" lon="2.293078">
        <ele>343.292</ele>
        <time>2021-02-13T09:15:16Z</time>
      </trkpt>
      <trkpt lat="41.702126" lon="2.292976">
        <ele>342.761</ele>
        <time>2021-02-13T09:15:21Z</time>
      </trkpt>
      <trkpt lat="41.702094" lon="2.292912">
        <ele>342.182</ele>
        <time>2021-02-13T09:15:24Z</time>
      </trkpt>
      <trkpt lat="41.702075" lon="2.292834">
        <ele>341.311</ele>
        <time>2021-02-13T09:15:28Z</time>
      </trkpt>
      <trkpt lat="41.702061" lon="2.292768">
        <ele>340.414</ele>
        <time>2021-02-13T09:15:31Z</time>
      </trkpt>
      <trkpt lat="41.702092" lon="2.292719">
        <ele>340.816</ele>
        <time>2021-02-13T09:15:36Z</time>
      </trkpt>
      <trkpt lat="41.702070" lon="2.292646">
        <ele>339.746</ele>
        <time>2021-02-13T09:15:40Z</time>
      </trkpt>
      <trkpt lat="41.702061" lon="2.292581">
        <ele>338.912</ele>
        <time>2021-02-13T09:15:43Z</time>
      </trkpt>
      <trkpt lat="41.702062" lon="2.292498">
        <ele>338.243</ele>
        <time>2021-02-13T09:15:48Z</time>
      </trkpt>
      <trkpt lat="41.702051" lon="2.292393">
        <ele>337.664</ele>
        <time>2021-02-13T09:15:52Z</time>
      </trkpt>
      <trkpt lat="41.702039" lon="2.292277">
        <ele>336.910</ele>
        <time>2021-02-13T09:15:56Z</time>
      </trkpt>
      <trkpt lat="41.702033" lon="2.292214">
        <ele>336.508</ele>
        <time>2021-02-13T09:15:58Z</time>
      </trkpt>
      <trkpt lat="41.702028" lon="2.292153">
        <ele>336.220</ele>
        <time>2021-02-13T09:16:00Z</time>
      </trkpt>
      <trkpt lat="41.702017" lon="2.292091">
        <ele>335.659</ele>
        <time>2021-02-13T09:16:02Z</time>
      </trkpt>
      <trkpt lat="41.702010" lon="2.291997">
        <ele>335.240</ele>
        <time>2021-02-13T09:16:05Z</time>
      </trkpt>
      <trkpt lat="41.702004" lon="2.291931">
        <ele>334.919</ele>
        <time>2021-02-13T09:16:08Z</time>
      </trkpt>
      <trkpt lat="41.702008" lon="2.291845">
        <ele>335.872</ele>
        <time>2021-02-13T09:16:10Z</time>
      </trkpt>
      <trkpt lat="41.702013" lon="2.291746">
        <ele>336.834</ele>
        <time>2021-02-13T09:16:14Z</time>
      </trkpt>
      <trkpt lat="41.702000" lon="2.291646">
        <ele>337.064</ele>
        <time>2021-02-13T09:16:18Z</time>
      </trkpt>
      <trkpt lat="41.702006" lon="2.291552">
        <ele>338.290</ele>
        <time>2021-02-13T09:16:22Z</time>
      </trkpt>
      <trkpt lat="41.702000" lon="2.291451">
        <ele>339.058</ele>
        <time>2021-02-13T09:16:26Z</time>
      </trkpt>
      <trkpt lat="41.702006" lon="2.291349">
        <ele>340.352</ele>
        <time>2021-02-13T09:16:30Z</time>
      </trkpt>
      <trkpt lat="41.702001" lon="2.291245">
        <ele>341.217</ele>
        <time>2021-02-13T09:16:34Z</time>
      </trkpt>
      <trkpt lat="41.701998" lon="2.291156">
        <ele>342.008</ele>
        <time>2021-02-13T09:16:39Z</time>
      </trkpt>
      <trkpt lat="41.701983" lon="2.291098">
        <ele>341.981</ele>
        <time>2021-02-13T09:16:42Z</time>
      </trkpt>
      <trkpt lat="41.701991" lon="2.291010">
        <ele>343.360</ele>
        <time>2021-02-13T09:16:46Z</time>
      </trkpt>
      <trkpt lat="41.701991" lon="2.290915">
        <ele>344.331</ele>
        <time>2021-02-13T09:16:50Z</time>
      </trkpt>
      <trkpt lat="41.702002" lon="2.290830">
        <ele>345.760</ele>
        <time>2021-02-13T09:16:54Z</time>
      </trkpt>
      <trkpt lat="41.702011" lon="2.290738">
        <ele>346.553</ele>
        <time>2021-02-13T09:16:58Z</time>
      </trkpt>
      <trkpt lat="41.702050" lon="2.290653">
        <ele>348.865</ele>
        <time>2021-02-13T09:17:02Z</time>
      </trkpt>
      <trkpt lat="41.702094" lon="2.290564">
        <ele>351.535</ele>
        <time>2021-02-13T09:17:07Z</time>
      </trkpt>
      <trkpt lat="41.702137" lon="2.290446">
        <ele>354.121</ele>
        <time>2021-02-13T09:17:13Z</time>
      </trkpt>
      <trkpt lat="41.702149" lon="2.290385">
        <ele>354.971</ele>
        <time>2021-02-13T09:17:15Z</time>
      </trkpt>
      <trkpt lat="41.702149" lon="2.290224">
        <ele>355.541</ele>
        <time>2021-02-13T09:17:21Z</time>
      </trkpt>
      <trkpt lat="41.702118" lon="2.290125">
        <ele>354.315</ele>
        <time>2021-02-13T09:17:25Z</time>
      </trkpt>
      <trkpt lat="41.702101" lon="2.290045">
        <ele>353.708</ele>
        <time>2021-02-13T09:17:29Z</time>
      </trkpt>
      <trkpt lat="41.702090" lon="2.289886">
        <ele>353.153</ele>
        <time>2021-02-13T09:17:37Z</time>
      </trkpt>
      <trkpt lat="41.702096" lon="2.289764">
        <ele>353.222</ele>
        <time>2021-02-13T09:17:42Z</time>
      </trkpt>
      <trkpt lat="41.702102" lon="2.289694">
        <ele>353.393</ele>
        <time>2021-02-13T09:17:45Z</time>
      </trkpt>
      <trkpt lat="41.702107" lon="2.289607">
        <ele>353.212</ele>
        <time>2021-02-13T09:17:49Z</time>
      </trkpt>
      <trkpt lat="41.702107" lon="2.289532">
        <ele>352.945</ele>
        <time>2021-02-13T09:17:53Z</time>
      </trkpt>
      <trkpt lat="41.702119" lon="2.289435">
        <ele>353.147</ele>
        <time>2021-02-13T09:17:57Z</time>
      </trkpt>
      <trkpt lat="41.702162" lon="2.289351">
        <ele>354.027</ele>
        <time>2021-02-13T09:18:00Z</time>
      </trkpt>
      <trkpt lat="41.702190" lon="2.289281">
        <ele>354.363</ele>
        <time>2021-02-13T09:18:03Z</time>
      </trkpt>
      <trkpt lat="41.702211" lon="2.289224">
        <ele>354.493</ele>
        <time>2021-02-13T09:18:06Z</time>
      </trkpt>
      <trkpt lat="41.702227" lon="2.289156">
        <ele>354.065</ele>
        <time>2021-02-13T09:18:08Z</time>
      </trkpt>
      <trkpt lat="41.702244" lon="2.289098">
        <ele>353.521</ele>
        <time>2021-02-13T09:18:10Z</time>
      </trkpt>
      <trkpt lat="41.702274" lon="2.288999">
        <ele>352.508</ele>
        <time>2021-02-13T09:18:15Z</time>
      </trkpt>
      <trkpt lat="41.702320" lon="2.288913">
        <ele>352.135</ele>
        <time>2021-02-13T09:18:20Z</time>
      </trkpt>
      <trkpt lat="41.702360" lon="2.288873">
        <ele>352.664</ele>
        <time>2021-02-13T09:18:23Z</time>
      </trkpt>
      <trkpt lat="41.702397" lon="2.288830">
        <ele>352.925</ele>
        <time>2021-02-13T09:18:25Z</time>
      </trkpt>
      <trkpt lat="41.702482" lon="2.288801">
        <ele>355.234</ele>
        <time>2021-02-13T09:18:30Z</time>
      </trkpt>
      <trkpt lat="41.702536" lon="2.288751">
        <ele>356.537</ele>
        <time>2021-02-13T09:18:39Z</time>
      </trkpt>
      <trkpt lat="41.702466" lon="2.288761">
        <ele>353.669</ele>
        <time>2021-02-13T09:18:43Z</time>
      </trkpt>
      <trkpt lat="41.702443" lon="2.288902">
        <ele>356.349</ele>
        <time>2021-02-13T09:19:15Z</time>
      </trkpt>
      <trkpt lat="41.702354" lon="2.289087">
        <ele>358.065</ele>
        <time>2021-02-13T09:19:20Z</time>
      </trkpt>
      <trkpt lat="41.702311" lon="2.289232">
        <ele>359.281</ele>
        <time>2021-02-13T09:19:23Z</time>
      </trkpt>
      <trkpt lat="41.702300" lon="2.289372">
        <ele>360.861</ele>
        <time>2021-02-13T09:19:26Z</time>
      </trkpt>
      <trkpt lat="41.702320" lon="2.289495">
        <ele>363.017</ele>
        <time>2021-02-13T09:19:28Z</time>
      </trkpt>
      <trkpt lat="41.702347" lon="2.289597">
        <ele>364.608</ele>
        <time>2021-02-13T09:19:31Z</time>
      </trkpt>
      <trkpt lat="41.702373" lon="2.289703">
        <ele>366.074</ele>
        <time>2021-02-13T09:19:33Z</time>
      </trkpt>
      <trkpt lat="41.702402" lon="2.289808">
        <ele>367.343</ele>
        <time>2021-02-13T09:19:35Z</time>
      </trkpt>
      <trkpt lat="41.702432" lon="2.289903">
        <ele>368.574</ele>
        <time>2021-02-13T09:19:37Z</time>
      </trkpt>
      <trkpt lat="41.702478" lon="2.290005">
        <ele>370.183</ele>
        <time>2021-02-13T09:19:39Z</time>
      </trkpt>
      <trkpt lat="41.702503" lon="2.290121">
        <ele>371.156</ele>
        <time>2021-02-13T09:19:41Z</time>
      </trkpt>
      <trkpt lat="41.702523" lon="2.290191">
        <ele>371.918</ele>
        <time>2021-02-13T09:19:44Z</time>
      </trkpt>
      <trkpt lat="41.702539" lon="2.290313">
        <ele>372.598</ele>
        <time>2021-02-13T09:19:46Z</time>
      </trkpt>
      <trkpt lat="41.702546" lon="2.290423">
        <ele>372.564</ele>
        <time>2021-02-13T09:19:48Z</time>
      </trkpt>
      <trkpt lat="41.702553" lon="2.290503">
        <ele>372.691</ele>
        <time>2021-02-13T09:19:50Z</time>
      </trkpt>
      <trkpt lat="41.702573" lon="2.290571">
        <ele>373.481</ele>
        <time>2021-02-13T09:19:52Z</time>
      </trkpt>
      <trkpt lat="41.702601" lon="2.290678">
        <ele>374.619</ele>
        <time>2021-02-13T09:19:57Z</time>
      </trkpt>
      <trkpt lat="41.702621" lon="2.290774">
        <ele>375.608</ele>
        <time>2021-02-13T09:20:03Z</time>
      </trkpt>
      <trkpt lat="41.702637" lon="2.290836">
        <ele>376.445</ele>
        <time>2021-02-13T09:20:06Z</time>
      </trkpt>
      <trkpt lat="41.702651" lon="2.290929">
        <ele>377.334</ele>
        <time>2021-02-13T09:20:10Z</time>
      </trkpt>
      <trkpt lat="41.702670" lon="2.290999">
        <ele>378.545</ele>
        <time>2021-02-13T09:20:14Z</time>
      </trkpt>
      <trkpt lat="41.702690" lon="2.291072">
        <ele>379.884</ele>
        <time>2021-02-13T09:20:19Z</time>
      </trkpt>
      <trkpt lat="41.702701" lon="2.291173">
        <ele>380.577</ele>
        <time>2021-02-13T09:20:23Z</time>
      </trkpt>
      <trkpt lat="41.702726" lon="2.291273">
        <ele>381.899</ele>
        <time>2021-02-13T09:20:28Z</time>
      </trkpt>
      <trkpt lat="41.702765" lon="2.291346">
        <ele>384.259</ele>
        <time>2021-02-13T09:20:33Z</time>
      </trkpt>
      <trkpt lat="41.702784" lon="2.291450">
        <ele>384.795</ele>
        <time>2021-02-13T09:20:37Z</time>
      </trkpt>
      <trkpt lat="41.702789" lon="2.291512">
        <ele>384.429</ele>
        <time>2021-02-13T09:20:40Z</time>
      </trkpt>
      <trkpt lat="41.702814" lon="2.291625">
        <ele>384.800</ele>
        <time>2021-02-13T09:20:45Z</time>
      </trkpt>
      <trkpt lat="41.702835" lon="2.291738">
        <ele>385.120</ele>
        <time>2021-02-13T09:20:50Z</time>
      </trkpt>
      <trkpt lat="41.702877" lon="2.291829">
        <ele>386.808</ele>
        <time>2021-02-13T09:20:54Z</time>
      </trkpt>
      <trkpt lat="41.702903" lon="2.291894">
        <ele>387.758</ele>
        <time>2021-02-13T09:20:57Z</time>
      </trkpt>
      <trkpt lat="41.702957" lon="2.291992">
        <ele>389.597</ele>
        <time>2021-02-13T09:21:02Z</time>
      </trkpt>
      <trkpt lat="41.702988" lon="2.292038">
        <ele>390.438</ele>
        <time>2021-02-13T09:21:04Z</time>
      </trkpt>
      <trkpt lat="41.703016" lon="2.292104">
        <ele>390.997</ele>
        <time>2021-02-13T09:21:07Z</time>
      </trkpt>
      <trkpt lat="41.703068" lon="2.292175">
        <ele>392.490</ele>
        <time>2021-02-13T09:21:11Z</time>
      </trkpt>
      <trkpt lat="41.703126" lon="2.292246">
        <ele>393.472</ele>
        <time>2021-02-13T09:21:16Z</time>
      </trkpt>
      <trkpt lat="41.703174" lon="2.292341">
        <ele>393.182</ele>
        <time>2021-02-13T09:21:21Z</time>
      </trkpt>
      <trkpt lat="41.703210" lon="2.292393">
        <ele>393.458</ele>
        <time>2021-02-13T09:21:24Z</time>
      </trkpt>
      <trkpt lat="41.703231" lon="2.292453">
        <ele>392.847</ele>
        <time>2021-02-13T09:21:27Z</time>
      </trkpt>
      <trkpt lat="41.703284" lon="2.292510">
        <ele>393.629</ele>
        <time>2021-02-13T09:21:32Z</time>
      </trkpt>
      <trkpt lat="41.703343" lon="2.292545">
        <ele>394.721</ele>
        <time>2021-02-13T09:21:36Z</time>
      </trkpt>
      <trkpt lat="41.703429" lon="2.292558">
        <ele>396.008</ele>
        <time>2021-02-13T09:21:41Z</time>
      </trkpt>
      <trkpt lat="41.703485" lon="2.292566">
        <ele>396.950</ele>
        <time>2021-02-13T09:21:44Z</time>
      </trkpt>
      <trkpt lat="41.703570" lon="2.292561">
        <ele>398.899</ele>
        <time>2021-02-13T09:21:49Z</time>
      </trkpt>
      <trkpt lat="41.703623" lon="2.292546">
        <ele>400.520</ele>
        <time>2021-02-13T09:21:52Z</time>
      </trkpt>
      <trkpt lat="41.703670" lon="2.292550">
        <ele>401.719</ele>
        <time>2021-02-13T09:21:55Z</time>
      </trkpt>
      <trkpt lat="41.703739" lon="2.292547">
        <ele>403.722</ele>
        <time>2021-02-13T09:21:59Z</time>
      </trkpt>
      <trkpt lat="41.703794" lon="2.292549">
        <ele>405.294</ele>
        <time>2021-02-13T09:22:02Z</time>
      </trkpt>
      <trkpt lat="41.703841" lon="2.292579">
        <ele>405.384</ele>
        <time>2021-02-13T09:22:06Z</time>
      </trkpt>
      <trkpt lat="41.703880" lon="2.292627">
        <ele>404.390</ele>
        <time>2021-02-13T09:22:09Z</time>
      </trkpt>
      <trkpt lat="41.703930" lon="2.292711">
        <ele>402.951</ele>
        <time>2021-02-13T09:22:13Z</time>
      </trkpt>
      <trkpt lat="41.703961" lon="2.292754">
        <ele>402.601</ele>
        <time>2021-02-13T09:22:16Z</time>
      </trkpt>
      <trkpt lat="41.703988" lon="2.292805">
        <ele>402.011</ele>
        <time>2021-02-13T09:22:18Z</time>
      </trkpt>
      <trkpt lat="41.704044" lon="2.292879">
        <ele>402.208</ele>
        <time>2021-02-13T09:22:23Z</time>
      </trkpt>
      <trkpt lat="41.704113" lon="2.292921">
        <ele>404.521</ele>
        <time>2021-02-13T09:22:27Z</time>
      </trkpt>
      <trkpt lat="41.704175" lon="2.292984">
        <ele>405.820</ele>
        <time>2021-02-13T09:22:32Z</time>
      </trkpt>
      <trkpt lat="41.704211" lon="2.293036">
        <ele>406.221</ele>
        <time>2021-02-13T09:22:35Z</time>
      </trkpt>
      <trkpt lat="41.704250" lon="2.293126">
        <ele>406.130</ele>
        <time>2021-02-13T09:22:40Z</time>
      </trkpt>
      <trkpt lat="41.704300" lon="2.293203">
        <ele>407.293</ele>
        <time>2021-02-13T09:22:44Z</time>
      </trkpt>
      <trkpt lat="41.704315" lon="2.293261">
        <ele>406.885</ele>
        <time>2021-02-13T09:22:47Z</time>
      </trkpt>
      <trkpt lat="41.704344" lon="2.293378">
        <ele>405.775</ele>
        <time>2021-02-13T09:22:51Z</time>
      </trkpt>
      <trkpt lat="41.704367" lon="2.293452">
        <ele>405.351</ele>
        <time>2021-02-13T09:22:54Z</time>
      </trkpt>
      <trkpt lat="41.704383" lon="2.293513">
        <ele>404.781</ele>
        <time>2021-02-13T09:22:56Z</time>
      </trkpt>
      <trkpt lat="41.704409" lon="2.293570">
        <ele>404.961</ele>
        <time>2021-02-13T09:22:58Z</time>
      </trkpt>
      <trkpt lat="41.704443" lon="2.293632">
        <ele>405.517</ele>
        <time>2021-02-13T09:23:01Z</time>
      </trkpt>
      <trkpt lat="41.704473" lon="2.293702">
        <ele>405.608</ele>
        <time>2021-02-13T09:23:04Z</time>
      </trkpt>
      <trkpt lat="41.704499" lon="2.293756">
        <ele>405.934</ele>
        <time>2021-02-13T09:23:07Z</time>
      </trkpt>
      <trkpt lat="41.704532" lon="2.293825">
        <ele>406.413</ele>
        <time>2021-02-13T09:23:10Z</time>
      </trkpt>
      <trkpt lat="41.704564" lon="2.293877">
        <ele>407.124</ele>
        <time>2021-02-13T09:23:13Z</time>
      </trkpt>
      <trkpt lat="41.704598" lon="2.293954">
        <ele>407.893</ele>
        <time>2021-02-13T09:23:17Z</time>
      </trkpt>
      <trkpt lat="41.704624" lon="2.294063">
        <ele>407.496</ele>
        <time>2021-02-13T09:23:21Z</time>
      </trkpt>
      <trkpt lat="41.704652" lon="2.294123">
        <ele>408.018</ele>
        <time>2021-02-13T09:23:25Z</time>
      </trkpt>
      <trkpt lat="41.704687" lon="2.294170">
        <ele>409.148</ele>
        <time>2021-02-13T09:23:28Z</time>
      </trkpt>
      <trkpt lat="41.704733" lon="2.294214">
        <ele>411.184</ele>
        <time>2021-02-13T09:23:32Z</time>
      </trkpt>
      <trkpt lat="41.704770" lon="2.294266">
        <ele>412.852</ele>
        <time>2021-02-13T09:23:35Z</time>
      </trkpt>
      <trkpt lat="41.704811" lon="2.294316">
        <ele>414.653</ele>
        <time>2021-02-13T09:23:39Z</time>
      </trkpt>
      <trkpt lat="41.704860" lon="2.294323">
        <ele>417.508</ele>
        <time>2021-02-13T09:23:43Z</time>
      </trkpt>
      <trkpt lat="41.704914" lon="2.294374">
        <ele>420.008</ele>
        <time>2021-02-13T09:23:48Z</time>
      </trkpt>
      <trkpt lat="41.704953" lon="2.294456">
        <ele>421.221</ele>
        <time>2021-02-13T09:23:52Z</time>
      </trkpt>
      <trkpt lat="41.704959" lon="2.294528">
        <ele>420.830</ele>
        <time>2021-02-13T09:23:56Z</time>
      </trkpt>
      <trkpt lat="41.704948" lon="2.294618">
        <ele>419.251</ele>
        <time>2021-02-13T09:24:00Z</time>
      </trkpt>
      <trkpt lat="41.704935" lon="2.294719">
        <ele>417.530</ele>
        <time>2021-02-13T09:24:04Z</time>
      </trkpt>
      <trkpt lat="41.704922" lon="2.294806">
        <ele>416.123</ele>
        <time>2021-02-13T09:24:08Z</time>
      </trkpt>
      <trkpt lat="41.704933" lon="2.294869">
        <ele>416.235</ele>
        <time>2021-02-13T09:24:12Z</time>
      </trkpt>
      <trkpt lat="41.704990" lon="2.294886">
        <ele>419.345</ele>
        <time>2021-02-13T09:24:17Z</time>
      </trkpt>
      <trkpt lat="41.705032" lon="2.294767">
        <ele>423.081</ele>
        <time>2021-02-13T09:24:22Z</time>
      </trkpt>
      <trkpt lat="41.705035" lon="2.294682">
        <ele>423.934</ele>
        <time>2021-02-13T09:24:26Z</time>
      </trkpt>
      <trkpt lat="41.705032" lon="2.294606">
        <ele>424.455</ele>
        <time>2021-02-13T09:24:30Z</time>
      </trkpt>
      <trkpt lat="41.705049" lon="2.294546">
        <ele>426.010</ele>
        <time>2021-02-13T09:24:32Z</time>
      </trkpt>
      <trkpt lat="41.705088" lon="2.294472">
        <ele>428.908</ele>
        <time>2021-02-13T09:24:36Z</time>
      </trkpt>
      <trkpt lat="41.705121" lon="2.294395">
        <ele>431.689</ele>
        <time>2021-02-13T09:24:40Z</time>
      </trkpt>
      <trkpt lat="41.705107" lon="2.294301">
        <ele>432.098</ele>
        <time>2021-02-13T09:24:44Z</time>
      </trkpt>
      <trkpt lat="41.705076" lon="2.294240">
        <ele>431.129</ele>
        <time>2021-02-13T09:24:47Z</time>
      </trkpt>
      <trkpt lat="41.705027" lon="2.294200">
        <ele>429.048</ele>
        <time>2021-02-13T09:24:50Z</time>
      </trkpt>
      <trkpt lat="41.704975" lon="2.294123">
        <ele>427.771</ele>
        <time>2021-02-13T09:24:54Z</time>
      </trkpt>
      <trkpt lat="41.704941" lon="2.294051">
        <ele>427.553</ele>
        <time>2021-02-13T09:24:58Z</time>
      </trkpt>
      <trkpt lat="41.704907" lon="2.294006">
        <ele>426.423</ele>
        <time>2021-02-13T09:25:00Z</time>
      </trkpt>
      <trkpt lat="41.704886" lon="2.293933">
        <ele>426.769</ele>
        <time>2021-02-13T09:25:03Z</time>
      </trkpt>
      <trkpt lat="41.704886" lon="2.293859">
        <ele>428.448</ele>
        <time>2021-02-13T09:25:06Z</time>
      </trkpt>
      <trkpt lat="41.704871" lon="2.293775">
        <ele>429.061</ele>
        <time>2021-02-13T09:25:10Z</time>
      </trkpt>
      <trkpt lat="41.704863" lon="2.293697">
        <ele>429.917</ele>
        <time>2021-02-13T09:25:14Z</time>
      </trkpt>
      <trkpt lat="41.704834" lon="2.293621">
        <ele>429.308</ele>
        <time>2021-02-13T09:25:18Z</time>
      </trkpt>
      <trkpt lat="41.704778" lon="2.293583">
        <ele>426.010</ele>
        <time>2021-02-13T09:25:22Z</time>
      </trkpt>
      <trkpt lat="41.704767" lon="2.293491">
        <ele>427.619</ele>
        <time>2021-02-13T09:25:26Z</time>
      </trkpt>
      <trkpt lat="41.704765" lon="2.293383">
        <ele>430.440</ele>
        <time>2021-02-13T09:25:30Z</time>
      </trkpt>
      <trkpt lat="41.704755" lon="2.293301">
        <ele>432.159</ele>
        <time>2021-02-13T09:25:34Z</time>
      </trkpt>
      <trkpt lat="41.704743" lon="2.293218">
        <ele>433.732</ele>
        <time>2021-02-13T09:25:38Z</time>
      </trkpt>
      <trkpt lat="41.704721" lon="2.293129">
        <ele>434.894</ele>
        <time>2021-02-13T09:25:42Z</time>
      </trkpt>
      <trkpt lat="41.704715" lon="2.293046">
        <ele>436.834</ele>
        <time>2021-02-13T09:25:46Z</time>
      </trkpt>
      <trkpt lat="41.704688" lon="2.292979">
        <ele>437.050</ele>
        <time>2021-02-13T09:25:50Z</time>
      </trkpt>
      <trkpt lat="41.704673" lon="2.292883">
        <ele>438.788</ele>
        <time>2021-02-13T09:25:54Z</time>
      </trkpt>
      <trkpt lat="41.704663" lon="2.292793">
        <ele>440.524</ele>
        <time>2021-02-13T09:25:58Z</time>
      </trkpt>
      <trkpt lat="41.704634" lon="2.292700">
        <ele>440.726</ele>
        <time>2021-02-13T09:26:02Z</time>
      </trkpt>
      <trkpt lat="41.704610" lon="2.292630">
        <ele>440.708</ele>
        <time>2021-02-13T09:26:05Z</time>
      </trkpt>
      <trkpt lat="41.704592" lon="2.292573">
        <ele>440.984</ele>
        <time>2021-02-13T09:26:09Z</time>
      </trkpt>
      <trkpt lat="41.704552" lon="2.292530">
        <ele>439.393</ele>
        <time>2021-02-13T09:26:13Z</time>
      </trkpt>
      <trkpt lat="41.704519" lon="2.292481">
        <ele>438.484</ele>
        <time>2021-02-13T09:26:17Z</time>
      </trkpt>
      <trkpt lat="41.704486" lon="2.292425">
        <ele>438.133</ele>
        <time>2021-02-13T09:26:20Z</time>
      </trkpt>
      <trkpt lat="41.704448" lon="2.292385">
        <ele>437.316</ele>
        <time>2021-02-13T09:26:22Z</time>
      </trkpt>
      <trkpt lat="41.704425" lon="2.292325">
        <ele>438.658</ele>
        <time>2021-02-13T09:26:24Z</time>
      </trkpt>
      <trkpt lat="41.704398" lon="2.292267">
        <ele>439.768</ele>
        <time>2021-02-13T09:26:26Z</time>
      </trkpt>
      <trkpt lat="41.704379" lon="2.292198">
        <ele>441.394</ele>
        <time>2021-02-13T09:26:29Z</time>
      </trkpt>
      <trkpt lat="41.704360" lon="2.292135">
        <ele>442.318</ele>
        <time>2021-02-13T09:26:32Z</time>
      </trkpt>
      <trkpt lat="41.704325" lon="2.292062">
        <ele>443.098</ele>
        <time>2021-02-13T09:26:36Z</time>
      </trkpt>
      <trkpt lat="41.704288" lon="2.292002">
        <ele>443.417</ele>
        <time>2021-02-13T09:26:39Z</time>
      </trkpt>
      <trkpt lat="41.704260" lon="2.291940">
        <ele>444.108</ele>
        <time>2021-02-13T09:26:42Z</time>
      </trkpt>
      <trkpt lat="41.704224" lon="2.291884">
        <ele>444.447</ele>
        <time>2021-02-13T09:26:45Z</time>
      </trkpt>
      <trkpt lat="41.704198" lon="2.291830">
        <ele>445.156</ele>
        <time>2021-02-13T09:26:48Z</time>
      </trkpt>
      <trkpt lat="41.704168" lon="2.291767">
        <ele>446.177</ele>
        <time>2021-02-13T09:26:52Z</time>
      </trkpt>
      <trkpt lat="41.704134" lon="2.291716">
        <ele>446.566</ele>
        <time>2021-02-13T09:26:55Z</time>
      </trkpt>
      <trkpt lat="41.704091" lon="2.291679">
        <ele>446.239</ele>
        <time>2021-02-13T09:26:58Z</time>
      </trkpt>
      <trkpt lat="41.704058" lon="2.291632">
        <ele>445.751</ele>
        <time>2021-02-13T09:27:01Z</time>
      </trkpt>
      <trkpt lat="41.704020" lon="2.291595">
        <ele>444.661</ele>
        <time>2021-02-13T09:27:04Z</time>
      </trkpt>
      <trkpt lat="41.703981" lon="2.291561">
        <ele>443.637</ele>
        <time>2021-02-13T09:27:07Z</time>
      </trkpt>
      <trkpt lat="41.703940" lon="2.291527">
        <ele>442.632</ele>
        <time>2021-02-13T09:27:11Z</time>
      </trkpt>
      <trkpt lat="41.703894" lon="2.291502">
        <ele>441.392</ele>
        <time>2021-02-13T09:27:14Z</time>
      </trkpt>
      <trkpt lat="41.703846" lon="2.291456">
        <ele>439.811</ele>
        <time>2021-02-13T09:27:17Z</time>
      </trkpt>
      <trkpt lat="41.703826" lon="2.291385">
        <ele>439.508</ele>
        <time>2021-02-13T09:27:20Z</time>
      </trkpt>
      <trkpt lat="41.703815" lon="2.291326">
        <ele>438.879</ele>
        <time>2021-02-13T09:27:22Z</time>
      </trkpt>
      <trkpt lat="41.703807" lon="2.291253">
        <ele>438.268</ele>
        <time>2021-02-13T09:27:24Z</time>
      </trkpt>
      <trkpt lat="41.703806" lon="2.291192">
        <ele>437.949</ele>
        <time>2021-02-13T09:27:26Z</time>
      </trkpt>
      <trkpt lat="41.703835" lon="2.291120">
        <ele>438.528</ele>
        <time>2021-02-13T09:27:29Z</time>
      </trkpt>
      <trkpt lat="41.703879" lon="2.291099">
        <ele>439.581</ele>
        <time>2021-02-13T09:27:32Z</time>
      </trkpt>
      <trkpt lat="41.703926" lon="2.291137">
        <ele>441.023</ele>
        <time>2021-02-13T09:27:35Z</time>
      </trkpt>
      <trkpt lat="41.703972" lon="2.291139">
        <ele>442.123</ele>
        <time>2021-02-13T09:27:38Z</time>
      </trkpt>
      <trkpt lat="41.704025" lon="2.291156">
        <ele>443.419</ele>
        <time>2021-02-13T09:27:42Z</time>
      </trkpt>
      <trkpt lat="41.704069" lon="2.291206">
        <ele>445.092</ele>
        <time>2021-02-13T09:27:46Z</time>
      </trkpt>
      <trkpt lat="41.704108" lon="2.291242">
        <ele>446.473</ele>
        <time>2021-02-13T09:27:49Z</time>
      </trkpt>
      <trkpt lat="41.704150" lon="2.291292">
        <ele>448.220</ele>
        <time>2021-02-13T09:27:52Z</time>
      </trkpt>
      <trkpt lat="41.704190" lon="2.291328">
        <ele>449.308</ele>
        <time>2021-02-13T09:27:56Z</time>
      </trkpt>
      <trkpt lat="41.704229" lon="2.291358">
        <ele>450.215</ele>
        <time>2021-02-13T09:27:58Z</time>
      </trkpt>
      <trkpt lat="41.704277" lon="2.291370">
        <ele>450.914</ele>
        <time>2021-02-13T09:28:00Z</time>
      </trkpt>
      <trkpt lat="41.704320" lon="2.291393">
        <ele>451.755</ele>
        <time>2021-02-13T09:28:02Z</time>
      </trkpt>
      <trkpt lat="41.704380" lon="2.291444">
        <ele>452.494</ele>
        <time>2021-02-13T09:28:06Z</time>
      </trkpt>
      <trkpt lat="41.704428" lon="2.291471">
        <ele>453.127</ele>
        <time>2021-02-13T09:28:08Z</time>
      </trkpt>
      <trkpt lat="41.704490" lon="2.291527">
        <ele>454.019</ele>
        <time>2021-02-13T09:28:12Z</time>
      </trkpt>
      <trkpt lat="41.704526" lon="2.291599">
        <ele>454.979</ele>
        <time>2021-02-13T09:28:16Z</time>
      </trkpt>
      <trkpt lat="41.704564" lon="2.291667">
        <ele>456.175</ele>
        <time>2021-02-13T09:28:20Z</time>
      </trkpt>
      <trkpt lat="41.704578" lon="2.291767">
        <ele>455.595</ele>
        <time>2021-02-13T09:28:24Z</time>
      </trkpt>
      <trkpt lat="41.704621" lon="2.291853">
        <ele>455.849</ele>
        <time>2021-02-13T09:28:28Z</time>
      </trkpt>
      <trkpt lat="41.704631" lon="2.291927">
        <ele>455.523</ele>
        <time>2021-02-13T09:28:32Z</time>
      </trkpt>
      <trkpt lat="41.704663" lon="2.292000">
        <ele>455.508</ele>
        <time>2021-02-13T09:28:37Z</time>
      </trkpt>
      <trkpt lat="41.704700" lon="2.292039">
        <ele>456.295</ele>
        <time>2021-02-13T09:28:40Z</time>
      </trkpt>
      <trkpt lat="41.704734" lon="2.292120">
        <ele>456.584</ele>
        <time>2021-02-13T09:28:44Z</time>
      </trkpt>
      <trkpt lat="41.704779" lon="2.292180">
        <ele>457.895</ele>
        <time>2021-02-13T09:28:48Z</time>
      </trkpt>
      <trkpt lat="41.704829" lon="2.292229">
        <ele>459.534</ele>
        <time>2021-02-13T09:28:52Z</time>
      </trkpt>
      <trkpt lat="41.704869" lon="2.292287">
        <ele>460.837</ele>
        <time>2021-02-13T09:28:56Z</time>
      </trkpt>
      <trkpt lat="41.704910" lon="2.292359">
        <ele>462.159</ele>
        <time>2021-02-13T09:29:00Z</time>
      </trkpt>
      <trkpt lat="41.704937" lon="2.292436">
        <ele>463.039</ele>
        <time>2021-02-13T09:29:04Z</time>
      </trkpt>
      <trkpt lat="41.704980" lon="2.292479">
        <ele>465.055</ele>
        <time>2021-02-13T09:29:08Z</time>
      </trkpt>
      <trkpt lat="41.704997" lon="2.292561">
        <ele>465.252</ele>
        <time>2021-02-13T09:29:12Z</time>
      </trkpt>
      <trkpt lat="41.705043" lon="2.292601">
        <ele>467.053</ele>
        <time>2021-02-13T09:29:16Z</time>
      </trkpt>
      <trkpt lat="41.705078" lon="2.292651">
        <ele>468.308</ele>
        <time>2021-02-13T09:29:20Z</time>
      </trkpt>
      <trkpt lat="41.705111" lon="2.292718">
        <ele>469.508</ele>
        <time>2021-02-13T09:29:24Z</time>
      </trkpt>
      <trkpt lat="41.705150" lon="2.292824">
        <ele>470.351</ele>
        <time>2021-02-13T09:29:28Z</time>
      </trkpt>
      <trkpt lat="41.705196" lon="2.292893">
        <ele>471.990</ele>
        <time>2021-02-13T09:29:32Z</time>
      </trkpt>
      <trkpt lat="41.705234" lon="2.292930">
        <ele>473.641</ele>
        <time>2021-02-13T09:29:36Z</time>
      </trkpt>
      <trkpt lat="41.705254" lon="2.292997">
        <ele>474.120</ele>
        <time>2021-02-13T09:29:46Z</time>
      </trkpt>
      <trkpt lat="41.705293" lon="2.293052">
        <ele>475.953</ele>
        <time>2021-02-13T09:29:50Z</time>
      </trkpt>
      <trkpt lat="41.705320" lon="2.293117">
        <ele>476.295</ele>
        <time>2021-02-13T09:29:52Z</time>
      </trkpt>
      <trkpt lat="41.705345" lon="2.293168">
        <ele>476.895</ele>
        <time>2021-02-13T09:29:55Z</time>
      </trkpt>
      <trkpt lat="41.705368" lon="2.293232">
        <ele>477.191</ele>
        <time>2021-02-13T09:29:58Z</time>
      </trkpt>
      <trkpt lat="41.705403" lon="2.293289">
        <ele>478.319</ele>
        <time>2021-02-13T09:30:01Z</time>
      </trkpt>
      <trkpt lat="41.705432" lon="2.293339">
        <ele>479.309</ele>
        <time>2021-02-13T09:30:04Z</time>
      </trkpt>
      <trkpt lat="41.705459" lon="2.293398">
        <ele>479.119</ele>
        <time>2021-02-13T09:30:07Z</time>
      </trkpt>
      <trkpt lat="41.705496" lon="2.293460">
        <ele>479.608</ele>
        <time>2021-02-13T09:30:11Z</time>
      </trkpt>
      <trkpt lat="41.705543" lon="2.293510">
        <ele>481.157</ele>
        <time>2021-02-13T09:30:15Z</time>
      </trkpt>
      <trkpt lat="41.705579" lon="2.293567">
        <ele>481.426</ele>
        <time>2021-02-13T09:30:19Z</time>
      </trkpt>
      <trkpt lat="41.705620" lon="2.293616">
        <ele>482.157</ele>
        <time>2021-02-13T09:30:23Z</time>
      </trkpt>
      <trkpt lat="41.705661" lon="2.293647">
        <ele>483.156</ele>
        <time>2021-02-13T09:30:26Z</time>
      </trkpt>
      <trkpt lat="41.705711" lon="2.293680">
        <ele>484.699</ele>
        <time>2021-02-13T09:30:30Z</time>
      </trkpt>
      <trkpt lat="41.705748" lon="2.293716">
        <ele>485.421</ele>
        <time>2021-02-13T09:30:33Z</time>
      </trkpt>
      <trkpt lat="41.705787" lon="2.293768">
        <ele>486.061</ele>
        <time>2021-02-13T09:30:37Z</time>
      </trkpt>
      <trkpt lat="41.705830" lon="2.293812">
        <ele>487.037</ele>
        <time>2021-02-13T09:30:41Z</time>
      </trkpt>
      <trkpt lat="41.705866" lon="2.293854">
        <ele>487.823</ele>
        <time>2021-02-13T09:30:44Z</time>
      </trkpt>
      <trkpt lat="41.705918" lon="2.293917">
        <ele>488.783</ele>
        <time>2021-02-13T09:30:48Z</time>
      </trkpt>
      <trkpt lat="41.705955" lon="2.293950">
        <ele>489.711</ele>
        <time>2021-02-13T09:30:51Z</time>
      </trkpt>
      <trkpt lat="41.705992" lon="2.293992">
        <ele>490.408</ele>
        <time>2021-02-13T09:30:53Z</time>
      </trkpt>
      <trkpt lat="41.706025" lon="2.294072">
        <ele>489.968</ele>
        <time>2021-02-13T09:30:56Z</time>
      </trkpt>
      <trkpt lat="41.706050" lon="2.294126">
        <ele>489.767</ele>
        <time>2021-02-13T09:30:59Z</time>
      </trkpt>
      <trkpt lat="41.706087" lon="2.294196">
        <ele>490.388</ele>
        <time>2021-02-13T09:31:03Z</time>
      </trkpt>
      <trkpt lat="41.706118" lon="2.294263">
        <ele>491.447</ele>
        <time>2021-02-13T09:31:06Z</time>
      </trkpt>
      <trkpt lat="41.706129" lon="2.294328">
        <ele>491.470</ele>
        <time>2021-02-13T09:31:09Z</time>
      </trkpt>
      <trkpt lat="41.706110" lon="2.294416">
        <ele>489.282</ele>
        <time>2021-02-13T09:31:14Z</time>
      </trkpt>
      <trkpt lat="41.706076" lon="2.294463">
        <ele>487.472</ele>
        <time>2021-02-13T09:31:17Z</time>
      </trkpt>
      <trkpt lat="41.706023" lon="2.294525">
        <ele>485.018</ele>
        <time>2021-02-13T09:31:21Z</time>
      </trkpt>
      <trkpt lat="41.706014" lon="2.294604">
        <ele>485.192</ele>
        <time>2021-02-13T09:31:25Z</time>
      </trkpt>
      <trkpt lat="41.706002" lon="2.294683">
        <ele>484.973</ele>
        <time>2021-02-13T09:31:29Z</time>
      </trkpt>
      <trkpt lat="41.705982" lon="2.294753">
        <ele>484.220</ele>
        <time>2021-02-13T09:31:33Z</time>
      </trkpt>
      <trkpt lat="41.705976" lon="2.294827">
        <ele>484.508</ele>
        <time>2021-02-13T09:31:37Z</time>
      </trkpt>
      <trkpt lat="41.705964" lon="2.294910">
        <ele>484.435</ele>
        <time>2021-02-13T09:31:41Z</time>
      </trkpt>
      <trkpt lat="41.705954" lon="2.294994">
        <ele>484.544</ele>
        <time>2021-02-13T09:31:45Z</time>
      </trkpt>
      <trkpt lat="41.705962" lon="2.295078">
        <ele>484.755</ele>
        <time>2021-02-13T09:31:49Z</time>
      </trkpt>
      <trkpt lat="41.705971" lon="2.295148">
        <ele>484.994</ele>
        <time>2021-02-13T09:31:53Z</time>
      </trkpt>
      <trkpt lat="41.705986" lon="2.295237">
        <ele>485.457</ele>
        <time>2021-02-13T09:31:57Z</time>
      </trkpt>
      <trkpt lat="41.706011" lon="2.295306">
        <ele>486.669</ele>
        <time>2021-02-13T09:32:02Z</time>
      </trkpt>
      <trkpt lat="41.706019" lon="2.295367">
        <ele>486.919</ele>
        <time>2021-02-13T09:32:05Z</time>
      </trkpt>
      <trkpt lat="41.706025" lon="2.295427">
        <ele>487.155</ele>
        <time>2021-02-13T09:32:07Z</time>
      </trkpt>
      <trkpt lat="41.706054" lon="2.295481">
        <ele>488.547</ele>
        <time>2021-02-13T09:32:10Z</time>
      </trkpt>
      <trkpt lat="41.706092" lon="2.295530">
        <ele>490.229</ele>
        <time>2021-02-13T09:32:13Z</time>
      </trkpt>
      <trkpt lat="41.706126" lon="2.295579">
        <ele>491.521</ele>
        <time>2021-02-13T09:32:16Z</time>
      </trkpt>
      <trkpt lat="41.706164" lon="2.295628">
        <ele>492.908</ele>
        <time>2021-02-13T09:32:19Z</time>
      </trkpt>
      <trkpt lat="41.706195" lon="2.295684">
        <ele>493.680</ele>
        <time>2021-02-13T09:32:22Z</time>
      </trkpt>
      <trkpt lat="41.706230" lon="2.295732">
        <ele>494.479</ele>
        <time>2021-02-13T09:32:24Z</time>
      </trkpt>
      <trkpt lat="41.706269" lon="2.295774">
        <ele>495.420</ele>
        <time>2021-02-13T09:32:27Z</time>
      </trkpt>
      <trkpt lat="41.706315" lon="2.295822">
        <ele>496.369</ele>
        <time>2021-02-13T09:32:30Z</time>
      </trkpt>
      <trkpt lat="41.706359" lon="2.295894">
        <ele>496.322</ele>
        <time>2021-02-13T09:32:34Z</time>
      </trkpt>
      <trkpt lat="41.706398" lon="2.295939">
        <ele>496.674</ele>
        <time>2021-02-13T09:32:37Z</time>
      </trkpt>
      <trkpt lat="41.706452" lon="2.295968">
        <ele>497.784</ele>
        <time>2021-02-13T09:32:40Z</time>
      </trkpt>
      <trkpt lat="41.706511" lon="2.295983">
        <ele>499.150</ele>
        <time>2021-02-13T09:32:44Z</time>
      </trkpt>
      <trkpt lat="41.706555" lon="2.295998">
        <ele>500.021</ele>
        <time>2021-02-13T09:32:47Z</time>
      </trkpt>
      <trkpt lat="41.706602" lon="2.296003">
        <ele>501.341</ele>
        <time>2021-02-13T09:32:50Z</time>
      </trkpt>
      <trkpt lat="41.706657" lon="2.296011">
        <ele>502.705</ele>
        <time>2021-02-13T09:32:54Z</time>
      </trkpt>
      <trkpt lat="41.706708" lon="2.296019">
        <ele>503.708</ele>
        <time>2021-02-13T09:32:57Z</time>
      </trkpt>
      <trkpt lat="41.706761" lon="2.296016">
        <ele>505.158</ele>
        <time>2021-02-13T09:33:01Z</time>
      </trkpt>
      <trkpt lat="41.706825" lon="2.296025">
        <ele>506.437</ele>
        <time>2021-02-13T09:33:05Z</time>
      </trkpt>
      <trkpt lat="41.706889" lon="2.296047">
        <ele>507.128</ele>
        <time>2021-02-13T09:33:09Z</time>
      </trkpt>
      <trkpt lat="41.706952" lon="2.296055">
        <ele>508.497</ele>
        <time>2021-02-13T09:33:13Z</time>
      </trkpt>
      <trkpt lat="41.706908" lon="2.296014">
        <ele>508.910</ele>
        <time>2021-02-13T09:33:32Z</time>
      </trkpt>
      <trkpt lat="41.706951" lon="2.296045">
        <ele>508.832</ele>
        <time>2021-02-13T09:33:51Z</time>
      </trkpt>
      <trkpt lat="41.707021" lon="2.296076">
        <ele>509.662</ele>
        <time>2021-02-13T09:33:54Z</time>
      </trkpt>
      <trkpt lat="41.707090" lon="2.296089">
        <ele>511.058</ele>
        <time>2021-02-13T09:33:56Z</time>
      </trkpt>
      <trkpt lat="41.707145" lon="2.296110">
        <ele>511.866</ele>
        <time>2021-02-13T09:34:00Z</time>
      </trkpt>
      <trkpt lat="41.707189" lon="2.296142">
        <ele>511.829</ele>
        <time>2021-02-13T09:34:02Z</time>
      </trkpt>
      <trkpt lat="41.707241" lon="2.296171">
        <ele>512.321</ele>
        <time>2021-02-13T09:34:05Z</time>
      </trkpt>
      <trkpt lat="41.707282" lon="2.296201">
        <ele>512.608</ele>
        <time>2021-02-13T09:34:08Z</time>
      </trkpt>
      <trkpt lat="41.707339" lon="2.296231">
        <ele>513.552</ele>
        <time>2021-02-13T09:34:12Z</time>
      </trkpt>
      <trkpt lat="41.707397" lon="2.296240">
        <ele>515.291</ele>
        <time>2021-02-13T09:34:15Z</time>
      </trkpt>
      <trkpt lat="41.707446" lon="2.296250">
        <ele>516.622</ele>
        <time>2021-02-13T09:34:18Z</time>
      </trkpt>
      <trkpt lat="41.707505" lon="2.296273">
        <ele>517.841</ele>
        <time>2021-02-13T09:34:22Z</time>
      </trkpt>
      <trkpt lat="41.707556" lon="2.296287">
        <ele>519.494</ele>
        <time>2021-02-13T09:34:26Z</time>
      </trkpt>
      <trkpt lat="41.707614" lon="2.296327">
        <ele>520.526</ele>
        <time>2021-02-13T09:34:31Z</time>
      </trkpt>
      <trkpt lat="41.707670" lon="2.296371">
        <ele>521.566</ele>
        <time>2021-02-13T09:34:34Z</time>
      </trkpt>
      <trkpt lat="41.707733" lon="2.296439">
        <ele>522.912</ele>
        <time>2021-02-13T09:34:38Z</time>
      </trkpt>
      <trkpt lat="41.707763" lon="2.296538">
        <ele>522.655</ele>
        <time>2021-02-13T09:34:42Z</time>
      </trkpt>
      <trkpt lat="41.707764" lon="2.296620">
        <ele>521.107</ele>
        <time>2021-02-13T09:34:46Z</time>
      </trkpt>
      <trkpt lat="41.707753" lon="2.296700">
        <ele>519.217</ele>
        <time>2021-02-13T09:34:50Z</time>
      </trkpt>
      <trkpt lat="41.707754" lon="2.296764">
        <ele>518.408</ele>
        <time>2021-02-13T09:34:53Z</time>
      </trkpt>
      <trkpt lat="41.707761" lon="2.296857">
        <ele>517.411</ele>
        <time>2021-02-13T09:34:58Z</time>
      </trkpt>
      <trkpt lat="41.707777" lon="2.296948">
        <ele>516.920</ele>
        <time>2021-02-13T09:35:02Z</time>
      </trkpt>
      <trkpt lat="41.707800" lon="2.297025">
        <ele>517.711</ele>
        <time>2021-02-13T09:35:06Z</time>
      </trkpt>
      <trkpt lat="41.707852" lon="2.297151">
        <ele>519.440</ele>
        <time>2021-02-13T09:35:12Z</time>
      </trkpt>
      <trkpt lat="41.707899" lon="2.297220">
        <ele>521.113</ele>
        <time>2021-02-13T09:35:16Z</time>
      </trkpt>
      <trkpt lat="41.707932" lon="2.297274">
        <ele>521.855</ele>
        <time>2021-02-13T09:35:20Z</time>
      </trkpt>
      <trkpt lat="41.707966" lon="2.297344">
        <ele>522.125</ele>
        <time>2021-02-13T09:35:23Z</time>
      </trkpt>
      <trkpt lat="41.708005" lon="2.297385">
        <ele>523.161</ele>
        <time>2021-02-13T09:35:26Z</time>
      </trkpt>
      <trkpt lat="41.708047" lon="2.297431">
        <ele>524.134</ele>
        <time>2021-02-13T09:35:29Z</time>
      </trkpt>
      <trkpt lat="41.708089" lon="2.297470">
        <ele>525.255</ele>
        <time>2021-02-13T09:35:32Z</time>
      </trkpt>
      <trkpt lat="41.708122" lon="2.297514">
        <ele>525.710</ele>
        <time>2021-02-13T09:35:35Z</time>
      </trkpt>
      <trkpt lat="41.708144" lon="2.297574">
        <ele>525.008</ele>
        <time>2021-02-13T09:35:38Z</time>
      </trkpt>
      <trkpt lat="41.708179" lon="2.297627">
        <ele>525.029</ele>
        <time>2021-02-13T09:35:42Z</time>
      </trkpt>
      <trkpt lat="41.708218" lon="2.297687">
        <ele>524.768</ele>
        <time>2021-02-13T09:35:46Z</time>
      </trkpt>
      <trkpt lat="41.708263" lon="2.297665">
        <ele>527.249</ele>
        <time>2021-02-13T09:35:50Z</time>
      </trkpt>
      <trkpt lat="41.708251" lon="2.297600">
        <ele>528.948</ele>
        <time>2021-02-13T09:35:53Z</time>
      </trkpt>
      <trkpt lat="41.708215" lon="2.297539">
        <ele>529.281</ele>
        <time>2021-02-13T09:35:56Z</time>
      </trkpt>
      <trkpt lat="41.708181" lon="2.297490">
        <ele>529.183</ele>
        <time>2021-02-13T09:35:59Z</time>
      </trkpt>
      <trkpt lat="41.708160" lon="2.297436">
        <ele>529.213</ele>
        <time>2021-02-13T09:36:02Z</time>
      </trkpt>
      <trkpt lat="41.708133" lon="2.297384">
        <ele>529.069</ele>
        <time>2021-02-13T09:36:05Z</time>
      </trkpt>
      <trkpt lat="41.708102" lon="2.297335">
        <ele>528.652</ele>
        <time>2021-02-13T09:36:07Z</time>
      </trkpt>
      <trkpt lat="41.708064" lon="2.297277">
        <ele>528.253</ele>
        <time>2021-02-13T09:36:11Z</time>
      </trkpt>
      <trkpt lat="41.708052" lon="2.297205">
        <ele>529.108</ele>
        <time>2021-02-13T09:36:15Z</time>
      </trkpt>
      <trkpt lat="41.708040" lon="2.297119">
        <ele>529.708</ele>
        <time>2021-02-13T09:36:18Z</time>
      </trkpt>
      <trkpt lat="41.708034" lon="2.297054">
        <ele>530.241</ele>
        <time>2021-02-13T09:36:21Z</time>
      </trkpt>
      <trkpt lat="41.708018" lon="2.296978">
        <ele>530.410</ele>
        <time>2021-02-13T09:36:25Z</time>
      </trkpt>
      <trkpt lat="41.708022" lon="2.296917">
        <ele>531.451</ele>
        <time>2021-02-13T09:36:28Z</time>
      </trkpt>
      <trkpt lat="41.708038" lon="2.296860">
        <ele>532.970</ele>
        <time>2021-02-13T09:36:31Z</time>
      </trkpt>
      <trkpt lat="41.708053" lon="2.296790">
        <ele>534.543</ele>
        <time>2021-02-13T09:36:35Z</time>
      </trkpt>
      <trkpt lat="41.708068" lon="2.296733">
        <ele>535.865</ele>
        <time>2021-02-13T09:36:39Z</time>
      </trkpt>
      <trkpt lat="41.708068" lon="2.296660">
        <ele>536.665</ele>
        <time>2021-02-13T09:36:42Z</time>
      </trkpt>
      <trkpt lat="41.708066" lon="2.296590">
        <ele>537.381</ele>
        <time>2021-02-13T09:36:46Z</time>
      </trkpt>
      <trkpt lat="41.708062" lon="2.296516">
        <ele>537.995</ele>
        <time>2021-02-13T09:36:49Z</time>
      </trkpt>
      <trkpt lat="41.708066" lon="2.296453">
        <ele>538.749</ele>
        <time>2021-02-13T09:36:52Z</time>
      </trkpt>
      <trkpt lat="41.708062" lon="2.296391">
        <ele>539.223</ele>
        <time>2021-02-13T09:36:55Z</time>
      </trkpt>
      <trkpt lat="41.708046" lon="2.296318">
        <ele>539.908</ele>
        <time>2021-02-13T09:36:58Z</time>
      </trkpt>
      <trkpt lat="41.708056" lon="2.296255">
        <ele>541.455</ele>
        <time>2021-02-13T09:37:01Z</time>
      </trkpt>
      <trkpt lat="41.708046" lon="2.296162">
        <ele>542.724</ele>
        <time>2021-02-13T09:37:05Z</time>
      </trkpt>
      <trkpt lat="41.708038" lon="2.296084">
        <ele>543.955</ele>
        <time>2021-02-13T09:37:08Z</time>
      </trkpt>
      <trkpt lat="41.708023" lon="2.295984">
        <ele>545.234</ele>
        <time>2021-02-13T09:37:12Z</time>
      </trkpt>
      <trkpt lat="41.707989" lon="2.295902">
        <ele>545.567</ele>
        <time>2021-02-13T09:37:16Z</time>
      </trkpt>
      <trkpt lat="41.707967" lon="2.295841">
        <ele>546.029</ele>
        <time>2021-02-13T09:37:20Z</time>
      </trkpt>
      <trkpt lat="41.707936" lon="2.295768">
        <ele>546.489</ele>
        <time>2021-02-13T09:37:23Z</time>
      </trkpt>
      <trkpt lat="41.707886" lon="2.295719">
        <ele>545.815</ele>
        <time>2021-02-13T09:37:27Z</time>
      </trkpt>
      <trkpt lat="41.707849" lon="2.295660">
        <ele>545.986</ele>
        <time>2021-02-13T09:37:30Z</time>
      </trkpt>
      <trkpt lat="41.707812" lon="2.295603">
        <ele>546.060</ele>
        <time>2021-02-13T09:37:33Z</time>
      </trkpt>
      <trkpt lat="41.707752" lon="2.295542">
        <ele>546.026</ele>
        <time>2021-02-13T09:37:38Z</time>
      </trkpt>
      <trkpt lat="41.707706" lon="2.295471">
        <ele>547.508</ele>
        <time>2021-02-13T09:37:42Z</time>
      </trkpt>
      <trkpt lat="41.707656" lon="2.295433">
        <ele>548.024</ele>
        <time>2021-02-13T09:37:46Z</time>
      </trkpt>
      <trkpt lat="41.707597" lon="2.295405">
        <ele>548.073</ele>
        <time>2021-02-13T09:37:50Z</time>
      </trkpt>
      <trkpt lat="41.707540" lon="2.295366">
        <ele>548.434</ele>
        <time>2021-02-13T09:37:53Z</time>
      </trkpt>
      <trkpt lat="41.707494" lon="2.295335">
        <ele>548.873</ele>
        <time>2021-02-13T09:37:56Z</time>
      </trkpt>
      <trkpt lat="41.707446" lon="2.295275">
        <ele>550.376</ele>
        <time>2021-02-13T09:38:00Z</time>
      </trkpt>
      <trkpt lat="41.707400" lon="2.295219">
        <ele>550.568</ele>
        <time>2021-02-13T09:38:04Z</time>
      </trkpt>
      <trkpt lat="41.707355" lon="2.295181">
        <ele>550.358</ele>
        <time>2021-02-13T09:38:08Z</time>
      </trkpt>
      <trkpt lat="41.707300" lon="2.295138">
        <ele>549.934</ele>
        <time>2021-02-13T09:38:12Z</time>
      </trkpt>
      <trkpt lat="41.707238" lon="2.295079">
        <ele>549.583</ele>
        <time>2021-02-13T09:38:16Z</time>
      </trkpt>
      <trkpt lat="41.707192" lon="2.295027">
        <ele>548.525</ele>
        <time>2021-02-13T09:38:19Z</time>
      </trkpt>
      <trkpt lat="41.707149" lon="2.294969">
        <ele>547.117</ele>
        <time>2021-02-13T09:38:22Z</time>
      </trkpt>
      <trkpt lat="41.707132" lon="2.294911">
        <ele>546.308</ele>
        <time>2021-02-13T09:38:25Z</time>
      </trkpt>
      <trkpt lat="41.707109" lon="2.294837">
        <ele>545.314</ele>
        <time>2021-02-13T09:38:28Z</time>
      </trkpt>
      <trkpt lat="41.707102" lon="2.294740">
        <ele>544.873</ele>
        <time>2021-02-13T09:38:32Z</time>
      </trkpt>
      <trkpt lat="41.707128" lon="2.294664">
        <ele>545.714</ele>
        <time>2021-02-13T09:38:36Z</time>
      </trkpt>
      <trkpt lat="41.707158" lon="2.294588">
        <ele>546.723</ele>
        <time>2021-02-13T09:38:40Z</time>
      </trkpt>
      <trkpt lat="41.707213" lon="2.294535">
        <ele>548.956</ele>
        <time>2021-02-13T09:38:44Z</time>
      </trkpt>
      <trkpt lat="41.707277" lon="2.294507">
        <ele>550.638</ele>
        <time>2021-02-13T09:38:48Z</time>
      </trkpt>
      <trkpt lat="41.707342" lon="2.294480">
        <ele>552.118</ele>
        <time>2021-02-13T09:38:52Z</time>
      </trkpt>
      <trkpt lat="41.707388" lon="2.294439">
        <ele>553.284</ele>
        <time>2021-02-13T09:38:55Z</time>
      </trkpt>
      <trkpt lat="41.707438" lon="2.294403">
        <ele>554.656</ele>
        <time>2021-02-13T09:38:58Z</time>
      </trkpt>
      <trkpt lat="41.707517" lon="2.294381">
        <ele>556.359</ele>
        <time>2021-02-13T09:39:02Z</time>
      </trkpt>
      <trkpt lat="41.707577" lon="2.294351">
        <ele>556.714</ele>
        <time>2021-02-13T09:39:06Z</time>
      </trkpt>
      <trkpt lat="41.707622" lon="2.294355">
        <ele>556.908</ele>
        <time>2021-02-13T09:39:09Z</time>
      </trkpt>
      <trkpt lat="41.707669" lon="2.294379">
        <ele>557.231</ele>
        <time>2021-02-13T09:39:12Z</time>
      </trkpt>
      <trkpt lat="41.707705" lon="2.294448">
        <ele>557.510</ele>
        <time>2021-02-13T09:39:16Z</time>
      </trkpt>
      <trkpt lat="41.707744" lon="2.294522">
        <ele>557.831</ele>
        <time>2021-02-13T09:39:20Z</time>
      </trkpt>
      <trkpt lat="41.707798" lon="2.294585">
        <ele>557.930</ele>
        <time>2021-02-13T09:39:24Z</time>
      </trkpt>
      <trkpt lat="41.707844" lon="2.294635">
        <ele>557.813</ele>
        <time>2021-02-13T09:39:27Z</time>
      </trkpt>
      <trkpt lat="41.707887" lon="2.294683">
        <ele>557.855</ele>
        <time>2021-02-13T09:39:30Z</time>
      </trkpt>
      <trkpt lat="41.707922" lon="2.294731">
        <ele>558.055</ele>
        <time>2021-02-13T09:39:32Z</time>
      </trkpt>
      <trkpt lat="41.707956" lon="2.294773">
        <ele>558.181</ele>
        <time>2021-02-13T09:39:34Z</time>
      </trkpt>
      <trkpt lat="41.708024" lon="2.294841">
        <ele>558.499</ele>
        <time>2021-02-13T09:39:38Z</time>
      </trkpt>
      <trkpt lat="41.708075" lon="2.294907">
        <ele>558.407</ele>
        <time>2021-02-13T09:39:42Z</time>
      </trkpt>
      <trkpt lat="41.708118" lon="2.294966">
        <ele>558.127</ele>
        <time>2021-02-13T09:39:45Z</time>
      </trkpt>
      <trkpt lat="41.708154" lon="2.295021">
        <ele>558.008</ele>
        <time>2021-02-13T09:39:48Z</time>
      </trkpt>
      <trkpt lat="41.708203" lon="2.295091">
        <ele>557.835</ele>
        <time>2021-02-13T09:39:52Z</time>
      </trkpt>
      <trkpt lat="41.708249" lon="2.295153">
        <ele>557.994</ele>
        <time>2021-02-13T09:39:55Z</time>
      </trkpt>
      <trkpt lat="41.708290" lon="2.295210">
        <ele>558.385</ele>
        <time>2021-02-13T09:39:59Z</time>
      </trkpt>
      <trkpt lat="41.708323" lon="2.295257">
        <ele>558.884</ele>
        <time>2021-02-13T09:40:01Z</time>
      </trkpt>
      <trkpt lat="41.708353" lon="2.295315">
        <ele>558.987</ele>
        <time>2021-02-13T09:40:03Z</time>
      </trkpt>
      <trkpt lat="41.708378" lon="2.295374">
        <ele>558.919</ele>
        <time>2021-02-13T09:40:05Z</time>
      </trkpt>
      <trkpt lat="41.708411" lon="2.295467">
        <ele>559.239</ele>
        <time>2021-02-13T09:40:08Z</time>
      </trkpt>
      <trkpt lat="41.708434" lon="2.295528">
        <ele>559.625</ele>
        <time>2021-02-13T09:40:10Z</time>
      </trkpt>
      <trkpt lat="41.708446" lon="2.295604">
        <ele>559.716</ele>
        <time>2021-02-13T09:40:12Z</time>
      </trkpt>
      <trkpt lat="41.708448" lon="2.295691">
        <ele>559.776</ele>
        <time>2021-02-13T09:40:15Z</time>
      </trkpt>
      <trkpt lat="41.708453" lon="2.295776">
        <ele>559.613</ele>
        <time>2021-02-13T09:40:18Z</time>
      </trkpt>
      <trkpt lat="41.708472" lon="2.295846">
        <ele>559.908</ele>
        <time>2021-02-13T09:40:20Z</time>
      </trkpt>
      <trkpt lat="41.708494" lon="2.295901">
        <ele>560.357</ele>
        <time>2021-02-13T09:40:22Z</time>
      </trkpt>
      <trkpt lat="41.708538" lon="2.295966">
        <ele>561.476</ele>
        <time>2021-02-13T09:40:27Z</time>
      </trkpt>
      <trkpt lat="41.708575" lon="2.296023">
        <ele>562.547</ele>
        <time>2021-02-13T09:40:29Z</time>
      </trkpt>
      <trkpt lat="41.708593" lon="2.296080">
        <ele>563.316</ele>
        <time>2021-02-13T09:40:31Z</time>
      </trkpt>
      <trkpt lat="41.708611" lon="2.296146">
        <ele>564.079</ele>
        <time>2021-02-13T09:40:33Z</time>
      </trkpt>
      <trkpt lat="41.708634" lon="2.296200">
        <ele>564.931</ele>
        <time>2021-02-13T09:40:35Z</time>
      </trkpt>
      <trkpt lat="41.708650" lon="2.296284">
        <ele>565.591</ele>
        <time>2021-02-13T09:40:38Z</time>
      </trkpt>
      <trkpt lat="41.708667" lon="2.296372">
        <ele>566.217</ele>
        <time>2021-02-13T09:40:41Z</time>
      </trkpt>
      <trkpt lat="41.708681" lon="2.296435">
        <ele>566.487</ele>
        <time>2021-02-13T09:40:43Z</time>
      </trkpt>
      <trkpt lat="41.708703" lon="2.296515">
        <ele>566.642</ele>
        <time>2021-02-13T09:40:46Z</time>
      </trkpt>
      <trkpt lat="41.708725" lon="2.296598">
        <ele>566.926</ele>
        <time>2021-02-13T09:40:49Z</time>
      </trkpt>
      <trkpt lat="41.708744" lon="2.296656">
        <ele>567.308</ele>
        <time>2021-02-13T09:40:51Z</time>
      </trkpt>
      <trkpt lat="41.708770" lon="2.296739">
        <ele>566.614</ele>
        <time>2021-02-13T09:40:54Z</time>
      </trkpt>
      <trkpt lat="41.708805" lon="2.296803">
        <ele>566.493</ele>
        <time>2021-02-13T09:40:57Z</time>
      </trkpt>
      <trkpt lat="41.708851" lon="2.296851">
        <ele>566.724</ele>
        <time>2021-02-13T09:41:00Z</time>
      </trkpt>
      <trkpt lat="41.708896" lon="2.296875">
        <ele>567.363</ele>
        <time>2021-02-13T09:41:02Z</time>
      </trkpt>
      <trkpt lat="41.708962" lon="2.296872">
        <ele>568.396</ele>
        <time>2021-02-13T09:41:05Z</time>
      </trkpt>
      <trkpt lat="41.709026" lon="2.296858">
        <ele>569.748</ele>
        <time>2021-02-13T09:41:08Z</time>
      </trkpt>
      <trkpt lat="41.709090" lon="2.296851">
        <ele>570.978</ele>
        <time>2021-02-13T09:41:11Z</time>
      </trkpt>
      <trkpt lat="41.709153" lon="2.296836">
        <ele>572.524</ele>
        <time>2021-02-13T09:41:14Z</time>
      </trkpt>
      <trkpt lat="41.709215" lon="2.296817">
        <ele>573.489</ele>
        <time>2021-02-13T09:41:17Z</time>
      </trkpt>
      <trkpt lat="41.709283" lon="2.296811">
        <ele>573.406</ele>
        <time>2021-02-13T09:41:20Z</time>
      </trkpt>
      <trkpt lat="41.709351" lon="2.296804">
        <ele>573.426</ele>
        <time>2021-02-13T09:41:23Z</time>
      </trkpt>
      <trkpt lat="41.709409" lon="2.296801">
        <ele>573.308</ele>
        <time>2021-02-13T09:41:26Z</time>
      </trkpt>
      <trkpt lat="41.709476" lon="2.296799">
        <ele>573.184</ele>
        <time>2021-02-13T09:41:29Z</time>
      </trkpt>
      <trkpt lat="41.709538" lon="2.296793">
        <ele>573.263</ele>
        <time>2021-02-13T09:41:32Z</time>
      </trkpt>
      <trkpt lat="41.709596" lon="2.296786">
        <ele>573.374</ele>
        <time>2021-02-13T09:41:35Z</time>
      </trkpt>
      <trkpt lat="41.709651" lon="2.296783">
        <ele>573.313</ele>
        <time>2021-02-13T09:41:38Z</time>
      </trkpt>
      <trkpt lat="41.709710" lon="2.296776">
        <ele>573.576</ele>
        <time>2021-02-13T09:41:41Z</time>
      </trkpt>
      <trkpt lat="41.709766" lon="2.296766">
        <ele>574.098</ele>
        <time>2021-02-13T09:41:44Z</time>
      </trkpt>
      <trkpt lat="41.709817" lon="2.296746">
        <ele>574.918</ele>
        <time>2021-02-13T09:41:47Z</time>
      </trkpt>
      <trkpt lat="41.709875" lon="2.296737">
        <ele>575.474</ele>
        <time>2021-02-13T09:41:50Z</time>
      </trkpt>
      <trkpt lat="41.709939" lon="2.296725">
        <ele>576.197</ele>
        <time>2021-02-13T09:41:53Z</time>
      </trkpt>
      <trkpt lat="41.710000" lon="2.296700">
        <ele>577.023</ele>
        <time>2021-02-13T09:41:56Z</time>
      </trkpt>
      <trkpt lat="41.710045" lon="2.296688">
        <ele>577.525</ele>
        <time>2021-02-13T09:41:58Z</time>
      </trkpt>
      <trkpt lat="41.710107" lon="2.296672">
        <ele>577.908</ele>
        <time>2021-02-13T09:42:01Z</time>
      </trkpt>
      <trkpt lat="41.710172" lon="2.296677">
        <ele>577.885</ele>
        <time>2021-02-13T09:42:04Z</time>
      </trkpt>
      <trkpt lat="41.710234" lon="2.296686">
        <ele>577.834</ele>
        <time>2021-02-13T09:42:07Z</time>
      </trkpt>
      <trkpt lat="41.710290" lon="2.296707">
        <ele>577.685</ele>
        <time>2021-02-13T09:42:10Z</time>
      </trkpt>
      <trkpt lat="41.710332" lon="2.296731">
        <ele>577.384</ele>
        <time>2021-02-13T09:42:12Z</time>
      </trkpt>
      <trkpt lat="41.710391" lon="2.296776">
        <ele>576.947</ele>
        <time>2021-02-13T09:42:15Z</time>
      </trkpt>
      <trkpt lat="41.710437" lon="2.296826">
        <ele>576.739</ele>
        <time>2021-02-13T09:42:18Z</time>
      </trkpt>
      <trkpt lat="41.710479" lon="2.296876">
        <ele>576.729</ele>
        <time>2021-02-13T09:42:21Z</time>
      </trkpt>
      <trkpt lat="41.710527" lon="2.296918">
        <ele>576.885</ele>
        <time>2021-02-13T09:42:24Z</time>
      </trkpt>
      <trkpt lat="41.710562" lon="2.296969">
        <ele>577.034</ele>
        <time>2021-02-13T09:42:27Z</time>
      </trkpt>
      <trkpt lat="41.710605" lon="2.297018">
        <ele>577.755</ele>
        <time>2021-02-13T09:42:30Z</time>
      </trkpt>
      <trkpt lat="41.710649" lon="2.297059">
        <ele>578.410</ele>
        <time>2021-02-13T09:42:33Z</time>
      </trkpt>
      <trkpt lat="41.710697" lon="2.297099">
        <ele>579.308</ele>
        <time>2021-02-13T09:42:36Z</time>
      </trkpt>
      <trkpt lat="41.710743" lon="2.297147">
        <ele>580.129</ele>
        <time>2021-02-13T09:42:39Z</time>
      </trkpt>
      <trkpt lat="41.710790" lon="2.297191">
        <ele>581.148</ele>
        <time>2021-02-13T09:42:42Z</time>
      </trkpt>
      <trkpt lat="41.710837" lon="2.297231">
        <ele>581.879</ele>
        <time>2021-02-13T09:42:45Z</time>
      </trkpt>
      <trkpt lat="41.710884" lon="2.297281">
        <ele>581.168</ele>
        <time>2021-02-13T09:42:48Z</time>
      </trkpt>
      <trkpt lat="41.710931" lon="2.297332">
        <ele>580.821</ele>
        <time>2021-02-13T09:42:51Z</time>
      </trkpt>
      <trkpt lat="41.710983" lon="2.297373">
        <ele>581.143</ele>
        <time>2021-02-13T09:42:54Z</time>
      </trkpt>
      <trkpt lat="41.711033" lon="2.297413">
        <ele>581.883</ele>
        <time>2021-02-13T09:42:57Z</time>
      </trkpt>
      <trkpt lat="41.711080" lon="2.297456">
        <ele>582.939</ele>
        <time>2021-02-13T09:43:00Z</time>
      </trkpt>
      <trkpt lat="41.711136" lon="2.297479">
        <ele>583.755</ele>
        <time>2021-02-13T09:43:03Z</time>
      </trkpt>
      <trkpt lat="41.711190" lon="2.297501">
        <ele>584.007</ele>
        <time>2021-02-13T09:43:06Z</time>
      </trkpt>
      <trkpt lat="41.711247" lon="2.297527">
        <ele>584.017</ele>
        <time>2021-02-13T09:43:09Z</time>
      </trkpt>
      <trkpt lat="41.711300" lon="2.297547">
        <ele>584.208</ele>
        <time>2021-02-13T09:43:12Z</time>
      </trkpt>
      <trkpt lat="41.711356" lon="2.297561">
        <ele>584.781</ele>
        <time>2021-02-13T09:43:15Z</time>
      </trkpt>
      <trkpt lat="41.711405" lon="2.297587">
        <ele>585.390</ele>
        <time>2021-02-13T09:43:18Z</time>
      </trkpt>
      <trkpt lat="41.711451" lon="2.297617">
        <ele>585.971</ele>
        <time>2021-02-13T09:43:21Z</time>
      </trkpt>
      <trkpt lat="41.711496" lon="2.297643">
        <ele>586.520</ele>
        <time>2021-02-13T09:43:24Z</time>
      </trkpt>
      <trkpt lat="41.711552" lon="2.297671">
        <ele>587.273</ele>
        <time>2021-02-13T09:43:27Z</time>
      </trkpt>
      <trkpt lat="41.711611" lon="2.297690">
        <ele>587.825</ele>
        <time>2021-02-13T09:43:30Z</time>
      </trkpt>
      <trkpt lat="41.711660" lon="2.297716">
        <ele>588.655</ele>
        <time>2021-02-13T09:43:33Z</time>
      </trkpt>
      <trkpt lat="41.711704" lon="2.297733">
        <ele>589.151</ele>
        <time>2021-02-13T09:43:36Z</time>
      </trkpt>
      <trkpt lat="41.711737" lon="2.297775">
        <ele>590.258</ele>
        <time>2021-02-13T09:43:39Z</time>
      </trkpt>
      <trkpt lat="41.711776" lon="2.297816">
        <ele>590.952</ele>
        <time>2021-02-13T09:43:42Z</time>
      </trkpt>
      <trkpt lat="41.711821" lon="2.297870">
        <ele>592.217</ele>
        <time>2021-02-13T09:43:46Z</time>
      </trkpt>
      <trkpt lat="41.711869" lon="2.297896">
        <ele>593.308</ele>
        <time>2021-02-13T09:43:51Z</time>
      </trkpt>
      <trkpt lat="41.711929" lon="2.297909">
        <ele>594.571</ele>
        <time>2021-02-13T09:43:53Z</time>
      </trkpt>
      <trkpt lat="41.711994" lon="2.297939">
        <ele>596.660</ele>
        <time>2021-02-13T09:43:57Z</time>
      </trkpt>
      <trkpt lat="41.712039" lon="2.297976">
        <ele>598.651</ele>
        <time>2021-02-13T09:43:59Z</time>
      </trkpt>
      <trkpt lat="41.712117" lon="2.297987">
        <ele>600.490</ele>
        <time>2021-02-13T09:44:03Z</time>
      </trkpt>
      <trkpt lat="41.712185" lon="2.298014">
        <ele>602.763</ele>
        <time>2021-02-13T09:44:07Z</time>
      </trkpt>
      <trkpt lat="41.712249" lon="2.298051">
        <ele>605.485</ele>
        <time>2021-02-13T09:44:11Z</time>
      </trkpt>
      <trkpt lat="41.712310" lon="2.298066">
        <ele>607.235</ele>
        <time>2021-02-13T09:44:15Z</time>
      </trkpt>
      <trkpt lat="41.712381" lon="2.298097">
        <ele>609.691</ele>
        <time>2021-02-13T09:44:19Z</time>
      </trkpt>
      <trkpt lat="41.712439" lon="2.298110">
        <ele>611.267</ele>
        <time>2021-02-13T09:44:23Z</time>
      </trkpt>
      <trkpt lat="41.712511" lon="2.298136">
        <ele>613.481</ele>
        <time>2021-02-13T09:44:29Z</time>
      </trkpt>
      <trkpt lat="41.712563" lon="2.298128">
        <ele>613.819</ele>
        <time>2021-02-13T09:44:33Z</time>
      </trkpt>
      <trkpt lat="41.712619" lon="2.298108">
        <ele>613.708</ele>
        <time>2021-02-13T09:44:37Z</time>
      </trkpt>
      <trkpt lat="41.712687" lon="2.298119">
        <ele>614.872</ele>
        <time>2021-02-13T09:44:41Z</time>
      </trkpt>
      <trkpt lat="41.712747" lon="2.298103">
        <ele>614.811</ele>
        <time>2021-02-13T09:44:45Z</time>
      </trkpt>
      <trkpt lat="41.712785" lon="2.298041">
        <ele>612.562</ele>
        <time>2021-02-13T09:44:49Z</time>
      </trkpt>
      <trkpt lat="41.712820" lon="2.297991">
        <ele>611.141</ele>
        <time>2021-02-13T09:44:53Z</time>
      </trkpt>
      <trkpt lat="41.712854" lon="2.297934">
        <ele>609.344</ele>
        <time>2021-02-13T09:44:57Z</time>
      </trkpt>
      <trkpt lat="41.712923" lon="2.297889">
        <ele>608.656</ele>
        <time>2021-02-13T09:45:01Z</time>
      </trkpt>
      <trkpt lat="41.712981" lon="2.297859">
        <ele>608.496</ele>
        <time>2021-02-13T09:45:05Z</time>
      </trkpt>
      <trkpt lat="41.713038" lon="2.297834">
        <ele>608.312</ele>
        <time>2021-02-13T09:45:09Z</time>
      </trkpt>
      <trkpt lat="41.713090" lon="2.297786">
        <ele>607.667</ele>
        <time>2021-02-13T09:45:13Z</time>
      </trkpt>
      <trkpt lat="41.713151" lon="2.297766">
        <ele>609.181</ele>
        <time>2021-02-13T09:45:17Z</time>
      </trkpt>
      <trkpt lat="41.713216" lon="2.297754">
        <ele>611.119</ele>
        <time>2021-02-13T09:45:21Z</time>
      </trkpt>
      <trkpt lat="41.713280" lon="2.297708">
        <ele>611.908</ele>
        <time>2021-02-13T09:45:25Z</time>
      </trkpt>
      <trkpt lat="41.713285" lon="2.297628">
        <ele>609.622</ele>
        <time>2021-02-13T09:45:29Z</time>
      </trkpt>
      <trkpt lat="41.713334" lon="2.297554">
        <ele>608.861</ele>
        <time>2021-02-13T09:45:33Z</time>
      </trkpt>
      <trkpt lat="41.713386" lon="2.297489">
        <ele>607.622</ele>
        <time>2021-02-13T09:45:37Z</time>
      </trkpt>
      <trkpt lat="41.713445" lon="2.297483">
        <ele>608.551</ele>
        <time>2021-02-13T09:45:41Z</time>
      </trkpt>
      <trkpt lat="41.713504" lon="2.297514">
        <ele>610.514</ele>
        <time>2021-02-13T09:45:45Z</time>
      </trkpt>
      <trkpt lat="41.713548" lon="2.297564">
        <ele>612.936</ele>
        <time>2021-02-13T09:45:49Z</time>
      </trkpt>
      <trkpt lat="41.713557" lon="2.297644">
        <ele>615.756</ele>
        <time>2021-02-13T09:45:53Z</time>
      </trkpt>
      <trkpt lat="41.713504" lon="2.297664">
        <ele>615.422</ele>
        <time>2021-02-13T09:45:57Z</time>
      </trkpt>
      <trkpt lat="41.713463" lon="2.297632">
        <ele>613.699</ele>
        <time>2021-02-13T09:45:59Z</time>
      </trkpt>
      <trkpt lat="41.713397" lon="2.297609">
        <ele>611.707</ele>
        <time>2021-02-13T09:46:03Z</time>
      </trkpt>
      <trkpt lat="41.713329" lon="2.297667">
        <ele>612.327</ele>
        <time>2021-02-13T09:46:07Z</time>
      </trkpt>
      <trkpt lat="41.713281" lon="2.297743">
        <ele>613.008</ele>
        <time>2021-02-13T09:46:11Z</time>
      </trkpt>
      <trkpt lat="41.713240" lon="2.297813">
        <ele>614.335</ele>
        <time>2021-02-13T09:46:15Z</time>
      </trkpt>
      <trkpt lat="41.713187" lon="2.297860">
        <ele>614.634</ele>
        <time>2021-02-13T09:46:19Z</time>
      </trkpt>
      <trkpt lat="41.713136" lon="2.297907">
        <ele>614.915</ele>
        <time>2021-02-13T09:46:23Z</time>
      </trkpt>
      <trkpt lat="41.713094" lon="2.297939">
        <ele>614.914</ele>
        <time>2021-02-13T09:46:27Z</time>
      </trkpt>
      <trkpt lat="41.713042" lon="2.297979">
        <ele>615.137</ele>
        <time>2021-02-13T09:46:30Z</time>
      </trkpt>
      <trkpt lat="41.712997" lon="2.298056">
        <ele>617.859</ele>
        <time>2021-02-13T09:46:35Z</time>
      </trkpt>
      <trkpt lat="41.712947" lon="2.298154">
        <ele>620.979</ele>
        <time>2021-02-13T09:46:41Z</time>
      </trkpt>
      <trkpt lat="41.712896" lon="2.298263">
        <ele>624.545</ele>
        <time>2021-02-13T09:46:47Z</time>
      </trkpt>
      <trkpt lat="41.712844" lon="2.298341">
        <ele>626.668</ele>
        <time>2021-02-13T09:46:51Z</time>
      </trkpt>
      <trkpt lat="41.712792" lon="2.298404">
        <ele>626.942</ele>
        <time>2021-02-13T09:46:55Z</time>
      </trkpt>
      <trkpt lat="41.712750" lon="2.298443">
        <ele>626.826</ele>
        <time>2021-02-13T09:46:58Z</time>
      </trkpt>
      <trkpt lat="41.712657" lon="2.298502">
        <ele>626.008</ele>
        <time>2021-02-13T09:47:03Z</time>
      </trkpt>
      <trkpt lat="41.712598" lon="2.298538">
        <ele>625.522</ele>
        <time>2021-02-13T09:47:07Z</time>
      </trkpt>
      <trkpt lat="41.712542" lon="2.298589">
        <ele>625.431</ele>
        <time>2021-02-13T09:47:11Z</time>
      </trkpt>
      <trkpt lat="41.712492" lon="2.298650">
        <ele>625.062</ele>
        <time>2021-02-13T09:47:15Z</time>
      </trkpt>
      <trkpt lat="41.712450" lon="2.298713">
        <ele>623.891</ele>
        <time>2021-02-13T09:47:19Z</time>
      </trkpt>
      <trkpt lat="41.712441" lon="2.298779">
        <ele>623.914</ele>
        <time>2021-02-13T09:47:23Z</time>
      </trkpt>
      <trkpt lat="41.712443" lon="2.298867">
        <ele>624.636</ele>
        <time>2021-02-13T09:47:27Z</time>
      </trkpt>
      <trkpt lat="41.712478" lon="2.299019">
        <ele>626.186</ele>
        <time>2021-02-13T09:47:35Z</time>
      </trkpt>
      <trkpt lat="41.712528" lon="2.299061">
        <ele>627.972</ele>
        <time>2021-02-13T09:47:39Z</time>
      </trkpt>
      <trkpt lat="41.712589" lon="2.299086">
        <ele>630.026</ele>
        <time>2021-02-13T09:47:43Z</time>
      </trkpt>
      <trkpt lat="41.712644" lon="2.299140">
        <ele>631.747</ele>
        <time>2021-02-13T09:47:47Z</time>
      </trkpt>
      <trkpt lat="41.712697" lon="2.299180">
        <ele>633.211</ele>
        <time>2021-02-13T09:47:51Z</time>
      </trkpt>
      <trkpt lat="41.712733" lon="2.299272">
        <ele>633.208</ele>
        <time>2021-02-13T09:47:55Z</time>
      </trkpt>
      <trkpt lat="41.712780" lon="2.299335">
        <ele>634.218</ele>
        <time>2021-02-13T09:47:59Z</time>
      </trkpt>
      <trkpt lat="41.712865" lon="2.299363">
        <ele>636.277</ele>
        <time>2021-02-13T09:48:03Z</time>
      </trkpt>
      <trkpt lat="41.712932" lon="2.299407">
        <ele>637.418</ele>
        <time>2021-02-13T09:48:07Z</time>
      </trkpt>
      <trkpt lat="41.712996" lon="2.299474">
        <ele>637.837</ele>
        <time>2021-02-13T09:48:11Z</time>
      </trkpt>
      <trkpt lat="41.713056" lon="2.299543">
        <ele>637.970</ele>
        <time>2021-02-13T09:48:15Z</time>
      </trkpt>
      <trkpt lat="41.713114" lon="2.299619">
        <ele>638.892</ele>
        <time>2021-02-13T09:48:19Z</time>
      </trkpt>
      <trkpt lat="41.713206" lon="2.299723">
        <ele>641.022</ele>
        <time>2021-02-13T09:48:27Z</time>
      </trkpt>
      <trkpt lat="41.713248" lon="2.299777">
        <ele>641.828</ele>
        <time>2021-02-13T09:48:31Z</time>
      </trkpt>
      <trkpt lat="41.713299" lon="2.299853">
        <ele>642.657</ele>
        <time>2021-02-13T09:48:35Z</time>
      </trkpt>
      <trkpt lat="41.713314" lon="2.299920">
        <ele>641.800</ele>
        <time>2021-02-13T09:48:38Z</time>
      </trkpt>
      <trkpt lat="41.713327" lon="2.299994">
        <ele>640.820</ele>
        <time>2021-02-13T09:48:42Z</time>
      </trkpt>
      <trkpt lat="41.713386" lon="2.300129">
        <ele>642.008</ele>
        <time>2021-02-13T09:48:54Z</time>
      </trkpt>
      <trkpt lat="41.713622" lon="2.300277">
        <ele>646.021</ele>
        <time>2021-02-13T09:49:10Z</time>
      </trkpt>
      <trkpt lat="41.713727" lon="2.300275">
        <ele>645.740</ele>
        <time>2021-02-13T09:49:15Z</time>
      </trkpt>
      <trkpt lat="41.713773" lon="2.300286">
        <ele>645.131</ele>
        <time>2021-02-13T09:49:19Z</time>
      </trkpt>
      <trkpt lat="41.713854" lon="2.300278">
        <ele>645.150</ele>
        <time>2021-02-13T09:49:26Z</time>
      </trkpt>
      <trkpt lat="41.713885" lon="2.300214">
        <ele>647.533</ele>
        <time>2021-02-13T09:49:31Z</time>
      </trkpt>
      <trkpt lat="41.713962" lon="2.300206">
        <ele>647.395</ele>
        <time>2021-02-13T09:49:42Z</time>
      </trkpt>
      <trkpt lat="41.714248" lon="2.300137">
        <ele>648.975</ele>
        <time>2021-02-13T09:49:50Z</time>
      </trkpt>
      <trkpt lat="41.714441" lon="2.300090">
        <ele>651.451</ele>
        <time>2021-02-13T09:49:58Z</time>
      </trkpt>
      <trkpt lat="41.714633" lon="2.300071">
        <ele>653.951</ele>
        <time>2021-02-13T09:50:06Z</time>
      </trkpt>
      <trkpt lat="41.714776" lon="2.300069">
        <ele>654.801</ele>
        <time>2021-02-13T09:50:10Z</time>
      </trkpt>
      <trkpt lat="41.714845" lon="2.300065">
        <ele>654.911</ele>
        <time>2021-02-13T09:50:12Z</time>
      </trkpt>
      <trkpt lat="41.714969" lon="2.300112">
        <ele>653.408</ele>
        <time>2021-02-13T09:50:15Z</time>
      </trkpt>
      <trkpt lat="41.715136" lon="2.300126">
        <ele>653.921</ele>
        <time>2021-02-13T09:50:20Z</time>
      </trkpt>
      <trkpt lat="41.715217" lon="2.300111">
        <ele>655.040</ele>
        <time>2021-02-13T09:50:23Z</time>
      </trkpt>
      <trkpt lat="41.715263" lon="2.300099">
        <ele>655.721</ele>
        <time>2021-02-13T09:50:25Z</time>
      </trkpt>
      <trkpt lat="41.715342" lon="2.300087">
        <ele>655.740</ele>
        <time>2021-02-13T09:50:28Z</time>
      </trkpt>
      <trkpt lat="41.715411" lon="2.300083">
        <ele>655.333</ele>
        <time>2021-02-13T09:50:31Z</time>
      </trkpt>
      <trkpt lat="41.715460" lon="2.300073">
        <ele>655.255</ele>
        <time>2021-02-13T09:50:34Z</time>
      </trkpt>
      <trkpt lat="41.715555" lon="2.300026">
        <ele>655.485</ele>
        <time>2021-02-13T09:50:40Z</time>
      </trkpt>
      <trkpt lat="41.715610" lon="2.300015">
        <ele>655.911</ele>
        <time>2021-02-13T09:50:44Z</time>
      </trkpt>
      <trkpt lat="41.715709" lon="2.299985">
        <ele>656.859</ele>
        <time>2021-02-13T09:50:50Z</time>
      </trkpt>
      <trkpt lat="41.715770" lon="2.299965">
        <ele>657.203</ele>
        <time>2021-02-13T09:50:52Z</time>
      </trkpt>
      <trkpt lat="41.715838" lon="2.299930">
        <ele>657.523</ele>
        <time>2021-02-13T09:50:55Z</time>
      </trkpt>
      <trkpt lat="41.715880" lon="2.299903">
        <ele>657.808</ele>
        <time>2021-02-13T09:50:57Z</time>
      </trkpt>
      <trkpt lat="41.715939" lon="2.299867">
        <ele>658.091</ele>
        <time>2021-02-13T09:51:00Z</time>
      </trkpt>
      <trkpt lat="41.715991" lon="2.299850">
        <ele>658.070</ele>
        <time>2021-02-13T09:51:03Z</time>
      </trkpt>
      <trkpt lat="41.716050" lon="2.299839">
        <ele>657.951</ele>
        <time>2021-02-13T09:51:06Z</time>
      </trkpt>
      <trkpt lat="41.716127" lon="2.299864">
        <ele>658.380</ele>
        <time>2021-02-13T09:51:11Z</time>
      </trkpt>
      <trkpt lat="41.716137" lon="2.299803">
        <ele>657.983</ele>
        <time>2021-02-13T10:00:36Z</time>
      </trkpt>
      <trkpt lat="41.716135" lon="2.299872">
        <ele>658.425</ele>
        <time>2021-02-13T10:01:22Z</time>
      </trkpt>
      <trkpt lat="41.716179" lon="2.299974">
        <ele>660.085</ele>
        <time>2021-02-13T10:01:26Z</time>
      </trkpt>
      <trkpt lat="41.716214" lon="2.300050">
        <ele>661.041</ele>
        <time>2021-02-13T10:01:30Z</time>
      </trkpt>
      <trkpt lat="41.716233" lon="2.300109">
        <ele>661.484</ele>
        <time>2021-02-13T10:01:34Z</time>
      </trkpt>
      <trkpt lat="41.716295" lon="2.300133">
        <ele>662.507</ele>
        <time>2021-02-13T10:01:38Z</time>
      </trkpt>
      <trkpt lat="41.716348" lon="2.300156">
        <ele>663.317</ele>
        <time>2021-02-13T10:01:40Z</time>
      </trkpt>
      <trkpt lat="41.716411" lon="2.300190">
        <ele>664.708</ele>
        <time>2021-02-13T10:01:44Z</time>
      </trkpt>
      <trkpt lat="41.716454" lon="2.300230">
        <ele>666.334</ele>
        <time>2021-02-13T10:01:46Z</time>
      </trkpt>
      <trkpt lat="41.716517" lon="2.300352">
        <ele>669.443</ele>
        <time>2021-02-13T10:01:50Z</time>
      </trkpt>
      <trkpt lat="41.716518" lon="2.300418">
        <ele>670.294</ele>
        <time>2021-02-13T10:01:52Z</time>
      </trkpt>
      <trkpt lat="41.716493" lon="2.300472">
        <ele>670.053</ele>
        <time>2021-02-13T10:01:54Z</time>
      </trkpt>
      <trkpt lat="41.716434" lon="2.300489">
        <ele>668.426</ele>
        <time>2021-02-13T10:01:56Z</time>
      </trkpt>
      <trkpt lat="41.716383" lon="2.300482">
        <ele>666.888</ele>
        <time>2021-02-13T10:01:58Z</time>
      </trkpt>
      <trkpt lat="41.716328" lon="2.300473">
        <ele>665.848</ele>
        <time>2021-02-13T10:02:00Z</time>
      </trkpt>
      <trkpt lat="41.716256" lon="2.300470">
        <ele>664.564</ele>
        <time>2021-02-13T10:02:04Z</time>
      </trkpt>
      <trkpt lat="41.716210" lon="2.300457">
        <ele>663.636</ele>
        <time>2021-02-13T10:02:06Z</time>
      </trkpt>
      <trkpt lat="41.716115" lon="2.300473">
        <ele>662.217</ele>
        <time>2021-02-13T10:02:10Z</time>
      </trkpt>
      <trkpt lat="41.716048" lon="2.300506">
        <ele>661.118</ele>
        <time>2021-02-13T10:02:14Z</time>
      </trkpt>
      <trkpt lat="41.716005" lon="2.300537">
        <ele>660.508</ele>
        <time>2021-02-13T10:02:16Z</time>
      </trkpt>
      <trkpt lat="41.715953" lon="2.300612">
        <ele>660.979</ele>
        <time>2021-02-13T10:02:20Z</time>
      </trkpt>
      <trkpt lat="41.715909" lon="2.300669">
        <ele>661.298</ele>
        <time>2021-02-13T10:02:24Z</time>
      </trkpt>
      <trkpt lat="41.715876" lon="2.300723">
        <ele>661.659</ele>
        <time>2021-02-13T10:02:26Z</time>
      </trkpt>
      <trkpt lat="41.715827" lon="2.300825">
        <ele>662.638</ele>
        <time>2021-02-13T10:02:30Z</time>
      </trkpt>
      <trkpt lat="41.715794" lon="2.300909">
        <ele>663.711</ele>
        <time>2021-02-13T10:02:34Z</time>
      </trkpt>
      <trkpt lat="41.715769" lon="2.300973">
        <ele>664.543</ele>
        <time>2021-02-13T10:02:36Z</time>
      </trkpt>
      <trkpt lat="41.715730" lon="2.301077">
        <ele>665.613</ele>
        <time>2021-02-13T10:02:40Z</time>
      </trkpt>
      <trkpt lat="41.715705" lon="2.301151">
        <ele>666.449</ele>
        <time>2021-02-13T10:02:44Z</time>
      </trkpt>
      <trkpt lat="41.715677" lon="2.301212">
        <ele>666.647</ele>
        <time>2021-02-13T10:02:46Z</time>
      </trkpt>
      <trkpt lat="41.715628" lon="2.301310">
        <ele>666.629</ele>
        <time>2021-02-13T10:02:50Z</time>
      </trkpt>
      <trkpt lat="41.715604" lon="2.301385">
        <ele>667.221</ele>
        <time>2021-02-13T10:02:54Z</time>
      </trkpt>
      <trkpt lat="41.715595" lon="2.301447">
        <ele>667.908</ele>
        <time>2021-02-13T10:02:56Z</time>
      </trkpt>
      <trkpt lat="41.715584" lon="2.301560">
        <ele>669.510</ele>
        <time>2021-02-13T10:03:00Z</time>
      </trkpt>
      <trkpt lat="41.715586" lon="2.301636">
        <ele>671.079</ele>
        <time>2021-02-13T10:03:04Z</time>
      </trkpt>
      <trkpt lat="41.715588" lon="2.301700">
        <ele>671.860</ele>
        <time>2021-02-13T10:03:06Z</time>
      </trkpt>
      <trkpt lat="41.715589" lon="2.301800">
        <ele>672.399</ele>
        <time>2021-02-13T10:03:10Z</time>
      </trkpt>
      <trkpt lat="41.715589" lon="2.301884">
        <ele>672.892</ele>
        <time>2021-02-13T10:03:14Z</time>
      </trkpt>
      <trkpt lat="41.715585" lon="2.301985">
        <ele>672.924</ele>
        <time>2021-02-13T10:03:18Z</time>
      </trkpt>
      <trkpt lat="41.715580" lon="2.302080">
        <ele>672.914</ele>
        <time>2021-02-13T10:03:22Z</time>
      </trkpt>
      <trkpt lat="41.715579" lon="2.302163">
        <ele>673.110</ele>
        <time>2021-02-13T10:03:26Z</time>
      </trkpt>
      <trkpt lat="41.715580" lon="2.302229">
        <ele>673.389</ele>
        <time>2021-02-13T10:03:29Z</time>
      </trkpt>
      <trkpt lat="41.715587" lon="2.302324">
        <ele>673.606</ele>
        <time>2021-02-13T10:03:34Z</time>
      </trkpt>
      <trkpt lat="41.715591" lon="2.302398">
        <ele>673.826</ele>
        <time>2021-02-13T10:03:38Z</time>
      </trkpt>
      <trkpt lat="41.715596" lon="2.302471">
        <ele>673.908</ele>
        <time>2021-02-13T10:03:42Z</time>
      </trkpt>
      <trkpt lat="41.715616" lon="2.302542">
        <ele>674.214</ele>
        <time>2021-02-13T10:03:46Z</time>
      </trkpt>
      <trkpt lat="41.715640" lon="2.302596">
        <ele>674.533</ele>
        <time>2021-02-13T10:03:49Z</time>
      </trkpt>
      <trkpt lat="41.715673" lon="2.302647">
        <ele>675.274</ele>
        <time>2021-02-13T10:03:52Z</time>
      </trkpt>
      <trkpt lat="41.715725" lon="2.302700">
        <ele>676.653</ele>
        <time>2021-02-13T10:03:56Z</time>
      </trkpt>
      <trkpt lat="41.715761" lon="2.302740">
        <ele>677.566</ele>
        <time>2021-02-13T10:03:59Z</time>
      </trkpt>
      <trkpt lat="41.715815" lon="2.302791">
        <ele>678.938</ele>
        <time>2021-02-13T10:04:02Z</time>
      </trkpt>
      <trkpt lat="41.715891" lon="2.302861">
        <ele>680.148</ele>
        <time>2021-02-13T10:04:06Z</time>
      </trkpt>
      <trkpt lat="41.715920" lon="2.302920">
        <ele>679.734</ele>
        <time>2021-02-13T10:04:09Z</time>
      </trkpt>
      <trkpt lat="41.715971" lon="2.302972">
        <ele>680.225</ele>
        <time>2021-02-13T10:04:12Z</time>
      </trkpt>
      <trkpt lat="41.716016" lon="2.303016">
        <ele>680.726</ele>
        <time>2021-02-13T10:04:14Z</time>
      </trkpt>
      <trkpt lat="41.716085" lon="2.303080">
        <ele>681.108</ele>
        <time>2021-02-13T10:04:18Z</time>
      </trkpt>
      <trkpt lat="41.716155" lon="2.303159">
        <ele>681.008</ele>
        <time>2021-02-13T10:04:22Z</time>
      </trkpt>
      <trkpt lat="41.716206" lon="2.303218">
        <ele>681.058</ele>
        <time>2021-02-13T10:04:26Z</time>
      </trkpt>
      <trkpt lat="41.716244" lon="2.303253">
        <ele>681.267</ele>
        <time>2021-02-13T10:04:28Z</time>
      </trkpt>
      <trkpt lat="41.716288" lon="2.303290">
        <ele>681.678</ele>
        <time>2021-02-13T10:04:30Z</time>
      </trkpt>
      <trkpt lat="41.716343" lon="2.303331">
        <ele>682.137</ele>
        <time>2021-02-13T10:04:33Z</time>
      </trkpt>
      <trkpt lat="41.716383" lon="2.303369">
        <ele>682.260</ele>
        <time>2021-02-13T10:04:35Z</time>
      </trkpt>
      <trkpt lat="41.716435" lon="2.303425">
        <ele>683.162</ele>
        <time>2021-02-13T10:04:38Z</time>
      </trkpt>
      <trkpt lat="41.716472" lon="2.303473">
        <ele>683.572</ele>
        <time>2021-02-13T10:04:41Z</time>
      </trkpt>
      <trkpt lat="41.716509" lon="2.303533">
        <ele>683.558</ele>
        <time>2021-02-13T10:04:44Z</time>
      </trkpt>
      <trkpt lat="41.716546" lon="2.303588">
        <ele>683.734</ele>
        <time>2021-02-13T10:04:47Z</time>
      </trkpt>
      <trkpt lat="41.716591" lon="2.303639">
        <ele>685.055</ele>
        <time>2021-02-13T10:04:50Z</time>
      </trkpt>
      <trkpt lat="41.716633" lon="2.303687">
        <ele>686.310</ele>
        <time>2021-02-13T10:04:53Z</time>
      </trkpt>
      <trkpt lat="41.716693" lon="2.303751">
        <ele>687.908</ele>
        <time>2021-02-13T10:04:57Z</time>
      </trkpt>
      <trkpt lat="41.716742" lon="2.303804">
        <ele>688.879</ele>
        <time>2021-02-13T10:05:00Z</time>
      </trkpt>
      <trkpt lat="41.716775" lon="2.303848">
        <ele>689.218</ele>
        <time>2021-02-13T10:05:02Z</time>
      </trkpt>
      <trkpt lat="41.716819" lon="2.303904">
        <ele>689.919</ele>
        <time>2021-02-13T10:05:05Z</time>
      </trkpt>
      <trkpt lat="41.716853" lon="2.303949">
        <ele>690.658</ele>
        <time>2021-02-13T10:05:07Z</time>
      </trkpt>
      <trkpt lat="41.716887" lon="2.304002">
        <ele>691.111</ele>
        <time>2021-02-13T10:05:09Z</time>
      </trkpt>
      <trkpt lat="41.716930" lon="2.304062">
        <ele>691.933</ele>
        <time>2021-02-13T10:05:12Z</time>
      </trkpt>
      <trkpt lat="41.716967" lon="2.304106">
        <ele>692.583</ele>
        <time>2021-02-13T10:05:15Z</time>
      </trkpt>
      <trkpt lat="41.717011" lon="2.304153">
        <ele>693.239</ele>
        <time>2021-02-13T10:05:18Z</time>
      </trkpt>
      <trkpt lat="41.717069" lon="2.304141">
        <ele>696.136</ele>
        <time>2021-02-13T10:05:22Z</time>
      </trkpt>
      <trkpt lat="41.717047" lon="2.304064">
        <ele>697.217</ele>
        <time>2021-02-13T10:05:26Z</time>
      </trkpt>
      <trkpt lat="41.716991" lon="2.303995">
        <ele>696.418</ele>
        <time>2021-02-13T10:05:30Z</time>
      </trkpt>
      <trkpt lat="41.716974" lon="2.303930">
        <ele>697.308</ele>
        <time>2021-02-13T10:05:33Z</time>
      </trkpt>
      <trkpt lat="41.716957" lon="2.303852">
        <ele>698.889</ele>
        <time>2021-02-13T10:05:37Z</time>
      </trkpt>
      <trkpt lat="41.716937" lon="2.303797">
        <ele>699.668</ele>
        <time>2021-02-13T10:05:40Z</time>
      </trkpt>
      <trkpt lat="41.716914" lon="2.303725">
        <ele>700.749</ele>
        <time>2021-02-13T10:05:44Z</time>
      </trkpt>
      <trkpt lat="41.716892" lon="2.303665">
        <ele>701.458</ele>
        <time>2021-02-13T10:05:47Z</time>
      </trkpt>
      <trkpt lat="41.716873" lon="2.303594">
        <ele>702.861</ele>
        <time>2021-02-13T10:05:51Z</time>
      </trkpt>
      <trkpt lat="41.716845" lon="2.303524">
        <ele>704.123</ele>
        <time>2021-02-13T10:05:55Z</time>
      </trkpt>
      <trkpt lat="41.716813" lon="2.303459">
        <ele>704.913</ele>
        <time>2021-02-13T10:05:59Z</time>
      </trkpt>
      <trkpt lat="41.716781" lon="2.303397">
        <ele>705.749</ele>
        <time>2021-02-13T10:06:03Z</time>
      </trkpt>
      <trkpt lat="41.716748" lon="2.303332">
        <ele>706.477</ele>
        <time>2021-02-13T10:06:07Z</time>
      </trkpt>
      <trkpt lat="41.716725" lon="2.303276">
        <ele>707.161</ele>
        <time>2021-02-13T10:06:10Z</time>
      </trkpt>
      <trkpt lat="41.716691" lon="2.303214">
        <ele>707.527</ele>
        <time>2021-02-13T10:06:14Z</time>
      </trkpt>
      <trkpt lat="41.716655" lon="2.303160">
        <ele>707.608</ele>
        <time>2021-02-13T10:06:18Z</time>
      </trkpt>
      <trkpt lat="41.716629" lon="2.303108">
        <ele>708.013</ele>
        <time>2021-02-13T10:06:21Z</time>
      </trkpt>
      <trkpt lat="41.716600" lon="2.303060">
        <ele>708.272</ele>
        <time>2021-02-13T10:06:24Z</time>
      </trkpt>
      <trkpt lat="41.716566" lon="2.303002">
        <ele>707.783</ele>
        <time>2021-02-13T10:06:28Z</time>
      </trkpt>
      <trkpt lat="41.716536" lon="2.302956">
        <ele>707.262</ele>
        <time>2021-02-13T10:06:31Z</time>
      </trkpt>
      <trkpt lat="41.716507" lon="2.302907">
        <ele>707.075</ele>
        <time>2021-02-13T10:06:34Z</time>
      </trkpt>
      <trkpt lat="41.716469" lon="2.302842">
        <ele>706.837</ele>
        <time>2021-02-13T10:06:38Z</time>
      </trkpt>
      <trkpt lat="41.716442" lon="2.302792">
        <ele>706.977</ele>
        <time>2021-02-13T10:06:41Z</time>
      </trkpt>
      <trkpt lat="41.716412" lon="2.302724">
        <ele>706.763</ele>
        <time>2021-02-13T10:06:45Z</time>
      </trkpt>
      <trkpt lat="41.716388" lon="2.302658">
        <ele>706.745</ele>
        <time>2021-02-13T10:06:49Z</time>
      </trkpt>
      <trkpt lat="41.716347" lon="2.302589">
        <ele>705.747</ele>
        <time>2021-02-13T10:06:53Z</time>
      </trkpt>
      <trkpt lat="41.716318" lon="2.302541">
        <ele>705.111</ele>
        <time>2021-02-13T10:06:56Z</time>
      </trkpt>
      <trkpt lat="41.716280" lon="2.302501">
        <ele>703.908</ele>
        <time>2021-02-13T10:07:00Z</time>
      </trkpt>
      <trkpt lat="41.716248" lon="2.302454">
        <ele>702.790</ele>
        <time>2021-02-13T10:07:04Z</time>
      </trkpt>
      <trkpt lat="41.716218" lon="2.302399">
        <ele>701.899</ele>
        <time>2021-02-13T10:07:08Z</time>
      </trkpt>
      <trkpt lat="41.716195" lon="2.302339">
        <ele>701.330</ele>
        <time>2021-02-13T10:07:12Z</time>
      </trkpt>
      <trkpt lat="41.716178" lon="2.302273">
        <ele>701.219</ele>
        <time>2021-02-13T10:07:16Z</time>
      </trkpt>
      <trkpt lat="41.716172" lon="2.302197">
        <ele>701.512</ele>
        <time>2021-02-13T10:07:20Z</time>
      </trkpt>
      <trkpt lat="41.716181" lon="2.302125">
        <ele>702.094</ele>
        <time>2021-02-13T10:07:24Z</time>
      </trkpt>
      <trkpt lat="41.716215" lon="2.302077">
        <ele>703.444</ele>
        <time>2021-02-13T10:07:29Z</time>
      </trkpt>
      <trkpt lat="41.716241" lon="2.302010">
        <ele>704.590</ele>
        <time>2021-02-13T10:07:35Z</time>
      </trkpt>
      <trkpt lat="41.716276" lon="2.301954">
        <ele>705.963</ele>
        <time>2021-02-13T10:07:41Z</time>
      </trkpt>
      <trkpt lat="41.716360" lon="2.301910">
        <ele>708.644</ele>
        <time>2021-02-13T10:09:15Z</time>
      </trkpt>
      <trkpt lat="41.716427" lon="2.301860">
        <ele>710.018</ele>
        <time>2021-02-13T10:09:19Z</time>
      </trkpt>
      <trkpt lat="41.716481" lon="2.301842">
        <ele>711.108</ele>
        <time>2021-02-13T10:09:23Z</time>
      </trkpt>
      <trkpt lat="41.716553" lon="2.301821">
        <ele>712.542</ele>
        <time>2021-02-13T10:09:27Z</time>
      </trkpt>
      <trkpt lat="41.716609" lon="2.301811">
        <ele>713.781</ele>
        <time>2021-02-13T10:09:31Z</time>
      </trkpt>
      <trkpt lat="41.716661" lon="2.301812">
        <ele>715.042</ele>
        <time>2021-02-13T10:09:35Z</time>
      </trkpt>
      <trkpt lat="41.716707" lon="2.301827">
        <ele>715.561</ele>
        <time>2021-02-13T10:09:39Z</time>
      </trkpt>
      <trkpt lat="41.716746" lon="2.301865">
        <ele>716.424</ele>
        <time>2021-02-13T10:09:43Z</time>
      </trkpt>
      <trkpt lat="41.716747" lon="2.301926">
        <ele>717.586</ele>
        <time>2021-02-13T10:09:47Z</time>
      </trkpt>
      <trkpt lat="41.716701" lon="2.301973">
        <ele>717.646</ele>
        <time>2021-02-13T10:09:51Z</time>
      </trkpt>
      <trkpt lat="41.716657" lon="2.302013">
        <ele>717.232</ele>
        <time>2021-02-13T10:09:55Z</time>
      </trkpt>
      <trkpt lat="41.716614" lon="2.302070">
        <ele>716.486</ele>
        <time>2021-02-13T10:09:59Z</time>
      </trkpt>
      <trkpt lat="41.716579" lon="2.302144">
        <ele>715.860</ele>
        <time>2021-02-13T10:10:03Z</time>
      </trkpt>
      <trkpt lat="41.716568" lon="2.302222">
        <ele>715.826</ele>
        <time>2021-02-13T10:10:07Z</time>
      </trkpt>
      <trkpt lat="41.716578" lon="2.302312">
        <ele>716.008</ele>
        <time>2021-02-13T10:10:11Z</time>
      </trkpt>
      <trkpt lat="41.716604" lon="2.302397">
        <ele>716.894</ele>
        <time>2021-02-13T10:10:15Z</time>
      </trkpt>
      <trkpt lat="41.716640" lon="2.302466">
        <ele>718.173</ele>
        <time>2021-02-13T10:10:19Z</time>
      </trkpt>
      <trkpt lat="41.716682" lon="2.302516">
        <ele>719.334</ele>
        <time>2021-02-13T10:10:23Z</time>
      </trkpt>
      <trkpt lat="41.716739" lon="2.302555">
        <ele>720.893</ele>
        <time>2021-02-13T10:10:27Z</time>
      </trkpt>
      <trkpt lat="41.716787" lon="2.302590">
        <ele>722.256</ele>
        <time>2021-02-13T10:10:31Z</time>
      </trkpt>
      <trkpt lat="41.716835" lon="2.302622">
        <ele>723.818</ele>
        <time>2021-02-13T10:10:35Z</time>
      </trkpt>
      <trkpt lat="41.716885" lon="2.302670">
        <ele>725.518</ele>
        <time>2021-02-13T10:10:39Z</time>
      </trkpt>
      <trkpt lat="41.716933" lon="2.302717">
        <ele>727.434</ele>
        <time>2021-02-13T10:10:43Z</time>
      </trkpt>
      <trkpt lat="41.716981" lon="2.302754">
        <ele>728.978</ele>
        <time>2021-02-13T10:10:47Z</time>
      </trkpt>
      <trkpt lat="41.717021" lon="2.302797">
        <ele>730.033</ele>
        <time>2021-02-13T10:10:51Z</time>
      </trkpt>
      <trkpt lat="41.717062" lon="2.302841">
        <ele>730.726</ele>
        <time>2021-02-13T10:10:55Z</time>
      </trkpt>
      <trkpt lat="41.717112" lon="2.302902">
        <ele>731.608</ele>
        <time>2021-02-13T10:10:59Z</time>
      </trkpt>
      <trkpt lat="41.717151" lon="2.302959">
        <ele>732.363</ele>
        <time>2021-02-13T10:11:03Z</time>
      </trkpt>
      <trkpt lat="41.717193" lon="2.303023">
        <ele>733.242</ele>
        <time>2021-02-13T10:11:07Z</time>
      </trkpt>
      <trkpt lat="41.717233" lon="2.303096">
        <ele>733.533</ele>
        <time>2021-02-13T10:11:11Z</time>
      </trkpt>
      <trkpt lat="41.717263" lon="2.303155">
        <ele>733.242</ele>
        <time>2021-02-13T10:11:15Z</time>
      </trkpt>
      <trkpt lat="41.717313" lon="2.303239">
        <ele>733.255</ele>
        <time>2021-02-13T10:11:21Z</time>
      </trkpt>
      <trkpt lat="41.717344" lon="2.303294">
        <ele>733.257</ele>
        <time>2021-02-13T10:11:25Z</time>
      </trkpt>
      <trkpt lat="41.717415" lon="2.303306">
        <ele>735.577</ele>
        <time>2021-02-13T10:11:31Z</time>
      </trkpt>
      <trkpt lat="41.717405" lon="2.303212">
        <ele>736.953</ele>
        <time>2021-02-13T10:11:35Z</time>
      </trkpt>
      <trkpt lat="41.717359" lon="2.303158">
        <ele>736.455</ele>
        <time>2021-02-13T10:11:38Z</time>
      </trkpt>
      <trkpt lat="41.717322" lon="2.303105">
        <ele>736.207</ele>
        <time>2021-02-13T10:11:41Z</time>
      </trkpt>
      <trkpt lat="41.717289" lon="2.303036">
        <ele>736.217</ele>
        <time>2021-02-13T10:11:45Z</time>
      </trkpt>
      <trkpt lat="41.717265" lon="2.302978">
        <ele>735.708</ele>
        <time>2021-02-13T10:11:48Z</time>
      </trkpt>
      <trkpt lat="41.717235" lon="2.302915">
        <ele>735.371</ele>
        <time>2021-02-13T10:11:53Z</time>
      </trkpt>
      <trkpt lat="41.717229" lon="2.302839">
        <ele>735.750</ele>
        <time>2021-02-13T10:11:57Z</time>
      </trkpt>
      <trkpt lat="41.717244" lon="2.302768">
        <ele>736.261</ele>
        <time>2021-02-13T10:12:01Z</time>
      </trkpt>
      <trkpt lat="41.717270" lon="2.302710">
        <ele>735.950</ele>
        <time>2021-02-13T10:12:05Z</time>
      </trkpt>
      <trkpt lat="41.717308" lon="2.302677">
        <ele>736.083</ele>
        <time>2021-02-13T10:12:08Z</time>
      </trkpt>
      <trkpt lat="41.717372" lon="2.302664">
        <ele>736.765</ele>
        <time>2021-02-13T10:12:13Z</time>
      </trkpt>
      <trkpt lat="41.717428" lon="2.302682">
        <ele>737.795</ele>
        <time>2021-02-13T10:12:17Z</time>
      </trkpt>
      <trkpt lat="41.717492" lon="2.302714">
        <ele>739.071</ele>
        <time>2021-02-13T10:12:21Z</time>
      </trkpt>
      <trkpt lat="41.717521" lon="2.302782">
        <ele>740.627</ele>
        <time>2021-02-13T10:12:25Z</time>
      </trkpt>
      <trkpt lat="41.717536" lon="2.302840">
        <ele>741.568</ele>
        <time>2021-02-13T10:12:28Z</time>
      </trkpt>
      <trkpt lat="41.717553" lon="2.302931">
        <ele>742.914</ele>
        <time>2021-02-13T10:12:33Z</time>
      </trkpt>
      <trkpt lat="41.717583" lon="2.303003">
        <ele>744.308</ele>
        <time>2021-02-13T10:12:37Z</time>
      </trkpt>
      <trkpt lat="41.717610" lon="2.303073">
        <ele>745.268</ele>
        <time>2021-02-13T10:12:41Z</time>
      </trkpt>
      <trkpt lat="41.717661" lon="2.303124">
        <ele>746.247</ele>
        <time>2021-02-13T10:12:45Z</time>
      </trkpt>
      <trkpt lat="41.717700" lon="2.303162">
        <ele>747.318</ele>
        <time>2021-02-13T10:12:49Z</time>
      </trkpt>
      <trkpt lat="41.717758" lon="2.303208">
        <ele>749.457</ele>
        <time>2021-02-13T10:12:53Z</time>
      </trkpt>
      <trkpt lat="41.717802" lon="2.303263">
        <ele>751.230</ele>
        <time>2021-02-13T10:12:57Z</time>
      </trkpt>
      <trkpt lat="41.717844" lon="2.303320">
        <ele>752.842</ele>
        <time>2021-02-13T10:13:01Z</time>
      </trkpt>
      <trkpt lat="41.717864" lon="2.303381">
        <ele>752.682</ele>
        <time>2021-02-13T10:13:05Z</time>
      </trkpt>
      <trkpt lat="41.717874" lon="2.303448">
        <ele>751.628</ele>
        <time>2021-02-13T10:13:08Z</time>
      </trkpt>
      <trkpt lat="41.717896" lon="2.303515">
        <ele>751.054</ele>
        <time>2021-02-13T10:13:12Z</time>
      </trkpt>
      <trkpt lat="41.717922" lon="2.303570">
        <ele>750.956</ele>
        <time>2021-02-13T10:13:15Z</time>
      </trkpt>
      <trkpt lat="41.717957" lon="2.303619">
        <ele>751.311</ele>
        <time>2021-02-13T10:13:18Z</time>
      </trkpt>
      <trkpt lat="41.717994" lon="2.303668">
        <ele>751.708</ele>
        <time>2021-02-13T10:13:21Z</time>
      </trkpt>
      <trkpt lat="41.718043" lon="2.303722">
        <ele>752.581</ele>
        <time>2021-02-13T10:13:25Z</time>
      </trkpt>
      <trkpt lat="41.718093" lon="2.303769">
        <ele>753.290</ele>
        <time>2021-02-13T10:13:29Z</time>
      </trkpt>
      <trkpt lat="41.718134" lon="2.303803">
        <ele>753.621</ele>
        <time>2021-02-13T10:13:32Z</time>
      </trkpt>
      <trkpt lat="41.718183" lon="2.303846">
        <ele>754.150</ele>
        <time>2021-02-13T10:13:35Z</time>
      </trkpt>
      <trkpt lat="41.718233" lon="2.303889">
        <ele>754.583</ele>
        <time>2021-02-13T10:13:38Z</time>
      </trkpt>
      <trkpt lat="41.718283" lon="2.303928">
        <ele>755.045</ele>
        <time>2021-02-13T10:13:41Z</time>
      </trkpt>
      <trkpt lat="41.718332" lon="2.303968">
        <ele>755.565</ele>
        <time>2021-02-13T10:13:44Z</time>
      </trkpt>
      <trkpt lat="41.718375" lon="2.304002">
        <ele>756.241</ele>
        <time>2021-02-13T10:13:46Z</time>
      </trkpt>
      <trkpt lat="41.718426" lon="2.304041">
        <ele>757.175</ele>
        <time>2021-02-13T10:13:49Z</time>
      </trkpt>
      <trkpt lat="41.718475" lon="2.304078">
        <ele>758.028</ele>
        <time>2021-02-13T10:13:52Z</time>
      </trkpt>
      <trkpt lat="41.718522" lon="2.304123">
        <ele>758.820</ele>
        <time>2021-02-13T10:13:55Z</time>
      </trkpt>
      <trkpt lat="41.718569" lon="2.304168">
        <ele>759.608</ele>
        <time>2021-02-13T10:13:58Z</time>
      </trkpt>
      <trkpt lat="41.718613" lon="2.304216">
        <ele>760.073</ele>
        <time>2021-02-13T10:14:01Z</time>
      </trkpt>
      <trkpt lat="41.718640" lon="2.304279">
        <ele>759.592</ele>
        <time>2021-02-13T10:14:05Z</time>
      </trkpt>
      <trkpt lat="41.718681" lon="2.304329">
        <ele>759.813</ele>
        <time>2021-02-13T10:14:08Z</time>
      </trkpt>
      <trkpt lat="41.718733" lon="2.304377">
        <ele>760.622</ele>
        <time>2021-02-13T10:14:11Z</time>
      </trkpt>
      <trkpt lat="41.718775" lon="2.304413">
        <ele>761.415</ele>
        <time>2021-02-13T10:14:14Z</time>
      </trkpt>
      <trkpt lat="41.718814" lon="2.304446">
        <ele>762.347</ele>
        <time>2021-02-13T10:14:16Z</time>
      </trkpt>
      <trkpt lat="41.718853" lon="2.304495">
        <ele>762.687</ele>
        <time>2021-02-13T10:14:19Z</time>
      </trkpt>
      <trkpt lat="41.718894" lon="2.304528">
        <ele>763.323</ele>
        <time>2021-02-13T10:14:21Z</time>
      </trkpt>
      <trkpt lat="41.718952" lon="2.304571">
        <ele>763.456</ele>
        <time>2021-02-13T10:14:25Z</time>
      </trkpt>
      <trkpt lat="41.718988" lon="2.304619">
        <ele>763.159</ele>
        <time>2021-02-13T10:14:29Z</time>
      </trkpt>
      <trkpt lat="41.719019" lon="2.304681">
        <ele>762.614</ele>
        <time>2021-02-13T10:14:31Z</time>
      </trkpt>
      <trkpt lat="41.719034" lon="2.304758">
        <ele>761.508</ele>
        <time>2021-02-13T10:14:34Z</time>
      </trkpt>
      <trkpt lat="41.719022" lon="2.304829">
        <ele>759.971</ele>
        <time>2021-02-13T10:14:35Z</time>
      </trkpt>
      <trkpt lat="41.719031" lon="2.304934">
        <ele>758.360</ele>
        <time>2021-02-13T10:14:37Z</time>
      </trkpt>
      <trkpt lat="41.719063" lon="2.305065">
        <ele>757.561</ele>
        <time>2021-02-13T10:14:39Z</time>
      </trkpt>
      <trkpt lat="41.719125" lon="2.305145">
        <ele>758.720</ele>
        <time>2021-02-13T10:14:44Z</time>
      </trkpt>
      <trkpt lat="41.719190" lon="2.305204">
        <ele>759.383</ele>
        <time>2021-02-13T10:14:46Z</time>
      </trkpt>
      <trkpt lat="41.719219" lon="2.305274">
        <ele>758.625</ele>
        <time>2021-02-13T10:14:48Z</time>
      </trkpt>
      <trkpt lat="41.719228" lon="2.305351">
        <ele>758.985</ele>
        <time>2021-02-13T10:14:50Z</time>
      </trkpt>
      <trkpt lat="41.719234" lon="2.305420">
        <ele>759.311</ele>
        <time>2021-02-13T10:14:52Z</time>
      </trkpt>
      <trkpt lat="41.719257" lon="2.305478">
        <ele>759.569</ele>
        <time>2021-02-13T10:14:54Z</time>
      </trkpt>
      <trkpt lat="41.719278" lon="2.305537">
        <ele>759.904</ele>
        <time>2021-02-13T10:14:56Z</time>
      </trkpt>
      <trkpt lat="41.719308" lon="2.305619">
        <ele>760.724</ele>
        <time>2021-02-13T10:14:59Z</time>
      </trkpt>
      <trkpt lat="41.719345" lon="2.305690">
        <ele>761.708</ele>
        <time>2021-02-13T10:15:02Z</time>
      </trkpt>
      <trkpt lat="41.719374" lon="2.305750">
        <ele>762.852</ele>
        <time>2021-02-13T10:15:05Z</time>
      </trkpt>
      <trkpt lat="41.719401" lon="2.305808">
        <ele>764.031</ele>
        <time>2021-02-13T10:15:08Z</time>
      </trkpt>
      <trkpt lat="41.719439" lon="2.305861">
        <ele>765.292</ele>
        <time>2021-02-13T10:15:11Z</time>
      </trkpt>
      <trkpt lat="41.719458" lon="2.305919">
        <ele>765.651</ele>
        <time>2021-02-13T10:15:14Z</time>
      </trkpt>
      <trkpt lat="41.719491" lon="2.305981">
        <ele>765.624</ele>
        <time>2021-02-13T10:15:18Z</time>
      </trkpt>
      <trkpt lat="41.719524" lon="2.306028">
        <ele>765.616</ele>
        <time>2021-02-13T10:15:21Z</time>
      </trkpt>
      <trkpt lat="41.719563" lon="2.306096">
        <ele>766.026</ele>
        <time>2021-02-13T10:15:24Z</time>
      </trkpt>
      <trkpt lat="41.719599" lon="2.306162">
        <ele>766.242</ele>
        <time>2021-02-13T10:15:27Z</time>
      </trkpt>
      <trkpt lat="41.719627" lon="2.306225">
        <ele>766.326</ele>
        <time>2021-02-13T10:15:30Z</time>
      </trkpt>
      <trkpt lat="41.719654" lon="2.306274">
        <ele>766.547</ele>
        <time>2021-02-13T10:15:33Z</time>
      </trkpt>
      <trkpt lat="41.719648" lon="2.306335">
        <ele>767.111</ele>
        <time>2021-02-13T10:15:36Z</time>
      </trkpt>
      <trkpt lat="41.719671" lon="2.306411">
        <ele>767.608</ele>
        <time>2021-02-13T10:15:39Z</time>
      </trkpt>
      <trkpt lat="41.719692" lon="2.306472">
        <ele>768.388</ele>
        <time>2021-02-13T10:15:42Z</time>
      </trkpt>
      <trkpt lat="41.719719" lon="2.306530">
        <ele>769.057</ele>
        <time>2021-02-13T10:15:44Z</time>
      </trkpt>
      <trkpt lat="41.719736" lon="2.306633">
        <ele>770.068</ele>
        <time>2021-02-13T10:15:48Z</time>
      </trkpt>
      <trkpt lat="41.719744" lon="2.306704">
        <ele>770.427</ele>
        <time>2021-02-13T10:15:52Z</time>
      </trkpt>
      <trkpt lat="41.719754" lon="2.306818">
        <ele>770.530</ele>
        <time>2021-02-13T10:15:56Z</time>
      </trkpt>
      <trkpt lat="41.719726" lon="2.306935">
        <ele>771.932</ele>
        <time>2021-02-13T10:16:00Z</time>
      </trkpt>
      <trkpt lat="41.719713" lon="2.307032">
        <ele>771.522</ele>
        <time>2021-02-13T10:16:04Z</time>
      </trkpt>
      <trkpt lat="41.719669" lon="2.307125">
        <ele>770.488</ele>
        <time>2021-02-13T10:16:08Z</time>
      </trkpt>
      <trkpt lat="41.719658" lon="2.307224">
        <ele>769.897</ele>
        <time>2021-02-13T10:16:12Z</time>
      </trkpt>
      <trkpt lat="41.719683" lon="2.307309">
        <ele>770.223</ele>
        <time>2021-02-13T10:16:16Z</time>
      </trkpt>
      <trkpt lat="41.719720" lon="2.307405">
        <ele>771.025</ele>
        <time>2021-02-13T10:16:20Z</time>
      </trkpt>
      <trkpt lat="41.719764" lon="2.307467">
        <ele>770.508</ele>
        <time>2021-02-13T10:16:24Z</time>
      </trkpt>
      <trkpt lat="41.719798" lon="2.307519">
        <ele>770.535</ele>
        <time>2021-02-13T10:16:26Z</time>
      </trkpt>
      <trkpt lat="41.719834" lon="2.307581">
        <ele>771.174</ele>
        <time>2021-02-13T10:16:30Z</time>
      </trkpt>
      <trkpt lat="41.719855" lon="2.307656">
        <ele>772.125</ele>
        <time>2021-02-13T10:16:34Z</time>
      </trkpt>
      <trkpt lat="41.719824" lon="2.307715">
        <ele>773.354</ele>
        <time>2021-02-13T10:16:38Z</time>
      </trkpt>
      <trkpt lat="41.719802" lon="2.307793">
        <ele>774.747</ele>
        <time>2021-02-13T10:16:42Z</time>
      </trkpt>
      <trkpt lat="41.719823" lon="2.307861">
        <ele>775.889</ele>
        <time>2021-02-13T10:16:46Z</time>
      </trkpt>
      <trkpt lat="41.719836" lon="2.307945">
        <ele>777.389</ele>
        <time>2021-02-13T10:16:50Z</time>
      </trkpt>
      <trkpt lat="41.719872" lon="2.308020">
        <ele>778.895</ele>
        <time>2021-02-13T10:16:54Z</time>
      </trkpt>
      <trkpt lat="41.719844" lon="2.307956">
        <ele>777.565</ele>
        <time>2021-02-13T10:17:04Z</time>
      </trkpt>
      <trkpt lat="41.719801" lon="2.307919">
        <ele>776.968</ele>
        <time>2021-02-13T10:17:15Z</time>
      </trkpt>
      <trkpt lat="41.719769" lon="2.307875">
        <ele>776.214</ele>
        <time>2021-02-13T10:17:18Z</time>
      </trkpt>
      <trkpt lat="41.719725" lon="2.307853">
        <ele>776.108</ele>
        <time>2021-02-13T10:17:21Z</time>
      </trkpt>
      <trkpt lat="41.719690" lon="2.307910">
        <ele>775.672</ele>
        <time>2021-02-13T10:17:25Z</time>
      </trkpt>
      <trkpt lat="41.719662" lon="2.308022">
        <ele>775.981</ele>
        <time>2021-02-13T10:17:31Z</time>
      </trkpt>
      <trkpt lat="41.719660" lon="2.308107">
        <ele>777.432</ele>
        <time>2021-02-13T10:17:35Z</time>
      </trkpt>
      <trkpt lat="41.719673" lon="2.308180">
        <ele>779.611</ele>
        <time>2021-02-13T10:17:39Z</time>
      </trkpt>
      <trkpt lat="41.719713" lon="2.308260">
        <ele>783.034</ele>
        <time>2021-02-13T10:17:43Z</time>
      </trkpt>
      <trkpt lat="41.719733" lon="2.308343">
        <ele>785.476</ele>
        <time>2021-02-13T10:17:47Z</time>
      </trkpt>
      <trkpt lat="41.719701" lon="2.308459">
        <ele>787.376</ele>
        <time>2021-02-13T10:17:51Z</time>
      </trkpt>
      <trkpt lat="41.719698" lon="2.308556">
        <ele>789.612</ele>
        <time>2021-02-13T10:17:55Z</time>
      </trkpt>
      <trkpt lat="41.719664" lon="2.308702">
        <ele>792.093</ele>
        <time>2021-02-13T10:18:03Z</time>
      </trkpt>
      <trkpt lat="41.719640" lon="2.308756">
        <ele>792.465</ele>
        <time>2021-02-13T10:18:07Z</time>
      </trkpt>
      <trkpt lat="41.719597" lon="2.308898">
        <ele>794.221</ele>
        <time>2021-02-13T10:18:15Z</time>
      </trkpt>
      <trkpt lat="41.719570" lon="2.308975">
        <ele>794.808</ele>
        <time>2021-02-13T10:18:19Z</time>
      </trkpt>
      <trkpt lat="41.719538" lon="2.309041">
        <ele>794.885</ele>
        <time>2021-02-13T10:18:23Z</time>
      </trkpt>
      <trkpt lat="41.719515" lon="2.309115">
        <ele>795.314</ele>
        <time>2021-02-13T10:18:27Z</time>
      </trkpt>
      <trkpt lat="41.719487" lon="2.309205">
        <ele>795.715</ele>
        <time>2021-02-13T10:18:32Z</time>
      </trkpt>
      <trkpt lat="41.719448" lon="2.309347">
        <ele>796.414</ele>
        <time>2021-02-13T10:18:39Z</time>
      </trkpt>
      <trkpt lat="41.719433" lon="2.309431">
        <ele>797.137</ele>
        <time>2021-02-13T10:18:43Z</time>
      </trkpt>
      <trkpt lat="41.719434" lon="2.309579">
        <ele>799.339</ele>
        <time>2021-02-13T10:18:51Z</time>
      </trkpt>
      <trkpt lat="41.719477" lon="2.309605">
        <ele>801.959</ele>
        <time>2021-02-13T10:18:53Z</time>
      </trkpt>
      <trkpt lat="41.719549" lon="2.309669">
        <ele>806.415</ele>
        <time>2021-02-13T10:18:59Z</time>
      </trkpt>
      <trkpt lat="41.719606" lon="2.309712">
        <ele>810.046</ele>
        <time>2021-02-13T10:19:03Z</time>
      </trkpt>
      <trkpt lat="41.719629" lon="2.309783">
        <ele>811.988</ele>
        <time>2021-02-13T10:19:08Z</time>
      </trkpt>
      <trkpt lat="41.719629" lon="2.309854">
        <ele>812.616</ele>
        <time>2021-02-13T10:19:11Z</time>
      </trkpt>
      <trkpt lat="41.719598" lon="2.309917">
        <ele>811.508</ele>
        <time>2021-02-13T10:19:15Z</time>
      </trkpt>
      <trkpt lat="41.719543" lon="2.309943">
        <ele>808.840</ele>
        <time>2021-02-13T10:19:19Z</time>
      </trkpt>
      <trkpt lat="41.719539" lon="2.310007">
        <ele>809.299</ele>
        <time>2021-02-13T10:19:23Z</time>
      </trkpt>
      <trkpt lat="41.719558" lon="2.309904">
        <ele>809.390</ele>
        <time>2021-02-13T10:19:31Z</time>
      </trkpt>
      <trkpt lat="41.719564" lon="2.309841">
        <ele>809.159</ele>
        <time>2021-02-13T10:20:23Z</time>
      </trkpt>
      <trkpt lat="41.719530" lon="2.309928">
        <ele>808.072</ele>
        <time>2021-02-13T10:21:20Z</time>
      </trkpt>
      <trkpt lat="41.719514" lon="2.310034">
        <ele>808.284</ele>
        <time>2021-02-13T10:21:25Z</time>
      </trkpt>
      <trkpt lat="41.719533" lon="2.310231">
        <ele>812.154</ele>
        <time>2021-02-13T10:21:30Z</time>
      </trkpt>
      <trkpt lat="41.719553" lon="2.310405">
        <ele>816.270</ele>
        <time>2021-02-13T10:21:36Z</time>
      </trkpt>
      <trkpt lat="41.719612" lon="2.310705">
        <ele>824.181</ele>
        <time>2021-02-13T10:21:43Z</time>
      </trkpt>
      <trkpt lat="41.719647" lon="2.310936">
        <ele>828.061</ele>
        <time>2021-02-13T10:21:48Z</time>
      </trkpt>
      <trkpt lat="41.719666" lon="2.311020">
        <ele>829.017</ele>
        <time>2021-02-13T10:21:52Z</time>
      </trkpt>
      <trkpt lat="41.719694" lon="2.311106">
        <ele>830.408</ele>
        <time>2021-02-13T10:21:57Z</time>
      </trkpt>
      <trkpt lat="41.719715" lon="2.311178">
        <ele>831.344</ele>
        <time>2021-02-13T10:22:01Z</time>
      </trkpt>
      <trkpt lat="41.719740" lon="2.311266">
        <ele>832.483</ele>
        <time>2021-02-13T10:22:07Z</time>
      </trkpt>
      <trkpt lat="41.719755" lon="2.311381">
        <ele>832.914</ele>
        <time>2021-02-13T10:22:15Z</time>
      </trkpt>
      <trkpt lat="41.719771" lon="2.311491">
        <ele>834.653</ele>
        <time>2021-02-13T10:22:23Z</time>
      </trkpt>
      <trkpt lat="41.719777" lon="2.311596">
        <ele>835.826</ele>
        <time>2021-02-13T10:22:31Z</time>
      </trkpt>
      <trkpt lat="41.719771" lon="2.311696">
        <ele>836.338</ele>
        <time>2021-02-13T10:22:39Z</time>
      </trkpt>
      <trkpt lat="41.719716" lon="2.311746">
        <ele>833.588</ele>
        <time>2021-02-13T10:22:48Z</time>
      </trkpt>
      <trkpt lat="41.719696" lon="2.311840">
        <ele>833.474</ele>
        <time>2021-02-13T10:22:56Z</time>
      </trkpt>
      <trkpt lat="41.719701" lon="2.311901">
        <ele>834.354</ele>
        <time>2021-02-13T10:23:03Z</time>
      </trkpt>
      <trkpt lat="41.719721" lon="2.312102">
        <ele>838.856</ele>
        <time>2021-02-13T10:23:12Z</time>
      </trkpt>
      <trkpt lat="41.719633" lon="2.312375">
        <ele>838.511</ele>
        <time>2021-02-13T10:23:19Z</time>
      </trkpt>
      <trkpt lat="41.719609" lon="2.312532">
        <ele>839.808</ele>
        <time>2021-02-13T10:23:27Z</time>
      </trkpt>
      <trkpt lat="41.719589" lon="2.312719">
        <ele>842.931</ele>
        <time>2021-02-13T10:23:35Z</time>
      </trkpt>
      <trkpt lat="41.719584" lon="2.312919">
        <ele>847.110</ele>
        <time>2021-02-13T10:23:43Z</time>
      </trkpt>
      <trkpt lat="41.719520" lon="2.313149">
        <ele>850.831</ele>
        <time>2021-02-13T10:23:51Z</time>
      </trkpt>
      <trkpt lat="41.719486" lon="2.313234">
        <ele>852.230</ele>
        <time>2021-02-13T10:23:56Z</time>
      </trkpt>
      <trkpt lat="41.719414" lon="2.313261">
        <ele>852.073</ele>
        <time>2021-02-13T10:24:01Z</time>
      </trkpt>
      <trkpt lat="41.719359" lon="2.313293">
        <ele>852.585</ele>
        <time>2021-02-13T10:24:05Z</time>
      </trkpt>
      <trkpt lat="41.719298" lon="2.313360">
        <ele>854.355</ele>
        <time>2021-02-13T10:24:10Z</time>
      </trkpt>
      <trkpt lat="41.719257" lon="2.313437">
        <ele>856.471</ele>
        <time>2021-02-13T10:24:15Z</time>
      </trkpt>
      <trkpt lat="41.719176" lon="2.313505">
        <ele>858.036</ele>
        <time>2021-02-13T10:24:22Z</time>
      </trkpt>
      <trkpt lat="41.719117" lon="2.313555">
        <ele>859.617</ele>
        <time>2021-02-13T10:24:29Z</time>
      </trkpt>
      <trkpt lat="41.719063" lon="2.313587">
        <ele>860.718</ele>
        <time>2021-02-13T10:24:34Z</time>
      </trkpt>
      <trkpt lat="41.719014" lon="2.313591">
        <ele>861.008</ele>
        <time>2021-02-13T10:24:38Z</time>
      </trkpt>
      <trkpt lat="41.718960" lon="2.313604">
        <ele>861.629</ele>
        <time>2021-02-13T10:24:42Z</time>
      </trkpt>
      <trkpt lat="41.718899" lon="2.313580">
        <ele>861.338</ele>
        <time>2021-02-13T10:24:46Z</time>
      </trkpt>
      <trkpt lat="41.718833" lon="2.313523">
        <ele>861.049</ele>
        <time>2021-02-13T10:24:51Z</time>
      </trkpt>
      <trkpt lat="41.718749" lon="2.313494">
        <ele>861.898</ele>
        <time>2021-02-13T10:24:58Z</time>
      </trkpt>
      <trkpt lat="41.718698" lon="2.313473">
        <ele>862.111</ele>
        <time>2021-02-13T10:25:02Z</time>
      </trkpt>
      <trkpt lat="41.718640" lon="2.313449">
        <ele>862.583</ele>
        <time>2021-02-13T10:25:07Z</time>
      </trkpt>
      <trkpt lat="41.718546" lon="2.313418">
        <ele>863.253</ele>
        <time>2021-02-13T10:25:14Z</time>
      </trkpt>
      <trkpt lat="41.718490" lon="2.313434">
        <ele>864.669</ele>
        <time>2021-02-13T10:25:19Z</time>
      </trkpt>
      <trkpt lat="41.718434" lon="2.313473">
        <ele>866.466</ele>
        <time>2021-02-13T10:25:23Z</time>
      </trkpt>
      <trkpt lat="41.718366" lon="2.313512">
        <ele>868.329</ele>
        <time>2021-02-13T10:25:30Z</time>
      </trkpt>
      <trkpt lat="41.718381" lon="2.313580">
        <ele>869.621</ele>
        <time>2021-02-13T10:25:44Z</time>
      </trkpt>
      <trkpt lat="41.718318" lon="2.313632">
        <ele>871.508</ele>
        <time>2021-02-13T10:25:48Z</time>
      </trkpt>
      <trkpt lat="41.718242" lon="2.313743">
        <ele>874.142</ele>
        <time>2021-02-13T10:25:55Z</time>
      </trkpt>
      <trkpt lat="41.718177" lon="2.313845">
        <ele>876.451</ele>
        <time>2021-02-13T10:26:04Z</time>
      </trkpt>
      <trkpt lat="41.718136" lon="2.313883">
        <ele>877.062</ele>
        <time>2021-02-13T10:26:22Z</time>
      </trkpt>
      <trkpt lat="41.718082" lon="2.314000">
        <ele>880.411</ele>
        <time>2021-02-13T10:26:30Z</time>
      </trkpt>
      <trkpt lat="41.718070" lon="2.314094">
        <ele>883.674</ele>
        <time>2021-02-13T10:26:35Z</time>
      </trkpt>
      <trkpt lat="41.718054" lon="2.314167">
        <ele>886.066</ele>
        <time>2021-02-13T10:26:40Z</time>
      </trkpt>
      <trkpt lat="41.718041" lon="2.314255">
        <ele>889.396</ele>
        <time>2021-02-13T10:26:46Z</time>
      </trkpt>
      <trkpt lat="41.717940" lon="2.314413">
        <ele>894.532</ele>
        <time>2021-02-13T10:26:50Z</time>
      </trkpt>
      <trkpt lat="41.717877" lon="2.314552">
        <ele>897.187</ele>
        <time>2021-02-13T10:26:54Z</time>
      </trkpt>
      <trkpt lat="41.717782" lon="2.314725">
        <ele>900.042</ele>
        <time>2021-02-13T10:26:58Z</time>
      </trkpt>
      <trkpt lat="41.717740" lon="2.314745">
        <ele>899.826</ele>
        <time>2021-02-13T10:27:14Z</time>
      </trkpt>
      <trkpt lat="41.717540" lon="2.314773">
        <ele>898.308</ele>
        <time>2021-02-13T10:28:36Z</time>
      </trkpt>
      <trkpt lat="41.717476" lon="2.314780">
        <ele>897.724</ele>
        <time>2021-02-13T10:28:41Z</time>
      </trkpt>
      <trkpt lat="41.717730" lon="2.314702">
        <ele>899.223</ele>
        <time>2021-02-13T10:28:52Z</time>
      </trkpt>
      <trkpt lat="41.717839" lon="2.314769">
        <ele>900.484</ele>
        <time>2021-02-13T10:31:08Z</time>
      </trkpt>
      <trkpt lat="41.717885" lon="2.314851">
        <ele>901.063</ele>
        <time>2021-02-13T10:31:12Z</time>
      </trkpt>
      <trkpt lat="41.717930" lon="2.314908">
        <ele>901.636</ele>
        <time>2021-02-13T10:31:16Z</time>
      </trkpt>
      <trkpt lat="41.718026" lon="2.314947">
        <ele>902.488</ele>
        <time>2021-02-13T10:31:24Z</time>
      </trkpt>
      <trkpt lat="41.718073" lon="2.314946">
        <ele>903.048</ele>
        <time>2021-02-13T10:31:26Z</time>
      </trkpt>
      <trkpt lat="41.718187" lon="2.314932">
        <ele>905.054</ele>
        <time>2021-02-13T10:31:32Z</time>
      </trkpt>
      <trkpt lat="41.718253" lon="2.314960">
        <ele>906.792</ele>
        <time>2021-02-13T10:31:39Z</time>
      </trkpt>
      <trkpt lat="41.718307" lon="2.315053">
        <ele>909.273</ele>
        <time>2021-02-13T10:31:44Z</time>
      </trkpt>
      <trkpt lat="41.718353" lon="2.315119">
        <ele>911.020</ele>
        <time>2021-02-13T10:31:49Z</time>
      </trkpt>
      <trkpt lat="41.718391" lon="2.315166">
        <ele>912.408</ele>
        <time>2021-02-13T10:31:52Z</time>
      </trkpt>
      <trkpt lat="41.718430" lon="2.315223">
        <ele>914.125</ele>
        <time>2021-02-13T10:31:55Z</time>
      </trkpt>
      <trkpt lat="41.718476" lon="2.315284">
        <ele>916.154</ele>
        <time>2021-02-13T10:31:59Z</time>
      </trkpt>
      <trkpt lat="41.718528" lon="2.315329">
        <ele>917.415</ele>
        <time>2021-02-13T10:32:04Z</time>
      </trkpt>
      <trkpt lat="41.718582" lon="2.315347">
        <ele>918.694</ele>
        <time>2021-02-13T10:32:07Z</time>
      </trkpt>
      <trkpt lat="41.718634" lon="2.315361">
        <ele>919.437</ele>
        <time>2021-02-13T10:32:10Z</time>
      </trkpt>
      <trkpt lat="41.718691" lon="2.315373">
        <ele>919.859</ele>
        <time>2021-02-13T10:32:13Z</time>
      </trkpt>
      <trkpt lat="41.718737" lon="2.315377">
        <ele>920.189</ele>
        <time>2021-02-13T10:32:15Z</time>
      </trkpt>
      <trkpt lat="41.718800" lon="2.315397">
        <ele>920.725</ele>
        <time>2021-02-13T10:32:18Z</time>
      </trkpt>
      <trkpt lat="41.718854" lon="2.315423">
        <ele>921.372</ele>
        <time>2021-02-13T10:32:21Z</time>
      </trkpt>
      <trkpt lat="41.718919" lon="2.315420">
        <ele>921.613</ele>
        <time>2021-02-13T10:32:24Z</time>
      </trkpt>
      <trkpt lat="41.718978" lon="2.315391">
        <ele>921.314</ele>
        <time>2021-02-13T10:32:28Z</time>
      </trkpt>
      <trkpt lat="41.719048" lon="2.315389">
        <ele>921.308</ele>
        <time>2021-02-13T10:32:32Z</time>
      </trkpt>
      <trkpt lat="41.719116" lon="2.315398">
        <ele>921.543</ele>
        <time>2021-02-13T10:32:36Z</time>
      </trkpt>
      <trkpt lat="41.719172" lon="2.315428">
        <ele>922.342</ele>
        <time>2021-02-13T10:32:40Z</time>
      </trkpt>
      <trkpt lat="41.719238" lon="2.315478">
        <ele>923.433</ele>
        <time>2021-02-13T10:32:44Z</time>
      </trkpt>
      <trkpt lat="41.719257" lon="2.315570">
        <ele>925.242</ele>
        <time>2021-02-13T10:32:48Z</time>
      </trkpt>
      <trkpt lat="41.719233" lon="2.315654">
        <ele>926.485</ele>
        <time>2021-02-13T10:32:52Z</time>
      </trkpt>
      <trkpt lat="41.719223" lon="2.315723">
        <ele>927.487</ele>
        <time>2021-02-13T10:32:56Z</time>
      </trkpt>
      <trkpt lat="41.719220" lon="2.315808">
        <ele>928.637</ele>
        <time>2021-02-13T10:33:00Z</time>
      </trkpt>
      <trkpt lat="41.719208" lon="2.315899">
        <ele>929.723</ele>
        <time>2021-02-13T10:33:04Z</time>
      </trkpt>
      <trkpt lat="41.719214" lon="2.315994">
        <ele>930.778</ele>
        <time>2021-02-13T10:33:08Z</time>
      </trkpt>
      <trkpt lat="41.719227" lon="2.316077">
        <ele>931.633</ele>
        <time>2021-02-13T10:33:12Z</time>
      </trkpt>
      <trkpt lat="41.719232" lon="2.316146">
        <ele>932.326</ele>
        <time>2021-02-13T10:33:16Z</time>
      </trkpt>
      <trkpt lat="41.719253" lon="2.316232">
        <ele>932.908</ele>
        <time>2021-02-13T10:33:20Z</time>
      </trkpt>
      <trkpt lat="41.719280" lon="2.316304">
        <ele>933.413</ele>
        <time>2021-02-13T10:33:24Z</time>
      </trkpt>
      <trkpt lat="41.719271" lon="2.316374">
        <ele>933.962</ele>
        <time>2021-02-13T10:33:28Z</time>
      </trkpt>
      <trkpt lat="41.719264" lon="2.316449">
        <ele>934.383</ele>
        <time>2021-02-13T10:33:32Z</time>
      </trkpt>
      <trkpt lat="41.719256" lon="2.316524">
        <ele>934.632</ele>
        <time>2021-02-13T10:33:37Z</time>
      </trkpt>
      <trkpt lat="41.719265" lon="2.316593">
        <ele>935.035</ele>
        <time>2021-02-13T10:33:42Z</time>
      </trkpt>
      <trkpt lat="41.719230" lon="2.316773">
        <ele>935.557</ele>
        <time>2021-02-13T10:33:49Z</time>
      </trkpt>
      <trkpt lat="41.719203" lon="2.316948">
        <ele>936.087</ele>
        <time>2021-02-13T10:33:53Z</time>
      </trkpt>
      <trkpt lat="41.719212" lon="2.317069">
        <ele>936.853</ele>
        <time>2021-02-13T10:33:56Z</time>
      </trkpt>
      <trkpt lat="41.719260" lon="2.317197">
        <ele>937.538</ele>
        <time>2021-02-13T10:34:01Z</time>
      </trkpt>
      <trkpt lat="41.719269" lon="2.317258">
        <ele>937.870</ele>
        <time>2021-02-13T10:34:05Z</time>
      </trkpt>
      <trkpt lat="41.719260" lon="2.317432">
        <ele>938.917</ele>
        <time>2021-02-13T10:34:13Z</time>
      </trkpt>
      <trkpt lat="41.719249" lon="2.317525">
        <ele>939.708</ele>
        <time>2021-02-13T10:34:17Z</time>
      </trkpt>
      <trkpt lat="41.719268" lon="2.317621">
        <ele>940.639</ele>
        <time>2021-02-13T10:34:21Z</time>
      </trkpt>
      <trkpt lat="41.719295" lon="2.317699">
        <ele>941.288</ele>
        <time>2021-02-13T10:34:25Z</time>
      </trkpt>
      <trkpt lat="41.719314" lon="2.317791">
        <ele>942.169</ele>
        <time>2021-02-13T10:34:29Z</time>
      </trkpt>
      <trkpt lat="41.719343" lon="2.317872">
        <ele>942.638</ele>
        <time>2021-02-13T10:34:33Z</time>
      </trkpt>
      <trkpt lat="41.719383" lon="2.317951">
        <ele>943.251</ele>
        <time>2021-02-13T10:34:37Z</time>
      </trkpt>
      <trkpt lat="41.719428" lon="2.318013">
        <ele>943.613</ele>
        <time>2021-02-13T10:34:41Z</time>
      </trkpt>
      <trkpt lat="41.719464" lon="2.318076">
        <ele>944.123</ele>
        <time>2021-02-13T10:34:45Z</time>
      </trkpt>
      <trkpt lat="41.719497" lon="2.318133">
        <ele>944.849</ele>
        <time>2021-02-13T10:34:49Z</time>
      </trkpt>
      <trkpt lat="41.719527" lon="2.318191">
        <ele>945.659</ele>
        <time>2021-02-13T10:34:53Z</time>
      </trkpt>
      <trkpt lat="41.719548" lon="2.318261">
        <ele>946.803</ele>
        <time>2021-02-13T10:34:57Z</time>
      </trkpt>
      <trkpt lat="41.719574" lon="2.318326">
        <ele>948.023</ele>
        <time>2021-02-13T10:35:01Z</time>
      </trkpt>
      <trkpt lat="41.719616" lon="2.318406">
        <ele>948.608</ele>
        <time>2021-02-13T10:35:05Z</time>
      </trkpt>
      <trkpt lat="41.719644" lon="2.318536">
        <ele>949.941</ele>
        <time>2021-02-13T10:35:13Z</time>
      </trkpt>
      <trkpt lat="41.719616" lon="2.318589">
        <ele>951.370</ele>
        <time>2021-02-13T10:35:17Z</time>
      </trkpt>
      <trkpt lat="41.719596" lon="2.318684">
        <ele>953.531</ele>
        <time>2021-02-13T10:35:24Z</time>
      </trkpt>
      <trkpt lat="41.719588" lon="2.318763">
        <ele>955.160</ele>
        <time>2021-02-13T10:35:29Z</time>
      </trkpt>
      <trkpt lat="41.719580" lon="2.318829">
        <ele>956.543</ele>
        <time>2021-02-13T10:35:32Z</time>
      </trkpt>
      <trkpt lat="41.719544" lon="2.318918">
        <ele>959.115</ele>
        <time>2021-02-13T10:35:36Z</time>
      </trkpt>
      <trkpt lat="41.719528" lon="2.318988">
        <ele>960.465</ele>
        <time>2021-02-13T10:35:40Z</time>
      </trkpt>
      <trkpt lat="41.719495" lon="2.319095">
        <ele>962.621</ele>
        <time>2021-02-13T10:35:45Z</time>
      </trkpt>
      <trkpt lat="41.719468" lon="2.319209">
        <ele>964.511</ele>
        <time>2021-02-13T10:35:49Z</time>
      </trkpt>
      <trkpt lat="41.719431" lon="2.319356">
        <ele>966.521</ele>
        <time>2021-02-13T10:35:56Z</time>
      </trkpt>
      <trkpt lat="41.719384" lon="2.319431">
        <ele>967.303</ele>
        <time>2021-02-13T10:36:04Z</time>
      </trkpt>
      <trkpt lat="41.719364" lon="2.319486">
        <ele>967.508</ele>
        <time>2021-02-13T10:36:08Z</time>
      </trkpt>
      <trkpt lat="41.719343" lon="2.319566">
        <ele>967.627</ele>
        <time>2021-02-13T10:36:13Z</time>
      </trkpt>
      <trkpt lat="41.719305" lon="2.319740">
        <ele>968.016</ele>
        <time>2021-02-13T10:36:20Z</time>
      </trkpt>
      <trkpt lat="41.719296" lon="2.319925">
        <ele>967.887</ele>
        <time>2021-02-13T10:36:28Z</time>
      </trkpt>
      <trkpt lat="41.719292" lon="2.320118">
        <ele>967.396</ele>
        <time>2021-02-13T10:36:36Z</time>
      </trkpt>
      <trkpt lat="41.719282" lon="2.320300">
        <ele>967.119</ele>
        <time>2021-02-13T10:36:44Z</time>
      </trkpt>
      <trkpt lat="41.719287" lon="2.320690">
        <ele>971.811</ele>
        <time>2021-02-13T10:37:00Z</time>
      </trkpt>
      <trkpt lat="41.719299" lon="2.320820">
        <ele>973.971</ele>
        <time>2021-02-13T10:37:05Z</time>
      </trkpt>
      <trkpt lat="41.719305" lon="2.320904">
        <ele>975.277</ele>
        <time>2021-02-13T10:37:10Z</time>
      </trkpt>
      <trkpt lat="41.719271" lon="2.321021">
        <ele>977.583</ele>
        <time>2021-02-13T10:37:24Z</time>
      </trkpt>
      <trkpt lat="41.719137" lon="2.321122">
        <ele>979.825</ele>
        <time>2021-02-13T10:37:32Z</time>
      </trkpt>
      <trkpt lat="41.719019" lon="2.321181">
        <ele>979.317</ele>
        <time>2021-02-13T10:37:40Z</time>
      </trkpt>
      <trkpt lat="41.718954" lon="2.321142">
        <ele>978.108</ele>
        <time>2021-02-13T10:37:47Z</time>
      </trkpt>
      <trkpt lat="41.718909" lon="2.320946">
        <ele>974.364</ele>
        <time>2021-02-13T10:37:57Z</time>
      </trkpt>
      <trkpt lat="41.718894" lon="2.320876">
        <ele>972.883</ele>
        <time>2021-02-13T10:38:05Z</time>
      </trkpt>
      <trkpt lat="41.718934" lon="2.320909">
        <ele>974.074</ele>
        <time>2021-02-13T10:38:28Z</time>
      </trkpt>
      <trkpt lat="41.718950" lon="2.320968">
        <ele>975.283</ele>
        <time>2021-02-13T10:39:45Z</time>
      </trkpt>
      <trkpt lat="41.718925" lon="2.321032">
        <ele>976.046</ele>
        <time>2021-02-13T10:40:19Z</time>
      </trkpt>
      <trkpt lat="41.718975" lon="2.321023">
        <ele>976.418</ele>
        <time>2021-02-13T10:41:19Z</time>
      </trkpt>
      <trkpt lat="41.718924" lon="2.321004">
        <ele>975.558</ele>
        <time>2021-02-13T10:41:35Z</time>
      </trkpt>
      <trkpt lat="41.718948" lon="2.321056">
        <ele>976.794</ele>
        <time>2021-02-13T10:45:04Z</time>
      </trkpt>
      <trkpt lat="41.718952" lon="2.320987">
        <ele>975.584</ele>
        <time>2021-02-13T10:47:07Z</time>
      </trkpt>
      <trkpt lat="41.718944" lon="2.320901">
        <ele>974.007</ele>
        <time>2021-02-13T10:47:10Z</time>
      </trkpt>
      <trkpt lat="41.718966" lon="2.320822">
        <ele>973.017</ele>
        <time>2021-02-13T10:47:13Z</time>
      </trkpt>
      <trkpt lat="41.718994" lon="2.320752">
        <ele>972.708</ele>
        <time>2021-02-13T10:47:25Z</time>
      </trkpt>
      <trkpt lat="41.719058" lon="2.320816">
        <ele>974.264</ele>
        <time>2021-02-13T10:47:45Z</time>
      </trkpt>
      <trkpt lat="41.719092" lon="2.320693">
        <ele>973.273</ele>
        <time>2021-02-13T10:47:48Z</time>
      </trkpt>
      <trkpt lat="41.719073" lon="2.320525">
        <ele>971.194</ele>
        <time>2021-02-13T10:47:53Z</time>
      </trkpt>
      <trkpt lat="41.719068" lon="2.320452">
        <ele>970.643</ele>
        <time>2021-02-13T10:47:56Z</time>
      </trkpt>
      <trkpt lat="41.719053" lon="2.320368">
        <ele>970.096</ele>
        <time>2021-02-13T10:48:00Z</time>
      </trkpt>
      <trkpt lat="41.719031" lon="2.320307">
        <ele>969.618</ele>
        <time>2021-02-13T10:48:05Z</time>
      </trkpt>
      <trkpt lat="41.718981" lon="2.320260">
        <ele>969.668</ele>
        <time>2021-02-13T10:48:10Z</time>
      </trkpt>
      <trkpt lat="41.718981" lon="2.320184">
        <ele>969.664</ele>
        <time>2021-02-13T10:48:15Z</time>
      </trkpt>
      <trkpt lat="41.719011" lon="2.320110">
        <ele>969.594</ele>
        <time>2021-02-13T10:48:19Z</time>
      </trkpt>
      <trkpt lat="41.719028" lon="2.319985">
        <ele>969.457</ele>
        <time>2021-02-13T10:48:25Z</time>
      </trkpt>
      <trkpt lat="41.719050" lon="2.319914">
        <ele>969.322</ele>
        <time>2021-02-13T10:48:28Z</time>
      </trkpt>
      <trkpt lat="41.718996" lon="2.319806">
        <ele>968.508</ele>
        <time>2021-02-13T10:48:33Z</time>
      </trkpt>
      <trkpt lat="41.719005" lon="2.319721">
        <ele>968.255</ele>
        <time>2021-02-13T10:48:36Z</time>
      </trkpt>
      <trkpt lat="41.718982" lon="2.319660">
        <ele>967.514</ele>
        <time>2021-02-13T10:48:39Z</time>
      </trkpt>
      <trkpt lat="41.719000" lon="2.319589">
        <ele>967.125</ele>
        <time>2021-02-13T10:48:44Z</time>
      </trkpt>
      <trkpt lat="41.719035" lon="2.319546">
        <ele>967.394</ele>
        <time>2021-02-13T10:48:47Z</time>
      </trkpt>
      <trkpt lat="41.719041" lon="2.319478">
        <ele>967.097</ele>
        <time>2021-02-13T10:48:49Z</time>
      </trkpt>
      <trkpt lat="41.719011" lon="2.319409">
        <ele>966.029</ele>
        <time>2021-02-13T10:48:54Z</time>
      </trkpt>
      <trkpt lat="41.719073" lon="2.319340">
        <ele>966.889</ele>
        <time>2021-02-13T10:48:56Z</time>
      </trkpt>
      <trkpt lat="41.719102" lon="2.319265">
        <ele>967.045</ele>
        <time>2021-02-13T10:48:59Z</time>
      </trkpt>
      <trkpt lat="41.719103" lon="2.319200">
        <ele>966.888</ele>
        <time>2021-02-13T10:49:02Z</time>
      </trkpt>
      <trkpt lat="41.719127" lon="2.319149">
        <ele>966.924</ele>
        <time>2021-02-13T10:49:04Z</time>
      </trkpt>
      <trkpt lat="41.719131" lon="2.319067">
        <ele>965.826</ele>
        <time>2021-02-13T10:49:12Z</time>
      </trkpt>
      <trkpt lat="41.719108" lon="2.318945">
        <ele>963.708</ele>
        <time>2021-02-13T10:49:20Z</time>
      </trkpt>
      <trkpt lat="41.719125" lon="2.318886">
        <ele>963.264</ele>
        <time>2021-02-13T10:49:25Z</time>
      </trkpt>
      <trkpt lat="41.719114" lon="2.318801">
        <ele>961.583</ele>
        <time>2021-02-13T10:49:31Z</time>
      </trkpt>
      <trkpt lat="41.719007" lon="2.317106">
        <ele>932.994</ele>
        <time>2021-02-13T10:50:00Z</time>
      </trkpt>
      <trkpt lat="41.719087" lon="2.316980">
        <ele>934.053</ele>
        <time>2021-02-13T10:50:09Z</time>
      </trkpt>
      <trkpt lat="41.719067" lon="2.316846">
        <ele>932.646</ele>
        <time>2021-02-13T10:50:16Z</time>
      </trkpt>
      <trkpt lat="41.719065" lon="2.316696">
        <ele>931.958</ele>
        <time>2021-02-13T10:50:20Z</time>
      </trkpt>
      <trkpt lat="41.719163" lon="2.316605">
        <ele>934.778</ele>
        <time>2021-02-13T10:50:27Z</time>
      </trkpt>
      <trkpt lat="41.719169" lon="2.316453">
        <ele>934.254</ele>
        <time>2021-02-13T10:50:32Z</time>
      </trkpt>
      <trkpt lat="41.719149" lon="2.316256">
        <ele>932.524</ele>
        <time>2021-02-13T10:50:37Z</time>
      </trkpt>
      <trkpt lat="41.719055" lon="2.316099">
        <ele>929.104</ele>
        <time>2021-02-13T10:50:42Z</time>
      </trkpt>
      <trkpt lat="41.719003" lon="2.316063">
        <ele>927.714</ele>
        <time>2021-02-13T10:50:44Z</time>
      </trkpt>
      <trkpt lat="41.718948" lon="2.316004">
        <ele>926.208</ele>
        <time>2021-02-13T10:50:46Z</time>
      </trkpt>
      <trkpt lat="41.718906" lon="2.315925">
        <ele>925.368</ele>
        <time>2021-02-13T10:50:49Z</time>
      </trkpt>
      <trkpt lat="41.718857" lon="2.315803">
        <ele>924.227</ele>
        <time>2021-02-13T10:50:54Z</time>
      </trkpt>
      <trkpt lat="41.718813" lon="2.315741">
        <ele>923.268</ele>
        <time>2021-02-13T10:50:59Z</time>
      </trkpt>
      <trkpt lat="41.718727" lon="2.315724">
        <ele>921.847</ele>
        <time>2021-02-13T10:51:04Z</time>
      </trkpt>
      <trkpt lat="41.718681" lon="2.315697">
        <ele>921.030</ele>
        <time>2021-02-13T10:51:07Z</time>
      </trkpt>
      <trkpt lat="41.718615" lon="2.315639">
        <ele>920.022</ele>
        <time>2021-02-13T10:51:17Z</time>
      </trkpt>
      <trkpt lat="41.718508" lon="2.315565">
        <ele>918.132</ele>
        <time>2021-02-13T10:51:22Z</time>
      </trkpt>
      <trkpt lat="41.718460" lon="2.315585">
        <ele>917.158</ele>
        <time>2021-02-13T10:51:25Z</time>
      </trkpt>
      <trkpt lat="41.718368" lon="2.315528">
        <ele>915.499</ele>
        <time>2021-02-13T10:51:28Z</time>
      </trkpt>
      <trkpt lat="41.718330" lon="2.315487">
        <ele>914.407</ele>
        <time>2021-02-13T10:51:30Z</time>
      </trkpt>
      <trkpt lat="41.718280" lon="2.315430">
        <ele>912.627</ele>
        <time>2021-02-13T10:51:36Z</time>
      </trkpt>
      <trkpt lat="41.718219" lon="2.315398">
        <ele>910.808</ele>
        <time>2021-02-13T10:51:41Z</time>
      </trkpt>
      <trkpt lat="41.718171" lon="2.315355">
        <ele>909.335</ele>
        <time>2021-02-13T10:51:46Z</time>
      </trkpt>
      <trkpt lat="41.718109" lon="2.315392">
        <ele>907.844</ele>
        <time>2021-02-13T10:51:51Z</time>
      </trkpt>
      <trkpt lat="41.718057" lon="2.315349">
        <ele>906.345</ele>
        <time>2021-02-13T10:52:01Z</time>
      </trkpt>
      <trkpt lat="41.718027" lon="2.315285">
        <ele>905.534</ele>
        <time>2021-02-13T10:52:06Z</time>
      </trkpt>
      <trkpt lat="41.717970" lon="2.315222">
        <ele>904.067</ele>
        <time>2021-02-13T10:52:13Z</time>
      </trkpt>
      <trkpt lat="41.717911" lon="2.315201">
        <ele>903.079</ele>
        <time>2021-02-13T10:52:36Z</time>
      </trkpt>
      <trkpt lat="41.717817" lon="2.315196">
        <ele>901.659</ele>
        <time>2021-02-13T10:52:49Z</time>
      </trkpt>
      <trkpt lat="41.717765" lon="2.314977">
        <ele>900.865</ele>
        <time>2021-02-13T10:53:04Z</time>
      </trkpt>
      <trkpt lat="41.717726" lon="2.314803">
        <ele>899.958</ele>
        <time>2021-02-13T10:53:10Z</time>
      </trkpt>
      <trkpt lat="41.717700" lon="2.314737">
        <ele>899.552</ele>
        <time>2021-02-13T10:53:18Z</time>
      </trkpt>
      <trkpt lat="41.717656" lon="2.314720">
        <ele>899.117</ele>
        <time>2021-02-13T10:55:21Z</time>
      </trkpt>
      <trkpt lat="41.717610" lon="2.314697">
        <ele>898.308</ele>
        <time>2021-02-13T10:55:24Z</time>
      </trkpt>
      <trkpt lat="41.717480" lon="2.314645">
        <ele>896.541</ele>
        <time>2021-02-13T10:55:27Z</time>
      </trkpt>
      <trkpt lat="41.717314" lon="2.314577">
        <ele>894.420</ele>
        <time>2021-02-13T10:55:30Z</time>
      </trkpt>
      <trkpt lat="41.717183" lon="2.314517">
        <ele>893.521</ele>
        <time>2021-02-13T10:55:32Z</time>
      </trkpt>
      <trkpt lat="41.717095" lon="2.314468">
        <ele>893.260</ele>
        <time>2021-02-13T10:55:35Z</time>
      </trkpt>
      <trkpt lat="41.717010" lon="2.314407">
        <ele>892.533</ele>
        <time>2021-02-13T10:55:37Z</time>
      </trkpt>
      <trkpt lat="41.716945" lon="2.314352">
        <ele>892.085</ele>
        <time>2021-02-13T10:55:40Z</time>
      </trkpt>
      <trkpt lat="41.716892" lon="2.314319">
        <ele>892.315</ele>
        <time>2021-02-13T10:55:42Z</time>
      </trkpt>
      <trkpt lat="41.716822" lon="2.314295">
        <ele>892.941</ele>
        <time>2021-02-13T10:55:47Z</time>
      </trkpt>
      <trkpt lat="41.716766" lon="2.314278">
        <ele>893.487</ele>
        <time>2021-02-13T10:55:50Z</time>
      </trkpt>
      <trkpt lat="41.716658" lon="2.314273">
        <ele>894.742</ele>
        <time>2021-02-13T10:55:54Z</time>
      </trkpt>
      <trkpt lat="41.716575" lon="2.314272">
        <ele>896.526</ele>
        <time>2021-02-13T10:55:57Z</time>
      </trkpt>
      <trkpt lat="41.716515" lon="2.314265">
        <ele>897.708</ele>
        <time>2021-02-13T10:56:00Z</time>
      </trkpt>
      <trkpt lat="41.716419" lon="2.314285">
        <ele>899.814</ele>
        <time>2021-02-13T10:56:05Z</time>
      </trkpt>
      <trkpt lat="41.716339" lon="2.314319">
        <ele>901.013</ele>
        <time>2021-02-13T10:56:10Z</time>
      </trkpt>
      <trkpt lat="41.716272" lon="2.314338">
        <ele>901.794</ele>
        <time>2021-02-13T10:56:15Z</time>
      </trkpt>
      <trkpt lat="41.716207" lon="2.314361">
        <ele>902.573</ele>
        <time>2021-02-13T10:56:17Z</time>
      </trkpt>
      <trkpt lat="41.716143" lon="2.314372">
        <ele>903.216</ele>
        <time>2021-02-13T10:56:23Z</time>
      </trkpt>
      <trkpt lat="41.716094" lon="2.314370">
        <ele>903.568</ele>
        <time>2021-02-13T10:56:28Z</time>
      </trkpt>
      <trkpt lat="41.716018" lon="2.314337">
        <ele>903.538</ele>
        <time>2021-02-13T10:56:37Z</time>
      </trkpt>
      <trkpt lat="41.715894" lon="2.314289">
        <ele>903.874</ele>
        <time>2021-02-13T10:56:42Z</time>
      </trkpt>
      <trkpt lat="41.715805" lon="2.314262">
        <ele>904.292</ele>
        <time>2021-02-13T10:56:47Z</time>
      </trkpt>
      <trkpt lat="41.715736" lon="2.314247">
        <ele>904.673</ele>
        <time>2021-02-13T10:56:52Z</time>
      </trkpt>
      <trkpt lat="41.715631" lon="2.314197">
        <ele>905.920</ele>
        <time>2021-02-13T10:56:57Z</time>
      </trkpt>
      <trkpt lat="41.715583" lon="2.314161">
        <ele>906.708</ele>
        <time>2021-02-13T10:57:00Z</time>
      </trkpt>
      <trkpt lat="41.715532" lon="2.314125">
        <ele>907.285</ele>
        <time>2021-02-13T10:57:05Z</time>
      </trkpt>
      <trkpt lat="41.715432" lon="2.314038">
        <ele>908.124</ele>
        <time>2021-02-13T10:57:09Z</time>
      </trkpt>
      <trkpt lat="41.715302" lon="2.313916">
        <ele>909.635</ele>
        <time>2021-02-13T10:57:12Z</time>
      </trkpt>
      <trkpt lat="41.715263" lon="2.313878">
        <ele>909.814</ele>
        <time>2021-02-13T10:57:15Z</time>
      </trkpt>
      <trkpt lat="41.715195" lon="2.313826">
        <ele>908.917</ele>
        <time>2021-02-13T10:57:20Z</time>
      </trkpt>
      <trkpt lat="41.715151" lon="2.313794">
        <ele>908.379</ele>
        <time>2021-02-13T10:57:25Z</time>
      </trkpt>
      <trkpt lat="41.715186" lon="2.313731">
        <ele>908.929</ele>
        <time>2021-02-13T10:58:21Z</time>
      </trkpt>
      <trkpt lat="41.715257" lon="2.313715">
        <ele>909.735</ele>
        <time>2021-02-13T10:58:31Z</time>
      </trkpt>
      <trkpt lat="41.715303" lon="2.313694">
        <ele>909.788</ele>
        <time>2021-02-13T10:58:42Z</time>
      </trkpt>
      <trkpt lat="41.715355" lon="2.313687">
        <ele>909.024</ele>
        <time>2021-02-13T10:58:54Z</time>
      </trkpt>
      <trkpt lat="41.715401" lon="2.313602">
        <ele>908.226</ele>
        <time>2021-02-13T10:59:08Z</time>
      </trkpt>
      <trkpt lat="41.713681" lon="2.312456">
        <ele>890.108</ele>
        <time>2021-02-13T10:59:48Z</time>
      </trkpt>
      <trkpt lat="41.713608" lon="2.312459">
        <ele>889.634</ele>
        <time>2021-02-13T10:59:53Z</time>
      </trkpt>
      <trkpt lat="41.713517" lon="2.312443">
        <ele>890.043</ele>
        <time>2021-02-13T11:00:03Z</time>
      </trkpt>
      <trkpt lat="41.713460" lon="2.312469">
        <ele>890.784</ele>
        <time>2021-02-13T11:00:08Z</time>
      </trkpt>
      <trkpt lat="41.713385" lon="2.312436">
        <ele>890.763</ele>
        <time>2021-02-13T11:00:13Z</time>
      </trkpt>
      <trkpt lat="41.713281" lon="2.312401">
        <ele>891.336</ele>
        <time>2021-02-13T11:00:18Z</time>
      </trkpt>
      <trkpt lat="41.713228" lon="2.312364">
        <ele>891.778</ele>
        <time>2021-02-13T11:00:20Z</time>
      </trkpt>
      <trkpt lat="41.713186" lon="2.312332">
        <ele>892.158</ele>
        <time>2021-02-13T11:00:23Z</time>
      </trkpt>
      <trkpt lat="41.713116" lon="2.312348">
        <ele>893.494</ele>
        <time>2021-02-13T11:00:25Z</time>
      </trkpt>
      <trkpt lat="41.713068" lon="2.312370">
        <ele>894.312</ele>
        <time>2021-02-13T11:00:28Z</time>
      </trkpt>
      <trkpt lat="41.712969" lon="2.312357">
        <ele>894.632</ele>
        <time>2021-02-13T11:00:33Z</time>
      </trkpt>
      <trkpt lat="41.712885" lon="2.312285">
        <ele>894.705</ele>
        <time>2021-02-13T11:00:38Z</time>
      </trkpt>
      <trkpt lat="41.712634" lon="2.312259">
        <ele>891.908</ele>
        <time>2021-02-13T11:00:43Z</time>
      </trkpt>
      <trkpt lat="41.712561" lon="2.312244">
        <ele>890.347</ele>
        <time>2021-02-13T11:00:50Z</time>
      </trkpt>
      <trkpt lat="41.712506" lon="2.312275">
        <ele>889.136</ele>
        <time>2021-02-13T11:00:52Z</time>
      </trkpt>
      <trkpt lat="41.712449" lon="2.312275">
        <ele>888.167</ele>
        <time>2021-02-13T11:00:55Z</time>
      </trkpt>
      <trkpt lat="41.712380" lon="2.312291">
        <ele>886.886</ele>
        <time>2021-02-13T11:00:58Z</time>
      </trkpt>
      <trkpt lat="41.712362" lon="2.312225">
        <ele>887.029</ele>
        <time>2021-02-13T11:01:03Z</time>
      </trkpt>
      <trkpt lat="41.712316" lon="2.312246">
        <ele>886.191</ele>
        <time>2021-02-13T11:01:13Z</time>
      </trkpt>
      <trkpt lat="41.712028" lon="2.312234">
        <ele>882.061</ele>
        <time>2021-02-13T11:01:18Z</time>
      </trkpt>
      <trkpt lat="41.711903" lon="2.312200">
        <ele>880.017</ele>
        <time>2021-02-13T11:01:23Z</time>
      </trkpt>
      <trkpt lat="41.711401" lon="2.312390">
        <ele>871.772</ele>
        <time>2021-02-13T11:01:43Z</time>
      </trkpt>
      <trkpt lat="41.711342" lon="2.312407">
        <ele>870.713</ele>
        <time>2021-02-13T11:01:52Z</time>
      </trkpt>
      <trkpt lat="41.711301" lon="2.312451">
        <ele>870.014</ele>
        <time>2021-02-13T11:02:02Z</time>
      </trkpt>
      <trkpt lat="41.711211" lon="2.312499">
        <ele>868.208</ele>
        <time>2021-02-13T11:02:11Z</time>
      </trkpt>
      <trkpt lat="41.711089" lon="2.312599">
        <ele>864.553</ele>
        <time>2021-02-13T11:02:16Z</time>
      </trkpt>
      <trkpt lat="41.710999" lon="2.312608">
        <ele>861.312</ele>
        <time>2021-02-13T11:02:21Z</time>
      </trkpt>
      <trkpt lat="41.710795" lon="2.312744">
        <ele>854.643</ele>
        <time>2021-02-13T11:02:29Z</time>
      </trkpt>
      <trkpt lat="41.710820" lon="2.312911">
        <ele>855.212</ele>
        <time>2021-02-13T11:02:38Z</time>
      </trkpt>
      <trkpt lat="41.710738" lon="2.312940">
        <ele>853.145</ele>
        <time>2021-02-13T11:02:47Z</time>
      </trkpt>
      <trkpt lat="41.709445" lon="2.315450">
        <ele>828.127</ele>
        <time>2021-02-13T11:03:28Z</time>
      </trkpt>
      <trkpt lat="41.709407" lon="2.315511">
        <ele>827.777</ele>
        <time>2021-02-13T11:03:31Z</time>
      </trkpt>
      <trkpt lat="41.709308" lon="2.315489">
        <ele>828.223</ele>
        <time>2021-02-13T11:03:36Z</time>
      </trkpt>
      <trkpt lat="41.709229" lon="2.315535">
        <ele>828.579</ele>
        <time>2021-02-13T11:03:41Z</time>
      </trkpt>
      <trkpt lat="41.709186" lon="2.315620">
        <ele>828.305</ele>
        <time>2021-02-13T11:03:46Z</time>
      </trkpt>
      <trkpt lat="41.709086" lon="2.315685">
        <ele>828.325</ele>
        <time>2021-02-13T11:03:51Z</time>
      </trkpt>
      <trkpt lat="41.708977" lon="2.315742">
        <ele>828.608</ele>
        <time>2021-02-13T11:03:56Z</time>
      </trkpt>
      <trkpt lat="41.708962" lon="2.315875">
        <ele>827.983</ele>
        <time>2021-02-13T11:04:01Z</time>
      </trkpt>
      <trkpt lat="41.708854" lon="2.315995">
        <ele>826.752</ele>
        <time>2021-02-13T11:04:06Z</time>
      </trkpt>
      <trkpt lat="41.708779" lon="2.316076">
        <ele>825.063</ele>
        <time>2021-02-13T11:04:11Z</time>
      </trkpt>
      <trkpt lat="41.708679" lon="2.316207">
        <ele>823.672</ele>
        <time>2021-02-13T11:04:16Z</time>
      </trkpt>
      <trkpt lat="41.708596" lon="2.316315">
        <ele>822.745</ele>
        <time>2021-02-13T11:04:21Z</time>
      </trkpt>
      <trkpt lat="41.708530" lon="2.316375">
        <ele>821.877</ele>
        <time>2021-02-13T11:04:31Z</time>
      </trkpt>
      <trkpt lat="41.708485" lon="2.316439">
        <ele>821.367</ele>
        <time>2021-02-13T11:04:36Z</time>
      </trkpt>
      <trkpt lat="41.708454" lon="2.316577">
        <ele>821.143</ele>
        <time>2021-02-13T11:04:41Z</time>
      </trkpt>
      <trkpt lat="41.708421" lon="2.316637">
        <ele>820.983</ele>
        <time>2021-02-13T11:04:43Z</time>
      </trkpt>
      <trkpt lat="41.708391" lon="2.316713">
        <ele>820.625</ele>
        <time>2021-02-13T11:04:45Z</time>
      </trkpt>
      <trkpt lat="41.708356" lon="2.316772">
        <ele>820.217</ele>
        <time>2021-02-13T11:04:48Z</time>
      </trkpt>
      <trkpt lat="41.708281" lon="2.316896">
        <ele>818.608</ele>
        <time>2021-02-13T11:04:53Z</time>
      </trkpt>
      <trkpt lat="41.708268" lon="2.316959">
        <ele>818.314</ele>
        <time>2021-02-13T11:04:56Z</time>
      </trkpt>
      <trkpt lat="41.708256" lon="2.317026">
        <ele>817.633</ele>
        <time>2021-02-13T11:04:58Z</time>
      </trkpt>
      <trkpt lat="41.708229" lon="2.317101">
        <ele>816.744</ele>
        <time>2021-02-13T11:05:01Z</time>
      </trkpt>
      <trkpt lat="41.708177" lon="2.317268">
        <ele>814.833</ele>
        <time>2021-02-13T11:05:07Z</time>
      </trkpt>
      <trkpt lat="41.708106" lon="2.317381">
        <ele>813.336</ele>
        <time>2021-02-13T11:05:12Z</time>
      </trkpt>
      <trkpt lat="41.707948" lon="2.317469">
        <ele>810.378</ele>
        <time>2021-02-13T11:05:20Z</time>
      </trkpt>
      <trkpt lat="41.707891" lon="2.317729">
        <ele>808.398</ele>
        <time>2021-02-13T11:05:29Z</time>
      </trkpt>
      <trkpt lat="41.707986" lon="2.318524">
        <ele>801.444</ele>
        <time>2021-02-13T11:05:47Z</time>
      </trkpt>
      <trkpt lat="41.707387" lon="2.319194">
        <ele>789.589</ele>
        <time>2021-02-13T11:06:17Z</time>
      </trkpt>
      <trkpt lat="41.707244" lon="2.319298">
        <ele>785.906</ele>
        <time>2021-02-13T11:06:23Z</time>
      </trkpt>
      <trkpt lat="41.707163" lon="2.319680">
        <ele>779.226</ele>
        <time>2021-02-13T11:06:32Z</time>
      </trkpt>
      <trkpt lat="41.707129" lon="2.319779">
        <ele>777.708</ele>
        <time>2021-02-13T11:06:37Z</time>
      </trkpt>
      <trkpt lat="41.707138" lon="2.319919">
        <ele>776.294</ele>
        <time>2021-02-13T11:06:42Z</time>
      </trkpt>
      <trkpt lat="41.706956" lon="2.319991">
        <ele>776.013</ele>
        <time>2021-02-13T11:06:50Z</time>
      </trkpt>
      <trkpt lat="41.707211" lon="2.320146">
        <ele>772.064</ele>
        <time>2021-02-13T11:06:59Z</time>
      </trkpt>
      <trkpt lat="41.706944" lon="2.320362">
        <ele>773.433</ele>
        <time>2021-02-13T11:07:08Z</time>
      </trkpt>
      <trkpt lat="41.706563" lon="2.321286">
        <ele>768.566</ele>
        <time>2021-02-13T11:07:16Z</time>
      </trkpt>
      <trkpt lat="41.706540" lon="2.321358">
        <ele>767.868</ele>
        <time>2021-02-13T11:07:18Z</time>
      </trkpt>
      <trkpt lat="41.706474" lon="2.321444">
        <ele>766.988</ele>
        <time>2021-02-13T11:07:27Z</time>
      </trkpt>
      <trkpt lat="41.706437" lon="2.321538">
        <ele>766.794</ele>
        <time>2021-02-13T11:07:32Z</time>
      </trkpt>
      <trkpt lat="41.706424" lon="2.321646">
        <ele>766.813</ele>
        <time>2021-02-13T11:07:37Z</time>
      </trkpt>
      <trkpt lat="41.706415" lon="2.321714">
        <ele>766.543</ele>
        <time>2021-02-13T11:07:42Z</time>
      </trkpt>
      <trkpt lat="41.706354" lon="2.321832">
        <ele>765.307</ele>
        <time>2021-02-13T11:07:47Z</time>
      </trkpt>
      <trkpt lat="41.706310" lon="2.321925">
        <ele>764.008</ele>
        <time>2021-02-13T11:07:52Z</time>
      </trkpt>
      <trkpt lat="41.706207" lon="2.322313">
        <ele>760.027</ele>
        <time>2021-02-13T11:07:57Z</time>
      </trkpt>
      <trkpt lat="41.706150" lon="2.322464">
        <ele>758.966</ele>
        <time>2021-02-13T11:07:59Z</time>
      </trkpt>
      <trkpt lat="41.706117" lon="2.322558">
        <ele>758.587</ele>
        <time>2021-02-13T11:08:02Z</time>
      </trkpt>
      <trkpt lat="41.706043" lon="2.322768">
        <ele>756.566</ele>
        <time>2021-02-13T11:08:07Z</time>
      </trkpt>
      <trkpt lat="41.706023" lon="2.322914">
        <ele>756.049</ele>
        <time>2021-02-13T11:08:12Z</time>
      </trkpt>
      <trkpt lat="41.706000" lon="2.322991">
        <ele>755.951</ele>
        <time>2021-02-13T11:08:14Z</time>
      </trkpt>
      <trkpt lat="41.705969" lon="2.323037">
        <ele>756.051</ele>
        <time>2021-02-13T11:08:17Z</time>
      </trkpt>
      <trkpt lat="41.705946" lon="2.323102">
        <ele>756.087</ele>
        <time>2021-02-13T11:08:19Z</time>
      </trkpt>
      <trkpt lat="41.705917" lon="2.323246">
        <ele>755.826</ele>
        <time>2021-02-13T11:08:25Z</time>
      </trkpt>
      <trkpt lat="41.705897" lon="2.323307">
        <ele>755.947</ele>
        <time>2021-02-13T11:08:27Z</time>
      </trkpt>
      <trkpt lat="41.705882" lon="2.323395">
        <ele>755.911</ele>
        <time>2021-02-13T11:08:32Z</time>
      </trkpt>
      <trkpt lat="41.705847" lon="2.323478">
        <ele>756.608</ele>
        <time>2021-02-13T11:08:37Z</time>
      </trkpt>
      <trkpt lat="41.705744" lon="2.323576">
        <ele>756.978</ele>
        <time>2021-02-13T11:08:39Z</time>
      </trkpt>
      <trkpt lat="41.705511" lon="2.323743">
        <ele>756.397</ele>
        <time>2021-02-13T11:08:49Z</time>
      </trkpt>
      <trkpt lat="41.705430" lon="2.323939">
        <ele>755.788</ele>
        <time>2021-02-13T11:08:55Z</time>
      </trkpt>
      <trkpt lat="41.705329" lon="2.323985">
        <ele>755.187</ele>
        <time>2021-02-13T11:08:59Z</time>
      </trkpt>
      <trkpt lat="41.705194" lon="2.324227">
        <ele>753.560</ele>
        <time>2021-02-13T11:09:05Z</time>
      </trkpt>
      <trkpt lat="41.705115" lon="2.324370">
        <ele>752.022</ele>
        <time>2021-02-13T11:09:10Z</time>
      </trkpt>
      <trkpt lat="41.705080" lon="2.324583">
        <ele>751.332</ele>
        <time>2021-02-13T11:09:14Z</time>
      </trkpt>
      <trkpt lat="41.705009" lon="2.324681">
        <ele>751.098</ele>
        <time>2021-02-13T11:09:19Z</time>
      </trkpt>
      <trkpt lat="41.704904" lon="2.324775">
        <ele>750.023</ele>
        <time>2021-02-13T11:09:24Z</time>
      </trkpt>
      <trkpt lat="41.704762" lon="2.324927">
        <ele>749.683</ele>
        <time>2021-02-13T11:09:29Z</time>
      </trkpt>
      <trkpt lat="41.704686" lon="2.325006">
        <ele>749.311</ele>
        <time>2021-02-13T11:09:34Z</time>
      </trkpt>
      <trkpt lat="41.704581" lon="2.325105">
        <ele>747.308</ele>
        <time>2021-02-13T11:09:39Z</time>
      </trkpt>
      <trkpt lat="41.704477" lon="2.325171">
        <ele>746.588</ele>
        <time>2021-02-13T11:09:44Z</time>
      </trkpt>
      <trkpt lat="41.704341" lon="2.325280">
        <ele>744.867</ele>
        <time>2021-02-13T11:09:49Z</time>
      </trkpt>
      <trkpt lat="41.704195" lon="2.325506">
        <ele>742.928</ele>
        <time>2021-02-13T11:09:51Z</time>
      </trkpt>
      <trkpt lat="41.704138" lon="2.325629">
        <ele>742.017</ele>
        <time>2021-02-13T11:09:54Z</time>
      </trkpt>
      <trkpt lat="41.704068" lon="2.325736">
        <ele>740.070</ele>
        <time>2021-02-13T11:09:57Z</time>
      </trkpt>
      <trkpt lat="41.704020" lon="2.325847">
        <ele>738.712</ele>
        <time>2021-02-13T11:09:59Z</time>
      </trkpt>
      <trkpt lat="41.703972" lon="2.325985">
        <ele>737.012</ele>
        <time>2021-02-13T11:10:02Z</time>
      </trkpt>
      <trkpt lat="41.703965" lon="2.326110">
        <ele>736.358</ele>
        <time>2021-02-13T11:10:04Z</time>
      </trkpt>
      <trkpt lat="41.703944" lon="2.326268">
        <ele>735.075</ele>
        <time>2021-02-13T11:10:07Z</time>
      </trkpt>
      <trkpt lat="41.703911" lon="2.326415">
        <ele>733.928</ele>
        <time>2021-02-13T11:10:10Z</time>
      </trkpt>
      <trkpt lat="41.703916" lon="2.326528">
        <ele>733.520</ele>
        <time>2021-02-13T11:10:12Z</time>
      </trkpt>
      <trkpt lat="41.703904" lon="2.326622">
        <ele>733.108</ele>
        <time>2021-02-13T11:10:15Z</time>
      </trkpt>
      <trkpt lat="41.703829" lon="2.326650">
        <ele>732.823</ele>
        <time>2021-02-13T11:10:17Z</time>
      </trkpt>
      <trkpt lat="41.703746" lon="2.326675">
        <ele>732.592</ele>
        <time>2021-02-13T11:10:20Z</time>
      </trkpt>
      <trkpt lat="41.703667" lon="2.326611">
        <ele>732.123</ele>
        <time>2021-02-13T11:10:23Z</time>
      </trkpt>
      <trkpt lat="41.703612" lon="2.326537">
        <ele>731.532</ele>
        <time>2021-02-13T11:10:25Z</time>
      </trkpt>
      <trkpt lat="41.703542" lon="2.326456">
        <ele>729.725</ele>
        <time>2021-02-13T11:10:28Z</time>
      </trkpt>
      <trkpt lat="41.703526" lon="2.326387">
        <ele>729.277</ele>
        <time>2021-02-13T11:10:30Z</time>
      </trkpt>
      <trkpt lat="41.703463" lon="2.326344">
        <ele>727.737</ele>
        <time>2021-02-13T11:10:32Z</time>
      </trkpt>
      <trkpt lat="41.703269" lon="2.326055">
        <ele>721.823</ele>
        <time>2021-02-13T11:10:39Z</time>
      </trkpt>
      <trkpt lat="41.703231" lon="2.326108">
        <ele>720.727</ele>
        <time>2021-02-13T11:10:45Z</time>
      </trkpt>
      <trkpt lat="41.703189" lon="2.326050">
        <ele>719.368</ele>
        <time>2021-02-13T11:10:47Z</time>
      </trkpt>
      <trkpt lat="41.703143" lon="2.325993">
        <ele>718.014</ele>
        <time>2021-02-13T11:10:49Z</time>
      </trkpt>
      <trkpt lat="41.703092" lon="2.325903">
        <ele>716.708</ele>
        <time>2021-02-13T11:10:52Z</time>
      </trkpt>
      <trkpt lat="41.703047" lon="2.325791">
        <ele>715.928</ele>
        <time>2021-02-13T11:10:53Z</time>
      </trkpt>
      <trkpt lat="41.702989" lon="2.325663">
        <ele>714.527</ele>
        <time>2021-02-13T11:10:55Z</time>
      </trkpt>
      <trkpt lat="41.702922" lon="2.325549">
        <ele>712.768</ele>
        <time>2021-02-13T11:10:57Z</time>
      </trkpt>
      <trkpt lat="41.702889" lon="2.325475">
        <ele>711.317</ele>
        <time>2021-02-13T11:10:59Z</time>
      </trkpt>
      <trkpt lat="41.702856" lon="2.325400">
        <ele>709.930</ele>
        <time>2021-02-13T11:11:00Z</time>
      </trkpt>
      <trkpt lat="41.702821" lon="2.325440">
        <ele>708.612</ele>
        <time>2021-02-13T11:11:03Z</time>
      </trkpt>
      <trkpt lat="41.702736" lon="2.325460">
        <ele>705.642</ele>
        <time>2021-02-13T11:11:08Z</time>
      </trkpt>
      <trkpt lat="41.702730" lon="2.325384">
        <ele>705.538</ele>
        <time>2021-02-13T11:11:11Z</time>
      </trkpt>
      <trkpt lat="41.702674" lon="2.325459">
        <ele>703.687</ele>
        <time>2021-02-13T11:11:18Z</time>
      </trkpt>
      <trkpt lat="41.702578" lon="2.325471">
        <ele>700.542</ele>
        <time>2021-02-13T11:11:23Z</time>
      </trkpt>
      <trkpt lat="41.702283" lon="2.325447">
        <ele>692.726</ele>
        <time>2021-02-13T11:11:29Z</time>
      </trkpt>
      <trkpt lat="41.702213" lon="2.325393">
        <ele>690.708</ele>
        <time>2021-02-13T11:11:31Z</time>
      </trkpt>
      <trkpt lat="41.702110" lon="2.325351">
        <ele>689.544</ele>
        <time>2021-02-13T11:11:36Z</time>
      </trkpt>
      <trkpt lat="41.702056" lon="2.325350">
        <ele>689.023</ele>
        <time>2021-02-13T11:11:38Z</time>
      </trkpt>
      <trkpt lat="41.701990" lon="2.325402">
        <ele>688.594</ele>
        <time>2021-02-13T11:11:43Z</time>
      </trkpt>
      <trkpt lat="41.701869" lon="2.325418">
        <ele>686.543</ele>
        <time>2021-02-13T11:11:47Z</time>
      </trkpt>
      <trkpt lat="41.701851" lon="2.325361">
        <ele>686.156</ele>
        <time>2021-02-13T11:13:01Z</time>
      </trkpt>
      <trkpt lat="41.701792" lon="2.325315">
        <ele>684.898</ele>
        <time>2021-02-13T11:13:05Z</time>
      </trkpt>
      <trkpt lat="41.701736" lon="2.325303">
        <ele>683.678</ele>
        <time>2021-02-13T11:13:07Z</time>
      </trkpt>
      <trkpt lat="41.701678" lon="2.325298">
        <ele>682.384</ele>
        <time>2021-02-13T11:13:10Z</time>
      </trkpt>
      <trkpt lat="41.701605" lon="2.325300">
        <ele>680.383</ele>
        <time>2021-02-13T11:13:13Z</time>
      </trkpt>
      <trkpt lat="41.701554" lon="2.325330">
        <ele>678.925</ele>
        <time>2021-02-13T11:13:16Z</time>
      </trkpt>
      <trkpt lat="41.701492" lon="2.325394">
        <ele>677.117</ele>
        <time>2021-02-13T11:13:22Z</time>
      </trkpt>
      <trkpt lat="41.701425" lon="2.325412">
        <ele>675.108</ele>
        <time>2021-02-13T11:13:26Z</time>
      </trkpt>
      <trkpt lat="41.701353" lon="2.325430">
        <ele>672.654</ele>
        <time>2021-02-13T11:13:30Z</time>
      </trkpt>
      <trkpt lat="41.701305" lon="2.325493">
        <ele>670.323</ele>
        <time>2021-02-13T11:13:32Z</time>
      </trkpt>
      <trkpt lat="41.701265" lon="2.325569">
        <ele>667.954</ele>
        <time>2021-02-13T11:13:35Z</time>
      </trkpt>
      <trkpt lat="41.701201" lon="2.325592">
        <ele>664.483</ele>
        <time>2021-02-13T11:13:38Z</time>
      </trkpt>
      <trkpt lat="41.701144" lon="2.325548">
        <ele>662.686</ele>
        <time>2021-02-13T11:13:40Z</time>
      </trkpt>
      <trkpt lat="41.701106" lon="2.325471">
        <ele>662.038</ele>
        <time>2021-02-13T11:13:42Z</time>
      </trkpt>
      <trkpt lat="41.701060" lon="2.325385">
        <ele>661.548</ele>
        <time>2021-02-13T11:13:45Z</time>
      </trkpt>
      <trkpt lat="41.701001" lon="2.325313">
        <ele>660.584</ele>
        <time>2021-02-13T11:13:48Z</time>
      </trkpt>
      <trkpt lat="41.700964" lon="2.325238">
        <ele>659.625</ele>
        <time>2021-02-13T11:13:51Z</time>
      </trkpt>
      <trkpt lat="41.700935" lon="2.325163">
        <ele>658.426</ele>
        <time>2021-02-13T11:13:54Z</time>
      </trkpt>
      <trkpt lat="41.700885" lon="2.325142">
        <ele>656.708</ele>
        <time>2021-02-13T11:13:57Z</time>
      </trkpt>
      <trkpt lat="41.700827" lon="2.325110">
        <ele>654.908</ele>
        <time>2021-02-13T11:14:01Z</time>
      </trkpt>
      <trkpt lat="41.700728" lon="2.325162">
        <ele>652.768</ele>
        <time>2021-02-13T11:14:04Z</time>
      </trkpt>
      <trkpt lat="41.700674" lon="2.325122">
        <ele>651.667</ele>
        <time>2021-02-13T11:14:07Z</time>
      </trkpt>
      <trkpt lat="41.700622" lon="2.325103">
        <ele>650.668</ele>
        <time>2021-02-13T11:14:10Z</time>
      </trkpt>
      <trkpt lat="41.700585" lon="2.325055">
        <ele>650.217</ele>
        <time>2021-02-13T11:14:13Z</time>
      </trkpt>
      <trkpt lat="41.700560" lon="2.324999">
        <ele>650.170</ele>
        <time>2021-02-13T11:14:16Z</time>
      </trkpt>
      <trkpt lat="41.700500" lon="2.324967">
        <ele>648.542</ele>
        <time>2021-02-13T11:14:19Z</time>
      </trkpt>
      <trkpt lat="41.700474" lon="2.325110">
        <ele>647.532</ele>
        <time>2021-02-13T11:14:25Z</time>
      </trkpt>
      <trkpt lat="41.700390" lon="2.325177">
        <ele>645.078</ele>
        <time>2021-02-13T11:14:28Z</time>
      </trkpt>
      <trkpt lat="41.700279" lon="2.325157">
        <ele>642.863</ele>
        <time>2021-02-13T11:14:31Z</time>
      </trkpt>
      <trkpt lat="41.700193" lon="2.325136">
        <ele>640.444</ele>
        <time>2021-02-13T11:14:32Z</time>
      </trkpt>
      <trkpt lat="41.700140" lon="2.325137">
        <ele>638.818</ele>
        <time>2021-02-13T11:14:34Z</time>
      </trkpt>
      <trkpt lat="41.700069" lon="2.325157">
        <ele>636.408</ele>
        <time>2021-02-13T11:14:37Z</time>
      </trkpt>
      <trkpt lat="41.700000" lon="2.325096">
        <ele>635.042</ele>
        <time>2021-02-13T11:14:40Z</time>
      </trkpt>
      <trkpt lat="41.699947" lon="2.325096">
        <ele>633.861</ele>
        <time>2021-02-13T11:14:42Z</time>
      </trkpt>
      <trkpt lat="41.699867" lon="2.325101">
        <ele>632.082</ele>
        <time>2021-02-13T11:14:43Z</time>
      </trkpt>
      <trkpt lat="41.699770" lon="2.325088">
        <ele>630.171</ele>
        <time>2021-02-13T11:14:46Z</time>
      </trkpt>
      <trkpt lat="41.699719" lon="2.325069">
        <ele>629.234</ele>
        <time>2021-02-13T11:14:47Z</time>
      </trkpt>
      <trkpt lat="41.699684" lon="2.325031">
        <ele>628.836</ele>
        <time>2021-02-13T11:14:52Z</time>
      </trkpt>
      <trkpt lat="41.699589" lon="2.324995">
        <ele>627.156</ele>
        <time>2021-02-13T11:14:54Z</time>
      </trkpt>
      <trkpt lat="41.699521" lon="2.325006">
        <ele>625.612</ele>
        <time>2021-02-13T11:14:56Z</time>
      </trkpt>
      <trkpt lat="41.699388" lon="2.324983">
        <ele>623.195</ele>
        <time>2021-02-13T11:14:58Z</time>
      </trkpt>
      <trkpt lat="41.698930" lon="2.324693">
        <ele>620.049</ele>
        <time>2021-02-13T11:15:04Z</time>
      </trkpt>
      <trkpt lat="41.698825" lon="2.324652">
        <ele>619.923</ele>
        <time>2021-02-13T11:15:07Z</time>
      </trkpt>
      <trkpt lat="41.698726" lon="2.324591">
        <ele>619.608</ele>
        <time>2021-02-13T11:15:10Z</time>
      </trkpt>
      <trkpt lat="41.698666" lon="2.324542">
        <ele>619.165</ele>
        <time>2021-02-13T11:15:13Z</time>
      </trkpt>
      <trkpt lat="41.698608" lon="2.324509">
        <ele>618.744</ele>
        <time>2021-02-13T11:15:19Z</time>
      </trkpt>
      <trkpt lat="41.698550" lon="2.324485">
        <ele>619.195</ele>
        <time>2021-02-13T11:15:34Z</time>
      </trkpt>
      <trkpt lat="41.698502" lon="2.324458">
        <ele>619.354</ele>
        <time>2021-02-13T11:15:38Z</time>
      </trkpt>
      <trkpt lat="41.698442" lon="2.324426">
        <ele>619.337</ele>
        <time>2021-02-13T11:15:42Z</time>
      </trkpt>
      <trkpt lat="41.698401" lon="2.324400">
        <ele>619.099</ele>
        <time>2021-02-13T11:15:52Z</time>
      </trkpt>
      <trkpt lat="41.698353" lon="2.324403">
        <ele>619.649</ele>
        <time>2021-02-13T11:16:01Z</time>
      </trkpt>
      <trkpt lat="41.698302" lon="2.324395">
        <ele>619.725</ele>
        <time>2021-02-13T11:16:06Z</time>
      </trkpt>
      <trkpt lat="41.698258" lon="2.324418">
        <ele>620.638</ele>
        <time>2021-02-13T11:16:11Z</time>
      </trkpt>
      <trkpt lat="41.698228" lon="2.324463">
        <ele>622.070</ele>
        <time>2021-02-13T11:16:21Z</time>
      </trkpt>
      <trkpt lat="41.698186" lon="2.324502">
        <ele>623.017</ele>
        <time>2021-02-13T11:16:30Z</time>
      </trkpt>
      <trkpt lat="41.698173" lon="2.324561">
        <ele>624.108</ele>
        <time>2021-02-13T11:16:36Z</time>
      </trkpt>
      <trkpt lat="41.698166" lon="2.324621">
        <ele>625.349</ele>
        <time>2021-02-13T11:16:40Z</time>
      </trkpt>
      <trkpt lat="41.698133" lon="2.324698">
        <ele>627.288</ele>
        <time>2021-02-13T11:16:48Z</time>
      </trkpt>
      <trkpt lat="41.698099" lon="2.324751">
        <ele>628.119</ele>
        <time>2021-02-13T11:16:56Z</time>
      </trkpt>
      <trkpt lat="41.698042" lon="2.324766">
        <ele>628.958</ele>
        <time>2021-02-13T11:17:05Z</time>
      </trkpt>
      <trkpt lat="41.697992" lon="2.324820">
        <ele>629.231</ele>
        <time>2021-02-13T11:17:15Z</time>
      </trkpt>
      <trkpt lat="41.697959" lon="2.324878">
        <ele>629.653</ele>
        <time>2021-02-13T11:17:20Z</time>
      </trkpt>
      <trkpt lat="41.697912" lon="2.324924">
        <ele>630.373</ele>
        <time>2021-02-13T11:17:32Z</time>
      </trkpt>
      <trkpt lat="41.697814" lon="2.325003">
        <ele>632.349</ele>
        <time>2021-02-13T11:17:36Z</time>
      </trkpt>
      <trkpt lat="41.697761" lon="2.325012">
        <ele>632.679</ele>
        <time>2021-02-13T11:17:38Z</time>
      </trkpt>
      <trkpt lat="41.697666" lon="2.325001">
        <ele>632.605</ele>
        <time>2021-02-13T11:17:39Z</time>
      </trkpt>
      <trkpt lat="41.697545" lon="2.325019">
        <ele>631.725</ele>
        <time>2021-02-13T11:17:42Z</time>
      </trkpt>
      <trkpt lat="41.697499" lon="2.325021">
        <ele>631.508</ele>
        <time>2021-02-13T11:17:47Z</time>
      </trkpt>
      <trkpt lat="41.697433" lon="2.324907">
        <ele>629.783</ele>
        <time>2021-02-13T11:17:51Z</time>
      </trkpt>
      <trkpt lat="41.697381" lon="2.324896">
        <ele>628.632</ele>
        <time>2021-02-13T11:17:54Z</time>
      </trkpt>
      <trkpt lat="41.697328" lon="2.324957">
        <ele>628.043</ele>
        <time>2021-02-13T11:17:56Z</time>
      </trkpt>
      <trkpt lat="41.697308" lon="2.325019">
        <ele>627.542</ele>
        <time>2021-02-13T11:17:57Z</time>
      </trkpt>
      <trkpt lat="41.697270" lon="2.325094">
        <ele>625.275</ele>
        <time>2021-02-13T11:18:00Z</time>
      </trkpt>
      <trkpt lat="41.697181" lon="2.325076">
        <ele>624.017</ele>
        <time>2021-02-13T11:18:02Z</time>
      </trkpt>
      <trkpt lat="41.697124" lon="2.325087">
        <ele>623.017</ele>
        <time>2021-02-13T11:18:04Z</time>
      </trkpt>
      <trkpt lat="41.697079" lon="2.325155">
        <ele>621.193</ele>
        <time>2021-02-13T11:18:06Z</time>
      </trkpt>
      <trkpt lat="41.697039" lon="2.325200">
        <ele>619.868</ele>
        <time>2021-02-13T11:18:09Z</time>
      </trkpt>
      <trkpt lat="41.696968" lon="2.325223">
        <ele>618.342</ele>
        <time>2021-02-13T11:18:14Z</time>
      </trkpt>
      <trkpt lat="41.696889" lon="2.325233">
        <ele>616.326</ele>
        <time>2021-02-13T11:18:17Z</time>
      </trkpt>
      <trkpt lat="41.696840" lon="2.325272">
        <ele>614.508</ele>
        <time>2021-02-13T11:18:21Z</time>
      </trkpt>
      <trkpt lat="41.696780" lon="2.325293">
        <ele>612.452</ele>
        <time>2021-02-13T11:18:23Z</time>
      </trkpt>
      <trkpt lat="41.696713" lon="2.325310">
        <ele>610.211</ele>
        <time>2021-02-13T11:18:27Z</time>
      </trkpt>
      <trkpt lat="41.696641" lon="2.325339">
        <ele>607.582</ele>
        <time>2021-02-13T11:18:30Z</time>
      </trkpt>
      <trkpt lat="41.696578" lon="2.325346">
        <ele>605.641</ele>
        <time>2021-02-13T11:18:33Z</time>
      </trkpt>
      <trkpt lat="41.696537" lon="2.325384">
        <ele>603.694</ele>
        <time>2021-02-13T11:18:35Z</time>
      </trkpt>
      <trkpt lat="41.696482" lon="2.325424">
        <ele>601.286</ele>
        <time>2021-02-13T11:18:38Z</time>
      </trkpt>
      <trkpt lat="41.696406" lon="2.325488">
        <ele>597.986</ele>
        <time>2021-02-13T11:18:41Z</time>
      </trkpt>
      <trkpt lat="41.696352" lon="2.325494">
        <ele>596.212</ele>
        <time>2021-02-13T11:18:43Z</time>
      </trkpt>
      <trkpt lat="41.696271" lon="2.325489">
        <ele>593.927</ele>
        <time>2021-02-13T11:18:45Z</time>
      </trkpt>
      <trkpt lat="41.696220" lon="2.325511">
        <ele>592.068</ele>
        <time>2021-02-13T11:18:47Z</time>
      </trkpt>
      <trkpt lat="41.696165" lon="2.325526">
        <ele>590.114</ele>
        <time>2021-02-13T11:18:49Z</time>
      </trkpt>
      <trkpt lat="41.696090" lon="2.325535">
        <ele>587.708</ele>
        <time>2021-02-13T11:18:53Z</time>
      </trkpt>
      <trkpt lat="41.696031" lon="2.325515">
        <ele>586.278</ele>
        <time>2021-02-13T11:18:57Z</time>
      </trkpt>
      <trkpt lat="41.695975" lon="2.325488">
        <ele>584.917</ele>
        <time>2021-02-13T11:19:01Z</time>
      </trkpt>
      <trkpt lat="41.695917" lon="2.325460">
        <ele>583.728</ele>
        <time>2021-02-13T11:19:03Z</time>
      </trkpt>
      <trkpt lat="41.695827" lon="2.325453">
        <ele>581.037</ele>
        <time>2021-02-13T11:19:06Z</time>
      </trkpt>
      <trkpt lat="41.695780" lon="2.325454">
        <ele>579.380</ele>
        <time>2021-02-13T11:19:07Z</time>
      </trkpt>
      <trkpt lat="41.695724" lon="2.325446">
        <ele>577.592</ele>
        <time>2021-02-13T11:19:09Z</time>
      </trkpt>
      <trkpt lat="41.695644" lon="2.325427">
        <ele>575.052</ele>
        <time>2021-02-13T11:19:13Z</time>
      </trkpt>
      <trkpt lat="41.695581" lon="2.325464">
        <ele>572.218</ele>
        <time>2021-02-13T11:19:17Z</time>
      </trkpt>
      <trkpt lat="41.695632" lon="2.325543">
        <ele>572.792</ele>
        <time>2021-02-13T11:19:21Z</time>
      </trkpt>
      <trkpt lat="41.695557" lon="2.325571">
        <ele>569.773</ele>
        <time>2021-02-13T11:19:25Z</time>
      </trkpt>
      <trkpt lat="41.695497" lon="2.325537">
        <ele>569.020</ele>
        <time>2021-02-13T11:19:27Z</time>
      </trkpt>
      <trkpt lat="41.695357" lon="2.325396">
        <ele>566.808</ele>
        <time>2021-02-13T11:19:29Z</time>
      </trkpt>
      <trkpt lat="41.695328" lon="2.325321">
        <ele>566.495</ele>
        <time>2021-02-13T11:19:31Z</time>
      </trkpt>
      <trkpt lat="41.695286" lon="2.325348">
        <ele>565.084</ele>
        <time>2021-02-13T11:19:51Z</time>
      </trkpt>
      <trkpt lat="41.695195" lon="2.325302">
        <ele>561.035</ele>
        <time>2021-02-13T11:19:55Z</time>
      </trkpt>
      <trkpt lat="41.695184" lon="2.325230">
        <ele>560.324</ele>
        <time>2021-02-13T11:20:01Z</time>
      </trkpt>
      <trkpt lat="41.695194" lon="2.325116">
        <ele>560.197</ele>
        <time>2021-02-13T11:20:05Z</time>
      </trkpt>
      <trkpt lat="41.695200" lon="2.325043">
        <ele>559.999</ele>
        <time>2021-02-13T11:20:07Z</time>
      </trkpt>
      <trkpt lat="41.695219" lon="2.324961">
        <ele>559.579</ele>
        <time>2021-02-13T11:20:09Z</time>
      </trkpt>
      <trkpt lat="41.695229" lon="2.324880">
        <ele>557.975</ele>
        <time>2021-02-13T11:20:11Z</time>
      </trkpt>
      <trkpt lat="41.695249" lon="2.324808">
        <ele>556.966</ele>
        <time>2021-02-13T11:20:13Z</time>
      </trkpt>
      <trkpt lat="41.695290" lon="2.324836">
        <ele>559.429</ele>
        <time>2021-02-13T11:22:53Z</time>
      </trkpt>
      <trkpt lat="41.695287" lon="2.324743">
        <ele>557.021</ele>
        <time>2021-02-13T11:23:07Z</time>
      </trkpt>
      <trkpt lat="41.695349" lon="2.324574">
        <ele>554.808</ele>
        <time>2021-02-13T11:23:09Z</time>
      </trkpt>
      <trkpt lat="41.695391" lon="2.324540">
        <ele>556.262</ele>
        <time>2021-02-13T11:23:11Z</time>
      </trkpt>
      <trkpt lat="41.695404" lon="2.324478">
        <ele>555.271</ele>
        <time>2021-02-13T11:23:21Z</time>
      </trkpt>
      <trkpt lat="41.695414" lon="2.324406">
        <ele>553.912</ele>
        <time>2021-02-13T11:23:23Z</time>
      </trkpt>
      <trkpt lat="41.695416" lon="2.324342">
        <ele>552.611</ele>
        <time>2021-02-13T11:23:26Z</time>
      </trkpt>
      <trkpt lat="41.695432" lon="2.324282">
        <ele>552.164</ele>
        <time>2021-02-13T11:23:28Z</time>
      </trkpt>
      <trkpt lat="41.695430" lon="2.324139">
        <ele>548.786</ele>
        <time>2021-02-13T11:23:31Z</time>
      </trkpt>
      <trkpt lat="41.695414" lon="2.324077">
        <ele>546.726</ele>
        <time>2021-02-13T11:23:35Z</time>
      </trkpt>
      <trkpt lat="41.695411" lon="2.323998">
        <ele>545.272</ele>
        <time>2021-02-13T11:23:38Z</time>
      </trkpt>
      <trkpt lat="41.695410" lon="2.323901">
        <ele>543.441</ele>
        <time>2021-02-13T11:23:40Z</time>
      </trkpt>
      <trkpt lat="41.695418" lon="2.323806">
        <ele>541.981</ele>
        <time>2021-02-13T11:23:43Z</time>
      </trkpt>
      <trkpt lat="41.695458" lon="2.323753">
        <ele>543.009</ele>
        <time>2021-02-13T11:23:45Z</time>
      </trkpt>
      <trkpt lat="41.695460" lon="2.323693">
        <ele>541.908</ele>
        <time>2021-02-13T11:23:48Z</time>
      </trkpt>
      <trkpt lat="41.695431" lon="2.323618">
        <ele>538.930</ele>
        <time>2021-02-13T11:23:50Z</time>
      </trkpt>
      <trkpt lat="41.695433" lon="2.323548">
        <ele>537.219</ele>
        <time>2021-02-13T11:23:53Z</time>
      </trkpt>
      <trkpt lat="41.695446" lon="2.323465">
        <ele>535.820</ele>
        <time>2021-02-13T11:23:57Z</time>
      </trkpt>
      <trkpt lat="41.695384" lon="2.323488">
        <ele>533.349</ele>
        <time>2021-02-13T11:24:04Z</time>
      </trkpt>
      <trkpt lat="41.695337" lon="2.323497">
        <ele>531.172</ele>
        <time>2021-02-13T11:24:06Z</time>
      </trkpt>
      <trkpt lat="41.695267" lon="2.323529">
        <ele>528.424</ele>
        <time>2021-02-13T11:24:13Z</time>
      </trkpt>
      <trkpt lat="41.695228" lon="2.323582">
        <ele>527.874</ele>
        <time>2021-02-13T11:24:14Z</time>
      </trkpt>
      <trkpt lat="41.695180" lon="2.323641">
        <ele>526.760</ele>
        <time>2021-02-13T11:24:16Z</time>
      </trkpt>
      <trkpt lat="41.695137" lon="2.323696">
        <ele>525.746</ele>
        <time>2021-02-13T11:24:18Z</time>
      </trkpt>
      <trkpt lat="41.695092" lon="2.323763">
        <ele>525.188</ele>
        <time>2021-02-13T11:24:21Z</time>
      </trkpt>
      <trkpt lat="41.695035" lon="2.323807">
        <ele>523.516</ele>
        <time>2021-02-13T11:24:23Z</time>
      </trkpt>
      <trkpt lat="41.694965" lon="2.323883">
        <ele>522.108</ele>
        <time>2021-02-13T11:24:24Z</time>
      </trkpt>
      <trkpt lat="41.694920" lon="2.323906">
        <ele>520.350</ele>
        <time>2021-02-13T11:24:25Z</time>
      </trkpt>
      <trkpt lat="41.694860" lon="2.323934">
        <ele>517.999</ele>
        <time>2021-02-13T11:24:27Z</time>
      </trkpt>
      <trkpt lat="41.694783" lon="2.323994">
        <ele>515.530</ele>
        <time>2021-02-13T11:24:29Z</time>
      </trkpt>
      <trkpt lat="41.694727" lon="2.324041">
        <ele>514.189</ele>
        <time>2021-02-13T11:24:31Z</time>
      </trkpt>
      <trkpt lat="41.694671" lon="2.324073">
        <ele>512.442</ele>
        <time>2021-02-13T11:24:35Z</time>
      </trkpt>
      <trkpt lat="41.694578" lon="2.324151">
        <ele>510.384</ele>
        <time>2021-02-13T11:24:39Z</time>
      </trkpt>
      <trkpt lat="41.694533" lon="2.324159">
        <ele>508.634</ele>
        <time>2021-02-13T11:24:41Z</time>
      </trkpt>
      <trkpt lat="41.694486" lon="2.324137">
        <ele>506.020</ele>
        <time>2021-02-13T11:24:44Z</time>
      </trkpt>
      <trkpt lat="41.694474" lon="2.324078">
        <ele>503.869</ele>
        <time>2021-02-13T11:24:49Z</time>
      </trkpt>
      <trkpt lat="41.694432" lon="2.324048">
        <ele>501.004</ele>
        <time>2021-02-13T11:24:55Z</time>
      </trkpt>
      <trkpt lat="41.694363" lon="2.324098">
        <ele>499.124</ele>
        <time>2021-02-13T11:24:58Z</time>
      </trkpt>
      <trkpt lat="41.694297" lon="2.324133">
        <ele>496.808</ele>
        <time>2021-02-13T11:25:00Z</time>
      </trkpt>
      <trkpt lat="41.694196" lon="2.324212">
        <ele>493.682</ele>
        <time>2021-02-13T11:25:02Z</time>
      </trkpt>
      <trkpt lat="41.694135" lon="2.324258">
        <ele>491.991</ele>
        <time>2021-02-13T11:25:03Z</time>
      </trkpt>
      <trkpt lat="41.694095" lon="2.324311">
        <ele>491.352</ele>
        <time>2021-02-13T11:25:07Z</time>
      </trkpt>
      <trkpt lat="41.694053" lon="2.324355">
        <ele>490.371</ele>
        <time>2021-02-13T11:25:11Z</time>
      </trkpt>
      <trkpt lat="41.694006" lon="2.324346">
        <ele>487.874</ele>
        <time>2021-02-13T11:25:18Z</time>
      </trkpt>
      <trkpt lat="41.693964" lon="2.324315">
        <ele>485.216</ele>
        <time>2021-02-13T11:25:29Z</time>
      </trkpt>
      <trkpt lat="41.693924" lon="2.324270">
        <ele>482.516</ele>
        <time>2021-02-13T11:25:36Z</time>
      </trkpt>
      <trkpt lat="41.693889" lon="2.324215">
        <ele>479.932</ele>
        <time>2021-02-13T11:25:43Z</time>
      </trkpt>
      <trkpt lat="41.693891" lon="2.324123">
        <ele>478.371</ele>
        <time>2021-02-13T11:25:46Z</time>
      </trkpt>
      <trkpt lat="41.693897" lon="2.324035">
        <ele>477.041</ele>
        <time>2021-02-13T11:25:54Z</time>
      </trkpt>
      <trkpt lat="41.693935" lon="2.323969">
        <ele>477.415</ele>
        <time>2021-02-13T11:25:58Z</time>
      </trkpt>
      <trkpt lat="41.693940" lon="2.323907">
        <ele>476.508</ele>
        <time>2021-02-13T11:26:20Z</time>
      </trkpt>
      <trkpt lat="41.693936" lon="2.323845">
        <ele>475.523</ele>
        <time>2021-02-13T11:26:24Z</time>
      </trkpt>
      <trkpt lat="41.693951" lon="2.323784">
        <ele>475.592</ele>
        <time>2021-02-13T11:26:37Z</time>
      </trkpt>
      <trkpt lat="41.693982" lon="2.323737">
        <ele>476.233</ele>
        <time>2021-02-13T11:26:45Z</time>
      </trkpt>
      <trkpt lat="41.693983" lon="2.323673">
        <ele>475.582</ele>
        <time>2021-02-13T11:26:50Z</time>
      </trkpt>
      <trkpt lat="41.693945" lon="2.323618">
        <ele>473.315</ele>
        <time>2021-02-13T11:27:02Z</time>
      </trkpt>
      <trkpt lat="41.693923" lon="2.323562">
        <ele>471.577</ele>
        <time>2021-02-13T11:27:14Z</time>
      </trkpt>
      <trkpt lat="41.693869" lon="2.323581">
        <ele>469.777</ele>
        <time>2021-02-13T11:27:18Z</time>
      </trkpt>
      <trkpt lat="41.693843" lon="2.323671">
        <ele>470.093</ele>
        <time>2021-02-13T11:27:19Z</time>
      </trkpt>
      <trkpt lat="41.693798" lon="2.323751">
        <ele>469.483</ele>
        <time>2021-02-13T11:27:21Z</time>
      </trkpt>
      <trkpt lat="41.693778" lon="2.323820">
        <ele>469.625</ele>
        <time>2021-02-13T11:27:22Z</time>
      </trkpt>
      <trkpt lat="41.693758" lon="2.323899">
        <ele>469.917</ele>
        <time>2021-02-13T11:27:24Z</time>
      </trkpt>
      <trkpt lat="41.693725" lon="2.323958">
        <ele>469.508</ele>
        <time>2021-02-13T11:27:25Z</time>
      </trkpt>
      <trkpt lat="41.693666" lon="2.324043">
        <ele>468.284</ele>
        <time>2021-02-13T11:27:27Z</time>
      </trkpt>
      <trkpt lat="41.693642" lon="2.324123">
        <ele>468.063</ele>
        <time>2021-02-13T11:27:29Z</time>
      </trkpt>
      <trkpt lat="41.693598" lon="2.324196">
        <ele>466.854</ele>
        <time>2021-02-13T11:27:31Z</time>
      </trkpt>
      <trkpt lat="41.693583" lon="2.324258">
        <ele>466.873</ele>
        <time>2021-02-13T11:27:34Z</time>
      </trkpt>
      <trkpt lat="41.693596" lon="2.324347">
        <ele>468.376</ele>
        <time>2021-02-13T11:27:37Z</time>
      </trkpt>
      <trkpt lat="41.693614" lon="2.324427">
        <ele>470.058</ele>
        <time>2021-02-13T11:27:40Z</time>
      </trkpt>
      <trkpt lat="41.693599" lon="2.324489">
        <ele>470.388</ele>
        <time>2021-02-13T11:27:44Z</time>
      </trkpt>
      <trkpt lat="41.693582" lon="2.324545">
        <ele>470.554</ele>
        <time>2021-02-13T11:27:48Z</time>
      </trkpt>
      <trkpt lat="41.693550" lon="2.324600">
        <ele>469.957</ele>
        <time>2021-02-13T11:27:51Z</time>
      </trkpt>
      <trkpt lat="41.693508" lon="2.324646">
        <ele>468.600</ele>
        <time>2021-02-13T11:27:54Z</time>
      </trkpt>
      <trkpt lat="41.693476" lon="2.324716">
        <ele>468.120</ele>
        <time>2021-02-13T11:27:57Z</time>
      </trkpt>
      <trkpt lat="41.693468" lon="2.324803">
        <ele>468.808</ele>
        <time>2021-02-13T11:28:00Z</time>
      </trkpt>
      <trkpt lat="41.693449" lon="2.324907">
        <ele>469.181</ele>
        <time>2021-02-13T11:28:03Z</time>
      </trkpt>
      <trkpt lat="41.693415" lon="2.325003">
        <ele>468.480</ele>
        <time>2021-02-13T11:28:05Z</time>
      </trkpt>
      <trkpt lat="41.693391" lon="2.325070">
        <ele>467.521</ele>
        <time>2021-02-13T11:28:06Z</time>
      </trkpt>
      <trkpt lat="41.693360" lon="2.325189">
        <ele>466.360</ele>
        <time>2021-02-13T11:28:08Z</time>
      </trkpt>
      <trkpt lat="41.693370" lon="2.325333">
        <ele>467.453</ele>
        <time>2021-02-13T11:28:10Z</time>
      </trkpt>
      <trkpt lat="41.693350" lon="2.325426">
        <ele>466.195</ele>
        <time>2021-02-13T11:28:12Z</time>
      </trkpt>
      <trkpt lat="41.693332" lon="2.325493">
        <ele>464.955</ele>
        <time>2021-02-13T11:28:16Z</time>
      </trkpt>
      <trkpt lat="41.693344" lon="2.325566">
        <ele>465.691</ele>
        <time>2021-02-13T11:28:22Z</time>
      </trkpt>
      <trkpt lat="41.693377" lon="2.325630">
        <ele>467.252</ele>
        <time>2021-02-13T11:28:24Z</time>
      </trkpt>
      <trkpt lat="41.693401" lon="2.325697">
        <ele>468.253</ele>
        <time>2021-02-13T11:28:26Z</time>
      </trkpt>
      <trkpt lat="41.693429" lon="2.325753">
        <ele>469.708</ele>
        <time>2021-02-13T11:28:30Z</time>
      </trkpt>
      <trkpt lat="41.693448" lon="2.325816">
        <ele>470.408</ele>
        <time>2021-02-13T11:28:34Z</time>
      </trkpt>
      <trkpt lat="41.693466" lon="2.325876">
        <ele>471.081</ele>
        <time>2021-02-13T11:28:35Z</time>
      </trkpt>
      <trkpt lat="41.693490" lon="2.325945">
        <ele>471.670</ele>
        <time>2021-02-13T11:28:37Z</time>
      </trkpt>
      <trkpt lat="41.693514" lon="2.326028">
        <ele>471.871</ele>
        <time>2021-02-13T11:28:39Z</time>
      </trkpt>
      <trkpt lat="41.693529" lon="2.326099">
        <ele>471.580</ele>
        <time>2021-02-13T11:28:41Z</time>
      </trkpt>
      <trkpt lat="41.693547" lon="2.326193">
        <ele>471.193</ele>
        <time>2021-02-13T11:28:43Z</time>
      </trkpt>
      <trkpt lat="41.693558" lon="2.326288">
        <ele>470.235</ele>
        <time>2021-02-13T11:28:45Z</time>
      </trkpt>
      <trkpt lat="41.693572" lon="2.326350">
        <ele>469.975</ele>
        <time>2021-02-13T11:28:47Z</time>
      </trkpt>
      <trkpt lat="41.693573" lon="2.326435">
        <ele>469.011</ele>
        <time>2021-02-13T11:28:48Z</time>
      </trkpt>
      <trkpt lat="41.693585" lon="2.326520">
        <ele>468.924</ele>
        <time>2021-02-13T11:28:50Z</time>
      </trkpt>
      <trkpt lat="41.693597" lon="2.326614">
        <ele>468.804</ele>
        <time>2021-02-13T11:28:53Z</time>
      </trkpt>
      <trkpt lat="41.693564" lon="2.326658">
        <ele>467.014</ele>
        <time>2021-02-13T11:28:57Z</time>
      </trkpt>
      <trkpt lat="41.693533" lon="2.326611">
        <ele>466.008</ele>
        <time>2021-02-13T11:29:04Z</time>
      </trkpt>
      <trkpt lat="41.693500" lon="2.326555">
        <ele>465.028</ele>
        <time>2021-02-13T11:29:13Z</time>
      </trkpt>
      <trkpt lat="41.693439" lon="2.326579">
        <ele>462.287</ele>
        <time>2021-02-13T11:29:22Z</time>
      </trkpt>
      <trkpt lat="41.693389" lon="2.326608">
        <ele>459.848</ele>
        <time>2021-02-13T11:29:25Z</time>
      </trkpt>
      <trkpt lat="41.693345" lon="2.326634">
        <ele>457.777</ele>
        <time>2021-02-13T11:29:31Z</time>
      </trkpt>
      <trkpt lat="41.693294" lon="2.326602">
        <ele>455.870</ele>
        <time>2021-02-13T11:29:33Z</time>
      </trkpt>
      <trkpt lat="41.693262" lon="2.326514">
        <ele>455.012</ele>
        <time>2021-02-13T11:29:34Z</time>
      </trkpt>
      <trkpt lat="41.693237" lon="2.326440">
        <ele>454.342</ele>
        <time>2021-02-13T11:29:36Z</time>
      </trkpt>
      <trkpt lat="41.693192" lon="2.326398">
        <ele>452.438</ele>
        <time>2021-02-13T11:29:39Z</time>
      </trkpt>
      <trkpt lat="41.693148" lon="2.326353">
        <ele>450.537</ele>
        <time>2021-02-13T11:29:54Z</time>
      </trkpt>
      <trkpt lat="41.693132" lon="2.326296">
        <ele>450.249</ele>
        <time>2021-02-13T11:29:57Z</time>
      </trkpt>
      <trkpt lat="41.693103" lon="2.326227">
        <ele>449.313</ele>
        <time>2021-02-13T11:30:00Z</time>
      </trkpt>
      <trkpt lat="41.693061" lon="2.326251">
        <ele>447.208</ele>
        <time>2021-02-13T11:30:03Z</time>
      </trkpt>
      <trkpt lat="41.692981" lon="2.325927">
        <ele>446.699</ele>
        <time>2021-02-13T11:30:05Z</time>
      </trkpt>
      <trkpt lat="41.692944" lon="2.325789">
        <ele>446.448</ele>
        <time>2021-02-13T11:30:07Z</time>
      </trkpt>
      <trkpt lat="41.692910" lon="2.325724">
        <ele>445.789</ele>
        <time>2021-02-13T11:30:09Z</time>
      </trkpt>
      <trkpt lat="41.692856" lon="2.325668">
        <ele>444.368</ele>
        <time>2021-02-13T11:30:11Z</time>
      </trkpt>
      <trkpt lat="41.692704" lon="2.325609">
        <ele>439.931</ele>
        <time>2021-02-13T11:30:13Z</time>
      </trkpt>
      <trkpt lat="41.692619" lon="2.325561">
        <ele>438.023</ele>
        <time>2021-02-13T11:30:16Z</time>
      </trkpt>
      <trkpt lat="41.692665" lon="2.325569">
        <ele>439.193</ele>
        <time>2021-02-13T11:30:31Z</time>
      </trkpt>
      <trkpt lat="41.692652" lon="2.325509">
        <ele>438.869</ele>
        <time>2021-02-13T11:31:49Z</time>
      </trkpt>
      <trkpt lat="41.692618" lon="2.325426">
        <ele>437.724</ele>
        <time>2021-02-13T11:33:28Z</time>
      </trkpt>
      <trkpt lat="41.692590" lon="2.325353">
        <ele>436.804</ele>
        <time>2021-02-13T11:33:29Z</time>
      </trkpt>
      <trkpt lat="41.692562" lon="2.325258">
        <ele>435.714</ele>
        <time>2021-02-13T11:33:31Z</time>
      </trkpt>
      <trkpt lat="41.692542" lon="2.325154">
        <ele>434.808</ele>
        <time>2021-02-13T11:33:33Z</time>
      </trkpt>
      <trkpt lat="41.692515" lon="2.325084">
        <ele>433.878</ele>
        <time>2021-02-13T11:33:35Z</time>
      </trkpt>
      <trkpt lat="41.692513" lon="2.324985">
        <ele>433.497</ele>
        <time>2021-02-13T11:33:37Z</time>
      </trkpt>
      <trkpt lat="41.692518" lon="2.324887">
        <ele>433.698</ele>
        <time>2021-02-13T11:33:39Z</time>
      </trkpt>
      <trkpt lat="41.692501" lon="2.324795">
        <ele>433.087</ele>
        <time>2021-02-13T11:33:41Z</time>
      </trkpt>
      <trkpt lat="41.692511" lon="2.324616">
        <ele>433.740</ele>
        <time>2021-02-13T11:33:43Z</time>
      </trkpt>
      <trkpt lat="41.692436" lon="2.324604">
        <ele>432.362</ele>
        <time>2021-02-13T11:33:45Z</time>
      </trkpt>
      <trkpt lat="41.692383" lon="2.324648">
        <ele>431.252</ele>
        <time>2021-02-13T11:33:47Z</time>
      </trkpt>
      <trkpt lat="41.692331" lon="2.324736">
        <ele>429.958</ele>
        <time>2021-02-13T11:33:49Z</time>
      </trkpt>
      <trkpt lat="41.692296" lon="2.324845">
        <ele>429.076</ele>
        <time>2021-02-13T11:33:51Z</time>
      </trkpt>
      <trkpt lat="41.692323" lon="2.324903">
        <ele>429.490</ele>
        <time>2021-02-13T11:33:53Z</time>
      </trkpt>
      <trkpt lat="41.692341" lon="2.325012">
        <ele>429.619</ele>
        <time>2021-02-13T11:33:54Z</time>
      </trkpt>
      <trkpt lat="41.692352" lon="2.325128">
        <ele>430.008</ele>
        <time>2021-02-13T11:33:56Z</time>
      </trkpt>
      <trkpt lat="41.692360" lon="2.325188">
        <ele>430.353</ele>
        <time>2021-02-13T11:33:57Z</time>
      </trkpt>
      <trkpt lat="41.692313" lon="2.325327">
        <ele>429.062</ele>
        <time>2021-02-13T11:33:59Z</time>
      </trkpt>
      <trkpt lat="41.692296" lon="2.325390">
        <ele>428.113</ele>
        <time>2021-02-13T11:34:00Z</time>
      </trkpt>
      <trkpt lat="41.692273" lon="2.325470">
        <ele>426.792</ele>
        <time>2021-02-13T11:34:02Z</time>
      </trkpt>
      <trkpt lat="41.692282" lon="2.325562">
        <ele>426.375</ele>
        <time>2021-02-13T11:34:04Z</time>
      </trkpt>
      <trkpt lat="41.692278" lon="2.325627">
        <ele>425.617</ele>
        <time>2021-02-13T11:34:05Z</time>
      </trkpt>
      <trkpt lat="41.692257" lon="2.325726">
        <ele>424.037</ele>
        <time>2021-02-13T11:34:07Z</time>
      </trkpt>
      <trkpt lat="41.692217" lon="2.325771">
        <ele>422.373</ele>
        <time>2021-02-13T11:34:09Z</time>
      </trkpt>
      <trkpt lat="41.692169" lon="2.325782">
        <ele>421.394</ele>
        <time>2021-02-13T11:34:11Z</time>
      </trkpt>
      <trkpt lat="41.692113" lon="2.325757">
        <ele>420.357</ele>
        <time>2021-02-13T11:34:12Z</time>
      </trkpt>
      <trkpt lat="41.692067" lon="2.325756">
        <ele>419.422</ele>
        <time>2021-02-13T11:34:54Z</time>
      </trkpt>
      <trkpt lat="41.692057" lon="2.325824">
        <ele>418.508</ele>
        <time>2021-02-13T11:34:56Z</time>
      </trkpt>
      <trkpt lat="41.692049" lon="2.325893">
        <ele>418.025</ele>
        <time>2021-02-13T11:34:58Z</time>
      </trkpt>
      <trkpt lat="41.692062" lon="2.325990">
        <ele>417.754</ele>
        <time>2021-02-13T11:35:00Z</time>
      </trkpt>
      <trkpt lat="41.692086" lon="2.326099">
        <ele>417.685</ele>
        <time>2021-02-13T11:35:02Z</time>
      </trkpt>
      <trkpt lat="41.692099" lon="2.326210">
        <ele>417.824</ele>
        <time>2021-02-13T11:35:04Z</time>
      </trkpt>
      <trkpt lat="41.692112" lon="2.326321">
        <ele>418.077</ele>
        <time>2021-02-13T11:35:06Z</time>
      </trkpt>
      <trkpt lat="41.692121" lon="2.326418">
        <ele>418.259</ele>
        <time>2021-02-13T11:35:08Z</time>
      </trkpt>
      <trkpt lat="41.692132" lon="2.326521">
        <ele>418.539</ele>
        <time>2021-02-13T11:35:10Z</time>
      </trkpt>
      <trkpt lat="41.692137" lon="2.326610">
        <ele>418.745</ele>
        <time>2021-02-13T11:35:12Z</time>
      </trkpt>
      <trkpt lat="41.692146" lon="2.326679">
        <ele>418.996</ele>
        <time>2021-02-13T11:35:14Z</time>
      </trkpt>
      <trkpt lat="41.692138" lon="2.326747">
        <ele>419.031</ele>
        <time>2021-02-13T11:35:17Z</time>
      </trkpt>
      <trkpt lat="41.692136" lon="2.326821">
        <ele>419.124</ele>
        <time>2021-02-13T11:35:20Z</time>
      </trkpt>
      <trkpt lat="41.692142" lon="2.326905">
        <ele>419.508</ele>
        <time>2021-02-13T11:35:23Z</time>
      </trkpt>
      <trkpt lat="41.692146" lon="2.326985">
        <ele>419.495</ele>
        <time>2021-02-13T11:35:26Z</time>
      </trkpt>
      <trkpt lat="41.692159" lon="2.327068">
        <ele>419.134</ele>
        <time>2021-02-13T11:35:29Z</time>
      </trkpt>
      <trkpt lat="41.692164" lon="2.327129">
        <ele>418.885</ele>
        <time>2021-02-13T11:35:31Z</time>
      </trkpt>
      <trkpt lat="41.692179" lon="2.327199">
        <ele>418.554</ele>
        <time>2021-02-13T11:35:33Z</time>
      </trkpt>
      <trkpt lat="41.692196" lon="2.327278">
        <ele>418.457</ele>
        <time>2021-02-13T11:35:35Z</time>
      </trkpt>
      <trkpt lat="41.692207" lon="2.327356">
        <ele>418.339</ele>
        <time>2021-02-13T11:35:37Z</time>
      </trkpt>
      <trkpt lat="41.692217" lon="2.327434">
        <ele>418.189</ele>
        <time>2021-02-13T11:35:39Z</time>
      </trkpt>
      <trkpt lat="41.692222" lon="2.327536">
        <ele>417.735</ele>
        <time>2021-02-13T11:35:41Z</time>
      </trkpt>
      <trkpt lat="41.692222" lon="2.327636">
        <ele>417.063</ele>
        <time>2021-02-13T11:35:42Z</time>
      </trkpt>
      <trkpt lat="41.692220" lon="2.327851">
        <ele>415.444</ele>
        <time>2021-02-13T11:35:44Z</time>
      </trkpt>
      <trkpt lat="41.692213" lon="2.328035">
        <ele>413.918</ele>
        <time>2021-02-13T11:35:46Z</time>
      </trkpt>
      <trkpt lat="41.692216" lon="2.328103">
        <ele>413.408</ele>
        <time>2021-02-13T11:35:47Z</time>
      </trkpt>
      <trkpt lat="41.692224" lon="2.328166">
        <ele>412.892</ele>
        <time>2021-02-13T11:35:48Z</time>
      </trkpt>
      <trkpt lat="41.692244" lon="2.328316">
        <ele>411.671</ele>
        <time>2021-02-13T11:35:50Z</time>
      </trkpt>
      <trkpt lat="41.692250" lon="2.328383">
        <ele>411.122</ele>
        <time>2021-02-13T11:35:51Z</time>
      </trkpt>
      <trkpt lat="41.692247" lon="2.328499">
        <ele>410.381</ele>
        <time>2021-02-13T11:35:53Z</time>
      </trkpt>
      <trkpt lat="41.692254" lon="2.328596">
        <ele>409.754</ele>
        <time>2021-02-13T11:35:55Z</time>
      </trkpt>
      <trkpt lat="41.692256" lon="2.328721">
        <ele>408.476</ele>
        <time>2021-02-13T11:35:57Z</time>
      </trkpt>
      <trkpt lat="41.692232" lon="2.328800">
        <ele>407.116</ele>
        <time>2021-02-13T11:35:59Z</time>
      </trkpt>
      <trkpt lat="41.692168" lon="2.328801">
        <ele>406.092</ele>
        <time>2021-02-13T11:36:03Z</time>
      </trkpt>
      <trkpt lat="41.692110" lon="2.328727">
        <ele>405.774</ele>
        <time>2021-02-13T11:36:05Z</time>
      </trkpt>
      <trkpt lat="41.692073" lon="2.328686">
        <ele>405.556</ele>
        <time>2021-02-13T11:36:06Z</time>
      </trkpt>
      <trkpt lat="41.692005" lon="2.328594">
        <ele>405.321</ele>
        <time>2021-02-13T11:36:07Z</time>
      </trkpt>
      <trkpt lat="41.691916" lon="2.328486">
        <ele>404.808</ele>
        <time>2021-02-13T11:36:09Z</time>
      </trkpt>
      <trkpt lat="41.691872" lon="2.328434">
        <ele>404.623</ele>
        <time>2021-02-13T11:36:10Z</time>
      </trkpt>
      <trkpt lat="41.691828" lon="2.328384">
        <ele>404.492</ele>
        <time>2021-02-13T11:36:11Z</time>
      </trkpt>
      <trkpt lat="41.691742" lon="2.328280">
        <ele>403.713</ele>
        <time>2021-02-13T11:36:13Z</time>
      </trkpt>
      <trkpt lat="41.691699" lon="2.328222">
        <ele>403.352</ele>
        <time>2021-02-13T11:36:14Z</time>
      </trkpt>
      <trkpt lat="41.691617" lon="2.328096">
        <ele>403.025</ele>
        <time>2021-02-13T11:36:16Z</time>
      </trkpt>
      <trkpt lat="41.691542" lon="2.327953">
        <ele>402.667</ele>
        <time>2021-02-13T11:36:18Z</time>
      </trkpt>
      <trkpt lat="41.691501" lon="2.327875">
        <ele>402.367</ele>
        <time>2021-02-13T11:36:19Z</time>
      </trkpt>
      <trkpt lat="41.691459" lon="2.327790">
        <ele>402.033</ele>
        <time>2021-02-13T11:36:20Z</time>
      </trkpt>
      <trkpt lat="41.691383" lon="2.327632">
        <ele>401.494</ele>
        <time>2021-02-13T11:36:22Z</time>
      </trkpt>
      <trkpt lat="41.691343" lon="2.327555">
        <ele>401.157</ele>
        <time>2021-02-13T11:36:23Z</time>
      </trkpt>
      <trkpt lat="41.691263" lon="2.327388">
        <ele>400.422</ele>
        <time>2021-02-13T11:36:25Z</time>
      </trkpt>
      <trkpt lat="41.691219" lon="2.327300">
        <ele>400.008</ele>
        <time>2021-02-13T11:36:26Z</time>
      </trkpt>
      <trkpt lat="41.691173" lon="2.327212">
        <ele>399.715</ele>
        <time>2021-02-13T11:36:27Z</time>
      </trkpt>
      <trkpt lat="41.691084" lon="2.327035">
        <ele>398.354</ele>
        <time>2021-02-13T11:36:29Z</time>
      </trkpt>
      <trkpt lat="41.691038" lon="2.326938">
        <ele>397.255</ele>
        <time>2021-02-13T11:36:30Z</time>
      </trkpt>
      <trkpt lat="41.690918" lon="2.326684">
        <ele>395.124</ele>
        <time>2021-02-13T11:36:33Z</time>
      </trkpt>
      <trkpt lat="41.690870" lon="2.326560">
        <ele>394.367</ele>
        <time>2021-02-13T11:36:34Z</time>
      </trkpt>
      <trkpt lat="41.690785" lon="2.326336">
        <ele>393.559</ele>
        <time>2021-02-13T11:36:36Z</time>
      </trkpt>
      <trkpt lat="41.690701" lon="2.326110">
        <ele>393.179</ele>
        <time>2021-02-13T11:36:38Z</time>
      </trkpt>
      <trkpt lat="41.690613" lon="2.325892">
        <ele>391.085</ele>
        <time>2021-02-13T11:36:40Z</time>
      </trkpt>
      <trkpt lat="41.690526" lon="2.325662">
        <ele>389.023</ele>
        <time>2021-02-13T11:36:42Z</time>
      </trkpt>
      <trkpt lat="41.690447" lon="2.325422">
        <ele>387.683</ele>
        <time>2021-02-13T11:36:44Z</time>
      </trkpt>
      <trkpt lat="41.690367" lon="2.325183">
        <ele>387.011</ele>
        <time>2021-02-13T11:36:46Z</time>
      </trkpt>
      <trkpt lat="41.690281" lon="2.324944">
        <ele>385.808</ele>
        <time>2021-02-13T11:36:48Z</time>
      </trkpt>
      <trkpt lat="41.690204" lon="2.324695">
        <ele>383.688</ele>
        <time>2021-02-13T11:36:50Z</time>
      </trkpt>
      <trkpt lat="41.690117" lon="2.324448">
        <ele>381.717</ele>
        <time>2021-02-13T11:36:52Z</time>
      </trkpt>
      <trkpt lat="41.690029" lon="2.324200">
        <ele>380.568</ele>
        <time>2021-02-13T11:36:54Z</time>
      </trkpt>
      <trkpt lat="41.689946" lon="2.323947">
        <ele>381.067</ele>
        <time>2021-02-13T11:36:56Z</time>
      </trkpt>
      <trkpt lat="41.689857" lon="2.323697">
        <ele>381.860</ele>
        <time>2021-02-13T11:36:58Z</time>
      </trkpt>
      <trkpt lat="41.689773" lon="2.323461">
        <ele>382.692</ele>
        <time>2021-02-13T11:37:00Z</time>
      </trkpt>
      <trkpt lat="41.689700" lon="2.323257">
        <ele>383.212</ele>
        <time>2021-02-13T11:37:02Z</time>
      </trkpt>
      <trkpt lat="41.689619" lon="2.323082">
        <ele>383.568</ele>
        <time>2021-02-13T11:37:04Z</time>
      </trkpt>
      <trkpt lat="41.689527" lon="2.322934">
        <ele>383.163</ele>
        <time>2021-02-13T11:37:06Z</time>
      </trkpt>
      <trkpt lat="41.689432" lon="2.322810">
        <ele>382.044</ele>
        <time>2021-02-13T11:37:08Z</time>
      </trkpt>
      <trkpt lat="41.689346" lon="2.322682">
        <ele>381.418</ele>
        <time>2021-02-13T11:37:10Z</time>
      </trkpt>
      <trkpt lat="41.689268" lon="2.322561">
        <ele>381.208</ele>
        <time>2021-02-13T11:37:12Z</time>
      </trkpt>
      <trkpt lat="41.689195" lon="2.322447">
        <ele>381.392</ele>
        <time>2021-02-13T11:37:14Z</time>
      </trkpt>
      <trkpt lat="41.689124" lon="2.322330">
        <ele>381.341</ele>
        <time>2021-02-13T11:37:16Z</time>
      </trkpt>
      <trkpt lat="41.689054" lon="2.322199">
        <ele>381.272</ele>
        <time>2021-02-13T11:37:18Z</time>
      </trkpt>
      <trkpt lat="41.688987" lon="2.322064">
        <ele>380.731</ele>
        <time>2021-02-13T11:37:20Z</time>
      </trkpt>
      <trkpt lat="41.688940" lon="2.321918">
        <ele>380.454</ele>
        <time>2021-02-13T11:37:22Z</time>
      </trkpt>
      <trkpt lat="41.688912" lon="2.321759">
        <ele>380.226</ele>
        <time>2021-02-13T11:37:24Z</time>
      </trkpt>
      <trkpt lat="41.688891" lon="2.321592">
        <ele>380.016</ele>
        <time>2021-02-13T11:37:26Z</time>
      </trkpt>
      <trkpt lat="41.688890" lon="2.321408">
        <ele>380.042</ele>
        <time>2021-02-13T11:37:28Z</time>
      </trkpt>
      <trkpt lat="41.688906" lon="2.321222">
        <ele>380.382</ele>
        <time>2021-02-13T11:37:30Z</time>
      </trkpt>
      <trkpt lat="41.688926" lon="2.321046">
        <ele>380.443</ele>
        <time>2021-02-13T11:37:32Z</time>
      </trkpt>
      <trkpt lat="41.688947" lon="2.320872">
        <ele>380.017</ele>
        <time>2021-02-13T11:37:34Z</time>
      </trkpt>
      <trkpt lat="41.688980" lon="2.320706">
        <ele>379.108</ele>
        <time>2021-02-13T11:37:36Z</time>
      </trkpt>
      <trkpt lat="41.689042" lon="2.320552">
        <ele>378.724</ele>
        <time>2021-02-13T11:37:38Z</time>
      </trkpt>
      <trkpt lat="41.689139" lon="2.320435">
        <ele>378.913</ele>
        <time>2021-02-13T11:37:40Z</time>
      </trkpt>
      <trkpt lat="41.689263" lon="2.320373">
        <ele>378.824</ele>
        <time>2021-02-13T11:37:42Z</time>
      </trkpt>
      <trkpt lat="41.689392" lon="2.320336">
        <ele>379.153</ele>
        <time>2021-02-13T11:37:44Z</time>
      </trkpt>
      <trkpt lat="41.689520" lon="2.320318">
        <ele>379.846</ele>
        <time>2021-02-13T11:37:46Z</time>
      </trkpt>
      <trkpt lat="41.689641" lon="2.320281">
        <ele>380.488</ele>
        <time>2021-02-13T11:37:48Z</time>
      </trkpt>
      <trkpt lat="41.689737" lon="2.320188">
        <ele>379.828</ele>
        <time>2021-02-13T11:37:50Z</time>
      </trkpt>
      <trkpt lat="41.689795" lon="2.320055">
        <ele>378.314</ele>
        <time>2021-02-13T11:37:52Z</time>
      </trkpt>
      <trkpt lat="41.689823" lon="2.319894">
        <ele>376.613</ele>
        <time>2021-02-13T11:37:54Z</time>
      </trkpt>
      <trkpt lat="41.689845" lon="2.319728">
        <ele>374.943</ele>
        <time>2021-02-13T11:37:56Z</time>
      </trkpt>
      <trkpt lat="41.689844" lon="2.319556">
        <ele>374.807</ele>
        <time>2021-02-13T11:37:58Z</time>
      </trkpt>
      <trkpt lat="41.689821" lon="2.319387">
        <ele>374.508</ele>
        <time>2021-02-13T11:38:00Z</time>
      </trkpt>
      <trkpt lat="41.689779" lon="2.319235">
        <ele>374.027</ele>
        <time>2021-02-13T11:38:02Z</time>
      </trkpt>
      <trkpt lat="41.689745" lon="2.319082">
        <ele>373.726</ele>
        <time>2021-02-13T11:38:04Z</time>
      </trkpt>
      <trkpt lat="41.689709" lon="2.318929">
        <ele>373.767</ele>
        <time>2021-02-13T11:38:06Z</time>
      </trkpt>
      <trkpt lat="41.689675" lon="2.318773">
        <ele>373.736</ele>
        <time>2021-02-13T11:38:08Z</time>
      </trkpt>
      <trkpt lat="41.689635" lon="2.318619">
        <ele>373.789</ele>
        <time>2021-02-13T11:38:10Z</time>
      </trkpt>
      <trkpt lat="41.689590" lon="2.318472">
        <ele>374.351</ele>
        <time>2021-02-13T11:38:12Z</time>
      </trkpt>
      <trkpt lat="41.689540" lon="2.318336">
        <ele>375.051</ele>
        <time>2021-02-13T11:38:14Z</time>
      </trkpt>
      <trkpt lat="41.689491" lon="2.318204">
        <ele>375.887</ele>
        <time>2021-02-13T11:38:16Z</time>
      </trkpt>
      <trkpt lat="41.689440" lon="2.318070">
        <ele>376.839</ele>
        <time>2021-02-13T11:38:18Z</time>
      </trkpt>
      <trkpt lat="41.689399" lon="2.317953">
        <ele>377.201</ele>
        <time>2021-02-13T11:38:20Z</time>
      </trkpt>
      <trkpt lat="41.689361" lon="2.317823">
        <ele>377.521</ele>
        <time>2021-02-13T11:38:22Z</time>
      </trkpt>
      <trkpt lat="41.689331" lon="2.317683">
        <ele>377.708</ele>
        <time>2021-02-13T11:38:24Z</time>
      </trkpt>
      <trkpt lat="41.689313" lon="2.317542">
        <ele>378.059</ele>
        <time>2021-02-13T11:38:26Z</time>
      </trkpt>
      <trkpt lat="41.689300" lon="2.317391">
        <ele>377.398</ele>
        <time>2021-02-13T11:38:28Z</time>
      </trkpt>
      <trkpt lat="41.689302" lon="2.317236">
        <ele>376.519</ele>
        <time>2021-02-13T11:38:30Z</time>
      </trkpt>
      <trkpt lat="41.689334" lon="2.317102">
        <ele>375.978</ele>
        <time>2021-02-13T11:38:32Z</time>
      </trkpt>
      <trkpt lat="41.689401" lon="2.316988">
        <ele>375.391</ele>
        <time>2021-02-13T11:38:34Z</time>
      </trkpt>
      <trkpt lat="41.689485" lon="2.316908">
        <ele>374.943</ele>
        <time>2021-02-13T11:38:36Z</time>
      </trkpt>
      <trkpt lat="41.689574" lon="2.316851">
        <ele>374.993</ele>
        <time>2021-02-13T11:38:38Z</time>
      </trkpt>
      <trkpt lat="41.689659" lon="2.316803">
        <ele>375.189</ele>
        <time>2021-02-13T11:38:40Z</time>
      </trkpt>
      <trkpt lat="41.689743" lon="2.316749">
        <ele>375.541</ele>
        <time>2021-02-13T11:38:42Z</time>
      </trkpt>
      <trkpt lat="41.689825" lon="2.316687">
        <ele>375.981</ele>
        <time>2021-02-13T11:38:44Z</time>
      </trkpt>
      <trkpt lat="41.689909" lon="2.316614">
        <ele>376.509</ele>
        <time>2021-02-13T11:38:46Z</time>
      </trkpt>
      <trkpt lat="41.689982" lon="2.316515">
        <ele>377.408</ele>
        <time>2021-02-13T11:38:48Z</time>
      </trkpt>
      <trkpt lat="41.690006" lon="2.316370">
        <ele>378.250</ele>
        <time>2021-02-13T11:38:50Z</time>
      </trkpt>
      <trkpt lat="41.689968" lon="2.316214">
        <ele>378.819</ele>
        <time>2021-02-13T11:38:52Z</time>
      </trkpt>
      <trkpt lat="41.689889" lon="2.316100">
        <ele>378.510</ele>
        <time>2021-02-13T11:38:54Z</time>
      </trkpt>
      <trkpt lat="41.689799" lon="2.316010">
        <ele>377.959</ele>
        <time>2021-02-13T11:38:56Z</time>
      </trkpt>
      <trkpt lat="41.689711" lon="2.315916">
        <ele>377.492</ele>
        <time>2021-02-13T11:38:58Z</time>
      </trkpt>
      <trkpt lat="41.689627" lon="2.315831">
        <ele>377.744</ele>
        <time>2021-02-13T11:39:00Z</time>
      </trkpt>
      <trkpt lat="41.689555" lon="2.315744">
        <ele>378.354</ele>
        <time>2021-02-13T11:39:02Z</time>
      </trkpt>
      <trkpt lat="41.689492" lon="2.315664">
        <ele>378.610</ele>
        <time>2021-02-13T11:39:04Z</time>
      </trkpt>
      <trkpt lat="41.689453" lon="2.315618">
        <ele>378.661</ele>
        <time>2021-02-13T11:39:06Z</time>
      </trkpt>
      <trkpt lat="41.689406" lon="2.315544">
        <ele>378.821</ele>
        <time>2021-02-13T11:39:08Z</time>
      </trkpt>
      <trkpt lat="41.689338" lon="2.315429">
        <ele>379.013</ele>
        <time>2021-02-13T11:39:10Z</time>
      </trkpt>
      <trkpt lat="41.689284" lon="2.315297">
        <ele>379.208</ele>
        <time>2021-02-13T11:39:12Z</time>
      </trkpt>
      <trkpt lat="41.689245" lon="2.315154">
        <ele>379.062</ele>
        <time>2021-02-13T11:39:14Z</time>
      </trkpt>
      <trkpt lat="41.689222" lon="2.315009">
        <ele>378.861</ele>
        <time>2021-02-13T11:39:16Z</time>
      </trkpt>
      <trkpt lat="41.689212" lon="2.314874">
        <ele>378.782</ele>
        <time>2021-02-13T11:39:18Z</time>
      </trkpt>
      <trkpt lat="41.689201" lon="2.314733">
        <ele>378.541</ele>
        <time>2021-02-13T11:39:20Z</time>
      </trkpt>
      <trkpt lat="41.689195" lon="2.314589">
        <ele>378.844</ele>
        <time>2021-02-13T11:39:22Z</time>
      </trkpt>
      <trkpt lat="41.689193" lon="2.314444">
        <ele>379.396</ele>
        <time>2021-02-13T11:39:24Z</time>
      </trkpt>
      <trkpt lat="41.689184" lon="2.314300">
        <ele>379.796</ele>
        <time>2021-02-13T11:39:26Z</time>
      </trkpt>
      <trkpt lat="41.689174" lon="2.314154">
        <ele>380.192</ele>
        <time>2021-02-13T11:39:28Z</time>
      </trkpt>
      <trkpt lat="41.689170" lon="2.314020">
        <ele>380.644</ele>
        <time>2021-02-13T11:39:30Z</time>
      </trkpt>
      <trkpt lat="41.689166" lon="2.313905">
        <ele>380.905</ele>
        <time>2021-02-13T11:39:32Z</time>
      </trkpt>
      <trkpt lat="41.689162" lon="2.313836">
        <ele>381.215</ele>
        <time>2021-02-13T11:39:34Z</time>
      </trkpt>
      <trkpt lat="41.689157" lon="2.313740">
        <ele>381.508</ele>
        <time>2021-02-13T11:39:36Z</time>
      </trkpt>
      <trkpt lat="41.689132" lon="2.313502">
        <ele>381.670</ele>
        <time>2021-02-13T11:39:40Z</time>
      </trkpt>
      <trkpt lat="41.689141" lon="2.313315">
        <ele>381.079</ele>
        <time>2021-02-13T11:39:42Z</time>
      </trkpt>
      <trkpt lat="41.689172" lon="2.313149">
        <ele>379.770</ele>
        <time>2021-02-13T11:39:44Z</time>
      </trkpt>
      <trkpt lat="41.689226" lon="2.312973">
        <ele>378.319</ele>
        <time>2021-02-13T11:39:46Z</time>
      </trkpt>
      <trkpt lat="41.689301" lon="2.312802">
        <ele>376.722</ele>
        <time>2021-02-13T11:39:48Z</time>
      </trkpt>
      <trkpt lat="41.689384" lon="2.312639">
        <ele>375.174</ele>
        <time>2021-02-13T11:39:50Z</time>
      </trkpt>
      <trkpt lat="41.689490" lon="2.312483">
        <ele>374.634</ele>
        <time>2021-02-13T11:39:52Z</time>
      </trkpt>
      <trkpt lat="41.689622" lon="2.312365">
        <ele>375.470</ele>
        <time>2021-02-13T11:39:54Z</time>
      </trkpt>
      <trkpt lat="41.689750" lon="2.312243">
        <ele>375.884</ele>
        <time>2021-02-13T11:39:56Z</time>
      </trkpt>
      <trkpt lat="41.689818" lon="2.312044">
        <ele>376.707</ele>
        <time>2021-02-13T11:39:58Z</time>
      </trkpt>
      <trkpt lat="41.689808" lon="2.311852">
        <ele>377.317</ele>
        <time>2021-02-13T11:40:00Z</time>
      </trkpt>
      <trkpt lat="41.689739" lon="2.311674">
        <ele>377.308</ele>
        <time>2021-02-13T11:40:02Z</time>
      </trkpt>
      <trkpt lat="41.689600" lon="2.311567">
        <ele>375.684</ele>
        <time>2021-02-13T11:40:04Z</time>
      </trkpt>
      <trkpt lat="41.689444" lon="2.311506">
        <ele>372.333</ele>
        <time>2021-02-13T11:40:06Z</time>
      </trkpt>
      <trkpt lat="41.689289" lon="2.311470">
        <ele>371.374</ele>
        <time>2021-02-13T11:40:08Z</time>
      </trkpt>
      <trkpt lat="41.689127" lon="2.311415">
        <ele>370.763</ele>
        <time>2021-02-13T11:40:10Z</time>
      </trkpt>
      <trkpt lat="41.688961" lon="2.311348">
        <ele>371.696</ele>
        <time>2021-02-13T11:40:12Z</time>
      </trkpt>
      <trkpt lat="41.688793" lon="2.311273">
        <ele>371.368</ele>
        <time>2021-02-13T11:40:14Z</time>
      </trkpt>
      <trkpt lat="41.688638" lon="2.311185">
        <ele>370.398</ele>
        <time>2021-02-13T11:40:16Z</time>
      </trkpt>
      <trkpt lat="41.688488" lon="2.311083">
        <ele>368.644</ele>
        <time>2021-02-13T11:40:18Z</time>
      </trkpt>
      <trkpt lat="41.688339" lon="2.310973">
        <ele>366.678</ele>
        <time>2021-02-13T11:40:20Z</time>
      </trkpt>
      <trkpt lat="41.688190" lon="2.310860">
        <ele>364.133</ele>
        <time>2021-02-13T11:40:22Z</time>
      </trkpt>
      <trkpt lat="41.688043" lon="2.310749">
        <ele>362.026</ele>
        <time>2021-02-13T11:40:24Z</time>
      </trkpt>
      <trkpt lat="41.687913" lon="2.310607">
        <ele>361.308</ele>
        <time>2021-02-13T11:40:26Z</time>
      </trkpt>
      <trkpt lat="41.687790" lon="2.310439">
        <ele>360.113</ele>
        <time>2021-02-13T11:40:28Z</time>
      </trkpt>
      <trkpt lat="41.687685" lon="2.310258">
        <ele>359.722</ele>
        <time>2021-02-13T11:40:30Z</time>
      </trkpt>
      <trkpt lat="41.687585" lon="2.310065">
        <ele>358.283</ele>
        <time>2021-02-13T11:40:32Z</time>
      </trkpt>
      <trkpt lat="41.687505" lon="2.309854">
        <ele>357.162</ele>
        <time>2021-02-13T11:40:34Z</time>
      </trkpt>
      <trkpt lat="41.687441" lon="2.309636">
        <ele>356.475</ele>
        <time>2021-02-13T11:40:36Z</time>
      </trkpt>
      <trkpt lat="41.687370" lon="2.309414">
        <ele>355.967</ele>
        <time>2021-02-13T11:40:38Z</time>
      </trkpt>
      <trkpt lat="41.686990" lon="2.307958">
        <ele>353.567</ele>
        <time>2021-02-13T11:40:51Z</time>
      </trkpt>
      <trkpt lat="41.686961" lon="2.307557">
        <ele>355.033</ele>
        <time>2021-02-13T11:40:55Z</time>
      </trkpt>
      <trkpt lat="41.686979" lon="2.307175">
        <ele>356.161</ele>
        <time>2021-02-13T11:40:59Z</time>
      </trkpt>
      <trkpt lat="41.687026" lon="2.306838">
        <ele>355.421</ele>
        <time>2021-02-13T11:41:03Z</time>
      </trkpt>
      <trkpt lat="41.687094" lon="2.306502">
        <ele>354.013</ele>
        <time>2021-02-13T11:41:07Z</time>
      </trkpt>
      <trkpt lat="41.687194" lon="2.306186">
        <ele>352.508</ele>
        <time>2021-02-13T11:41:11Z</time>
      </trkpt>
      <trkpt lat="41.687316" lon="2.305871">
        <ele>351.762</ele>
        <time>2021-02-13T11:41:15Z</time>
      </trkpt>
      <trkpt lat="41.687450" lon="2.305606">
        <ele>352.641</ele>
        <time>2021-02-13T11:41:19Z</time>
      </trkpt>
      <trkpt lat="41.687572" lon="2.305407">
        <ele>353.262</ele>
        <time>2021-02-13T11:41:23Z</time>
      </trkpt>
      <trkpt lat="41.687703" lon="2.305185">
        <ele>353.971</ele>
        <time>2021-02-13T11:41:27Z</time>
      </trkpt>
      <trkpt lat="41.687824" lon="2.304935">
        <ele>354.854</ele>
        <time>2021-02-13T11:41:31Z</time>
      </trkpt>
      <trkpt lat="41.687862" lon="2.304636">
        <ele>356.576</ele>
        <time>2021-02-13T11:41:35Z</time>
      </trkpt>
      <trkpt lat="41.687764" lon="2.304287">
        <ele>354.126</ele>
        <time>2021-02-13T11:41:39Z</time>
      </trkpt>
      <trkpt lat="41.687750" lon="2.303907">
        <ele>350.422</ele>
        <time>2021-02-13T11:41:43Z</time>
      </trkpt>
      <trkpt lat="41.687866" lon="2.303595">
        <ele>348.046</ele>
        <time>2021-02-13T11:41:47Z</time>
      </trkpt>
      <trkpt lat="41.688113" lon="2.303420">
        <ele>350.188</ele>
        <time>2021-02-13T11:41:51Z</time>
      </trkpt>
      <trkpt lat="41.688416" lon="2.303404">
        <ele>352.616</ele>
        <time>2021-02-13T11:41:55Z</time>
      </trkpt>
      <trkpt lat="41.688536" lon="2.303057">
        <ele>350.208</ele>
        <time>2021-02-13T11:41:59Z</time>
      </trkpt>
      <trkpt lat="41.688415" lon="2.302703">
        <ele>352.310</ele>
        <time>2021-02-13T11:42:03Z</time>
      </trkpt>
      <trkpt lat="41.688093" lon="2.302577">
        <ele>352.619</ele>
        <time>2021-02-13T11:42:07Z</time>
      </trkpt>
      <trkpt lat="41.687806" lon="2.302551">
        <ele>350.960</ele>
        <time>2021-02-13T11:42:11Z</time>
      </trkpt>
      <trkpt lat="41.687536" lon="2.302524">
        <ele>350.549</ele>
        <time>2021-02-13T11:42:15Z</time>
      </trkpt>
      <trkpt lat="41.687276" lon="2.302475">
        <ele>350.632</ele>
        <time>2021-02-13T11:42:19Z</time>
      </trkpt>
      <trkpt lat="41.687022" lon="2.302436">
        <ele>349.514</ele>
        <time>2021-02-13T11:42:23Z</time>
      </trkpt>
      <trkpt lat="41.686770" lon="2.302378">
        <ele>349.224</ele>
        <time>2021-02-13T11:42:27Z</time>
      </trkpt>
      <trkpt lat="41.686524" lon="2.302279">
        <ele>348.140</ele>
        <time>2021-02-13T11:42:31Z</time>
      </trkpt>
      <trkpt lat="41.686325" lon="2.302014">
        <ele>346.146</ele>
        <time>2021-02-13T11:42:35Z</time>
      </trkpt>
      <trkpt lat="41.686334" lon="2.301618">
        <ele>344.188</ele>
        <time>2021-02-13T11:42:39Z</time>
      </trkpt>
      <trkpt lat="41.686430" lon="2.301253">
        <ele>343.216</ele>
        <time>2021-02-13T11:42:43Z</time>
      </trkpt>
      <trkpt lat="41.686527" lon="2.300899">
        <ele>343.008</ele>
        <time>2021-02-13T11:42:47Z</time>
      </trkpt>
      <trkpt lat="41.686648" lon="2.300501">
        <ele>342.350</ele>
        <time>2021-02-13T11:42:51Z</time>
      </trkpt>
      <trkpt lat="41.686828" lon="2.300117">
        <ele>343.579</ele>
        <time>2021-02-13T11:42:55Z</time>
      </trkpt>
      <trkpt lat="41.686968" lon="2.299715">
        <ele>343.480</ele>
        <time>2021-02-13T11:42:59Z</time>
      </trkpt>
      <trkpt lat="41.686911" lon="2.299320">
        <ele>342.749</ele>
        <time>2021-02-13T11:43:03Z</time>
      </trkpt>
      <trkpt lat="41.686648" lon="2.299240">
        <ele>342.362</ele>
        <time>2021-02-13T11:43:07Z</time>
      </trkpt>
      <trkpt lat="41.686347" lon="2.299417">
        <ele>340.144</ele>
        <time>2021-02-13T11:43:11Z</time>
      </trkpt>
      <trkpt lat="41.685257" lon="2.299462">
        <ele>327.624</ele>
        <time>2021-02-13T11:43:23Z</time>
      </trkpt>
      <trkpt lat="41.684915" lon="2.299204">
        <ele>326.740</ele>
        <time>2021-02-13T11:43:27Z</time>
      </trkpt>
      <trkpt lat="41.683303" lon="2.299171">
        <ele>316.799</ele>
        <time>2021-02-13T11:43:43Z</time>
      </trkpt>
      <trkpt lat="41.682901" lon="2.299109">
        <ele>315.307</ele>
        <time>2021-02-13T11:43:47Z</time>
      </trkpt>
      <trkpt lat="41.682565" lon="2.298851">
        <ele>314.527</ele>
        <time>2021-02-13T11:43:51Z</time>
      </trkpt>
      <trkpt lat="41.681939" lon="2.296839">
        <ele>305.208</ele>
        <time>2021-02-13T11:44:07Z</time>
      </trkpt>
      <trkpt lat="41.681915" lon="2.296310">
        <ele>302.565</ele>
        <time>2021-02-13T11:44:11Z</time>
      </trkpt>
      <trkpt lat="41.681891" lon="2.295814">
        <ele>299.584</ele>
        <time>2021-02-13T11:44:15Z</time>
      </trkpt>
      <trkpt lat="41.681902" lon="2.294296">
        <ele>293.985</ele>
        <time>2021-02-13T11:44:27Z</time>
      </trkpt>
      <trkpt lat="41.681899" lon="2.293779">
        <ele>291.094</ele>
        <time>2021-02-13T11:44:31Z</time>
      </trkpt>
      <trkpt lat="41.681749" lon="2.291590">
        <ele>279.557</ele>
        <time>2021-02-13T11:44:47Z</time>
      </trkpt>
      <trkpt lat="41.681807" lon="2.291035">
        <ele>278.029</ele>
        <time>2021-02-13T11:44:51Z</time>
      </trkpt>
      <trkpt lat="41.681878" lon="2.290499">
        <ele>277.289</ele>
        <time>2021-02-13T11:44:55Z</time>
      </trkpt>
      <trkpt lat="41.683083" lon="2.289323">
        <ele>266.655</ele>
        <time>2021-02-13T11:45:11Z</time>
      </trkpt>
      <trkpt lat="41.683050" lon="2.288924">
        <ele>263.315</ele>
        <time>2021-02-13T11:45:15Z</time>
      </trkpt>
      <trkpt lat="41.683155" lon="2.288728">
        <ele>261.165</ele>
        <time>2021-02-13T11:45:19Z</time>
      </trkpt>
      <trkpt lat="41.683346" lon="2.288605">
        <ele>259.011</ele>
        <time>2021-02-13T11:45:23Z</time>
      </trkpt>
      <trkpt lat="41.683605" lon="2.288577">
        <ele>259.708</ele>
        <time>2021-02-13T11:45:27Z</time>
      </trkpt>
      <trkpt lat="41.683787" lon="2.288430">
        <ele>259.717</ele>
        <time>2021-02-13T11:45:31Z</time>
      </trkpt>
      <trkpt lat="41.683779" lon="2.288009">
        <ele>255.976</ele>
        <time>2021-02-13T11:45:35Z</time>
      </trkpt>
      <trkpt lat="41.683799" lon="2.287644">
        <ele>254.267</ele>
        <time>2021-02-13T11:45:39Z</time>
      </trkpt>
      <trkpt lat="41.683743" lon="2.287360">
        <ele>253.216</ele>
        <time>2021-02-13T11:45:43Z</time>
      </trkpt>
      <trkpt lat="41.683607" lon="2.287031">
        <ele>252.069</ele>
        <time>2021-02-13T11:45:47Z</time>
      </trkpt>
      <trkpt lat="41.683488" lon="2.286680">
        <ele>251.081</ele>
        <time>2021-02-13T11:45:51Z</time>
      </trkpt>
      <trkpt lat="41.683389" lon="2.286377">
        <ele>249.931</ele>
        <time>2021-02-13T11:45:55Z</time>
      </trkpt>
      <trkpt lat="41.683322" lon="2.286178">
        <ele>248.587</ele>
        <time>2021-02-13T11:45:59Z</time>
      </trkpt>
      <trkpt lat="41.683296" lon="2.286078">
        <ele>247.964</ele>
        <time>2021-02-13T11:46:03Z</time>
      </trkpt>
      <trkpt lat="41.683335" lon="2.286136">
        <ele>248.206</ele>
        <time>2021-02-13T11:46:09Z</time>
      </trkpt>
      <trkpt lat="41.683288" lon="2.285980">
        <ele>247.516</ele>
        <time>2021-02-13T11:46:42Z</time>
      </trkpt>
      <trkpt lat="41.683200" lon="2.285911">
        <ele>246.908</ele>
        <time>2021-02-13T11:46:46Z</time>
      </trkpt>
      <trkpt lat="41.683093" lon="2.285494">
        <ele>245.122</ele>
        <time>2021-02-13T11:46:55Z</time>
      </trkpt>
      <trkpt lat="41.683051" lon="2.282583">
        <ele>236.631</ele>
        <time>2021-02-13T11:47:50Z</time>
      </trkpt>
      <trkpt lat="41.683144" lon="2.282576">
        <ele>236.292</ele>
        <time>2021-02-13T11:47:58Z</time>
      </trkpt>
      <trkpt lat="41.683804" lon="2.282609">
        <ele>235.841</ele>
        <time>2021-02-13T11:48:06Z</time>
      </trkpt>
      <trkpt lat="41.683877" lon="2.282597">
        <ele>235.774</ele>
        <time>2021-02-13T11:48:15Z</time>
      </trkpt>
      <trkpt lat="41.683952" lon="2.282607">
        <ele>236.176</ele>
        <time>2021-02-13T11:48:31Z</time>
      </trkpt>
      <trkpt lat="41.683943" lon="2.282432">
        <ele>234.936</ele>
        <time>2021-02-13T11:48:46Z</time>
      </trkpt>
      <trkpt lat="41.683927" lon="2.282488">
        <ele>235.132</ele>
        <time>2021-02-13T11:48:47Z</time>
      </trkpt>
      <trkpt lat="41.683913" lon="2.282326">
        <ele>234.441</ele>
        <time>2021-02-13T11:48:52Z</time>
      </trkpt>
      <trkpt lat="41.683991" lon="2.282071">
        <ele>234.081</ele>
        <time>2021-02-13T11:48:57Z</time>
      </trkpt>
      <trkpt lat="41.684733" lon="2.281155">
        <ele>238.009</ele>
        <time>2021-02-13T11:49:24Z</time>
      </trkpt>
      <trkpt lat="41.685088" lon="2.280698">
        <ele>237.308</ele>
        <time>2021-02-13T11:49:33Z</time>
      </trkpt>
      <trkpt lat="41.685260" lon="2.280645">
        <ele>237.020</ele>
        <time>2021-02-13T11:49:41Z</time>
      </trkpt>
      <trkpt lat="41.685450" lon="2.280265">
        <ele>238.049</ele>
        <time>2021-02-13T11:49:46Z</time>
      </trkpt>
      <trkpt lat="41.685426" lon="2.280188">
        <ele>238.330</ele>
        <time>2021-02-13T11:49:51Z</time>
      </trkpt>
      <trkpt lat="41.685654" lon="2.279987">
        <ele>239.469</ele>
        <time>2021-02-13T11:50:00Z</time>
      </trkpt>
      <trkpt lat="41.686453" lon="2.279262">
        <ele>247.242</ele>
        <time>2021-02-13T11:50:27Z</time>
      </trkpt>
      <trkpt lat="41.686612" lon="2.279290">
        <ele>247.834</ele>
        <time>2021-02-13T11:50:35Z</time>
      </trkpt>
      <trkpt lat="41.686684" lon="2.279284">
        <ele>248.044</ele>
        <time>2021-02-13T11:50:40Z</time>
      </trkpt>
      <trkpt lat="41.686734" lon="2.279272">
        <ele>248.210</ele>
        <time>2021-02-13T11:50:45Z</time>
      </trkpt>
      <trkpt lat="41.687125" lon="2.279266">
        <ele>248.416</ele>
        <time>2021-02-13T11:51:01Z</time>
      </trkpt>
      <trkpt lat="41.688560" lon="2.279119">
        <ele>259.076</ele>
        <time>2021-02-13T11:51:39Z</time>
      </trkpt>
      <trkpt lat="41.688696" lon="2.278995">
        <ele>260.913</ele>
        <time>2021-02-13T11:51:48Z</time>
      </trkpt>
      <trkpt lat="41.688722" lon="2.279064">
        <ele>260.108</ele>
        <time>2021-02-13T11:51:57Z</time>
      </trkpt>
      <trkpt lat="41.688670" lon="2.279050">
        <ele>260.337</ele>
        <time>2021-02-13T11:52:15Z</time>
      </trkpt>
      <trkpt lat="41.688576" lon="2.279036">
        <ele>260.066</ele>
        <time>2021-02-13T11:52:42Z</time>
      </trkpt>
      <trkpt lat="41.688600" lon="2.279106">
        <ele>259.527</ele>
        <time>2021-02-13T11:52:51Z</time>
      </trkpt>
      <trkpt lat="41.689722" lon="2.280146">
        <ele>250.526</ele>
        <time>2021-02-13T11:53:45Z</time>
      </trkpt>
      <trkpt lat="41.690123" lon="2.280342">
        <ele>252.719</ele>
        <time>2021-02-13T11:53:52Z</time>
      </trkpt>
      <trkpt lat="41.690241" lon="2.280380">
        <ele>253.411</ele>
        <time>2021-02-13T11:53:57Z</time>
      </trkpt>
      <trkpt lat="41.690390" lon="2.280250">
        <ele>254.931</ele>
        <time>2021-02-13T11:54:02Z</time>
      </trkpt>
      <trkpt lat="41.690514" lon="2.280151">
        <ele>256.517</ele>
        <time>2021-02-13T11:54:07Z</time>
      </trkpt>
      <trkpt lat="41.690655" lon="2.280201">
        <ele>257.726</ele>
        <time>2021-02-13T11:54:12Z</time>
      </trkpt>
      <trkpt lat="41.690902" lon="2.280327">
        <ele>259.447</ele>
        <time>2021-02-13T11:54:17Z</time>
      </trkpt>
      <trkpt lat="41.691117" lon="2.280525">
        <ele>258.811</ele>
        <time>2021-02-13T11:54:22Z</time>
      </trkpt>
      <trkpt lat="41.691326" lon="2.280656">
        <ele>259.808</ele>
        <time>2021-02-13T11:54:27Z</time>
      </trkpt>
      <trkpt lat="41.691476" lon="2.280810">
        <ele>258.868</ele>
        <time>2021-02-13T11:54:32Z</time>
      </trkpt>
      <trkpt lat="41.691613" lon="2.281021">
        <ele>256.647</ele>
        <time>2021-02-13T11:54:37Z</time>
      </trkpt>
      <trkpt lat="41.691778" lon="2.281214">
        <ele>255.348</ele>
        <time>2021-02-13T11:54:42Z</time>
      </trkpt>
      <trkpt lat="41.691871" lon="2.281346">
        <ele>253.747</ele>
        <time>2021-02-13T11:54:46Z</time>
      </trkpt>
      <trkpt lat="41.691944" lon="2.281673">
        <ele>250.090</ele>
        <time>2021-02-13T11:54:52Z</time>
      </trkpt>
      <trkpt lat="41.692068" lon="2.281943">
        <ele>249.942</ele>
        <time>2021-02-13T11:54:57Z</time>
      </trkpt>
      <trkpt lat="41.692196" lon="2.282201">
        <ele>250.842</ele>
        <time>2021-02-13T11:55:02Z</time>
      </trkpt>
      <trkpt lat="41.692277" lon="2.282389">
        <ele>251.788</ele>
        <time>2021-02-13T11:55:07Z</time>
      </trkpt>
      <trkpt lat="41.692536" lon="2.282459">
        <ele>254.479</ele>
        <time>2021-02-13T11:55:22Z</time>
      </trkpt>
      <trkpt lat="41.692667" lon="2.282514">
        <ele>255.105</ele>
        <time>2021-02-13T11:55:23Z</time>
      </trkpt>
      <trkpt lat="41.692974" lon="2.282606">
        <ele>253.925</ele>
        <time>2021-02-13T11:55:28Z</time>
      </trkpt>
      <trkpt lat="41.693134" lon="2.282642">
        <ele>252.408</ele>
        <time>2021-02-13T11:55:33Z</time>
      </trkpt>
      <trkpt lat="41.693434" lon="2.282699">
        <ele>250.663</ele>
        <time>2021-02-13T11:55:40Z</time>
      </trkpt>
      <trkpt lat="41.693703" lon="2.282628">
        <ele>251.262</ele>
        <time>2021-02-13T11:55:47Z</time>
      </trkpt>
      <trkpt lat="41.693816" lon="2.282415">
        <ele>252.423</ele>
        <time>2021-02-13T11:55:53Z</time>
      </trkpt>
      <trkpt lat="41.693975" lon="2.282245">
        <ele>253.252</ele>
        <time>2021-02-13T11:55:58Z</time>
      </trkpt>
      <trkpt lat="41.694241" lon="2.281942">
        <ele>257.855</ele>
        <time>2021-02-13T11:56:08Z</time>
      </trkpt>
      <trkpt lat="41.694390" lon="2.281708">
        <ele>262.557</ele>
        <time>2021-02-13T11:56:17Z</time>
      </trkpt>
      <trkpt lat="41.694473" lon="2.281630">
        <ele>263.967</ele>
        <time>2021-02-13T11:56:26Z</time>
      </trkpt>
      <trkpt lat="41.694598" lon="2.281601">
        <ele>264.613</ele>
        <time>2021-02-13T11:56:35Z</time>
      </trkpt>
      <trkpt lat="41.694737" lon="2.281573">
        <ele>265.085</ele>
        <time>2021-02-13T11:56:44Z</time>
      </trkpt>
      <trkpt lat="41.694968" lon="2.281578">
        <ele>265.089</ele>
        <time>2021-02-13T11:56:53Z</time>
      </trkpt>
      <trkpt lat="41.695253" lon="2.281605">
        <ele>265.417</ele>
        <time>2021-02-13T11:57:02Z</time>
      </trkpt>
      <trkpt lat="41.695306" lon="2.281248">
        <ele>269.508</ele>
        <time>2021-02-13T11:57:20Z</time>
      </trkpt>
      <trkpt lat="41.695252" lon="2.280855">
        <ele>275.544</ele>
        <time>2021-02-13T11:57:29Z</time>
      </trkpt>
      <trkpt lat="41.695185" lon="2.280834">
        <ele>275.373</ele>
        <time>2021-02-13T11:57:38Z</time>
      </trkpt>
      <trkpt lat="41.695121" lon="2.280492">
        <ele>278.864</ele>
        <time>2021-02-13T11:57:47Z</time>
      </trkpt>
      <trkpt lat="41.695211" lon="2.280223">
        <ele>281.253</ele>
        <time>2021-02-13T11:57:56Z</time>
      </trkpt>
      <trkpt lat="41.695324" lon="2.279990">
        <ele>282.146</ele>
        <time>2021-02-13T11:58:05Z</time>
      </trkpt>
      <trkpt lat="41.695374" lon="2.279889">
        <ele>283.658</ele>
        <time>2021-02-13T11:58:11Z</time>
      </trkpt>
      <trkpt lat="41.695430" lon="2.279802">
        <ele>284.988</ele>
        <time>2021-02-13T11:58:15Z</time>
      </trkpt>
      <trkpt lat="41.695645" lon="2.279486">
        <ele>287.184</ele>
        <time>2021-02-13T11:58:24Z</time>
      </trkpt>
      <trkpt lat="41.695750" lon="2.279299">
        <ele>286.993</ele>
        <time>2021-02-13T11:58:32Z</time>
      </trkpt>
      <trkpt lat="41.696044" lon="2.278775">
        <ele>286.265</ele>
        <time>2021-02-13T11:58:50Z</time>
      </trkpt>
      <trkpt lat="41.696515" lon="2.277728">
        <ele>292.621</ele>
        <time>2021-02-13T11:59:18Z</time>
      </trkpt>
      <trkpt lat="41.696601" lon="2.277626">
        <ele>292.908</ele>
        <time>2021-02-13T11:59:21Z</time>
      </trkpt>
      <trkpt lat="41.696674" lon="2.277572">
        <ele>293.115</ele>
        <time>2021-02-13T11:59:24Z</time>
      </trkpt>
      <trkpt lat="41.696735" lon="2.277561">
        <ele>293.544</ele>
        <time>2021-02-13T11:59:27Z</time>
      </trkpt>
      <trkpt lat="41.696810" lon="2.277538">
        <ele>294.025</ele>
        <time>2021-02-13T11:59:29Z</time>
      </trkpt>
      <trkpt lat="41.696951" lon="2.277511">
        <ele>295.184</ele>
        <time>2021-02-13T11:59:34Z</time>
      </trkpt>
      <trkpt lat="41.697037" lon="2.277521">
        <ele>296.957</ele>
        <time>2021-02-13T11:59:37Z</time>
      </trkpt>
      <trkpt lat="41.697094" lon="2.277559">
        <ele>298.029</ele>
        <time>2021-02-13T11:59:39Z</time>
      </trkpt>
      <trkpt lat="41.697180" lon="2.277562">
        <ele>299.789</ele>
        <time>2021-02-13T11:59:42Z</time>
      </trkpt>
      <trkpt lat="41.697263" lon="2.277400">
        <ele>302.025</ele>
        <time>2021-02-13T11:59:49Z</time>
      </trkpt>
      <trkpt lat="41.697395" lon="2.277371">
        <ele>304.222</ele>
        <time>2021-02-13T11:59:54Z</time>
      </trkpt>
      <trkpt lat="41.697510" lon="2.277280">
        <ele>306.862</ele>
        <time>2021-02-13T11:59:59Z</time>
      </trkpt>
      <trkpt lat="41.697324" lon="2.277195">
        <ele>304.108</ele>
        <time>2021-02-13T12:00:04Z</time>
      </trkpt>
      <trkpt lat="41.697277" lon="2.277322">
        <ele>302.608</ele>
        <time>2021-02-13T12:00:09Z</time>
      </trkpt>
      <trkpt lat="41.697251" lon="2.277387">
        <ele>301.948</ele>
        <time>2021-02-13T12:00:14Z</time>
      </trkpt>
      <trkpt lat="41.697277" lon="2.277544">
        <ele>301.587</ele>
        <time>2021-02-13T12:00:19Z</time>
      </trkpt>
      <trkpt lat="41.697482" lon="2.277715">
        <ele>303.228</ele>
        <time>2021-02-13T12:00:24Z</time>
      </trkpt>
      <trkpt lat="41.697481" lon="2.277902">
        <ele>301.937</ele>
        <time>2021-02-13T12:00:29Z</time>
      </trkpt>
      <trkpt lat="41.697581" lon="2.277958">
        <ele>303.280</ele>
        <time>2021-02-13T12:00:34Z</time>
      </trkpt>
      <trkpt lat="41.697690" lon="2.278056">
        <ele>304.432</ele>
        <time>2021-02-13T12:00:39Z</time>
      </trkpt>
      <trkpt lat="41.697841" lon="2.277937">
        <ele>307.542</ele>
        <time>2021-02-13T12:00:44Z</time>
      </trkpt>
      <trkpt lat="41.697867" lon="2.277782">
        <ele>308.948</ele>
        <time>2021-02-13T12:00:49Z</time>
      </trkpt>
      <trkpt lat="41.697890" lon="2.277902">
        <ele>308.367</ele>
        <time>2021-02-13T12:00:54Z</time>
      </trkpt>
      <trkpt lat="41.697999" lon="2.277948">
        <ele>309.281</ele>
        <time>2021-02-13T12:01:18Z</time>
      </trkpt>
      <trkpt lat="41.698046" lon="2.277910">
        <ele>309.919</ele>
        <time>2021-02-13T12:01:27Z</time>
      </trkpt>
      <trkpt lat="41.698058" lon="2.277978">
        <ele>309.608</ele>
        <time>2021-02-13T12:02:53Z</time>
      </trkpt>
      <trkpt lat="41.698015" lon="2.278013">
        <ele>308.912</ele>
        <time>2021-02-13T12:03:08Z</time>
      </trkpt>
      <trkpt lat="41.697983" lon="2.277736">
        <ele>310.631</ele>
        <time>2021-02-13T12:03:18Z</time>
      </trkpt>
      <trkpt lat="41.697974" lon="2.277811">
        <ele>309.992</ele>
        <time>2021-02-13T12:03:28Z</time>
      </trkpt>
      <trkpt lat="41.698021" lon="2.277572">
        <ele>312.881</ele>
        <time>2021-02-13T12:04:03Z</time>
      </trkpt>
      <trkpt lat="41.698071" lon="2.277351">
        <ele>315.814</ele>
        <time>2021-02-13T12:04:08Z</time>
      </trkpt>
      <trkpt lat="41.698126" lon="2.277104">
        <ele>319.046</ele>
        <time>2021-02-13T12:04:13Z</time>
      </trkpt>
      <trkpt lat="41.698174" lon="2.276862">
        <ele>321.986</ele>
        <time>2021-02-13T12:04:18Z</time>
      </trkpt>
      <trkpt lat="41.698219" lon="2.276648">
        <ele>324.482</ele>
        <time>2021-02-13T12:04:23Z</time>
      </trkpt>
      <trkpt lat="41.698341" lon="2.276249">
        <ele>328.184</ele>
        <time>2021-02-13T12:04:35Z</time>
      </trkpt>
      <trkpt lat="41.698391" lon="2.276117">
        <ele>329.807</ele>
        <time>2021-02-13T12:04:44Z</time>
      </trkpt>
      <trkpt lat="41.698463" lon="2.275802">
        <ele>333.117</ele>
        <time>2021-02-13T12:04:53Z</time>
      </trkpt>
      <trkpt lat="41.698506" lon="2.275598">
        <ele>335.708</ele>
        <time>2021-02-13T12:04:59Z</time>
      </trkpt>
      <trkpt lat="41.698529" lon="2.275416">
        <ele>337.524</ele>
        <time>2021-02-13T12:05:04Z</time>
      </trkpt>
      <trkpt lat="41.698539" lon="2.275181">
        <ele>339.483</ele>
        <time>2021-02-13T12:05:11Z</time>
      </trkpt>
      <trkpt lat="41.698479" lon="2.274340">
        <ele>347.134</ele>
        <time>2021-02-13T12:05:38Z</time>
      </trkpt>
      <trkpt lat="41.698475" lon="2.274246">
        <ele>347.863</ele>
        <time>2021-02-13T12:05:43Z</time>
      </trkpt>
      <trkpt lat="41.698473" lon="2.274175">
        <ele>348.476</ele>
        <time>2021-02-13T12:05:48Z</time>
      </trkpt>
      <trkpt lat="41.698447" lon="2.274049">
        <ele>349.638</ele>
        <time>2021-02-13T12:05:53Z</time>
      </trkpt>
      <trkpt lat="41.698450" lon="2.273988">
        <ele>350.418</ele>
        <time>2021-02-13T12:05:58Z</time>
      </trkpt>
      <trkpt lat="41.698424" lon="2.273829">
        <ele>352.064</ele>
        <time>2021-02-13T12:06:05Z</time>
      </trkpt>
      <trkpt lat="41.698500" lon="2.273596">
        <ele>355.362</ele>
        <time>2021-02-13T12:06:23Z</time>
      </trkpt>
      <trkpt lat="41.698548" lon="2.273590">
        <ele>355.783</ele>
        <time>2021-02-13T12:06:26Z</time>
      </trkpt>
      <trkpt lat="41.698415" lon="2.273154">
        <ele>357.911</ele>
        <time>2021-02-13T12:06:30Z</time>
      </trkpt>
      <trkpt lat="41.698258" lon="2.272801">
        <ele>362.508</ele>
        <time>2021-02-13T12:06:34Z</time>
      </trkpt>
      <trkpt lat="41.698158" lon="2.272584">
        <ele>367.182</ele>
        <time>2021-02-13T12:06:36Z</time>
      </trkpt>
      <trkpt lat="41.698028" lon="2.272542">
        <ele>369.371</ele>
        <time>2021-02-13T12:06:40Z</time>
      </trkpt>
      <trkpt lat="41.698014" lon="2.272427">
        <ele>371.322</ele>
        <time>2021-02-13T12:06:43Z</time>
      </trkpt>
      <trkpt lat="41.697962" lon="2.272428">
        <ele>371.641</ele>
        <time>2021-02-13T12:06:45Z</time>
      </trkpt>
      <trkpt lat="41.697901" lon="2.272411">
        <ele>372.424</ele>
        <time>2021-02-13T12:06:48Z</time>
      </trkpt>
      <trkpt lat="41.697837" lon="2.272405">
        <ele>373.086</ele>
        <time>2021-02-13T12:06:51Z</time>
      </trkpt>
      <trkpt lat="41.697713" lon="2.272386">
        <ele>373.616</ele>
        <time>2021-02-13T12:06:55Z</time>
      </trkpt>
      <trkpt lat="41.697644" lon="2.272347">
        <ele>374.422</ele>
        <time>2021-02-13T12:06:58Z</time>
      </trkpt>
      <trkpt lat="41.697574" lon="2.272310">
        <ele>375.112</ele>
        <time>2021-02-13T12:07:00Z</time>
      </trkpt>
      <trkpt lat="41.697505" lon="2.272258">
        <ele>376.132</ele>
        <time>2021-02-13T12:07:03Z</time>
      </trkpt>
      <trkpt lat="41.697432" lon="2.272213">
        <ele>377.705</ele>
        <time>2021-02-13T12:07:06Z</time>
      </trkpt>
      <trkpt lat="41.697324" lon="2.272157">
        <ele>379.808</ele>
        <time>2021-02-13T12:07:10Z</time>
      </trkpt>
      <trkpt lat="41.697191" lon="2.272079">
        <ele>382.067</ele>
        <time>2021-02-13T12:07:15Z</time>
      </trkpt>
      <trkpt lat="41.697115" lon="2.272043">
        <ele>382.526</ele>
        <time>2021-02-13T12:07:18Z</time>
      </trkpt>
      <trkpt lat="41.697044" lon="2.272010">
        <ele>382.997</ele>
        <time>2021-02-13T12:07:21Z</time>
      </trkpt>
      <trkpt lat="41.696916" lon="2.271970">
        <ele>382.996</ele>
        <time>2021-02-13T12:07:25Z</time>
      </trkpt>
      <trkpt lat="41.696865" lon="2.271906">
        <ele>383.439</ele>
        <time>2021-02-13T12:07:28Z</time>
      </trkpt>
      <trkpt lat="41.696863" lon="2.271822">
        <ele>385.361</ele>
        <time>2021-02-13T12:07:30Z</time>
      </trkpt>
      <trkpt lat="41.696919" lon="2.271774">
        <ele>387.391</ele>
        <time>2021-02-13T12:07:33Z</time>
      </trkpt>
      <trkpt lat="41.696968" lon="2.271742">
        <ele>388.537</ele>
        <time>2021-02-13T12:07:35Z</time>
      </trkpt>
      <trkpt lat="41.697062" lon="2.271656">
        <ele>390.732</ele>
        <time>2021-02-13T12:07:40Z</time>
      </trkpt>
      <trkpt lat="41.697165" lon="2.271562">
        <ele>393.192</ele>
        <time>2021-02-13T12:07:45Z</time>
      </trkpt>
      <trkpt lat="41.697280" lon="2.271459">
        <ele>395.111</ele>
        <time>2021-02-13T12:07:50Z</time>
      </trkpt>
      <trkpt lat="41.697381" lon="2.271243">
        <ele>398.508</ele>
        <time>2021-02-13T12:07:57Z</time>
      </trkpt>
      <trkpt lat="41.697410" lon="2.271135">
        <ele>400.239</ele>
        <time>2021-02-13T12:08:02Z</time>
      </trkpt>
      <trkpt lat="41.697508" lon="2.270934">
        <ele>401.828</ele>
        <time>2021-02-13T12:08:10Z</time>
      </trkpt>
      <trkpt lat="41.697592" lon="2.270732">
        <ele>402.429</ele>
        <time>2021-02-13T12:08:19Z</time>
      </trkpt>
      <trkpt lat="41.697572" lon="2.270591">
        <ele>404.538</ele>
        <time>2021-02-13T12:08:24Z</time>
      </trkpt>
      <trkpt lat="41.697378" lon="2.270191">
        <ele>416.891</ele>
        <time>2021-02-13T12:08:46Z</time>
      </trkpt>
      <trkpt lat="41.697416" lon="2.270087">
        <ele>417.223</ele>
        <time>2021-02-13T12:08:52Z</time>
      </trkpt>
      <trkpt lat="41.697463" lon="2.270043">
        <ele>416.443</ele>
        <time>2021-02-13T12:08:57Z</time>
      </trkpt>
      <trkpt lat="41.697539" lon="2.270030">
        <ele>414.079</ele>
        <time>2021-02-13T12:09:07Z</time>
      </trkpt>
      <trkpt lat="41.697489" lon="2.269822">
        <ele>417.659</ele>
        <time>2021-02-13T12:09:31Z</time>
      </trkpt>
      <trkpt lat="41.697471" lon="2.269623">
        <ele>420.103</ele>
        <time>2021-02-13T12:09:40Z</time>
      </trkpt>
      <trkpt lat="41.697313" lon="2.269444">
        <ele>427.723</ele>
        <time>2021-02-13T12:09:45Z</time>
      </trkpt>
      <trkpt lat="41.697140" lon="2.269319">
        <ele>434.108</ele>
        <time>2021-02-13T12:09:52Z</time>
      </trkpt>
      <trkpt lat="41.696977" lon="2.269272">
        <ele>437.651</ele>
        <time>2021-02-13T12:09:56Z</time>
      </trkpt>
      <trkpt lat="41.696837" lon="2.269262">
        <ele>440.310</ele>
        <time>2021-02-13T12:10:01Z</time>
      </trkpt>
      <trkpt lat="41.696685" lon="2.269307">
        <ele>442.111</ele>
        <time>2021-02-13T12:10:06Z</time>
      </trkpt>
      <trkpt lat="41.696580" lon="2.269352">
        <ele>443.190</ele>
        <time>2021-02-13T12:10:11Z</time>
      </trkpt>
      <trkpt lat="41.696477" lon="2.269418">
        <ele>443.253</ele>
        <time>2021-02-13T12:10:16Z</time>
      </trkpt>
      <trkpt lat="41.696340" lon="2.269446">
        <ele>444.335</ele>
        <time>2021-02-13T12:10:21Z</time>
      </trkpt>
      <trkpt lat="41.696193" lon="2.269444">
        <ele>445.445</ele>
        <time>2021-02-13T12:10:27Z</time>
      </trkpt>
      <trkpt lat="41.696091" lon="2.269437">
        <ele>446.411</ele>
        <time>2021-02-13T12:10:31Z</time>
      </trkpt>
      <trkpt lat="41.695974" lon="2.269430">
        <ele>447.526</ele>
        <time>2021-02-13T12:10:34Z</time>
      </trkpt>
      <trkpt lat="41.695832" lon="2.269423">
        <ele>448.747</ele>
        <time>2021-02-13T12:10:37Z</time>
      </trkpt>
      <trkpt lat="41.695685" lon="2.269444">
        <ele>448.011</ele>
        <time>2021-02-13T12:10:41Z</time>
      </trkpt>
      <trkpt lat="41.695557" lon="2.269493">
        <ele>446.608</ele>
        <time>2021-02-13T12:10:44Z</time>
      </trkpt>
      <trkpt lat="41.695423" lon="2.269544">
        <ele>444.578</ele>
        <time>2021-02-13T12:10:47Z</time>
      </trkpt>
      <trkpt lat="41.695266" lon="2.269569">
        <ele>443.257</ele>
        <time>2021-02-13T12:10:51Z</time>
      </trkpt>
      <trkpt lat="41.695138" lon="2.269574">
        <ele>441.938</ele>
        <time>2021-02-13T12:10:54Z</time>
      </trkpt>
      <trkpt lat="41.695031" lon="2.269550">
        <ele>441.227</ele>
        <time>2021-02-13T12:10:56Z</time>
      </trkpt>
      <trkpt lat="41.695064" lon="2.269419">
        <ele>443.360</ele>
        <time>2021-02-13T12:11:01Z</time>
      </trkpt>
      <trkpt lat="41.695237" lon="2.269357">
        <ele>447.212</ele>
        <time>2021-02-13T12:11:07Z</time>
      </trkpt>
      <trkpt lat="41.695322" lon="2.269306">
        <ele>449.422</ele>
        <time>2021-02-13T12:11:12Z</time>
      </trkpt>
      <trkpt lat="41.695393" lon="2.269269">
        <ele>450.948</ele>
        <time>2021-02-13T12:11:17Z</time>
      </trkpt>
      <trkpt lat="41.695457" lon="2.269237">
        <ele>452.382</ele>
        <time>2021-02-13T12:11:22Z</time>
      </trkpt>
      <trkpt lat="41.695564" lon="2.269179">
        <ele>454.743</ele>
        <time>2021-02-13T12:11:27Z</time>
      </trkpt>
      <trkpt lat="41.695705" lon="2.269134">
        <ele>457.017</ele>
        <time>2021-02-13T12:11:34Z</time>
      </trkpt>
      <trkpt lat="41.695827" lon="2.269110">
        <ele>458.608</ele>
        <time>2021-02-13T12:11:39Z</time>
      </trkpt>
      <trkpt lat="41.695944" lon="2.269077">
        <ele>458.764</ele>
        <time>2021-02-13T12:11:45Z</time>
      </trkpt>
      <trkpt lat="41.694821" lon="2.284600">
        <ele>252.887</ele>
        <time>2022-10-23T08:36:19Z</time>
      </trkpt>
      <trkpt lat="41.694821" lon="2.284601">
        <ele>252.842</ele>
        <time>2022-10-23T08:36:20Z</time>
      </trkpt>
      <trkpt lat="41.694835" lon="2.284531">
        <ele>252.826</ele>
        <time>2022-10-23T08:36:27Z</time>
      </trkpt>
      <trkpt lat="41.694835" lon="2.284508">
        <ele>252.809</ele>
        <time>2022-10-23T08:36:28Z</time>
      </trkpt>
      <trkpt lat="41.694830" lon="2.284488">
        <ele>252.849</ele>
        <time>2022-10-23T08:36:29Z</time>
      </trkpt>
      <trkpt lat="41.694821" lon="2.284472">
        <ele>252.879</ele>
        <time>2022-10-23T08:36:30Z</time>
      </trkpt>
      <trkpt lat="41.694804" lon="2.284458">
        <ele>252.885</ele>
        <time>2022-10-23T08:36:31Z</time>
      </trkpt>
      <trkpt lat="41.694786" lon="2.284456">
        <ele>252.858</ele>
        <time>2022-10-23T08:36:32Z</time>
      </trkpt>
      <trkpt lat="41.694768" lon="2.284460">
        <ele>252.844</ele>
        <time>2022-10-23T08:36:33Z</time>
      </trkpt>
      <trkpt lat="41.694751" lon="2.284467">
        <ele>252.852</ele>
        <time>2022-10-23T08:36:34Z</time>
      </trkpt>
      <trkpt lat="41.694730" lon="2.284470">
        <ele>252.858</ele>
        <time>2022-10-23T08:36:35Z</time>
      </trkpt>
      <trkpt lat="41.694708" lon="2.284472">
        <ele>252.858</ele>
        <time>2022-10-23T08:36:36Z</time>
      </trkpt>
      <trkpt lat="41.694687" lon="2.284475">
        <ele>252.821</ele>
        <time>2022-10-23T08:36:37Z</time>
      </trkpt>
      <trkpt lat="41.694666" lon="2.284477">
        <ele>252.853</ele>
        <time>2022-10-23T08:36:38Z</time>
      </trkpt>
      <trkpt lat="41.694643" lon="2.284478">
        <ele>252.804</ele>
        <time>2022-10-23T08:36:39Z</time>
      </trkpt>
      <trkpt lat="41.694619" lon="2.284474">
        <ele>252.814</ele>
        <time>2022-10-23T08:36:40Z</time>
      </trkpt>
      <trkpt lat="41.694595" lon="2.284467">
        <ele>252.609</ele>
        <time>2022-10-23T08:36:41Z</time>
      </trkpt>
      <trkpt lat="41.694570" lon="2.284462">
        <ele>252.616</ele>
        <time>2022-10-23T08:36:42Z</time>
      </trkpt>
      <trkpt lat="41.694543" lon="2.284457">
        <ele>252.666</ele>
        <time>2022-10-23T08:36:43Z</time>
      </trkpt>
      <trkpt lat="41.694517" lon="2.284450">
        <ele>252.482</ele>
        <time>2022-10-23T08:36:44Z</time>
      </trkpt>
      <trkpt lat="41.694497" lon="2.284436">
        <ele>252.415</ele>
        <time>2022-10-23T08:36:45Z</time>
      </trkpt>
      <trkpt lat="41.694479" lon="2.284417">
        <ele>252.491</ele>
        <time>2022-10-23T08:36:46Z</time>
      </trkpt>
      <trkpt lat="41.694460" lon="2.284398">
        <ele>252.429</ele>
        <time>2022-10-23T08:36:47Z</time>
      </trkpt>
      <trkpt lat="41.694441" lon="2.284380">
        <ele>252.235</ele>
        <time>2022-10-23T08:36:48Z</time>
      </trkpt>
      <trkpt lat="41.694425" lon="2.284360">
        <ele>252.245</ele>
        <time>2022-10-23T08:36:49Z</time>
      </trkpt>
      <trkpt lat="41.694413" lon="2.284339">
        <ele>252.288</ele>
        <time>2022-10-23T08:36:50Z</time>
      </trkpt>
      <trkpt lat="41.694402" lon="2.284316">
        <ele>252.276</ele>
        <time>2022-10-23T08:36:51Z</time>
      </trkpt>
      <trkpt lat="41.694389" lon="2.284299">
        <ele>252.090</ele>
        <time>2022-10-23T08:36:52Z</time>
      </trkpt>
      <trkpt lat="41.694379" lon="2.284275">
        <ele>252.019</ele>
        <time>2022-10-23T08:36:53Z</time>
      </trkpt>
      <trkpt lat="41.694371" lon="2.284251">
        <ele>252.009</ele>
        <time>2022-10-23T08:36:54Z</time>
      </trkpt>
      <trkpt lat="41.694363" lon="2.284223">
        <ele>252.098</ele>
        <time>2022-10-23T08:36:55Z</time>
      </trkpt>
      <trkpt lat="41.694354" lon="2.284191">
        <ele>252.088</ele>
        <time>2022-10-23T08:36:56Z</time>
      </trkpt>
      <trkpt lat="41.694343" lon="2.284161">
        <ele>252.094</ele>
        <time>2022-10-23T08:36:57Z</time>
      </trkpt>
      <trkpt lat="41.694334" lon="2.284125">
        <ele>252.047</ele>
        <time>2022-10-23T08:36:58Z</time>
      </trkpt>
      <trkpt lat="41.694327" lon="2.284084">
        <ele>252.013</ele>
        <time>2022-10-23T08:36:59Z</time>
      </trkpt>
      <trkpt lat="41.694322" lon="2.284047">
        <ele>251.871</ele>
        <time>2022-10-23T08:37:00Z</time>
      </trkpt>
      <trkpt lat="41.694313" lon="2.284017">
        <ele>251.817</ele>
        <time>2022-10-23T08:37:01Z</time>
      </trkpt>
      <trkpt lat="41.694299" lon="2.283995">
        <ele>251.867</ele>
        <time>2022-10-23T08:37:02Z</time>
      </trkpt>
      <trkpt lat="41.694283" lon="2.283972">
        <ele>251.860</ele>
        <time>2022-10-23T08:37:03Z</time>
      </trkpt>
      <trkpt lat="41.694269" lon="2.283946">
        <ele>251.818</ele>
        <time>2022-10-23T08:37:04Z</time>
      </trkpt>
      <trkpt lat="41.694254" lon="2.283916">
        <ele>251.898</ele>
        <time>2022-10-23T08:37:05Z</time>
      </trkpt>
      <trkpt lat="41.694235" lon="2.283883">
        <ele>251.817</ele>
        <time>2022-10-23T08:37:06Z</time>
      </trkpt>
      <trkpt lat="41.694206" lon="2.283849">
        <ele>251.809</ele>
        <time>2022-10-23T08:37:07Z</time>
      </trkpt>
      <trkpt lat="41.694170" lon="2.283818">
        <ele>251.842</ele>
        <time>2022-10-23T08:37:08Z</time>
      </trkpt>
      <trkpt lat="41.694132" lon="2.283789">
        <ele>251.862</ele>
        <time>2022-10-23T08:37:09Z</time>
      </trkpt>
      <trkpt lat="41.694091" lon="2.283757">
        <ele>251.848</ele>
        <time>2022-10-23T08:37:10Z</time>
      </trkpt>
      <trkpt lat="41.694052" lon="2.283723">
        <ele>251.841</ele>
        <time>2022-10-23T08:37:11Z</time>
      </trkpt>
      <trkpt lat="41.694015" lon="2.283686">
        <ele>251.887</ele>
        <time>2022-10-23T08:37:12Z</time>
      </trkpt>
      <trkpt lat="41.693980" lon="2.283647">
        <ele>251.845</ele>
        <time>2022-10-23T08:37:13Z</time>
      </trkpt>
      <trkpt lat="41.693948" lon="2.283607">
        <ele>251.621</ele>
        <time>2022-10-23T08:37:14Z</time>
      </trkpt>
      <trkpt lat="41.693916" lon="2.283565">
        <ele>251.631</ele>
        <time>2022-10-23T08:37:15Z</time>
      </trkpt>
      <trkpt lat="41.693886" lon="2.283524">
        <ele>251.494</ele>
        <time>2022-10-23T08:37:16Z</time>
      </trkpt>
      <trkpt lat="41.693853" lon="2.283484">
        <ele>251.295</ele>
        <time>2022-10-23T08:37:17Z</time>
      </trkpt>
      <trkpt lat="41.693818" lon="2.283446">
        <ele>251.049</ele>
        <time>2022-10-23T08:37:18Z</time>
      </trkpt>
      <trkpt lat="41.693793" lon="2.283405">
        <ele>251.023</ele>
        <time>2022-10-23T08:37:19Z</time>
      </trkpt>
      <trkpt lat="41.693780" lon="2.283357">
        <ele>251.009</ele>
        <time>2022-10-23T08:37:20Z</time>
      </trkpt>
      <trkpt lat="41.693776" lon="2.283307">
        <ele>251.020</ele>
        <time>2022-10-23T08:37:21Z</time>
      </trkpt>
      <trkpt lat="41.693776" lon="2.283260">
        <ele>251.090</ele>
        <time>2022-10-23T08:37:22Z</time>
      </trkpt>
      <trkpt lat="41.693778" lon="2.283214">
        <ele>251.026</ele>
        <time>2022-10-23T08:37:23Z</time>
      </trkpt>
      <trkpt lat="41.693780" lon="2.283170">
        <ele>251.049</ele>
        <time>2022-10-23T08:37:24Z</time>
      </trkpt>
      <trkpt lat="41.693782" lon="2.283129">
        <ele>251.035</ele>
        <time>2022-10-23T08:37:25Z</time>
      </trkpt>
      <trkpt lat="41.693787" lon="2.283090">
        <ele>251.053</ele>
        <time>2022-10-23T08:37:26Z</time>
      </trkpt>
      <trkpt lat="41.693791" lon="2.283052">
        <ele>251.039</ele>
        <time>2022-10-23T08:37:27Z</time>
      </trkpt>
      <trkpt lat="41.693793" lon="2.283012">
        <ele>251.019</ele>
        <time>2022-10-23T08:37:28Z</time>
      </trkpt>
      <trkpt lat="41.693795" lon="2.282968">
        <ele>251.092</ele>
        <time>2022-10-23T08:37:29Z</time>
      </trkpt>
      <trkpt lat="41.693798" lon="2.282926">
        <ele>251.293</ele>
        <time>2022-10-23T08:37:30Z</time>
      </trkpt>
      <trkpt lat="41.693797" lon="2.282887">
        <ele>251.465</ele>
        <time>2022-10-23T08:37:31Z</time>
      </trkpt>
      <trkpt lat="41.693791" lon="2.282851">
        <ele>251.621</ele>
        <time>2022-10-23T08:37:32Z</time>
      </trkpt>
      <trkpt lat="41.693783" lon="2.282816">
        <ele>251.809</ele>
        <time>2022-10-23T08:37:33Z</time>
      </trkpt>
      <trkpt lat="41.693769" lon="2.282782">
        <ele>252.030</ele>
        <time>2022-10-23T08:37:34Z</time>
      </trkpt>
      <trkpt lat="41.693748" lon="2.282755">
        <ele>252.660</ele>
        <time>2022-10-23T08:37:35Z</time>
      </trkpt>
      <trkpt lat="41.693720" lon="2.282738">
        <ele>252.816</ele>
        <time>2022-10-23T08:37:36Z</time>
      </trkpt>
      <trkpt lat="41.693688" lon="2.282728">
        <ele>253.299</ele>
        <time>2022-10-23T08:37:37Z</time>
      </trkpt>
      <trkpt lat="41.693655" lon="2.282720">
        <ele>253.465</ele>
        <time>2022-10-23T08:37:38Z</time>
      </trkpt>
      <trkpt lat="41.693620" lon="2.282713">
        <ele>253.873</ele>
        <time>2022-10-23T08:37:39Z</time>
      </trkpt>
      <trkpt lat="41.693584" lon="2.282708">
        <ele>254.059</ele>
        <time>2022-10-23T08:37:40Z</time>
      </trkpt>
      <trkpt lat="41.693547" lon="2.282702">
        <ele>254.299</ele>
        <time>2022-10-23T08:37:41Z</time>
      </trkpt>
      <trkpt lat="41.693507" lon="2.282695">
        <ele>254.262</ele>
        <time>2022-10-23T08:37:42Z</time>
      </trkpt>
      <trkpt lat="41.693467" lon="2.282688">
        <ele>254.284</ele>
        <time>2022-10-23T08:37:43Z</time>
      </trkpt>
      <trkpt lat="41.693428" lon="2.282682">
        <ele>254.207</ele>
        <time>2022-10-23T08:37:44Z</time>
      </trkpt>
      <trkpt lat="41.693387" lon="2.282676">
        <ele>254.217</ele>
        <time>2022-10-23T08:37:45Z</time>
      </trkpt>
      <trkpt lat="41.693344" lon="2.282670">
        <ele>254.209</ele>
        <time>2022-10-23T08:37:46Z</time>
      </trkpt>
      <trkpt lat="41.693303" lon="2.282661">
        <ele>254.279</ele>
        <time>2022-10-23T08:37:47Z</time>
      </trkpt>
      <trkpt lat="41.693263" lon="2.282656">
        <ele>254.279</ele>
        <time>2022-10-23T08:37:48Z</time>
      </trkpt>
      <trkpt lat="41.693224" lon="2.282652">
        <ele>254.225</ele>
        <time>2022-10-23T08:37:49Z</time>
      </trkpt>
      <trkpt lat="41.693186" lon="2.282647">
        <ele>254.288</ele>
        <time>2022-10-23T08:37:50Z</time>
      </trkpt>
      <trkpt lat="41.693147" lon="2.282639">
        <ele>254.284</ele>
        <time>2022-10-23T08:37:51Z</time>
      </trkpt>
      <trkpt lat="41.693110" lon="2.282632">
        <ele>254.272</ele>
        <time>2022-10-23T08:37:52Z</time>
      </trkpt>
      <trkpt lat="41.693072" lon="2.282627">
        <ele>254.048</ele>
        <time>2022-10-23T08:37:53Z</time>
      </trkpt>
      <trkpt lat="41.693034" lon="2.282623">
        <ele>254.048</ele>
        <time>2022-10-23T08:37:54Z</time>
      </trkpt>
      <trkpt lat="41.692995" lon="2.282617">
        <ele>254.041</ele>
        <time>2022-10-23T08:37:55Z</time>
      </trkpt>
      <trkpt lat="41.692956" lon="2.282613">
        <ele>253.872</ele>
        <time>2022-10-23T08:37:56Z</time>
      </trkpt>
      <trkpt lat="41.692916" lon="2.282611">
        <ele>254.013</ele>
        <time>2022-10-23T08:37:57Z</time>
      </trkpt>
      <trkpt lat="41.692877" lon="2.282606">
        <ele>253.814</ele>
        <time>2022-10-23T08:37:58Z</time>
      </trkpt>
      <trkpt lat="41.692837" lon="2.282600">
        <ele>253.609</ele>
        <time>2022-10-23T08:37:59Z</time>
      </trkpt>
      <trkpt lat="41.692797" lon="2.282594">
        <ele>253.478</ele>
        <time>2022-10-23T08:38:00Z</time>
      </trkpt>
      <trkpt lat="41.692758" lon="2.282588">
        <ele>253.278</ele>
        <time>2022-10-23T08:38:01Z</time>
      </trkpt>
      <trkpt lat="41.692718" lon="2.282582">
        <ele>253.294</ele>
        <time>2022-10-23T08:38:02Z</time>
      </trkpt>
      <trkpt lat="41.692677" lon="2.282578">
        <ele>253.087</ele>
        <time>2022-10-23T08:38:03Z</time>
      </trkpt>
      <trkpt lat="41.692636" lon="2.282573">
        <ele>253.223</ele>
        <time>2022-10-23T08:38:04Z</time>
      </trkpt>
      <trkpt lat="41.692594" lon="2.282565">
        <ele>253.091</ele>
        <time>2022-10-23T08:38:05Z</time>
      </trkpt>
      <trkpt lat="41.692551" lon="2.282556">
        <ele>253.077</ele>
        <time>2022-10-23T08:38:06Z</time>
      </trkpt>
      <trkpt lat="41.692510" lon="2.282545">
        <ele>253.087</ele>
        <time>2022-10-23T08:38:07Z</time>
      </trkpt>
      <trkpt lat="41.692471" lon="2.282535">
        <ele>252.850</ele>
        <time>2022-10-23T08:38:08Z</time>
      </trkpt>
      <trkpt lat="41.692433" lon="2.282522">
        <ele>252.892</ele>
        <time>2022-10-23T08:38:09Z</time>
      </trkpt>
      <trkpt lat="41.692397" lon="2.282503">
        <ele>252.673</ele>
        <time>2022-10-23T08:38:10Z</time>
      </trkpt>
      <trkpt lat="41.692361" lon="2.282480">
        <ele>252.620</ele>
        <time>2022-10-23T08:38:11Z</time>
      </trkpt>
      <trkpt lat="41.692329" lon="2.282452">
        <ele>252.409</ele>
        <time>2022-10-23T08:38:12Z</time>
      </trkpt>
      <trkpt lat="41.692301" lon="2.282418">
        <ele>252.490</ele>
        <time>2022-10-23T08:38:13Z</time>
      </trkpt>
      <trkpt lat="41.692277" lon="2.282380">
        <ele>252.450</ele>
        <time>2022-10-23T08:38:14Z</time>
      </trkpt>
      <trkpt lat="41.692257" lon="2.282337">
        <ele>252.236</ele>
        <time>2022-10-23T08:38:15Z</time>
      </trkpt>
      <trkpt lat="41.692239" lon="2.282296">
        <ele>252.299</ele>
        <time>2022-10-23T08:38:16Z</time>
      </trkpt>
      <trkpt lat="41.692222" lon="2.282254">
        <ele>252.295</ele>
        <time>2022-10-23T08:38:17Z</time>
      </trkpt>
      <trkpt lat="41.692208" lon="2.282214">
        <ele>252.013</ele>
        <time>2022-10-23T08:38:18Z</time>
      </trkpt>
      <trkpt lat="41.692195" lon="2.282173">
        <ele>251.879</ele>
        <time>2022-10-23T08:38:19Z</time>
      </trkpt>
      <trkpt lat="41.692181" lon="2.282131">
        <ele>251.869</ele>
        <time>2022-10-23T08:38:20Z</time>
      </trkpt>
      <trkpt lat="41.692163" lon="2.282092">
        <ele>251.862</ele>
        <time>2022-10-23T08:38:21Z</time>
      </trkpt>
      <trkpt lat="41.692149" lon="2.282053">
        <ele>251.832</ele>
        <time>2022-10-23T08:38:22Z</time>
      </trkpt>
      <trkpt lat="41.692135" lon="2.282017">
        <ele>252.092</ele>
        <time>2022-10-23T08:38:23Z</time>
      </trkpt>
      <trkpt lat="41.692120" lon="2.281983">
        <ele>251.811</ele>
        <time>2022-10-23T08:38:24Z</time>
      </trkpt>
      <trkpt lat="41.692109" lon="2.281949">
        <ele>252.009</ele>
        <time>2022-10-23T08:38:25Z</time>
      </trkpt>
      <trkpt lat="41.692099" lon="2.281914">
        <ele>252.034</ele>
        <time>2022-10-23T08:38:26Z</time>
      </trkpt>
      <trkpt lat="41.692086" lon="2.281879">
        <ele>252.064</ele>
        <time>2022-10-23T08:38:27Z</time>
      </trkpt>
      <trkpt lat="41.692072" lon="2.281841">
        <ele>252.030</ele>
        <time>2022-10-23T08:38:28Z</time>
      </trkpt>
      <trkpt lat="41.692055" lon="2.281806">
        <ele>252.013</ele>
        <time>2022-10-23T08:38:29Z</time>
      </trkpt>
      <trkpt lat="41.692037" lon="2.281772">
        <ele>252.039</ele>
        <time>2022-10-23T08:38:30Z</time>
      </trkpt>
      <trkpt lat="41.692021" lon="2.281738">
        <ele>252.017</ele>
        <time>2022-10-23T08:38:31Z</time>
      </trkpt>
      <trkpt lat="41.692007" lon="2.281699">
        <ele>252.223</ele>
        <time>2022-10-23T08:38:32Z</time>
      </trkpt>
      <trkpt lat="41.691996" lon="2.281659">
        <ele>252.223</ele>
        <time>2022-10-23T08:38:33Z</time>
      </trkpt>
      <trkpt lat="41.691985" lon="2.281620">
        <ele>252.026</ele>
        <time>2022-10-23T08:38:34Z</time>
      </trkpt>
      <trkpt lat="41.691974" lon="2.281580">
        <ele>252.035</ele>
        <time>2022-10-23T08:38:35Z</time>
      </trkpt>
      <trkpt lat="41.691956" lon="2.281543">
        <ele>252.086</ele>
        <time>2022-10-23T08:38:36Z</time>
      </trkpt>
      <trkpt lat="41.691936" lon="2.281508">
        <ele>252.214</ele>
        <time>2022-10-23T08:38:37Z</time>
      </trkpt>
      <trkpt lat="41.691919" lon="2.281475">
        <ele>252.209</ele>
        <time>2022-10-23T08:38:38Z</time>
      </trkpt>
      <trkpt lat="41.691900" lon="2.281444">
        <ele>252.024</ele>
        <time>2022-10-23T08:38:39Z</time>
      </trkpt>
      <trkpt lat="41.691878" lon="2.281417">
        <ele>252.064</ele>
        <time>2022-10-23T08:38:40Z</time>
      </trkpt>
      <trkpt lat="41.691853" lon="2.281395">
        <ele>252.290</ele>
        <time>2022-10-23T08:38:41Z</time>
      </trkpt>
      <trkpt lat="41.691828" lon="2.281372">
        <ele>252.253</ele>
        <time>2022-10-23T08:38:42Z</time>
      </trkpt>
      <trkpt lat="41.691801" lon="2.281349">
        <ele>252.219</ele>
        <time>2022-10-23T08:38:43Z</time>
      </trkpt>
      <trkpt lat="41.691775" lon="2.281327">
        <ele>252.447</ele>
        <time>2022-10-23T08:38:44Z</time>
      </trkpt>
      <trkpt lat="41.691746" lon="2.281306">
        <ele>252.423</ele>
        <time>2022-10-23T08:38:45Z</time>
      </trkpt>
      <trkpt lat="41.691719" lon="2.281285">
        <ele>252.463</ele>
        <time>2022-10-23T08:38:46Z</time>
      </trkpt>
      <trkpt lat="41.691692" lon="2.281265">
        <ele>252.486</ele>
        <time>2022-10-23T08:38:47Z</time>
      </trkpt>
      <trkpt lat="41.691667" lon="2.281244">
        <ele>252.446</ele>
        <time>2022-10-23T08:38:48Z</time>
      </trkpt>
      <trkpt lat="41.691645" lon="2.281220">
        <ele>252.688</ele>
        <time>2022-10-23T08:38:49Z</time>
      </trkpt>
      <trkpt lat="41.691621" lon="2.281194">
        <ele>252.616</ele>
        <time>2022-10-23T08:38:50Z</time>
      </trkpt>
      <trkpt lat="41.691598" lon="2.281168">
        <ele>252.609</ele>
        <time>2022-10-23T08:38:51Z</time>
      </trkpt>
      <trkpt lat="41.691573" lon="2.281142">
        <ele>252.635</ele>
        <time>2022-10-23T08:38:52Z</time>
      </trkpt>
      <trkpt lat="41.691547" lon="2.281117">
        <ele>252.875</ele>
        <time>2022-10-23T08:38:53Z</time>
      </trkpt>
      <trkpt lat="41.691521" lon="2.281093">
        <ele>252.811</ele>
        <time>2022-10-23T08:38:54Z</time>
      </trkpt>
      <trkpt lat="41.691494" lon="2.281070">
        <ele>252.814</ele>
        <time>2022-10-23T08:38:55Z</time>
      </trkpt>
      <trkpt lat="41.691468" lon="2.281048">
        <ele>253.020</ele>
        <time>2022-10-23T08:38:56Z</time>
      </trkpt>
      <trkpt lat="41.691440" lon="2.281025">
        <ele>253.098</ele>
        <time>2022-10-23T08:38:57Z</time>
      </trkpt>
      <trkpt lat="41.691412" lon="2.281001">
        <ele>253.034</ele>
        <time>2022-10-23T08:38:58Z</time>
      </trkpt>
      <trkpt lat="41.691386" lon="2.280981">
        <ele>253.034</ele>
        <time>2022-10-23T08:38:59Z</time>
      </trkpt>
      <trkpt lat="41.691362" lon="2.280960">
        <ele>253.247</ele>
        <time>2022-10-23T08:39:00Z</time>
      </trkpt>
      <trkpt lat="41.691338" lon="2.280935">
        <ele>253.267</ele>
        <time>2022-10-23T08:39:01Z</time>
      </trkpt>
      <trkpt lat="41.691311" lon="2.280911">
        <ele>253.481</ele>
        <time>2022-10-23T08:39:02Z</time>
      </trkpt>
      <trkpt lat="41.691285" lon="2.280889">
        <ele>253.419</ele>
        <time>2022-10-23T08:39:03Z</time>
      </trkpt>
      <trkpt lat="41.691258" lon="2.280863">
        <ele>253.409</ele>
        <time>2022-10-23T08:39:04Z</time>
      </trkpt>
      <trkpt lat="41.691231" lon="2.280837">
        <ele>253.497</ele>
        <time>2022-10-23T08:39:05Z</time>
      </trkpt>
      <trkpt lat="41.691208" lon="2.280810">
        <ele>253.617</ele>
        <time>2022-10-23T08:39:06Z</time>
      </trkpt>
      <trkpt lat="41.691182" lon="2.280785">
        <ele>253.673</ele>
        <time>2022-10-23T08:39:07Z</time>
      </trkpt>
      <trkpt lat="41.691155" lon="2.280758">
        <ele>253.676</ele>
        <time>2022-10-23T08:39:08Z</time>
      </trkpt>
      <trkpt lat="41.691128" lon="2.280733">
        <ele>253.652</ele>
        <time>2022-10-23T08:39:09Z</time>
      </trkpt>
      <trkpt lat="41.691105" lon="2.280710">
        <ele>253.640</ele>
        <time>2022-10-23T08:39:10Z</time>
      </trkpt>
      <trkpt lat="41.691082" lon="2.280689">
        <ele>253.656</ele>
        <time>2022-10-23T08:39:11Z</time>
      </trkpt>
      <trkpt lat="41.691060" lon="2.280668">
        <ele>253.836</ele>
        <time>2022-10-23T08:39:12Z</time>
      </trkpt>
      <trkpt lat="41.691036" lon="2.280647">
        <ele>253.839</ele>
        <time>2022-10-23T08:39:13Z</time>
      </trkpt>
      <trkpt lat="41.691008" lon="2.280624">
        <ele>253.848</ele>
        <time>2022-10-23T08:39:14Z</time>
      </trkpt>
      <trkpt lat="41.690978" lon="2.280601">
        <ele>253.861</ele>
        <time>2022-10-23T08:39:15Z</time>
      </trkpt>
      <trkpt lat="41.690957" lon="2.280579">
        <ele>254.017</ele>
        <time>2022-10-23T08:39:16Z</time>
      </trkpt>
      <trkpt lat="41.690940" lon="2.280560">
        <ele>254.009</ele>
        <time>2022-10-23T08:39:17Z</time>
      </trkpt>
      <trkpt lat="41.690925" lon="2.280539">
        <ele>254.285</ele>
        <time>2022-10-23T08:39:18Z</time>
      </trkpt>
      <trkpt lat="41.690903" lon="2.280516">
        <ele>254.265</ele>
        <time>2022-10-23T08:39:19Z</time>
      </trkpt>
      <trkpt lat="41.690887" lon="2.280488">
        <ele>254.271</ele>
        <time>2022-10-23T08:39:20Z</time>
      </trkpt>
      <trkpt lat="41.690873" lon="2.280459">
        <ele>254.234</ele>
        <time>2022-10-23T08:39:21Z</time>
      </trkpt>
      <trkpt lat="41.690855" lon="2.280431">
        <ele>254.240</ele>
        <time>2022-10-23T08:39:22Z</time>
      </trkpt>
      <trkpt lat="41.690844" lon="2.280417">
        <ele>254.478</ele>
        <time>2022-10-23T08:39:23Z</time>
      </trkpt>
      <trkpt lat="41.690840" lon="2.280402">
        <ele>254.484</ele>
        <time>2022-10-23T08:39:24Z</time>
      </trkpt>
      <trkpt lat="41.690838" lon="2.280392">
        <ele>254.634</ele>
        <time>2022-10-23T08:39:25Z</time>
      </trkpt>
      <trkpt lat="41.690841" lon="2.280385">
        <ele>254.657</ele>
        <time>2022-10-23T08:39:26Z</time>
      </trkpt>
      <trkpt lat="41.690846" lon="2.280381">
        <ele>254.816</ele>
        <time>2022-10-23T08:39:27Z</time>
      </trkpt>
      <trkpt lat="41.690850" lon="2.280377">
        <ele>254.876</ele>
        <time>2022-10-23T08:39:28Z</time>
      </trkpt>
      <trkpt lat="41.690855" lon="2.280374">
        <ele>255.013</ele>
        <time>2022-10-23T08:39:29Z</time>
      </trkpt>
      <trkpt lat="41.690858" lon="2.280372">
        <ele>255.209</ele>
        <time>2022-10-23T08:39:30Z</time>
      </trkpt>
      <trkpt lat="41.690859" lon="2.280369">
        <ele>255.412</ele>
        <time>2022-10-23T08:39:31Z</time>
      </trkpt>
      <trkpt lat="41.690857" lon="2.280367">
        <ele>255.622</ele>
        <time>2022-10-23T08:39:32Z</time>
      </trkpt>
      <trkpt lat="41.690966" lon="2.280268">
        <ele>256.088</ele>
        <time>2022-10-23T08:39:34Z</time>
      </trkpt>
      <trkpt lat="41.690982" lon="2.280232">
        <ele>256.251</ele>
        <time>2022-10-23T08:39:35Z</time>
      </trkpt>
      <trkpt lat="41.690978" lon="2.280184">
        <ele>256.497</ele>
        <time>2022-10-23T08:39:36Z</time>
      </trkpt>
      <trkpt lat="41.690953" lon="2.280121">
        <ele>256.655</ele>
        <time>2022-10-23T08:39:37Z</time>
      </trkpt>
      <trkpt lat="41.690929" lon="2.280068">
        <ele>256.821</ele>
        <time>2022-10-23T08:39:38Z</time>
      </trkpt>
      <trkpt lat="41.690906" lon="2.280012">
        <ele>257.091</ele>
        <time>2022-10-23T08:39:39Z</time>
      </trkpt>
      <trkpt lat="41.690889" lon="2.279975">
        <ele>257.214</ele>
        <time>2022-10-23T08:39:40Z</time>
      </trkpt>
      <trkpt lat="41.690876" lon="2.279936">
        <ele>257.677</ele>
        <time>2022-10-23T08:39:41Z</time>
      </trkpt>
      <trkpt lat="41.690862" lon="2.279910">
        <ele>257.861</ele>
        <time>2022-10-23T08:39:42Z</time>
      </trkpt>
      <trkpt lat="41.690851" lon="2.279881">
        <ele>258.027</ele>
        <time>2022-10-23T08:39:43Z</time>
      </trkpt>
      <trkpt lat="41.690846" lon="2.279859">
        <ele>258.209</ele>
        <time>2022-10-23T08:39:44Z</time>
      </trkpt>
      <trkpt lat="41.690839" lon="2.279838">
        <ele>258.678</ele>
        <time>2022-10-23T08:39:45Z</time>
      </trkpt>
      <trkpt lat="41.690823" lon="2.279814">
        <ele>259.088</ele>
        <time>2022-10-23T08:39:46Z</time>
      </trkpt>
      <trkpt lat="41.690821" lon="2.279776">
        <ele>259.424</ele>
        <time>2022-10-23T08:39:47Z</time>
      </trkpt>
      <trkpt lat="41.690819" lon="2.279739">
        <ele>259.877</ele>
        <time>2022-10-23T08:39:48Z</time>
      </trkpt>
      <trkpt lat="41.690816" lon="2.279705">
        <ele>260.273</ele>
        <time>2022-10-23T08:39:49Z</time>
      </trkpt>
      <trkpt lat="41.690820" lon="2.279663">
        <ele>261.051</ele>
        <time>2022-10-23T08:39:50Z</time>
      </trkpt>
      <trkpt lat="41.690828" lon="2.279619">
        <ele>261.477</ele>
        <time>2022-10-23T08:39:51Z</time>
      </trkpt>
      <trkpt lat="41.690836" lon="2.279589">
        <ele>262.037</ele>
        <time>2022-10-23T08:39:52Z</time>
      </trkpt>
      <trkpt lat="41.690848" lon="2.279554">
        <ele>262.420</ele>
        <time>2022-10-23T08:39:53Z</time>
      </trkpt>
      <trkpt lat="41.690860" lon="2.279526">
        <ele>262.628</ele>
        <time>2022-10-23T08:39:54Z</time>
      </trkpt>
      <trkpt lat="41.690867" lon="2.279502">
        <ele>262.889</ele>
        <time>2022-10-23T08:39:55Z</time>
      </trkpt>
      <trkpt lat="41.690874" lon="2.279470">
        <ele>263.017</ele>
        <time>2022-10-23T08:39:56Z</time>
      </trkpt>
      <trkpt lat="41.690880" lon="2.279433">
        <ele>263.209</ele>
        <time>2022-10-23T08:39:57Z</time>
      </trkpt>
      <trkpt lat="41.690894" lon="2.279403">
        <ele>263.433</ele>
        <time>2022-10-23T08:39:58Z</time>
      </trkpt>
      <trkpt lat="41.690904" lon="2.279375">
        <ele>263.883</ele>
        <time>2022-10-23T08:39:59Z</time>
      </trkpt>
      <trkpt lat="41.690908" lon="2.279348">
        <ele>264.229</ele>
        <time>2022-10-23T08:40:00Z</time>
      </trkpt>
      <trkpt lat="41.690908" lon="2.279324">
        <ele>264.652</ele>
        <time>2022-10-23T08:40:01Z</time>
      </trkpt>
      <trkpt lat="41.690902" lon="2.279301">
        <ele>265.048</ele>
        <time>2022-10-23T08:40:02Z</time>
      </trkpt>
      <trkpt lat="41.690884" lon="2.279286">
        <ele>265.416</ele>
        <time>2022-10-23T08:40:03Z</time>
      </trkpt>
      <trkpt lat="41.690862" lon="2.279282">
        <ele>265.822</ele>
        <time>2022-10-23T08:40:04Z</time>
      </trkpt>
      <trkpt lat="41.690840" lon="2.279279">
        <ele>266.272</ele>
        <time>2022-10-23T08:40:05Z</time>
      </trkpt>
      <trkpt lat="41.690816" lon="2.279275">
        <ele>266.695</ele>
        <time>2022-10-23T08:40:06Z</time>
      </trkpt>
      <trkpt lat="41.690794" lon="2.279274">
        <ele>267.235</ele>
        <time>2022-10-23T08:40:07Z</time>
      </trkpt>
      <trkpt lat="41.690773" lon="2.279274">
        <ele>267.886</ele>
        <time>2022-10-23T08:40:08Z</time>
      </trkpt>
      <trkpt lat="41.690752" lon="2.279269">
        <ele>268.414</ele>
        <time>2022-10-23T08:40:09Z</time>
      </trkpt>
      <trkpt lat="41.690731" lon="2.279264">
        <ele>269.009</ele>
        <time>2022-10-23T08:40:10Z</time>
      </trkpt>
      <trkpt lat="41.690709" lon="2.279257">
        <ele>269.224</ele>
        <time>2022-10-23T08:40:11Z</time>
      </trkpt>
      <trkpt lat="41.690684" lon="2.279251">
        <ele>269.474</ele>
        <time>2022-10-23T08:40:12Z</time>
      </trkpt>
      <trkpt lat="41.690660" lon="2.279242">
        <ele>269.660</ele>
        <time>2022-10-23T08:40:13Z</time>
      </trkpt>
      <trkpt lat="41.690636" lon="2.279230">
        <ele>269.823</ele>
        <time>2022-10-23T08:40:14Z</time>
      </trkpt>
      <trkpt lat="41.690613" lon="2.279217">
        <ele>270.069</ele>
        <time>2022-10-23T08:40:15Z</time>
      </trkpt>
      <trkpt lat="41.690587" lon="2.279205">
        <ele>270.227</ele>
        <time>2022-10-23T08:40:16Z</time>
      </trkpt>
      <trkpt lat="41.690562" lon="2.279191">
        <ele>270.883</ele>
        <time>2022-10-23T08:40:17Z</time>
      </trkpt>
      <trkpt lat="41.690536" lon="2.279175">
        <ele>271.063</ele>
        <time>2022-10-23T08:40:18Z</time>
      </trkpt>
      <trkpt lat="41.690510" lon="2.279160">
        <ele>271.286</ele>
        <time>2022-10-23T08:40:19Z</time>
      </trkpt>
      <trkpt lat="41.690485" lon="2.279146">
        <ele>271.489</ele>
        <time>2022-10-23T08:40:20Z</time>
      </trkpt>
      <trkpt lat="41.690459" lon="2.279138">
        <ele>271.606</ele>
        <time>2022-10-23T08:40:21Z</time>
      </trkpt>
      <trkpt lat="41.690432" lon="2.279137">
        <ele>271.826</ele>
        <time>2022-10-23T08:40:22Z</time>
      </trkpt>
      <trkpt lat="41.690405" lon="2.279140">
        <ele>272.009</ele>
        <time>2022-10-23T08:40:23Z</time>
      </trkpt>
      <trkpt lat="41.690377" lon="2.279146">
        <ele>272.069</ele>
        <time>2022-10-23T08:40:24Z</time>
      </trkpt>
      <trkpt lat="41.690353" lon="2.279146">
        <ele>272.229</ele>
        <time>2022-10-23T08:40:25Z</time>
      </trkpt>
      <trkpt lat="41.690330" lon="2.279144">
        <ele>272.295</ele>
        <time>2022-10-23T08:40:26Z</time>
      </trkpt>
      <trkpt lat="41.690306" lon="2.279141">
        <ele>272.618</ele>
        <time>2022-10-23T08:40:27Z</time>
      </trkpt>
      <trkpt lat="41.690283" lon="2.279133">
        <ele>272.844</ele>
        <time>2022-10-23T08:40:28Z</time>
      </trkpt>
      <trkpt lat="41.690262" lon="2.279127">
        <ele>273.222</ele>
        <time>2022-10-23T08:40:29Z</time>
      </trkpt>
      <trkpt lat="41.690243" lon="2.279113">
        <ele>273.438</ele>
        <time>2022-10-23T08:40:30Z</time>
      </trkpt>
      <trkpt lat="41.690227" lon="2.279094">
        <ele>273.648</ele>
        <time>2022-10-23T08:40:31Z</time>
      </trkpt>
      <trkpt lat="41.690211" lon="2.279067">
        <ele>273.811</ele>
        <time>2022-10-23T08:40:32Z</time>
      </trkpt>
      <trkpt lat="41.690196" lon="2.279039">
        <ele>274.246</ele>
        <time>2022-10-23T08:40:33Z</time>
      </trkpt>
      <trkpt lat="41.690183" lon="2.279009">
        <ele>274.488</ele>
        <time>2022-10-23T08:40:34Z</time>
      </trkpt>
      <trkpt lat="41.690175" lon="2.278977">
        <ele>274.816</ele>
        <time>2022-10-23T08:40:35Z</time>
      </trkpt>
      <trkpt lat="41.690170" lon="2.278944">
        <ele>275.009</ele>
        <time>2022-10-23T08:40:36Z</time>
      </trkpt>
      <trkpt lat="41.690168" lon="2.278914">
        <ele>275.235</ele>
        <time>2022-10-23T08:40:37Z</time>
      </trkpt>
      <trkpt lat="41.690167" lon="2.278884">
        <ele>275.645</ele>
        <time>2022-10-23T08:40:38Z</time>
      </trkpt>
      <trkpt lat="41.690165" lon="2.278852">
        <ele>276.041</ele>
        <time>2022-10-23T08:40:39Z</time>
      </trkpt>
      <trkpt lat="41.690162" lon="2.278822">
        <ele>276.224</ele>
        <time>2022-10-23T08:40:40Z</time>
      </trkpt>
      <trkpt lat="41.690157" lon="2.278796">
        <ele>276.460</ele>
        <time>2022-10-23T08:40:41Z</time>
      </trkpt>
      <trkpt lat="41.690151" lon="2.278772">
        <ele>276.858</ele>
        <time>2022-10-23T08:40:42Z</time>
      </trkpt>
      <trkpt lat="41.690144" lon="2.278747">
        <ele>277.244</ele>
        <time>2022-10-23T08:40:43Z</time>
      </trkpt>
      <trkpt lat="41.690134" lon="2.278721">
        <ele>277.624</ele>
        <time>2022-10-23T08:40:44Z</time>
      </trkpt>
      <trkpt lat="41.690124" lon="2.278692">
        <ele>278.217</ele>
        <time>2022-10-23T08:40:45Z</time>
      </trkpt>
      <trkpt lat="41.690111" lon="2.278664">
        <ele>278.687</ele>
        <time>2022-10-23T08:40:46Z</time>
      </trkpt>
      <trkpt lat="41.690097" lon="2.278639">
        <ele>279.042</ele>
        <time>2022-10-23T08:40:47Z</time>
      </trkpt>
      <trkpt lat="41.690083" lon="2.278616">
        <ele>279.626</ele>
        <time>2022-10-23T08:40:48Z</time>
      </trkpt>
      <trkpt lat="41.690066" lon="2.278592">
        <ele>280.009</ele>
        <time>2022-10-23T08:40:49Z</time>
      </trkpt>
      <trkpt lat="41.690049" lon="2.278567">
        <ele>280.449</ele>
        <time>2022-10-23T08:40:50Z</time>
      </trkpt>
      <trkpt lat="41.690032" lon="2.278545">
        <ele>280.619</ele>
        <time>2022-10-23T08:40:51Z</time>
      </trkpt>
      <trkpt lat="41.690016" lon="2.278527">
        <ele>280.865</ele>
        <time>2022-10-23T08:40:52Z</time>
      </trkpt>
      <trkpt lat="41.690001" lon="2.278504">
        <ele>280.858</ele>
        <time>2022-10-23T08:40:53Z</time>
      </trkpt>
      <trkpt lat="41.689986" lon="2.278479">
        <ele>281.294</ele>
        <time>2022-10-23T08:40:54Z</time>
      </trkpt>
      <trkpt lat="41.689970" lon="2.278457">
        <ele>281.232</ele>
        <time>2022-10-23T08:40:55Z</time>
      </trkpt>
      <trkpt lat="41.689955" lon="2.278434">
        <ele>281.468</ele>
        <time>2022-10-23T08:40:56Z</time>
      </trkpt>
      <trkpt lat="41.689941" lon="2.278413">
        <ele>281.818</ele>
        <time>2022-10-23T08:40:57Z</time>
      </trkpt>
      <trkpt lat="41.689927" lon="2.278394">
        <ele>282.011</ele>
        <time>2022-10-23T08:40:58Z</time>
      </trkpt>
      <trkpt lat="41.689912" lon="2.278376">
        <ele>282.224</ele>
        <time>2022-10-23T08:40:59Z</time>
      </trkpt>
      <trkpt lat="41.689895" lon="2.278358">
        <ele>282.404</ele>
        <time>2022-10-23T08:41:00Z</time>
      </trkpt>
      <trkpt lat="41.689878" lon="2.278342">
        <ele>282.814</ele>
        <time>2022-10-23T08:41:01Z</time>
      </trkpt>
      <trkpt lat="41.689862" lon="2.278323">
        <ele>283.009</ele>
        <time>2022-10-23T08:41:02Z</time>
      </trkpt>
      <trkpt lat="41.689845" lon="2.278302">
        <ele>283.423</ele>
        <time>2022-10-23T08:41:03Z</time>
      </trkpt>
      <trkpt lat="41.689824" lon="2.278283">
        <ele>283.663</ele>
        <time>2022-10-23T08:41:04Z</time>
      </trkpt>
      <trkpt lat="41.689804" lon="2.278264">
        <ele>283.889</ele>
        <time>2022-10-23T08:41:05Z</time>
      </trkpt>
      <trkpt lat="41.689788" lon="2.278245">
        <ele>284.052</ele>
        <time>2022-10-23T08:41:06Z</time>
      </trkpt>
      <trkpt lat="41.689772" lon="2.278224">
        <ele>284.418</ele>
        <time>2022-10-23T08:41:07Z</time>
      </trkpt>
      <trkpt lat="41.689758" lon="2.278206">
        <ele>284.876</ele>
        <time>2022-10-23T08:41:08Z</time>
      </trkpt>
      <trkpt lat="41.689744" lon="2.278187">
        <ele>285.232</ele>
        <time>2022-10-23T08:41:09Z</time>
      </trkpt>
      <trkpt lat="41.689729" lon="2.278168">
        <ele>285.452</ele>
        <time>2022-10-23T08:41:10Z</time>
      </trkpt>
      <trkpt lat="41.689714" lon="2.278145">
        <ele>285.865</ele>
        <time>2022-10-23T08:41:11Z</time>
      </trkpt>
      <trkpt lat="41.689698" lon="2.278125">
        <ele>286.072</ele>
        <time>2022-10-23T08:41:12Z</time>
      </trkpt>
      <trkpt lat="41.689683" lon="2.278102">
        <ele>286.613</ele>
        <time>2022-10-23T08:41:13Z</time>
      </trkpt>
      <trkpt lat="41.689670" lon="2.278074">
        <ele>286.814</ele>
        <time>2022-10-23T08:41:14Z</time>
      </trkpt>
      <trkpt lat="41.689660" lon="2.278045">
        <ele>287.209</ele>
        <time>2022-10-23T08:41:15Z</time>
      </trkpt>
      <trkpt lat="41.689652" lon="2.278015">
        <ele>287.648</ele>
        <time>2022-10-23T08:41:16Z</time>
      </trkpt>
      <trkpt lat="41.689644" lon="2.277984">
        <ele>288.038</ele>
        <time>2022-10-23T08:41:17Z</time>
      </trkpt>
      <trkpt lat="41.689639" lon="2.277954">
        <ele>288.414</ele>
        <time>2022-10-23T08:41:18Z</time>
      </trkpt>
      <trkpt lat="41.689634" lon="2.277921">
        <ele>288.837</ele>
        <time>2022-10-23T08:41:19Z</time>
      </trkpt>
      <trkpt lat="41.689629" lon="2.277890">
        <ele>289.273</ele>
        <time>2022-10-23T08:41:20Z</time>
      </trkpt>
      <trkpt lat="41.689626" lon="2.277856">
        <ele>289.691</ele>
        <time>2022-10-23T08:41:21Z</time>
      </trkpt>
      <trkpt lat="41.689623" lon="2.277822">
        <ele>290.037</ele>
        <time>2022-10-23T08:41:22Z</time>
      </trkpt>
      <trkpt lat="41.689617" lon="2.277790">
        <ele>290.617</ele>
        <time>2022-10-23T08:41:23Z</time>
      </trkpt>
      <trkpt lat="41.689614" lon="2.277757">
        <ele>291.080</ele>
        <time>2022-10-23T08:41:24Z</time>
      </trkpt>
      <trkpt lat="41.689612" lon="2.277721">
        <ele>291.667</ele>
        <time>2022-10-23T08:41:25Z</time>
      </trkpt>
      <trkpt lat="41.689611" lon="2.277683">
        <ele>292.081</ele>
        <time>2022-10-23T08:41:26Z</time>
      </trkpt>
      <trkpt lat="41.689611" lon="2.277646">
        <ele>292.219</ele>
        <time>2022-10-23T08:41:27Z</time>
      </trkpt>
      <trkpt lat="41.689612" lon="2.277608">
        <ele>292.609</ele>
        <time>2022-10-23T08:41:28Z</time>
      </trkpt>
      <trkpt lat="41.689612" lon="2.277574">
        <ele>292.867</ele>
        <time>2022-10-23T08:41:29Z</time>
      </trkpt>
      <trkpt lat="41.689608" lon="2.277542">
        <ele>293.077</ele>
        <time>2022-10-23T08:41:30Z</time>
      </trkpt>
      <trkpt lat="41.689603" lon="2.277510">
        <ele>293.233</ele>
        <time>2022-10-23T08:41:31Z</time>
      </trkpt>
      <trkpt lat="41.689598" lon="2.277479">
        <ele>293.466</ele>
        <time>2022-10-23T08:41:32Z</time>
      </trkpt>
      <trkpt lat="41.689593" lon="2.277450">
        <ele>293.812</ele>
        <time>2022-10-23T08:41:33Z</time>
      </trkpt>
      <trkpt lat="41.689586" lon="2.277423">
        <ele>294.090</ele>
        <time>2022-10-23T08:41:34Z</time>
      </trkpt>
      <trkpt lat="41.689580" lon="2.277398">
        <ele>294.456</ele>
        <time>2022-10-23T08:41:35Z</time>
      </trkpt>
      <trkpt lat="41.689574" lon="2.277375">
        <ele>294.666</ele>
        <time>2022-10-23T08:41:36Z</time>
      </trkpt>
      <trkpt lat="41.689566" lon="2.277352">
        <ele>294.879</ele>
        <time>2022-10-23T08:41:37Z</time>
      </trkpt>
      <trkpt lat="41.689554" lon="2.277328">
        <ele>295.226</ele>
        <time>2022-10-23T08:41:38Z</time>
      </trkpt>
      <trkpt lat="41.689542" lon="2.277299">
        <ele>295.647</ele>
        <time>2022-10-23T08:41:39Z</time>
      </trkpt>
      <trkpt lat="41.689531" lon="2.277268">
        <ele>296.411</ele>
        <time>2022-10-23T08:41:40Z</time>
      </trkpt>
      <trkpt lat="41.689520" lon="2.277240">
        <ele>296.609</ele>
        <time>2022-10-23T08:41:41Z</time>
      </trkpt>
      <trkpt lat="41.689507" lon="2.277210">
        <ele>297.033</ele>
        <time>2022-10-23T08:41:42Z</time>
      </trkpt>
      <trkpt lat="41.689493" lon="2.277181">
        <ele>297.243</ele>
        <time>2022-10-23T08:41:43Z</time>
      </trkpt>
      <trkpt lat="41.689476" lon="2.277154">
        <ele>297.649</ele>
        <time>2022-10-23T08:41:44Z</time>
      </trkpt>
      <trkpt lat="41.689458" lon="2.277125">
        <ele>297.682</ele>
        <time>2022-10-23T08:41:45Z</time>
      </trkpt>
      <trkpt lat="41.689441" lon="2.277097">
        <ele>297.868</ele>
        <time>2022-10-23T08:41:46Z</time>
      </trkpt>
      <trkpt lat="41.689426" lon="2.277068">
        <ele>298.066</ele>
        <time>2022-10-23T08:41:47Z</time>
      </trkpt>
      <trkpt lat="41.689413" lon="2.277038">
        <ele>298.282</ele>
        <time>2022-10-23T08:41:48Z</time>
      </trkpt>
      <trkpt lat="41.689402" lon="2.277008">
        <ele>298.432</ele>
        <time>2022-10-23T08:41:49Z</time>
      </trkpt>
      <trkpt lat="41.689396" lon="2.276978">
        <ele>298.465</ele>
        <time>2022-10-23T08:41:50Z</time>
      </trkpt>
      <trkpt lat="41.689386" lon="2.276943">
        <ele>298.687</ele>
        <time>2022-10-23T08:41:51Z</time>
      </trkpt>
      <trkpt lat="41.689375" lon="2.276908">
        <ele>298.842</ele>
        <time>2022-10-23T08:41:52Z</time>
      </trkpt>
      <trkpt lat="41.689362" lon="2.276866">
        <ele>299.026</ele>
        <time>2022-10-23T08:41:53Z</time>
      </trkpt>
      <trkpt lat="41.689354" lon="2.276831">
        <ele>299.209</ele>
        <time>2022-10-23T08:41:54Z</time>
      </trkpt>
      <trkpt lat="41.689342" lon="2.276794">
        <ele>299.449</ele>
        <time>2022-10-23T08:41:55Z</time>
      </trkpt>
      <trkpt lat="41.689329" lon="2.276763">
        <ele>299.679</ele>
        <time>2022-10-23T08:41:56Z</time>
      </trkpt>
      <trkpt lat="41.689315" lon="2.276735">
        <ele>299.625</ele>
        <time>2022-10-23T08:41:57Z</time>
      </trkpt>
      <trkpt lat="41.689300" lon="2.276708">
        <ele>299.828</ele>
        <time>2022-10-23T08:41:58Z</time>
      </trkpt>
      <trkpt lat="41.689284" lon="2.276683">
        <ele>299.814</ele>
        <time>2022-10-23T08:41:59Z</time>
      </trkpt>
      <trkpt lat="41.689267" lon="2.276655">
        <ele>300.012</ele>
        <time>2022-10-23T08:42:00Z</time>
      </trkpt>
      <trkpt lat="41.689247" lon="2.276624">
        <ele>300.058</ele>
        <time>2022-10-23T08:42:01Z</time>
      </trkpt>
      <trkpt lat="41.689230" lon="2.276592">
        <ele>300.068</ele>
        <time>2022-10-23T08:42:02Z</time>
      </trkpt>
      <trkpt lat="41.689215" lon="2.276559">
        <ele>300.031</ele>
        <time>2022-10-23T08:42:03Z</time>
      </trkpt>
      <trkpt lat="41.689202" lon="2.276528">
        <ele>300.023</ele>
        <time>2022-10-23T08:42:04Z</time>
      </trkpt>
      <trkpt lat="41.689189" lon="2.276497">
        <ele>300.283</ele>
        <time>2022-10-23T08:42:05Z</time>
      </trkpt>
      <trkpt lat="41.689178" lon="2.276466">
        <ele>300.211</ele>
        <time>2022-10-23T08:42:06Z</time>
      </trkpt>
      <trkpt lat="41.689171" lon="2.276432">
        <ele>300.409</ele>
        <time>2022-10-23T08:42:07Z</time>
      </trkpt>
      <trkpt lat="41.689162" lon="2.276401">
        <ele>300.663</ele>
        <time>2022-10-23T08:42:08Z</time>
      </trkpt>
      <trkpt lat="41.689152" lon="2.276373">
        <ele>300.893</ele>
        <time>2022-10-23T08:42:09Z</time>
      </trkpt>
      <trkpt lat="41.689142" lon="2.276345">
        <ele>301.059</ele>
        <time>2022-10-23T08:42:10Z</time>
      </trkpt>
      <trkpt lat="41.689136" lon="2.276315">
        <ele>301.492</ele>
        <time>2022-10-23T08:42:11Z</time>
      </trkpt>
      <trkpt lat="41.689131" lon="2.276285">
        <ele>301.478</ele>
        <time>2022-10-23T08:42:12Z</time>
      </trkpt>
      <trkpt lat="41.689127" lon="2.276254">
        <ele>301.876</ele>
        <time>2022-10-23T08:42:13Z</time>
      </trkpt>
      <trkpt lat="41.689123" lon="2.276220">
        <ele>302.092</ele>
        <time>2022-10-23T08:42:14Z</time>
      </trkpt>
      <trkpt lat="41.689119" lon="2.276185">
        <ele>302.252</ele>
        <time>2022-10-23T08:42:15Z</time>
      </trkpt>
      <trkpt lat="41.689117" lon="2.276151">
        <ele>302.455</ele>
        <time>2022-10-23T08:42:16Z</time>
      </trkpt>
      <trkpt lat="41.689115" lon="2.276117">
        <ele>302.613</ele>
        <time>2022-10-23T08:42:17Z</time>
      </trkpt>
      <trkpt lat="41.689113" lon="2.276085">
        <ele>303.043</ele>
        <time>2022-10-23T08:42:18Z</time>
      </trkpt>
      <trkpt lat="41.689111" lon="2.276053">
        <ele>303.407</ele>
        <time>2022-10-23T08:42:19Z</time>
      </trkpt>
      <trkpt lat="41.689109" lon="2.276020">
        <ele>303.809</ele>
        <time>2022-10-23T08:42:20Z</time>
      </trkpt>
      <trkpt lat="41.689107" lon="2.275983">
        <ele>304.292</ele>
        <time>2022-10-23T08:42:21Z</time>
      </trkpt>
      <trkpt lat="41.689106" lon="2.275947">
        <ele>304.642</ele>
        <time>2022-10-23T08:42:22Z</time>
      </trkpt>
      <trkpt lat="41.689103" lon="2.275910">
        <ele>304.868</ele>
        <time>2022-10-23T08:42:23Z</time>
      </trkpt>
      <trkpt lat="41.689098" lon="2.275875">
        <ele>305.211</ele>
        <time>2022-10-23T08:42:24Z</time>
      </trkpt>
      <trkpt lat="41.689096" lon="2.275839">
        <ele>305.477</ele>
        <time>2022-10-23T08:42:25Z</time>
      </trkpt>
      <trkpt lat="41.689094" lon="2.275806">
        <ele>305.685</ele>
        <time>2022-10-23T08:42:26Z</time>
      </trkpt>
      <trkpt lat="41.689094" lon="2.275773">
        <ele>305.841</ele>
        <time>2022-10-23T08:42:27Z</time>
      </trkpt>
      <trkpt lat="41.689092" lon="2.275738">
        <ele>306.051</ele>
        <time>2022-10-23T08:42:28Z</time>
      </trkpt>
      <trkpt lat="41.689087" lon="2.275704">
        <ele>306.484</ele>
        <time>2022-10-23T08:42:29Z</time>
      </trkpt>
      <trkpt lat="41.689084" lon="2.275672">
        <ele>306.637</ele>
        <time>2022-10-23T08:42:30Z</time>
      </trkpt>
      <trkpt lat="41.689082" lon="2.275640">
        <ele>307.049</ele>
        <time>2022-10-23T08:42:31Z</time>
      </trkpt>
      <trkpt lat="41.689078" lon="2.275609">
        <ele>307.213</ele>
        <time>2022-10-23T08:42:32Z</time>
      </trkpt>
      <trkpt lat="41.689072" lon="2.275579">
        <ele>307.409</ele>
        <time>2022-10-23T08:42:33Z</time>
      </trkpt>
      <trkpt lat="41.689063" lon="2.275553">
        <ele>307.854</ele>
        <time>2022-10-23T08:42:34Z</time>
      </trkpt>
      <trkpt lat="41.689053" lon="2.275526">
        <ele>308.494</ele>
        <time>2022-10-23T08:42:35Z</time>
      </trkpt>
      <trkpt lat="41.689044" lon="2.275497">
        <ele>308.620</ele>
        <time>2022-10-23T08:42:36Z</time>
      </trkpt>
      <trkpt lat="41.689032" lon="2.275466">
        <ele>308.683</ele>
        <time>2022-10-23T08:42:37Z</time>
      </trkpt>
      <trkpt lat="41.689017" lon="2.275436">
        <ele>308.879</ele>
        <time>2022-10-23T08:42:38Z</time>
      </trkpt>
      <trkpt lat="41.689002" lon="2.275404">
        <ele>308.837</ele>
        <time>2022-10-23T08:42:39Z</time>
      </trkpt>
      <trkpt lat="41.688987" lon="2.275367">
        <ele>308.873</ele>
        <time>2022-10-23T08:42:40Z</time>
      </trkpt>
      <trkpt lat="41.688974" lon="2.275327">
        <ele>309.043</ele>
        <time>2022-10-23T08:42:41Z</time>
      </trkpt>
      <trkpt lat="41.688963" lon="2.275284">
        <ele>309.056</ele>
        <time>2022-10-23T08:42:42Z</time>
      </trkpt>
      <trkpt lat="41.688957" lon="2.275237">
        <ele>309.023</ele>
        <time>2022-10-23T08:42:43Z</time>
      </trkpt>
      <trkpt lat="41.688955" lon="2.275190">
        <ele>309.083</ele>
        <time>2022-10-23T08:42:44Z</time>
      </trkpt>
      <trkpt lat="41.688957" lon="2.275144">
        <ele>309.011</ele>
        <time>2022-10-23T08:42:45Z</time>
      </trkpt>
      <trkpt lat="41.688965" lon="2.275102">
        <ele>309.009</ele>
        <time>2022-10-23T08:42:46Z</time>
      </trkpt>
      <trkpt lat="41.688976" lon="2.275062">
        <ele>309.083</ele>
        <time>2022-10-23T08:42:47Z</time>
      </trkpt>
      <trkpt lat="41.688989" lon="2.275023">
        <ele>308.833</ele>
        <time>2022-10-23T08:42:48Z</time>
      </trkpt>
      <trkpt lat="41.689004" lon="2.274987">
        <ele>308.659</ele>
        <time>2022-10-23T08:42:49Z</time>
      </trkpt>
      <trkpt lat="41.689020" lon="2.274952">
        <ele>308.642</ele>
        <time>2022-10-23T08:42:50Z</time>
      </trkpt>
      <trkpt lat="41.689034" lon="2.274917">
        <ele>308.668</ele>
        <time>2022-10-23T08:42:51Z</time>
      </trkpt>
      <trkpt lat="41.689048" lon="2.274882">
        <ele>308.636</ele>
        <time>2022-10-23T08:42:52Z</time>
      </trkpt>
      <trkpt lat="41.689064" lon="2.274845">
        <ele>308.622</ele>
        <time>2022-10-23T08:42:53Z</time>
      </trkpt>
      <trkpt lat="41.689081" lon="2.274809">
        <ele>308.612</ele>
        <time>2022-10-23T08:42:54Z</time>
      </trkpt>
      <trkpt lat="41.689098" lon="2.274772">
        <ele>308.665</ele>
        <time>2022-10-23T08:42:55Z</time>
      </trkpt>
      <trkpt lat="41.689115" lon="2.274738">
        <ele>308.638</ele>
        <time>2022-10-23T08:42:56Z</time>
      </trkpt>
      <trkpt lat="41.689134" lon="2.274707">
        <ele>308.670</ele>
        <time>2022-10-23T08:42:57Z</time>
      </trkpt>
      <trkpt lat="41.689154" lon="2.274682">
        <ele>308.817</ele>
        <time>2022-10-23T08:42:58Z</time>
      </trkpt>
      <trkpt lat="41.689177" lon="2.274667">
        <ele>308.809</ele>
        <time>2022-10-23T08:42:59Z</time>
      </trkpt>
      <trkpt lat="41.689203" lon="2.274654">
        <ele>309.074</ele>
        <time>2022-10-23T08:43:00Z</time>
      </trkpt>
      <trkpt lat="41.689229" lon="2.274643">
        <ele>309.054</ele>
        <time>2022-10-23T08:43:01Z</time>
      </trkpt>
      <trkpt lat="41.689256" lon="2.274631">
        <ele>309.440</ele>
        <time>2022-10-23T08:43:02Z</time>
      </trkpt>
      <trkpt lat="41.689284" lon="2.274621">
        <ele>309.483</ele>
        <time>2022-10-23T08:43:03Z</time>
      </trkpt>
      <trkpt lat="41.689312" lon="2.274613">
        <ele>309.639</ele>
        <time>2022-10-23T08:43:04Z</time>
      </trkpt>
      <trkpt lat="41.689340" lon="2.274610">
        <ele>309.877</ele>
        <time>2022-10-23T08:43:05Z</time>
      </trkpt>
      <trkpt lat="41.689367" lon="2.274608">
        <ele>310.073</ele>
        <time>2022-10-23T08:43:06Z</time>
      </trkpt>
      <trkpt lat="41.689394" lon="2.274610">
        <ele>310.453</ele>
        <time>2022-10-23T08:43:07Z</time>
      </trkpt>
      <trkpt lat="41.689417" lon="2.274609">
        <ele>310.846</ele>
        <time>2022-10-23T08:43:08Z</time>
      </trkpt>
      <trkpt lat="41.689441" lon="2.274606">
        <ele>311.066</ele>
        <time>2022-10-23T08:43:09Z</time>
      </trkpt>
      <trkpt lat="41.689465" lon="2.274606">
        <ele>311.429</ele>
        <time>2022-10-23T08:43:10Z</time>
      </trkpt>
      <trkpt lat="41.689487" lon="2.274607">
        <ele>312.021</ele>
        <time>2022-10-23T08:43:11Z</time>
      </trkpt>
      <trkpt lat="41.689509" lon="2.274607">
        <ele>312.409</ele>
        <time>2022-10-23T08:43:12Z</time>
      </trkpt>
      <trkpt lat="41.689536" lon="2.274603">
        <ele>313.087</ele>
        <time>2022-10-23T08:43:13Z</time>
      </trkpt>
      <trkpt lat="41.689561" lon="2.274594">
        <ele>313.457</ele>
        <time>2022-10-23T08:43:14Z</time>
      </trkpt>
      <trkpt lat="41.689584" lon="2.274583">
        <ele>314.043</ele>
        <time>2022-10-23T08:43:15Z</time>
      </trkpt>
      <trkpt lat="41.689605" lon="2.274572">
        <ele>314.626</ele>
        <time>2022-10-23T08:43:16Z</time>
      </trkpt>
      <trkpt lat="41.689627" lon="2.274568">
        <ele>315.062</ele>
        <time>2022-10-23T08:43:17Z</time>
      </trkpt>
      <trkpt lat="41.689644" lon="2.274565">
        <ele>315.440</ele>
        <time>2022-10-23T08:43:18Z</time>
      </trkpt>
      <trkpt lat="41.689659" lon="2.274559">
        <ele>316.066</ele>
        <time>2022-10-23T08:43:19Z</time>
      </trkpt>
      <trkpt lat="41.689674" lon="2.274554">
        <ele>316.446</ele>
        <time>2022-10-23T08:43:20Z</time>
      </trkpt>
      <trkpt lat="41.689695" lon="2.274547">
        <ele>316.879</ele>
        <time>2022-10-23T08:43:21Z</time>
      </trkpt>
      <trkpt lat="41.689720" lon="2.274532">
        <ele>317.027</ele>
        <time>2022-10-23T08:43:22Z</time>
      </trkpt>
      <trkpt lat="41.689746" lon="2.274510">
        <ele>317.468</ele>
        <time>2022-10-23T08:43:23Z</time>
      </trkpt>
      <trkpt lat="41.689771" lon="2.274489">
        <ele>317.614</ele>
        <time>2022-10-23T08:43:24Z</time>
      </trkpt>
      <trkpt lat="41.689798" lon="2.274463">
        <ele>318.209</ele>
        <time>2022-10-23T08:43:25Z</time>
      </trkpt>
      <trkpt lat="41.689822" lon="2.274434">
        <ele>318.253</ele>
        <time>2022-10-23T08:43:26Z</time>
      </trkpt>
      <trkpt lat="41.689847" lon="2.274407">
        <ele>318.673</ele>
        <time>2022-10-23T08:43:27Z</time>
      </trkpt>
      <trkpt lat="41.689874" lon="2.274385">
        <ele>318.679</ele>
        <time>2022-10-23T08:43:28Z</time>
      </trkpt>
      <trkpt lat="41.689899" lon="2.274367">
        <ele>318.862</ele>
        <time>2022-10-23T08:43:29Z</time>
      </trkpt>
      <trkpt lat="41.689928" lon="2.274351">
        <ele>319.038</ele>
        <time>2022-10-23T08:43:30Z</time>
      </trkpt>
      <trkpt lat="41.689956" lon="2.274340">
        <ele>319.086</ele>
        <time>2022-10-23T08:43:31Z</time>
      </trkpt>
      <trkpt lat="41.689983" lon="2.274334">
        <ele>319.022</ele>
        <time>2022-10-23T08:43:32Z</time>
      </trkpt>
      <trkpt lat="41.690008" lon="2.274331">
        <ele>319.262</ele>
        <time>2022-10-23T08:43:33Z</time>
      </trkpt>
      <trkpt lat="41.690033" lon="2.274332">
        <ele>319.295</ele>
        <time>2022-10-23T08:43:34Z</time>
      </trkpt>
      <trkpt lat="41.690059" lon="2.274329">
        <ele>319.276</ele>
        <time>2022-10-23T08:43:35Z</time>
      </trkpt>
      <trkpt lat="41.690088" lon="2.274330">
        <ele>319.490</ele>
        <time>2022-10-23T08:43:36Z</time>
      </trkpt>
      <trkpt lat="41.690117" lon="2.274326">
        <ele>319.419</ele>
        <time>2022-10-23T08:43:37Z</time>
      </trkpt>
      <trkpt lat="41.690145" lon="2.274321">
        <ele>319.609</ele>
        <time>2022-10-23T08:43:38Z</time>
      </trkpt>
      <trkpt lat="41.690169" lon="2.274317">
        <ele>319.688</ele>
        <time>2022-10-23T08:43:39Z</time>
      </trkpt>
      <trkpt lat="41.690193" lon="2.274314">
        <ele>319.818</ele>
        <time>2022-10-23T08:43:40Z</time>
      </trkpt>
      <trkpt lat="41.690221" lon="2.274314">
        <ele>320.054</ele>
        <time>2022-10-23T08:43:41Z</time>
      </trkpt>
      <trkpt lat="41.690249" lon="2.274310">
        <ele>320.437</ele>
        <time>2022-10-23T08:43:42Z</time>
      </trkpt>
      <trkpt lat="41.690277" lon="2.274303">
        <ele>320.683</ele>
        <time>2022-10-23T08:43:43Z</time>
      </trkpt>
      <trkpt lat="41.690302" lon="2.274291">
        <ele>321.041</ele>
        <time>2022-10-23T08:43:44Z</time>
      </trkpt>
      <trkpt lat="41.690326" lon="2.274281">
        <ele>321.257</ele>
        <time>2022-10-23T08:43:45Z</time>
      </trkpt>
      <trkpt lat="41.690350" lon="2.274272">
        <ele>321.867</ele>
        <time>2022-10-23T08:43:46Z</time>
      </trkpt>
      <trkpt lat="41.690374" lon="2.274263">
        <ele>322.230</ele>
        <time>2022-10-23T08:43:47Z</time>
      </trkpt>
      <trkpt lat="41.690395" lon="2.274251">
        <ele>322.428</ele>
        <time>2022-10-23T08:43:48Z</time>
      </trkpt>
      <trkpt lat="41.690414" lon="2.274234">
        <ele>322.889</ele>
        <time>2022-10-23T08:43:49Z</time>
      </trkpt>
      <trkpt lat="41.690436" lon="2.274216">
        <ele>323.017</ele>
        <time>2022-10-23T08:43:50Z</time>
      </trkpt>
      <trkpt lat="41.690459" lon="2.274198">
        <ele>323.209</ele>
        <time>2022-10-23T08:43:51Z</time>
      </trkpt>
      <trkpt lat="41.690479" lon="2.274181">
        <ele>323.463</ele>
        <time>2022-10-23T08:43:52Z</time>
      </trkpt>
      <trkpt lat="41.690497" lon="2.274163">
        <ele>323.823</ele>
        <time>2022-10-23T08:43:53Z</time>
      </trkpt>
      <trkpt lat="41.690514" lon="2.274143">
        <ele>324.099</ele>
        <time>2022-10-23T08:43:54Z</time>
      </trkpt>
      <trkpt lat="41.690525" lon="2.274120">
        <ele>324.452</ele>
        <time>2022-10-23T08:43:55Z</time>
      </trkpt>
      <trkpt lat="41.690531" lon="2.274096">
        <ele>324.688</ele>
        <time>2022-10-23T08:43:56Z</time>
      </trkpt>
      <trkpt lat="41.690528" lon="2.274079">
        <ele>325.296</ele>
        <time>2022-10-23T08:43:57Z</time>
      </trkpt>
      <trkpt lat="41.690517" lon="2.274065">
        <ele>325.412</ele>
        <time>2022-10-23T08:43:58Z</time>
      </trkpt>
      <trkpt lat="41.690503" lon="2.274058">
        <ele>325.892</ele>
        <time>2022-10-23T08:43:59Z</time>
      </trkpt>
      <trkpt lat="41.690482" lon="2.274056">
        <ele>326.245</ele>
        <time>2022-10-23T08:44:00Z</time>
      </trkpt>
      <trkpt lat="41.690459" lon="2.274052">
        <ele>326.638</ele>
        <time>2022-10-23T08:44:01Z</time>
      </trkpt>
      <trkpt lat="41.690434" lon="2.274050">
        <ele>327.070</ele>
        <time>2022-10-23T08:44:02Z</time>
      </trkpt>
      <trkpt lat="41.690410" lon="2.274043">
        <ele>327.417</ele>
        <time>2022-10-23T08:44:03Z</time>
      </trkpt>
      <trkpt lat="41.690385" lon="2.274032">
        <ele>328.009</ele>
        <time>2022-10-23T08:44:04Z</time>
      </trkpt>
      <trkpt lat="41.690363" lon="2.274021">
        <ele>328.414</ele>
        <time>2022-10-23T08:44:05Z</time>
      </trkpt>
      <trkpt lat="41.690341" lon="2.274011">
        <ele>328.884</ele>
        <time>2022-10-23T08:44:06Z</time>
      </trkpt>
      <trkpt lat="41.690318" lon="2.274003">
        <ele>329.030</ele>
        <time>2022-10-23T08:44:07Z</time>
      </trkpt>
      <trkpt lat="41.690295" lon="2.273992">
        <ele>329.253</ele>
        <time>2022-10-23T08:44:08Z</time>
      </trkpt>
      <trkpt lat="41.690273" lon="2.273981">
        <ele>329.449</ele>
        <time>2022-10-23T08:44:09Z</time>
      </trkpt>
      <trkpt lat="41.690250" lon="2.273971">
        <ele>329.857</ele>
        <time>2022-10-23T08:44:10Z</time>
      </trkpt>
      <trkpt lat="41.690225" lon="2.273961">
        <ele>329.863</ele>
        <time>2022-10-23T08:44:11Z</time>
      </trkpt>
      <trkpt lat="41.690201" lon="2.273951">
        <ele>330.063</ele>
        <time>2022-10-23T08:44:12Z</time>
      </trkpt>
      <trkpt lat="41.690179" lon="2.273937">
        <ele>330.256</ele>
        <time>2022-10-23T08:44:13Z</time>
      </trkpt>
      <trkpt lat="41.690157" lon="2.273923">
        <ele>330.232</ele>
        <time>2022-10-23T08:44:14Z</time>
      </trkpt>
      <trkpt lat="41.690135" lon="2.273912">
        <ele>330.292</ele>
        <time>2022-10-23T08:44:15Z</time>
      </trkpt>
      <trkpt lat="41.690112" lon="2.273903">
        <ele>330.211</ele>
        <time>2022-10-23T08:44:16Z</time>
      </trkpt>
      <trkpt lat="41.690090" lon="2.273890">
        <ele>330.409</ele>
        <time>2022-10-23T08:44:17Z</time>
      </trkpt>
      <trkpt lat="41.690069" lon="2.273876">
        <ele>330.664</ele>
        <time>2022-10-23T08:44:18Z</time>
      </trkpt>
      <trkpt lat="41.690048" lon="2.273862">
        <ele>330.824</ele>
        <time>2022-10-23T08:44:19Z</time>
      </trkpt>
      <trkpt lat="41.690024" lon="2.273848">
        <ele>331.020</ele>
        <time>2022-10-23T08:44:20Z</time>
      </trkpt>
      <trkpt lat="41.689999" lon="2.273832">
        <ele>331.083</ele>
        <time>2022-10-23T08:44:21Z</time>
      </trkpt>
      <trkpt lat="41.689972" lon="2.273821">
        <ele>331.239</ele>
        <time>2022-10-23T08:44:22Z</time>
      </trkpt>
      <trkpt lat="41.689945" lon="2.273813">
        <ele>331.257</ele>
        <time>2022-10-23T08:44:23Z</time>
      </trkpt>
      <trkpt lat="41.689917" lon="2.273810">
        <ele>331.233</ele>
        <time>2022-10-23T08:44:24Z</time>
      </trkpt>
      <trkpt lat="41.689886" lon="2.273810">
        <ele>331.243</ele>
        <time>2022-10-23T08:44:25Z</time>
      </trkpt>
      <trkpt lat="41.689851" lon="2.273813">
        <ele>331.226</ele>
        <time>2022-10-23T08:44:26Z</time>
      </trkpt>
      <trkpt lat="41.689812" lon="2.273817">
        <ele>331.223</ele>
        <time>2022-10-23T08:44:27Z</time>
      </trkpt>
      <trkpt lat="41.689772" lon="2.273817">
        <ele>331.283</ele>
        <time>2022-10-23T08:44:28Z</time>
      </trkpt>
      <trkpt lat="41.689732" lon="2.273811">
        <ele>331.211</ele>
        <time>2022-10-23T08:44:29Z</time>
      </trkpt>
      <trkpt lat="41.689700" lon="2.273801">
        <ele>331.209</ele>
        <time>2022-10-23T08:44:30Z</time>
      </trkpt>
      <trkpt lat="41.689673" lon="2.273784">
        <ele>331.253</ele>
        <time>2022-10-23T08:44:31Z</time>
      </trkpt>
      <trkpt lat="41.689653" lon="2.273760">
        <ele>331.243</ele>
        <time>2022-10-23T08:44:32Z</time>
      </trkpt>
      <trkpt lat="41.689643" lon="2.273730">
        <ele>331.279</ele>
        <time>2022-10-23T08:44:33Z</time>
      </trkpt>
      <trkpt lat="41.689645" lon="2.273700">
        <ele>331.052</ele>
        <time>2022-10-23T08:44:34Z</time>
      </trkpt>
      <trkpt lat="41.689656" lon="2.273673">
        <ele>331.088</ele>
        <time>2022-10-23T08:44:35Z</time>
      </trkpt>
      <trkpt lat="41.689672" lon="2.273653">
        <ele>331.016</ele>
        <time>2022-10-23T08:44:36Z</time>
      </trkpt>
      <trkpt lat="41.689691" lon="2.273634">
        <ele>331.032</ele>
        <time>2022-10-23T08:44:37Z</time>
      </trkpt>
      <trkpt lat="41.689711" lon="2.273617">
        <ele>331.012</ele>
        <time>2022-10-23T08:44:38Z</time>
      </trkpt>
      <trkpt lat="41.689731" lon="2.273603">
        <ele>331.055</ele>
        <time>2022-10-23T08:44:39Z</time>
      </trkpt>
      <trkpt lat="41.689750" lon="2.273588">
        <ele>331.011</ele>
        <time>2022-10-23T08:44:40Z</time>
      </trkpt>
      <trkpt lat="41.689769" lon="2.273569">
        <ele>331.021</ele>
        <time>2022-10-23T08:44:41Z</time>
      </trkpt>
      <trkpt lat="41.689791" lon="2.273549">
        <ele>331.203</ele>
        <time>2022-10-23T08:44:42Z</time>
      </trkpt>
      <trkpt lat="41.689814" lon="2.273532">
        <ele>331.609</ele>
        <time>2022-10-23T08:44:43Z</time>
      </trkpt>
      <trkpt lat="41.689838" lon="2.273513">
        <ele>332.092</ele>
        <time>2022-10-23T08:44:44Z</time>
      </trkpt>
      <trkpt lat="41.689861" lon="2.273494">
        <ele>332.252</ele>
        <time>2022-10-23T08:44:45Z</time>
      </trkpt>
      <trkpt lat="41.689882" lon="2.273475">
        <ele>332.658</ele>
        <time>2022-10-23T08:44:46Z</time>
      </trkpt>
      <trkpt lat="41.689900" lon="2.273456">
        <ele>332.831</ele>
        <time>2022-10-23T08:44:47Z</time>
      </trkpt>
      <trkpt lat="41.689916" lon="2.273435">
        <ele>333.297</ele>
        <time>2022-10-23T08:44:48Z</time>
      </trkpt>
      <trkpt lat="41.689935" lon="2.273420">
        <ele>333.465</ele>
        <time>2022-10-23T08:44:49Z</time>
      </trkpt>
      <trkpt lat="41.689953" lon="2.273409">
        <ele>333.671</ele>
        <time>2022-10-23T08:44:50Z</time>
      </trkpt>
      <trkpt lat="41.689972" lon="2.273398">
        <ele>334.091</ele>
        <time>2022-10-23T08:44:51Z</time>
      </trkpt>
      <trkpt lat="41.689991" lon="2.273388">
        <ele>334.894</ele>
        <time>2022-10-23T08:44:52Z</time>
      </trkpt>
      <trkpt lat="41.690007" lon="2.273378">
        <ele>335.459</ele>
        <time>2022-10-23T08:44:53Z</time>
      </trkpt>
      <trkpt lat="41.690023" lon="2.273371">
        <ele>336.003</ele>
        <time>2022-10-23T08:44:54Z</time>
      </trkpt>
      <trkpt lat="41.690044" lon="2.273366">
        <ele>336.623</ele>
        <time>2022-10-23T08:44:55Z</time>
      </trkpt>
      <trkpt lat="41.690068" lon="2.273360">
        <ele>337.209</ele>
        <time>2022-10-23T08:44:56Z</time>
      </trkpt>
      <trkpt lat="41.690091" lon="2.273353">
        <ele>337.866</ele>
        <time>2022-10-23T08:44:57Z</time>
      </trkpt>
      <trkpt lat="41.690115" lon="2.273344">
        <ele>338.416</ele>
        <time>2022-10-23T08:44:58Z</time>
      </trkpt>
      <trkpt lat="41.690137" lon="2.273328">
        <ele>339.072</ele>
        <time>2022-10-23T08:44:59Z</time>
      </trkpt>
      <trkpt lat="41.690154" lon="2.273306">
        <ele>339.425</ele>
        <time>2022-10-23T08:45:00Z</time>
      </trkpt>
      <trkpt lat="41.690166" lon="2.273279">
        <ele>339.821</ele>
        <time>2022-10-23T08:45:01Z</time>
      </trkpt>
      <trkpt lat="41.690176" lon="2.273251">
        <ele>340.479</ele>
        <time>2022-10-23T08:45:02Z</time>
      </trkpt>
      <trkpt lat="41.690180" lon="2.273227">
        <ele>340.825</ele>
        <time>2022-10-23T08:45:03Z</time>
      </trkpt>
      <trkpt lat="41.690181" lon="2.273200">
        <ele>341.445</ele>
        <time>2022-10-23T08:45:04Z</time>
      </trkpt>
      <trkpt lat="41.690182" lon="2.273172">
        <ele>341.828</ele>
        <time>2022-10-23T08:45:05Z</time>
      </trkpt>
      <trkpt lat="41.690185" lon="2.273141">
        <ele>342.258</ele>
        <time>2022-10-23T08:45:06Z</time>
      </trkpt>
      <trkpt lat="41.690189" lon="2.273109">
        <ele>342.652</ele>
        <time>2022-10-23T08:45:07Z</time>
      </trkpt>
      <trkpt lat="41.690191" lon="2.273075">
        <ele>343.217</ele>
        <time>2022-10-23T08:45:08Z</time>
      </trkpt>
      <trkpt lat="41.690196" lon="2.273044">
        <ele>343.609</ele>
        <time>2022-10-23T08:45:09Z</time>
      </trkpt>
      <trkpt lat="41.690199" lon="2.273013">
        <ele>344.066</ele>
        <time>2022-10-23T08:45:10Z</time>
      </trkpt>
      <trkpt lat="41.690203" lon="2.272985">
        <ele>344.426</ele>
        <time>2022-10-23T08:45:11Z</time>
      </trkpt>
      <trkpt lat="41.690206" lon="2.272959">
        <ele>344.852</ele>
        <time>2022-10-23T08:45:12Z</time>
      </trkpt>
      <trkpt lat="41.690208" lon="2.272934">
        <ele>345.085</ele>
        <time>2022-10-23T08:45:13Z</time>
      </trkpt>
      <trkpt lat="41.690208" lon="2.272909">
        <ele>345.211</ele>
        <time>2022-10-23T08:45:14Z</time>
      </trkpt>
      <trkpt lat="41.690206" lon="2.272884">
        <ele>345.239</ele>
        <time>2022-10-23T08:45:15Z</time>
      </trkpt>
      <trkpt lat="41.690206" lon="2.272861">
        <ele>345.425</ele>
        <time>2022-10-23T08:45:16Z</time>
      </trkpt>
      <trkpt lat="41.690207" lon="2.272837">
        <ele>345.625</ele>
        <time>2022-10-23T08:45:17Z</time>
      </trkpt>
      <trkpt lat="41.690209" lon="2.272810">
        <ele>346.058</ele>
        <time>2022-10-23T08:45:18Z</time>
      </trkpt>
      <trkpt lat="41.690212" lon="2.272782">
        <ele>346.298</ele>
        <time>2022-10-23T08:45:19Z</time>
      </trkpt>
      <trkpt lat="41.690213" lon="2.272755">
        <ele>346.815</ele>
        <time>2022-10-23T08:45:20Z</time>
      </trkpt>
      <trkpt lat="41.690215" lon="2.272725">
        <ele>347.426</ele>
        <time>2022-10-23T08:45:21Z</time>
      </trkpt>
      <trkpt lat="41.690218" lon="2.272695">
        <ele>347.809</ele>
        <time>2022-10-23T08:45:22Z</time>
      </trkpt>
      <trkpt lat="41.690222" lon="2.272663">
        <ele>348.230</ele>
        <time>2022-10-23T08:45:23Z</time>
      </trkpt>
      <trkpt lat="41.690227" lon="2.272633">
        <ele>348.620</ele>
        <time>2022-10-23T08:45:24Z</time>
      </trkpt>
      <trkpt lat="41.690233" lon="2.272601">
        <ele>348.856</ele>
        <time>2022-10-23T08:45:25Z</time>
      </trkpt>
      <trkpt lat="41.690239" lon="2.272569">
        <ele>349.249</ele>
        <time>2022-10-23T08:45:26Z</time>
      </trkpt>
      <trkpt lat="41.690245" lon="2.272536">
        <ele>349.475</ele>
        <time>2022-10-23T08:45:27Z</time>
      </trkpt>
      <trkpt lat="41.690253" lon="2.272503">
        <ele>349.833</ele>
        <time>2022-10-23T08:45:28Z</time>
      </trkpt>
      <trkpt lat="41.690262" lon="2.272473">
        <ele>350.049</ele>
        <time>2022-10-23T08:45:29Z</time>
      </trkpt>
      <trkpt lat="41.690271" lon="2.272443">
        <ele>350.299</ele>
        <time>2022-10-23T08:45:30Z</time>
      </trkpt>
      <trkpt lat="41.690281" lon="2.272415">
        <ele>350.412</ele>
        <time>2022-10-23T08:45:31Z</time>
      </trkpt>
      <trkpt lat="41.690289" lon="2.272387">
        <ele>350.879</ele>
        <time>2022-10-23T08:45:32Z</time>
      </trkpt>
      <trkpt lat="41.690298" lon="2.272360">
        <ele>351.005</ele>
        <time>2022-10-23T08:45:33Z</time>
      </trkpt>
      <trkpt lat="41.690309" lon="2.272334">
        <ele>351.225</ele>
        <time>2022-10-23T08:45:34Z</time>
      </trkpt>
      <trkpt lat="41.690319" lon="2.272306">
        <ele>351.409</ele>
        <time>2022-10-23T08:45:35Z</time>
      </trkpt>
      <trkpt lat="41.690332" lon="2.272278">
        <ele>351.688</ele>
        <time>2022-10-23T08:45:36Z</time>
      </trkpt>
      <trkpt lat="41.690346" lon="2.272252">
        <ele>351.888</ele>
        <time>2022-10-23T08:45:37Z</time>
      </trkpt>
      <trkpt lat="41.690360" lon="2.272227">
        <ele>352.074</ele>
        <time>2022-10-23T08:45:38Z</time>
      </trkpt>
      <trkpt lat="41.690376" lon="2.272204">
        <ele>352.297</ele>
        <time>2022-10-23T08:45:39Z</time>
      </trkpt>
      <trkpt lat="41.690393" lon="2.272185">
        <ele>352.473</ele>
        <time>2022-10-23T08:45:40Z</time>
      </trkpt>
      <trkpt lat="41.690410" lon="2.272166">
        <ele>352.681</ele>
        <time>2022-10-23T08:45:41Z</time>
      </trkpt>
      <trkpt lat="41.690427" lon="2.272146">
        <ele>352.817</ele>
        <time>2022-10-23T08:45:42Z</time>
      </trkpt>
      <trkpt lat="41.690444" lon="2.272122">
        <ele>353.057</ele>
        <time>2022-10-23T08:45:43Z</time>
      </trkpt>
      <trkpt lat="41.690462" lon="2.272103">
        <ele>353.220</ele>
        <time>2022-10-23T08:45:44Z</time>
      </trkpt>
      <trkpt lat="41.690479" lon="2.272085">
        <ele>353.486</ele>
        <time>2022-10-23T08:45:45Z</time>
      </trkpt>
      <trkpt lat="41.690499" lon="2.272074">
        <ele>353.860</ele>
        <time>2022-10-23T08:45:46Z</time>
      </trkpt>
      <trkpt lat="41.690519" lon="2.272062">
        <ele>354.026</ele>
        <time>2022-10-23T08:45:47Z</time>
      </trkpt>
      <trkpt lat="41.690539" lon="2.272051">
        <ele>354.209</ele>
        <time>2022-10-23T08:45:48Z</time>
      </trkpt>
      <trkpt lat="41.690560" lon="2.272040">
        <ele>354.469</ele>
        <time>2022-10-23T08:45:49Z</time>
      </trkpt>
      <trkpt lat="41.690583" lon="2.272026">
        <ele>354.869</ele>
        <time>2022-10-23T08:45:50Z</time>
      </trkpt>
      <trkpt lat="41.690604" lon="2.272011">
        <ele>355.285</ele>
        <time>2022-10-23T08:45:51Z</time>
      </trkpt>
      <trkpt lat="41.690621" lon="2.271997">
        <ele>355.428</ele>
        <time>2022-10-23T08:45:52Z</time>
      </trkpt>
      <trkpt lat="41.690635" lon="2.271978">
        <ele>355.864</ele>
        <time>2022-10-23T08:45:53Z</time>
      </trkpt>
      <trkpt lat="41.690649" lon="2.271956">
        <ele>356.052</ele>
        <time>2022-10-23T08:45:54Z</time>
      </trkpt>
      <trkpt lat="41.690664" lon="2.271933">
        <ele>356.468</ele>
        <time>2022-10-23T08:45:55Z</time>
      </trkpt>
      <trkpt lat="41.690677" lon="2.271903">
        <ele>356.618</ele>
        <time>2022-10-23T08:45:56Z</time>
      </trkpt>
      <trkpt lat="41.690688" lon="2.271870">
        <ele>356.811</ele>
        <time>2022-10-23T08:45:57Z</time>
      </trkpt>
      <trkpt lat="41.690698" lon="2.271831">
        <ele>357.059</ele>
        <time>2022-10-23T08:45:58Z</time>
      </trkpt>
      <trkpt lat="41.690711" lon="2.271789">
        <ele>357.203</ele>
        <time>2022-10-23T08:45:59Z</time>
      </trkpt>
      <trkpt lat="41.690724" lon="2.271743">
        <ele>357.223</ele>
        <time>2022-10-23T08:46:00Z</time>
      </trkpt>
      <trkpt lat="41.690736" lon="2.271700">
        <ele>357.209</ele>
        <time>2022-10-23T08:46:01Z</time>
      </trkpt>
      <trkpt lat="41.690748" lon="2.271655">
        <ele>357.246</ele>
        <time>2022-10-23T08:46:02Z</time>
      </trkpt>
      <trkpt lat="41.690761" lon="2.271609">
        <ele>357.236</ele>
        <time>2022-10-23T08:46:03Z</time>
      </trkpt>
      <trkpt lat="41.690772" lon="2.271562">
        <ele>357.292</ele>
        <time>2022-10-23T08:46:04Z</time>
      </trkpt>
      <trkpt lat="41.690783" lon="2.271512">
        <ele>357.225</ele>
        <time>2022-10-23T08:46:05Z</time>
      </trkpt>
      <trkpt lat="41.690795" lon="2.271460">
        <ele>357.251</ele>
        <time>2022-10-23T08:46:06Z</time>
      </trkpt>
      <trkpt lat="41.690810" lon="2.271408">
        <ele>357.239</ele>
        <time>2022-10-23T08:46:07Z</time>
      </trkpt>
      <trkpt lat="41.690831" lon="2.271362">
        <ele>357.225</ele>
        <time>2022-10-23T08:46:08Z</time>
      </trkpt>
      <trkpt lat="41.690862" lon="2.271324">
        <ele>357.295</ele>
        <time>2022-10-23T08:46:09Z</time>
      </trkpt>
      <trkpt lat="41.690900" lon="2.271296">
        <ele>357.078</ele>
        <time>2022-10-23T08:46:10Z</time>
      </trkpt>
      <trkpt lat="41.690944" lon="2.271274">
        <ele>357.051</ele>
        <time>2022-10-23T08:46:11Z</time>
      </trkpt>
      <trkpt lat="41.690991" lon="2.271258">
        <ele>356.801</ele>
        <time>2022-10-23T08:46:12Z</time>
      </trkpt>
      <trkpt lat="41.691041" lon="2.271245">
        <ele>356.811</ele>
        <time>2022-10-23T08:46:13Z</time>
      </trkpt>
      <trkpt lat="41.691093" lon="2.271234">
        <ele>356.609</ele>
        <time>2022-10-23T08:46:14Z</time>
      </trkpt>
      <trkpt lat="41.691144" lon="2.271222">
        <ele>356.226</ele>
        <time>2022-10-23T08:46:15Z</time>
      </trkpt>
      <trkpt lat="41.691192" lon="2.271211">
        <ele>355.846</ele>
        <time>2022-10-23T08:46:16Z</time>
      </trkpt>
      <trkpt lat="41.691234" lon="2.271198">
        <ele>355.692</ele>
        <time>2022-10-23T08:46:17Z</time>
      </trkpt>
      <trkpt lat="41.691273" lon="2.271184">
        <ele>355.295</ele>
        <time>2022-10-23T08:46:18Z</time>
      </trkpt>
      <trkpt lat="41.691312" lon="2.271177">
        <ele>354.861</ele>
        <time>2022-10-23T08:46:19Z</time>
      </trkpt>
      <trkpt lat="41.691350" lon="2.271169">
        <ele>354.639</ele>
        <time>2022-10-23T08:46:20Z</time>
      </trkpt>
      <trkpt lat="41.691388" lon="2.271155">
        <ele>354.495</ele>
        <time>2022-10-23T08:46:21Z</time>
      </trkpt>
      <trkpt lat="41.691425" lon="2.271142">
        <ele>354.475</ele>
        <time>2022-10-23T08:46:22Z</time>
      </trkpt>
      <trkpt lat="41.691460" lon="2.271124">
        <ele>354.458</ele>
        <time>2022-10-23T08:46:23Z</time>
      </trkpt>
      <trkpt lat="41.691494" lon="2.271103">
        <ele>354.415</ele>
        <time>2022-10-23T08:46:24Z</time>
      </trkpt>
      <trkpt lat="41.691525" lon="2.271078">
        <ele>354.465</ele>
        <time>2022-10-23T08:46:25Z</time>
      </trkpt>
      <trkpt lat="41.691553" lon="2.271051">
        <ele>354.411</ele>
        <time>2022-10-23T08:46:26Z</time>
      </trkpt>
      <trkpt lat="41.691582" lon="2.271025">
        <ele>354.409</ele>
        <time>2022-10-23T08:46:27Z</time>
      </trkpt>
      <trkpt lat="41.691611" lon="2.271002">
        <ele>354.412</ele>
        <time>2022-10-23T08:46:28Z</time>
      </trkpt>
      <trkpt lat="41.691641" lon="2.270982">
        <ele>354.422</ele>
        <time>2022-10-23T08:46:29Z</time>
      </trkpt>
      <trkpt lat="41.691669" lon="2.270966">
        <ele>354.468</ele>
        <time>2022-10-23T08:46:30Z</time>
      </trkpt>
      <trkpt lat="41.691697" lon="2.270953">
        <ele>354.641</ele>
        <time>2022-10-23T08:46:31Z</time>
      </trkpt>
      <trkpt lat="41.691724" lon="2.270946">
        <ele>354.617</ele>
        <time>2022-10-23T08:46:32Z</time>
      </trkpt>
      <trkpt lat="41.691750" lon="2.270938">
        <ele>354.845</ele>
        <time>2022-10-23T08:46:33Z</time>
      </trkpt>
      <trkpt lat="41.691776" lon="2.270928">
        <ele>355.011</ele>
        <time>2022-10-23T08:46:34Z</time>
      </trkpt>
      <trkpt lat="41.691801" lon="2.270919">
        <ele>355.431</ele>
        <time>2022-10-23T08:46:35Z</time>
      </trkpt>
      <trkpt lat="41.691824" lon="2.270912">
        <ele>355.644</ele>
        <time>2022-10-23T08:46:36Z</time>
      </trkpt>
      <trkpt lat="41.691846" lon="2.270910">
        <ele>355.834</ele>
        <time>2022-10-23T08:46:37Z</time>
      </trkpt>
      <trkpt lat="41.691871" lon="2.270910">
        <ele>356.455</ele>
        <time>2022-10-23T08:46:38Z</time>
      </trkpt>
      <trkpt lat="41.691899" lon="2.270910">
        <ele>356.610</ele>
        <time>2022-10-23T08:46:39Z</time>
      </trkpt>
      <trkpt lat="41.691925" lon="2.270909">
        <ele>357.209</ele>
        <time>2022-10-23T08:46:40Z</time>
      </trkpt>
      <trkpt lat="41.691950" lon="2.270907">
        <ele>357.814</ele>
        <time>2022-10-23T08:46:41Z</time>
      </trkpt>
      <trkpt lat="41.691973" lon="2.270907">
        <ele>358.844</ele>
        <time>2022-10-23T08:46:42Z</time>
      </trkpt>
      <trkpt lat="41.691995" lon="2.270908">
        <ele>359.490</ele>
        <time>2022-10-23T08:46:43Z</time>
      </trkpt>
      <trkpt lat="41.692018" lon="2.270907">
        <ele>359.683</ele>
        <time>2022-10-23T08:46:44Z</time>
      </trkpt>
      <trkpt lat="41.692040" lon="2.270896">
        <ele>360.099</ele>
        <time>2022-10-23T08:46:45Z</time>
      </trkpt>
      <trkpt lat="41.692062" lon="2.270884">
        <ele>360.447</ele>
        <time>2022-10-23T08:46:46Z</time>
      </trkpt>
      <trkpt lat="41.692084" lon="2.270868">
        <ele>360.613</ele>
        <time>2022-10-23T08:46:47Z</time>
      </trkpt>
      <trkpt lat="41.692105" lon="2.270844">
        <ele>360.823</ele>
        <time>2022-10-23T08:46:48Z</time>
      </trkpt>
      <trkpt lat="41.692125" lon="2.270824">
        <ele>361.276</ele>
        <time>2022-10-23T08:46:49Z</time>
      </trkpt>
      <trkpt lat="41.692145" lon="2.270800">
        <ele>361.645</ele>
        <time>2022-10-23T08:46:50Z</time>
      </trkpt>
      <trkpt lat="41.692164" lon="2.270776">
        <ele>361.847</ele>
        <time>2022-10-23T08:46:51Z</time>
      </trkpt>
      <trkpt lat="41.692185" lon="2.270753">
        <ele>362.211</ele>
        <time>2022-10-23T08:46:52Z</time>
      </trkpt>
      <trkpt lat="41.692206" lon="2.270731">
        <ele>362.609</ele>
        <time>2022-10-23T08:46:53Z</time>
      </trkpt>
      <trkpt lat="41.692227" lon="2.270707">
        <ele>363.095</ele>
        <time>2022-10-23T08:46:54Z</time>
      </trkpt>
      <trkpt lat="41.692249" lon="2.270682">
        <ele>363.235</ele>
        <time>2022-10-23T08:46:55Z</time>
      </trkpt>
      <trkpt lat="41.692270" lon="2.270654">
        <ele>363.651</ele>
        <time>2022-10-23T08:46:56Z</time>
      </trkpt>
      <trkpt lat="41.692291" lon="2.270626">
        <ele>364.014</ele>
        <time>2022-10-23T08:46:57Z</time>
      </trkpt>
      <trkpt lat="41.692309" lon="2.270593">
        <ele>364.430</ele>
        <time>2022-10-23T08:46:58Z</time>
      </trkpt>
      <trkpt lat="41.692328" lon="2.270564">
        <ele>365.068</ele>
        <time>2022-10-23T08:46:59Z</time>
      </trkpt>
      <trkpt lat="41.692345" lon="2.270534">
        <ele>365.234</ele>
        <time>2022-10-23T08:47:00Z</time>
      </trkpt>
      <trkpt lat="41.692361" lon="2.270505">
        <ele>365.854</ele>
        <time>2022-10-23T08:47:01Z</time>
      </trkpt>
      <trkpt lat="41.692376" lon="2.270473">
        <ele>366.087</ele>
        <time>2022-10-23T08:47:02Z</time>
      </trkpt>
      <trkpt lat="41.692391" lon="2.270439">
        <ele>366.435</ele>
        <time>2022-10-23T08:47:03Z</time>
      </trkpt>
      <trkpt lat="41.692407" lon="2.270408">
        <ele>366.686</ele>
        <time>2022-10-23T08:47:04Z</time>
      </trkpt>
      <trkpt lat="41.692424" lon="2.270374">
        <ele>367.014</ele>
        <time>2022-10-23T08:47:05Z</time>
      </trkpt>
      <trkpt lat="41.692441" lon="2.270339">
        <ele>367.409</ele>
        <time>2022-10-23T08:47:06Z</time>
      </trkpt>
      <trkpt lat="41.692453" lon="2.270299">
        <ele>367.634</ele>
        <time>2022-10-23T08:47:07Z</time>
      </trkpt>
      <trkpt lat="41.692463" lon="2.270260">
        <ele>367.814</ele>
        <time>2022-10-23T08:47:08Z</time>
      </trkpt>
      <trkpt lat="41.692469" lon="2.270221">
        <ele>368.470</ele>
        <time>2022-10-23T08:47:09Z</time>
      </trkpt>
      <trkpt lat="41.692471" lon="2.270183">
        <ele>368.443</ele>
        <time>2022-10-23T08:47:10Z</time>
      </trkpt>
      <trkpt lat="41.692474" lon="2.270147">
        <ele>368.649</ele>
        <time>2022-10-23T08:47:11Z</time>
      </trkpt>
      <trkpt lat="41.692474" lon="2.270110">
        <ele>368.667</ele>
        <time>2022-10-23T08:47:12Z</time>
      </trkpt>
      <trkpt lat="41.692472" lon="2.270074">
        <ele>368.873</ele>
        <time>2022-10-23T08:47:13Z</time>
      </trkpt>
      <trkpt lat="41.692473" lon="2.270039">
        <ele>368.863</ele>
        <time>2022-10-23T08:47:14Z</time>
      </trkpt>
      <trkpt lat="41.692478" lon="2.270005">
        <ele>368.886</ele>
        <time>2022-10-23T08:47:15Z</time>
      </trkpt>
      <trkpt lat="41.692489" lon="2.269973">
        <ele>369.081</ele>
        <time>2022-10-23T08:47:16Z</time>
      </trkpt>
      <trkpt lat="41.692503" lon="2.269946">
        <ele>369.461</ele>
        <time>2022-10-23T08:47:17Z</time>
      </trkpt>
      <trkpt lat="41.692521" lon="2.269919">
        <ele>369.617</ele>
        <time>2022-10-23T08:47:18Z</time>
      </trkpt>
      <trkpt lat="41.692542" lon="2.269896">
        <ele>369.809</ele>
        <time>2022-10-23T08:47:19Z</time>
      </trkpt>
      <trkpt lat="41.692565" lon="2.269876">
        <ele>370.299</ele>
        <time>2022-10-23T08:47:20Z</time>
      </trkpt>
      <trkpt lat="41.692589" lon="2.269855">
        <ele>370.469</ele>
        <time>2022-10-23T08:47:21Z</time>
      </trkpt>
      <trkpt lat="41.692614" lon="2.269832">
        <ele>370.885</ele>
        <time>2022-10-23T08:47:22Z</time>
      </trkpt>
      <trkpt lat="41.692637" lon="2.269811">
        <ele>371.098</ele>
        <time>2022-10-23T08:47:23Z</time>
      </trkpt>
      <trkpt lat="41.692660" lon="2.269791">
        <ele>371.464</ele>
        <time>2022-10-23T08:47:24Z</time>
      </trkpt>
      <trkpt lat="41.692682" lon="2.269768">
        <ele>371.612</ele>
        <time>2022-10-23T08:47:25Z</time>
      </trkpt>
      <trkpt lat="41.692706" lon="2.269745">
        <ele>371.818</ele>
        <time>2022-10-23T08:47:26Z</time>
      </trkpt>
      <trkpt lat="41.692730" lon="2.269723">
        <ele>372.078</ele>
        <time>2022-10-23T08:47:27Z</time>
      </trkpt>
      <trkpt lat="41.692754" lon="2.269705">
        <ele>372.491</ele>
        <time>2022-10-23T08:47:28Z</time>
      </trkpt>
      <trkpt lat="41.692779" lon="2.269689">
        <ele>372.695</ele>
        <time>2022-10-23T08:47:29Z</time>
      </trkpt>
      <trkpt lat="41.692801" lon="2.269672">
        <ele>372.849</ele>
        <time>2022-10-23T08:47:30Z</time>
      </trkpt>
      <trkpt lat="41.692822" lon="2.269653">
        <ele>373.223</ele>
        <time>2022-10-23T08:47:31Z</time>
      </trkpt>
      <trkpt lat="41.692844" lon="2.269633">
        <ele>373.609</ele>
        <time>2022-10-23T08:47:32Z</time>
      </trkpt>
      <trkpt lat="41.692864" lon="2.269614">
        <ele>373.860</ele>
        <time>2022-10-23T08:47:33Z</time>
      </trkpt>
      <trkpt lat="41.692883" lon="2.269594">
        <ele>374.050</ele>
        <time>2022-10-23T08:47:34Z</time>
      </trkpt>
      <trkpt lat="41.692902" lon="2.269573">
        <ele>374.476</ele>
        <time>2022-10-23T08:47:35Z</time>
      </trkpt>
      <trkpt lat="41.692921" lon="2.269551">
        <ele>374.849</ele>
        <time>2022-10-23T08:47:36Z</time>
      </trkpt>
      <trkpt lat="41.692941" lon="2.269530">
        <ele>375.235</ele>
        <time>2022-10-23T08:47:37Z</time>
      </trkpt>
      <trkpt lat="41.692960" lon="2.269510">
        <ele>375.623</ele>
        <time>2022-10-23T08:47:38Z</time>
      </trkpt>
      <trkpt lat="41.692979" lon="2.269490">
        <ele>376.049</ele>
        <time>2022-10-23T08:47:39Z</time>
      </trkpt>
      <trkpt lat="41.692998" lon="2.269474">
        <ele>376.419</ele>
        <time>2022-10-23T08:47:40Z</time>
      </trkpt>
      <trkpt lat="41.693016" lon="2.269461">
        <ele>376.842</ele>
        <time>2022-10-23T08:47:41Z</time>
      </trkpt>
      <trkpt lat="41.693035" lon="2.269449">
        <ele>377.466</ele>
        <time>2022-10-23T08:47:42Z</time>
      </trkpt>
      <trkpt lat="41.693055" lon="2.269441">
        <ele>378.029</ele>
        <time>2022-10-23T08:47:43Z</time>
      </trkpt>
      <trkpt lat="41.693074" lon="2.269430">
        <ele>378.621</ele>
        <time>2022-10-23T08:47:44Z</time>
      </trkpt>
      <trkpt lat="41.693095" lon="2.269418">
        <ele>379.409</ele>
        <time>2022-10-23T08:47:45Z</time>
      </trkpt>
      <trkpt lat="41.693115" lon="2.269410">
        <ele>379.837</ele>
        <time>2022-10-23T08:47:46Z</time>
      </trkpt>
      <trkpt lat="41.693135" lon="2.269404">
        <ele>380.487</ele>
        <time>2022-10-23T08:47:47Z</time>
      </trkpt>
      <trkpt lat="41.693154" lon="2.269398">
        <ele>381.043</ele>
        <time>2022-10-23T08:47:48Z</time>
      </trkpt>
      <trkpt lat="41.693174" lon="2.269390">
        <ele>381.626</ele>
        <time>2022-10-23T08:47:49Z</time>
      </trkpt>
      <trkpt lat="41.693195" lon="2.269382">
        <ele>382.272</ele>
        <time>2022-10-23T08:47:50Z</time>
      </trkpt>
      <trkpt lat="41.693215" lon="2.269373">
        <ele>382.820</ele>
        <time>2022-10-23T08:47:51Z</time>
      </trkpt>
      <trkpt lat="41.693234" lon="2.269359">
        <ele>383.286</ele>
        <time>2022-10-23T08:47:52Z</time>
      </trkpt>
      <trkpt lat="41.693255" lon="2.269346">
        <ele>383.836</ele>
        <time>2022-10-23T08:47:53Z</time>
      </trkpt>
      <trkpt lat="41.693276" lon="2.269332">
        <ele>384.029</ele>
        <time>2022-10-23T08:47:54Z</time>
      </trkpt>
      <trkpt lat="41.693297" lon="2.269319">
        <ele>384.669</ele>
        <time>2022-10-23T08:47:55Z</time>
      </trkpt>
      <trkpt lat="41.693319" lon="2.269309">
        <ele>385.004</ele>
        <time>2022-10-23T08:47:56Z</time>
      </trkpt>
      <trkpt lat="41.693343" lon="2.269303">
        <ele>385.624</ele>
        <time>2022-10-23T08:47:57Z</time>
      </trkpt>
      <trkpt lat="41.693366" lon="2.269299">
        <ele>385.809</ele>
        <time>2022-10-23T08:47:58Z</time>
      </trkpt>
      <trkpt lat="41.693390" lon="2.269295">
        <ele>386.467</ele>
        <time>2022-10-23T08:47:59Z</time>
      </trkpt>
      <trkpt lat="41.693417" lon="2.269289">
        <ele>386.847</ele>
        <time>2022-10-23T08:48:00Z</time>
      </trkpt>
      <trkpt lat="41.693442" lon="2.269281">
        <ele>387.083</ele>
        <time>2022-10-23T08:48:01Z</time>
      </trkpt>
      <trkpt lat="41.693467" lon="2.269269">
        <ele>387.496</ele>
        <time>2022-10-23T08:48:02Z</time>
      </trkpt>
      <trkpt lat="41.693492" lon="2.269259">
        <ele>387.812</ele>
        <time>2022-10-23T08:48:03Z</time>
      </trkpt>
      <trkpt lat="41.693518" lon="2.269250">
        <ele>388.680</ele>
        <time>2022-10-23T08:48:04Z</time>
      </trkpt>
      <trkpt lat="41.693544" lon="2.269239">
        <ele>388.856</ele>
        <time>2022-10-23T08:48:05Z</time>
      </trkpt>
      <trkpt lat="41.693568" lon="2.269221">
        <ele>389.086</ele>
        <time>2022-10-23T08:48:06Z</time>
      </trkpt>
      <trkpt lat="41.693591" lon="2.269207">
        <ele>389.299</ele>
        <time>2022-10-23T08:48:07Z</time>
      </trkpt>
      <trkpt lat="41.693614" lon="2.269193">
        <ele>389.483</ele>
        <time>2022-10-23T08:48:08Z</time>
      </trkpt>
      <trkpt lat="41.693635" lon="2.269177">
        <ele>389.625</ele>
        <time>2022-10-23T08:48:09Z</time>
      </trkpt>
      <trkpt lat="41.693656" lon="2.269158">
        <ele>389.817</ele>
        <time>2022-10-23T08:48:10Z</time>
      </trkpt>
      <trkpt lat="41.693679" lon="2.269142">
        <ele>390.009</ele>
        <time>2022-10-23T08:48:11Z</time>
      </trkpt>
      <trkpt lat="41.693704" lon="2.269123">
        <ele>390.479</ele>
        <time>2022-10-23T08:48:12Z</time>
      </trkpt>
      <trkpt lat="41.693729" lon="2.269103">
        <ele>390.699</ele>
        <time>2022-10-23T08:48:13Z</time>
      </trkpt>
      <trkpt lat="41.693750" lon="2.269079">
        <ele>391.075</ele>
        <time>2022-10-23T08:48:14Z</time>
      </trkpt>
      <trkpt lat="41.693771" lon="2.269057">
        <ele>391.468</ele>
        <time>2022-10-23T08:48:15Z</time>
      </trkpt>
      <trkpt lat="41.693794" lon="2.269036">
        <ele>391.874</ele>
        <time>2022-10-23T08:48:16Z</time>
      </trkpt>
      <trkpt lat="41.693818" lon="2.269015">
        <ele>392.212</ele>
        <time>2022-10-23T08:48:17Z</time>
      </trkpt>
      <trkpt lat="41.693841" lon="2.268994">
        <ele>392.438</ele>
        <time>2022-10-23T08:48:18Z</time>
      </trkpt>
      <trkpt lat="41.693864" lon="2.268972">
        <ele>392.638</ele>
        <time>2022-10-23T08:48:19Z</time>
      </trkpt>
      <trkpt lat="41.693886" lon="2.268949">
        <ele>392.831</ele>
        <time>2022-10-23T08:48:20Z</time>
      </trkpt>
      <trkpt lat="41.693909" lon="2.268923">
        <ele>393.069</ele>
        <time>2022-10-23T08:48:21Z</time>
      </trkpt>
      <trkpt lat="41.693929" lon="2.268903">
        <ele>393.004</ele>
        <time>2022-10-23T08:48:22Z</time>
      </trkpt>
      <trkpt lat="41.693948" lon="2.268885">
        <ele>393.224</ele>
        <time>2022-10-23T08:48:23Z</time>
      </trkpt>
      <trkpt lat="41.693967" lon="2.268862">
        <ele>393.209</ele>
        <time>2022-10-23T08:48:24Z</time>
      </trkpt>
      <trkpt lat="41.693983" lon="2.268838">
        <ele>393.417</ele>
        <time>2022-10-23T08:48:25Z</time>
      </trkpt>
      <trkpt lat="41.693999" lon="2.268816">
        <ele>393.837</ele>
        <time>2022-10-23T08:48:26Z</time>
      </trkpt>
      <trkpt lat="41.694015" lon="2.268789">
        <ele>393.883</ele>
        <time>2022-10-23T08:48:27Z</time>
      </trkpt>
      <trkpt lat="41.694027" lon="2.268756">
        <ele>394.046</ele>
        <time>2022-10-23T08:48:28Z</time>
      </trkpt>
      <trkpt lat="41.694035" lon="2.268724">
        <ele>394.252</ele>
        <time>2022-10-23T08:48:29Z</time>
      </trkpt>
      <trkpt lat="41.694042" lon="2.268695">
        <ele>394.460</ele>
        <time>2022-10-23T08:48:30Z</time>
      </trkpt>
      <trkpt lat="41.694049" lon="2.268665">
        <ele>394.816</ele>
        <time>2022-10-23T08:48:31Z</time>
      </trkpt>
      <trkpt lat="41.694055" lon="2.268633">
        <ele>395.046</ele>
        <time>2022-10-23T08:48:32Z</time>
      </trkpt>
      <trkpt lat="41.694060" lon="2.268599">
        <ele>395.659</ele>
        <time>2022-10-23T08:48:33Z</time>
      </trkpt>
      <trkpt lat="41.694064" lon="2.268569">
        <ele>396.089</ele>
        <time>2022-10-23T08:48:34Z</time>
      </trkpt>
      <trkpt lat="41.694069" lon="2.268540">
        <ele>396.406</ele>
        <time>2022-10-23T08:48:35Z</time>
      </trkpt>
      <trkpt lat="41.694073" lon="2.268511">
        <ele>396.826</ele>
        <time>2022-10-23T08:48:36Z</time>
      </trkpt>
      <trkpt lat="41.694074" lon="2.268481">
        <ele>397.409</ele>
        <time>2022-10-23T08:48:37Z</time>
      </trkpt>
      <trkpt lat="41.694076" lon="2.268451">
        <ele>397.629</ele>
        <time>2022-10-23T08:48:38Z</time>
      </trkpt>
      <trkpt lat="41.694079" lon="2.268419">
        <ele>398.219</ele>
        <time>2022-10-23T08:48:39Z</time>
      </trkpt>
      <trkpt lat="41.694083" lon="2.268391">
        <ele>398.695</ele>
        <time>2022-10-23T08:48:40Z</time>
      </trkpt>
      <trkpt lat="41.694087" lon="2.268357">
        <ele>398.818</ele>
        <time>2022-10-23T08:48:41Z</time>
      </trkpt>
      <trkpt lat="41.694092" lon="2.268329">
        <ele>399.234</ele>
        <time>2022-10-23T08:48:42Z</time>
      </trkpt>
      <trkpt lat="41.694093" lon="2.268302">
        <ele>399.642</ele>
        <time>2022-10-23T08:48:43Z</time>
      </trkpt>
      <trkpt lat="41.694097" lon="2.268274">
        <ele>400.038</ele>
        <time>2022-10-23T08:48:44Z</time>
      </trkpt>
      <trkpt lat="41.694101" lon="2.268241">
        <ele>400.238</ele>
        <time>2022-10-23T08:48:45Z</time>
      </trkpt>
      <trkpt lat="41.694105" lon="2.268210">
        <ele>400.421</ele>
        <time>2022-10-23T08:48:46Z</time>
      </trkpt>
      <trkpt lat="41.694108" lon="2.268182">
        <ele>400.675</ele>
        <time>2022-10-23T08:48:47Z</time>
      </trkpt>
      <trkpt lat="41.694112" lon="2.268153">
        <ele>400.828</ele>
        <time>2022-10-23T08:48:48Z</time>
      </trkpt>
      <trkpt lat="41.694116" lon="2.268126">
        <ele>401.220</ele>
        <time>2022-10-23T08:48:49Z</time>
      </trkpt>
      <trkpt lat="41.694120" lon="2.268098">
        <ele>401.609</ele>
        <time>2022-10-23T08:48:50Z</time>
      </trkpt>
      <trkpt lat="41.694121" lon="2.268065">
        <ele>401.678</ele>
        <time>2022-10-23T08:48:51Z</time>
      </trkpt>
      <trkpt lat="41.694122" lon="2.268032">
        <ele>402.018</ele>
        <time>2022-10-23T08:48:52Z</time>
      </trkpt>
      <trkpt lat="41.694123" lon="2.268005">
        <ele>402.244</ele>
        <time>2022-10-23T08:48:53Z</time>
      </trkpt>
      <trkpt lat="41.694121" lon="2.267969">
        <ele>402.487</ele>
        <time>2022-10-23T08:48:54Z</time>
      </trkpt>
      <trkpt lat="41.694121" lon="2.267934">
        <ele>402.653</ele>
        <time>2022-10-23T08:48:55Z</time>
      </trkpt>
      <trkpt lat="41.694123" lon="2.267899">
        <ele>403.011</ele>
        <time>2022-10-23T08:48:56Z</time>
      </trkpt>
      <trkpt lat="41.694129" lon="2.267864">
        <ele>403.257</ele>
        <time>2022-10-23T08:48:57Z</time>
      </trkpt>
      <trkpt lat="41.694140" lon="2.267829">
        <ele>403.667</ele>
        <time>2022-10-23T08:48:58Z</time>
      </trkpt>
      <trkpt lat="41.694153" lon="2.267805">
        <ele>404.280</ele>
        <time>2022-10-23T08:48:59Z</time>
      </trkpt>
      <trkpt lat="41.694171" lon="2.267787">
        <ele>404.618</ele>
        <time>2022-10-23T08:49:00Z</time>
      </trkpt>
      <trkpt lat="41.694192" lon="2.267780">
        <ele>405.098</ele>
        <time>2022-10-23T08:49:01Z</time>
      </trkpt>
      <trkpt lat="41.694211" lon="2.267782">
        <ele>405.217</ele>
        <time>2022-10-23T08:49:02Z</time>
      </trkpt>
      <trkpt lat="41.694223" lon="2.267795">
        <ele>405.409</ele>
        <time>2022-10-23T08:49:03Z</time>
      </trkpt>
      <trkpt lat="41.694232" lon="2.267816">
        <ele>405.832</ele>
        <time>2022-10-23T08:49:04Z</time>
      </trkpt>
      <trkpt lat="41.694237" lon="2.267843">
        <ele>406.032</ele>
        <time>2022-10-23T08:49:05Z</time>
      </trkpt>
      <trkpt lat="41.694242" lon="2.267870">
        <ele>406.488</ele>
        <time>2022-10-23T08:49:06Z</time>
      </trkpt>
      <trkpt lat="41.694249" lon="2.267895">
        <ele>406.891</ele>
        <time>2022-10-23T08:49:07Z</time>
      </trkpt>
      <trkpt lat="41.694257" lon="2.267922">
        <ele>407.297</ele>
        <time>2022-10-23T08:49:08Z</time>
      </trkpt>
      <trkpt lat="41.694267" lon="2.267949">
        <ele>407.625</ele>
        <time>2022-10-23T08:49:09Z</time>
      </trkpt>
      <trkpt lat="41.694275" lon="2.267975">
        <ele>407.691</ele>
        <time>2022-10-23T08:49:10Z</time>
      </trkpt>
      <trkpt lat="41.694283" lon="2.268000">
        <ele>408.021</ele>
        <time>2022-10-23T08:49:11Z</time>
      </trkpt>
      <trkpt lat="41.694294" lon="2.268028">
        <ele>408.454</ele>
        <time>2022-10-23T08:49:12Z</time>
      </trkpt>
      <trkpt lat="41.694307" lon="2.268057">
        <ele>409.066</ele>
        <time>2022-10-23T08:49:13Z</time>
      </trkpt>
      <trkpt lat="41.694321" lon="2.268082">
        <ele>409.229</ele>
        <time>2022-10-23T08:49:14Z</time>
      </trkpt>
      <trkpt lat="41.694335" lon="2.268109">
        <ele>409.621</ele>
        <time>2022-10-23T08:49:15Z</time>
      </trkpt>
      <trkpt lat="41.694347" lon="2.268137">
        <ele>409.809</ele>
        <time>2022-10-23T08:49:16Z</time>
      </trkpt>
      <trkpt lat="41.694359" lon="2.268164">
        <ele>410.097</ele>
        <time>2022-10-23T08:49:17Z</time>
      </trkpt>
      <trkpt lat="41.694370" lon="2.268194">
        <ele>410.487</ele>
        <time>2022-10-23T08:49:18Z</time>
      </trkpt>
      <trkpt lat="41.694384" lon="2.268222">
        <ele>410.623</ele>
        <time>2022-10-23T08:49:19Z</time>
      </trkpt>
      <trkpt lat="41.694395" lon="2.268252">
        <ele>410.816</ele>
        <time>2022-10-23T08:49:20Z</time>
      </trkpt>
      <trkpt lat="41.694406" lon="2.268279">
        <ele>411.042</ele>
        <time>2022-10-23T08:49:21Z</time>
      </trkpt>
      <trkpt lat="41.694415" lon="2.268304">
        <ele>411.240</ele>
        <time>2022-10-23T08:49:22Z</time>
      </trkpt>
      <trkpt lat="41.694419" lon="2.268329">
        <ele>411.236</ele>
        <time>2022-10-23T08:49:23Z</time>
      </trkpt>
      <trkpt lat="41.694425" lon="2.268355">
        <ele>411.486</ele>
        <time>2022-10-23T08:49:24Z</time>
      </trkpt>
      <trkpt lat="41.694431" lon="2.268379">
        <ele>411.829</ele>
        <time>2022-10-23T08:49:25Z</time>
      </trkpt>
      <trkpt lat="41.694440" lon="2.268405">
        <ele>411.879</ele>
        <time>2022-10-23T08:49:26Z</time>
      </trkpt>
      <trkpt lat="41.694448" lon="2.268430">
        <ele>412.205</ele>
        <time>2022-10-23T08:49:27Z</time>
      </trkpt>
      <trkpt lat="41.694456" lon="2.268452">
        <ele>412.625</ele>
        <time>2022-10-23T08:49:28Z</time>
      </trkpt>
      <trkpt lat="41.694464" lon="2.268475">
        <ele>412.809</ele>
        <time>2022-10-23T08:49:29Z</time>
      </trkpt>
      <trkpt lat="41.694475" lon="2.268500">
        <ele>413.048</ele>
        <time>2022-10-23T08:49:30Z</time>
      </trkpt>
      <trkpt lat="41.694485" lon="2.268527">
        <ele>413.498</ele>
        <time>2022-10-23T08:49:31Z</time>
      </trkpt>
      <trkpt lat="41.694497" lon="2.268557">
        <ele>413.634</ele>
        <time>2022-10-23T08:49:32Z</time>
      </trkpt>
      <trkpt lat="41.694504" lon="2.268585">
        <ele>414.097</ele>
        <time>2022-10-23T08:49:33Z</time>
      </trkpt>
      <trkpt lat="41.694513" lon="2.268606">
        <ele>414.083</ele>
        <time>2022-10-23T08:49:34Z</time>
      </trkpt>
      <trkpt lat="41.694523" lon="2.268629">
        <ele>414.441</ele>
        <time>2022-10-23T08:49:35Z</time>
      </trkpt>
      <trkpt lat="41.694535" lon="2.268655">
        <ele>414.887</ele>
        <time>2022-10-23T08:49:36Z</time>
      </trkpt>
      <trkpt lat="41.694547" lon="2.268681">
        <ele>415.027</ele>
        <time>2022-10-23T08:49:37Z</time>
      </trkpt>
      <trkpt lat="41.694559" lon="2.268706">
        <ele>415.270</ele>
        <time>2022-10-23T08:49:38Z</time>
      </trkpt>
      <trkpt lat="41.694572" lon="2.268729">
        <ele>415.633</ele>
        <time>2022-10-23T08:49:39Z</time>
      </trkpt>
      <trkpt lat="41.694582" lon="2.268755">
        <ele>416.023</ele>
        <time>2022-10-23T08:49:40Z</time>
      </trkpt>
      <trkpt lat="41.694592" lon="2.268782">
        <ele>416.415</ele>
        <time>2022-10-23T08:49:41Z</time>
      </trkpt>
      <trkpt lat="41.694604" lon="2.268807">
        <ele>416.809</ele>
        <time>2022-10-23T08:49:42Z</time>
      </trkpt>
      <trkpt lat="41.694614" lon="2.268834">
        <ele>417.024</ele>
        <time>2022-10-23T08:49:43Z</time>
      </trkpt>
      <trkpt lat="41.694624" lon="2.268861">
        <ele>417.044</ele>
        <time>2022-10-23T08:49:44Z</time>
      </trkpt>
      <trkpt lat="41.694632" lon="2.268889">
        <ele>417.280</ele>
        <time>2022-10-23T08:49:45Z</time>
      </trkpt>
      <trkpt lat="41.694639" lon="2.268915">
        <ele>417.643</ele>
        <time>2022-10-23T08:49:46Z</time>
      </trkpt>
      <trkpt lat="41.694645" lon="2.268942">
        <ele>417.869</ele>
        <time>2022-10-23T08:49:47Z</time>
      </trkpt>
      <trkpt lat="41.694647" lon="2.268971">
        <ele>418.287</ele>
        <time>2022-10-23T08:49:48Z</time>
      </trkpt>
      <trkpt lat="41.694646" lon="2.269001">
        <ele>418.663</ele>
        <time>2022-10-23T08:49:49Z</time>
      </trkpt>
      <trkpt lat="41.694646" lon="2.269032">
        <ele>419.073</ele>
        <time>2022-10-23T08:49:50Z</time>
      </trkpt>
      <trkpt lat="41.694645" lon="2.269064">
        <ele>419.246</ele>
        <time>2022-10-23T08:49:51Z</time>
      </trkpt>
      <trkpt lat="41.694644" lon="2.269096">
        <ele>419.483</ele>
        <time>2022-10-23T08:49:52Z</time>
      </trkpt>
      <trkpt lat="41.694643" lon="2.269127">
        <ele>419.825</ele>
        <time>2022-10-23T08:49:53Z</time>
      </trkpt>
      <trkpt lat="41.694645" lon="2.269155">
        <ele>420.217</ele>
        <time>2022-10-23T08:49:54Z</time>
      </trkpt>
      <trkpt lat="41.694645" lon="2.269180">
        <ele>420.609</ele>
        <time>2022-10-23T08:49:55Z</time>
      </trkpt>
      <trkpt lat="41.694644" lon="2.269206">
        <ele>420.819</ele>
        <time>2022-10-23T08:49:56Z</time>
      </trkpt>
      <trkpt lat="41.694644" lon="2.269241">
        <ele>421.219</ele>
        <time>2022-10-23T08:49:57Z</time>
      </trkpt>
      <trkpt lat="41.694646" lon="2.269278">
        <ele>421.475</ele>
        <time>2022-10-23T08:49:58Z</time>
      </trkpt>
      <trkpt lat="41.694646" lon="2.269308">
        <ele>421.698</ele>
        <time>2022-10-23T08:49:59Z</time>
      </trkpt>
      <trkpt lat="41.694646" lon="2.269338">
        <ele>421.894</ele>
        <time>2022-10-23T08:50:00Z</time>
      </trkpt>
      <trkpt lat="41.694645" lon="2.269367">
        <ele>422.282</ele>
        <time>2022-10-23T08:50:01Z</time>
      </trkpt>
      <trkpt lat="41.694643" lon="2.269395">
        <ele>422.688</ele>
        <time>2022-10-23T08:50:02Z</time>
      </trkpt>
      <trkpt lat="41.694638" lon="2.269424">
        <ele>422.898</ele>
        <time>2022-10-23T08:50:03Z</time>
      </trkpt>
      <trkpt lat="41.694630" lon="2.269452">
        <ele>423.061</ele>
        <time>2022-10-23T08:50:04Z</time>
      </trkpt>
      <trkpt lat="41.694621" lon="2.269478">
        <ele>423.216</ele>
        <time>2022-10-23T08:50:05Z</time>
      </trkpt>
      <trkpt lat="41.694612" lon="2.269504">
        <ele>423.476</ele>
        <time>2022-10-23T08:50:06Z</time>
      </trkpt>
      <trkpt lat="41.694601" lon="2.269532">
        <ele>423.813</ele>
        <time>2022-10-23T08:50:07Z</time>
      </trkpt>
      <trkpt lat="41.694588" lon="2.269561">
        <ele>424.009</ele>
        <time>2022-10-23T08:50:08Z</time>
      </trkpt>
      <trkpt lat="41.694574" lon="2.269585">
        <ele>424.292</ele>
        <time>2022-10-23T08:50:09Z</time>
      </trkpt>
      <trkpt lat="41.694560" lon="2.269609">
        <ele>424.652</ele>
        <time>2022-10-23T08:50:10Z</time>
      </trkpt>
      <trkpt lat="41.694545" lon="2.269633">
        <ele>424.888</ele>
        <time>2022-10-23T08:50:11Z</time>
      </trkpt>
      <trkpt lat="41.694526" lon="2.269654">
        <ele>425.051</ele>
        <time>2022-10-23T08:50:12Z</time>
      </trkpt>
      <trkpt lat="41.694508" lon="2.269678">
        <ele>425.217</ele>
        <time>2022-10-23T08:50:13Z</time>
      </trkpt>
      <trkpt lat="41.694492" lon="2.269702">
        <ele>425.425</ele>
        <time>2022-10-23T08:50:14Z</time>
      </trkpt>
      <trkpt lat="41.694475" lon="2.269728">
        <ele>425.471</ele>
        <time>2022-10-23T08:50:15Z</time>
      </trkpt>
      <trkpt lat="41.694458" lon="2.269756">
        <ele>425.611</ele>
        <time>2022-10-23T08:50:16Z</time>
      </trkpt>
      <trkpt lat="41.694442" lon="2.269783">
        <ele>425.684</ele>
        <time>2022-10-23T08:50:17Z</time>
      </trkpt>
      <trkpt lat="41.694423" lon="2.269809">
        <ele>425.638</ele>
        <time>2022-10-23T08:50:18Z</time>
      </trkpt>
      <trkpt lat="41.694407" lon="2.269838">
        <ele>425.670</ele>
        <time>2022-10-23T08:50:19Z</time>
      </trkpt>
      <trkpt lat="41.694396" lon="2.269871">
        <ele>425.617</ele>
        <time>2022-10-23T08:50:20Z</time>
      </trkpt>
      <trkpt lat="41.694394" lon="2.269905">
        <ele>425.609</ele>
        <time>2022-10-23T08:50:21Z</time>
      </trkpt>
      <trkpt lat="41.694397" lon="2.269932">
        <ele>425.664</ele>
        <time>2022-10-23T08:50:22Z</time>
      </trkpt>
      <trkpt lat="41.694405" lon="2.269950">
        <ele>425.674</ele>
        <time>2022-10-23T08:50:23Z</time>
      </trkpt>
      <trkpt lat="41.694414" lon="2.269960">
        <ele>425.660</ele>
        <time>2022-10-23T08:50:24Z</time>
      </trkpt>
      <trkpt lat="41.694425" lon="2.269968">
        <ele>425.843</ele>
        <time>2022-10-23T08:50:25Z</time>
      </trkpt>
      <trkpt lat="41.694439" lon="2.269973">
        <ele>425.819</ele>
        <time>2022-10-23T08:50:26Z</time>
      </trkpt>
      <trkpt lat="41.694456" lon="2.269973">
        <ele>425.837</ele>
        <time>2022-10-23T08:50:27Z</time>
      </trkpt>
      <trkpt lat="41.694476" lon="2.269970">
        <ele>426.053</ele>
        <time>2022-10-23T08:50:28Z</time>
      </trkpt>
      <trkpt lat="41.694497" lon="2.269964">
        <ele>426.043</ele>
        <time>2022-10-23T08:50:29Z</time>
      </trkpt>
      <trkpt lat="41.694518" lon="2.269958">
        <ele>426.036</ele>
        <time>2022-10-23T08:50:30Z</time>
      </trkpt>
      <trkpt lat="41.694538" lon="2.269952">
        <ele>426.218</ele>
        <time>2022-10-23T08:50:31Z</time>
      </trkpt>
      <trkpt lat="41.694557" lon="2.269947">
        <ele>426.498</ele>
        <time>2022-10-23T08:50:32Z</time>
      </trkpt>
      <trkpt lat="41.694580" lon="2.269946">
        <ele>426.617</ele>
        <time>2022-10-23T08:50:33Z</time>
      </trkpt>
      <trkpt lat="41.694604" lon="2.269945">
        <ele>426.809</ele>
        <time>2022-10-23T08:50:34Z</time>
      </trkpt>
      <trkpt lat="41.694626" lon="2.269943">
        <ele>426.862</ele>
        <time>2022-10-23T08:50:35Z</time>
      </trkpt>
      <trkpt lat="41.694647" lon="2.269944">
        <ele>427.062</ele>
        <time>2022-10-23T08:50:36Z</time>
      </trkpt>
      <trkpt lat="41.694667" lon="2.269946">
        <ele>427.298</ele>
        <time>2022-10-23T08:50:37Z</time>
      </trkpt>
      <trkpt lat="41.694689" lon="2.269949">
        <ele>427.481</ele>
        <time>2022-10-23T08:50:38Z</time>
      </trkpt>
      <trkpt lat="41.694715" lon="2.269952">
        <ele>427.627</ele>
        <time>2022-10-23T08:50:39Z</time>
      </trkpt>
      <trkpt lat="41.694740" lon="2.269955">
        <ele>427.855</ele>
        <time>2022-10-23T08:50:40Z</time>
      </trkpt>
      <trkpt lat="41.694764" lon="2.269957">
        <ele>428.081</ele>
        <time>2022-10-23T08:50:41Z</time>
      </trkpt>
      <trkpt lat="41.694785" lon="2.269957">
        <ele>428.221</ele>
        <time>2022-10-23T08:50:42Z</time>
      </trkpt>
      <trkpt lat="41.694804" lon="2.269953">
        <ele>428.484</ele>
        <time>2022-10-23T08:50:43Z</time>
      </trkpt>
      <trkpt lat="41.694822" lon="2.269943">
        <ele>428.615</ele>
        <time>2022-10-23T08:50:44Z</time>
      </trkpt>
      <trkpt lat="41.694839" lon="2.269935">
        <ele>428.865</ele>
        <time>2022-10-23T08:50:45Z</time>
      </trkpt>
      <trkpt lat="41.694856" lon="2.269928">
        <ele>429.211</ele>
        <time>2022-10-23T08:50:46Z</time>
      </trkpt>
      <trkpt lat="41.694873" lon="2.269913">
        <ele>429.409</ele>
        <time>2022-10-23T08:50:47Z</time>
      </trkpt>
      <trkpt lat="41.694889" lon="2.269893">
        <ele>429.832</ele>
        <time>2022-10-23T08:50:48Z</time>
      </trkpt>
      <trkpt lat="41.694904" lon="2.269876">
        <ele>430.222</ele>
        <time>2022-10-23T08:50:49Z</time>
      </trkpt>
      <trkpt lat="41.694916" lon="2.269858">
        <ele>430.868</ele>
        <time>2022-10-23T08:50:50Z</time>
      </trkpt>
      <trkpt lat="41.694928" lon="2.269842">
        <ele>431.261</ele>
        <time>2022-10-23T08:50:51Z</time>
      </trkpt>
      <trkpt lat="41.694940" lon="2.269828">
        <ele>431.647</ele>
        <time>2022-10-23T08:50:52Z</time>
      </trkpt>
      <trkpt lat="41.694951" lon="2.269811">
        <ele>432.275</ele>
        <time>2022-10-23T08:50:53Z</time>
      </trkpt>
      <trkpt lat="41.694959" lon="2.269798">
        <ele>432.661</ele>
        <time>2022-10-23T08:50:54Z</time>
      </trkpt>
      <trkpt lat="41.694965" lon="2.269789">
        <ele>433.021</ele>
        <time>2022-10-23T08:50:55Z</time>
      </trkpt>
      <trkpt lat="41.694971" lon="2.269776">
        <ele>433.414</ele>
        <time>2022-10-23T08:50:56Z</time>
      </trkpt>
      <trkpt lat="41.694979" lon="2.269759">
        <ele>433.873</ele>
        <time>2022-10-23T08:50:57Z</time>
      </trkpt>
      <trkpt lat="41.694989" lon="2.269741">
        <ele>434.285</ele>
        <time>2022-10-23T08:50:58Z</time>
      </trkpt>
      <trkpt lat="41.695000" lon="2.269722">
        <ele>434.413</ele>
        <time>2022-10-23T08:50:59Z</time>
      </trkpt>
      <trkpt lat="41.695012" lon="2.269704">
        <ele>434.609</ele>
        <time>2022-10-23T08:51:00Z</time>
      </trkpt>
      <trkpt lat="41.695027" lon="2.269687">
        <ele>434.898</ele>
        <time>2022-10-23T08:51:01Z</time>
      </trkpt>
      <trkpt lat="41.695041" lon="2.269669">
        <ele>435.018</ele>
        <time>2022-10-23T08:51:02Z</time>
      </trkpt>
      <trkpt lat="41.695051" lon="2.269652">
        <ele>435.274</ele>
        <time>2022-10-23T08:51:03Z</time>
      </trkpt>
      <trkpt lat="41.695059" lon="2.269640">
        <ele>435.247</ele>
        <time>2022-10-23T08:51:04Z</time>
      </trkpt>
      <trkpt lat="41.695066" lon="2.269633">
        <ele>435.413</ele>
        <time>2022-10-23T08:51:05Z</time>
      </trkpt>
      <trkpt lat="41.695074" lon="2.269630">
        <ele>435.671</ele>
        <time>2022-10-23T08:51:06Z</time>
      </trkpt>
      <trkpt lat="41.695085" lon="2.269627">
        <ele>435.627</ele>
        <time>2022-10-23T08:51:07Z</time>
      </trkpt>
      <trkpt lat="41.695096" lon="2.269619">
        <ele>435.847</ele>
        <time>2022-10-23T08:51:08Z</time>
      </trkpt>
      <trkpt lat="41.695103" lon="2.269608">
        <ele>436.010</ele>
        <time>2022-10-23T08:51:09Z</time>
      </trkpt>
      <trkpt lat="41.695106" lon="2.269595">
        <ele>436.226</ele>
        <time>2022-10-23T08:51:10Z</time>
      </trkpt>
      <trkpt lat="41.695108" lon="2.269578">
        <ele>436.247</ele>
        <time>2022-10-23T08:51:11Z</time>
      </trkpt>
      <trkpt lat="41.695113" lon="2.269560">
        <ele>436.411</ele>
        <time>2022-10-23T08:51:12Z</time>
      </trkpt>
      <trkpt lat="41.695122" lon="2.269541">
        <ele>436.609</ele>
        <time>2022-10-23T08:51:13Z</time>
      </trkpt>
      <trkpt lat="41.695131" lon="2.269522">
        <ele>436.653</ele>
        <time>2022-10-23T08:51:14Z</time>
      </trkpt>
      <trkpt lat="41.695138" lon="2.269502">
        <ele>436.893</ele>
        <time>2022-10-23T08:51:15Z</time>
      </trkpt>
      <trkpt lat="41.695147" lon="2.269481">
        <ele>436.829</ele>
        <time>2022-10-23T08:51:16Z</time>
      </trkpt>
      <trkpt lat="41.695159" lon="2.269462">
        <ele>437.062</ele>
        <time>2022-10-23T08:51:17Z</time>
      </trkpt>
      <trkpt lat="41.695173" lon="2.269445">
        <ele>437.278</ele>
        <time>2022-10-23T08:51:18Z</time>
      </trkpt>
      <trkpt lat="41.695189" lon="2.269428">
        <ele>437.686</ele>
        <time>2022-10-23T08:51:19Z</time>
      </trkpt>
      <trkpt lat="41.695206" lon="2.269417">
        <ele>437.872</ele>
        <time>2022-10-23T08:51:20Z</time>
      </trkpt>
      <trkpt lat="41.695223" lon="2.269406">
        <ele>438.012</ele>
        <time>2022-10-23T08:51:21Z</time>
      </trkpt>
      <trkpt lat="41.695240" lon="2.269394">
        <ele>438.215</ele>
        <time>2022-10-23T08:51:22Z</time>
      </trkpt>
      <trkpt lat="41.695256" lon="2.269380">
        <ele>438.649</ele>
        <time>2022-10-23T08:51:23Z</time>
      </trkpt>
      <trkpt lat="41.695272" lon="2.269367">
        <ele>438.802</ele>
        <time>2022-10-23T08:51:24Z</time>
      </trkpt>
      <trkpt lat="41.695288" lon="2.269353">
        <ele>439.222</ele>
        <time>2022-10-23T08:51:25Z</time>
      </trkpt>
      <trkpt lat="41.695302" lon="2.269341">
        <ele>439.609</ele>
        <time>2022-10-23T08:51:26Z</time>
      </trkpt>
      <trkpt lat="41.695316" lon="2.269331">
        <ele>440.065</ele>
        <time>2022-10-23T08:51:27Z</time>
      </trkpt>
      <trkpt lat="41.695330" lon="2.269323">
        <ele>440.455</ele>
        <time>2022-10-23T08:51:28Z</time>
      </trkpt>
      <trkpt lat="41.695348" lon="2.269310">
        <ele>440.811</ele>
        <time>2022-10-23T08:51:29Z</time>
      </trkpt>
      <trkpt lat="41.695366" lon="2.269295">
        <ele>441.284</ele>
        <time>2022-10-23T08:51:30Z</time>
      </trkpt>
      <trkpt lat="41.695383" lon="2.269283">
        <ele>441.690</ele>
        <time>2022-10-23T08:51:31Z</time>
      </trkpt>
      <trkpt lat="41.695402" lon="2.269271">
        <ele>441.888</ele>
        <time>2022-10-23T08:51:32Z</time>
      </trkpt>
      <trkpt lat="41.695420" lon="2.269261">
        <ele>442.224</ele>
        <time>2022-10-23T08:51:33Z</time>
      </trkpt>
      <trkpt lat="41.695441" lon="2.269252">
        <ele>442.674</ele>
        <time>2022-10-23T08:51:34Z</time>
      </trkpt>
      <trkpt lat="41.695462" lon="2.269245">
        <ele>443.097</ele>
        <time>2022-10-23T08:51:35Z</time>
      </trkpt>
      <trkpt lat="41.695483" lon="2.269234">
        <ele>443.472</ele>
        <time>2022-10-23T08:51:36Z</time>
      </trkpt>
      <trkpt lat="41.695503" lon="2.269222">
        <ele>443.813</ele>
        <time>2022-10-23T08:51:37Z</time>
      </trkpt>
      <trkpt lat="41.695522" lon="2.269208">
        <ele>444.014</ele>
        <time>2022-10-23T08:51:38Z</time>
      </trkpt>
      <trkpt lat="41.695541" lon="2.269195">
        <ele>444.409</ele>
        <time>2022-10-23T08:51:39Z</time>
      </trkpt>
      <trkpt lat="41.695560" lon="2.269187">
        <ele>444.828</ele>
        <time>2022-10-23T08:51:40Z</time>
      </trkpt>
      <trkpt lat="41.695578" lon="2.269181">
        <ele>445.288</ele>
        <time>2022-10-23T08:51:41Z</time>
      </trkpt>
      <trkpt lat="41.695599" lon="2.269176">
        <ele>445.464</ele>
        <time>2022-10-23T08:51:42Z</time>
      </trkpt>
      <trkpt lat="41.695621" lon="2.269168">
        <ele>445.827</ele>
        <time>2022-10-23T08:51:43Z</time>
      </trkpt>
      <trkpt lat="41.695642" lon="2.269159">
        <ele>446.263</ele>
        <time>2022-10-23T08:51:44Z</time>
      </trkpt>
      <trkpt lat="41.695664" lon="2.269153">
        <ele>446.621</ele>
        <time>2022-10-23T08:51:45Z</time>
      </trkpt>
      <trkpt lat="41.695687" lon="2.269147">
        <ele>447.467</ele>
        <time>2022-10-23T08:51:46Z</time>
      </trkpt>
      <trkpt lat="41.695709" lon="2.269144">
        <ele>447.867</ele>
        <time>2022-10-23T08:51:47Z</time>
      </trkpt>
      <trkpt lat="41.695730" lon="2.269140">
        <ele>448.220</ele>
        <time>2022-10-23T08:51:48Z</time>
      </trkpt>
      <trkpt lat="41.695752" lon="2.269134">
        <ele>448.635</ele>
        <time>2022-10-23T08:51:49Z</time>
      </trkpt>
      <trkpt lat="41.695773" lon="2.269127">
        <ele>448.886</ele>
        <time>2022-10-23T08:51:50Z</time>
      </trkpt>
      <trkpt lat="41.695793" lon="2.269119">
        <ele>449.014</ele>
        <time>2022-10-23T08:51:51Z</time>
      </trkpt>
      <trkpt lat="41.695815" lon="2.269112">
        <ele>449.209</ele>
        <time>2022-10-23T08:51:52Z</time>
      </trkpt>
      <trkpt lat="41.695836" lon="2.269108">
        <ele>449.444</ele>
        <time>2022-10-23T08:51:53Z</time>
      </trkpt>
      <trkpt lat="41.695858" lon="2.269107">
        <ele>449.624</ele>
        <time>2022-10-23T08:51:54Z</time>
      </trkpt>
      <trkpt lat="41.695881" lon="2.269109">
        <ele>449.870</ele>
        <time>2022-10-23T08:51:55Z</time>
      </trkpt>
      <trkpt lat="41.695904" lon="2.269110">
        <ele>450.063</ele>
        <time>2022-10-23T08:51:56Z</time>
      </trkpt>
      <trkpt lat="41.695927" lon="2.269111">
        <ele>450.029</ele>
        <time>2022-10-23T08:51:57Z</time>
      </trkpt>
      <trkpt lat="41.695951" lon="2.269114">
        <ele>450.287</ele>
        <time>2022-10-23T08:51:58Z</time>
      </trkpt>
      <trkpt lat="41.695975" lon="2.269117">
        <ele>450.453</ele>
        <time>2022-10-23T08:51:59Z</time>
      </trkpt>
      <trkpt lat="41.695997" lon="2.269120">
        <ele>450.633</ele>
        <time>2022-10-23T08:52:00Z</time>
      </trkpt>
      <trkpt lat="41.696019" lon="2.269117">
        <ele>450.676</ele>
        <time>2022-10-23T08:52:01Z</time>
      </trkpt>
      <trkpt lat="41.696043" lon="2.269113">
        <ele>450.811</ele>
        <time>2022-10-23T08:52:02Z</time>
      </trkpt>
      <trkpt lat="41.696064" lon="2.269104">
        <ele>451.021</ele>
        <time>2022-10-23T08:52:03Z</time>
      </trkpt>
      <trkpt lat="41.696085" lon="2.269093">
        <ele>451.203</ele>
        <time>2022-10-23T08:52:04Z</time>
      </trkpt>
      <trkpt lat="41.696104" lon="2.269080">
        <ele>451.409</ele>
        <time>2022-10-23T08:52:05Z</time>
      </trkpt>
      <trkpt lat="41.696121" lon="2.269065">
        <ele>451.632</ele>
        <time>2022-10-23T08:52:06Z</time>
      </trkpt>
      <trkpt lat="41.696139" lon="2.269045">
        <ele>451.842</ele>
        <time>2022-10-23T08:52:07Z</time>
      </trkpt>
      <trkpt lat="41.696156" lon="2.269024">
        <ele>452.038</ele>
        <time>2022-10-23T08:52:08Z</time>
      </trkpt>
      <trkpt lat="41.696173" lon="2.269004">
        <ele>452.211</ele>
        <time>2022-10-23T08:52:09Z</time>
      </trkpt>
      <trkpt lat="41.696190" lon="2.268982">
        <ele>452.477</ele>
        <time>2022-10-23T08:52:10Z</time>
      </trkpt>
      <trkpt lat="41.696206" lon="2.268959">
        <ele>452.655</ele>
        <time>2022-10-23T08:52:11Z</time>
      </trkpt>
      <trkpt lat="41.696221" lon="2.268937">
        <ele>452.851</ele>
        <time>2022-10-23T08:52:12Z</time>
      </trkpt>
      <trkpt lat="41.696237" lon="2.268914">
        <ele>453.241</ele>
        <time>2022-10-23T08:52:13Z</time>
      </trkpt>
      <trkpt lat="41.696252" lon="2.268889">
        <ele>453.284</ele>
        <time>2022-10-23T08:52:14Z</time>
      </trkpt>
      <trkpt lat="41.696266" lon="2.268862">
        <ele>453.457</ele>
        <time>2022-10-23T08:52:15Z</time>
      </trkpt>
      <trkpt lat="41.696277" lon="2.268833">
        <ele>453.600</ele>
        <time>2022-10-23T08:52:16Z</time>
      </trkpt>
      <trkpt lat="41.696291" lon="2.268803">
        <ele>453.820</ele>
        <time>2022-10-23T08:52:17Z</time>
      </trkpt>
      <trkpt lat="41.696307" lon="2.268774">
        <ele>454.009</ele>
        <time>2022-10-23T08:52:18Z</time>
      </trkpt>
      <trkpt lat="41.696323" lon="2.268747">
        <ele>454.426</ele>
        <time>2022-10-23T08:52:19Z</time>
      </trkpt>
      <trkpt lat="41.696338" lon="2.268720">
        <ele>454.616</ele>
        <time>2022-10-23T08:52:20Z</time>
      </trkpt>
      <trkpt lat="41.696355" lon="2.268694">
        <ele>454.812</ele>
        <time>2022-10-23T08:52:21Z</time>
      </trkpt>
      <trkpt lat="41.696369" lon="2.268666">
        <ele>455.035</ele>
        <time>2022-10-23T08:52:22Z</time>
      </trkpt>
      <trkpt lat="41.696383" lon="2.268639">
        <ele>455.231</ele>
        <time>2022-10-23T08:52:23Z</time>
      </trkpt>
      <trkpt lat="41.696396" lon="2.268611">
        <ele>455.439</ele>
        <time>2022-10-23T08:52:24Z</time>
      </trkpt>
      <trkpt lat="41.696408" lon="2.268586">
        <ele>455.685</ele>
        <time>2022-10-23T08:52:25Z</time>
      </trkpt>
      <trkpt lat="41.696423" lon="2.268563">
        <ele>455.825</ele>
        <time>2022-10-23T08:52:26Z</time>
      </trkpt>
      <trkpt lat="41.696437" lon="2.268540">
        <ele>456.288</ele>
        <time>2022-10-23T08:52:27Z</time>
      </trkpt>
      <trkpt lat="41.696451" lon="2.268516">
        <ele>456.452</ele>
        <time>2022-10-23T08:52:28Z</time>
      </trkpt>
      <trkpt lat="41.696466" lon="2.268491">
        <ele>456.853</ele>
        <time>2022-10-23T08:52:29Z</time>
      </trkpt>
      <trkpt lat="41.696480" lon="2.268465">
        <ele>457.008</ele>
        <time>2022-10-23T08:52:30Z</time>
      </trkpt>
      <trkpt lat="41.696495" lon="2.268440">
        <ele>457.409</ele>
        <time>2022-10-23T08:52:31Z</time>
      </trkpt>
      <trkpt lat="41.696509" lon="2.268416">
        <ele>457.826</ele>
        <time>2022-10-23T08:52:32Z</time>
      </trkpt>
      <trkpt lat="41.696523" lon="2.268392">
        <ele>458.096</ele>
        <time>2022-10-23T08:52:33Z</time>
      </trkpt>
      <trkpt lat="41.696534" lon="2.268368">
        <ele>458.412</ele>
        <time>2022-10-23T08:52:34Z</time>
      </trkpt>
      <trkpt lat="41.696541" lon="2.268342">
        <ele>458.895</ele>
        <time>2022-10-23T08:52:35Z</time>
      </trkpt>
      <trkpt lat="41.696543" lon="2.268314">
        <ele>459.211</ele>
        <time>2022-10-23T08:52:36Z</time>
      </trkpt>
      <trkpt lat="41.696544" lon="2.268283">
        <ele>459.889</ele>
        <time>2022-10-23T08:52:37Z</time>
      </trkpt>
      <trkpt lat="41.696542" lon="2.268252">
        <ele>460.235</ele>
        <time>2022-10-23T08:52:38Z</time>
      </trkpt>
      <trkpt lat="41.696536" lon="2.268222">
        <ele>460.665</ele>
        <time>2022-10-23T08:52:39Z</time>
      </trkpt>
      <trkpt lat="41.696528" lon="2.268195">
        <ele>461.258</ele>
        <time>2022-10-23T08:52:40Z</time>
      </trkpt>
      <trkpt lat="41.696516" lon="2.268170">
        <ele>462.095</ele>
        <time>2022-10-23T08:52:41Z</time>
      </trkpt>
      <trkpt lat="41.696504" lon="2.268145">
        <ele>462.649</ele>
        <time>2022-10-23T08:52:42Z</time>
      </trkpt>
      <trkpt lat="41.696490" lon="2.268120">
        <ele>463.023</ele>
        <time>2022-10-23T08:52:43Z</time>
      </trkpt>
      <trkpt lat="41.696473" lon="2.268099">
        <ele>463.409</ele>
        <time>2022-10-23T08:52:44Z</time>
      </trkpt>
      <trkpt lat="41.696456" lon="2.268080">
        <ele>463.870</ele>
        <time>2022-10-23T08:52:45Z</time>
      </trkpt>
      <trkpt lat="41.696438" lon="2.268061">
        <ele>464.430</ele>
        <time>2022-10-23T08:52:46Z</time>
      </trkpt>
      <trkpt lat="41.696421" lon="2.268044">
        <ele>464.876</ele>
        <time>2022-10-23T08:52:47Z</time>
      </trkpt>
      <trkpt lat="41.696404" lon="2.268026">
        <ele>465.269</ele>
        <time>2022-10-23T08:52:48Z</time>
      </trkpt>
      <trkpt lat="41.696384" lon="2.268008">
        <ele>465.685</ele>
        <time>2022-10-23T08:52:49Z</time>
      </trkpt>
      <trkpt lat="41.696365" lon="2.267989">
        <ele>466.263</ele>
        <time>2022-10-23T08:52:50Z</time>
      </trkpt>
      <trkpt lat="41.696349" lon="2.267969">
        <ele>466.669</ele>
        <time>2022-10-23T08:52:51Z</time>
      </trkpt>
      <trkpt lat="41.696332" lon="2.267950">
        <ele>467.229</ele>
        <time>2022-10-23T08:52:52Z</time>
      </trkpt>
      <trkpt lat="41.696315" lon="2.267927">
        <ele>467.672</ele>
        <time>2022-10-23T08:52:53Z</time>
      </trkpt>
      <trkpt lat="41.696299" lon="2.267902">
        <ele>468.031</ele>
        <time>2022-10-23T08:52:54Z</time>
      </trkpt>
      <trkpt lat="41.696282" lon="2.267875">
        <ele>468.461</ele>
        <time>2022-10-23T08:52:55Z</time>
      </trkpt>
      <trkpt lat="41.696268" lon="2.267845">
        <ele>468.807</ele>
        <time>2022-10-23T08:52:56Z</time>
      </trkpt>
      <trkpt lat="41.696256" lon="2.267811">
        <ele>469.209</ele>
        <time>2022-10-23T08:52:57Z</time>
      </trkpt>
      <trkpt lat="41.696248" lon="2.267775">
        <ele>469.814</ele>
        <time>2022-10-23T08:52:58Z</time>
      </trkpt>
      <trkpt lat="41.696244" lon="2.267738">
        <ele>470.284</ele>
        <time>2022-10-23T08:52:59Z</time>
      </trkpt>
      <trkpt lat="41.696243" lon="2.267702">
        <ele>470.420</ele>
        <time>2022-10-23T08:53:00Z</time>
      </trkpt>
      <trkpt lat="41.696243" lon="2.267666">
        <ele>470.623</ele>
        <time>2022-10-23T08:53:01Z</time>
      </trkpt>
      <trkpt lat="41.696243" lon="2.267629">
        <ele>470.859</ele>
        <time>2022-10-23T08:53:02Z</time>
      </trkpt>
      <trkpt lat="41.696245" lon="2.267591">
        <ele>471.067</ele>
        <time>2022-10-23T08:53:03Z</time>
      </trkpt>
      <trkpt lat="41.696249" lon="2.267554">
        <ele>471.263</ele>
        <time>2022-10-23T08:53:04Z</time>
      </trkpt>
      <trkpt lat="41.696256" lon="2.267518">
        <ele>471.433</ele>
        <time>2022-10-23T08:53:05Z</time>
      </trkpt>
      <trkpt lat="41.696260" lon="2.267484">
        <ele>471.426</ele>
        <time>2022-10-23T08:53:06Z</time>
      </trkpt>
      <trkpt lat="41.696264" lon="2.267448">
        <ele>471.674</ele>
        <time>2022-10-23T08:53:07Z</time>
      </trkpt>
      <trkpt lat="41.696266" lon="2.267411">
        <ele>471.856</ele>
        <time>2022-10-23T08:53:08Z</time>
      </trkpt>
      <trkpt lat="41.696268" lon="2.267374">
        <ele>472.021</ele>
        <time>2022-10-23T08:53:09Z</time>
      </trkpt>
      <trkpt lat="41.696272" lon="2.267338">
        <ele>472.409</ele>
        <time>2022-10-23T08:53:10Z</time>
      </trkpt>
      <trkpt lat="41.696276" lon="2.267302">
        <ele>472.428</ele>
        <time>2022-10-23T08:53:11Z</time>
      </trkpt>
      <trkpt lat="41.696278" lon="2.267265">
        <ele>472.618</ele>
        <time>2022-10-23T08:53:12Z</time>
      </trkpt>
      <trkpt lat="41.696279" lon="2.267228">
        <ele>473.084</ele>
        <time>2022-10-23T08:53:13Z</time>
      </trkpt>
      <trkpt lat="41.696280" lon="2.267192">
        <ele>473.227</ele>
        <time>2022-10-23T08:53:14Z</time>
      </trkpt>
      <trkpt lat="41.696283" lon="2.267156">
        <ele>473.283</ele>
        <time>2022-10-23T08:53:15Z</time>
      </trkpt>
      <trkpt lat="41.696283" lon="2.267119">
        <ele>473.451</ele>
        <time>2022-10-23T08:53:16Z</time>
      </trkpt>
      <trkpt lat="41.696283" lon="2.267082">
        <ele>473.817</ele>
        <time>2022-10-23T08:53:17Z</time>
      </trkpt>
      <trkpt lat="41.696284" lon="2.267043">
        <ele>474.017</ele>
        <time>2022-10-23T08:53:18Z</time>
      </trkpt>
      <trkpt lat="41.696285" lon="2.267004">
        <ele>474.220</ele>
        <time>2022-10-23T08:53:19Z</time>
      </trkpt>
      <trkpt lat="41.696286" lon="2.266964">
        <ele>474.436</ele>
        <time>2022-10-23T08:53:20Z</time>
      </trkpt>
      <trkpt lat="41.696286" lon="2.266925">
        <ele>474.617</ele>
        <time>2022-10-23T08:53:21Z</time>
      </trkpt>
      <trkpt lat="41.696284" lon="2.266888">
        <ele>474.818</ele>
        <time>2022-10-23T08:53:22Z</time>
      </trkpt>
      <trkpt lat="41.696278" lon="2.266852">
        <ele>475.009</ele>
        <time>2022-10-23T08:53:23Z</time>
      </trkpt>
      <trkpt lat="41.696271" lon="2.266816">
        <ele>475.254</ele>
        <time>2022-10-23T08:53:24Z</time>
      </trkpt>
      <trkpt lat="41.696260" lon="2.266781">
        <ele>475.654</ele>
        <time>2022-10-23T08:53:25Z</time>
      </trkpt>
      <trkpt lat="41.696247" lon="2.266746">
        <ele>475.860</ele>
        <time>2022-10-23T08:53:26Z</time>
      </trkpt>
      <trkpt lat="41.696235" lon="2.266712">
        <ele>476.253</ele>
        <time>2022-10-23T08:53:27Z</time>
      </trkpt>
      <trkpt lat="41.696222" lon="2.266678">
        <ele>476.449</ele>
        <time>2022-10-23T08:53:28Z</time>
      </trkpt>
      <trkpt lat="41.696210" lon="2.266646">
        <ele>476.697</ele>
        <time>2022-10-23T08:53:29Z</time>
      </trkpt>
      <trkpt lat="41.696198" lon="2.266615">
        <ele>476.843</ele>
        <time>2022-10-23T08:53:30Z</time>
      </trkpt>
      <trkpt lat="41.696187" lon="2.266583">
        <ele>477.093</ele>
        <time>2022-10-23T08:53:31Z</time>
      </trkpt>
      <trkpt lat="41.696175" lon="2.266551">
        <ele>477.276</ele>
        <time>2022-10-23T08:53:32Z</time>
      </trkpt>
      <trkpt lat="41.696163" lon="2.266517">
        <ele>477.413</ele>
        <time>2022-10-23T08:53:33Z</time>
      </trkpt>
      <trkpt lat="41.696150" lon="2.266483">
        <ele>477.643</ele>
        <time>2022-10-23T08:53:34Z</time>
      </trkpt>
      <trkpt lat="41.696139" lon="2.266450">
        <ele>477.807</ele>
        <time>2022-10-23T08:53:35Z</time>
      </trkpt>
      <trkpt lat="41.696127" lon="2.266416">
        <ele>478.009</ele>
        <time>2022-10-23T08:53:36Z</time>
      </trkpt>
      <trkpt lat="41.696114" lon="2.266384">
        <ele>478.432</ele>
        <time>2022-10-23T08:53:37Z</time>
      </trkpt>
      <trkpt lat="41.696103" lon="2.266352">
        <ele>478.882</ele>
        <time>2022-10-23T08:53:38Z</time>
      </trkpt>
      <trkpt lat="41.696091" lon="2.266320">
        <ele>479.038</ele>
        <time>2022-10-23T08:53:39Z</time>
      </trkpt>
      <trkpt lat="41.696079" lon="2.266292">
        <ele>479.281</ele>
        <time>2022-10-23T08:53:40Z</time>
      </trkpt>
      <trkpt lat="41.696066" lon="2.266260">
        <ele>479.457</ele>
        <time>2022-10-23T08:53:41Z</time>
      </trkpt>
      <trkpt lat="41.696053" lon="2.266225">
        <ele>479.635</ele>
        <time>2022-10-23T08:53:42Z</time>
      </trkpt>
      <trkpt lat="41.696043" lon="2.266191">
        <ele>479.851</ele>
        <time>2022-10-23T08:53:43Z</time>
      </trkpt>
      <trkpt lat="41.696036" lon="2.266157">
        <ele>480.281</ele>
        <time>2022-10-23T08:53:44Z</time>
      </trkpt>
      <trkpt lat="41.696026" lon="2.266124">
        <ele>480.464</ele>
        <time>2022-10-23T08:53:45Z</time>
      </trkpt>
      <trkpt lat="41.696015" lon="2.266090">
        <ele>480.838</ele>
        <time>2022-10-23T08:53:46Z</time>
      </trkpt>
      <trkpt lat="41.696005" lon="2.266055">
        <ele>481.070</ele>
        <time>2022-10-23T08:53:47Z</time>
      </trkpt>
      <trkpt lat="41.695995" lon="2.266020">
        <ele>481.217</ele>
        <time>2022-10-23T08:53:48Z</time>
      </trkpt>
      <trkpt lat="41.695982" lon="2.265987">
        <ele>481.409</ele>
        <time>2022-10-23T08:53:49Z</time>
      </trkpt>
      <trkpt lat="41.695969" lon="2.265954">
        <ele>481.684</ele>
        <time>2022-10-23T08:53:50Z</time>
      </trkpt>
      <trkpt lat="41.695957" lon="2.265922">
        <ele>481.854</ele>
        <time>2022-10-23T08:53:51Z</time>
      </trkpt>
      <trkpt lat="41.695947" lon="2.265889">
        <ele>482.020</ele>
        <time>2022-10-23T08:53:52Z</time>
      </trkpt>
      <trkpt lat="41.695938" lon="2.265855">
        <ele>482.233</ele>
        <time>2022-10-23T08:53:53Z</time>
      </trkpt>
      <trkpt lat="41.695929" lon="2.265821">
        <ele>482.419</ele>
        <time>2022-10-23T08:53:54Z</time>
      </trkpt>
      <trkpt lat="41.695920" lon="2.265786">
        <ele>482.677</ele>
        <time>2022-10-23T08:53:55Z</time>
      </trkpt>
      <trkpt lat="41.695910" lon="2.265750">
        <ele>482.863</ele>
        <time>2022-10-23T08:53:56Z</time>
      </trkpt>
      <trkpt lat="41.695902" lon="2.265712">
        <ele>483.093</ele>
        <time>2022-10-23T08:53:57Z</time>
      </trkpt>
      <trkpt lat="41.695892" lon="2.265673">
        <ele>483.216</ele>
        <time>2022-10-23T08:53:58Z</time>
      </trkpt>
      <trkpt lat="41.695879" lon="2.265636">
        <ele>483.444</ele>
        <time>2022-10-23T08:53:59Z</time>
      </trkpt>
      <trkpt lat="41.695866" lon="2.265600">
        <ele>483.805</ele>
        <time>2022-10-23T08:54:00Z</time>
      </trkpt>
      <trkpt lat="41.695854" lon="2.265562">
        <ele>484.015</ele>
        <time>2022-10-23T08:54:01Z</time>
      </trkpt>
      <trkpt lat="41.695843" lon="2.265526">
        <ele>484.409</ele>
        <time>2022-10-23T08:54:02Z</time>
      </trkpt>
      <trkpt lat="41.695831" lon="2.265488">
        <ele>484.635</ele>
        <time>2022-10-23T08:54:03Z</time>
      </trkpt>
      <trkpt lat="41.695817" lon="2.265451">
        <ele>485.245</ele>
        <time>2022-10-23T08:54:04Z</time>
      </trkpt>
      <trkpt lat="41.695804" lon="2.265417">
        <ele>485.411</ele>
        <time>2022-10-23T08:54:05Z</time>
      </trkpt>
      <trkpt lat="41.695793" lon="2.265381">
        <ele>485.684</ele>
        <time>2022-10-23T08:54:06Z</time>
      </trkpt>
      <trkpt lat="41.695784" lon="2.265345">
        <ele>485.870</ele>
        <time>2022-10-23T08:54:07Z</time>
      </trkpt>
      <trkpt lat="41.695772" lon="2.265310">
        <ele>486.088</ele>
        <time>2022-10-23T08:54:08Z</time>
      </trkpt>
      <trkpt lat="41.695758" lon="2.265276">
        <ele>486.244</ele>
        <time>2022-10-23T08:54:09Z</time>
      </trkpt>
      <trkpt lat="41.695745" lon="2.265238">
        <ele>486.464</ele>
        <time>2022-10-23T08:54:10Z</time>
      </trkpt>
      <trkpt lat="41.695730" lon="2.265201">
        <ele>486.657</ele>
        <time>2022-10-23T08:54:11Z</time>
      </trkpt>
      <trkpt lat="41.695714" lon="2.265166">
        <ele>487.055</ele>
        <time>2022-10-23T08:54:12Z</time>
      </trkpt>
      <trkpt lat="41.695701" lon="2.265129">
        <ele>487.207</ele>
        <time>2022-10-23T08:54:13Z</time>
      </trkpt>
      <trkpt lat="41.695688" lon="2.265089">
        <ele>487.417</ele>
        <time>2022-10-23T08:54:14Z</time>
      </trkpt>
      <trkpt lat="41.695676" lon="2.265051">
        <ele>487.409</ele>
        <time>2022-10-23T08:54:15Z</time>
      </trkpt>
      <trkpt lat="41.695663" lon="2.265014">
        <ele>487.626</ele>
        <time>2022-10-23T08:54:16Z</time>
      </trkpt>
      <trkpt lat="41.695650" lon="2.264977">
        <ele>487.836</ele>
        <time>2022-10-23T08:54:17Z</time>
      </trkpt>
      <trkpt lat="41.695636" lon="2.264940">
        <ele>488.042</ele>
        <time>2022-10-23T08:54:18Z</time>
      </trkpt>
      <trkpt lat="41.695622" lon="2.264904">
        <ele>488.225</ele>
        <time>2022-10-23T08:54:19Z</time>
      </trkpt>
      <trkpt lat="41.695608" lon="2.264869">
        <ele>488.661</ele>
        <time>2022-10-23T08:54:20Z</time>
      </trkpt>
      <trkpt lat="41.695593" lon="2.264833">
        <ele>488.899</ele>
        <time>2022-10-23T08:54:21Z</time>
      </trkpt>
      <trkpt lat="41.695578" lon="2.264796">
        <ele>489.055</ele>
        <time>2022-10-23T08:54:22Z</time>
      </trkpt>
      <trkpt lat="41.695563" lon="2.264757">
        <ele>489.495</ele>
        <time>2022-10-23T08:54:23Z</time>
      </trkpt>
      <trkpt lat="41.695549" lon="2.264721">
        <ele>489.648</ele>
        <time>2022-10-23T08:54:24Z</time>
      </trkpt>
      <trkpt lat="41.695532" lon="2.264688">
        <ele>490.041</ele>
        <time>2022-10-23T08:54:25Z</time>
      </trkpt>
      <trkpt lat="41.695517" lon="2.264655">
        <ele>490.281</ele>
        <time>2022-10-23T08:54:26Z</time>
      </trkpt>
      <trkpt lat="41.695500" lon="2.264619">
        <ele>490.409</ele>
        <time>2022-10-23T08:54:27Z</time>
      </trkpt>
      <trkpt lat="41.695481" lon="2.264587">
        <ele>490.609</ele>
        <time>2022-10-23T08:54:28Z</time>
      </trkpt>
      <trkpt lat="41.695463" lon="2.264551">
        <ele>491.015</ele>
        <time>2022-10-23T08:54:29Z</time>
      </trkpt>
      <trkpt lat="41.695447" lon="2.264512">
        <ele>491.215</ele>
        <time>2022-10-23T08:54:30Z</time>
      </trkpt>
      <trkpt lat="41.695431" lon="2.264478">
        <ele>491.671</ele>
        <time>2022-10-23T08:54:31Z</time>
      </trkpt>
      <trkpt lat="41.695415" lon="2.264444">
        <ele>492.024</ele>
        <time>2022-10-23T08:54:32Z</time>
      </trkpt>
      <trkpt lat="41.695396" lon="2.264412">
        <ele>492.240</ele>
        <time>2022-10-23T08:54:33Z</time>
      </trkpt>
      <trkpt lat="41.695377" lon="2.264378">
        <ele>492.438</ele>
        <time>2022-10-23T08:54:34Z</time>
      </trkpt>
      <trkpt lat="41.695358" lon="2.264343">
        <ele>492.884</ele>
        <time>2022-10-23T08:54:35Z</time>
      </trkpt>
      <trkpt lat="41.695341" lon="2.264310">
        <ele>493.214</ele>
        <time>2022-10-23T08:54:36Z</time>
      </trkpt>
      <trkpt lat="41.695323" lon="2.264278">
        <ele>493.677</ele>
        <time>2022-10-23T08:54:37Z</time>
      </trkpt>
      <trkpt lat="41.695302" lon="2.264244">
        <ele>493.894</ele>
        <time>2022-10-23T08:54:38Z</time>
      </trkpt>
      <trkpt lat="41.695282" lon="2.264211">
        <ele>494.257</ele>
        <time>2022-10-23T08:54:39Z</time>
      </trkpt>
      <trkpt lat="41.695265" lon="2.264177">
        <ele>494.622</ele>
        <time>2022-10-23T08:54:40Z</time>
      </trkpt>
      <trkpt lat="41.695248" lon="2.264144">
        <ele>494.809</ele>
        <time>2022-10-23T08:54:41Z</time>
      </trkpt>
      <trkpt lat="41.695230" lon="2.264111">
        <ele>495.240</ele>
        <time>2022-10-23T08:54:42Z</time>
      </trkpt>
      <trkpt lat="41.695214" lon="2.264076">
        <ele>495.410</ele>
        <time>2022-10-23T08:54:43Z</time>
      </trkpt>
      <trkpt lat="41.695199" lon="2.264041">
        <ele>495.886</ele>
        <time>2022-10-23T08:54:44Z</time>
      </trkpt>
      <trkpt lat="41.695181" lon="2.264005">
        <ele>496.029</ele>
        <time>2022-10-23T08:54:45Z</time>
      </trkpt>
      <trkpt lat="41.695161" lon="2.263969">
        <ele>496.475</ele>
        <time>2022-10-23T08:54:46Z</time>
      </trkpt>
      <trkpt lat="41.695140" lon="2.263934">
        <ele>496.843</ele>
        <time>2022-10-23T08:54:47Z</time>
      </trkpt>
      <trkpt lat="41.695120" lon="2.263901">
        <ele>497.289</ele>
        <time>2022-10-23T08:54:48Z</time>
      </trkpt>
      <trkpt lat="41.695098" lon="2.263869">
        <ele>497.659</ele>
        <time>2022-10-23T08:54:49Z</time>
      </trkpt>
      <trkpt lat="41.695077" lon="2.263835">
        <ele>497.892</ele>
        <time>2022-10-23T08:54:50Z</time>
      </trkpt>
      <trkpt lat="41.695056" lon="2.263803">
        <ele>498.061</ele>
        <time>2022-10-23T08:54:51Z</time>
      </trkpt>
      <trkpt lat="41.695035" lon="2.263772">
        <ele>498.221</ele>
        <time>2022-10-23T08:54:52Z</time>
      </trkpt>
      <trkpt lat="41.695013" lon="2.263741">
        <ele>498.613</ele>
        <time>2022-10-23T08:54:53Z</time>
      </trkpt>
      <trkpt lat="41.694990" lon="2.263711">
        <ele>498.809</ele>
        <time>2022-10-23T08:54:54Z</time>
      </trkpt>
      <trkpt lat="41.694968" lon="2.263678">
        <ele>499.227</ele>
        <time>2022-10-23T08:54:55Z</time>
      </trkpt>
      <trkpt lat="41.694945" lon="2.263645">
        <ele>499.637</ele>
        <time>2022-10-23T08:54:56Z</time>
      </trkpt>
      <trkpt lat="41.694922" lon="2.263611">
        <ele>499.833</ele>
        <time>2022-10-23T08:54:57Z</time>
      </trkpt>
      <trkpt lat="41.694899" lon="2.263579">
        <ele>500.286</ele>
        <time>2022-10-23T08:54:58Z</time>
      </trkpt>
      <trkpt lat="41.694876" lon="2.263549">
        <ele>500.852</ele>
        <time>2022-10-23T08:54:59Z</time>
      </trkpt>
      <trkpt lat="41.694853" lon="2.263519">
        <ele>501.010</ele>
        <time>2022-10-23T08:55:00Z</time>
      </trkpt>
      <trkpt lat="41.694833" lon="2.263487">
        <ele>501.296</ele>
        <time>2022-10-23T08:55:01Z</time>
      </trkpt>
      <trkpt lat="41.694810" lon="2.263457">
        <ele>501.436</ele>
        <time>2022-10-23T08:55:02Z</time>
      </trkpt>
      <trkpt lat="41.694789" lon="2.263426">
        <ele>501.879</ele>
        <time>2022-10-23T08:55:03Z</time>
      </trkpt>
      <trkpt lat="41.694767" lon="2.263396">
        <ele>502.043</ele>
        <time>2022-10-23T08:55:04Z</time>
      </trkpt>
      <trkpt lat="41.694747" lon="2.263366">
        <ele>502.464</ele>
        <time>2022-10-23T08:55:05Z</time>
      </trkpt>
      <trkpt lat="41.694728" lon="2.263336">
        <ele>502.610</ele>
        <time>2022-10-23T08:55:06Z</time>
      </trkpt>
      <trkpt lat="41.694707" lon="2.263305">
        <ele>502.809</ele>
        <time>2022-10-23T08:55:07Z</time>
      </trkpt>
      <trkpt lat="41.694685" lon="2.263275">
        <ele>503.275</ele>
        <time>2022-10-23T08:55:08Z</time>
      </trkpt>
      <trkpt lat="41.694663" lon="2.263246">
        <ele>503.445</ele>
        <time>2022-10-23T08:55:09Z</time>
      </trkpt>
      <trkpt lat="41.694643" lon="2.263219">
        <ele>503.881</ele>
        <time>2022-10-23T08:55:10Z</time>
      </trkpt>
      <trkpt lat="41.694625" lon="2.263190">
        <ele>504.244</ele>
        <time>2022-10-23T08:55:11Z</time>
      </trkpt>
      <trkpt lat="41.694609" lon="2.263157">
        <ele>504.440</ele>
        <time>2022-10-23T08:55:12Z</time>
      </trkpt>
      <trkpt lat="41.694594" lon="2.263121">
        <ele>504.828</ele>
        <time>2022-10-23T08:55:13Z</time>
      </trkpt>
      <trkpt lat="41.694582" lon="2.263085">
        <ele>505.254</ele>
        <time>2022-10-23T08:55:14Z</time>
      </trkpt>
      <trkpt lat="41.694571" lon="2.263050">
        <ele>505.474</ele>
        <time>2022-10-23T08:55:15Z</time>
      </trkpt>
      <trkpt lat="41.694563" lon="2.263020">
        <ele>505.677</ele>
        <time>2022-10-23T08:55:16Z</time>
      </trkpt>
      <trkpt lat="41.694555" lon="2.262988">
        <ele>505.846</ele>
        <time>2022-10-23T08:55:17Z</time>
      </trkpt>
      <trkpt lat="41.694548" lon="2.262954">
        <ele>506.288</ele>
        <time>2022-10-23T08:55:18Z</time>
      </trkpt>
      <trkpt lat="41.694543" lon="2.262914">
        <ele>506.616</ele>
        <time>2022-10-23T08:55:19Z</time>
      </trkpt>
      <trkpt lat="41.694542" lon="2.262872">
        <ele>506.609</ele>
        <time>2022-10-23T08:55:20Z</time>
      </trkpt>
      <trkpt lat="41.694544" lon="2.262828">
        <ele>506.825</ele>
        <time>2022-10-23T08:55:21Z</time>
      </trkpt>
      <trkpt lat="41.694548" lon="2.262782">
        <ele>506.815</ele>
        <time>2022-10-23T08:55:22Z</time>
      </trkpt>
      <trkpt lat="41.694561" lon="2.262736">
        <ele>506.871</ele>
        <time>2022-10-23T08:55:23Z</time>
      </trkpt>
      <trkpt lat="41.694582" lon="2.262688">
        <ele>507.054</ele>
        <time>2022-10-23T08:55:24Z</time>
      </trkpt>
      <trkpt lat="41.694613" lon="2.262646">
        <ele>507.010</ele>
        <time>2022-10-23T08:55:25Z</time>
      </trkpt>
      <trkpt lat="41.694656" lon="2.262612">
        <ele>507.048</ele>
        <time>2022-10-23T08:55:26Z</time>
      </trkpt>
      <trkpt lat="41.694703" lon="2.262586">
        <ele>507.064</ele>
        <time>2022-10-23T08:55:27Z</time>
      </trkpt>
      <trkpt lat="41.694756" lon="2.262570">
        <ele>507.024</ele>
        <time>2022-10-23T08:55:28Z</time>
      </trkpt>
      <trkpt lat="41.694808" lon="2.262560">
        <ele>507.067</ele>
        <time>2022-10-23T08:55:29Z</time>
      </trkpt>
      <trkpt lat="41.694853" lon="2.262552">
        <ele>506.862</ele>
        <time>2022-10-23T08:55:30Z</time>
      </trkpt>
      <trkpt lat="41.694894" lon="2.262546">
        <ele>506.683</ele>
        <time>2022-10-23T08:55:31Z</time>
      </trkpt>
      <trkpt lat="41.694933" lon="2.262541">
        <ele>506.411</ele>
        <time>2022-10-23T08:55:32Z</time>
      </trkpt>
      <trkpt lat="41.694972" lon="2.262534">
        <ele>506.009</ele>
        <time>2022-10-23T08:55:33Z</time>
      </trkpt>
      <trkpt lat="41.695011" lon="2.262530">
        <ele>505.627</ele>
        <time>2022-10-23T08:55:34Z</time>
      </trkpt>
      <trkpt lat="41.695047" lon="2.262525">
        <ele>505.447</ele>
        <time>2022-10-23T08:55:35Z</time>
      </trkpt>
      <trkpt lat="41.695085" lon="2.262520">
        <ele>505.213</ele>
        <time>2022-10-23T08:55:36Z</time>
      </trkpt>
      <trkpt lat="41.695123" lon="2.262514">
        <ele>505.286</ele>
        <time>2022-10-23T08:55:37Z</time>
      </trkpt>
      <trkpt lat="41.695160" lon="2.262508">
        <ele>505.282</ele>
        <time>2022-10-23T08:55:38Z</time>
      </trkpt>
      <trkpt lat="41.695196" lon="2.262502">
        <ele>505.230</ele>
        <time>2022-10-23T08:55:39Z</time>
      </trkpt>
      <trkpt lat="41.695230" lon="2.262494">
        <ele>505.296</ele>
        <time>2022-10-23T08:55:40Z</time>
      </trkpt>
      <trkpt lat="41.695266" lon="2.262484">
        <ele>505.286</ele>
        <time>2022-10-23T08:55:41Z</time>
      </trkpt>
      <trkpt lat="41.695303" lon="2.262473">
        <ele>505.249</ele>
        <time>2022-10-23T08:55:42Z</time>
      </trkpt>
      <trkpt lat="41.695339" lon="2.262457">
        <ele>505.256</ele>
        <time>2022-10-23T08:55:43Z</time>
      </trkpt>
      <trkpt lat="41.695375" lon="2.262434">
        <ele>505.259</ele>
        <time>2022-10-23T08:55:44Z</time>
      </trkpt>
      <trkpt lat="41.695408" lon="2.262407">
        <ele>505.214</ele>
        <time>2022-10-23T08:55:45Z</time>
      </trkpt>
      <trkpt lat="41.695436" lon="2.262376">
        <ele>505.209</ele>
        <time>2022-10-23T08:55:46Z</time>
      </trkpt>
      <trkpt lat="41.695463" lon="2.262349">
        <ele>505.286</ele>
        <time>2022-10-23T08:55:47Z</time>
      </trkpt>
      <trkpt lat="41.695487" lon="2.262318">
        <ele>505.466</ele>
        <time>2022-10-23T08:55:48Z</time>
      </trkpt>
      <trkpt lat="41.695508" lon="2.262278">
        <ele>505.652</ele>
        <time>2022-10-23T08:55:49Z</time>
      </trkpt>
      <trkpt lat="41.695526" lon="2.262232">
        <ele>505.645</ele>
        <time>2022-10-23T08:55:50Z</time>
      </trkpt>
      <trkpt lat="41.695540" lon="2.262183">
        <ele>505.831</ele>
        <time>2022-10-23T08:55:51Z</time>
      </trkpt>
      <trkpt lat="41.695553" lon="2.262134">
        <ele>506.099</ele>
        <time>2022-10-23T08:55:52Z</time>
      </trkpt>
      <trkpt lat="41.695566" lon="2.262081">
        <ele>506.025</ele>
        <time>2022-10-23T08:55:53Z</time>
      </trkpt>
      <trkpt lat="41.695577" lon="2.262031">
        <ele>506.255</ele>
        <time>2022-10-23T08:55:54Z</time>
      </trkpt>
      <trkpt lat="41.695584" lon="2.261980">
        <ele>506.288</ele>
        <time>2022-10-23T08:55:55Z</time>
      </trkpt>
      <trkpt lat="41.695588" lon="2.261929">
        <ele>506.423</ele>
        <time>2022-10-23T08:55:56Z</time>
      </trkpt>
      <trkpt lat="41.695590" lon="2.261878">
        <ele>506.483</ele>
        <time>2022-10-23T08:55:57Z</time>
      </trkpt>
      <trkpt lat="41.695587" lon="2.261825">
        <ele>506.611</ele>
        <time>2022-10-23T08:55:58Z</time>
      </trkpt>
      <trkpt lat="41.695580" lon="2.261772">
        <ele>506.809</ele>
        <time>2022-10-23T08:55:59Z</time>
      </trkpt>
      <trkpt lat="41.695572" lon="2.261722">
        <ele>507.033</ele>
        <time>2022-10-23T08:56:00Z</time>
      </trkpt>
      <trkpt lat="41.695566" lon="2.261676">
        <ele>507.083</ele>
        <time>2022-10-23T08:56:01Z</time>
      </trkpt>
      <trkpt lat="41.695556" lon="2.261629">
        <ele>507.249</ele>
        <time>2022-10-23T08:56:02Z</time>
      </trkpt>
      <trkpt lat="41.695544" lon="2.261584">
        <ele>507.242</ele>
        <time>2022-10-23T08:56:03Z</time>
      </trkpt>
      <trkpt lat="41.695531" lon="2.261538">
        <ele>507.418</ele>
        <time>2022-10-23T08:56:04Z</time>
      </trkpt>
      <trkpt lat="41.695519" lon="2.261495">
        <ele>507.486</ele>
        <time>2022-10-23T08:56:05Z</time>
      </trkpt>
      <trkpt lat="41.695508" lon="2.261453">
        <ele>507.442</ele>
        <time>2022-10-23T08:56:06Z</time>
      </trkpt>
      <trkpt lat="41.695497" lon="2.261408">
        <ele>507.632</ele>
        <time>2022-10-23T08:56:07Z</time>
      </trkpt>
      <trkpt lat="41.695489" lon="2.261364">
        <ele>507.875</ele>
        <time>2022-10-23T08:56:08Z</time>
      </trkpt>
      <trkpt lat="41.695481" lon="2.261318">
        <ele>508.031</ele>
        <time>2022-10-23T08:56:09Z</time>
      </trkpt>
      <trkpt lat="41.695471" lon="2.261270">
        <ele>508.061</ele>
        <time>2022-10-23T08:56:10Z</time>
      </trkpt>
      <trkpt lat="41.695467" lon="2.261223">
        <ele>508.407</ele>
        <time>2022-10-23T08:56:11Z</time>
      </trkpt>
      <trkpt lat="41.695468" lon="2.261177">
        <ele>508.409</ele>
        <time>2022-10-23T08:56:12Z</time>
      </trkpt>
      <trkpt lat="41.695471" lon="2.261127">
        <ele>508.454</ele>
        <time>2022-10-23T08:56:13Z</time>
      </trkpt>
      <trkpt lat="41.695475" lon="2.261078">
        <ele>508.674</ele>
        <time>2022-10-23T08:56:14Z</time>
      </trkpt>
      <trkpt lat="41.695480" lon="2.261028">
        <ele>508.810</ele>
        <time>2022-10-23T08:56:15Z</time>
      </trkpt>
      <trkpt lat="41.695485" lon="2.260980">
        <ele>509.253</ele>
        <time>2022-10-23T08:56:16Z</time>
      </trkpt>
      <trkpt lat="41.695493" lon="2.260934">
        <ele>509.449</ele>
        <time>2022-10-23T08:56:17Z</time>
      </trkpt>
      <trkpt lat="41.695503" lon="2.260891">
        <ele>509.657</ele>
        <time>2022-10-23T08:56:18Z</time>
      </trkpt>
      <trkpt lat="41.695515" lon="2.260848">
        <ele>510.063</ele>
        <time>2022-10-23T08:56:19Z</time>
      </trkpt>
      <trkpt lat="41.695524" lon="2.260806">
        <ele>510.223</ele>
        <time>2022-10-23T08:56:20Z</time>
      </trkpt>
      <trkpt lat="41.695533" lon="2.260762">
        <ele>510.436</ele>
        <time>2022-10-23T08:56:21Z</time>
      </trkpt>
      <trkpt lat="41.695542" lon="2.260717">
        <ele>510.869</ele>
        <time>2022-10-23T08:56:22Z</time>
      </trkpt>
      <trkpt lat="41.695553" lon="2.260676">
        <ele>511.204</ele>
        <time>2022-10-23T08:56:23Z</time>
      </trkpt>
      <trkpt lat="41.695564" lon="2.260636">
        <ele>511.424</ele>
        <time>2022-10-23T08:56:24Z</time>
      </trkpt>
      <trkpt lat="41.695575" lon="2.260597">
        <ele>511.609</ele>
        <time>2022-10-23T08:56:25Z</time>
      </trkpt>
      <trkpt lat="41.695586" lon="2.260556">
        <ele>512.057</ele>
        <time>2022-10-23T08:56:26Z</time>
      </trkpt>
      <trkpt lat="41.695598" lon="2.260516">
        <ele>512.237</ele>
        <time>2022-10-23T08:56:27Z</time>
      </trkpt>
      <trkpt lat="41.695610" lon="2.260475">
        <ele>512.623</ele>
        <time>2022-10-23T08:56:28Z</time>
      </trkpt>
      <trkpt lat="41.695623" lon="2.260434">
        <ele>512.826</ele>
        <time>2022-10-23T08:56:29Z</time>
      </trkpt>
      <trkpt lat="41.695636" lon="2.260393">
        <ele>513.052</ele>
        <time>2022-10-23T08:56:30Z</time>
      </trkpt>
      <trkpt lat="41.695647" lon="2.260352">
        <ele>513.450</ele>
        <time>2022-10-23T08:56:31Z</time>
      </trkpt>
      <trkpt lat="41.695658" lon="2.260311">
        <ele>513.686</ele>
        <time>2022-10-23T08:56:32Z</time>
      </trkpt>
      <trkpt lat="41.695668" lon="2.260271">
        <ele>514.096</ele>
        <time>2022-10-23T08:56:33Z</time>
      </trkpt>
      <trkpt lat="41.695678" lon="2.260232">
        <ele>514.219</ele>
        <time>2022-10-23T08:56:34Z</time>
      </trkpt>
      <trkpt lat="41.695687" lon="2.260193">
        <ele>514.684</ele>
        <time>2022-10-23T08:56:35Z</time>
      </trkpt>
      <trkpt lat="41.695692" lon="2.260153">
        <ele>514.807</ele>
        <time>2022-10-23T08:56:36Z</time>
      </trkpt>
      <trkpt lat="41.695698" lon="2.260111">
        <ele>515.017</ele>
        <time>2022-10-23T08:56:37Z</time>
      </trkpt>
      <trkpt lat="41.695706" lon="2.260071">
        <ele>515.209</ele>
        <time>2022-10-23T08:56:38Z</time>
      </trkpt>
      <trkpt lat="41.695714" lon="2.260032">
        <ele>515.439</ele>
        <time>2022-10-23T08:56:39Z</time>
      </trkpt>
      <trkpt lat="41.695721" lon="2.259992">
        <ele>515.889</ele>
        <time>2022-10-23T08:56:40Z</time>
      </trkpt>
      <trkpt lat="41.695728" lon="2.259949">
        <ele>515.895</ele>
        <time>2022-10-23T08:56:41Z</time>
      </trkpt>
      <trkpt lat="41.695733" lon="2.259904">
        <ele>516.248</ele>
        <time>2022-10-23T08:56:42Z</time>
      </trkpt>
      <trkpt lat="41.695737" lon="2.259860">
        <ele>516.424</ele>
        <time>2022-10-23T08:56:43Z</time>
      </trkpt>
      <trkpt lat="41.695740" lon="2.259815">
        <ele>516.642</ele>
        <time>2022-10-23T08:56:44Z</time>
      </trkpt>
      <trkpt lat="41.695743" lon="2.259772">
        <ele>516.868</ele>
        <time>2022-10-23T08:56:45Z</time>
      </trkpt>
      <trkpt lat="41.695745" lon="2.259728">
        <ele>517.018</ele>
        <time>2022-10-23T08:56:46Z</time>
      </trkpt>
      <trkpt lat="41.695747" lon="2.259683">
        <ele>517.211</ele>
        <time>2022-10-23T08:56:47Z</time>
      </trkpt>
      <trkpt lat="41.695746" lon="2.259639">
        <ele>517.482</ele>
        <time>2022-10-23T08:56:48Z</time>
      </trkpt>
      <trkpt lat="41.695743" lon="2.259594">
        <ele>517.643</ele>
        <time>2022-10-23T08:56:49Z</time>
      </trkpt>
      <trkpt lat="41.695738" lon="2.259552">
        <ele>517.617</ele>
        <time>2022-10-23T08:56:50Z</time>
      </trkpt>
      <trkpt lat="41.695732" lon="2.259509">
        <ele>517.809</ele>
        <time>2022-10-23T08:56:51Z</time>
      </trkpt>
      <trkpt lat="41.695728" lon="2.259467">
        <ele>517.869</ele>
        <time>2022-10-23T08:56:52Z</time>
      </trkpt>
      <trkpt lat="41.695724" lon="2.259426">
        <ele>517.829</ele>
        <time>2022-10-23T08:56:53Z</time>
      </trkpt>
      <trkpt lat="41.695719" lon="2.259386">
        <ele>518.065</ele>
        <time>2022-10-23T08:56:54Z</time>
      </trkpt>
      <trkpt lat="41.695713" lon="2.259343">
        <ele>518.088</ele>
        <time>2022-10-23T08:56:55Z</time>
      </trkpt>
      <trkpt lat="41.695706" lon="2.259302">
        <ele>518.064</ele>
        <time>2022-10-23T08:56:56Z</time>
      </trkpt>
      <trkpt lat="41.695704" lon="2.259258">
        <ele>518.222</ele>
        <time>2022-10-23T08:56:57Z</time>
      </trkpt>
      <trkpt lat="41.695703" lon="2.259216">
        <ele>518.258</ele>
        <time>2022-10-23T08:56:58Z</time>
      </trkpt>
      <trkpt lat="41.695704" lon="2.259176">
        <ele>518.238</ele>
        <time>2022-10-23T08:56:59Z</time>
      </trkpt>
      <trkpt lat="41.695704" lon="2.259133">
        <ele>518.231</ele>
        <time>2022-10-23T08:57:00Z</time>
      </trkpt>
      <trkpt lat="41.695706" lon="2.259090">
        <ele>518.485</ele>
        <time>2022-10-23T08:57:01Z</time>
      </trkpt>
      <trkpt lat="41.695712" lon="2.259048">
        <ele>518.489</ele>
        <time>2022-10-23T08:57:02Z</time>
      </trkpt>
      <trkpt lat="41.695719" lon="2.259004">
        <ele>518.617</ele>
        <time>2022-10-23T08:57:03Z</time>
      </trkpt>
      <trkpt lat="41.695725" lon="2.258960">
        <ele>518.609</ele>
        <time>2022-10-23T08:57:04Z</time>
      </trkpt>
      <trkpt lat="41.695731" lon="2.258915">
        <ele>518.639</ele>
        <time>2022-10-23T08:57:05Z</time>
      </trkpt>
      <trkpt lat="41.695737" lon="2.258870">
        <ele>518.849</ele>
        <time>2022-10-23T08:57:06Z</time>
      </trkpt>
      <trkpt lat="41.695745" lon="2.258827">
        <ele>518.855</ele>
        <time>2022-10-23T08:57:07Z</time>
      </trkpt>
      <trkpt lat="41.695756" lon="2.258783">
        <ele>519.038</ele>
        <time>2022-10-23T08:57:08Z</time>
      </trkpt>
      <trkpt lat="41.695766" lon="2.258737">
        <ele>519.074</ele>
        <time>2022-10-23T08:57:09Z</time>
      </trkpt>
      <trkpt lat="41.695772" lon="2.258693">
        <ele>519.282</ele>
        <time>2022-10-23T08:57:10Z</time>
      </trkpt>
      <trkpt lat="41.695778" lon="2.258654">
        <ele>519.218</ele>
        <time>2022-10-23T08:57:11Z</time>
      </trkpt>
      <trkpt lat="41.695786" lon="2.258617">
        <ele>519.458</ele>
        <time>2022-10-23T08:57:12Z</time>
      </trkpt>
      <trkpt lat="41.695796" lon="2.258581">
        <ele>519.471</ele>
        <time>2022-10-23T08:57:13Z</time>
      </trkpt>
      <trkpt lat="41.695808" lon="2.258546">
        <ele>519.465</ele>
        <time>2022-10-23T08:57:14Z</time>
      </trkpt>
      <trkpt lat="41.695822" lon="2.258512">
        <ele>519.668</ele>
        <time>2022-10-23T08:57:15Z</time>
      </trkpt>
      <trkpt lat="41.695840" lon="2.258483">
        <ele>519.814</ele>
        <time>2022-10-23T08:57:16Z</time>
      </trkpt>
      <trkpt lat="41.695855" lon="2.258450">
        <ele>519.809</ele>
        <time>2022-10-23T08:57:17Z</time>
      </trkpt>
      <trkpt lat="41.695867" lon="2.258412">
        <ele>520.067</ele>
        <time>2022-10-23T08:57:18Z</time>
      </trkpt>
      <trkpt lat="41.695877" lon="2.258376">
        <ele>520.297</ele>
        <time>2022-10-23T08:57:19Z</time>
      </trkpt>
      <trkpt lat="41.695887" lon="2.258342">
        <ele>520.283</ele>
        <time>2022-10-23T08:57:20Z</time>
      </trkpt>
      <trkpt lat="41.695900" lon="2.258312">
        <ele>520.466</ele>
        <time>2022-10-23T08:57:21Z</time>
      </trkpt>
      <trkpt lat="41.695917" lon="2.258279">
        <ele>520.682</ele>
        <time>2022-10-23T08:57:22Z</time>
      </trkpt>
      <trkpt lat="41.695936" lon="2.258246">
        <ele>521.010</ele>
        <time>2022-10-23T08:57:23Z</time>
      </trkpt>
      <trkpt lat="41.695955" lon="2.258212">
        <ele>521.296</ele>
        <time>2022-10-23T08:57:24Z</time>
      </trkpt>
      <trkpt lat="41.695975" lon="2.258179">
        <ele>521.036</ele>
        <time>2022-10-23T08:57:25Z</time>
      </trkpt>
      <trkpt lat="41.695995" lon="2.258143">
        <ele>521.279</ele>
        <time>2022-10-23T08:57:26Z</time>
      </trkpt>
      <trkpt lat="41.696015" lon="2.258104">
        <ele>521.298</ele>
        <time>2022-10-23T08:57:27Z</time>
      </trkpt>
      <trkpt lat="41.696038" lon="2.258067">
        <ele>521.215</ele>
        <time>2022-10-23T08:57:28Z</time>
      </trkpt>
      <trkpt lat="41.696059" lon="2.258029">
        <ele>521.226</ele>
        <time>2022-10-23T08:57:29Z</time>
      </trkpt>
      <trkpt lat="41.696079" lon="2.257987">
        <ele>521.209</ele>
        <time>2022-10-23T08:57:30Z</time>
      </trkpt>
      <trkpt lat="41.696101" lon="2.257946">
        <ele>521.280</ele>
        <time>2022-10-23T08:57:31Z</time>
      </trkpt>
      <trkpt lat="41.696118" lon="2.257902">
        <ele>521.290</ele>
        <time>2022-10-23T08:57:32Z</time>
      </trkpt>
      <trkpt lat="41.696136" lon="2.257862">
        <ele>521.286</ele>
        <time>2022-10-23T08:57:33Z</time>
      </trkpt>
      <trkpt lat="41.696155" lon="2.257826">
        <ele>521.269</ele>
        <time>2022-10-23T08:57:34Z</time>
      </trkpt>
      <trkpt lat="41.696173" lon="2.257794">
        <ele>521.225</ele>
        <time>2022-10-23T08:57:35Z</time>
      </trkpt>
      <trkpt lat="41.696189" lon="2.257765">
        <ele>521.483</ele>
        <time>2022-10-23T08:57:36Z</time>
      </trkpt>
      <trkpt lat="41.696205" lon="2.257738">
        <ele>521.079</ele>
        <time>2022-10-23T08:57:37Z</time>
      </trkpt>
      <trkpt lat="41.696219" lon="2.257711">
        <ele>521.059</ele>
        <time>2022-10-23T08:57:38Z</time>
      </trkpt>
      <trkpt lat="41.696234" lon="2.257685">
        <ele>521.052</ele>
        <time>2022-10-23T08:57:39Z</time>
      </trkpt>
      <trkpt lat="41.696245" lon="2.257667">
        <ele>521.078</ele>
        <time>2022-10-23T08:57:40Z</time>
      </trkpt>
      <trkpt lat="41.696254" lon="2.257654">
        <ele>521.033</ele>
        <time>2022-10-23T08:57:41Z</time>
      </trkpt>
      <trkpt lat="41.696261" lon="2.257647">
        <ele>520.826</ele>
        <time>2022-10-23T08:57:42Z</time>
      </trkpt>
      <trkpt lat="41.696265" lon="2.257642">
        <ele>520.809</ele>
        <time>2022-10-23T08:57:43Z</time>
      </trkpt>
      <trkpt lat="41.696275" lon="2.257646">
        <ele>520.848</ele>
        <time>2022-10-23T08:57:44Z</time>
      </trkpt>
      <trkpt lat="41.696279" lon="2.257658">
        <ele>520.698</ele>
        <time>2022-10-23T08:57:45Z</time>
      </trkpt>
      <trkpt lat="41.696278" lon="2.257678">
        <ele>520.674</ele>
        <time>2022-10-23T08:57:46Z</time>
      </trkpt>
      <trkpt lat="41.696275" lon="2.257702">
        <ele>520.657</ele>
        <time>2022-10-23T08:57:47Z</time>
      </trkpt>
      <trkpt lat="41.696268" lon="2.257722">
        <ele>520.613</ele>
        <time>2022-10-23T08:57:48Z</time>
      </trkpt>
      <trkpt lat="41.696258" lon="2.257738">
        <ele>520.671</ele>
        <time>2022-10-23T08:57:49Z</time>
      </trkpt>
      <trkpt lat="41.696247" lon="2.257754">
        <ele>520.677</ele>
        <time>2022-10-23T08:57:50Z</time>
      </trkpt>
      <trkpt lat="41.696233" lon="2.257770">
        <ele>520.667</ele>
        <time>2022-10-23T08:57:51Z</time>
      </trkpt>
      <trkpt lat="41.696222" lon="2.257789">
        <ele>520.680</ele>
        <time>2022-10-23T08:57:52Z</time>
      </trkpt>
      <trkpt lat="41.696212" lon="2.257808">
        <ele>520.639</ele>
        <time>2022-10-23T08:57:53Z</time>
      </trkpt>
      <trkpt lat="41.696203" lon="2.257826">
        <ele>520.601</ele>
        <time>2022-10-23T08:57:54Z</time>
      </trkpt>
      <trkpt lat="41.696193" lon="2.257845">
        <ele>520.621</ele>
        <time>2022-10-23T08:57:55Z</time>
      </trkpt>
      <trkpt lat="41.696181" lon="2.257863">
        <ele>520.609</ele>
        <time>2022-10-23T08:57:56Z</time>
      </trkpt>
      <trkpt lat="41.696173" lon="2.257882">
        <ele>520.634</ele>
        <time>2022-10-23T08:57:57Z</time>
      </trkpt>
      <trkpt lat="41.696168" lon="2.257896">
        <ele>520.664</ele>
        <time>2022-10-23T08:57:58Z</time>
      </trkpt>
      <trkpt lat="41.696165" lon="2.257909">
        <ele>520.680</ele>
        <time>2022-10-23T08:57:59Z</time>
      </trkpt>
      <trkpt lat="41.696160" lon="2.257921">
        <ele>520.443</ele>
        <time>2022-10-23T08:58:00Z</time>
      </trkpt>
      <trkpt lat="41.696155" lon="2.257934">
        <ele>520.469</ele>
        <time>2022-10-23T08:58:01Z</time>
      </trkpt>
      <trkpt lat="41.696150" lon="2.257946">
        <ele>520.447</ele>
        <time>2022-10-23T08:58:02Z</time>
      </trkpt>
      <trkpt lat="41.696144" lon="2.257956">
        <ele>520.653</ele>
        <time>2022-10-23T08:58:03Z</time>
      </trkpt>
      <trkpt lat="41.696138" lon="2.257965">
        <ele>520.823</ele>
        <time>2022-10-23T08:58:04Z</time>
      </trkpt>
      <trkpt lat="41.696132" lon="2.257969">
        <ele>520.676</ele>
        <time>2022-10-23T08:58:05Z</time>
      </trkpt>
      <trkpt lat="41.696128" lon="2.257971">
        <ele>520.675</ele>
        <time>2022-10-23T08:58:06Z</time>
      </trkpt>
      <trkpt lat="41.696101" lon="2.258031">
        <ele>520.828</ele>
        <time>2022-10-23T08:58:10Z</time>
      </trkpt>
      <trkpt lat="41.696090" lon="2.258056">
        <ele>520.820</ele>
        <time>2022-10-23T08:58:11Z</time>
      </trkpt>
      <trkpt lat="41.696077" lon="2.258080">
        <ele>520.809</ele>
        <time>2022-10-23T08:58:12Z</time>
      </trkpt>
      <trkpt lat="41.696064" lon="2.258102">
        <ele>520.848</ele>
        <time>2022-10-23T08:58:13Z</time>
      </trkpt>
      <trkpt lat="41.696048" lon="2.258122">
        <ele>521.078</ele>
        <time>2022-10-23T08:58:14Z</time>
      </trkpt>
      <trkpt lat="41.696032" lon="2.258144">
        <ele>521.094</ele>
        <time>2022-10-23T08:58:15Z</time>
      </trkpt>
      <trkpt lat="41.696015" lon="2.258166">
        <ele>521.077</ele>
        <time>2022-10-23T08:58:16Z</time>
      </trkpt>
      <trkpt lat="41.695998" lon="2.258185">
        <ele>521.253</ele>
        <time>2022-10-23T08:58:17Z</time>
      </trkpt>
      <trkpt lat="41.695984" lon="2.258206">
        <ele>521.291</ele>
        <time>2022-10-23T08:58:18Z</time>
      </trkpt>
      <trkpt lat="41.695974" lon="2.258227">
        <ele>521.287</ele>
        <time>2022-10-23T08:58:19Z</time>
      </trkpt>
      <trkpt lat="41.695964" lon="2.258246">
        <ele>521.227</ele>
        <time>2022-10-23T08:58:20Z</time>
      </trkpt>
      <trkpt lat="41.695956" lon="2.258263">
        <ele>521.220</ele>
        <time>2022-10-23T08:58:21Z</time>
      </trkpt>
      <trkpt lat="41.695953" lon="2.258280">
        <ele>521.296</ele>
        <time>2022-10-23T08:58:22Z</time>
      </trkpt>
      <trkpt lat="41.695947" lon="2.258296">
        <ele>521.231</ele>
        <time>2022-10-23T08:58:23Z</time>
      </trkpt>
      <trkpt lat="41.695943" lon="2.258313">
        <ele>521.424</ele>
        <time>2022-10-23T08:58:24Z</time>
      </trkpt>
      <trkpt lat="41.695935" lon="2.258331">
        <ele>521.409</ele>
        <time>2022-10-23T08:58:25Z</time>
      </trkpt>
      <trkpt lat="41.695927" lon="2.258350">
        <ele>521.420</ele>
        <time>2022-10-23T08:58:26Z</time>
      </trkpt>
      <trkpt lat="41.695915" lon="2.258365">
        <ele>521.470</ele>
        <time>2022-10-23T08:58:27Z</time>
      </trkpt>
      <trkpt lat="41.695905" lon="2.258382">
        <ele>521.466</ele>
        <time>2022-10-23T08:58:28Z</time>
      </trkpt>
      <trkpt lat="41.695894" lon="2.258401">
        <ele>521.629</ele>
        <time>2022-10-23T08:58:29Z</time>
      </trkpt>
      <trkpt lat="41.695884" lon="2.258422">
        <ele>521.625</ele>
        <time>2022-10-23T08:58:30Z</time>
      </trkpt>
      <trkpt lat="41.695876" lon="2.258446">
        <ele>521.653</ele>
        <time>2022-10-23T08:58:31Z</time>
      </trkpt>
      <trkpt lat="41.695867" lon="2.258467">
        <ele>521.629</ele>
        <time>2022-10-23T08:58:32Z</time>
      </trkpt>
      <trkpt lat="41.695856" lon="2.258481">
        <ele>521.699</ele>
        <time>2022-10-23T08:58:33Z</time>
      </trkpt>
      <trkpt lat="41.695843" lon="2.258496">
        <ele>521.632</ele>
        <time>2022-10-23T08:58:34Z</time>
      </trkpt>
      <trkpt lat="41.695831" lon="2.258517">
        <ele>521.653</ele>
        <time>2022-10-23T08:58:35Z</time>
      </trkpt>
      <trkpt lat="41.695814" lon="2.258539">
        <ele>521.604</ele>
        <time>2022-10-23T08:58:36Z</time>
      </trkpt>
      <trkpt lat="41.695804" lon="2.258566">
        <ele>521.614</ele>
        <time>2022-10-23T08:58:37Z</time>
      </trkpt>
      <trkpt lat="41.695797" lon="2.258597">
        <ele>521.609</ele>
        <time>2022-10-23T08:58:38Z</time>
      </trkpt>
      <trkpt lat="41.695791" lon="2.258630">
        <ele>521.446</ele>
        <time>2022-10-23T08:58:39Z</time>
      </trkpt>
      <trkpt lat="41.695786" lon="2.258653">
        <ele>521.436</ele>
        <time>2022-10-23T08:58:40Z</time>
      </trkpt>
      <trkpt lat="41.695783" lon="2.258670">
        <ele>521.242</ele>
        <time>2022-10-23T08:58:41Z</time>
      </trkpt>
      <trkpt lat="41.695779" lon="2.258686">
        <ele>521.075</ele>
        <time>2022-10-23T08:58:42Z</time>
      </trkpt>
      <trkpt lat="41.695776" lon="2.258703">
        <ele>520.821</ele>
        <time>2022-10-23T08:58:43Z</time>
      </trkpt>
      <trkpt lat="41.695772" lon="2.258721">
        <ele>520.849</ele>
        <time>2022-10-23T08:58:44Z</time>
      </trkpt>
      <trkpt lat="41.695770" lon="2.258744">
        <ele>520.645</ele>
        <time>2022-10-23T08:58:45Z</time>
      </trkpt>
      <trkpt lat="41.695765" lon="2.258766">
        <ele>520.655</ele>
        <time>2022-10-23T08:58:46Z</time>
      </trkpt>
      <trkpt lat="41.695758" lon="2.258785">
        <ele>520.498</ele>
        <time>2022-10-23T08:58:47Z</time>
      </trkpt>
      <trkpt lat="41.695756" lon="2.258792">
        <ele>520.482</ele>
        <time>2022-10-23T08:58:48Z</time>
      </trkpt>
      <trkpt lat="41.695755" lon="2.258794">
        <ele>520.243</ele>
        <time>2022-10-23T08:58:49Z</time>
      </trkpt>
      <trkpt lat="41.695757" lon="2.258792">
        <ele>520.217</ele>
        <time>2022-10-23T08:58:50Z</time>
      </trkpt>
      <trkpt lat="41.695760" lon="2.258881">
        <ele>519.609</ele>
        <time>2022-10-23T08:58:59Z</time>
      </trkpt>
      <trkpt lat="41.695749" lon="2.258896">
        <ele>519.689</ele>
        <time>2022-10-23T08:59:00Z</time>
      </trkpt>
      <trkpt lat="41.695736" lon="2.258901">
        <ele>519.699</ele>
        <time>2022-10-23T08:59:01Z</time>
      </trkpt>
      <trkpt lat="41.695730" lon="2.258895">
        <ele>519.695</ele>
        <time>2022-10-23T08:59:02Z</time>
      </trkpt>
      <trkpt lat="41.695734" lon="2.258884">
        <ele>519.668</ele>
        <time>2022-10-23T08:59:03Z</time>
      </trkpt>
      <trkpt lat="41.695745" lon="2.258872">
        <ele>519.684</ele>
        <time>2022-10-23T08:59:04Z</time>
      </trkpt>
      <trkpt lat="41.695755" lon="2.258857">
        <ele>519.642</ele>
        <time>2022-10-23T08:59:05Z</time>
      </trkpt>
      <trkpt lat="41.695762" lon="2.258842">
        <ele>519.698</ele>
        <time>2022-10-23T08:59:06Z</time>
      </trkpt>
      <trkpt lat="41.695765" lon="2.258838">
        <ele>519.698</ele>
        <time>2022-10-23T08:59:07Z</time>
      </trkpt>
      <trkpt lat="41.695763" lon="2.258846">
        <ele>519.471</ele>
        <time>2022-10-23T08:59:08Z</time>
      </trkpt>
      <trkpt lat="41.695764" lon="2.258852">
        <ele>519.449</ele>
        <time>2022-10-23T08:59:09Z</time>
      </trkpt>
      <trkpt lat="41.695762" lon="2.258858">
        <ele>519.402</ele>
        <time>2022-10-23T08:59:10Z</time>
      </trkpt>
      <trkpt lat="41.695763" lon="2.258862">
        <ele>519.422</ele>
        <time>2022-10-23T08:59:11Z</time>
      </trkpt>
      <trkpt lat="41.695731" lon="2.258852">
        <ele>519.209</ele>
        <time>2022-10-23T08:59:37Z</time>
      </trkpt>
      <trkpt lat="41.695707" lon="2.258837">
        <ele>519.295</ele>
        <time>2022-10-23T08:59:38Z</time>
      </trkpt>
      <trkpt lat="41.695683" lon="2.258819">
        <ele>519.225</ele>
        <time>2022-10-23T08:59:39Z</time>
      </trkpt>
      <trkpt lat="41.695662" lon="2.258806">
        <ele>519.241</ele>
        <time>2022-10-23T08:59:40Z</time>
      </trkpt>
      <trkpt lat="41.695646" lon="2.258799">
        <ele>519.224</ele>
        <time>2022-10-23T08:59:41Z</time>
      </trkpt>
      <trkpt lat="41.695635" lon="2.258799">
        <ele>519.260</ele>
        <time>2022-10-23T08:59:42Z</time>
      </trkpt>
      <trkpt lat="41.695623" lon="2.258803">
        <ele>519.288</ele>
        <time>2022-10-23T08:59:43Z</time>
      </trkpt>
      <trkpt lat="41.695611" lon="2.258819">
        <ele>519.224</ele>
        <time>2022-10-23T08:59:44Z</time>
      </trkpt>
      <trkpt lat="41.695595" lon="2.258863">
        <ele>519.034</ele>
        <time>2022-10-23T08:59:45Z</time>
      </trkpt>
      <trkpt lat="41.695580" lon="2.258925">
        <ele>519.037</ele>
        <time>2022-10-23T08:59:46Z</time>
      </trkpt>
      <trkpt lat="41.695561" lon="2.258984">
        <ele>518.679</ele>
        <time>2022-10-23T08:59:47Z</time>
      </trkpt>
      <trkpt lat="41.695538" lon="2.259034">
        <ele>518.405</ele>
        <time>2022-10-23T08:59:48Z</time>
      </trkpt>
      <trkpt lat="41.695512" lon="2.259064">
        <ele>518.025</ele>
        <time>2022-10-23T08:59:49Z</time>
      </trkpt>
      <trkpt lat="41.695475" lon="2.259077">
        <ele>517.809</ele>
        <time>2022-10-23T08:59:50Z</time>
      </trkpt>
      <trkpt lat="41.695429" lon="2.259079">
        <ele>517.628</ele>
        <time>2022-10-23T08:59:51Z</time>
      </trkpt>
      <trkpt lat="41.695380" lon="2.259082">
        <ele>517.298</ele>
        <time>2022-10-23T08:59:52Z</time>
      </trkpt>
      <trkpt lat="41.695333" lon="2.259084">
        <ele>516.894</ele>
        <time>2022-10-23T08:59:53Z</time>
      </trkpt>
      <trkpt lat="41.695295" lon="2.259088">
        <ele>516.437</ele>
        <time>2022-10-23T08:59:54Z</time>
      </trkpt>
      <trkpt lat="41.695267" lon="2.259082">
        <ele>516.233</ele>
        <time>2022-10-23T08:59:55Z</time>
      </trkpt>
      <trkpt lat="41.695249" lon="2.259063">
        <ele>515.661</ele>
        <time>2022-10-23T08:59:56Z</time>
      </trkpt>
      <trkpt lat="41.695221" lon="2.259041">
        <ele>514.677</ele>
        <time>2022-10-23T08:59:57Z</time>
      </trkpt>
      <trkpt lat="41.695191" lon="2.259014">
        <ele>513.837</ele>
        <time>2022-10-23T08:59:58Z</time>
      </trkpt>
      <trkpt lat="41.695157" lon="2.258989">
        <ele>513.090</ele>
        <time>2022-10-23T08:59:59Z</time>
      </trkpt>
      <trkpt lat="41.695122" lon="2.258962">
        <ele>511.829</ele>
        <time>2022-10-23T09:00:00Z</time>
      </trkpt>
      <trkpt lat="41.695089" lon="2.258936">
        <ele>510.400</ele>
        <time>2022-10-23T09:00:01Z</time>
      </trkpt>
      <trkpt lat="41.695054" lon="2.258912">
        <ele>509.420</ele>
        <time>2022-10-23T09:00:02Z</time>
      </trkpt>
      <trkpt lat="41.695006" lon="2.258898">
        <ele>508.809</ele>
        <time>2022-10-23T09:00:03Z</time>
      </trkpt>
      <trkpt lat="41.694956" lon="2.258889">
        <ele>506.873</ele>
        <time>2022-10-23T09:00:04Z</time>
      </trkpt>
      <trkpt lat="41.694898" lon="2.258888">
        <ele>505.643</ele>
        <time>2022-10-23T09:00:05Z</time>
      </trkpt>
      <trkpt lat="41.694848" lon="2.258894">
        <ele>504.899</ele>
        <time>2022-10-23T09:00:06Z</time>
      </trkpt>
      <trkpt lat="41.694796" lon="2.258923">
        <ele>504.072</ele>
        <time>2022-10-23T09:00:07Z</time>
      </trkpt>
      <trkpt lat="41.694738" lon="2.258934">
        <ele>503.438</ele>
        <time>2022-10-23T09:00:08Z</time>
      </trkpt>
      <trkpt lat="41.694682" lon="2.258926">
        <ele>502.866</ele>
        <time>2022-10-23T09:00:09Z</time>
      </trkpt>
      <trkpt lat="41.694620" lon="2.258912">
        <ele>501.862</ele>
        <time>2022-10-23T09:00:10Z</time>
      </trkpt>
      <trkpt lat="41.694566" lon="2.258893">
        <ele>500.812</ele>
        <time>2022-10-23T09:00:11Z</time>
      </trkpt>
      <trkpt lat="41.694513" lon="2.258861">
        <ele>499.635</ele>
        <time>2022-10-23T09:00:12Z</time>
      </trkpt>
      <trkpt lat="41.694459" lon="2.258822">
        <ele>498.668</ele>
        <time>2022-10-23T09:00:13Z</time>
      </trkpt>
      <trkpt lat="41.694417" lon="2.258785">
        <ele>497.242</ele>
        <time>2022-10-23T09:00:14Z</time>
      </trkpt>
      <trkpt lat="41.694392" lon="2.258758">
        <ele>496.226</ele>
        <time>2022-10-23T09:00:15Z</time>
      </trkpt>
      <trkpt lat="41.694373" lon="2.258746">
        <ele>495.209</ele>
        <time>2022-10-23T09:00:16Z</time>
      </trkpt>
      <trkpt lat="41.694343" lon="2.258740">
        <ele>494.417</ele>
        <time>2022-10-23T09:00:17Z</time>
      </trkpt>
      <trkpt lat="41.694317" lon="2.258733">
        <ele>494.027</ele>
        <time>2022-10-23T09:00:18Z</time>
      </trkpt>
      <trkpt lat="41.694275" lon="2.258726">
        <ele>493.623</ele>
        <time>2022-10-23T09:00:19Z</time>
      </trkpt>
      <trkpt lat="41.694221" lon="2.258728">
        <ele>493.026</ele>
        <time>2022-10-23T09:00:20Z</time>
      </trkpt>
      <trkpt lat="41.694170" lon="2.258726">
        <ele>492.462</ele>
        <time>2022-10-23T09:00:21Z</time>
      </trkpt>
      <trkpt lat="41.694115" lon="2.258704">
        <ele>491.830</ele>
        <time>2022-10-23T09:00:22Z</time>
      </trkpt>
      <trkpt lat="41.694058" lon="2.258675">
        <ele>491.056</ele>
        <time>2022-10-23T09:00:23Z</time>
      </trkpt>
      <trkpt lat="41.693992" lon="2.258645">
        <ele>490.626</ele>
        <time>2022-10-23T09:00:24Z</time>
      </trkpt>
      <trkpt lat="41.693920" lon="2.258624">
        <ele>490.269</ele>
        <time>2022-10-23T09:00:25Z</time>
      </trkpt>
      <trkpt lat="41.693847" lon="2.258605">
        <ele>490.011</ele>
        <time>2022-10-23T09:00:26Z</time>
      </trkpt>
      <trkpt lat="41.693774" lon="2.258579">
        <ele>489.621</ele>
        <time>2022-10-23T09:00:27Z</time>
      </trkpt>
      <trkpt lat="41.693698" lon="2.258546">
        <ele>488.803</ele>
        <time>2022-10-23T09:00:28Z</time>
      </trkpt>
      <trkpt lat="41.693626" lon="2.258523">
        <ele>488.409</ele>
        <time>2022-10-23T09:00:29Z</time>
      </trkpt>
      <trkpt lat="41.693551" lon="2.258514">
        <ele>487.892</ele>
        <time>2022-10-23T09:00:30Z</time>
      </trkpt>
      <trkpt lat="41.693476" lon="2.258520">
        <ele>486.882</ele>
        <time>2022-10-23T09:00:31Z</time>
      </trkpt>
      <trkpt lat="41.693399" lon="2.258540">
        <ele>486.268</ele>
        <time>2022-10-23T09:00:32Z</time>
      </trkpt>
      <trkpt lat="41.693316" lon="2.258559">
        <ele>485.641</ele>
        <time>2022-10-23T09:00:33Z</time>
      </trkpt>
      <trkpt lat="41.693240" lon="2.258580">
        <ele>485.027</ele>
        <time>2022-10-23T09:00:34Z</time>
      </trkpt>
      <trkpt lat="41.693160" lon="2.258601">
        <ele>484.885</ele>
        <time>2022-10-23T09:00:35Z</time>
      </trkpt>
      <trkpt lat="41.693078" lon="2.258613">
        <ele>484.091</ele>
        <time>2022-10-23T09:00:36Z</time>
      </trkpt>
      <trkpt lat="41.693010" lon="2.258634">
        <ele>483.681</ele>
        <time>2022-10-23T09:00:37Z</time>
      </trkpt>
      <trkpt lat="41.692962" lon="2.258666">
        <ele>483.084</ele>
        <time>2022-10-23T09:00:38Z</time>
      </trkpt>
      <trkpt lat="41.692927" lon="2.258694">
        <ele>482.219</ele>
        <time>2022-10-23T09:00:39Z</time>
      </trkpt>
      <trkpt lat="41.692897" lon="2.258702">
        <ele>481.009</ele>
        <time>2022-10-23T09:00:40Z</time>
      </trkpt>
      <trkpt lat="41.692869" lon="2.258680">
        <ele>480.419</ele>
        <time>2022-10-23T09:00:41Z</time>
      </trkpt>
      <trkpt lat="41.692842" lon="2.258645">
        <ele>479.809</ele>
        <time>2022-10-23T09:00:42Z</time>
      </trkpt>
      <trkpt lat="41.692817" lon="2.258609">
        <ele>479.262</ele>
        <time>2022-10-23T09:00:43Z</time>
      </trkpt>
      <trkpt lat="41.692781" lon="2.258585">
        <ele>478.252</ele>
        <time>2022-10-23T09:00:44Z</time>
      </trkpt>
      <trkpt lat="41.692737" lon="2.258564">
        <ele>477.668</ele>
        <time>2022-10-23T09:00:45Z</time>
      </trkpt>
      <trkpt lat="41.692682" lon="2.258543">
        <ele>477.241</ele>
        <time>2022-10-23T09:00:46Z</time>
      </trkpt>
      <trkpt lat="41.692622" lon="2.258530">
        <ele>476.877</ele>
        <time>2022-10-23T09:00:47Z</time>
      </trkpt>
      <trkpt lat="41.692561" lon="2.258529">
        <ele>476.625</ele>
        <time>2022-10-23T09:00:48Z</time>
      </trkpt>
      <trkpt lat="41.692501" lon="2.258520">
        <ele>476.211</ele>
        <time>2022-10-23T09:00:49Z</time>
      </trkpt>
      <trkpt lat="41.692443" lon="2.258511">
        <ele>475.481</ele>
        <time>2022-10-23T09:00:50Z</time>
      </trkpt>
      <trkpt lat="41.692385" lon="2.258502">
        <ele>475.094</ele>
        <time>2022-10-23T09:00:51Z</time>
      </trkpt>
      <trkpt lat="41.692321" lon="2.258491">
        <ele>474.434</ele>
        <time>2022-10-23T09:00:52Z</time>
      </trkpt>
      <trkpt lat="41.692259" lon="2.258479">
        <ele>473.855</ele>
        <time>2022-10-23T09:00:53Z</time>
      </trkpt>
      <trkpt lat="41.692188" lon="2.258477">
        <ele>473.410</ele>
        <time>2022-10-23T09:00:54Z</time>
      </trkpt>
      <trkpt lat="41.692120" lon="2.258485">
        <ele>472.609</ele>
        <time>2022-10-23T09:00:55Z</time>
      </trkpt>
      <trkpt lat="41.692056" lon="2.258497">
        <ele>472.044</ele>
        <time>2022-10-23T09:00:56Z</time>
      </trkpt>
      <trkpt lat="41.691998" lon="2.258521">
        <ele>471.694</ele>
        <time>2022-10-23T09:00:57Z</time>
      </trkpt>
      <trkpt lat="41.691946" lon="2.258553">
        <ele>471.250</ele>
        <time>2022-10-23T09:00:58Z</time>
      </trkpt>
      <trkpt lat="41.691895" lon="2.258581">
        <ele>471.023</ele>
        <time>2022-10-23T09:00:59Z</time>
      </trkpt>
      <trkpt lat="41.691851" lon="2.258582">
        <ele>471.019</ele>
        <time>2022-10-23T09:01:00Z</time>
      </trkpt>
      <trkpt lat="41.691812" lon="2.258558">
        <ele>470.627</ele>
        <time>2022-10-23T09:01:01Z</time>
      </trkpt>
      <trkpt lat="41.691783" lon="2.258517">
        <ele>470.233</ele>
        <time>2022-10-23T09:01:02Z</time>
      </trkpt>
      <trkpt lat="41.691754" lon="2.258489">
        <ele>469.623</ele>
        <time>2022-10-23T09:01:03Z</time>
      </trkpt>
      <trkpt lat="41.691723" lon="2.258480">
        <ele>469.226</ele>
        <time>2022-10-23T09:01:04Z</time>
      </trkpt>
      <trkpt lat="41.691688" lon="2.258491">
        <ele>467.814</ele>
        <time>2022-10-23T09:01:05Z</time>
      </trkpt>
      <trkpt lat="41.691646" lon="2.258518">
        <ele>466.854</ele>
        <time>2022-10-23T09:01:06Z</time>
      </trkpt>
      <trkpt lat="41.691603" lon="2.258546">
        <ele>465.809</ele>
        <time>2022-10-23T09:01:07Z</time>
      </trkpt>
      <trkpt lat="41.691557" lon="2.258552">
        <ele>465.209</ele>
        <time>2022-10-23T09:01:08Z</time>
      </trkpt>
      <trkpt lat="41.691507" lon="2.258543">
        <ele>464.452</ele>
        <time>2022-10-23T09:01:09Z</time>
      </trkpt>
      <trkpt lat="41.691449" lon="2.258535">
        <ele>463.412</ele>
        <time>2022-10-23T09:01:10Z</time>
      </trkpt>
      <trkpt lat="41.691398" lon="2.258531">
        <ele>462.658</ele>
        <time>2022-10-23T09:01:11Z</time>
      </trkpt>
      <trkpt lat="41.691351" lon="2.258512">
        <ele>462.071</ele>
        <time>2022-10-23T09:01:12Z</time>
      </trkpt>
      <trkpt lat="41.691312" lon="2.258476">
        <ele>461.457</ele>
        <time>2022-10-23T09:01:13Z</time>
      </trkpt>
      <trkpt lat="41.691275" lon="2.258442">
        <ele>461.085</ele>
        <time>2022-10-23T09:01:14Z</time>
      </trkpt>
      <trkpt lat="41.691243" lon="2.258410">
        <ele>460.241</ele>
        <time>2022-10-23T09:01:15Z</time>
      </trkpt>
      <trkpt lat="41.691220" lon="2.258374">
        <ele>459.671</ele>
        <time>2022-10-23T09:01:16Z</time>
      </trkpt>
      <trkpt lat="41.691206" lon="2.258320">
        <ele>458.824</ele>
        <time>2022-10-23T09:01:17Z</time>
      </trkpt>
      <trkpt lat="41.691191" lon="2.258272">
        <ele>458.256</ele>
        <time>2022-10-23T09:01:18Z</time>
      </trkpt>
      <trkpt lat="41.691177" lon="2.258238">
        <ele>457.859</ele>
        <time>2022-10-23T09:01:19Z</time>
      </trkpt>
      <trkpt lat="41.691163" lon="2.258212">
        <ele>457.214</ele>
        <time>2022-10-23T09:01:20Z</time>
      </trkpt>
      <trkpt lat="41.691143" lon="2.258182">
        <ele>456.209</ele>
        <time>2022-10-23T09:01:21Z</time>
      </trkpt>
      <trkpt lat="41.691122" lon="2.258147">
        <ele>455.236</ele>
        <time>2022-10-23T09:01:22Z</time>
      </trkpt>
      <trkpt lat="41.691113" lon="2.258114">
        <ele>454.416</ele>
        <time>2022-10-23T09:01:23Z</time>
      </trkpt>
      <trkpt lat="41.691107" lon="2.258086">
        <ele>453.672</ele>
        <time>2022-10-23T09:01:24Z</time>
      </trkpt>
      <trkpt lat="41.691100" lon="2.258061">
        <ele>452.675</ele>
        <time>2022-10-23T09:01:25Z</time>
      </trkpt>
      <trkpt lat="41.691087" lon="2.258035">
        <ele>450.651</ele>
        <time>2022-10-23T09:01:26Z</time>
      </trkpt>
      <trkpt lat="41.691071" lon="2.258014">
        <ele>449.849</ele>
        <time>2022-10-23T09:01:27Z</time>
      </trkpt>
      <trkpt lat="41.691049" lon="2.257992">
        <ele>449.435</ele>
        <time>2022-10-23T09:01:28Z</time>
      </trkpt>
      <trkpt lat="41.691024" lon="2.257970">
        <ele>449.215</ele>
        <time>2022-10-23T09:01:29Z</time>
      </trkpt>
      <trkpt lat="41.690992" lon="2.257954">
        <ele>448.428</ele>
        <time>2022-10-23T09:01:30Z</time>
      </trkpt>
      <trkpt lat="41.690959" lon="2.257948">
        <ele>448.014</ele>
        <time>2022-10-23T09:01:31Z</time>
      </trkpt>
      <trkpt lat="41.690922" lon="2.257940">
        <ele>447.654</ele>
        <time>2022-10-23T09:01:32Z</time>
      </trkpt>
      <trkpt lat="41.690883" lon="2.257927">
        <ele>446.809</ele>
        <time>2022-10-23T09:01:33Z</time>
      </trkpt>
      <trkpt lat="41.690848" lon="2.257909">
        <ele>446.009</ele>
        <time>2022-10-23T09:01:34Z</time>
      </trkpt>
      <trkpt lat="41.690818" lon="2.257888">
        <ele>445.262</ele>
        <time>2022-10-23T09:01:35Z</time>
      </trkpt>
      <trkpt lat="41.690782" lon="2.257873">
        <ele>444.412</ele>
        <time>2022-10-23T09:01:36Z</time>
      </trkpt>
      <trkpt lat="41.690751" lon="2.257872">
        <ele>443.858</ele>
        <time>2022-10-23T09:01:37Z</time>
      </trkpt>
      <trkpt lat="41.690713" lon="2.257873">
        <ele>443.271</ele>
        <time>2022-10-23T09:01:38Z</time>
      </trkpt>
      <trkpt lat="41.690676" lon="2.257880">
        <ele>442.837</ele>
        <time>2022-10-23T09:01:39Z</time>
      </trkpt>
      <trkpt lat="41.690648" lon="2.257906">
        <ele>442.295</ele>
        <time>2022-10-23T09:01:40Z</time>
      </trkpt>
      <trkpt lat="41.690636" lon="2.257950">
        <ele>441.411</ele>
        <time>2022-10-23T09:01:41Z</time>
      </trkpt>
      <trkpt lat="41.690634" lon="2.257999">
        <ele>440.621</ele>
        <time>2022-10-23T09:01:42Z</time>
      </trkpt>
      <trkpt lat="41.690640" lon="2.258058">
        <ele>439.884</ele>
        <time>2022-10-23T09:01:43Z</time>
      </trkpt>
      <trkpt lat="41.690645" lon="2.258121">
        <ele>439.213</ele>
        <time>2022-10-23T09:01:44Z</time>
      </trkpt>
      <trkpt lat="41.690643" lon="2.258190">
        <ele>438.443</ele>
        <time>2022-10-23T09:01:45Z</time>
      </trkpt>
      <trkpt lat="41.690632" lon="2.258251">
        <ele>437.207</ele>
        <time>2022-10-23T09:01:46Z</time>
      </trkpt>
      <trkpt lat="41.690612" lon="2.258305">
        <ele>436.209</ele>
        <time>2022-10-23T09:01:47Z</time>
      </trkpt>
      <trkpt lat="41.690582" lon="2.258355">
        <ele>435.462</ele>
        <time>2022-10-23T09:01:48Z</time>
      </trkpt>
      <trkpt lat="41.690549" lon="2.258410">
        <ele>434.872</ele>
        <time>2022-10-23T09:01:49Z</time>
      </trkpt>
      <trkpt lat="41.690522" lon="2.258470">
        <ele>434.078</ele>
        <time>2022-10-23T09:01:50Z</time>
      </trkpt>
      <trkpt lat="41.690500" lon="2.258546">
        <ele>433.291</ele>
        <time>2022-10-23T09:01:51Z</time>
      </trkpt>
      <trkpt lat="41.690471" lon="2.258627">
        <ele>432.847</ele>
        <time>2022-10-23T09:01:52Z</time>
      </trkpt>
      <trkpt lat="41.690441" lon="2.258704">
        <ele>431.875</ele>
        <time>2022-10-23T09:01:53Z</time>
      </trkpt>
      <trkpt lat="41.690402" lon="2.258762">
        <ele>431.891</ele>
        <time>2022-10-23T09:01:54Z</time>
      </trkpt>
      <trkpt lat="41.690357" lon="2.258803">
        <ele>431.691</ele>
        <time>2022-10-23T09:01:55Z</time>
      </trkpt>
      <trkpt lat="41.690305" lon="2.258842">
        <ele>431.634</ele>
        <time>2022-10-23T09:01:56Z</time>
      </trkpt>
      <trkpt lat="41.690259" lon="2.258887">
        <ele>431.433</ele>
        <time>2022-10-23T09:01:57Z</time>
      </trkpt>
      <trkpt lat="41.690225" lon="2.258938">
        <ele>431.023</ele>
        <time>2022-10-23T09:01:58Z</time>
      </trkpt>
      <trkpt lat="41.690190" lon="2.258986">
        <ele>429.815</ele>
        <time>2022-10-23T09:01:59Z</time>
      </trkpt>
      <trkpt lat="41.690164" lon="2.259023">
        <ele>428.809</ele>
        <time>2022-10-23T09:02:00Z</time>
      </trkpt>
      <trkpt lat="41.690150" lon="2.259043">
        <ele>427.864</ele>
        <time>2022-10-23T09:02:01Z</time>
      </trkpt>
      <trkpt lat="41.690147" lon="2.259049">
        <ele>427.034</ele>
        <time>2022-10-23T09:02:02Z</time>
      </trkpt>
      <trkpt lat="41.690146" lon="2.259054">
        <ele>426.220</ele>
        <time>2022-10-23T09:02:03Z</time>
      </trkpt>
      <trkpt lat="41.690089" lon="2.259094">
        <ele>421.033</ele>
        <time>2022-10-23T09:02:24Z</time>
      </trkpt>
      <trkpt lat="41.690072" lon="2.259093">
        <ele>421.029</ele>
        <time>2022-10-23T09:02:25Z</time>
      </trkpt>
      <trkpt lat="41.690061" lon="2.259092">
        <ele>421.077</ele>
        <time>2022-10-23T09:02:26Z</time>
      </trkpt>
      <trkpt lat="41.690059" lon="2.259095">
        <ele>421.053</ele>
        <time>2022-10-23T09:02:27Z</time>
      </trkpt>
      <trkpt lat="41.690057" lon="2.259097">
        <ele>421.083</ele>
        <time>2022-10-23T09:02:28Z</time>
      </trkpt>
      <trkpt lat="41.690082" lon="2.259027">
        <ele>420.086</ele>
        <time>2022-10-23T09:03:57Z</time>
      </trkpt>
      <trkpt lat="41.690063" lon="2.258995">
        <ele>420.024</ele>
        <time>2022-10-23T09:03:58Z</time>
      </trkpt>
      <trkpt lat="41.690039" lon="2.258956">
        <ele>420.004</ele>
        <time>2022-10-23T09:03:59Z</time>
      </trkpt>
      <trkpt lat="41.690017" lon="2.258915">
        <ele>420.014</ele>
        <time>2022-10-23T09:04:00Z</time>
      </trkpt>
      <trkpt lat="41.689997" lon="2.258865">
        <ele>420.009</ele>
        <time>2022-10-23T09:04:01Z</time>
      </trkpt>
      <trkpt lat="41.689974" lon="2.258813">
        <ele>420.013</ele>
        <time>2022-10-23T09:04:02Z</time>
      </trkpt>
      <trkpt lat="41.689950" lon="2.258769">
        <ele>420.013</ele>
        <time>2022-10-23T09:04:03Z</time>
      </trkpt>
      <trkpt lat="41.689918" lon="2.258731">
        <ele>419.879</ele>
        <time>2022-10-23T09:04:04Z</time>
      </trkpt>
      <trkpt lat="41.689886" lon="2.258693">
        <ele>419.672</ele>
        <time>2022-10-23T09:04:05Z</time>
      </trkpt>
      <trkpt lat="41.689847" lon="2.258651">
        <ele>419.078</ele>
        <time>2022-10-23T09:04:06Z</time>
      </trkpt>
      <trkpt lat="41.689811" lon="2.258611">
        <ele>418.226</ele>
        <time>2022-10-23T09:04:07Z</time>
      </trkpt>
      <trkpt lat="41.689791" lon="2.258578">
        <ele>417.252</ele>
        <time>2022-10-23T09:04:08Z</time>
      </trkpt>
      <trkpt lat="41.689777" lon="2.258551">
        <ele>416.212</ele>
        <time>2022-10-23T09:04:09Z</time>
      </trkpt>
      <trkpt lat="41.689756" lon="2.258528">
        <ele>415.235</ele>
        <time>2022-10-23T09:04:10Z</time>
      </trkpt>
      <trkpt lat="41.689728" lon="2.258517">
        <ele>414.289</ele>
        <time>2022-10-23T09:04:11Z</time>
      </trkpt>
      <trkpt lat="41.689691" lon="2.258513">
        <ele>413.406</ele>
        <time>2022-10-23T09:04:12Z</time>
      </trkpt>
      <trkpt lat="41.689642" lon="2.258520">
        <ele>412.626</ele>
        <time>2022-10-23T09:04:13Z</time>
      </trkpt>
      <trkpt lat="41.689586" lon="2.258543">
        <ele>410.809</ele>
        <time>2022-10-23T09:04:14Z</time>
      </trkpt>
      <trkpt lat="41.689534" lon="2.258583">
        <ele>410.259</ele>
        <time>2022-10-23T09:04:15Z</time>
      </trkpt>
      <trkpt lat="41.689490" lon="2.258636">
        <ele>409.249</ele>
        <time>2022-10-23T09:04:16Z</time>
      </trkpt>
      <trkpt lat="41.689470" lon="2.258695">
        <ele>408.295</ele>
        <time>2022-10-23T09:04:17Z</time>
      </trkpt>
      <trkpt lat="41.689476" lon="2.258761">
        <ele>407.638</ele>
        <time>2022-10-23T09:04:18Z</time>
      </trkpt>
      <trkpt lat="41.689496" lon="2.258831">
        <ele>406.844</ele>
        <time>2022-10-23T09:04:19Z</time>
      </trkpt>
      <trkpt lat="41.689515" lon="2.258895">
        <ele>405.882</ele>
        <time>2022-10-23T09:04:20Z</time>
      </trkpt>
      <trkpt lat="41.689543" lon="2.258954">
        <ele>405.028</ele>
        <time>2022-10-23T09:04:21Z</time>
      </trkpt>
      <trkpt lat="41.689571" lon="2.259014">
        <ele>404.068</ele>
        <time>2022-10-23T09:04:22Z</time>
      </trkpt>
      <trkpt lat="41.689596" lon="2.259072">
        <ele>403.261</ele>
        <time>2022-10-23T09:04:23Z</time>
      </trkpt>
      <trkpt lat="41.689615" lon="2.259133">
        <ele>402.626</ele>
        <time>2022-10-23T09:04:24Z</time>
      </trkpt>
      <trkpt lat="41.689631" lon="2.259201">
        <ele>402.247</ele>
        <time>2022-10-23T09:04:25Z</time>
      </trkpt>
      <trkpt lat="41.689642" lon="2.259267">
        <ele>401.811</ele>
        <time>2022-10-23T09:04:26Z</time>
      </trkpt>
      <trkpt lat="41.689644" lon="2.259332">
        <ele>401.409</ele>
        <time>2022-10-23T09:04:27Z</time>
      </trkpt>
      <trkpt lat="41.689632" lon="2.259394">
        <ele>401.273</ele>
        <time>2022-10-23T09:04:28Z</time>
      </trkpt>
      <trkpt lat="41.689615" lon="2.259441">
        <ele>400.853</ele>
        <time>2022-10-23T09:04:29Z</time>
      </trkpt>
      <trkpt lat="41.689595" lon="2.259474">
        <ele>400.419</ele>
        <time>2022-10-23T09:04:30Z</time>
      </trkpt>
      <trkpt lat="41.689576" lon="2.259496">
        <ele>400.052</ele>
        <time>2022-10-23T09:04:31Z</time>
      </trkpt>
      <trkpt lat="41.689562" lon="2.259507">
        <ele>399.888</ele>
        <time>2022-10-23T09:04:32Z</time>
      </trkpt>
      <trkpt lat="41.689556" lon="2.259513">
        <ele>399.456</ele>
        <time>2022-10-23T09:04:33Z</time>
      </trkpt>
      <trkpt lat="41.689553" lon="2.259514">
        <ele>399.062</ele>
        <time>2022-10-23T09:04:34Z</time>
      </trkpt>
      <trkpt lat="41.689553" lon="2.259514">
        <ele>398.412</ele>
        <time>2022-10-23T09:04:35Z</time>
      </trkpt>
      <trkpt lat="41.689463" lon="2.259532">
        <ele>397.045</ele>
        <time>2022-10-23T09:04:42Z</time>
      </trkpt>
      <trkpt lat="41.689431" lon="2.259530">
        <ele>397.038</ele>
        <time>2022-10-23T09:04:43Z</time>
      </trkpt>
      <trkpt lat="41.689398" lon="2.259532">
        <ele>397.070</ele>
        <time>2022-10-23T09:04:44Z</time>
      </trkpt>
      <trkpt lat="41.689363" lon="2.259528">
        <ele>397.017</ele>
        <time>2022-10-23T09:04:45Z</time>
      </trkpt>
      <trkpt lat="41.689323" lon="2.259521">
        <ele>396.809</ele>
        <time>2022-10-23T09:04:46Z</time>
      </trkpt>
      <trkpt lat="41.689285" lon="2.259517">
        <ele>396.814</ele>
        <time>2022-10-23T09:04:47Z</time>
      </trkpt>
      <trkpt lat="41.689254" lon="2.259513">
        <ele>396.894</ele>
        <time>2022-10-23T09:04:48Z</time>
      </trkpt>
      <trkpt lat="41.689233" lon="2.259509">
        <ele>396.650</ele>
        <time>2022-10-23T09:04:49Z</time>
      </trkpt>
      <trkpt lat="41.689222" lon="2.259507">
        <ele>396.273</ele>
        <time>2022-10-23T09:04:50Z</time>
      </trkpt>
      <trkpt lat="41.689217" lon="2.259507">
        <ele>396.089</ele>
        <time>2022-10-23T09:04:51Z</time>
      </trkpt>
      <trkpt lat="41.689216" lon="2.259505">
        <ele>395.647</ele>
        <time>2022-10-23T09:04:52Z</time>
      </trkpt>
      <trkpt lat="41.689295" lon="2.259545">
        <ele>394.643</ele>
        <time>2022-10-23T09:05:04Z</time>
      </trkpt>
      <trkpt lat="41.689335" lon="2.259549">
        <ele>394.663</ele>
        <time>2022-10-23T09:05:05Z</time>
      </trkpt>
      <trkpt lat="41.689374" lon="2.259551">
        <ele>394.666</ele>
        <time>2022-10-23T09:05:06Z</time>
      </trkpt>
      <trkpt lat="41.689403" lon="2.259550">
        <ele>394.625</ele>
        <time>2022-10-23T09:05:07Z</time>
      </trkpt>
      <trkpt lat="41.689431" lon="2.259549">
        <ele>394.626</ele>
        <time>2022-10-23T09:05:08Z</time>
      </trkpt>
      <trkpt lat="41.689457" lon="2.259547">
        <ele>394.608</ele>
        <time>2022-10-23T09:05:09Z</time>
      </trkpt>
      <trkpt lat="41.689476" lon="2.259540">
        <ele>394.609</ele>
        <time>2022-10-23T09:05:10Z</time>
      </trkpt>
      <trkpt lat="41.689490" lon="2.259549">
        <ele>394.893</ele>
        <time>2022-10-23T09:05:11Z</time>
      </trkpt>
      <trkpt lat="41.689492" lon="2.259564">
        <ele>395.073</ele>
        <time>2022-10-23T09:05:12Z</time>
      </trkpt>
      <trkpt lat="41.689486" lon="2.259579">
        <ele>395.229</ele>
        <time>2022-10-23T09:05:13Z</time>
      </trkpt>
      <trkpt lat="41.689475" lon="2.259598">
        <ele>395.452</ele>
        <time>2022-10-23T09:05:14Z</time>
      </trkpt>
      <trkpt lat="41.689460" lon="2.259619">
        <ele>395.658</ele>
        <time>2022-10-23T09:05:15Z</time>
      </trkpt>
      <trkpt lat="41.689442" lon="2.259637">
        <ele>396.046</ele>
        <time>2022-10-23T09:05:16Z</time>
      </trkpt>
      <trkpt lat="41.689425" lon="2.259656">
        <ele>396.212</ele>
        <time>2022-10-23T09:05:17Z</time>
      </trkpt>
      <trkpt lat="41.689409" lon="2.259674">
        <ele>396.692</ele>
        <time>2022-10-23T09:05:18Z</time>
      </trkpt>
      <trkpt lat="41.689394" lon="2.259692">
        <ele>396.885</ele>
        <time>2022-10-23T09:05:19Z</time>
      </trkpt>
      <trkpt lat="41.689376" lon="2.259713">
        <ele>397.216</ele>
        <time>2022-10-23T09:05:20Z</time>
      </trkpt>
      <trkpt lat="41.689356" lon="2.259739">
        <ele>397.476</ele>
        <time>2022-10-23T09:05:21Z</time>
      </trkpt>
      <trkpt lat="41.689338" lon="2.259762">
        <ele>397.613</ele>
        <time>2022-10-23T09:05:22Z</time>
      </trkpt>
      <trkpt lat="41.689318" lon="2.259782">
        <ele>397.809</ele>
        <time>2022-10-23T09:05:23Z</time>
      </trkpt>
      <trkpt lat="41.689300" lon="2.259800">
        <ele>398.052</ele>
        <time>2022-10-23T09:05:24Z</time>
      </trkpt>
      <trkpt lat="41.689285" lon="2.259819">
        <ele>398.412</ele>
        <time>2022-10-23T09:05:25Z</time>
      </trkpt>
      <trkpt lat="41.689275" lon="2.259838">
        <ele>398.818</ele>
        <time>2022-10-23T09:05:26Z</time>
      </trkpt>
      <trkpt lat="41.689261" lon="2.259857">
        <ele>399.031</ele>
        <time>2022-10-23T09:05:27Z</time>
      </trkpt>
      <trkpt lat="41.689244" lon="2.259877">
        <ele>399.457</ele>
        <time>2022-10-23T09:05:28Z</time>
      </trkpt>
      <trkpt lat="41.689223" lon="2.259897">
        <ele>399.655</ele>
        <time>2022-10-23T09:05:29Z</time>
      </trkpt>
      <trkpt lat="41.689204" lon="2.259918">
        <ele>399.891</ele>
        <time>2022-10-23T09:05:30Z</time>
      </trkpt>
      <trkpt lat="41.689188" lon="2.259935">
        <ele>400.291</ele>
        <time>2022-10-23T09:05:31Z</time>
      </trkpt>
      <trkpt lat="41.689171" lon="2.259951">
        <ele>400.484</ele>
        <time>2022-10-23T09:05:32Z</time>
      </trkpt>
      <trkpt lat="41.689152" lon="2.259969">
        <ele>400.622</ele>
        <time>2022-10-23T09:05:33Z</time>
      </trkpt>
      <trkpt lat="41.689136" lon="2.259987">
        <ele>400.862</ele>
        <time>2022-10-23T09:05:34Z</time>
      </trkpt>
      <trkpt lat="41.689119" lon="2.260008">
        <ele>401.208</ele>
        <time>2022-10-23T09:05:35Z</time>
      </trkpt>
      <trkpt lat="41.689104" lon="2.260026">
        <ele>401.409</ele>
        <time>2022-10-23T09:05:36Z</time>
      </trkpt>
      <trkpt lat="41.689087" lon="2.260048">
        <ele>401.453</ele>
        <time>2022-10-23T09:05:37Z</time>
      </trkpt>
      <trkpt lat="41.689071" lon="2.260070">
        <ele>402.093</ele>
        <time>2022-10-23T09:05:38Z</time>
      </trkpt>
      <trkpt lat="41.689052" lon="2.260091">
        <ele>402.299</ele>
        <time>2022-10-23T09:05:39Z</time>
      </trkpt>
      <trkpt lat="41.689023" lon="2.260114">
        <ele>402.482</ele>
        <time>2022-10-23T09:05:40Z</time>
      </trkpt>
      <trkpt lat="41.688993" lon="2.260136">
        <ele>402.668</ele>
        <time>2022-10-23T09:05:41Z</time>
      </trkpt>
      <trkpt lat="41.688960" lon="2.260151">
        <ele>403.236</ele>
        <time>2022-10-23T09:05:42Z</time>
      </trkpt>
      <trkpt lat="41.688925" lon="2.260169">
        <ele>403.692</ele>
        <time>2022-10-23T09:05:43Z</time>
      </trkpt>
      <trkpt lat="41.688893" lon="2.260184">
        <ele>404.092</ele>
        <time>2022-10-23T09:05:44Z</time>
      </trkpt>
      <trkpt lat="41.688859" lon="2.260196">
        <ele>404.255</ele>
        <time>2022-10-23T09:05:45Z</time>
      </trkpt>
      <trkpt lat="41.688831" lon="2.260210">
        <ele>404.288</ele>
        <time>2022-10-23T09:05:46Z</time>
      </trkpt>
      <trkpt lat="41.688800" lon="2.260225">
        <ele>404.424</ele>
        <time>2022-10-23T09:05:47Z</time>
      </trkpt>
      <trkpt lat="41.688770" lon="2.260237">
        <ele>404.626</ele>
        <time>2022-10-23T09:05:48Z</time>
      </trkpt>
      <trkpt lat="41.688743" lon="2.260249">
        <ele>404.809</ele>
        <time>2022-10-23T09:05:49Z</time>
      </trkpt>
      <trkpt lat="41.688717" lon="2.260267">
        <ele>405.089</ele>
        <time>2022-10-23T09:05:50Z</time>
      </trkpt>
      <trkpt lat="41.688697" lon="2.260292">
        <ele>405.299</ele>
        <time>2022-10-23T09:05:51Z</time>
      </trkpt>
      <trkpt lat="41.688683" lon="2.260329">
        <ele>405.465</ele>
        <time>2022-10-23T09:05:52Z</time>
      </trkpt>
      <trkpt lat="41.688670" lon="2.260369">
        <ele>405.468</ele>
        <time>2022-10-23T09:05:53Z</time>
      </trkpt>
      <trkpt lat="41.688661" lon="2.260414">
        <ele>405.664</ele>
        <time>2022-10-23T09:05:54Z</time>
      </trkpt>
      <trkpt lat="41.688652" lon="2.260461">
        <ele>405.862</ele>
        <time>2022-10-23T09:05:55Z</time>
      </trkpt>
      <trkpt lat="41.688643" lon="2.260507">
        <ele>406.018</ele>
        <time>2022-10-23T09:05:56Z</time>
      </trkpt>
      <trkpt lat="41.688635" lon="2.260551">
        <ele>406.238</ele>
        <time>2022-10-23T09:05:57Z</time>
      </trkpt>
      <trkpt lat="41.688627" lon="2.260594">
        <ele>406.691</ele>
        <time>2022-10-23T09:05:58Z</time>
      </trkpt>
      <trkpt lat="41.688618" lon="2.260641">
        <ele>407.094</ele>
        <time>2022-10-23T09:05:59Z</time>
      </trkpt>
      <trkpt lat="41.688609" lon="2.260680">
        <ele>407.257</ele>
        <time>2022-10-23T09:06:00Z</time>
      </trkpt>
      <trkpt lat="41.688606" lon="2.260720">
        <ele>407.422</ele>
        <time>2022-10-23T09:06:01Z</time>
      </trkpt>
      <trkpt lat="41.688602" lon="2.260758">
        <ele>407.409</ele>
        <time>2022-10-23T09:06:02Z</time>
      </trkpt>
      <trkpt lat="41.688599" lon="2.260794">
        <ele>407.610</ele>
        <time>2022-10-23T09:06:03Z</time>
      </trkpt>
      <trkpt lat="41.688598" lon="2.260831">
        <ele>408.060</ele>
        <time>2022-10-23T09:06:04Z</time>
      </trkpt>
      <trkpt lat="41.688603" lon="2.260876">
        <ele>408.276</ele>
        <time>2022-10-23T09:06:05Z</time>
      </trkpt>
      <trkpt lat="41.688612" lon="2.260928">
        <ele>408.629</ele>
        <time>2022-10-23T09:06:06Z</time>
      </trkpt>
      <trkpt lat="41.688627" lon="2.260983">
        <ele>409.095</ele>
        <time>2022-10-23T09:06:07Z</time>
      </trkpt>
      <trkpt lat="41.688646" lon="2.261037">
        <ele>409.073</ele>
        <time>2022-10-23T09:06:08Z</time>
      </trkpt>
      <trkpt lat="41.688669" lon="2.261096">
        <ele>409.299</ele>
        <time>2022-10-23T09:06:09Z</time>
      </trkpt>
      <trkpt lat="41.688694" lon="2.261157">
        <ele>409.279</ele>
        <time>2022-10-23T09:06:10Z</time>
      </trkpt>
      <trkpt lat="41.688721" lon="2.261213">
        <ele>409.212</ele>
        <time>2022-10-23T09:06:11Z</time>
      </trkpt>
      <trkpt lat="41.688748" lon="2.261269">
        <ele>409.239</ele>
        <time>2022-10-23T09:06:12Z</time>
      </trkpt>
      <trkpt lat="41.688774" lon="2.261325">
        <ele>409.201</ele>
        <time>2022-10-23T09:06:13Z</time>
      </trkpt>
      <trkpt lat="41.688803" lon="2.261378">
        <ele>409.221</ele>
        <time>2022-10-23T09:06:14Z</time>
      </trkpt>
      <trkpt lat="41.688833" lon="2.261425">
        <ele>409.209</ele>
        <time>2022-10-23T09:06:15Z</time>
      </trkpt>
      <trkpt lat="41.688862" lon="2.261467">
        <ele>409.464</ele>
        <time>2022-10-23T09:06:16Z</time>
      </trkpt>
      <trkpt lat="41.688891" lon="2.261502">
        <ele>409.634</ele>
        <time>2022-10-23T09:06:17Z</time>
      </trkpt>
      <trkpt lat="41.688919" lon="2.261532">
        <ele>409.660</ele>
        <time>2022-10-23T09:06:18Z</time>
      </trkpt>
      <trkpt lat="41.688948" lon="2.261563">
        <ele>409.663</ele>
        <time>2022-10-23T09:06:19Z</time>
      </trkpt>
      <trkpt lat="41.688979" lon="2.261589">
        <ele>409.629</ele>
        <time>2022-10-23T09:06:20Z</time>
      </trkpt>
      <trkpt lat="41.689010" lon="2.261612">
        <ele>409.657</ele>
        <time>2022-10-23T09:06:21Z</time>
      </trkpt>
      <trkpt lat="41.689041" lon="2.261636">
        <ele>409.673</ele>
        <time>2022-10-23T09:06:22Z</time>
      </trkpt>
      <trkpt lat="41.689070" lon="2.261661">
        <ele>409.693</ele>
        <time>2022-10-23T09:06:23Z</time>
      </trkpt>
      <trkpt lat="41.689100" lon="2.261686">
        <ele>409.616</ele>
        <time>2022-10-23T09:06:24Z</time>
      </trkpt>
      <trkpt lat="41.689128" lon="2.261708">
        <ele>409.864</ele>
        <time>2022-10-23T09:06:25Z</time>
      </trkpt>
      <trkpt lat="41.689158" lon="2.261731">
        <ele>410.206</ele>
        <time>2022-10-23T09:06:26Z</time>
      </trkpt>
      <trkpt lat="41.689187" lon="2.261755">
        <ele>410.616</ele>
        <time>2022-10-23T09:06:27Z</time>
      </trkpt>
      <trkpt lat="41.689220" lon="2.261781">
        <ele>410.809</ele>
        <time>2022-10-23T09:06:28Z</time>
      </trkpt>
      <trkpt lat="41.689256" lon="2.261809">
        <ele>411.017</ele>
        <time>2022-10-23T09:06:29Z</time>
      </trkpt>
      <trkpt lat="41.689294" lon="2.261841">
        <ele>411.047</ele>
        <time>2022-10-23T09:06:30Z</time>
      </trkpt>
      <trkpt lat="41.689335" lon="2.261874">
        <ele>411.083</ele>
        <time>2022-10-23T09:06:31Z</time>
      </trkpt>
      <trkpt lat="41.689377" lon="2.261920">
        <ele>411.026</ele>
        <time>2022-10-23T09:06:32Z</time>
      </trkpt>
      <trkpt lat="41.689419" lon="2.261982">
        <ele>411.252</ele>
        <time>2022-10-23T09:06:33Z</time>
      </trkpt>
      <trkpt lat="41.689458" lon="2.262048">
        <ele>411.240</ele>
        <time>2022-10-23T09:06:34Z</time>
      </trkpt>
      <trkpt lat="41.689498" lon="2.262116">
        <ele>411.276</ele>
        <time>2022-10-23T09:06:35Z</time>
      </trkpt>
      <trkpt lat="41.689535" lon="2.262182">
        <ele>411.256</ele>
        <time>2022-10-23T09:06:36Z</time>
      </trkpt>
      <trkpt lat="41.689572" lon="2.262243">
        <ele>411.269</ele>
        <time>2022-10-23T09:06:37Z</time>
      </trkpt>
      <trkpt lat="41.689599" lon="2.262302">
        <ele>410.679</ele>
        <time>2022-10-23T09:06:38Z</time>
      </trkpt>
      <trkpt lat="41.689603" lon="2.262365">
        <ele>410.405</ele>
        <time>2022-10-23T09:06:39Z</time>
      </trkpt>
      <trkpt lat="41.689590" lon="2.262428">
        <ele>409.825</ele>
        <time>2022-10-23T09:06:40Z</time>
      </trkpt>
      <trkpt lat="41.689569" lon="2.262479">
        <ele>409.209</ele>
        <time>2022-10-23T09:06:41Z</time>
      </trkpt>
      <trkpt lat="41.689546" lon="2.262526">
        <ele>408.488</ele>
        <time>2022-10-23T09:06:42Z</time>
      </trkpt>
      <trkpt lat="41.689527" lon="2.262566">
        <ele>408.028</ele>
        <time>2022-10-23T09:06:43Z</time>
      </trkpt>
      <trkpt lat="41.689514" lon="2.262610">
        <ele>407.854</ele>
        <time>2022-10-23T09:06:44Z</time>
      </trkpt>
      <trkpt lat="41.689499" lon="2.262657">
        <ele>407.687</ele>
        <time>2022-10-23T09:06:45Z</time>
      </trkpt>
      <trkpt lat="41.689482" lon="2.262704">
        <ele>407.623</ele>
        <time>2022-10-23T09:06:46Z</time>
      </trkpt>
      <trkpt lat="41.689463" lon="2.262745">
        <ele>407.411</ele>
        <time>2022-10-23T09:06:47Z</time>
      </trkpt>
      <trkpt lat="41.689440" lon="2.262780">
        <ele>407.447</ele>
        <time>2022-10-23T09:06:48Z</time>
      </trkpt>
      <trkpt lat="41.689414" lon="2.262810">
        <ele>407.487</ele>
        <time>2022-10-23T09:06:49Z</time>
      </trkpt>
      <trkpt lat="41.689388" lon="2.262837">
        <ele>407.470</ele>
        <time>2022-10-23T09:06:50Z</time>
      </trkpt>
      <trkpt lat="41.689363" lon="2.262862">
        <ele>407.416</ele>
        <time>2022-10-23T09:06:51Z</time>
      </trkpt>
      <trkpt lat="41.689334" lon="2.262885">
        <ele>407.476</ele>
        <time>2022-10-23T09:06:52Z</time>
      </trkpt>
      <trkpt lat="41.689307" lon="2.262912">
        <ele>407.413</ele>
        <time>2022-10-23T09:06:53Z</time>
      </trkpt>
      <trkpt lat="41.689284" lon="2.262938">
        <ele>407.409</ele>
        <time>2022-10-23T09:06:54Z</time>
      </trkpt>
      <trkpt lat="41.689266" lon="2.262970">
        <ele>407.682</ele>
        <time>2022-10-23T09:06:55Z</time>
      </trkpt>
      <trkpt lat="41.689248" lon="2.263004">
        <ele>407.822</ele>
        <time>2022-10-23T09:06:56Z</time>
      </trkpt>
      <trkpt lat="41.689233" lon="2.263041">
        <ele>408.258</ele>
        <time>2022-10-23T09:06:57Z</time>
      </trkpt>
      <trkpt lat="41.689219" lon="2.263082">
        <ele>408.431</ele>
        <time>2022-10-23T09:06:58Z</time>
      </trkpt>
      <trkpt lat="41.689207" lon="2.263122">
        <ele>408.877</ele>
        <time>2022-10-23T09:06:59Z</time>
      </trkpt>
      <trkpt lat="41.689192" lon="2.263155">
        <ele>409.285</ele>
        <time>2022-10-23T09:07:00Z</time>
      </trkpt>
      <trkpt lat="41.689174" lon="2.263185">
        <ele>409.661</ele>
        <time>2022-10-23T09:07:01Z</time>
      </trkpt>
      <trkpt lat="41.689152" lon="2.263208">
        <ele>409.841</ele>
        <time>2022-10-23T09:07:02Z</time>
      </trkpt>
      <trkpt lat="41.689129" lon="2.263224">
        <ele>410.064</ele>
        <time>2022-10-23T09:07:03Z</time>
      </trkpt>
      <trkpt lat="41.689106" lon="2.263243">
        <ele>410.266</ele>
        <time>2022-10-23T09:07:04Z</time>
      </trkpt>
      <trkpt lat="41.689082" lon="2.263260">
        <ele>410.429</ele>
        <time>2022-10-23T09:07:05Z</time>
      </trkpt>
      <trkpt lat="41.689052" lon="2.263271">
        <ele>410.621</ele>
        <time>2022-10-23T09:07:06Z</time>
      </trkpt>
      <trkpt lat="41.689015" lon="2.263285">
        <ele>410.809</ele>
        <time>2022-10-23T09:07:07Z</time>
      </trkpt>
      <trkpt lat="41.688977" lon="2.263301">
        <ele>411.027</ele>
        <time>2022-10-23T09:07:08Z</time>
      </trkpt>
      <trkpt lat="41.688935" lon="2.263320">
        <ele>411.227</ele>
        <time>2022-10-23T09:07:09Z</time>
      </trkpt>
      <trkpt lat="41.688888" lon="2.263352">
        <ele>411.263</ele>
        <time>2022-10-23T09:07:10Z</time>
      </trkpt>
      <trkpt lat="41.688832" lon="2.263394">
        <ele>411.246</ele>
        <time>2022-10-23T09:07:11Z</time>
      </trkpt>
      <trkpt lat="41.688771" lon="2.263413">
        <ele>411.222</ele>
        <time>2022-10-23T09:07:12Z</time>
      </trkpt>
      <trkpt lat="41.688709" lon="2.263417">
        <ele>411.220</ele>
        <time>2022-10-23T09:07:13Z</time>
      </trkpt>
      <trkpt lat="41.688652" lon="2.263407">
        <ele>411.226</ele>
        <time>2022-10-23T09:07:14Z</time>
      </trkpt>
      <trkpt lat="41.688603" lon="2.263392">
        <ele>411.286</ele>
        <time>2022-10-23T09:07:15Z</time>
      </trkpt>
      <trkpt lat="41.688560" lon="2.263377">
        <ele>411.219</ele>
        <time>2022-10-23T09:07:16Z</time>
      </trkpt>
      <trkpt lat="41.688518" lon="2.263362">
        <ele>411.233</ele>
        <time>2022-10-23T09:07:17Z</time>
      </trkpt>
      <trkpt lat="41.688478" lon="2.263351">
        <ele>410.823</ele>
        <time>2022-10-23T09:07:18Z</time>
      </trkpt>
      <trkpt lat="41.688441" lon="2.263342">
        <ele>410.615</ele>
        <time>2022-10-23T09:07:19Z</time>
      </trkpt>
      <trkpt lat="41.688406" lon="2.263336">
        <ele>410.209</ele>
        <time>2022-10-23T09:07:20Z</time>
      </trkpt>
      <trkpt lat="41.688372" lon="2.263332">
        <ele>410.044</ele>
        <time>2022-10-23T09:07:21Z</time>
      </trkpt>
      <trkpt lat="41.688340" lon="2.263330">
        <ele>409.834</ele>
        <time>2022-10-23T09:07:22Z</time>
      </trkpt>
      <trkpt lat="41.688305" lon="2.263329">
        <ele>409.820</ele>
        <time>2022-10-23T09:07:23Z</time>
      </trkpt>
      <trkpt lat="41.688274" lon="2.263328">
        <ele>409.853</ele>
        <time>2022-10-23T09:07:24Z</time>
      </trkpt>
      <trkpt lat="41.688245" lon="2.263333">
        <ele>409.849</ele>
        <time>2022-10-23T09:07:25Z</time>
      </trkpt>
      <trkpt lat="41.688213" lon="2.263347">
        <ele>409.897</ele>
        <time>2022-10-23T09:07:26Z</time>
      </trkpt>
      <trkpt lat="41.688184" lon="2.263370">
        <ele>409.833</ele>
        <time>2022-10-23T09:07:27Z</time>
      </trkpt>
      <trkpt lat="41.688159" lon="2.263393">
        <ele>410.083</ele>
        <time>2022-10-23T09:07:28Z</time>
      </trkpt>
      <trkpt lat="41.688137" lon="2.263416">
        <ele>410.226</ele>
        <time>2022-10-23T09:07:29Z</time>
      </trkpt>
      <trkpt lat="41.688115" lon="2.263449">
        <ele>410.674</ele>
        <time>2022-10-23T09:07:30Z</time>
      </trkpt>
      <trkpt lat="41.688093" lon="2.263483">
        <ele>410.856</ele>
        <time>2022-10-23T09:07:31Z</time>
      </trkpt>
      <trkpt lat="41.688074" lon="2.263518">
        <ele>411.221</ele>
        <time>2022-10-23T09:07:32Z</time>
      </trkpt>
      <trkpt lat="41.688056" lon="2.263555">
        <ele>411.609</ele>
        <time>2022-10-23T09:07:33Z</time>
      </trkpt>
      <trkpt lat="41.688043" lon="2.263589">
        <ele>411.848</ele>
        <time>2022-10-23T09:07:34Z</time>
      </trkpt>
      <trkpt lat="41.688032" lon="2.263624">
        <ele>412.468</ele>
        <time>2022-10-23T09:07:35Z</time>
      </trkpt>
      <trkpt lat="41.688026" lon="2.263661">
        <ele>412.614</ele>
        <time>2022-10-23T09:07:36Z</time>
      </trkpt>
      <trkpt lat="41.688027" lon="2.263699">
        <ele>412.817</ele>
        <time>2022-10-23T09:07:37Z</time>
      </trkpt>
      <trkpt lat="41.688032" lon="2.263738">
        <ele>413.043</ele>
        <time>2022-10-23T09:07:38Z</time>
      </trkpt>
      <trkpt lat="41.688042" lon="2.263777">
        <ele>413.061</ele>
        <time>2022-10-23T09:07:39Z</time>
      </trkpt>
      <trkpt lat="41.688056" lon="2.263815">
        <ele>413.267</ele>
        <time>2022-10-23T09:07:40Z</time>
      </trkpt>
      <trkpt lat="41.688070" lon="2.263854">
        <ele>413.467</ele>
        <time>2022-10-23T09:07:41Z</time>
      </trkpt>
      <trkpt lat="41.688082" lon="2.263889">
        <ele>413.670</ele>
        <time>2022-10-23T09:07:42Z</time>
      </trkpt>
      <trkpt lat="41.688092" lon="2.263922">
        <ele>413.891</ele>
        <time>2022-10-23T09:07:43Z</time>
      </trkpt>
      <trkpt lat="41.688095" lon="2.263954">
        <ele>413.881</ele>
        <time>2022-10-23T09:07:44Z</time>
      </trkpt>
      <trkpt lat="41.688092" lon="2.263988">
        <ele>414.019</ele>
        <time>2022-10-23T09:07:45Z</time>
      </trkpt>
      <trkpt lat="41.688085" lon="2.264026">
        <ele>414.209</ele>
        <time>2022-10-23T09:07:46Z</time>
      </trkpt>
      <trkpt lat="41.688072" lon="2.264066">
        <ele>414.450</ele>
        <time>2022-10-23T09:07:47Z</time>
      </trkpt>
      <trkpt lat="41.688056" lon="2.264108">
        <ele>414.830</ele>
        <time>2022-10-23T09:07:48Z</time>
      </trkpt>
      <trkpt lat="41.688037" lon="2.264144">
        <ele>415.216</ele>
        <time>2022-10-23T09:07:49Z</time>
      </trkpt>
      <trkpt lat="41.688013" lon="2.264174">
        <ele>415.479</ele>
        <time>2022-10-23T09:07:50Z</time>
      </trkpt>
      <trkpt lat="41.687987" lon="2.264200">
        <ele>415.655</ele>
        <time>2022-10-23T09:07:51Z</time>
      </trkpt>
      <trkpt lat="41.687962" lon="2.264229">
        <ele>415.813</ele>
        <time>2022-10-23T09:07:52Z</time>
      </trkpt>
      <trkpt lat="41.687935" lon="2.264258">
        <ele>415.899</ele>
        <time>2022-10-23T09:07:53Z</time>
      </trkpt>
      <trkpt lat="41.687909" lon="2.264288">
        <ele>416.049</ele>
        <time>2022-10-23T09:07:54Z</time>
      </trkpt>
      <trkpt lat="41.687884" lon="2.264317">
        <ele>416.032</ele>
        <time>2022-10-23T09:07:55Z</time>
      </trkpt>
      <trkpt lat="41.687858" lon="2.264344">
        <ele>416.075</ele>
        <time>2022-10-23T09:07:56Z</time>
      </trkpt>
      <trkpt lat="41.687834" lon="2.264368">
        <ele>416.228</ele>
        <time>2022-10-23T09:07:57Z</time>
      </trkpt>
      <trkpt lat="41.687808" lon="2.264392">
        <ele>416.220</ele>
        <time>2022-10-23T09:07:58Z</time>
      </trkpt>
      <trkpt lat="41.687780" lon="2.264415">
        <ele>416.409</ele>
        <time>2022-10-23T09:07:59Z</time>
      </trkpt>
      <trkpt lat="41.687753" lon="2.264437">
        <ele>416.498</ele>
        <time>2022-10-23T09:08:00Z</time>
      </trkpt>
      <trkpt lat="41.687730" lon="2.264459">
        <ele>416.618</ele>
        <time>2022-10-23T09:08:01Z</time>
      </trkpt>
      <trkpt lat="41.687710" lon="2.264480">
        <ele>416.654</ele>
        <time>2022-10-23T09:08:02Z</time>
      </trkpt>
      <trkpt lat="41.687692" lon="2.264502">
        <ele>416.897</ele>
        <time>2022-10-23T09:08:03Z</time>
      </trkpt>
      <trkpt lat="41.687669" lon="2.264524">
        <ele>417.273</ele>
        <time>2022-10-23T09:08:04Z</time>
      </trkpt>
      <trkpt lat="41.687644" lon="2.264546">
        <ele>417.441</ele>
        <time>2022-10-23T09:08:05Z</time>
      </trkpt>
      <trkpt lat="41.687622" lon="2.264569">
        <ele>417.617</ele>
        <time>2022-10-23T09:08:06Z</time>
      </trkpt>
      <trkpt lat="41.687599" lon="2.264594">
        <ele>418.077</ele>
        <time>2022-10-23T09:08:07Z</time>
      </trkpt>
      <trkpt lat="41.687572" lon="2.264617">
        <ele>418.410</ele>
        <time>2022-10-23T09:08:08Z</time>
      </trkpt>
      <trkpt lat="41.687546" lon="2.264640">
        <ele>419.013</ele>
        <time>2022-10-23T09:08:09Z</time>
      </trkpt>
      <trkpt lat="41.687524" lon="2.264664">
        <ele>419.443</ele>
        <time>2022-10-23T09:08:10Z</time>
      </trkpt>
      <trkpt lat="41.687502" lon="2.264688">
        <ele>419.807</ele>
        <time>2022-10-23T09:08:11Z</time>
      </trkpt>
      <trkpt lat="41.687477" lon="2.264712">
        <ele>420.009</ele>
        <time>2022-10-23T09:08:12Z</time>
      </trkpt>
      <trkpt lat="41.687453" lon="2.264731">
        <ele>420.222</ele>
        <time>2022-10-23T09:08:13Z</time>
      </trkpt>
      <trkpt lat="41.687431" lon="2.264751">
        <ele>420.422</ele>
        <time>2022-10-23T09:08:14Z</time>
      </trkpt>
      <trkpt lat="41.687410" lon="2.264774">
        <ele>420.648</ele>
        <time>2022-10-23T09:08:15Z</time>
      </trkpt>
      <trkpt lat="41.687389" lon="2.264799">
        <ele>420.651</ele>
        <time>2022-10-23T09:08:16Z</time>
      </trkpt>
      <trkpt lat="41.687368" lon="2.264821">
        <ele>420.897</ele>
        <time>2022-10-23T09:08:17Z</time>
      </trkpt>
      <trkpt lat="41.687346" lon="2.264842">
        <ele>421.085</ele>
        <time>2022-10-23T09:08:18Z</time>
      </trkpt>
      <trkpt lat="41.687326" lon="2.264864">
        <ele>421.091</ele>
        <time>2022-10-23T09:08:19Z</time>
      </trkpt>
      <trkpt lat="41.687307" lon="2.264885">
        <ele>421.271</ele>
        <time>2022-10-23T09:08:20Z</time>
      </trkpt>
      <trkpt lat="41.687284" lon="2.264907">
        <ele>421.634</ele>
        <time>2022-10-23T09:08:21Z</time>
      </trkpt>
      <trkpt lat="41.687260" lon="2.264932">
        <ele>421.834</ele>
        <time>2022-10-23T09:08:22Z</time>
      </trkpt>
      <trkpt lat="41.687236" lon="2.264960">
        <ele>422.055</ele>
        <time>2022-10-23T09:08:23Z</time>
      </trkpt>
      <trkpt lat="41.687211" lon="2.264989">
        <ele>422.210</ele>
        <time>2022-10-23T09:08:24Z</time>
      </trkpt>
      <trkpt lat="41.687184" lon="2.265020">
        <ele>422.209</ele>
        <time>2022-10-23T09:08:25Z</time>
      </trkpt>
      <trkpt lat="41.687156" lon="2.265055">
        <ele>422.274</ele>
        <time>2022-10-23T09:08:26Z</time>
      </trkpt>
      <trkpt lat="41.687126" lon="2.265092">
        <ele>422.254</ele>
        <time>2022-10-23T09:08:27Z</time>
      </trkpt>
      <trkpt lat="41.687097" lon="2.265134">
        <ele>422.290</ele>
        <time>2022-10-23T09:08:28Z</time>
      </trkpt>
      <trkpt lat="41.687074" lon="2.265181">
        <ele>422.273</ele>
        <time>2022-10-23T09:08:29Z</time>
      </trkpt>
      <trkpt lat="41.687051" lon="2.265225">
        <ele>422.249</ele>
        <time>2022-10-23T09:08:30Z</time>
      </trkpt>
      <trkpt lat="41.687029" lon="2.265272">
        <ele>422.267</ele>
        <time>2022-10-23T09:08:31Z</time>
      </trkpt>
      <trkpt lat="41.687008" lon="2.265325">
        <ele>422.293</ele>
        <time>2022-10-23T09:08:32Z</time>
      </trkpt>
      <trkpt lat="41.686990" lon="2.265384">
        <ele>422.243</ele>
        <time>2022-10-23T09:08:33Z</time>
      </trkpt>
      <trkpt lat="41.686972" lon="2.265442">
        <ele>422.286</ele>
        <time>2022-10-23T09:08:34Z</time>
      </trkpt>
      <trkpt lat="41.686956" lon="2.265497">
        <ele>422.083</ele>
        <time>2022-10-23T09:08:35Z</time>
      </trkpt>
      <trkpt lat="41.686941" lon="2.265551">
        <ele>421.825</ele>
        <time>2022-10-23T09:08:36Z</time>
      </trkpt>
      <trkpt lat="41.686930" lon="2.265602">
        <ele>421.617</ele>
        <time>2022-10-23T09:08:37Z</time>
      </trkpt>
      <trkpt lat="41.686922" lon="2.265647">
        <ele>421.609</ele>
        <time>2022-10-23T09:08:38Z</time>
      </trkpt>
      <trkpt lat="41.686924" lon="2.265687">
        <ele>421.479</ele>
        <time>2022-10-23T09:08:39Z</time>
      </trkpt>
      <trkpt lat="41.686928" lon="2.265721">
        <ele>421.049</ele>
        <time>2022-10-23T09:08:40Z</time>
      </trkpt>
      <trkpt lat="41.686931" lon="2.265741">
        <ele>420.625</ele>
        <time>2022-10-23T09:08:41Z</time>
      </trkpt>
      <trkpt lat="41.686936" lon="2.265751">
        <ele>420.488</ele>
        <time>2022-10-23T09:08:42Z</time>
      </trkpt>
      <trkpt lat="41.686941" lon="2.265758">
        <ele>420.044</ele>
        <time>2022-10-23T09:08:43Z</time>
      </trkpt>
      <trkpt lat="41.686944" lon="2.265760">
        <ele>419.882</ele>
        <time>2022-10-23T09:08:44Z</time>
      </trkpt>
      <trkpt lat="41.686945" lon="2.265762">
        <ele>419.468</ele>
        <time>2022-10-23T09:08:45Z</time>
      </trkpt>
      <trkpt lat="41.686940" lon="2.265761">
        <ele>419.278</ele>
        <time>2022-10-23T09:08:46Z</time>
      </trkpt>
      <trkpt lat="41.686968" lon="2.265761">
        <ele>418.481</ele>
        <time>2022-10-23T09:08:52Z</time>
      </trkpt>
      <trkpt lat="41.686983" lon="2.265755">
        <ele>418.448</ele>
        <time>2022-10-23T09:08:53Z</time>
      </trkpt>
      <trkpt lat="41.686998" lon="2.265753">
        <ele>418.461</ele>
        <time>2022-10-23T09:08:54Z</time>
      </trkpt>
      <trkpt lat="41.687014" lon="2.265755">
        <ele>418.417</ele>
        <time>2022-10-23T09:08:55Z</time>
      </trkpt>
      <trkpt lat="41.687028" lon="2.265761">
        <ele>418.409</ele>
        <time>2022-10-23T09:08:56Z</time>
      </trkpt>
      <trkpt lat="41.687041" lon="2.265771">
        <ele>418.435</ele>
        <time>2022-10-23T09:08:57Z</time>
      </trkpt>
      <trkpt lat="41.687057" lon="2.265780">
        <ele>418.425</ele>
        <time>2022-10-23T09:08:58Z</time>
      </trkpt>
      <trkpt lat="41.687075" lon="2.265790">
        <ele>418.411</ele>
        <time>2022-10-23T09:08:59Z</time>
      </trkpt>
      <trkpt lat="41.687093" lon="2.265799">
        <ele>418.444</ele>
        <time>2022-10-23T09:09:00Z</time>
      </trkpt>
      <trkpt lat="41.687111" lon="2.265807">
        <ele>418.430</ele>
        <time>2022-10-23T09:09:01Z</time>
      </trkpt>
      <trkpt lat="41.687128" lon="2.265817">
        <ele>418.498</ele>
        <time>2022-10-23T09:09:02Z</time>
      </trkpt>
      <trkpt lat="41.687145" lon="2.265824">
        <ele>418.464</ele>
        <time>2022-10-23T09:09:03Z</time>
      </trkpt>
      <trkpt lat="41.687163" lon="2.265829">
        <ele>418.464</ele>
        <time>2022-10-23T09:09:04Z</time>
      </trkpt>
      <trkpt lat="41.687181" lon="2.265833">
        <ele>418.697</ele>
        <time>2022-10-23T09:09:05Z</time>
      </trkpt>
      <trkpt lat="41.687203" lon="2.265840">
        <ele>418.618</ele>
        <time>2022-10-23T09:09:06Z</time>
      </trkpt>
      <trkpt lat="41.687226" lon="2.265850">
        <ele>418.698</ele>
        <time>2022-10-23T09:09:07Z</time>
      </trkpt>
      <trkpt lat="41.687247" lon="2.265862">
        <ele>418.817</ele>
        <time>2022-10-23T09:09:08Z</time>
      </trkpt>
      <trkpt lat="41.687269" lon="2.265874">
        <ele>419.009</ele>
        <time>2022-10-23T09:09:09Z</time>
      </trkpt>
      <trkpt lat="41.687291" lon="2.265887">
        <ele>419.252</ele>
        <time>2022-10-23T09:09:10Z</time>
      </trkpt>
      <trkpt lat="41.687315" lon="2.265902">
        <ele>419.662</ele>
        <time>2022-10-23T09:09:11Z</time>
      </trkpt>
      <trkpt lat="41.687338" lon="2.265916">
        <ele>419.878</ele>
        <time>2022-10-23T09:09:12Z</time>
      </trkpt>
      <trkpt lat="41.687360" lon="2.265929">
        <ele>420.081</ele>
        <time>2022-10-23T09:09:13Z</time>
      </trkpt>
      <trkpt lat="41.687384" lon="2.265945">
        <ele>420.437</ele>
        <time>2022-10-23T09:09:14Z</time>
      </trkpt>
      <trkpt lat="41.687411" lon="2.265960">
        <ele>420.645</ele>
        <time>2022-10-23T09:09:15Z</time>
      </trkpt>
      <trkpt lat="41.687438" lon="2.265973">
        <ele>420.871</ele>
        <time>2022-10-23T09:09:16Z</time>
      </trkpt>
      <trkpt lat="41.687467" lon="2.265986">
        <ele>421.261</ele>
        <time>2022-10-23T09:09:17Z</time>
      </trkpt>
      <trkpt lat="41.687492" lon="2.266006">
        <ele>421.454</ele>
        <time>2022-10-23T09:09:18Z</time>
      </trkpt>
      <trkpt lat="41.687517" lon="2.266024">
        <ele>421.616</ele>
        <time>2022-10-23T09:09:19Z</time>
      </trkpt>
      <trkpt lat="41.687546" lon="2.266034">
        <ele>421.876</ele>
        <time>2022-10-23T09:09:20Z</time>
      </trkpt>
      <trkpt lat="41.687575" lon="2.266043">
        <ele>422.013</ele>
        <time>2022-10-23T09:09:21Z</time>
      </trkpt>
      <trkpt lat="41.687603" lon="2.266052">
        <ele>422.209</ele>
        <time>2022-10-23T09:09:22Z</time>
      </trkpt>
      <trkpt lat="41.687630" lon="2.266058">
        <ele>422.442</ele>
        <time>2022-10-23T09:09:23Z</time>
      </trkpt>
      <trkpt lat="41.687655" lon="2.266054">
        <ele>422.692</ele>
        <time>2022-10-23T09:09:24Z</time>
      </trkpt>
      <trkpt lat="41.687680" lon="2.266044">
        <ele>422.868</ele>
        <time>2022-10-23T09:09:25Z</time>
      </trkpt>
      <trkpt lat="41.687705" lon="2.266027">
        <ele>423.231</ele>
        <time>2022-10-23T09:09:26Z</time>
      </trkpt>
      <trkpt lat="41.687731" lon="2.266009">
        <ele>423.677</ele>
        <time>2022-10-23T09:09:27Z</time>
      </trkpt>
      <trkpt lat="41.687756" lon="2.265989">
        <ele>424.085</ele>
        <time>2022-10-23T09:09:28Z</time>
      </trkpt>
      <trkpt lat="41.687778" lon="2.265967">
        <ele>424.281</ele>
        <time>2022-10-23T09:09:29Z</time>
      </trkpt>
      <trkpt lat="41.687797" lon="2.265943">
        <ele>424.611</ele>
        <time>2022-10-23T09:09:30Z</time>
      </trkpt>
      <trkpt lat="41.687817" lon="2.265920">
        <ele>424.874</ele>
        <time>2022-10-23T09:09:31Z</time>
      </trkpt>
      <trkpt lat="41.687839" lon="2.265894">
        <ele>425.016</ele>
        <time>2022-10-23T09:09:32Z</time>
      </trkpt>
      <trkpt lat="41.687861" lon="2.265869">
        <ele>425.476</ele>
        <time>2022-10-23T09:09:33Z</time>
      </trkpt>
      <trkpt lat="41.687884" lon="2.265844">
        <ele>425.613</ele>
        <time>2022-10-23T09:09:34Z</time>
      </trkpt>
      <trkpt lat="41.687908" lon="2.265819">
        <ele>426.009</ele>
        <time>2022-10-23T09:09:35Z</time>
      </trkpt>
      <trkpt lat="41.687933" lon="2.265794">
        <ele>426.282</ele>
        <time>2022-10-23T09:09:36Z</time>
      </trkpt>
      <trkpt lat="41.687957" lon="2.265772">
        <ele>426.452</ele>
        <time>2022-10-23T09:09:37Z</time>
      </trkpt>
      <trkpt lat="41.687981" lon="2.265752">
        <ele>426.618</ele>
        <time>2022-10-23T09:09:38Z</time>
      </trkpt>
      <trkpt lat="41.688005" lon="2.265733">
        <ele>427.091</ele>
        <time>2022-10-23T09:09:39Z</time>
      </trkpt>
      <trkpt lat="41.688031" lon="2.265712">
        <ele>427.287</ele>
        <time>2022-10-23T09:09:40Z</time>
      </trkpt>
      <trkpt lat="41.688054" lon="2.265695">
        <ele>427.475</ele>
        <time>2022-10-23T09:09:41Z</time>
      </trkpt>
      <trkpt lat="41.688078" lon="2.265678">
        <ele>427.441</ele>
        <time>2022-10-23T09:09:42Z</time>
      </trkpt>
      <trkpt lat="41.688104" lon="2.265658">
        <ele>427.681</ele>
        <time>2022-10-23T09:09:43Z</time>
      </trkpt>
      <trkpt lat="41.688131" lon="2.265636">
        <ele>428.034</ele>
        <time>2022-10-23T09:09:44Z</time>
      </trkpt>
      <trkpt lat="41.688158" lon="2.265613">
        <ele>428.233</ele>
        <time>2022-10-23T09:09:45Z</time>
      </trkpt>
      <trkpt lat="41.688184" lon="2.265590">
        <ele>428.423</ele>
        <time>2022-10-23T09:09:46Z</time>
      </trkpt>
      <trkpt lat="41.688208" lon="2.265567">
        <ele>428.615</ele>
        <time>2022-10-23T09:09:47Z</time>
      </trkpt>
      <trkpt lat="41.688232" lon="2.265548">
        <ele>429.009</ele>
        <time>2022-10-23T09:09:48Z</time>
      </trkpt>
      <trkpt lat="41.688257" lon="2.265531">
        <ele>429.474</ele>
        <time>2022-10-23T09:09:49Z</time>
      </trkpt>
      <trkpt lat="41.688281" lon="2.265512">
        <ele>429.834</ele>
        <time>2022-10-23T09:09:50Z</time>
      </trkpt>
      <trkpt lat="41.688306" lon="2.265491">
        <ele>430.080</ele>
        <time>2022-10-23T09:09:51Z</time>
      </trkpt>
      <trkpt lat="41.688333" lon="2.265469">
        <ele>430.293</ele>
        <time>2022-10-23T09:09:52Z</time>
      </trkpt>
      <trkpt lat="41.688361" lon="2.265448">
        <ele>430.489</ele>
        <time>2022-10-23T09:09:53Z</time>
      </trkpt>
      <trkpt lat="41.688389" lon="2.265427">
        <ele>430.447</ele>
        <time>2022-10-23T09:09:54Z</time>
      </trkpt>
      <trkpt lat="41.688414" lon="2.265405">
        <ele>430.623</ele>
        <time>2022-10-23T09:09:55Z</time>
      </trkpt>
      <trkpt lat="41.688437" lon="2.265384">
        <ele>430.823</ele>
        <time>2022-10-23T09:09:56Z</time>
      </trkpt>
      <trkpt lat="41.688458" lon="2.265358">
        <ele>431.056</ele>
        <time>2022-10-23T09:09:57Z</time>
      </trkpt>
      <trkpt lat="41.688481" lon="2.265329">
        <ele>431.279</ele>
        <time>2022-10-23T09:09:58Z</time>
      </trkpt>
      <trkpt lat="41.688500" lon="2.265296">
        <ele>431.405</ele>
        <time>2022-10-23T09:09:59Z</time>
      </trkpt>
      <trkpt lat="41.688520" lon="2.265262">
        <ele>431.625</ele>
        <time>2022-10-23T09:10:00Z</time>
      </trkpt>
      <trkpt lat="41.688537" lon="2.265228">
        <ele>431.809</ele>
        <time>2022-10-23T09:10:01Z</time>
      </trkpt>
      <trkpt lat="41.688553" lon="2.265189">
        <ele>432.068</ele>
        <time>2022-10-23T09:10:02Z</time>
      </trkpt>
      <trkpt lat="41.688567" lon="2.265154">
        <ele>432.048</ele>
        <time>2022-10-23T09:10:03Z</time>
      </trkpt>
      <trkpt lat="41.688580" lon="2.265121">
        <ele>432.294</ele>
        <time>2022-10-23T09:10:04Z</time>
      </trkpt>
      <trkpt lat="41.688593" lon="2.265089">
        <ele>432.697</ele>
        <time>2022-10-23T09:10:05Z</time>
      </trkpt>
      <trkpt lat="41.688604" lon="2.265059">
        <ele>432.853</ele>
        <time>2022-10-23T09:10:06Z</time>
      </trkpt>
      <trkpt lat="41.688615" lon="2.265028">
        <ele>433.031</ele>
        <time>2022-10-23T09:10:07Z</time>
      </trkpt>
      <trkpt lat="41.688625" lon="2.264993">
        <ele>433.227</ele>
        <time>2022-10-23T09:10:08Z</time>
      </trkpt>
      <trkpt lat="41.688634" lon="2.264959">
        <ele>433.247</ele>
        <time>2022-10-23T09:10:09Z</time>
      </trkpt>
      <trkpt lat="41.688642" lon="2.264924">
        <ele>433.490</ele>
        <time>2022-10-23T09:10:10Z</time>
      </trkpt>
      <trkpt lat="41.688651" lon="2.264892">
        <ele>433.452</ele>
        <time>2022-10-23T09:10:11Z</time>
      </trkpt>
      <trkpt lat="41.688663" lon="2.264862">
        <ele>433.453</ele>
        <time>2022-10-23T09:10:12Z</time>
      </trkpt>
      <trkpt lat="41.688680" lon="2.264829">
        <ele>433.608</ele>
        <time>2022-10-23T09:10:13Z</time>
      </trkpt>
      <trkpt lat="41.688699" lon="2.264798">
        <ele>433.609</ele>
        <time>2022-10-23T09:10:14Z</time>
      </trkpt>
      <trkpt lat="41.688719" lon="2.264770">
        <ele>433.656</ele>
        <time>2022-10-23T09:10:15Z</time>
      </trkpt>
      <trkpt lat="41.688739" lon="2.264740">
        <ele>433.616</ele>
        <time>2022-10-23T09:10:16Z</time>
      </trkpt>
      <trkpt lat="41.688763" lon="2.264714">
        <ele>433.832</ele>
        <time>2022-10-23T09:10:17Z</time>
      </trkpt>
      <trkpt lat="41.688788" lon="2.264693">
        <ele>433.815</ele>
        <time>2022-10-23T09:10:18Z</time>
      </trkpt>
      <trkpt lat="41.688812" lon="2.264674">
        <ele>434.041</ele>
        <time>2022-10-23T09:10:19Z</time>
      </trkpt>
      <trkpt lat="41.688837" lon="2.264657">
        <ele>434.029</ele>
        <time>2022-10-23T09:10:20Z</time>
      </trkpt>
      <trkpt lat="41.688862" lon="2.264642">
        <ele>434.055</ele>
        <time>2022-10-23T09:10:21Z</time>
      </trkpt>
      <trkpt lat="41.688887" lon="2.264632">
        <ele>434.245</ele>
        <time>2022-10-23T09:10:22Z</time>
      </trkpt>
      <trkpt lat="41.688913" lon="2.264623">
        <ele>434.288</ele>
        <time>2022-10-23T09:10:23Z</time>
      </trkpt>
      <trkpt lat="41.688943" lon="2.264615">
        <ele>434.428</ele>
        <time>2022-10-23T09:10:24Z</time>
      </trkpt>
      <trkpt lat="41.688974" lon="2.264605">
        <ele>434.689</ele>
        <time>2022-10-23T09:10:25Z</time>
      </trkpt>
      <trkpt lat="41.689004" lon="2.264595">
        <ele>434.817</ele>
        <time>2022-10-23T09:10:26Z</time>
      </trkpt>
      <trkpt lat="41.689033" lon="2.264586">
        <ele>435.009</ele>
        <time>2022-10-23T09:10:27Z</time>
      </trkpt>
      <trkpt lat="41.689061" lon="2.264578">
        <ele>435.033</ele>
        <time>2022-10-23T09:10:28Z</time>
      </trkpt>
      <trkpt lat="41.689089" lon="2.264572">
        <ele>435.033</ele>
        <time>2022-10-23T09:10:29Z</time>
      </trkpt>
      <trkpt lat="41.689118" lon="2.264564">
        <ele>435.069</ele>
        <time>2022-10-23T09:10:30Z</time>
      </trkpt>
      <trkpt lat="41.689147" lon="2.264552">
        <ele>435.222</ele>
        <time>2022-10-23T09:10:31Z</time>
      </trkpt>
      <trkpt lat="41.689178" lon="2.264541">
        <ele>435.238</ele>
        <time>2022-10-23T09:10:32Z</time>
      </trkpt>
      <trkpt lat="41.689208" lon="2.264534">
        <ele>435.426</ele>
        <time>2022-10-23T09:10:33Z</time>
      </trkpt>
      <trkpt lat="41.689238" lon="2.264526">
        <ele>435.472</ele>
        <time>2022-10-23T09:10:34Z</time>
      </trkpt>
      <trkpt lat="41.689267" lon="2.264515">
        <ele>435.682</ele>
        <time>2022-10-23T09:10:35Z</time>
      </trkpt>
      <trkpt lat="41.689295" lon="2.264506">
        <ele>435.615</ele>
        <time>2022-10-23T09:10:36Z</time>
      </trkpt>
      <trkpt lat="41.689322" lon="2.264500">
        <ele>435.827</ele>
        <time>2022-10-23T09:10:37Z</time>
      </trkpt>
      <trkpt lat="41.689348" lon="2.264492">
        <ele>435.868</ele>
        <time>2022-10-23T09:10:38Z</time>
      </trkpt>
      <trkpt lat="41.689373" lon="2.264484">
        <ele>435.814</ele>
        <time>2022-10-23T09:10:39Z</time>
      </trkpt>
      <trkpt lat="41.689401" lon="2.264476">
        <ele>436.209</ele>
        <time>2022-10-23T09:10:40Z</time>
      </trkpt>
      <trkpt lat="41.689431" lon="2.264465">
        <ele>436.483</ele>
        <time>2022-10-23T09:10:41Z</time>
      </trkpt>
      <trkpt lat="41.689462" lon="2.264457">
        <ele>436.493</ele>
        <time>2022-10-23T09:10:42Z</time>
      </trkpt>
      <trkpt lat="41.689489" lon="2.264451">
        <ele>436.649</ele>
        <time>2022-10-23T09:10:43Z</time>
      </trkpt>
      <trkpt lat="41.689515" lon="2.264445">
        <ele>436.622</ele>
        <time>2022-10-23T09:10:44Z</time>
      </trkpt>
      <trkpt lat="41.689542" lon="2.264437">
        <ele>436.888</ele>
        <time>2022-10-23T09:10:45Z</time>
      </trkpt>
      <trkpt lat="41.689569" lon="2.264433">
        <ele>437.096</ele>
        <time>2022-10-23T09:10:46Z</time>
      </trkpt>
      <trkpt lat="41.689596" lon="2.264428">
        <ele>437.452</ele>
        <time>2022-10-23T09:10:47Z</time>
      </trkpt>
      <trkpt lat="41.689625" lon="2.264424">
        <ele>437.652</ele>
        <time>2022-10-23T09:10:48Z</time>
      </trkpt>
      <trkpt lat="41.689654" lon="2.264415">
        <ele>438.085</ele>
        <time>2022-10-23T09:10:49Z</time>
      </trkpt>
      <trkpt lat="41.689680" lon="2.264404">
        <ele>438.215</ele>
        <time>2022-10-23T09:10:50Z</time>
      </trkpt>
      <trkpt lat="41.689703" lon="2.264395">
        <ele>438.265</ele>
        <time>2022-10-23T09:10:51Z</time>
      </trkpt>
      <trkpt lat="41.689727" lon="2.264387">
        <ele>438.411</ele>
        <time>2022-10-23T09:10:52Z</time>
      </trkpt>
      <trkpt lat="41.689755" lon="2.264378">
        <ele>438.409</ele>
        <time>2022-10-23T09:10:53Z</time>
      </trkpt>
      <trkpt lat="41.689783" lon="2.264368">
        <ele>438.682</ele>
        <time>2022-10-23T09:10:54Z</time>
      </trkpt>
      <trkpt lat="41.689812" lon="2.264356">
        <ele>438.652</ele>
        <time>2022-10-23T09:10:55Z</time>
      </trkpt>
      <trkpt lat="41.689838" lon="2.264343">
        <ele>438.858</ele>
        <time>2022-10-23T09:10:56Z</time>
      </trkpt>
      <trkpt lat="41.689864" lon="2.264328">
        <ele>438.841</ele>
        <time>2022-10-23T09:10:57Z</time>
      </trkpt>
      <trkpt lat="41.689886" lon="2.264313">
        <ele>438.857</ele>
        <time>2022-10-23T09:10:58Z</time>
      </trkpt>
      <trkpt lat="41.689906" lon="2.264294">
        <ele>439.065</ele>
        <time>2022-10-23T09:10:59Z</time>
      </trkpt>
      <trkpt lat="41.689925" lon="2.264269">
        <ele>439.061</ele>
        <time>2022-10-23T09:11:00Z</time>
      </trkpt>
      <trkpt lat="41.689949" lon="2.264239">
        <ele>439.451</ele>
        <time>2022-10-23T09:11:01Z</time>
      </trkpt>
      <trkpt lat="41.689974" lon="2.264208">
        <ele>439.884</ele>
        <time>2022-10-23T09:11:02Z</time>
      </trkpt>
      <trkpt lat="41.689998" lon="2.264179">
        <ele>439.852</ele>
        <time>2022-10-23T09:11:03Z</time>
      </trkpt>
      <trkpt lat="41.690017" lon="2.264146">
        <ele>440.053</ele>
        <time>2022-10-23T09:11:04Z</time>
      </trkpt>
      <trkpt lat="41.690037" lon="2.264115">
        <ele>440.208</ele>
        <time>2022-10-23T09:11:05Z</time>
      </trkpt>
      <trkpt lat="41.690061" lon="2.264081">
        <ele>440.209</ele>
        <time>2022-10-23T09:11:06Z</time>
      </trkpt>
      <trkpt lat="41.690085" lon="2.264052">
        <ele>440.496</ele>
        <time>2022-10-23T09:11:07Z</time>
      </trkpt>
      <trkpt lat="41.690108" lon="2.264032">
        <ele>440.666</ele>
        <time>2022-10-23T09:11:08Z</time>
      </trkpt>
      <trkpt lat="41.690132" lon="2.264017">
        <ele>440.842</ele>
        <time>2022-10-23T09:11:09Z</time>
      </trkpt>
      <trkpt lat="41.690155" lon="2.263996">
        <ele>441.065</ele>
        <time>2022-10-23T09:11:10Z</time>
      </trkpt>
      <trkpt lat="41.690175" lon="2.263975">
        <ele>441.261</ele>
        <time>2022-10-23T09:11:11Z</time>
      </trkpt>
      <trkpt lat="41.690195" lon="2.263955">
        <ele>441.239</ele>
        <time>2022-10-23T09:11:12Z</time>
      </trkpt>
      <trkpt lat="41.690215" lon="2.263936">
        <ele>441.625</ele>
        <time>2022-10-23T09:11:13Z</time>
      </trkpt>
      <trkpt lat="41.690236" lon="2.263922">
        <ele>441.885</ele>
        <time>2022-10-23T09:11:14Z</time>
      </trkpt>
      <trkpt lat="41.690259" lon="2.263910">
        <ele>442.248</ele>
        <time>2022-10-23T09:11:15Z</time>
      </trkpt>
      <trkpt lat="41.690284" lon="2.263902">
        <ele>442.852</ele>
        <time>2022-10-23T09:11:16Z</time>
      </trkpt>
      <trkpt lat="41.690309" lon="2.263898">
        <ele>443.253</ele>
        <time>2022-10-23T09:11:17Z</time>
      </trkpt>
      <trkpt lat="41.690332" lon="2.263900">
        <ele>443.608</ele>
        <time>2022-10-23T09:11:18Z</time>
      </trkpt>
      <trkpt lat="41.690355" lon="2.263906">
        <ele>444.209</ele>
        <time>2022-10-23T09:11:19Z</time>
      </trkpt>
      <trkpt lat="41.690380" lon="2.263912">
        <ele>444.616</ele>
        <time>2022-10-23T09:11:20Z</time>
      </trkpt>
      <trkpt lat="41.690405" lon="2.263923">
        <ele>445.276</ele>
        <time>2022-10-23T09:11:21Z</time>
      </trkpt>
      <trkpt lat="41.690433" lon="2.263936">
        <ele>445.662</ele>
        <time>2022-10-23T09:11:22Z</time>
      </trkpt>
      <trkpt lat="41.690461" lon="2.263945">
        <ele>446.095</ele>
        <time>2022-10-23T09:11:23Z</time>
      </trkpt>
      <trkpt lat="41.690491" lon="2.263951">
        <ele>446.221</ele>
        <time>2022-10-23T09:11:24Z</time>
      </trkpt>
      <trkpt lat="41.690522" lon="2.263950">
        <ele>446.659</ele>
        <time>2022-10-23T09:11:25Z</time>
      </trkpt>
      <trkpt lat="41.690554" lon="2.263941">
        <ele>446.855</ele>
        <time>2022-10-23T09:11:26Z</time>
      </trkpt>
      <trkpt lat="41.690583" lon="2.263933">
        <ele>447.025</ele>
        <time>2022-10-23T09:11:27Z</time>
      </trkpt>
      <trkpt lat="41.690609" lon="2.263926">
        <ele>447.048</ele>
        <time>2022-10-23T09:11:28Z</time>
      </trkpt>
      <trkpt lat="41.690634" lon="2.263922">
        <ele>447.289</ele>
        <time>2022-10-23T09:11:29Z</time>
      </trkpt>
      <trkpt lat="41.690661" lon="2.263912">
        <ele>447.406</ele>
        <time>2022-10-23T09:11:30Z</time>
      </trkpt>
      <trkpt lat="41.690694" lon="2.263901">
        <ele>447.426</ele>
        <time>2022-10-23T09:11:31Z</time>
      </trkpt>
      <trkpt lat="41.690727" lon="2.263894">
        <ele>447.609</ele>
        <time>2022-10-23T09:11:32Z</time>
      </trkpt>
      <trkpt lat="41.690758" lon="2.263896">
        <ele>447.479</ele>
        <time>2022-10-23T09:11:33Z</time>
      </trkpt>
      <trkpt lat="41.690787" lon="2.263905">
        <ele>447.879</ele>
        <time>2022-10-23T09:11:34Z</time>
      </trkpt>
      <trkpt lat="41.690815" lon="2.263919">
        <ele>448.245</ele>
        <time>2022-10-23T09:11:35Z</time>
      </trkpt>
      <trkpt lat="41.690837" lon="2.263933">
        <ele>448.478</ele>
        <time>2022-10-23T09:11:36Z</time>
      </trkpt>
      <trkpt lat="41.690861" lon="2.263944">
        <ele>448.624</ele>
        <time>2022-10-23T09:11:37Z</time>
      </trkpt>
      <trkpt lat="41.690886" lon="2.263949">
        <ele>448.632</ele>
        <time>2022-10-23T09:11:38Z</time>
      </trkpt>
      <trkpt lat="41.690912" lon="2.263949">
        <ele>449.018</ele>
        <time>2022-10-23T09:11:39Z</time>
      </trkpt>
      <trkpt lat="41.690940" lon="2.263949">
        <ele>449.248</ele>
        <time>2022-10-23T09:11:40Z</time>
      </trkpt>
      <trkpt lat="41.690962" lon="2.263944">
        <ele>449.411</ele>
        <time>2022-10-23T09:11:41Z</time>
      </trkpt>
      <trkpt lat="41.690989" lon="2.263934">
        <ele>449.858</ele>
        <time>2022-10-23T09:11:42Z</time>
      </trkpt>
      <trkpt lat="41.691015" lon="2.263921">
        <ele>450.052</ele>
        <time>2022-10-23T09:11:43Z</time>
      </trkpt>
      <trkpt lat="41.691041" lon="2.263898">
        <ele>450.417</ele>
        <time>2022-10-23T09:11:44Z</time>
      </trkpt>
      <trkpt lat="41.691064" lon="2.263873">
        <ele>450.809</ele>
        <time>2022-10-23T09:11:45Z</time>
      </trkpt>
      <trkpt lat="41.691084" lon="2.263848">
        <ele>451.256</ele>
        <time>2022-10-23T09:11:46Z</time>
      </trkpt>
      <trkpt lat="41.691106" lon="2.263824">
        <ele>451.446</ele>
        <time>2022-10-23T09:11:47Z</time>
      </trkpt>
      <trkpt lat="41.691128" lon="2.263806">
        <ele>451.832</ele>
        <time>2022-10-23T09:11:48Z</time>
      </trkpt>
      <trkpt lat="41.691144" lon="2.263787">
        <ele>451.865</ele>
        <time>2022-10-23T09:11:49Z</time>
      </trkpt>
      <trkpt lat="41.691161" lon="2.263766">
        <ele>452.081</ele>
        <time>2022-10-23T09:11:50Z</time>
      </trkpt>
      <trkpt lat="41.691182" lon="2.263742">
        <ele>452.279</ele>
        <time>2022-10-23T09:11:51Z</time>
      </trkpt>
      <trkpt lat="41.691203" lon="2.263722">
        <ele>452.445</ele>
        <time>2022-10-23T09:11:52Z</time>
      </trkpt>
      <trkpt lat="41.691221" lon="2.263707">
        <ele>452.875</ele>
        <time>2022-10-23T09:11:53Z</time>
      </trkpt>
      <trkpt lat="41.691236" lon="2.263690">
        <ele>453.018</ele>
        <time>2022-10-23T09:11:54Z</time>
      </trkpt>
      <trkpt lat="41.691252" lon="2.263671">
        <ele>453.459</ele>
        <time>2022-10-23T09:11:55Z</time>
      </trkpt>
      <trkpt lat="41.691266" lon="2.263653">
        <ele>454.003</ele>
        <time>2022-10-23T09:11:56Z</time>
      </trkpt>
      <trkpt lat="41.691280" lon="2.263634">
        <ele>454.423</ele>
        <time>2022-10-23T09:11:57Z</time>
      </trkpt>
      <trkpt lat="41.691303" lon="2.263611">
        <ele>454.809</ele>
        <time>2022-10-23T09:11:58Z</time>
      </trkpt>
      <trkpt lat="41.691328" lon="2.263594">
        <ele>455.276</ele>
        <time>2022-10-23T09:11:59Z</time>
      </trkpt>
      <trkpt lat="41.691353" lon="2.263569">
        <ele>455.666</ele>
        <time>2022-10-23T09:12:00Z</time>
      </trkpt>
      <trkpt lat="41.691377" lon="2.263543">
        <ele>456.272</ele>
        <time>2022-10-23T09:12:01Z</time>
      </trkpt>
      <trkpt lat="41.691401" lon="2.263510">
        <ele>457.015</ele>
        <time>2022-10-23T09:12:02Z</time>
      </trkpt>
      <trkpt lat="41.691419" lon="2.263479">
        <ele>457.481</ele>
        <time>2022-10-23T09:12:03Z</time>
      </trkpt>
      <trkpt lat="41.691435" lon="2.263450">
        <ele>457.859</ele>
        <time>2022-10-23T09:12:04Z</time>
      </trkpt>
      <trkpt lat="41.691453" lon="2.263418">
        <ele>458.445</ele>
        <time>2022-10-23T09:12:05Z</time>
      </trkpt>
      <trkpt lat="41.691469" lon="2.263386">
        <ele>458.885</ele>
        <time>2022-10-23T09:12:06Z</time>
      </trkpt>
      <trkpt lat="41.691484" lon="2.263359">
        <ele>459.258</ele>
        <time>2022-10-23T09:12:07Z</time>
      </trkpt>
      <trkpt lat="41.691499" lon="2.263334">
        <ele>459.858</ele>
        <time>2022-10-23T09:12:08Z</time>
      </trkpt>
      <trkpt lat="41.691514" lon="2.263308">
        <ele>460.252</ele>
        <time>2022-10-23T09:12:09Z</time>
      </trkpt>
      <trkpt lat="41.691531" lon="2.263282">
        <ele>460.817</ele>
        <time>2022-10-23T09:12:10Z</time>
      </trkpt>
      <trkpt lat="41.691547" lon="2.263253">
        <ele>461.209</ele>
        <time>2022-10-23T09:12:11Z</time>
      </trkpt>
      <trkpt lat="41.691562" lon="2.263224">
        <ele>461.696</ele>
        <time>2022-10-23T09:12:12Z</time>
      </trkpt>
      <trkpt lat="41.691575" lon="2.263197">
        <ele>462.066</ele>
        <time>2022-10-23T09:12:13Z</time>
      </trkpt>
      <trkpt lat="41.691584" lon="2.263171">
        <ele>462.462</ele>
        <time>2022-10-23T09:12:14Z</time>
      </trkpt>
      <trkpt lat="41.691592" lon="2.263140">
        <ele>462.815</ele>
        <time>2022-10-23T09:12:15Z</time>
      </trkpt>
      <trkpt lat="41.691597" lon="2.263109">
        <ele>463.481</ele>
        <time>2022-10-23T09:12:16Z</time>
      </trkpt>
      <trkpt lat="41.691596" lon="2.263079">
        <ele>463.849</ele>
        <time>2022-10-23T09:12:17Z</time>
      </trkpt>
      <trkpt lat="41.691598" lon="2.263051">
        <ele>464.225</ele>
        <time>2022-10-23T09:12:18Z</time>
      </trkpt>
      <trkpt lat="41.691602" lon="2.263021">
        <ele>464.685</ele>
        <time>2022-10-23T09:12:19Z</time>
      </trkpt>
      <trkpt lat="41.691608" lon="2.262992">
        <ele>465.038</ele>
        <time>2022-10-23T09:12:20Z</time>
      </trkpt>
      <trkpt lat="41.691611" lon="2.262968">
        <ele>465.463</ele>
        <time>2022-10-23T09:12:21Z</time>
      </trkpt>
      <trkpt lat="41.691609" lon="2.262941">
        <ele>465.844</ele>
        <time>2022-10-23T09:12:22Z</time>
      </trkpt>
      <trkpt lat="41.691605" lon="2.262917">
        <ele>466.218</ele>
        <time>2022-10-23T09:12:23Z</time>
      </trkpt>
      <trkpt lat="41.691600" lon="2.262897">
        <ele>466.409</ele>
        <time>2022-10-23T09:12:24Z</time>
      </trkpt>
      <trkpt lat="41.691596" lon="2.262870">
        <ele>467.247</ele>
        <time>2022-10-23T09:12:25Z</time>
      </trkpt>
      <trkpt lat="41.691592" lon="2.262836">
        <ele>467.647</ele>
        <time>2022-10-23T09:12:26Z</time>
      </trkpt>
      <trkpt lat="41.691587" lon="2.262807">
        <ele>467.883</ele>
        <time>2022-10-23T09:12:27Z</time>
      </trkpt>
      <trkpt lat="41.691587" lon="2.262781">
        <ele>468.256</ele>
        <time>2022-10-23T09:12:28Z</time>
      </trkpt>
      <trkpt lat="41.691593" lon="2.262755">
        <ele>469.012</ele>
        <time>2022-10-23T09:12:29Z</time>
      </trkpt>
      <trkpt lat="41.691604" lon="2.262743">
        <ele>470.060</ele>
        <time>2022-10-23T09:12:30Z</time>
      </trkpt>
      <trkpt lat="41.691624" lon="2.262735">
        <ele>470.636</ele>
        <time>2022-10-23T09:12:31Z</time>
      </trkpt>
      <trkpt lat="41.691649" lon="2.262735">
        <ele>471.026</ele>
        <time>2022-10-23T09:12:32Z</time>
      </trkpt>
      <trkpt lat="41.691673" lon="2.262740">
        <ele>471.469</ele>
        <time>2022-10-23T09:12:33Z</time>
      </trkpt>
      <trkpt lat="41.691695" lon="2.262744">
        <ele>471.887</ele>
        <time>2022-10-23T09:12:34Z</time>
      </trkpt>
      <trkpt lat="41.691717" lon="2.262747">
        <ele>472.242</ele>
        <time>2022-10-23T09:12:35Z</time>
      </trkpt>
      <trkpt lat="41.691742" lon="2.262752">
        <ele>472.626</ele>
        <time>2022-10-23T09:12:36Z</time>
      </trkpt>
      <trkpt lat="41.691763" lon="2.262755">
        <ele>473.009</ele>
        <time>2022-10-23T09:12:37Z</time>
      </trkpt>
      <trkpt lat="41.691784" lon="2.262760">
        <ele>473.489</ele>
        <time>2022-10-23T09:12:38Z</time>
      </trkpt>
      <trkpt lat="41.691805" lon="2.262762">
        <ele>473.629</ele>
        <time>2022-10-23T09:12:39Z</time>
      </trkpt>
      <trkpt lat="41.691830" lon="2.262762">
        <ele>473.885</ele>
        <time>2022-10-23T09:12:40Z</time>
      </trkpt>
      <trkpt lat="41.691856" lon="2.262763">
        <ele>474.038</ele>
        <time>2022-10-23T09:12:41Z</time>
      </trkpt>
      <trkpt lat="41.691880" lon="2.262765">
        <ele>474.434</ele>
        <time>2022-10-23T09:12:42Z</time>
      </trkpt>
      <trkpt lat="41.691901" lon="2.262773">
        <ele>474.872</ele>
        <time>2022-10-23T09:12:43Z</time>
      </trkpt>
      <trkpt lat="41.691924" lon="2.262782">
        <ele>475.028</ele>
        <time>2022-10-23T09:12:44Z</time>
      </trkpt>
      <trkpt lat="41.691949" lon="2.262792">
        <ele>475.438</ele>
        <time>2022-10-23T09:12:45Z</time>
      </trkpt>
      <trkpt lat="41.691973" lon="2.262804">
        <ele>475.821</ele>
        <time>2022-10-23T09:12:46Z</time>
      </trkpt>
      <trkpt lat="41.691997" lon="2.262812">
        <ele>476.076</ele>
        <time>2022-10-23T09:12:47Z</time>
      </trkpt>
      <trkpt lat="41.692020" lon="2.262821">
        <ele>476.490</ele>
        <time>2022-10-23T09:12:48Z</time>
      </trkpt>
      <trkpt lat="41.692040" lon="2.262834">
        <ele>476.819</ele>
        <time>2022-10-23T09:12:49Z</time>
      </trkpt>
      <trkpt lat="41.692060" lon="2.262841">
        <ele>477.009</ele>
        <time>2022-10-23T09:12:50Z</time>
      </trkpt>
      <trkpt lat="41.692080" lon="2.262850">
        <ele>477.228</ele>
        <time>2022-10-23T09:12:51Z</time>
      </trkpt>
      <trkpt lat="41.692101" lon="2.262859">
        <ele>477.638</ele>
        <time>2022-10-23T09:12:52Z</time>
      </trkpt>
      <trkpt lat="41.692120" lon="2.262865">
        <ele>478.054</ele>
        <time>2022-10-23T09:12:53Z</time>
      </trkpt>
      <trkpt lat="41.692138" lon="2.262872">
        <ele>478.257</ele>
        <time>2022-10-23T09:12:54Z</time>
      </trkpt>
      <trkpt lat="41.692156" lon="2.262874">
        <ele>478.833</ele>
        <time>2022-10-23T09:12:55Z</time>
      </trkpt>
      <trkpt lat="41.692174" lon="2.262879">
        <ele>479.091</ele>
        <time>2022-10-23T09:12:56Z</time>
      </trkpt>
      <trkpt lat="41.692194" lon="2.262885">
        <ele>479.437</ele>
        <time>2022-10-23T09:12:57Z</time>
      </trkpt>
      <trkpt lat="41.692217" lon="2.262890">
        <ele>480.047</ele>
        <time>2022-10-23T09:12:58Z</time>
      </trkpt>
      <trkpt lat="41.692237" lon="2.262891">
        <ele>480.250</ele>
        <time>2022-10-23T09:12:59Z</time>
      </trkpt>
      <trkpt lat="41.692260" lon="2.262890">
        <ele>480.695</ele>
        <time>2022-10-23T09:13:00Z</time>
      </trkpt>
      <trkpt lat="41.692282" lon="2.262891">
        <ele>481.049</ele>
        <time>2022-10-23T09:13:01Z</time>
      </trkpt>
      <trkpt lat="41.692303" lon="2.262893">
        <ele>481.423</ele>
        <time>2022-10-23T09:13:02Z</time>
      </trkpt>
      <trkpt lat="41.692324" lon="2.262892">
        <ele>481.809</ele>
        <time>2022-10-23T09:13:03Z</time>
      </trkpt>
      <trkpt lat="41.692344" lon="2.262895">
        <ele>482.260</ele>
        <time>2022-10-23T09:13:04Z</time>
      </trkpt>
      <trkpt lat="41.692364" lon="2.262896">
        <ele>482.870</ele>
        <time>2022-10-23T09:13:05Z</time>
      </trkpt>
      <trkpt lat="41.692384" lon="2.262894">
        <ele>483.256</ele>
        <time>2022-10-23T09:13:06Z</time>
      </trkpt>
      <trkpt lat="41.692402" lon="2.262894">
        <ele>483.619</ele>
        <time>2022-10-23T09:13:07Z</time>
      </trkpt>
      <trkpt lat="41.692421" lon="2.262896">
        <ele>483.865</ele>
        <time>2022-10-23T09:13:08Z</time>
      </trkpt>
      <trkpt lat="41.692441" lon="2.262894">
        <ele>484.023</ele>
        <time>2022-10-23T09:13:09Z</time>
      </trkpt>
      <trkpt lat="41.692466" lon="2.262892">
        <ele>484.229</ele>
        <time>2022-10-23T09:13:10Z</time>
      </trkpt>
      <trkpt lat="41.692489" lon="2.262891">
        <ele>484.629</ele>
        <time>2022-10-23T09:13:11Z</time>
      </trkpt>
      <trkpt lat="41.692507" lon="2.262885">
        <ele>485.032</ele>
        <time>2022-10-23T09:13:12Z</time>
      </trkpt>
      <trkpt lat="41.692529" lon="2.262883">
        <ele>485.489</ele>
        <time>2022-10-23T09:13:13Z</time>
      </trkpt>
      <trkpt lat="41.692551" lon="2.262889">
        <ele>485.806</ele>
        <time>2022-10-23T09:13:14Z</time>
      </trkpt>
      <trkpt lat="41.692575" lon="2.262896">
        <ele>486.426</ele>
        <time>2022-10-23T09:13:15Z</time>
      </trkpt>
      <trkpt lat="41.692598" lon="2.262906">
        <ele>486.809</ele>
        <time>2022-10-23T09:13:16Z</time>
      </trkpt>
      <trkpt lat="41.692621" lon="2.262915">
        <ele>487.069</ele>
        <time>2022-10-23T09:13:17Z</time>
      </trkpt>
      <trkpt lat="41.692643" lon="2.262924">
        <ele>487.219</ele>
        <time>2022-10-23T09:13:18Z</time>
      </trkpt>
      <trkpt lat="41.692666" lon="2.262933">
        <ele>487.475</ele>
        <time>2022-10-23T09:13:19Z</time>
      </trkpt>
      <trkpt lat="41.692688" lon="2.262943">
        <ele>487.668</ele>
        <time>2022-10-23T09:13:20Z</time>
      </trkpt>
      <trkpt lat="41.692709" lon="2.262950">
        <ele>487.684</ele>
        <time>2022-10-23T09:13:21Z</time>
      </trkpt>
      <trkpt lat="41.692729" lon="2.262962">
        <ele>487.822</ele>
        <time>2022-10-23T09:13:22Z</time>
      </trkpt>
      <trkpt lat="41.692751" lon="2.262976">
        <ele>488.098</ele>
        <time>2022-10-23T09:13:23Z</time>
      </trkpt>
      <trkpt lat="41.692772" lon="2.262988">
        <ele>488.268</ele>
        <time>2022-10-23T09:13:24Z</time>
      </trkpt>
      <trkpt lat="41.692793" lon="2.262999">
        <ele>488.411</ele>
        <time>2022-10-23T09:13:25Z</time>
      </trkpt>
      <trkpt lat="41.692811" lon="2.263006">
        <ele>488.618</ele>
        <time>2022-10-23T09:13:26Z</time>
      </trkpt>
      <trkpt lat="41.692832" lon="2.263005">
        <ele>489.098</ele>
        <time>2022-10-23T09:13:27Z</time>
      </trkpt>
      <trkpt lat="41.692857" lon="2.263004">
        <ele>489.217</ele>
        <time>2022-10-23T09:13:28Z</time>
      </trkpt>
      <trkpt lat="41.692878" lon="2.262999">
        <ele>489.409</ele>
        <time>2022-10-23T09:13:29Z</time>
      </trkpt>
      <trkpt lat="41.692905" lon="2.262995">
        <ele>489.492</ele>
        <time>2022-10-23T09:13:30Z</time>
      </trkpt>
      <trkpt lat="41.692934" lon="2.262992">
        <ele>489.692</ele>
        <time>2022-10-23T09:13:31Z</time>
      </trkpt>
      <trkpt lat="41.692963" lon="2.262990">
        <ele>489.898</ele>
        <time>2022-10-23T09:13:32Z</time>
      </trkpt>
      <trkpt lat="41.692992" lon="2.262985">
        <ele>490.061</ele>
        <time>2022-10-23T09:13:33Z</time>
      </trkpt>
      <trkpt lat="41.693022" lon="2.262979">
        <ele>490.217</ele>
        <time>2022-10-23T09:13:34Z</time>
      </trkpt>
      <trkpt lat="41.693051" lon="2.262971">
        <ele>490.235</ele>
        <time>2022-10-23T09:13:35Z</time>
      </trkpt>
      <trkpt lat="41.693078" lon="2.262962">
        <ele>490.481</ele>
        <time>2022-10-23T09:13:36Z</time>
      </trkpt>
      <trkpt lat="41.693106" lon="2.262957">
        <ele>490.621</ele>
        <time>2022-10-23T09:13:37Z</time>
      </trkpt>
      <trkpt lat="41.693130" lon="2.262952">
        <ele>490.824</ele>
        <time>2022-10-23T09:13:38Z</time>
      </trkpt>
      <trkpt lat="41.693155" lon="2.262950">
        <ele>490.884</ele>
        <time>2022-10-23T09:13:39Z</time>
      </trkpt>
      <trkpt lat="41.693186" lon="2.262947">
        <ele>491.007</ele>
        <time>2022-10-23T09:13:40Z</time>
      </trkpt>
      <trkpt lat="41.693219" lon="2.262942">
        <ele>491.217</ele>
        <time>2022-10-23T09:13:41Z</time>
      </trkpt>
      <trkpt lat="41.693250" lon="2.262931">
        <ele>491.209</ele>
        <time>2022-10-23T09:13:42Z</time>
      </trkpt>
      <trkpt lat="41.693279" lon="2.262920">
        <ele>491.249</ele>
        <time>2022-10-23T09:13:43Z</time>
      </trkpt>
      <trkpt lat="41.693307" lon="2.262907">
        <ele>491.459</ele>
        <time>2022-10-23T09:13:44Z</time>
      </trkpt>
      <trkpt lat="41.693335" lon="2.262892">
        <ele>491.685</ele>
        <time>2022-10-23T09:13:45Z</time>
      </trkpt>
      <trkpt lat="41.693363" lon="2.262877">
        <ele>491.848</ele>
        <time>2022-10-23T09:13:46Z</time>
      </trkpt>
      <trkpt lat="41.693388" lon="2.262859">
        <ele>492.094</ele>
        <time>2022-10-23T09:13:47Z</time>
      </trkpt>
      <trkpt lat="41.693412" lon="2.262846">
        <ele>492.262</ele>
        <time>2022-10-23T09:13:48Z</time>
      </trkpt>
      <trkpt lat="41.693437" lon="2.262838">
        <ele>492.238</ele>
        <time>2022-10-23T09:13:49Z</time>
      </trkpt>
      <trkpt lat="41.693463" lon="2.262837">
        <ele>492.428</ele>
        <time>2022-10-23T09:13:50Z</time>
      </trkpt>
      <trkpt lat="41.693489" lon="2.262834">
        <ele>492.821</ele>
        <time>2022-10-23T09:13:51Z</time>
      </trkpt>
      <trkpt lat="41.693515" lon="2.262831">
        <ele>493.263</ele>
        <time>2022-10-23T09:13:52Z</time>
      </trkpt>
      <trkpt lat="41.693543" lon="2.262828">
        <ele>493.844</ele>
        <time>2022-10-23T09:13:53Z</time>
      </trkpt>
      <trkpt lat="41.693570" lon="2.262828">
        <ele>494.018</ele>
        <time>2022-10-23T09:13:54Z</time>
      </trkpt>
      <trkpt lat="41.693596" lon="2.262830">
        <ele>494.809</ele>
        <time>2022-10-23T09:13:55Z</time>
      </trkpt>
      <trkpt lat="41.693620" lon="2.262830">
        <ele>495.437</ele>
        <time>2022-10-23T09:13:56Z</time>
      </trkpt>
      <trkpt lat="41.693648" lon="2.262829">
        <ele>495.647</ele>
        <time>2022-10-23T09:13:57Z</time>
      </trkpt>
      <trkpt lat="41.693674" lon="2.262823">
        <ele>495.813</ele>
        <time>2022-10-23T09:13:58Z</time>
      </trkpt>
      <trkpt lat="41.693699" lon="2.262817">
        <ele>496.016</ele>
        <time>2022-10-23T09:13:59Z</time>
      </trkpt>
      <trkpt lat="41.693725" lon="2.262810">
        <ele>496.032</ele>
        <time>2022-10-23T09:14:00Z</time>
      </trkpt>
      <trkpt lat="41.693747" lon="2.262801">
        <ele>496.290</ele>
        <time>2022-10-23T09:14:01Z</time>
      </trkpt>
      <trkpt lat="41.693770" lon="2.262790">
        <ele>496.276</ele>
        <time>2022-10-23T09:14:02Z</time>
      </trkpt>
      <trkpt lat="41.693793" lon="2.262779">
        <ele>496.426</ele>
        <time>2022-10-23T09:14:03Z</time>
      </trkpt>
      <trkpt lat="41.693817" lon="2.262767">
        <ele>496.489</ele>
        <time>2022-10-23T09:14:04Z</time>
      </trkpt>
      <trkpt lat="41.693844" lon="2.262758">
        <ele>496.678</ele>
        <time>2022-10-23T09:14:05Z</time>
      </trkpt>
      <trkpt lat="41.693872" lon="2.262748">
        <ele>496.833</ele>
        <time>2022-10-23T09:14:06Z</time>
      </trkpt>
      <trkpt lat="41.693900" lon="2.262739">
        <ele>497.226</ele>
        <time>2022-10-23T09:14:07Z</time>
      </trkpt>
      <trkpt lat="41.693928" lon="2.262732">
        <ele>497.409</ele>
        <time>2022-10-23T09:14:08Z</time>
      </trkpt>
      <trkpt lat="41.693956" lon="2.262727">
        <ele>497.498</ele>
        <time>2022-10-23T09:14:09Z</time>
      </trkpt>
      <trkpt lat="41.693985" lon="2.262725">
        <ele>497.428</ele>
        <time>2022-10-23T09:14:10Z</time>
      </trkpt>
      <trkpt lat="41.694015" lon="2.262728">
        <ele>497.624</ele>
        <time>2022-10-23T09:14:11Z</time>
      </trkpt>
      <trkpt lat="41.694041" lon="2.262733">
        <ele>497.897</ele>
        <time>2022-10-23T09:14:12Z</time>
      </trkpt>
      <trkpt lat="41.694072" lon="2.262738">
        <ele>497.863</ele>
        <time>2022-10-23T09:14:13Z</time>
      </trkpt>
      <trkpt lat="41.694103" lon="2.262744">
        <ele>498.081</ele>
        <time>2022-10-23T09:14:14Z</time>
      </trkpt>
      <trkpt lat="41.694132" lon="2.262753">
        <ele>498.297</ele>
        <time>2022-10-23T09:14:15Z</time>
      </trkpt>
      <trkpt lat="41.694158" lon="2.262763">
        <ele>498.487</ele>
        <time>2022-10-23T09:14:16Z</time>
      </trkpt>
      <trkpt lat="41.694184" lon="2.262778">
        <ele>498.480</ele>
        <time>2022-10-23T09:14:17Z</time>
      </trkpt>
      <trkpt lat="41.694211" lon="2.262798">
        <ele>498.695</ele>
        <time>2022-10-23T09:14:18Z</time>
      </trkpt>
      <trkpt lat="41.694235" lon="2.262821">
        <ele>498.649</ele>
        <time>2022-10-23T09:14:19Z</time>
      </trkpt>
      <trkpt lat="41.694259" lon="2.262846">
        <ele>499.023</ele>
        <time>2022-10-23T09:14:20Z</time>
      </trkpt>
      <trkpt lat="41.694284" lon="2.262864">
        <ele>499.409</ele>
        <time>2022-10-23T09:14:21Z</time>
      </trkpt>
      <trkpt lat="41.694307" lon="2.262875">
        <ele>499.660</ele>
        <time>2022-10-23T09:14:22Z</time>
      </trkpt>
      <trkpt lat="41.694330" lon="2.262882">
        <ele>500.020</ele>
        <time>2022-10-23T09:14:23Z</time>
      </trkpt>
      <trkpt lat="41.694350" lon="2.262882">
        <ele>500.286</ele>
        <time>2022-10-23T09:14:24Z</time>
      </trkpt>
      <trkpt lat="41.694369" lon="2.262882">
        <ele>500.629</ele>
        <time>2022-10-23T09:14:25Z</time>
      </trkpt>
      <trkpt lat="41.694389" lon="2.262883">
        <ele>501.025</ele>
        <time>2022-10-23T09:14:26Z</time>
      </trkpt>
      <trkpt lat="41.694408" lon="2.262887">
        <ele>501.273</ele>
        <time>2022-10-23T09:14:27Z</time>
      </trkpt>
      <trkpt lat="41.694427" lon="2.262894">
        <ele>501.659</ele>
        <time>2022-10-23T09:14:28Z</time>
      </trkpt>
      <trkpt lat="41.694444" lon="2.262906">
        <ele>502.019</ele>
        <time>2022-10-23T09:14:29Z</time>
      </trkpt>
      <trkpt lat="41.694462" lon="2.262920">
        <ele>502.632</ele>
        <time>2022-10-23T09:14:30Z</time>
      </trkpt>
      <trkpt lat="41.694482" lon="2.262937">
        <ele>503.264</ele>
        <time>2022-10-23T09:14:31Z</time>
      </trkpt>
      <trkpt lat="41.694499" lon="2.262954">
        <ele>503.606</ele>
        <time>2022-10-23T09:14:32Z</time>
      </trkpt>
      <trkpt lat="41.694520" lon="2.262962">
        <ele>504.016</ele>
        <time>2022-10-23T09:14:33Z</time>
      </trkpt>
      <trkpt lat="41.694539" lon="2.262964">
        <ele>504.209</ele>
        <time>2022-10-23T09:14:34Z</time>
      </trkpt>
      <trkpt lat="41.694556" lon="2.262956">
        <ele>504.667</ele>
        <time>2022-10-23T09:14:35Z</time>
      </trkpt>
      <trkpt lat="41.694566" lon="2.262942">
        <ele>504.817</ele>
        <time>2022-10-23T09:14:36Z</time>
      </trkpt>
      <trkpt lat="41.694571" lon="2.262928">
        <ele>505.043</ele>
        <time>2022-10-23T09:14:37Z</time>
      </trkpt>
      <trkpt lat="41.694570" lon="2.262925">
        <ele>505.466</ele>
        <time>2022-10-23T09:14:38Z</time>
      </trkpt>
      <trkpt lat="41.694572" lon="2.262924">
        <ele>505.652</ele>
        <time>2022-10-23T09:14:39Z</time>
      </trkpt>
      <trkpt lat="41.694574" lon="2.262926">
        <ele>505.850</ele>
        <time>2022-10-23T09:14:40Z</time>
      </trkpt>
      <trkpt lat="41.694547" lon="2.262932">
        <ele>506.456</ele>
        <time>2022-10-23T09:16:10Z</time>
      </trkpt>
      <trkpt lat="41.694529" lon="2.262931">
        <ele>506.466</ele>
        <time>2022-10-23T09:16:11Z</time>
      </trkpt>
      <trkpt lat="41.694506" lon="2.262937">
        <ele>506.419</ele>
        <time>2022-10-23T09:16:12Z</time>
      </trkpt>
      <trkpt lat="41.694474" lon="2.262950">
        <ele>506.488</ele>
        <time>2022-10-23T09:16:13Z</time>
      </trkpt>
      <trkpt lat="41.694438" lon="2.262971">
        <ele>506.424</ele>
        <time>2022-10-23T09:16:14Z</time>
      </trkpt>
      <trkpt lat="41.694400" lon="2.262998">
        <ele>506.226</ele>
        <time>2022-10-23T09:16:15Z</time>
      </trkpt>
      <trkpt lat="41.694362" lon="2.263019">
        <ele>506.209</ele>
        <time>2022-10-23T09:16:16Z</time>
      </trkpt>
      <trkpt lat="41.694324" lon="2.263031">
        <ele>506.229</ele>
        <time>2022-10-23T09:16:17Z</time>
      </trkpt>
      <trkpt lat="41.694288" lon="2.263045">
        <ele>506.279</ele>
        <time>2022-10-23T09:16:18Z</time>
      </trkpt>
      <trkpt lat="41.694251" lon="2.263055">
        <ele>506.255</ele>
        <time>2022-10-23T09:16:19Z</time>
      </trkpt>
      <trkpt lat="41.694219" lon="2.263065">
        <ele>506.218</ele>
        <time>2022-10-23T09:16:20Z</time>
      </trkpt>
      <trkpt lat="41.694195" lon="2.263087">
        <ele>506.494</ele>
        <time>2022-10-23T09:16:21Z</time>
      </trkpt>
      <trkpt lat="41.694174" lon="2.263115">
        <ele>506.492</ele>
        <time>2022-10-23T09:16:22Z</time>
      </trkpt>
      <trkpt lat="41.694154" lon="2.263140">
        <ele>506.428</ele>
        <time>2022-10-23T09:16:23Z</time>
      </trkpt>
      <trkpt lat="41.694134" lon="2.263162">
        <ele>506.488</ele>
        <time>2022-10-23T09:16:24Z</time>
      </trkpt>
      <trkpt lat="41.694115" lon="2.263175">
        <ele>506.421</ele>
        <time>2022-10-23T09:16:25Z</time>
      </trkpt>
      <trkpt lat="41.694098" lon="2.263181">
        <ele>506.433</ele>
        <time>2022-10-23T09:16:26Z</time>
      </trkpt>
      <trkpt lat="41.694080" lon="2.263185">
        <ele>506.423</ele>
        <time>2022-10-23T09:16:27Z</time>
      </trkpt>
      <trkpt lat="41.694060" lon="2.263189">
        <ele>506.615</ele>
        <time>2022-10-23T09:16:28Z</time>
      </trkpt>
      <trkpt lat="41.694041" lon="2.263194">
        <ele>506.809</ele>
        <time>2022-10-23T09:16:29Z</time>
      </trkpt>
      <trkpt lat="41.694029" lon="2.263196">
        <ele>507.214</ele>
        <time>2022-10-23T09:16:30Z</time>
      </trkpt>
      <trkpt lat="41.694026" lon="2.263199">
        <ele>507.664</ele>
        <time>2022-10-23T09:16:31Z</time>
      </trkpt>
      <trkpt lat="41.694026" lon="2.263199">
        <ele>508.020</ele>
        <time>2022-10-23T09:16:32Z</time>
      </trkpt>
      <trkpt lat="41.693976" lon="2.263244">
        <ele>510.033</ele>
        <time>2022-10-23T09:16:42Z</time>
      </trkpt>
      <trkpt lat="41.693953" lon="2.263264">
        <ele>510.089</ele>
        <time>2022-10-23T09:16:43Z</time>
      </trkpt>
      <trkpt lat="41.693932" lon="2.263279">
        <ele>510.017</ele>
        <time>2022-10-23T09:16:44Z</time>
      </trkpt>
      <trkpt lat="41.693908" lon="2.263291">
        <ele>510.283</ele>
        <time>2022-10-23T09:16:45Z</time>
      </trkpt>
      <trkpt lat="41.693883" lon="2.263296">
        <ele>510.213</ele>
        <time>2022-10-23T09:16:46Z</time>
      </trkpt>
      <trkpt lat="41.693857" lon="2.263296">
        <ele>510.216</ele>
        <time>2022-10-23T09:16:47Z</time>
      </trkpt>
      <trkpt lat="41.693835" lon="2.263306">
        <ele>510.229</ele>
        <time>2022-10-23T09:16:48Z</time>
      </trkpt>
      <trkpt lat="41.693817" lon="2.263318">
        <ele>510.200</ele>
        <time>2022-10-23T09:16:49Z</time>
      </trkpt>
      <trkpt lat="41.693797" lon="2.263323">
        <ele>510.220</ele>
        <time>2022-10-23T09:16:50Z</time>
      </trkpt>
      <trkpt lat="41.693774" lon="2.263324">
        <ele>510.209</ele>
        <time>2022-10-23T09:16:51Z</time>
      </trkpt>
      <trkpt lat="41.693748" lon="2.263328">
        <ele>510.273</ele>
        <time>2022-10-23T09:16:52Z</time>
      </trkpt>
      <trkpt lat="41.693724" lon="2.263343">
        <ele>510.283</ele>
        <time>2022-10-23T09:16:53Z</time>
      </trkpt>
      <trkpt lat="41.693699" lon="2.263366">
        <ele>510.629</ele>
        <time>2022-10-23T09:16:54Z</time>
      </trkpt>
      <trkpt lat="41.693676" lon="2.263384">
        <ele>510.852</ele>
        <time>2022-10-23T09:16:55Z</time>
      </trkpt>
      <trkpt lat="41.693655" lon="2.263396">
        <ele>511.228</ele>
        <time>2022-10-23T09:16:56Z</time>
      </trkpt>
      <trkpt lat="41.693633" lon="2.263405">
        <ele>511.436</ele>
        <time>2022-10-23T09:16:57Z</time>
      </trkpt>
      <trkpt lat="41.693612" lon="2.263405">
        <ele>511.642</ele>
        <time>2022-10-23T09:16:58Z</time>
      </trkpt>
      <trkpt lat="41.693590" lon="2.263410">
        <ele>511.832</ele>
        <time>2022-10-23T09:16:59Z</time>
      </trkpt>
      <trkpt lat="41.693565" lon="2.263431">
        <ele>511.815</ele>
        <time>2022-10-23T09:17:00Z</time>
      </trkpt>
      <trkpt lat="41.693536" lon="2.263469">
        <ele>511.825</ele>
        <time>2022-10-23T09:17:01Z</time>
      </trkpt>
      <trkpt lat="41.693503" lon="2.263492">
        <ele>511.826</ele>
        <time>2022-10-23T09:17:02Z</time>
      </trkpt>
      <trkpt lat="41.693469" lon="2.263496">
        <ele>511.808</ele>
        <time>2022-10-23T09:17:03Z</time>
      </trkpt>
      <trkpt lat="41.693435" lon="2.263477">
        <ele>511.809</ele>
        <time>2022-10-23T09:17:04Z</time>
      </trkpt>
      <trkpt lat="41.693401" lon="2.263449">
        <ele>511.883</ele>
        <time>2022-10-23T09:17:05Z</time>
      </trkpt>
      <trkpt lat="41.693367" lon="2.263432">
        <ele>511.453</ele>
        <time>2022-10-23T09:17:06Z</time>
      </trkpt>
      <trkpt lat="41.693325" lon="2.263431">
        <ele>511.049</ele>
        <time>2022-10-23T09:17:07Z</time>
      </trkpt>
      <trkpt lat="41.693279" lon="2.263453">
        <ele>510.632</ele>
        <time>2022-10-23T09:17:08Z</time>
      </trkpt>
      <trkpt lat="41.693232" lon="2.263468">
        <ele>510.038</ele>
        <time>2022-10-23T09:17:09Z</time>
      </trkpt>
      <trkpt lat="41.693186" lon="2.263480">
        <ele>509.436</ele>
        <time>2022-10-23T09:17:10Z</time>
      </trkpt>
      <trkpt lat="41.693148" lon="2.263481">
        <ele>508.412</ele>
        <time>2022-10-23T09:17:11Z</time>
      </trkpt>
      <trkpt lat="41.693114" lon="2.263464">
        <ele>507.042</ele>
        <time>2022-10-23T09:17:12Z</time>
      </trkpt>
      <trkpt lat="41.693085" lon="2.263442">
        <ele>506.015</ele>
        <time>2022-10-23T09:17:13Z</time>
      </trkpt>
      <trkpt lat="41.693048" lon="2.263420">
        <ele>505.446</ele>
        <time>2022-10-23T09:17:14Z</time>
      </trkpt>
      <trkpt lat="41.693004" lon="2.263409">
        <ele>504.888</ele>
        <time>2022-10-23T09:17:15Z</time>
      </trkpt>
      <trkpt lat="41.692961" lon="2.263414">
        <ele>504.416</ele>
        <time>2022-10-23T09:17:16Z</time>
      </trkpt>
      <trkpt lat="41.692923" lon="2.263421">
        <ele>504.009</ele>
        <time>2022-10-23T09:17:17Z</time>
      </trkpt>
      <trkpt lat="41.692883" lon="2.263423">
        <ele>503.635</ele>
        <time>2022-10-23T09:17:18Z</time>
      </trkpt>
      <trkpt lat="41.692826" lon="2.263427">
        <ele>502.835</ele>
        <time>2022-10-23T09:17:19Z</time>
      </trkpt>
      <trkpt lat="41.692779" lon="2.263426">
        <ele>502.211</ele>
        <time>2022-10-23T09:17:20Z</time>
      </trkpt>
      <trkpt lat="41.692736" lon="2.263418">
        <ele>501.474</ele>
        <time>2022-10-23T09:17:21Z</time>
      </trkpt>
      <trkpt lat="41.692689" lon="2.263402">
        <ele>500.670</ele>
        <time>2022-10-23T09:17:22Z</time>
      </trkpt>
      <trkpt lat="41.692637" lon="2.263383">
        <ele>500.088</ele>
        <time>2022-10-23T09:17:23Z</time>
      </trkpt>
      <trkpt lat="41.692592" lon="2.263362">
        <ele>499.254</ele>
        <time>2022-10-23T09:17:24Z</time>
      </trkpt>
      <trkpt lat="41.692549" lon="2.263363">
        <ele>498.234</ele>
        <time>2022-10-23T09:17:25Z</time>
      </trkpt>
      <trkpt lat="41.692510" lon="2.263390">
        <ele>497.687</ele>
        <time>2022-10-23T09:17:26Z</time>
      </trkpt>
      <trkpt lat="41.692473" lon="2.263417">
        <ele>496.673</ele>
        <time>2022-10-23T09:17:27Z</time>
      </trkpt>
      <trkpt lat="41.692436" lon="2.263422">
        <ele>495.885</ele>
        <time>2022-10-23T09:17:28Z</time>
      </trkpt>
      <trkpt lat="41.692401" lon="2.263414">
        <ele>494.813</ele>
        <time>2022-10-23T09:17:29Z</time>
      </trkpt>
      <trkpt lat="41.692369" lon="2.263404">
        <ele>493.809</ele>
        <time>2022-10-23T09:17:30Z</time>
      </trkpt>
      <trkpt lat="41.692338" lon="2.263389">
        <ele>493.028</ele>
        <time>2022-10-23T09:17:31Z</time>
      </trkpt>
      <trkpt lat="41.692312" lon="2.263367">
        <ele>491.838</ele>
        <time>2022-10-23T09:17:32Z</time>
      </trkpt>
      <trkpt lat="41.692292" lon="2.263345">
        <ele>488.634</ele>
        <time>2022-10-23T09:17:33Z</time>
      </trkpt>
      <trkpt lat="41.692266" lon="2.263322">
        <ele>487.837</ele>
        <time>2022-10-23T09:17:34Z</time>
      </trkpt>
      <trkpt lat="41.692244" lon="2.263297">
        <ele>486.653</ele>
        <time>2022-10-23T09:17:35Z</time>
      </trkpt>
      <trkpt lat="41.692222" lon="2.263275">
        <ele>485.891</ele>
        <time>2022-10-23T09:17:36Z</time>
      </trkpt>
      <trkpt lat="41.692172" lon="2.263239">
        <ele>485.477</ele>
        <time>2022-10-23T09:17:37Z</time>
      </trkpt>
      <trkpt lat="41.692129" lon="2.263197">
        <ele>485.037</ele>
        <time>2022-10-23T09:17:38Z</time>
      </trkpt>
      <trkpt lat="41.692095" lon="2.263159">
        <ele>484.240</ele>
        <time>2022-10-23T09:17:39Z</time>
      </trkpt>
      <trkpt lat="41.692060" lon="2.263135">
        <ele>483.864</ele>
        <time>2022-10-23T09:17:40Z</time>
      </trkpt>
      <trkpt lat="41.692024" lon="2.263129">
        <ele>483.406</ele>
        <time>2022-10-23T09:17:41Z</time>
      </trkpt>
      <trkpt lat="41.691996" lon="2.263146">
        <ele>483.216</ele>
        <time>2022-10-23T09:17:42Z</time>
      </trkpt>
      <trkpt lat="41.691975" lon="2.263170">
        <ele>483.209</ele>
        <time>2022-10-23T09:17:43Z</time>
      </trkpt>
      <trkpt lat="41.691946" lon="2.263193">
        <ele>482.827</ele>
        <time>2022-10-23T09:17:44Z</time>
      </trkpt>
      <trkpt lat="41.691920" lon="2.263218">
        <ele>481.867</ele>
        <time>2022-10-23T09:17:45Z</time>
      </trkpt>
      <trkpt lat="41.691889" lon="2.263246">
        <ele>480.853</ele>
        <time>2022-10-23T09:17:46Z</time>
      </trkpt>
      <trkpt lat="41.691850" lon="2.263271">
        <ele>479.886</ele>
        <time>2022-10-23T09:17:47Z</time>
      </trkpt>
      <trkpt lat="41.691813" lon="2.263281">
        <ele>478.662</ele>
        <time>2022-10-23T09:17:48Z</time>
      </trkpt>
      <trkpt lat="41.691777" lon="2.263288">
        <ele>477.620</ele>
        <time>2022-10-23T09:17:49Z</time>
      </trkpt>
      <trkpt lat="41.691737" lon="2.263305">
        <ele>476.876</ele>
        <time>2022-10-23T09:17:50Z</time>
      </trkpt>
      <trkpt lat="41.691695" lon="2.263341">
        <ele>476.296</ele>
        <time>2022-10-23T09:17:51Z</time>
      </trkpt>
      <trkpt lat="41.691661" lon="2.263400">
        <ele>475.899</ele>
        <time>2022-10-23T09:17:52Z</time>
      </trkpt>
      <trkpt lat="41.691634" lon="2.263458">
        <ele>474.897</ele>
        <time>2022-10-23T09:17:53Z</time>
      </trkpt>
      <trkpt lat="41.691614" lon="2.263503">
        <ele>473.823</ele>
        <time>2022-10-23T09:17:54Z</time>
      </trkpt>
      <trkpt lat="41.691595" lon="2.263545">
        <ele>472.225</ele>
        <time>2022-10-23T09:17:55Z</time>
      </trkpt>
      <trkpt lat="41.691562" lon="2.263591">
        <ele>470.609</ele>
        <time>2022-10-23T09:17:56Z</time>
      </trkpt>
      <trkpt lat="41.691523" lon="2.263644">
        <ele>469.660</ele>
        <time>2022-10-23T09:17:57Z</time>
      </trkpt>
      <trkpt lat="41.691478" lon="2.263700">
        <ele>468.480</ele>
        <time>2022-10-23T09:17:58Z</time>
      </trkpt>
      <trkpt lat="41.691425" lon="2.263756">
        <ele>466.846</ele>
        <time>2022-10-23T09:17:59Z</time>
      </trkpt>
      <trkpt lat="41.691365" lon="2.263806">
        <ele>465.029</ele>
        <time>2022-10-23T09:18:00Z</time>
      </trkpt>
      <trkpt lat="41.691303" lon="2.263851">
        <ele>462.495</ele>
        <time>2022-10-23T09:18:01Z</time>
      </trkpt>
      <trkpt lat="41.691243" lon="2.263894">
        <ele>461.813</ele>
        <time>2022-10-23T09:18:02Z</time>
      </trkpt>
      <trkpt lat="41.691192" lon="2.263929">
        <ele>460.829</ele>
        <time>2022-10-23T09:18:03Z</time>
      </trkpt>
      <trkpt lat="41.691130" lon="2.263948">
        <ele>459.619</ele>
        <time>2022-10-23T09:18:04Z</time>
      </trkpt>
      <trkpt lat="41.691079" lon="2.263964">
        <ele>458.472</ele>
        <time>2022-10-23T09:18:05Z</time>
      </trkpt>
      <trkpt lat="41.691042" lon="2.263970">
        <ele>457.493</ele>
        <time>2022-10-23T09:18:06Z</time>
      </trkpt>
      <trkpt lat="41.691010" lon="2.263970">
        <ele>456.865</ele>
        <time>2022-10-23T09:18:07Z</time>
      </trkpt>
      <trkpt lat="41.690987" lon="2.263972">
        <ele>455.821</ele>
        <time>2022-10-23T09:18:08Z</time>
      </trkpt>
      <trkpt lat="41.690965" lon="2.263973">
        <ele>454.809</ele>
        <time>2022-10-23T09:18:09Z</time>
      </trkpt>
      <trkpt lat="41.690944" lon="2.263978">
        <ele>453.870</ele>
        <time>2022-10-23T09:18:10Z</time>
      </trkpt>
      <trkpt lat="41.690921" lon="2.263979">
        <ele>452.890</ele>
        <time>2022-10-23T09:18:11Z</time>
      </trkpt>
      <trkpt lat="41.690900" lon="2.263985">
        <ele>452.256</ele>
        <time>2022-10-23T09:18:12Z</time>
      </trkpt>
      <trkpt lat="41.690874" lon="2.264003">
        <ele>451.849</ele>
        <time>2022-10-23T09:18:13Z</time>
      </trkpt>
      <trkpt lat="41.690834" lon="2.264017">
        <ele>451.655</ele>
        <time>2022-10-23T09:18:14Z</time>
      </trkpt>
      <trkpt lat="41.690796" lon="2.264026">
        <ele>451.473</ele>
        <time>2022-10-23T09:18:15Z</time>
      </trkpt>
      <trkpt lat="41.690769" lon="2.264035">
        <ele>451.259</ele>
        <time>2022-10-23T09:18:16Z</time>
      </trkpt>
      <trkpt lat="41.690754" lon="2.264044">
        <ele>451.229</ele>
        <time>2022-10-23T09:18:17Z</time>
      </trkpt>
      <trkpt lat="41.690729" lon="2.264058">
        <ele>451.052</ele>
        <time>2022-10-23T09:18:18Z</time>
      </trkpt>
      <trkpt lat="41.690700" lon="2.264061">
        <ele>450.885</ele>
        <time>2022-10-23T09:18:19Z</time>
      </trkpt>
      <trkpt lat="41.690675" lon="2.264066">
        <ele>450.689</ele>
        <time>2022-10-23T09:18:20Z</time>
      </trkpt>
      <trkpt lat="41.690663" lon="2.264070">
        <ele>450.217</ele>
        <time>2022-10-23T09:18:21Z</time>
      </trkpt>
      <trkpt lat="41.690654" lon="2.264079">
        <ele>450.009</ele>
        <time>2022-10-23T09:18:22Z</time>
      </trkpt>
      <trkpt lat="41.690647" lon="2.264087">
        <ele>449.869</ele>
        <time>2022-10-23T09:18:23Z</time>
      </trkpt>
      <trkpt lat="41.690548" lon="2.264093">
        <ele>447.499</ele>
        <time>2022-10-23T09:18:56Z</time>
      </trkpt>
      <trkpt lat="41.690519" lon="2.264086">
        <ele>447.475</ele>
        <time>2022-10-23T09:18:57Z</time>
      </trkpt>
      <trkpt lat="41.690485" lon="2.264080">
        <ele>447.448</ele>
        <time>2022-10-23T09:18:58Z</time>
      </trkpt>
      <trkpt lat="41.690447" lon="2.264067">
        <ele>447.414</ele>
        <time>2022-10-23T09:18:59Z</time>
      </trkpt>
      <trkpt lat="41.690406" lon="2.264054">
        <ele>447.462</ele>
        <time>2022-10-23T09:19:00Z</time>
      </trkpt>
      <trkpt lat="41.690358" lon="2.264045">
        <ele>447.488</ele>
        <time>2022-10-23T09:19:01Z</time>
      </trkpt>
      <trkpt lat="41.690311" lon="2.264032">
        <ele>447.418</ele>
        <time>2022-10-23T09:19:02Z</time>
      </trkpt>
      <trkpt lat="41.690269" lon="2.264020">
        <ele>447.431</ele>
        <time>2022-10-23T09:19:03Z</time>
      </trkpt>
      <trkpt lat="41.690228" lon="2.264023">
        <ele>447.492</ele>
        <time>2022-10-23T09:19:04Z</time>
      </trkpt>
      <trkpt lat="41.690195" lon="2.264035">
        <ele>447.273</ele>
        <time>2022-10-23T09:19:05Z</time>
      </trkpt>
      <trkpt lat="41.690172" lon="2.264044">
        <ele>446.820</ele>
        <time>2022-10-23T09:19:06Z</time>
      </trkpt>
      <trkpt lat="41.690164" lon="2.264047">
        <ele>446.609</ele>
        <time>2022-10-23T09:19:07Z</time>
      </trkpt>
      <trkpt lat="41.690162" lon="2.264047">
        <ele>446.050</ele>
        <time>2022-10-23T09:19:08Z</time>
      </trkpt>
      <trkpt lat="41.690119" lon="2.264091">
        <ele>444.010</ele>
        <time>2022-10-23T09:19:12Z</time>
      </trkpt>
      <trkpt lat="41.690108" lon="2.264103">
        <ele>443.246</ele>
        <time>2022-10-23T09:19:13Z</time>
      </trkpt>
      <trkpt lat="41.690102" lon="2.264112">
        <ele>442.689</ele>
        <time>2022-10-23T09:19:14Z</time>
      </trkpt>
      <trkpt lat="41.690097" lon="2.264122">
        <ele>442.295</ele>
        <time>2022-10-23T09:19:15Z</time>
      </trkpt>
      <trkpt lat="41.690093" lon="2.264126">
        <ele>442.073</ele>
        <time>2022-10-23T09:19:16Z</time>
      </trkpt>
      <trkpt lat="41.690091" lon="2.264127">
        <ele>442.049</ele>
        <time>2022-10-23T09:19:17Z</time>
      </trkpt>
      <trkpt lat="41.690027" lon="2.264109">
        <ele>441.219</ele>
        <time>2022-10-23T09:19:30Z</time>
      </trkpt>
      <trkpt lat="41.689998" lon="2.264110">
        <ele>441.212</ele>
        <time>2022-10-23T09:19:31Z</time>
      </trkpt>
      <trkpt lat="41.689960" lon="2.264102">
        <ele>441.214</ele>
        <time>2022-10-23T09:19:32Z</time>
      </trkpt>
      <trkpt lat="41.689917" lon="2.264087">
        <ele>441.254</ele>
        <time>2022-10-23T09:19:33Z</time>
      </trkpt>
      <trkpt lat="41.689872" lon="2.264076">
        <ele>441.209</ele>
        <time>2022-10-23T09:19:34Z</time>
      </trkpt>
      <trkpt lat="41.689821" lon="2.264077">
        <ele>441.209</ele>
        <time>2022-10-23T09:19:35Z</time>
      </trkpt>
      <trkpt lat="41.689767" lon="2.264084">
        <ele>441.072</ele>
        <time>2022-10-23T09:19:36Z</time>
      </trkpt>
      <trkpt lat="41.689716" lon="2.264093">
        <ele>441.082</ele>
        <time>2022-10-23T09:19:37Z</time>
      </trkpt>
      <trkpt lat="41.689672" lon="2.264101">
        <ele>440.848</ele>
        <time>2022-10-23T09:19:38Z</time>
      </trkpt>
      <trkpt lat="41.689633" lon="2.264103">
        <ele>440.431</ele>
        <time>2022-10-23T09:19:39Z</time>
      </trkpt>
      <trkpt lat="41.689593" lon="2.264109">
        <ele>439.887</ele>
        <time>2022-10-23T09:19:40Z</time>
      </trkpt>
      <trkpt lat="41.689549" lon="2.264129">
        <ele>439.295</ele>
        <time>2022-10-23T09:19:41Z</time>
      </trkpt>
      <trkpt lat="41.689504" lon="2.264152">
        <ele>438.431</ele>
        <time>2022-10-23T09:19:42Z</time>
      </trkpt>
      <trkpt lat="41.689466" lon="2.264160">
        <ele>438.081</ele>
        <time>2022-10-23T09:19:43Z</time>
      </trkpt>
      <trkpt lat="41.689428" lon="2.264151">
        <ele>437.434</ele>
        <time>2022-10-23T09:19:44Z</time>
      </trkpt>
      <trkpt lat="41.689388" lon="2.264134">
        <ele>437.098</ele>
        <time>2022-10-23T09:19:45Z</time>
      </trkpt>
      <trkpt lat="41.689340" lon="2.264127">
        <ele>436.815</ele>
        <time>2022-10-23T09:19:46Z</time>
      </trkpt>
      <trkpt lat="41.689301" lon="2.264132">
        <ele>436.626</ele>
        <time>2022-10-23T09:19:47Z</time>
      </trkpt>
      <trkpt lat="41.689253" lon="2.264151">
        <ele>436.209</ele>
        <time>2022-10-23T09:19:48Z</time>
      </trkpt>
      <trkpt lat="41.689209" lon="2.264175">
        <ele>435.870</ele>
        <time>2022-10-23T09:19:49Z</time>
      </trkpt>
      <trkpt lat="41.689159" lon="2.264206">
        <ele>435.650</ele>
        <time>2022-10-23T09:19:50Z</time>
      </trkpt>
      <trkpt lat="41.689104" lon="2.264234">
        <ele>435.476</ele>
        <time>2022-10-23T09:19:51Z</time>
      </trkpt>
      <trkpt lat="41.689049" lon="2.264257">
        <ele>434.629</ele>
        <time>2022-10-23T09:19:52Z</time>
      </trkpt>
      <trkpt lat="41.688998" lon="2.264288">
        <ele>434.485</ele>
        <time>2022-10-23T09:19:53Z</time>
      </trkpt>
      <trkpt lat="41.688946" lon="2.264317">
        <ele>434.233</ele>
        <time>2022-10-23T09:19:54Z</time>
      </trkpt>
      <trkpt lat="41.688895" lon="2.264340">
        <ele>434.219</ele>
        <time>2022-10-23T09:19:55Z</time>
      </trkpt>
      <trkpt lat="41.688843" lon="2.264359">
        <ele>434.099</ele>
        <time>2022-10-23T09:19:56Z</time>
      </trkpt>
      <trkpt lat="41.688797" lon="2.264362">
        <ele>434.022</ele>
        <time>2022-10-23T09:19:57Z</time>
      </trkpt>
      <trkpt lat="41.688743" lon="2.264351">
        <ele>433.873</ele>
        <time>2022-10-23T09:19:58Z</time>
      </trkpt>
      <trkpt lat="41.688689" lon="2.264348">
        <ele>433.885</ele>
        <time>2022-10-23T09:19:59Z</time>
      </trkpt>
      <trkpt lat="41.688632" lon="2.264361">
        <ele>433.613</ele>
        <time>2022-10-23T09:20:00Z</time>
      </trkpt>
      <trkpt lat="41.688581" lon="2.264371">
        <ele>433.609</ele>
        <time>2022-10-23T09:20:01Z</time>
      </trkpt>
      <trkpt lat="41.688530" lon="2.264373">
        <ele>433.668</ele>
        <time>2022-10-23T09:20:02Z</time>
      </trkpt>
      <trkpt lat="41.688486" lon="2.264357">
        <ele>433.498</ele>
        <time>2022-10-23T09:20:03Z</time>
      </trkpt>
      <trkpt lat="41.688444" lon="2.264333">
        <ele>433.484</ele>
        <time>2022-10-23T09:20:04Z</time>
      </trkpt>
      <trkpt lat="41.688403" lon="2.264323">
        <ele>433.497</ele>
        <time>2022-10-23T09:20:05Z</time>
      </trkpt>
      <trkpt lat="41.688364" lon="2.264326">
        <ele>433.273</ele>
        <time>2022-10-23T09:20:06Z</time>
      </trkpt>
      <trkpt lat="41.688326" lon="2.264337">
        <ele>433.021</ele>
        <time>2022-10-23T09:20:07Z</time>
      </trkpt>
      <trkpt lat="41.688287" lon="2.264359">
        <ele>432.857</ele>
        <time>2022-10-23T09:20:08Z</time>
      </trkpt>
      <trkpt lat="41.688240" lon="2.264386">
        <ele>432.467</ele>
        <time>2022-10-23T09:20:09Z</time>
      </trkpt>
      <trkpt lat="41.688193" lon="2.264409">
        <ele>431.230</ele>
        <time>2022-10-23T09:20:10Z</time>
      </trkpt>
      <trkpt lat="41.688138" lon="2.264428">
        <ele>429.618</ele>
        <time>2022-10-23T09:20:11Z</time>
      </trkpt>
      <trkpt lat="41.688091" lon="2.264452">
        <ele>428.498</ele>
        <time>2022-10-23T09:20:12Z</time>
      </trkpt>
      <trkpt lat="41.688045" lon="2.264482">
        <ele>427.017</ele>
        <time>2022-10-23T09:20:13Z</time>
      </trkpt>
      <trkpt lat="41.687994" lon="2.264511">
        <ele>426.009</ele>
        <time>2022-10-23T09:20:14Z</time>
      </trkpt>
      <trkpt lat="41.687938" lon="2.264554">
        <ele>425.612</ele>
        <time>2022-10-23T09:20:15Z</time>
      </trkpt>
      <trkpt lat="41.687874" lon="2.264589">
        <ele>425.212</ele>
        <time>2022-10-23T09:20:16Z</time>
      </trkpt>
      <trkpt lat="41.687813" lon="2.264626">
        <ele>425.038</ele>
        <time>2022-10-23T09:20:17Z</time>
      </trkpt>
      <trkpt lat="41.687745" lon="2.264655">
        <ele>424.811</ele>
        <time>2022-10-23T09:20:18Z</time>
      </trkpt>
      <trkpt lat="41.687687" lon="2.264674">
        <ele>424.017</ele>
        <time>2022-10-23T09:20:19Z</time>
      </trkpt>
      <trkpt lat="41.687635" lon="2.264681">
        <ele>423.635</ele>
        <time>2022-10-23T09:20:20Z</time>
      </trkpt>
      <trkpt lat="41.687588" lon="2.264685">
        <ele>423.451</ele>
        <time>2022-10-23T09:20:21Z</time>
      </trkpt>
      <trkpt lat="41.687555" lon="2.264693">
        <ele>423.231</ele>
        <time>2022-10-23T09:20:22Z</time>
      </trkpt>
      <trkpt lat="41.687536" lon="2.264708">
        <ele>423.224</ele>
        <time>2022-10-23T09:20:23Z</time>
      </trkpt>
      <trkpt lat="41.687520" lon="2.264726">
        <ele>423.038</ele>
        <time>2022-10-23T09:20:24Z</time>
      </trkpt>
      <trkpt lat="41.687504" lon="2.264738">
        <ele>423.070</ele>
        <time>2022-10-23T09:20:25Z</time>
      </trkpt>
      <trkpt lat="41.687494" lon="2.264753">
        <ele>422.817</ele>
        <time>2022-10-23T09:20:26Z</time>
      </trkpt>
      <trkpt lat="41.687484" lon="2.264770">
        <ele>422.209</ele>
        <time>2022-10-23T09:20:27Z</time>
      </trkpt>
      <trkpt lat="41.687472" lon="2.264785">
        <ele>421.684</ele>
        <time>2022-10-23T09:20:28Z</time>
      </trkpt>
      <trkpt lat="41.687458" lon="2.264802">
        <ele>421.444</ele>
        <time>2022-10-23T09:20:29Z</time>
      </trkpt>
      <trkpt lat="41.687443" lon="2.264815">
        <ele>421.240</ele>
        <time>2022-10-23T09:20:30Z</time>
      </trkpt>
      <trkpt lat="41.687429" lon="2.264829">
        <ele>421.033</ele>
        <time>2022-10-23T09:20:31Z</time>
      </trkpt>
      <trkpt lat="41.687416" lon="2.264844">
        <ele>421.019</ele>
        <time>2022-10-23T09:20:32Z</time>
      </trkpt>
      <trkpt lat="41.687404" lon="2.264853">
        <ele>421.047</ele>
        <time>2022-10-23T09:20:33Z</time>
      </trkpt>
      <trkpt lat="41.687387" lon="2.264859">
        <ele>421.083</ele>
        <time>2022-10-23T09:20:34Z</time>
      </trkpt>
      <trkpt lat="41.687372" lon="2.264864">
        <ele>421.053</ele>
        <time>2022-10-23T09:20:35Z</time>
      </trkpt>
      <trkpt lat="41.687360" lon="2.264875">
        <ele>421.016</ele>
        <time>2022-10-23T09:20:36Z</time>
      </trkpt>
      <trkpt lat="41.687349" lon="2.264891">
        <ele>421.031</ele>
        <time>2022-10-23T09:20:37Z</time>
      </trkpt>
      <trkpt lat="41.687337" lon="2.264903">
        <ele>421.061</ele>
        <time>2022-10-23T09:20:38Z</time>
      </trkpt>
      <trkpt lat="41.687326" lon="2.264912">
        <ele>421.207</ele>
        <time>2022-10-23T09:20:39Z</time>
      </trkpt>
      <trkpt lat="41.687314" lon="2.264919">
        <ele>421.409</ele>
        <time>2022-10-23T09:20:40Z</time>
      </trkpt>
      <trkpt lat="41.687303" lon="2.264929">
        <ele>421.424</ele>
        <time>2022-10-23T09:20:41Z</time>
      </trkpt>
      <trkpt lat="41.687290" lon="2.264940">
        <ele>421.624</ele>
        <time>2022-10-23T09:20:42Z</time>
      </trkpt>
      <trkpt lat="41.687275" lon="2.264950">
        <ele>421.630</ele>
        <time>2022-10-23T09:20:43Z</time>
      </trkpt>
      <trkpt lat="41.687261" lon="2.264963">
        <ele>422.013</ele>
        <time>2022-10-23T09:20:44Z</time>
      </trkpt>
      <trkpt lat="41.687246" lon="2.264980">
        <ele>422.069</ele>
        <time>2022-10-23T09:20:45Z</time>
      </trkpt>
      <trkpt lat="41.687231" lon="2.264998">
        <ele>422.027</ele>
        <time>2022-10-23T09:20:46Z</time>
      </trkpt>
      <trkpt lat="41.687214" lon="2.265016">
        <ele>422.013</ele>
        <time>2022-10-23T09:20:47Z</time>
      </trkpt>
      <trkpt lat="41.687196" lon="2.265036">
        <ele>422.083</ele>
        <time>2022-10-23T09:20:48Z</time>
      </trkpt>
      <trkpt lat="41.687178" lon="2.265063">
        <ele>422.056</ele>
        <time>2022-10-23T09:20:49Z</time>
      </trkpt>
      <trkpt lat="41.687159" lon="2.265090">
        <ele>422.036</ele>
        <time>2022-10-23T09:20:50Z</time>
      </trkpt>
      <trkpt lat="41.687141" lon="2.265119">
        <ele>422.017</ele>
        <time>2022-10-23T09:20:51Z</time>
      </trkpt>
      <trkpt lat="41.687124" lon="2.265148">
        <ele>422.018</ele>
        <time>2022-10-23T09:20:52Z</time>
      </trkpt>
      <trkpt lat="41.687107" lon="2.265177">
        <ele>422.009</ele>
        <time>2022-10-23T09:20:53Z</time>
      </trkpt>
      <trkpt lat="41.687092" lon="2.265208">
        <ele>421.824</ele>
        <time>2022-10-23T09:20:54Z</time>
      </trkpt>
      <trkpt lat="41.687080" lon="2.265239">
        <ele>421.814</ele>
        <time>2022-10-23T09:20:55Z</time>
      </trkpt>
      <trkpt lat="41.687065" lon="2.265271">
        <ele>421.640</ele>
        <time>2022-10-23T09:20:56Z</time>
      </trkpt>
      <trkpt lat="41.687047" lon="2.265307">
        <ele>421.413</ele>
        <time>2022-10-23T09:20:57Z</time>
      </trkpt>
      <trkpt lat="41.687031" lon="2.265348">
        <ele>421.299</ele>
        <time>2022-10-23T09:20:58Z</time>
      </trkpt>
      <trkpt lat="41.687016" lon="2.265394">
        <ele>421.057</ele>
        <time>2022-10-23T09:20:59Z</time>
      </trkpt>
      <trkpt lat="41.686998" lon="2.265443">
        <ele>420.823</ele>
        <time>2022-10-23T09:21:00Z</time>
      </trkpt>
      <trkpt lat="41.686981" lon="2.265496">
        <ele>420.843</ele>
        <time>2022-10-23T09:21:01Z</time>
      </trkpt>
      <trkpt lat="41.686963" lon="2.265555">
        <ele>420.676</ele>
        <time>2022-10-23T09:21:02Z</time>
      </trkpt>
      <trkpt lat="41.686947" lon="2.265618">
        <ele>420.421</ele>
        <time>2022-10-23T09:21:03Z</time>
      </trkpt>
      <trkpt lat="41.686934" lon="2.265687">
        <ele>420.441</ele>
        <time>2022-10-23T09:21:04Z</time>
      </trkpt>
      <trkpt lat="41.686917" lon="2.265753">
        <ele>420.005</ele>
        <time>2022-10-23T09:21:05Z</time>
      </trkpt>
      <trkpt lat="41.686887" lon="2.265816">
        <ele>419.809</ele>
        <time>2022-10-23T09:21:06Z</time>
      </trkpt>
      <trkpt lat="41.686844" lon="2.265870">
        <ele>419.483</ele>
        <time>2022-10-23T09:21:07Z</time>
      </trkpt>
      <trkpt lat="41.686798" lon="2.265913">
        <ele>419.063</ele>
        <time>2022-10-23T09:21:08Z</time>
      </trkpt>
      <trkpt lat="41.686759" lon="2.265950">
        <ele>418.819</ele>
        <time>2022-10-23T09:21:09Z</time>
      </trkpt>
      <trkpt lat="41.686726" lon="2.265985">
        <ele>418.492</ele>
        <time>2022-10-23T09:21:10Z</time>
      </trkpt>
      <trkpt lat="41.686699" lon="2.266014">
        <ele>418.228</ele>
        <time>2022-10-23T09:21:11Z</time>
      </trkpt>
      <trkpt lat="41.686679" lon="2.266037">
        <ele>418.296</ele>
        <time>2022-10-23T09:21:12Z</time>
      </trkpt>
      <trkpt lat="41.686668" lon="2.266058">
        <ele>418.082</ele>
        <time>2022-10-23T09:21:13Z</time>
      </trkpt>
      <trkpt lat="41.686660" lon="2.266071">
        <ele>417.292</ele>
        <time>2022-10-23T09:21:14Z</time>
      </trkpt>
      <trkpt lat="41.686654" lon="2.266074">
        <ele>416.655</ele>
        <time>2022-10-23T09:21:15Z</time>
      </trkpt>
      <trkpt lat="41.686652" lon="2.266075">
        <ele>416.237</ele>
        <time>2022-10-23T09:21:16Z</time>
      </trkpt>
      <trkpt lat="41.686702" lon="2.266025">
        <ele>414.649</ele>
        <time>2022-10-23T09:21:23Z</time>
      </trkpt>
      <trkpt lat="41.686717" lon="2.266012">
        <ele>414.613</ele>
        <time>2022-10-23T09:21:24Z</time>
      </trkpt>
      <trkpt lat="41.686736" lon="2.265998">
        <ele>414.609</ele>
        <time>2022-10-23T09:21:25Z</time>
      </trkpt>
      <trkpt lat="41.686755" lon="2.265985">
        <ele>414.624</ele>
        <time>2022-10-23T09:21:26Z</time>
      </trkpt>
      <trkpt lat="41.686775" lon="2.265971">
        <ele>414.634</ele>
        <time>2022-10-23T09:21:27Z</time>
      </trkpt>
      <trkpt lat="41.686796" lon="2.265952">
        <ele>414.680</ele>
        <time>2022-10-23T09:21:28Z</time>
      </trkpt>
      <trkpt lat="41.686818" lon="2.265933">
        <ele>414.663</ele>
        <time>2022-10-23T09:21:29Z</time>
      </trkpt>
      <trkpt lat="41.686843" lon="2.265913">
        <ele>414.639</ele>
        <time>2022-10-23T09:21:30Z</time>
      </trkpt>
      <trkpt lat="41.686867" lon="2.265892">
        <ele>414.887</ele>
        <time>2022-10-23T09:21:31Z</time>
      </trkpt>
      <trkpt lat="41.686888" lon="2.265865">
        <ele>414.853</ele>
        <time>2022-10-23T09:21:32Z</time>
      </trkpt>
      <trkpt lat="41.686911" lon="2.265839">
        <ele>414.813</ele>
        <time>2022-10-23T09:21:33Z</time>
      </trkpt>
      <trkpt lat="41.686936" lon="2.265824">
        <ele>415.046</ele>
        <time>2022-10-23T09:21:34Z</time>
      </trkpt>
      <trkpt lat="41.686954" lon="2.265831">
        <ele>415.221</ele>
        <time>2022-10-23T09:21:35Z</time>
      </trkpt>
      <trkpt lat="41.686957" lon="2.265846">
        <ele>415.241</ele>
        <time>2022-10-23T09:21:36Z</time>
      </trkpt>
      <trkpt lat="41.686952" lon="2.265859">
        <ele>415.405</ele>
        <time>2022-10-23T09:21:37Z</time>
      </trkpt>
      <trkpt lat="41.686951" lon="2.265862">
        <ele>415.609</ele>
        <time>2022-10-23T09:21:38Z</time>
      </trkpt>
      <trkpt lat="41.686951" lon="2.265860">
        <ele>415.833</ele>
        <time>2022-10-23T09:21:39Z</time>
      </trkpt>
      <trkpt lat="41.686920" lon="2.265872">
        <ele>416.883</ele>
        <time>2022-10-23T09:21:54Z</time>
      </trkpt>
      <trkpt lat="41.686892" lon="2.265880">
        <ele>416.659</ele>
        <time>2022-10-23T09:21:55Z</time>
      </trkpt>
      <trkpt lat="41.686857" lon="2.265884">
        <ele>416.612</ele>
        <time>2022-10-23T09:21:56Z</time>
      </trkpt>
      <trkpt lat="41.686819" lon="2.265882">
        <ele>416.658</ele>
        <time>2022-10-23T09:21:57Z</time>
      </trkpt>
      <trkpt lat="41.686779" lon="2.265873">
        <ele>416.696</ele>
        <time>2022-10-23T09:21:58Z</time>
      </trkpt>
      <trkpt lat="41.686737" lon="2.265873">
        <ele>416.632</ele>
        <time>2022-10-23T09:21:59Z</time>
      </trkpt>
      <trkpt lat="41.686699" lon="2.265888">
        <ele>416.632</ele>
        <time>2022-10-23T09:22:00Z</time>
      </trkpt>
      <trkpt lat="41.686653" lon="2.265917">
        <ele>416.695</ele>
        <time>2022-10-23T09:22:01Z</time>
      </trkpt>
      <trkpt lat="41.686603" lon="2.265936">
        <ele>416.485</ele>
        <time>2022-10-23T09:22:02Z</time>
      </trkpt>
      <trkpt lat="41.686550" lon="2.265948">
        <ele>416.489</ele>
        <time>2022-10-23T09:22:03Z</time>
      </trkpt>
      <trkpt lat="41.686500" lon="2.265962">
        <ele>416.217</ele>
        <time>2022-10-23T09:22:04Z</time>
      </trkpt>
      <trkpt lat="41.686460" lon="2.265979">
        <ele>416.009</ele>
        <time>2022-10-23T09:22:05Z</time>
      </trkpt>
      <trkpt lat="41.686432" lon="2.265991">
        <ele>415.889</ele>
        <time>2022-10-23T09:22:06Z</time>
      </trkpt>
      <trkpt lat="41.686411" lon="2.265998">
        <ele>415.649</ele>
        <time>2022-10-23T09:22:07Z</time>
      </trkpt>
      <trkpt lat="41.686390" lon="2.265991">
        <ele>415.015</ele>
        <time>2022-10-23T09:22:08Z</time>
      </trkpt>
      <trkpt lat="41.686373" lon="2.265963">
        <ele>414.628</ele>
        <time>2022-10-23T09:22:09Z</time>
      </trkpt>
      <trkpt lat="41.686364" lon="2.265922">
        <ele>413.674</ele>
        <time>2022-10-23T09:22:10Z</time>
      </trkpt>
      <trkpt lat="41.686357" lon="2.265874">
        <ele>413.032</ele>
        <time>2022-10-23T09:22:11Z</time>
      </trkpt>
      <trkpt lat="41.686342" lon="2.265800">
        <ele>412.258</ele>
        <time>2022-10-23T09:22:12Z</time>
      </trkpt>
      <trkpt lat="41.686329" lon="2.265711">
        <ele>411.868</ele>
        <time>2022-10-23T09:22:13Z</time>
      </trkpt>
      <trkpt lat="41.686323" lon="2.265616">
        <ele>411.241</ele>
        <time>2022-10-23T09:22:14Z</time>
      </trkpt>
      <trkpt lat="41.686326" lon="2.265525">
        <ele>411.041</ele>
        <time>2022-10-23T09:22:15Z</time>
      </trkpt>
      <trkpt lat="41.686329" lon="2.265440">
        <ele>410.481</ele>
        <time>2022-10-23T09:22:16Z</time>
      </trkpt>
      <trkpt lat="41.686324" lon="2.265355">
        <ele>410.009</ele>
        <time>2022-10-23T09:22:17Z</time>
      </trkpt>
      <trkpt lat="41.686315" lon="2.265274">
        <ele>409.409</ele>
        <time>2022-10-23T09:22:18Z</time>
      </trkpt>
      <trkpt lat="41.686312" lon="2.265190">
        <ele>408.845</ele>
        <time>2022-10-23T09:22:19Z</time>
      </trkpt>
      <trkpt lat="41.686305" lon="2.265121">
        <ele>407.835</ele>
        <time>2022-10-23T09:22:20Z</time>
      </trkpt>
      <trkpt lat="41.686292" lon="2.265062">
        <ele>407.271</ele>
        <time>2022-10-23T09:22:21Z</time>
      </trkpt>
      <trkpt lat="41.686260" lon="2.265014">
        <ele>406.624</ele>
        <time>2022-10-23T09:22:22Z</time>
      </trkpt>
      <trkpt lat="41.686206" lon="2.264983">
        <ele>406.440</ele>
        <time>2022-10-23T09:22:23Z</time>
      </trkpt>
      <trkpt lat="41.686164" lon="2.264945">
        <ele>406.278</ele>
        <time>2022-10-23T09:22:24Z</time>
      </trkpt>
      <trkpt lat="41.686126" lon="2.264905">
        <ele>406.084</ele>
        <time>2022-10-23T09:22:25Z</time>
      </trkpt>
      <trkpt lat="41.686080" lon="2.264878">
        <ele>405.244</ele>
        <time>2022-10-23T09:22:26Z</time>
      </trkpt>
      <trkpt lat="41.686029" lon="2.264859">
        <ele>404.267</ele>
        <time>2022-10-23T09:22:27Z</time>
      </trkpt>
      <trkpt lat="41.685971" lon="2.264853">
        <ele>403.416</ele>
        <time>2022-10-23T09:22:28Z</time>
      </trkpt>
      <trkpt lat="41.685914" lon="2.264854">
        <ele>402.676</ele>
        <time>2022-10-23T09:22:29Z</time>
      </trkpt>
      <trkpt lat="41.685865" lon="2.264843">
        <ele>402.013</ele>
        <time>2022-10-23T09:22:30Z</time>
      </trkpt>
      <trkpt lat="41.685822" lon="2.264831">
        <ele>401.409</ele>
        <time>2022-10-23T09:22:31Z</time>
      </trkpt>
      <trkpt lat="41.685773" lon="2.264841">
        <ele>401.242</ele>
        <time>2022-10-23T09:22:32Z</time>
      </trkpt>
      <trkpt lat="41.685729" lon="2.264853">
        <ele>400.462</ele>
        <time>2022-10-23T09:22:33Z</time>
      </trkpt>
      <trkpt lat="41.685695" lon="2.264879">
        <ele>399.868</ele>
        <time>2022-10-23T09:22:34Z</time>
      </trkpt>
      <trkpt lat="41.685671" lon="2.264919">
        <ele>399.231</ele>
        <time>2022-10-23T09:22:35Z</time>
      </trkpt>
      <trkpt lat="41.685651" lon="2.264976">
        <ele>399.097</ele>
        <time>2022-10-23T09:22:36Z</time>
      </trkpt>
      <trkpt lat="41.685616" lon="2.265031">
        <ele>398.615</ele>
        <time>2022-10-23T09:22:37Z</time>
      </trkpt>
      <trkpt lat="41.685577" lon="2.265084">
        <ele>397.081</ele>
        <time>2022-10-23T09:22:38Z</time>
      </trkpt>
      <trkpt lat="41.685543" lon="2.265145">
        <ele>396.471</ele>
        <time>2022-10-23T09:22:39Z</time>
      </trkpt>
      <trkpt lat="41.685505" lon="2.265187">
        <ele>396.054</ele>
        <time>2022-10-23T09:22:40Z</time>
      </trkpt>
      <trkpt lat="41.685466" lon="2.265207">
        <ele>395.856</ele>
        <time>2022-10-23T09:22:41Z</time>
      </trkpt>
      <trkpt lat="41.685430" lon="2.265209">
        <ele>395.659</ele>
        <time>2022-10-23T09:22:42Z</time>
      </trkpt>
      <trkpt lat="41.685391" lon="2.265194">
        <ele>395.614</ele>
        <time>2022-10-23T09:22:43Z</time>
      </trkpt>
      <trkpt lat="41.685349" lon="2.265176">
        <ele>395.409</ele>
        <time>2022-10-23T09:22:44Z</time>
      </trkpt>
      <trkpt lat="41.685294" lon="2.265164">
        <ele>394.826</ele>
        <time>2022-10-23T09:22:45Z</time>
      </trkpt>
      <trkpt lat="41.685238" lon="2.265143">
        <ele>393.846</ele>
        <time>2022-10-23T09:22:46Z</time>
      </trkpt>
      <trkpt lat="41.685185" lon="2.265125">
        <ele>392.882</ele>
        <time>2022-10-23T09:22:47Z</time>
      </trkpt>
      <trkpt lat="41.685131" lon="2.265122">
        <ele>392.035</ele>
        <time>2022-10-23T09:22:48Z</time>
      </trkpt>
      <trkpt lat="41.685080" lon="2.265132">
        <ele>391.631</ele>
        <time>2022-10-23T09:22:49Z</time>
      </trkpt>
      <trkpt lat="41.685031" lon="2.265137">
        <ele>391.219</ele>
        <time>2022-10-23T09:22:50Z</time>
      </trkpt>
      <trkpt lat="41.684984" lon="2.265139">
        <ele>390.825</ele>
        <time>2022-10-23T09:22:51Z</time>
      </trkpt>
      <trkpt lat="41.684928" lon="2.265131">
        <ele>390.265</ele>
        <time>2022-10-23T09:22:52Z</time>
      </trkpt>
      <trkpt lat="41.684869" lon="2.265112">
        <ele>389.878</ele>
        <time>2022-10-23T09:22:53Z</time>
      </trkpt>
      <trkpt lat="41.684816" lon="2.265101">
        <ele>389.435</ele>
        <time>2022-10-23T09:22:54Z</time>
      </trkpt>
      <trkpt lat="41.684770" lon="2.265098">
        <ele>389.486</ele>
        <time>2022-10-23T09:22:55Z</time>
      </trkpt>
      <trkpt lat="41.684723" lon="2.265074">
        <ele>389.214</ele>
        <time>2022-10-23T09:22:56Z</time>
      </trkpt>
      <trkpt lat="41.684676" lon="2.265029">
        <ele>389.009</ele>
        <time>2022-10-23T09:22:57Z</time>
      </trkpt>
      <trkpt lat="41.684636" lon="2.264982">
        <ele>388.614</ele>
        <time>2022-10-23T09:22:58Z</time>
      </trkpt>
      <trkpt lat="41.684600" lon="2.264949">
        <ele>387.844</ele>
        <time>2022-10-23T09:22:59Z</time>
      </trkpt>
      <trkpt lat="41.684569" lon="2.264945">
        <ele>387.460</ele>
        <time>2022-10-23T09:23:00Z</time>
      </trkpt>
      <trkpt lat="41.684549" lon="2.264977">
        <ele>386.463</ele>
        <time>2022-10-23T09:23:01Z</time>
      </trkpt>
      <trkpt lat="41.684527" lon="2.265032">
        <ele>385.089</ele>
        <time>2022-10-23T09:23:02Z</time>
      </trkpt>
      <trkpt lat="41.684512" lon="2.265091">
        <ele>384.247</ele>
        <time>2022-10-23T09:23:03Z</time>
      </trkpt>
      <trkpt lat="41.684505" lon="2.265155">
        <ele>383.483</ele>
        <time>2022-10-23T09:23:04Z</time>
      </trkpt>
      <trkpt lat="41.684477" lon="2.265217">
        <ele>382.683</ele>
        <time>2022-10-23T09:23:05Z</time>
      </trkpt>
      <trkpt lat="41.684445" lon="2.265260">
        <ele>381.696</ele>
        <time>2022-10-23T09:23:06Z</time>
      </trkpt>
      <trkpt lat="41.684417" lon="2.265302">
        <ele>381.024</ele>
        <time>2022-10-23T09:23:07Z</time>
      </trkpt>
      <trkpt lat="41.684395" lon="2.265354">
        <ele>380.004</ele>
        <time>2022-10-23T09:23:08Z</time>
      </trkpt>
      <trkpt lat="41.684387" lon="2.265412">
        <ele>379.414</ele>
        <time>2022-10-23T09:23:09Z</time>
      </trkpt>
      <trkpt lat="41.684388" lon="2.265470">
        <ele>378.409</ele>
        <time>2022-10-23T09:23:10Z</time>
      </trkpt>
      <trkpt lat="41.684368" lon="2.265524">
        <ele>378.063</ele>
        <time>2022-10-23T09:23:11Z</time>
      </trkpt>
      <trkpt lat="41.684337" lon="2.265567">
        <ele>377.653</ele>
        <time>2022-10-23T09:23:12Z</time>
      </trkpt>
      <trkpt lat="41.684303" lon="2.265599">
        <ele>377.259</ele>
        <time>2022-10-23T09:23:13Z</time>
      </trkpt>
      <trkpt lat="41.684261" lon="2.265619">
        <ele>376.432</ele>
        <time>2022-10-23T09:23:14Z</time>
      </trkpt>
      <trkpt lat="41.684217" lon="2.265627">
        <ele>375.488</ele>
        <time>2022-10-23T09:23:15Z</time>
      </trkpt>
      <trkpt lat="41.684183" lon="2.265614">
        <ele>374.636</ele>
        <time>2022-10-23T09:23:16Z</time>
      </trkpt>
      <trkpt lat="41.684148" lon="2.265568">
        <ele>373.872</ele>
        <time>2022-10-23T09:23:17Z</time>
      </trkpt>
      <trkpt lat="41.684116" lon="2.265508">
        <ele>373.442</ele>
        <time>2022-10-23T09:23:18Z</time>
      </trkpt>
      <trkpt lat="41.684086" lon="2.265435">
        <ele>372.665</ele>
        <time>2022-10-23T09:23:19Z</time>
      </trkpt>
      <trkpt lat="41.684062" lon="2.265361">
        <ele>372.027</ele>
        <time>2022-10-23T09:23:20Z</time>
      </trkpt>
      <trkpt lat="41.684036" lon="2.265311">
        <ele>370.868</ele>
        <time>2022-10-23T09:23:21Z</time>
      </trkpt>
      <trkpt lat="41.684010" lon="2.265298">
        <ele>369.414</ele>
        <time>2022-10-23T09:23:22Z</time>
      </trkpt>
      <trkpt lat="41.683987" lon="2.265310">
        <ele>368.009</ele>
        <time>2022-10-23T09:23:23Z</time>
      </trkpt>
      <trkpt lat="41.683972" lon="2.265359">
        <ele>367.073</ele>
        <time>2022-10-23T09:23:24Z</time>
      </trkpt>
      <trkpt lat="41.683953" lon="2.265420">
        <ele>366.243</ele>
        <time>2022-10-23T09:23:25Z</time>
      </trkpt>
      <trkpt lat="41.683927" lon="2.265466">
        <ele>365.689</ele>
        <time>2022-10-23T09:23:26Z</time>
      </trkpt>
      <trkpt lat="41.683898" lon="2.265478">
        <ele>364.822</ele>
        <time>2022-10-23T09:23:27Z</time>
      </trkpt>
      <trkpt lat="41.683877" lon="2.265454">
        <ele>363.838</ele>
        <time>2022-10-23T09:23:28Z</time>
      </trkpt>
      <trkpt lat="41.683859" lon="2.265416">
        <ele>363.086</ele>
        <time>2022-10-23T09:23:29Z</time>
      </trkpt>
      <trkpt lat="41.683834" lon="2.265381">
        <ele>362.222</ele>
        <time>2022-10-23T09:23:30Z</time>
      </trkpt>
      <trkpt lat="41.683806" lon="2.265367">
        <ele>361.452</ele>
        <time>2022-10-23T09:23:31Z</time>
      </trkpt>
      <trkpt lat="41.683772" lon="2.265385">
        <ele>360.625</ele>
        <time>2022-10-23T09:23:32Z</time>
      </trkpt>
      <trkpt lat="41.683742" lon="2.265430">
        <ele>359.821</ele>
        <time>2022-10-23T09:23:33Z</time>
      </trkpt>
      <trkpt lat="41.683710" lon="2.265487">
        <ele>358.641</ele>
        <time>2022-10-23T09:23:34Z</time>
      </trkpt>
      <trkpt lat="41.683673" lon="2.265525">
        <ele>357.405</ele>
        <time>2022-10-23T09:23:35Z</time>
      </trkpt>
      <trkpt lat="41.683646" lon="2.265550">
        <ele>356.409</ele>
        <time>2022-10-23T09:23:36Z</time>
      </trkpt>
      <trkpt lat="41.683620" lon="2.265591">
        <ele>355.273</ele>
        <time>2022-10-23T09:23:37Z</time>
      </trkpt>
      <trkpt lat="41.683602" lon="2.265645">
        <ele>354.293</ele>
        <time>2022-10-23T09:23:38Z</time>
      </trkpt>
      <trkpt lat="41.683594" lon="2.265710">
        <ele>353.249</ele>
        <time>2022-10-23T09:23:39Z</time>
      </trkpt>
      <trkpt lat="41.683590" lon="2.265765">
        <ele>352.422</ele>
        <time>2022-10-23T09:23:40Z</time>
      </trkpt>
      <trkpt lat="41.683577" lon="2.265802">
        <ele>351.458</ele>
        <time>2022-10-23T09:23:41Z</time>
      </trkpt>
      <trkpt lat="41.683549" lon="2.265822">
        <ele>350.646</ele>
        <time>2022-10-23T09:23:42Z</time>
      </trkpt>
      <trkpt lat="41.683518" lon="2.265825">
        <ele>350.022</ele>
        <time>2022-10-23T09:23:43Z</time>
      </trkpt>
      <trkpt lat="41.683488" lon="2.265824">
        <ele>349.052</ele>
        <time>2022-10-23T09:23:44Z</time>
      </trkpt>
      <trkpt lat="41.683464" lon="2.265833">
        <ele>348.245</ele>
        <time>2022-10-23T09:23:45Z</time>
      </trkpt>
      <trkpt lat="41.683442" lon="2.265863">
        <ele>347.486</ele>
        <time>2022-10-23T09:23:46Z</time>
      </trkpt>
      <trkpt lat="41.683414" lon="2.265891">
        <ele>346.660</ele>
        <time>2022-10-23T09:23:47Z</time>
      </trkpt>
      <trkpt lat="41.683380" lon="2.265901">
        <ele>346.026</ele>
        <time>2022-10-23T09:23:48Z</time>
      </trkpt>
      <trkpt lat="41.683345" lon="2.265902">
        <ele>345.009</ele>
        <time>2022-10-23T09:23:49Z</time>
      </trkpt>
      <trkpt lat="41.683316" lon="2.265909">
        <ele>343.679</ele>
        <time>2022-10-23T09:23:50Z</time>
      </trkpt>
      <trkpt lat="41.683284" lon="2.265940">
        <ele>342.469</ele>
        <time>2022-10-23T09:23:51Z</time>
      </trkpt>
      <trkpt lat="41.683255" lon="2.265957">
        <ele>341.665</ele>
        <time>2022-10-23T09:23:52Z</time>
      </trkpt>
      <trkpt lat="41.683224" lon="2.265957">
        <ele>341.058</ele>
        <time>2022-10-23T09:23:53Z</time>
      </trkpt>
      <trkpt lat="41.683190" lon="2.265955">
        <ele>340.634</ele>
        <time>2022-10-23T09:23:54Z</time>
      </trkpt>
      <trkpt lat="41.683148" lon="2.265977">
        <ele>340.072</ele>
        <time>2022-10-23T09:23:55Z</time>
      </trkpt>
      <trkpt lat="41.683113" lon="2.266018">
        <ele>339.438</ele>
        <time>2022-10-23T09:23:56Z</time>
      </trkpt>
      <trkpt lat="41.683090" lon="2.266066">
        <ele>338.838</ele>
        <time>2022-10-23T09:23:57Z</time>
      </trkpt>
      <trkpt lat="41.683079" lon="2.266115">
        <ele>338.291</ele>
        <time>2022-10-23T09:23:58Z</time>
      </trkpt>
      <trkpt lat="41.683073" lon="2.266152">
        <ele>337.492</ele>
        <time>2022-10-23T09:23:59Z</time>
      </trkpt>
      <trkpt lat="41.683063" lon="2.266184">
        <ele>336.473</ele>
        <time>2022-10-23T09:24:00Z</time>
      </trkpt>
      <trkpt lat="41.683053" lon="2.266207">
        <ele>335.220</ele>
        <time>2022-10-23T09:24:01Z</time>
      </trkpt>
      <trkpt lat="41.683038" lon="2.266223">
        <ele>334.209</ele>
        <time>2022-10-23T09:24:02Z</time>
      </trkpt>
      <trkpt lat="41.683029" lon="2.266242">
        <ele>333.690</ele>
        <time>2022-10-23T09:24:03Z</time>
      </trkpt>
      <trkpt lat="41.683030" lon="2.266268">
        <ele>332.840</ele>
        <time>2022-10-23T09:24:04Z</time>
      </trkpt>
      <trkpt lat="41.683030" lon="2.266301">
        <ele>332.246</ele>
        <time>2022-10-23T09:24:05Z</time>
      </trkpt>
      <trkpt lat="41.683023" lon="2.266329">
        <ele>331.429</ele>
        <time>2022-10-23T09:24:06Z</time>
      </trkpt>
      <trkpt lat="41.683016" lon="2.266343">
        <ele>330.625</ele>
        <time>2022-10-23T09:24:07Z</time>
      </trkpt>
      <trkpt lat="41.683011" lon="2.266351">
        <ele>329.893</ele>
        <time>2022-10-23T09:24:08Z</time>
      </trkpt>
      <trkpt lat="41.683004" lon="2.266361">
        <ele>329.019</ele>
        <time>2022-10-23T09:24:09Z</time>
      </trkpt>
      <trkpt lat="41.683002" lon="2.266369">
        <ele>328.289</ele>
        <time>2022-10-23T09:24:10Z</time>
      </trkpt>
      <trkpt lat="41.683005" lon="2.266380">
        <ele>327.692</ele>
        <time>2022-10-23T09:24:11Z</time>
      </trkpt>
      <trkpt lat="41.683012" lon="2.266397">
        <ele>327.262</ele>
        <time>2022-10-23T09:24:12Z</time>
      </trkpt>
      <trkpt lat="41.683016" lon="2.266415">
        <ele>326.683</ele>
        <time>2022-10-23T09:24:13Z</time>
      </trkpt>
      <trkpt lat="41.683022" lon="2.266432">
        <ele>326.011</ele>
        <time>2022-10-23T09:24:14Z</time>
      </trkpt>
      <trkpt lat="41.683016" lon="2.266463">
        <ele>325.609</ele>
        <time>2022-10-23T09:24:15Z</time>
      </trkpt>
      <trkpt lat="41.683013" lon="2.266483">
        <ele>325.497</ele>
        <time>2022-10-23T09:24:16Z</time>
      </trkpt>
      <trkpt lat="41.683004" lon="2.266504">
        <ele>325.237</ele>
        <time>2022-10-23T09:24:17Z</time>
      </trkpt>
      <trkpt lat="41.682978" lon="2.266525">
        <ele>324.853</ele>
        <time>2022-10-23T09:24:18Z</time>
      </trkpt>
      <trkpt lat="41.682932" lon="2.266549">
        <ele>324.296</ele>
        <time>2022-10-23T09:24:19Z</time>
      </trkpt>
      <trkpt lat="41.682876" lon="2.266563">
        <ele>323.692</ele>
        <time>2022-10-23T09:24:20Z</time>
      </trkpt>
      <trkpt lat="41.682827" lon="2.266578">
        <ele>323.290</ele>
        <time>2022-10-23T09:24:21Z</time>
      </trkpt>
      <trkpt lat="41.682786" lon="2.266584">
        <ele>322.626</ele>
        <time>2022-10-23T09:24:22Z</time>
      </trkpt>
      <trkpt lat="41.682760" lon="2.266590">
        <ele>321.856</ele>
        <time>2022-10-23T09:24:23Z</time>
      </trkpt>
      <trkpt lat="41.682746" lon="2.266590">
        <ele>320.819</ele>
        <time>2022-10-23T09:24:24Z</time>
      </trkpt>
      <trkpt lat="41.682738" lon="2.266597">
        <ele>319.644</ele>
        <time>2022-10-23T09:24:25Z</time>
      </trkpt>
      <trkpt lat="41.682732" lon="2.266612">
        <ele>318.805</ele>
        <time>2022-10-23T09:24:26Z</time>
      </trkpt>
      <trkpt lat="41.682725" lon="2.266620">
        <ele>318.015</ele>
        <time>2022-10-23T09:24:27Z</time>
      </trkpt>
      <trkpt lat="41.682721" lon="2.266628">
        <ele>317.009</ele>
        <time>2022-10-23T09:24:28Z</time>
      </trkpt>
      <trkpt lat="41.682689" lon="2.266740">
        <ele>315.895</ele>
        <time>2022-10-23T09:26:09Z</time>
      </trkpt>
      <trkpt lat="41.682679" lon="2.266758">
        <ele>315.845</ele>
        <time>2022-10-23T09:26:10Z</time>
      </trkpt>
      <trkpt lat="41.682669" lon="2.266777">
        <ele>315.871</ele>
        <time>2022-10-23T09:26:11Z</time>
      </trkpt>
      <trkpt lat="41.682658" lon="2.266797">
        <ele>315.874</ele>
        <time>2022-10-23T09:26:12Z</time>
      </trkpt>
      <trkpt lat="41.682647" lon="2.266817">
        <ele>315.810</ele>
        <time>2022-10-23T09:26:13Z</time>
      </trkpt>
      <trkpt lat="41.682635" lon="2.266843">
        <ele>315.848</ele>
        <time>2022-10-23T09:26:14Z</time>
      </trkpt>
      <trkpt lat="41.682625" lon="2.266870">
        <ele>315.854</ele>
        <time>2022-10-23T09:26:15Z</time>
      </trkpt>
      <trkpt lat="41.682616" lon="2.266899">
        <ele>315.834</ele>
        <time>2022-10-23T09:26:16Z</time>
      </trkpt>
      <trkpt lat="41.682607" lon="2.266928">
        <ele>316.077</ele>
        <time>2022-10-23T09:26:17Z</time>
      </trkpt>
      <trkpt lat="41.682596" lon="2.266958">
        <ele>316.094</ele>
        <time>2022-10-23T09:26:18Z</time>
      </trkpt>
      <trkpt lat="41.682586" lon="2.266990">
        <ele>316.057</ele>
        <time>2022-10-23T09:26:19Z</time>
      </trkpt>
      <trkpt lat="41.682576" lon="2.267018">
        <ele>316.022</ele>
        <time>2022-10-23T09:26:20Z</time>
      </trkpt>
      <trkpt lat="41.682565" lon="2.267049">
        <ele>315.809</ele>
        <time>2022-10-23T09:26:21Z</time>
      </trkpt>
      <trkpt lat="41.682555" lon="2.267080">
        <ele>316.070</ele>
        <time>2022-10-23T09:26:22Z</time>
      </trkpt>
      <trkpt lat="41.682544" lon="2.267111">
        <ele>316.020</ele>
        <time>2022-10-23T09:26:23Z</time>
      </trkpt>
      <trkpt lat="41.682532" lon="2.267142">
        <ele>316.046</ele>
        <time>2022-10-23T09:26:24Z</time>
      </trkpt>
      <trkpt lat="41.682519" lon="2.267176">
        <ele>316.269</ele>
        <time>2022-10-23T09:26:25Z</time>
      </trkpt>
      <trkpt lat="41.682508" lon="2.267210">
        <ele>316.265</ele>
        <time>2022-10-23T09:26:26Z</time>
      </trkpt>
      <trkpt lat="41.682499" lon="2.267242">
        <ele>316.473</ele>
        <time>2022-10-23T09:26:27Z</time>
      </trkpt>
      <trkpt lat="41.682493" lon="2.267276">
        <ele>316.699</ele>
        <time>2022-10-23T09:26:28Z</time>
      </trkpt>
      <trkpt lat="41.682486" lon="2.267309">
        <ele>317.049</ele>
        <time>2022-10-23T09:26:29Z</time>
      </trkpt>
      <trkpt lat="41.682481" lon="2.267346">
        <ele>317.252</ele>
        <time>2022-10-23T09:26:30Z</time>
      </trkpt>
      <trkpt lat="41.682472" lon="2.267382">
        <ele>317.652</ele>
        <time>2022-10-23T09:26:31Z</time>
      </trkpt>
      <trkpt lat="41.682456" lon="2.267419">
        <ele>317.853</ele>
        <time>2022-10-23T09:26:32Z</time>
      </trkpt>
      <trkpt lat="41.682434" lon="2.267454">
        <ele>318.008</ele>
        <time>2022-10-23T09:26:33Z</time>
      </trkpt>
      <trkpt lat="41.682411" lon="2.267488">
        <ele>318.409</ele>
        <time>2022-10-23T09:26:34Z</time>
      </trkpt>
      <trkpt lat="41.682384" lon="2.267521">
        <ele>318.646</ele>
        <time>2022-10-23T09:26:35Z</time>
      </trkpt>
      <trkpt lat="41.682355" lon="2.267552">
        <ele>318.896</ele>
        <time>2022-10-23T09:26:36Z</time>
      </trkpt>
      <trkpt lat="41.682326" lon="2.267583">
        <ele>319.062</ele>
        <time>2022-10-23T09:26:37Z</time>
      </trkpt>
      <trkpt lat="41.682296" lon="2.267613">
        <ele>319.265</ele>
        <time>2022-10-23T09:26:38Z</time>
      </trkpt>
      <trkpt lat="41.682267" lon="2.267647">
        <ele>319.281</ele>
        <time>2022-10-23T09:26:39Z</time>
      </trkpt>
      <trkpt lat="41.682244" lon="2.267684">
        <ele>319.479</ele>
        <time>2022-10-23T09:26:40Z</time>
      </trkpt>
      <trkpt lat="41.682220" lon="2.267728">
        <ele>319.445</ele>
        <time>2022-10-23T09:26:41Z</time>
      </trkpt>
      <trkpt lat="41.682198" lon="2.267773">
        <ele>319.465</ele>
        <time>2022-10-23T09:26:42Z</time>
      </trkpt>
      <trkpt lat="41.682179" lon="2.267819">
        <ele>319.448</ele>
        <time>2022-10-23T09:26:43Z</time>
      </trkpt>
      <trkpt lat="41.682161" lon="2.267869">
        <ele>319.663</ele>
        <time>2022-10-23T09:26:44Z</time>
      </trkpt>
      <trkpt lat="41.682145" lon="2.267917">
        <ele>319.644</ele>
        <time>2022-10-23T09:26:45Z</time>
      </trkpt>
      <trkpt lat="41.682131" lon="2.267966">
        <ele>319.818</ele>
        <time>2022-10-23T09:26:46Z</time>
      </trkpt>
      <trkpt lat="41.682120" lon="2.268018">
        <ele>319.809</ele>
        <time>2022-10-23T09:26:47Z</time>
      </trkpt>
      <trkpt lat="41.682112" lon="2.268069">
        <ele>320.257</ele>
        <time>2022-10-23T09:26:48Z</time>
      </trkpt>
      <trkpt lat="41.682107" lon="2.268122">
        <ele>320.447</ele>
        <time>2022-10-23T09:26:49Z</time>
      </trkpt>
      <trkpt lat="41.682105" lon="2.268174">
        <ele>320.613</ele>
        <time>2022-10-23T09:26:50Z</time>
      </trkpt>
      <trkpt lat="41.682106" lon="2.268225">
        <ele>320.696</ele>
        <time>2022-10-23T09:26:51Z</time>
      </trkpt>
      <trkpt lat="41.682107" lon="2.268274">
        <ele>320.892</ele>
        <time>2022-10-23T09:26:52Z</time>
      </trkpt>
      <trkpt lat="41.682108" lon="2.268323">
        <ele>321.010</ele>
        <time>2022-10-23T09:26:53Z</time>
      </trkpt>
      <trkpt lat="41.682112" lon="2.268373">
        <ele>321.096</ele>
        <time>2022-10-23T09:26:54Z</time>
      </trkpt>
      <trkpt lat="41.682118" lon="2.268423">
        <ele>321.276</ele>
        <time>2022-10-23T09:26:55Z</time>
      </trkpt>
      <trkpt lat="41.682123" lon="2.268475">
        <ele>321.439</ele>
        <time>2022-10-23T09:26:56Z</time>
      </trkpt>
      <trkpt lat="41.682125" lon="2.268525">
        <ele>321.656</ele>
        <time>2022-10-23T09:26:57Z</time>
      </trkpt>
      <trkpt lat="41.682126" lon="2.268575">
        <ele>321.659</ele>
        <time>2022-10-23T09:26:58Z</time>
      </trkpt>
      <trkpt lat="41.682129" lon="2.268622">
        <ele>321.814</ele>
        <time>2022-10-23T09:26:59Z</time>
      </trkpt>
      <trkpt lat="41.682128" lon="2.268667">
        <ele>322.009</ele>
        <time>2022-10-23T09:27:00Z</time>
      </trkpt>
      <trkpt lat="41.682126" lon="2.268712">
        <ele>322.266</ele>
        <time>2022-10-23T09:27:01Z</time>
      </trkpt>
      <trkpt lat="41.682125" lon="2.268759">
        <ele>322.496</ele>
        <time>2022-10-23T09:27:02Z</time>
      </trkpt>
      <trkpt lat="41.682127" lon="2.268804">
        <ele>322.632</ele>
        <time>2022-10-23T09:27:03Z</time>
      </trkpt>
      <trkpt lat="41.682130" lon="2.268846">
        <ele>322.825</ele>
        <time>2022-10-23T09:27:04Z</time>
      </trkpt>
      <trkpt lat="41.682137" lon="2.268889">
        <ele>323.011</ele>
        <time>2022-10-23T09:27:05Z</time>
      </trkpt>
      <trkpt lat="41.682151" lon="2.268931">
        <ele>323.279</ele>
        <time>2022-10-23T09:27:06Z</time>
      </trkpt>
      <trkpt lat="41.682168" lon="2.268973">
        <ele>323.465</ele>
        <time>2022-10-23T09:27:07Z</time>
      </trkpt>
      <trkpt lat="41.682188" lon="2.269011">
        <ele>323.835</ele>
        <time>2022-10-23T09:27:08Z</time>
      </trkpt>
      <trkpt lat="41.682211" lon="2.269048">
        <ele>324.038</ele>
        <time>2022-10-23T09:27:09Z</time>
      </trkpt>
      <trkpt lat="41.682233" lon="2.269081">
        <ele>324.432</ele>
        <time>2022-10-23T09:27:10Z</time>
      </trkpt>
      <trkpt lat="41.682255" lon="2.269111">
        <ele>324.692</ele>
        <time>2022-10-23T09:27:11Z</time>
      </trkpt>
      <trkpt lat="41.682277" lon="2.269141">
        <ele>324.811</ele>
        <time>2022-10-23T09:27:12Z</time>
      </trkpt>
      <trkpt lat="41.682296" lon="2.269174">
        <ele>325.209</ele>
        <time>2022-10-23T09:27:13Z</time>
      </trkpt>
      <trkpt lat="41.682312" lon="2.269210">
        <ele>325.464</ele>
        <time>2022-10-23T09:27:14Z</time>
      </trkpt>
      <trkpt lat="41.682318" lon="2.269246">
        <ele>325.664</ele>
        <time>2022-10-23T09:27:15Z</time>
      </trkpt>
      <trkpt lat="41.682318" lon="2.269283">
        <ele>326.020</ele>
        <time>2022-10-23T09:27:16Z</time>
      </trkpt>
      <trkpt lat="41.682313" lon="2.269324">
        <ele>326.473</ele>
        <time>2022-10-23T09:27:17Z</time>
      </trkpt>
      <trkpt lat="41.682306" lon="2.269359">
        <ele>326.619</ele>
        <time>2022-10-23T09:27:18Z</time>
      </trkpt>
      <trkpt lat="41.682295" lon="2.269392">
        <ele>327.077</ele>
        <time>2022-10-23T09:27:19Z</time>
      </trkpt>
      <trkpt lat="41.682283" lon="2.269428">
        <ele>327.233</ele>
        <time>2022-10-23T09:27:20Z</time>
      </trkpt>
      <trkpt lat="41.682270" lon="2.269467">
        <ele>327.453</ele>
        <time>2022-10-23T09:27:21Z</time>
      </trkpt>
      <trkpt lat="41.682258" lon="2.269507">
        <ele>327.666</ele>
        <time>2022-10-23T09:27:22Z</time>
      </trkpt>
      <trkpt lat="41.682246" lon="2.269546">
        <ele>327.896</ele>
        <time>2022-10-23T09:27:23Z</time>
      </trkpt>
      <trkpt lat="41.682236" lon="2.269584">
        <ele>328.031</ele>
        <time>2022-10-23T09:27:24Z</time>
      </trkpt>
      <trkpt lat="41.682228" lon="2.269619">
        <ele>328.224</ele>
        <time>2022-10-23T09:27:25Z</time>
      </trkpt>
      <trkpt lat="41.682224" lon="2.269652">
        <ele>328.409</ele>
        <time>2022-10-23T09:27:26Z</time>
      </trkpt>
      <trkpt lat="41.682219" lon="2.269688">
        <ele>328.810</ele>
        <time>2022-10-23T09:27:27Z</time>
      </trkpt>
      <trkpt lat="41.682214" lon="2.269729">
        <ele>329.050</ele>
        <time>2022-10-23T09:27:28Z</time>
      </trkpt>
      <trkpt lat="41.682209" lon="2.269769">
        <ele>329.296</ele>
        <time>2022-10-23T09:27:29Z</time>
      </trkpt>
      <trkpt lat="41.682208" lon="2.269807">
        <ele>329.499</ele>
        <time>2022-10-23T09:27:30Z</time>
      </trkpt>
      <trkpt lat="41.682207" lon="2.269844">
        <ele>329.415</ele>
        <time>2022-10-23T09:27:31Z</time>
      </trkpt>
      <trkpt lat="41.682205" lon="2.269880">
        <ele>329.833</ele>
        <time>2022-10-23T09:27:32Z</time>
      </trkpt>
      <trkpt lat="41.682201" lon="2.269918">
        <ele>329.869</ele>
        <time>2022-10-23T09:27:33Z</time>
      </trkpt>
      <trkpt lat="41.682198" lon="2.269958">
        <ele>330.059</ele>
        <time>2022-10-23T09:27:34Z</time>
      </trkpt>
      <trkpt lat="41.682192" lon="2.270002">
        <ele>330.262</ele>
        <time>2022-10-23T09:27:35Z</time>
      </trkpt>
      <trkpt lat="41.682184" lon="2.270045">
        <ele>330.231</ele>
        <time>2022-10-23T09:27:36Z</time>
      </trkpt>
      <trkpt lat="41.682172" lon="2.270092">
        <ele>330.461</ele>
        <time>2022-10-23T09:27:37Z</time>
      </trkpt>
      <trkpt lat="41.682160" lon="2.270141">
        <ele>330.807</ele>
        <time>2022-10-23T09:27:38Z</time>
      </trkpt>
      <trkpt lat="41.682147" lon="2.270189">
        <ele>331.009</ele>
        <time>2022-10-23T09:27:39Z</time>
      </trkpt>
      <trkpt lat="41.682129" lon="2.270239">
        <ele>331.284</ele>
        <time>2022-10-23T09:27:40Z</time>
      </trkpt>
      <trkpt lat="41.682113" lon="2.270286">
        <ele>331.444</ele>
        <time>2022-10-23T09:27:41Z</time>
      </trkpt>
      <trkpt lat="41.682097" lon="2.270334">
        <ele>331.470</ele>
        <time>2022-10-23T09:27:42Z</time>
      </trkpt>
      <trkpt lat="41.682082" lon="2.270380">
        <ele>331.443</ele>
        <time>2022-10-23T09:27:43Z</time>
      </trkpt>
      <trkpt lat="41.682067" lon="2.270427">
        <ele>331.679</ele>
        <time>2022-10-23T09:27:44Z</time>
      </trkpt>
      <trkpt lat="41.682052" lon="2.270475">
        <ele>331.617</ele>
        <time>2022-10-23T09:27:45Z</time>
      </trkpt>
      <trkpt lat="41.682037" lon="2.270524">
        <ele>331.683</ele>
        <time>2022-10-23T09:27:46Z</time>
      </trkpt>
      <trkpt lat="41.682023" lon="2.270575">
        <ele>331.693</ele>
        <time>2022-10-23T09:27:47Z</time>
      </trkpt>
      <trkpt lat="41.682011" lon="2.270622">
        <ele>331.616</ele>
        <time>2022-10-23T09:27:48Z</time>
      </trkpt>
      <trkpt lat="41.682001" lon="2.270665">
        <ele>331.662</ele>
        <time>2022-10-23T09:27:49Z</time>
      </trkpt>
      <trkpt lat="41.681995" lon="2.270708">
        <ele>331.483</ele>
        <time>2022-10-23T09:27:50Z</time>
      </trkpt>
      <trkpt lat="41.682000" lon="2.270758">
        <ele>331.411</ele>
        <time>2022-10-23T09:27:51Z</time>
      </trkpt>
      <trkpt lat="41.682022" lon="2.270806">
        <ele>331.409</ele>
        <time>2022-10-23T09:27:52Z</time>
      </trkpt>
      <trkpt lat="41.682051" lon="2.270841">
        <ele>331.497</ele>
        <time>2022-10-23T09:27:53Z</time>
      </trkpt>
      <trkpt lat="41.682085" lon="2.270864">
        <ele>331.467</ele>
        <time>2022-10-23T09:27:54Z</time>
      </trkpt>
      <trkpt lat="41.682120" lon="2.270879">
        <ele>331.423</ele>
        <time>2022-10-23T09:27:55Z</time>
      </trkpt>
      <trkpt lat="41.682152" lon="2.270892">
        <ele>331.436</ele>
        <time>2022-10-23T09:27:56Z</time>
      </trkpt>
      <trkpt lat="41.682178" lon="2.270902">
        <ele>331.412</ele>
        <time>2022-10-23T09:27:57Z</time>
      </trkpt>
      <trkpt lat="41.682202" lon="2.270909">
        <ele>331.410</ele>
        <time>2022-10-23T09:27:58Z</time>
      </trkpt>
      <trkpt lat="41.682229" lon="2.270913">
        <ele>331.456</ele>
        <time>2022-10-23T09:27:59Z</time>
      </trkpt>
      <trkpt lat="41.682262" lon="2.270919">
        <ele>331.486</ele>
        <time>2022-10-23T09:28:00Z</time>
      </trkpt>
      <trkpt lat="41.682295" lon="2.270928">
        <ele>331.499</ele>
        <time>2022-10-23T09:28:01Z</time>
      </trkpt>
      <trkpt lat="41.682328" lon="2.270939">
        <ele>331.421</ele>
        <time>2022-10-23T09:28:02Z</time>
      </trkpt>
      <trkpt lat="41.682356" lon="2.270952">
        <ele>331.641</ele>
        <time>2022-10-23T09:28:03Z</time>
      </trkpt>
      <trkpt lat="41.682390" lon="2.270963">
        <ele>331.805</ele>
        <time>2022-10-23T09:28:04Z</time>
      </trkpt>
      <trkpt lat="41.682422" lon="2.270973">
        <ele>332.209</ele>
        <time>2022-10-23T09:28:05Z</time>
      </trkpt>
      <trkpt lat="41.682453" lon="2.270981">
        <ele>332.673</ele>
        <time>2022-10-23T09:28:06Z</time>
      </trkpt>
      <trkpt lat="41.682484" lon="2.270989">
        <ele>332.843</ele>
        <time>2022-10-23T09:28:07Z</time>
      </trkpt>
      <trkpt lat="41.682515" lon="2.270994">
        <ele>333.059</ele>
        <time>2022-10-23T09:28:08Z</time>
      </trkpt>
      <trkpt lat="41.682547" lon="2.270991">
        <ele>333.252</ele>
        <time>2022-10-23T09:28:09Z</time>
      </trkpt>
      <trkpt lat="41.682581" lon="2.270985">
        <ele>333.478</ele>
        <time>2022-10-23T09:28:10Z</time>
      </trkpt>
      <trkpt lat="41.682614" lon="2.270973">
        <ele>333.666</ele>
        <time>2022-10-23T09:28:11Z</time>
      </trkpt>
      <trkpt lat="41.682646" lon="2.270958">
        <ele>333.862</ele>
        <time>2022-10-23T09:28:12Z</time>
      </trkpt>
      <trkpt lat="41.682677" lon="2.270942">
        <ele>334.062</ele>
        <time>2022-10-23T09:28:13Z</time>
      </trkpt>
      <trkpt lat="41.682709" lon="2.270923">
        <ele>334.225</ele>
        <time>2022-10-23T09:28:14Z</time>
      </trkpt>
      <trkpt lat="41.682745" lon="2.270905">
        <ele>334.666</ele>
        <time>2022-10-23T09:28:15Z</time>
      </trkpt>
      <trkpt lat="41.682777" lon="2.270889">
        <ele>334.829</ele>
        <time>2022-10-23T09:28:16Z</time>
      </trkpt>
      <trkpt lat="41.682811" lon="2.270874">
        <ele>335.021</ele>
        <time>2022-10-23T09:28:17Z</time>
      </trkpt>
      <trkpt lat="41.682843" lon="2.270857">
        <ele>335.209</ele>
        <time>2022-10-23T09:28:18Z</time>
      </trkpt>
      <trkpt lat="41.682875" lon="2.270840">
        <ele>335.447</ele>
        <time>2022-10-23T09:28:19Z</time>
      </trkpt>
      <trkpt lat="41.682902" lon="2.270826">
        <ele>335.627</ele>
        <time>2022-10-23T09:28:20Z</time>
      </trkpt>
      <trkpt lat="41.682931" lon="2.270810">
        <ele>336.053</ele>
        <time>2022-10-23T09:28:21Z</time>
      </trkpt>
      <trkpt lat="41.682958" lon="2.270791">
        <ele>336.226</ele>
        <time>2022-10-23T09:28:22Z</time>
      </trkpt>
      <trkpt lat="41.682983" lon="2.270768">
        <ele>336.462</ele>
        <time>2022-10-23T09:28:23Z</time>
      </trkpt>
      <trkpt lat="41.683005" lon="2.270742">
        <ele>336.860</ele>
        <time>2022-10-23T09:28:24Z</time>
      </trkpt>
      <trkpt lat="41.683025" lon="2.270716">
        <ele>337.266</ele>
        <time>2022-10-23T09:28:25Z</time>
      </trkpt>
      <trkpt lat="41.683043" lon="2.270688">
        <ele>337.696</ele>
        <time>2022-10-23T09:28:26Z</time>
      </trkpt>
      <trkpt lat="41.683057" lon="2.270661">
        <ele>338.229</ele>
        <time>2022-10-23T09:28:27Z</time>
      </trkpt>
      <trkpt lat="41.683069" lon="2.270633">
        <ele>338.665</ele>
        <time>2022-10-23T09:28:28Z</time>
      </trkpt>
      <trkpt lat="41.683081" lon="2.270605">
        <ele>339.268</ele>
        <time>2022-10-23T09:28:29Z</time>
      </trkpt>
      <trkpt lat="41.683092" lon="2.270572">
        <ele>339.614</ele>
        <time>2022-10-23T09:28:30Z</time>
      </trkpt>
      <trkpt lat="41.683103" lon="2.270537">
        <ele>340.009</ele>
        <time>2022-10-23T09:28:31Z</time>
      </trkpt>
      <trkpt lat="41.683113" lon="2.270501">
        <ele>340.487</ele>
        <time>2022-10-23T09:28:32Z</time>
      </trkpt>
      <trkpt lat="41.683120" lon="2.270464">
        <ele>340.827</ele>
        <time>2022-10-23T09:28:33Z</time>
      </trkpt>
      <trkpt lat="41.683126" lon="2.270424">
        <ele>341.483</ele>
        <time>2022-10-23T09:28:34Z</time>
      </trkpt>
      <trkpt lat="41.683131" lon="2.270385">
        <ele>342.076</ele>
        <time>2022-10-23T09:28:35Z</time>
      </trkpt>
      <trkpt lat="41.683134" lon="2.270346">
        <ele>342.612</ele>
        <time>2022-10-23T09:28:36Z</time>
      </trkpt>
      <trkpt lat="41.683139" lon="2.270310">
        <ele>343.050</ele>
        <time>2022-10-23T09:28:37Z</time>
      </trkpt>
      <trkpt lat="41.683145" lon="2.270274">
        <ele>343.816</ele>
        <time>2022-10-23T09:28:38Z</time>
      </trkpt>
      <trkpt lat="41.683151" lon="2.270238">
        <ele>344.236</ele>
        <time>2022-10-23T09:28:39Z</time>
      </trkpt>
      <trkpt lat="41.683158" lon="2.270201">
        <ele>344.479</ele>
        <time>2022-10-23T09:28:40Z</time>
      </trkpt>
      <trkpt lat="41.683168" lon="2.270165">
        <ele>344.637</ele>
        <time>2022-10-23T09:28:41Z</time>
      </trkpt>
      <trkpt lat="41.683179" lon="2.270129">
        <ele>345.249</ele>
        <time>2022-10-23T09:28:42Z</time>
      </trkpt>
      <trkpt lat="41.683189" lon="2.270096">
        <ele>345.413</ele>
        <time>2022-10-23T09:28:43Z</time>
      </trkpt>
      <trkpt lat="41.683198" lon="2.270062">
        <ele>345.609</ele>
        <time>2022-10-23T09:28:44Z</time>
      </trkpt>
      <trkpt lat="41.683206" lon="2.270027">
        <ele>346.054</ele>
        <time>2022-10-23T09:28:45Z</time>
      </trkpt>
      <trkpt lat="41.683216" lon="2.269995">
        <ele>346.434</ele>
        <time>2022-10-23T09:28:46Z</time>
      </trkpt>
      <trkpt lat="41.683229" lon="2.269967">
        <ele>346.850</ele>
        <time>2022-10-23T09:28:47Z</time>
      </trkpt>
      <trkpt lat="41.683244" lon="2.269943">
        <ele>346.893</ele>
        <time>2022-10-23T09:28:48Z</time>
      </trkpt>
      <trkpt lat="41.683265" lon="2.269918">
        <ele>347.259</ele>
        <time>2022-10-23T09:28:49Z</time>
      </trkpt>
      <trkpt lat="41.683286" lon="2.269894">
        <ele>347.417</ele>
        <time>2022-10-23T09:28:50Z</time>
      </trkpt>
      <trkpt lat="41.683307" lon="2.269870">
        <ele>347.853</ele>
        <time>2022-10-23T09:28:51Z</time>
      </trkpt>
      <trkpt lat="41.683326" lon="2.269845">
        <ele>348.243</ele>
        <time>2022-10-23T09:28:52Z</time>
      </trkpt>
      <trkpt lat="41.683345" lon="2.269824">
        <ele>348.826</ele>
        <time>2022-10-23T09:28:53Z</time>
      </trkpt>
      <trkpt lat="41.683362" lon="2.269802">
        <ele>349.064</ele>
        <time>2022-10-23T09:28:54Z</time>
      </trkpt>
      <trkpt lat="41.683377" lon="2.269779">
        <ele>349.406</ele>
        <time>2022-10-23T09:28:55Z</time>
      </trkpt>
      <trkpt lat="41.683393" lon="2.269755">
        <ele>349.616</ele>
        <time>2022-10-23T09:28:56Z</time>
      </trkpt>
      <trkpt lat="41.683408" lon="2.269729">
        <ele>349.809</ele>
        <time>2022-10-23T09:28:57Z</time>
      </trkpt>
      <trkpt lat="41.683426" lon="2.269702">
        <ele>350.267</ele>
        <time>2022-10-23T09:28:58Z</time>
      </trkpt>
      <trkpt lat="41.683445" lon="2.269676">
        <ele>350.647</ele>
        <time>2022-10-23T09:28:59Z</time>
      </trkpt>
      <trkpt lat="41.683464" lon="2.269648">
        <ele>351.073</ele>
        <time>2022-10-23T09:29:00Z</time>
      </trkpt>
      <trkpt lat="41.683484" lon="2.269622">
        <ele>351.476</ele>
        <time>2022-10-23T09:29:01Z</time>
      </trkpt>
      <trkpt lat="41.683505" lon="2.269597">
        <ele>351.832</ele>
        <time>2022-10-23T09:29:02Z</time>
      </trkpt>
      <trkpt lat="41.683525" lon="2.269571">
        <ele>352.230</ele>
        <time>2022-10-23T09:29:03Z</time>
      </trkpt>
      <trkpt lat="41.683543" lon="2.269544">
        <ele>352.616</ele>
        <time>2022-10-23T09:29:04Z</time>
      </trkpt>
      <trkpt lat="41.683565" lon="2.269517">
        <ele>353.056</ele>
        <time>2022-10-23T09:29:05Z</time>
      </trkpt>
      <trkpt lat="41.683587" lon="2.269491">
        <ele>353.689</ele>
        <time>2022-10-23T09:29:06Z</time>
      </trkpt>
      <trkpt lat="41.683608" lon="2.269463">
        <ele>353.859</ele>
        <time>2022-10-23T09:29:07Z</time>
      </trkpt>
      <trkpt lat="41.683630" lon="2.269433">
        <ele>354.203</ele>
        <time>2022-10-23T09:29:08Z</time>
      </trkpt>
      <trkpt lat="41.683646" lon="2.269403">
        <ele>354.423</ele>
        <time>2022-10-23T09:29:09Z</time>
      </trkpt>
      <trkpt lat="41.683660" lon="2.269370">
        <ele>354.609</ele>
        <time>2022-10-23T09:29:10Z</time>
      </trkpt>
      <trkpt lat="41.683674" lon="2.269333">
        <ele>355.066</ele>
        <time>2022-10-23T09:29:11Z</time>
      </trkpt>
      <trkpt lat="41.683690" lon="2.269295">
        <ele>355.216</ele>
        <time>2022-10-23T09:29:12Z</time>
      </trkpt>
      <trkpt lat="41.683701" lon="2.269255">
        <ele>355.442</ele>
        <time>2022-10-23T09:29:13Z</time>
      </trkpt>
      <trkpt lat="41.683710" lon="2.269216">
        <ele>355.455</ele>
        <time>2022-10-23T09:29:14Z</time>
      </trkpt>
      <trkpt lat="41.683716" lon="2.269178">
        <ele>355.611</ele>
        <time>2022-10-23T09:29:15Z</time>
      </trkpt>
      <trkpt lat="41.683727" lon="2.269144">
        <ele>356.049</ele>
        <time>2022-10-23T09:29:16Z</time>
      </trkpt>
      <trkpt lat="41.683740" lon="2.269108">
        <ele>356.245</ele>
        <time>2022-10-23T09:29:17Z</time>
      </trkpt>
      <trkpt lat="41.683748" lon="2.269073">
        <ele>356.485</ele>
        <time>2022-10-23T09:29:18Z</time>
      </trkpt>
      <trkpt lat="41.683754" lon="2.269038">
        <ele>356.658</ele>
        <time>2022-10-23T09:29:19Z</time>
      </trkpt>
      <trkpt lat="41.683762" lon="2.269004">
        <ele>356.863</ele>
        <time>2022-10-23T09:29:20Z</time>
      </trkpt>
      <trkpt lat="41.683771" lon="2.268975">
        <ele>357.044</ele>
        <time>2022-10-23T09:29:21Z</time>
      </trkpt>
      <trkpt lat="41.683782" lon="2.268942">
        <ele>357.418</ele>
        <time>2022-10-23T09:29:22Z</time>
      </trkpt>
      <trkpt lat="41.683799" lon="2.268906">
        <ele>357.609</ele>
        <time>2022-10-23T09:29:23Z</time>
      </trkpt>
      <trkpt lat="41.683820" lon="2.268870">
        <ele>357.847</ele>
        <time>2022-10-23T09:29:24Z</time>
      </trkpt>
      <trkpt lat="41.683843" lon="2.268839">
        <ele>358.247</ele>
        <time>2022-10-23T09:29:25Z</time>
      </trkpt>
      <trkpt lat="41.683866" lon="2.268809">
        <ele>358.413</ele>
        <time>2022-10-23T09:29:26Z</time>
      </trkpt>
      <trkpt lat="41.683891" lon="2.268781">
        <ele>358.686</ele>
        <time>2022-10-23T09:29:27Z</time>
      </trkpt>
      <trkpt lat="41.683921" lon="2.268753">
        <ele>358.852</ele>
        <time>2022-10-23T09:29:28Z</time>
      </trkpt>
      <trkpt lat="41.683950" lon="2.268722">
        <ele>359.090</ele>
        <time>2022-10-23T09:29:29Z</time>
      </trkpt>
      <trkpt lat="41.683978" lon="2.268694">
        <ele>359.266</ele>
        <time>2022-10-23T09:29:30Z</time>
      </trkpt>
      <trkpt lat="41.684003" lon="2.268665">
        <ele>359.216</ele>
        <time>2022-10-23T09:29:31Z</time>
      </trkpt>
      <trkpt lat="41.684033" lon="2.268639">
        <ele>359.299</ele>
        <time>2022-10-23T09:29:32Z</time>
      </trkpt>
      <trkpt lat="41.684064" lon="2.268615">
        <ele>359.431</ele>
        <time>2022-10-23T09:29:33Z</time>
      </trkpt>
      <trkpt lat="41.684093" lon="2.268590">
        <ele>359.661</ele>
        <time>2022-10-23T09:29:34Z</time>
      </trkpt>
      <trkpt lat="41.684120" lon="2.268567">
        <ele>359.607</ele>
        <time>2022-10-23T09:29:35Z</time>
      </trkpt>
      <trkpt lat="41.684149" lon="2.268546">
        <ele>359.809</ele>
        <time>2022-10-23T09:29:36Z</time>
      </trkpt>
      <trkpt lat="41.684175" lon="2.268525">
        <ele>359.814</ele>
        <time>2022-10-23T09:29:37Z</time>
      </trkpt>
      <trkpt lat="41.684200" lon="2.268504">
        <ele>359.814</ele>
        <time>2022-10-23T09:29:38Z</time>
      </trkpt>
      <trkpt lat="41.684224" lon="2.268486">
        <ele>360.040</ele>
        <time>2022-10-23T09:29:39Z</time>
      </trkpt>
      <trkpt lat="41.684248" lon="2.268465">
        <ele>360.093</ele>
        <time>2022-10-23T09:29:40Z</time>
      </trkpt>
      <trkpt lat="41.684274" lon="2.268437">
        <ele>360.239</ele>
        <time>2022-10-23T09:29:41Z</time>
      </trkpt>
      <trkpt lat="41.684304" lon="2.268410">
        <ele>360.227</ele>
        <time>2022-10-23T09:29:42Z</time>
      </trkpt>
      <trkpt lat="41.684336" lon="2.268388">
        <ele>360.463</ele>
        <time>2022-10-23T09:29:43Z</time>
      </trkpt>
      <trkpt lat="41.684366" lon="2.268369">
        <ele>360.683</ele>
        <time>2022-10-23T09:29:44Z</time>
      </trkpt>
      <trkpt lat="41.684393" lon="2.268345">
        <ele>360.856</ele>
        <time>2022-10-23T09:29:45Z</time>
      </trkpt>
      <trkpt lat="41.684422" lon="2.268321">
        <ele>360.857</ele>
        <time>2022-10-23T09:29:46Z</time>
      </trkpt>
      <trkpt lat="41.684451" lon="2.268294">
        <ele>361.000</ele>
        <time>2022-10-23T09:29:47Z</time>
      </trkpt>
      <trkpt lat="41.684479" lon="2.268265">
        <ele>361.220</ele>
        <time>2022-10-23T09:29:48Z</time>
      </trkpt>
      <trkpt lat="41.684506" lon="2.268233">
        <ele>361.409</ele>
        <time>2022-10-23T09:29:49Z</time>
      </trkpt>
      <trkpt lat="41.684533" lon="2.268203">
        <ele>361.666</ele>
        <time>2022-10-23T09:29:50Z</time>
      </trkpt>
      <trkpt lat="41.684559" lon="2.268169">
        <ele>362.026</ele>
        <time>2022-10-23T09:29:51Z</time>
      </trkpt>
      <trkpt lat="41.684582" lon="2.268135">
        <ele>362.222</ele>
        <time>2022-10-23T09:29:52Z</time>
      </trkpt>
      <trkpt lat="41.684604" lon="2.268098">
        <ele>362.675</ele>
        <time>2022-10-23T09:29:53Z</time>
      </trkpt>
      <trkpt lat="41.684623" lon="2.268062">
        <ele>362.811</ele>
        <time>2022-10-23T09:29:54Z</time>
      </trkpt>
      <trkpt lat="41.684639" lon="2.268026">
        <ele>363.279</ele>
        <time>2022-10-23T09:29:55Z</time>
      </trkpt>
      <trkpt lat="41.684653" lon="2.267988">
        <ele>363.445</ele>
        <time>2022-10-23T09:29:56Z</time>
      </trkpt>
      <trkpt lat="41.684667" lon="2.267952">
        <ele>363.675</ele>
        <time>2022-10-23T09:29:57Z</time>
      </trkpt>
      <trkpt lat="41.684682" lon="2.267922">
        <ele>364.078</ele>
        <time>2022-10-23T09:29:58Z</time>
      </trkpt>
      <trkpt lat="41.684701" lon="2.267893">
        <ele>364.489</ele>
        <time>2022-10-23T09:29:59Z</time>
      </trkpt>
      <trkpt lat="41.684722" lon="2.267864">
        <ele>364.606</ele>
        <time>2022-10-23T09:30:00Z</time>
      </trkpt>
      <trkpt lat="41.684741" lon="2.267836">
        <ele>365.026</ele>
        <time>2022-10-23T09:30:01Z</time>
      </trkpt>
      <trkpt lat="41.684757" lon="2.267806">
        <ele>365.809</ele>
        <time>2022-10-23T09:30:02Z</time>
      </trkpt>
      <trkpt lat="41.684774" lon="2.267777">
        <ele>366.019</ele>
        <time>2022-10-23T09:30:03Z</time>
      </trkpt>
      <trkpt lat="41.684794" lon="2.267750">
        <ele>366.219</ele>
        <time>2022-10-23T09:30:04Z</time>
      </trkpt>
      <trkpt lat="41.684813" lon="2.267728">
        <ele>366.645</ele>
        <time>2022-10-23T09:30:05Z</time>
      </trkpt>
      <trkpt lat="41.684833" lon="2.267710">
        <ele>367.088</ele>
        <time>2022-10-23T09:30:06Z</time>
      </trkpt>
      <trkpt lat="41.684858" lon="2.267695">
        <ele>367.434</ele>
        <time>2022-10-23T09:30:07Z</time>
      </trkpt>
      <trkpt lat="41.684882" lon="2.267685">
        <ele>367.852</ele>
        <time>2022-10-23T09:30:08Z</time>
      </trkpt>
      <trkpt lat="41.684906" lon="2.267678">
        <ele>368.258</ele>
        <time>2022-10-23T09:30:09Z</time>
      </trkpt>
      <trkpt lat="41.684931" lon="2.267669">
        <ele>368.668</ele>
        <time>2022-10-23T09:30:10Z</time>
      </trkpt>
      <trkpt lat="41.684958" lon="2.267663">
        <ele>369.291</ele>
        <time>2022-10-23T09:30:11Z</time>
      </trkpt>
      <trkpt lat="41.684983" lon="2.267656">
        <ele>369.679</ele>
        <time>2022-10-23T09:30:12Z</time>
      </trkpt>
      <trkpt lat="41.685005" lon="2.267653">
        <ele>370.205</ele>
        <time>2022-10-23T09:30:13Z</time>
      </trkpt>
      <trkpt lat="41.685028" lon="2.267648">
        <ele>370.625</ele>
        <time>2022-10-23T09:30:14Z</time>
      </trkpt>
      <trkpt lat="41.685052" lon="2.267643">
        <ele>371.009</ele>
        <time>2022-10-23T09:30:15Z</time>
      </trkpt>
      <trkpt lat="41.685074" lon="2.267639">
        <ele>371.218</ele>
        <time>2022-10-23T09:30:16Z</time>
      </trkpt>
      <trkpt lat="41.685093" lon="2.267635">
        <ele>371.838</ele>
        <time>2022-10-23T09:30:17Z</time>
      </trkpt>
      <trkpt lat="41.685113" lon="2.267635">
        <ele>372.464</ele>
        <time>2022-10-23T09:30:18Z</time>
      </trkpt>
      <trkpt lat="41.685136" lon="2.267631">
        <ele>373.037</ele>
        <time>2022-10-23T09:30:19Z</time>
      </trkpt>
      <trkpt lat="41.685161" lon="2.267623">
        <ele>373.613</ele>
        <time>2022-10-23T09:30:20Z</time>
      </trkpt>
      <trkpt lat="41.685185" lon="2.267613">
        <ele>374.291</ele>
        <time>2022-10-23T09:30:21Z</time>
      </trkpt>
      <trkpt lat="41.685207" lon="2.267606">
        <ele>374.657</ele>
        <time>2022-10-23T09:30:22Z</time>
      </trkpt>
      <trkpt lat="41.685230" lon="2.267602">
        <ele>375.297</ele>
        <time>2022-10-23T09:30:23Z</time>
      </trkpt>
      <trkpt lat="41.685253" lon="2.267597">
        <ele>375.640</ele>
        <time>2022-10-23T09:30:24Z</time>
      </trkpt>
      <trkpt lat="41.685276" lon="2.267590">
        <ele>376.234</ele>
        <time>2022-10-23T09:30:25Z</time>
      </trkpt>
      <trkpt lat="41.685298" lon="2.267586">
        <ele>376.655</ele>
        <time>2022-10-23T09:30:26Z</time>
      </trkpt>
      <trkpt lat="41.685317" lon="2.267584">
        <ele>377.010</ele>
        <time>2022-10-23T09:30:27Z</time>
      </trkpt>
      <trkpt lat="41.685331" lon="2.267579">
        <ele>377.409</ele>
        <time>2022-10-23T09:30:28Z</time>
      </trkpt>
      <trkpt lat="41.685342" lon="2.267569">
        <ele>379.074</ele>
        <time>2022-10-23T09:30:29Z</time>
      </trkpt>
      <trkpt lat="41.685355" lon="2.267557">
        <ele>379.834</ele>
        <time>2022-10-23T09:30:30Z</time>
      </trkpt>
      <trkpt lat="41.685369" lon="2.267547">
        <ele>380.460</ele>
        <time>2022-10-23T09:30:31Z</time>
      </trkpt>
      <trkpt lat="41.685385" lon="2.267543">
        <ele>381.213</ele>
        <time>2022-10-23T09:30:32Z</time>
      </trkpt>
      <trkpt lat="41.685400" lon="2.267543">
        <ele>381.889</ele>
        <time>2022-10-23T09:30:33Z</time>
      </trkpt>
      <trkpt lat="41.685417" lon="2.267544">
        <ele>382.487</ele>
        <time>2022-10-23T09:30:34Z</time>
      </trkpt>
      <trkpt lat="41.685430" lon="2.267545">
        <ele>383.033</ele>
        <time>2022-10-23T09:30:35Z</time>
      </trkpt>
      <trkpt lat="41.685446" lon="2.267532">
        <ele>383.473</ele>
        <time>2022-10-23T09:30:36Z</time>
      </trkpt>
      <trkpt lat="41.685459" lon="2.267514">
        <ele>383.866</ele>
        <time>2022-10-23T09:30:37Z</time>
      </trkpt>
      <trkpt lat="41.685471" lon="2.267487">
        <ele>384.054</ele>
        <time>2022-10-23T09:30:38Z</time>
      </trkpt>
      <trkpt lat="41.685477" lon="2.267457">
        <ele>384.256</ele>
        <time>2022-10-23T09:30:39Z</time>
      </trkpt>
      <trkpt lat="41.685482" lon="2.267427">
        <ele>384.411</ele>
        <time>2022-10-23T09:30:40Z</time>
      </trkpt>
      <trkpt lat="41.685485" lon="2.267398">
        <ele>384.609</ele>
        <time>2022-10-23T09:30:41Z</time>
      </trkpt>
      <trkpt lat="41.685490" lon="2.267368">
        <ele>384.896</ele>
        <time>2022-10-23T09:30:42Z</time>
      </trkpt>
      <trkpt lat="41.685497" lon="2.267333">
        <ele>385.086</ele>
        <time>2022-10-23T09:30:43Z</time>
      </trkpt>
      <trkpt lat="41.685509" lon="2.267301">
        <ele>385.282</ele>
        <time>2022-10-23T09:30:44Z</time>
      </trkpt>
      <trkpt lat="41.685518" lon="2.267271">
        <ele>385.445</ele>
        <time>2022-10-23T09:30:45Z</time>
      </trkpt>
      <trkpt lat="41.685530" lon="2.267242">
        <ele>385.681</ele>
        <time>2022-10-23T09:30:46Z</time>
      </trkpt>
      <trkpt lat="41.685542" lon="2.267216">
        <ele>385.839</ele>
        <time>2022-10-23T09:30:47Z</time>
      </trkpt>
      <trkpt lat="41.685555" lon="2.267197">
        <ele>386.255</ele>
        <time>2022-10-23T09:30:48Z</time>
      </trkpt>
      <trkpt lat="41.685570" lon="2.267178">
        <ele>386.465</ele>
        <time>2022-10-23T09:30:49Z</time>
      </trkpt>
      <trkpt lat="41.685592" lon="2.267165">
        <ele>386.638</ele>
        <time>2022-10-23T09:30:50Z</time>
      </trkpt>
      <trkpt lat="41.685616" lon="2.267158">
        <ele>386.863</ele>
        <time>2022-10-23T09:30:51Z</time>
      </trkpt>
      <trkpt lat="41.685638" lon="2.267149">
        <ele>387.044</ele>
        <time>2022-10-23T09:30:52Z</time>
      </trkpt>
      <trkpt lat="41.685660" lon="2.267137">
        <ele>387.218</ele>
        <time>2022-10-23T09:30:53Z</time>
      </trkpt>
      <trkpt lat="41.685680" lon="2.267125">
        <ele>387.609</ele>
        <time>2022-10-23T09:30:54Z</time>
      </trkpt>
      <trkpt lat="41.685700" lon="2.267110">
        <ele>387.887</ele>
        <time>2022-10-23T09:30:55Z</time>
      </trkpt>
      <trkpt lat="41.685716" lon="2.267092">
        <ele>388.287</ele>
        <time>2022-10-23T09:30:56Z</time>
      </trkpt>
      <trkpt lat="41.685728" lon="2.267072">
        <ele>388.823</ele>
        <time>2022-10-23T09:30:57Z</time>
      </trkpt>
      <trkpt lat="41.685740" lon="2.267044">
        <ele>389.066</ele>
        <time>2022-10-23T09:30:58Z</time>
      </trkpt>
      <trkpt lat="41.685749" lon="2.267015">
        <ele>389.492</ele>
        <time>2022-10-23T09:30:59Z</time>
      </trkpt>
      <trkpt lat="41.685758" lon="2.266986">
        <ele>389.860</ele>
        <time>2022-10-23T09:31:00Z</time>
      </trkpt>
      <trkpt lat="41.685767" lon="2.266957">
        <ele>390.266</ele>
        <time>2022-10-23T09:31:01Z</time>
      </trkpt>
      <trkpt lat="41.685775" lon="2.266931">
        <ele>390.896</ele>
        <time>2022-10-23T09:31:02Z</time>
      </trkpt>
      <trkpt lat="41.685785" lon="2.266909">
        <ele>391.269</ele>
        <time>2022-10-23T09:31:03Z</time>
      </trkpt>
      <trkpt lat="41.685797" lon="2.266888">
        <ele>392.055</ele>
        <time>2022-10-23T09:31:04Z</time>
      </trkpt>
      <trkpt lat="41.685810" lon="2.266870">
        <ele>392.607</ele>
        <time>2022-10-23T09:31:05Z</time>
      </trkpt>
      <trkpt lat="41.685827" lon="2.266854">
        <ele>392.817</ele>
        <time>2022-10-23T09:31:06Z</time>
      </trkpt>
      <trkpt lat="41.685844" lon="2.266834">
        <ele>393.409</ele>
        <time>2022-10-23T09:31:07Z</time>
      </trkpt>
      <trkpt lat="41.685859" lon="2.266808">
        <ele>393.846</ele>
        <time>2022-10-23T09:31:08Z</time>
      </trkpt>
      <trkpt lat="41.685877" lon="2.266782">
        <ele>394.276</ele>
        <time>2022-10-23T09:31:09Z</time>
      </trkpt>
      <trkpt lat="41.685894" lon="2.266757">
        <ele>394.412</ele>
        <time>2022-10-23T09:31:10Z</time>
      </trkpt>
      <trkpt lat="41.685909" lon="2.266730">
        <ele>394.675</ele>
        <time>2022-10-23T09:31:11Z</time>
      </trkpt>
      <trkpt lat="41.685923" lon="2.266699">
        <ele>394.861</ele>
        <time>2022-10-23T09:31:12Z</time>
      </trkpt>
      <trkpt lat="41.685936" lon="2.266666">
        <ele>395.079</ele>
        <time>2022-10-23T09:31:13Z</time>
      </trkpt>
      <trkpt lat="41.685952" lon="2.266635">
        <ele>395.275</ele>
        <time>2022-10-23T09:31:14Z</time>
      </trkpt>
      <trkpt lat="41.685967" lon="2.266607">
        <ele>395.265</ele>
        <time>2022-10-23T09:31:15Z</time>
      </trkpt>
      <trkpt lat="41.685986" lon="2.266585">
        <ele>395.418</ele>
        <time>2022-10-23T09:31:16Z</time>
      </trkpt>
      <trkpt lat="41.686006" lon="2.266567">
        <ele>395.678</ele>
        <time>2022-10-23T09:31:17Z</time>
      </trkpt>
      <trkpt lat="41.686027" lon="2.266546">
        <ele>395.833</ele>
        <time>2022-10-23T09:31:18Z</time>
      </trkpt>
      <trkpt lat="41.686047" lon="2.266526">
        <ele>396.226</ele>
        <time>2022-10-23T09:31:19Z</time>
      </trkpt>
      <trkpt lat="41.686068" lon="2.266507">
        <ele>396.609</ele>
        <time>2022-10-23T09:31:20Z</time>
      </trkpt>
      <trkpt lat="41.686088" lon="2.266492">
        <ele>397.028</ele>
        <time>2022-10-23T09:31:21Z</time>
      </trkpt>
      <trkpt lat="41.686110" lon="2.266480">
        <ele>397.488</ele>
        <time>2022-10-23T09:31:22Z</time>
      </trkpt>
      <trkpt lat="41.686134" lon="2.266472">
        <ele>398.084</ele>
        <time>2022-10-23T09:31:23Z</time>
      </trkpt>
      <trkpt lat="41.686158" lon="2.266464">
        <ele>398.627</ele>
        <time>2022-10-23T09:31:24Z</time>
      </trkpt>
      <trkpt lat="41.686181" lon="2.266455">
        <ele>400.013</ele>
        <time>2022-10-23T09:31:25Z</time>
      </trkpt>
      <trkpt lat="41.686202" lon="2.266440">
        <ele>400.621</ele>
        <time>2022-10-23T09:31:26Z</time>
      </trkpt>
      <trkpt lat="41.686218" lon="2.266424">
        <ele>401.057</ele>
        <time>2022-10-23T09:31:27Z</time>
      </trkpt>
      <trkpt lat="41.686234" lon="2.266409">
        <ele>401.627</ele>
        <time>2022-10-23T09:31:28Z</time>
      </trkpt>
      <trkpt lat="41.686250" lon="2.266393">
        <ele>402.220</ele>
        <time>2022-10-23T09:31:29Z</time>
      </trkpt>
      <trkpt lat="41.686265" lon="2.266371">
        <ele>402.648</ele>
        <time>2022-10-23T09:31:30Z</time>
      </trkpt>
      <trkpt lat="41.686283" lon="2.266353">
        <ele>403.261</ele>
        <time>2022-10-23T09:31:31Z</time>
      </trkpt>
      <trkpt lat="41.686301" lon="2.266334">
        <ele>403.817</ele>
        <time>2022-10-23T09:31:32Z</time>
      </trkpt>
      <trkpt lat="41.686317" lon="2.266312">
        <ele>404.209</ele>
        <time>2022-10-23T09:31:33Z</time>
      </trkpt>
      <trkpt lat="41.686328" lon="2.266285">
        <ele>404.865</ele>
        <time>2022-10-23T09:31:34Z</time>
      </trkpt>
      <trkpt lat="41.686340" lon="2.266261">
        <ele>405.495</ele>
        <time>2022-10-23T09:31:35Z</time>
      </trkpt>
      <trkpt lat="41.686352" lon="2.266238">
        <ele>406.061</ele>
        <time>2022-10-23T09:31:36Z</time>
      </trkpt>
      <trkpt lat="41.686366" lon="2.266217">
        <ele>406.624</ele>
        <time>2022-10-23T09:31:37Z</time>
      </trkpt>
      <trkpt lat="41.686382" lon="2.266201">
        <ele>407.270</ele>
        <time>2022-10-23T09:31:38Z</time>
      </trkpt>
      <trkpt lat="41.686400" lon="2.266191">
        <ele>407.818</ele>
        <time>2022-10-23T09:31:39Z</time>
      </trkpt>
      <trkpt lat="41.686418" lon="2.266178">
        <ele>408.294</ele>
        <time>2022-10-23T09:31:40Z</time>
      </trkpt>
      <trkpt lat="41.686435" lon="2.266164">
        <ele>408.844</ele>
        <time>2022-10-23T09:31:41Z</time>
      </trkpt>
      <trkpt lat="41.686450" lon="2.266150">
        <ele>409.237</ele>
        <time>2022-10-23T09:31:42Z</time>
      </trkpt>
      <trkpt lat="41.686467" lon="2.266138">
        <ele>409.619</ele>
        <time>2022-10-23T09:31:43Z</time>
      </trkpt>
      <trkpt lat="41.686487" lon="2.266127">
        <ele>410.209</ele>
        <time>2022-10-23T09:31:44Z</time>
      </trkpt>
      <trkpt lat="41.686508" lon="2.266115">
        <ele>410.419</ele>
        <time>2022-10-23T09:31:45Z</time>
      </trkpt>
      <trkpt lat="41.686529" lon="2.266102">
        <ele>411.009</ele>
        <time>2022-10-23T09:31:46Z</time>
      </trkpt>
      <trkpt lat="41.686552" lon="2.266088">
        <ele>411.432</ele>
        <time>2022-10-23T09:31:47Z</time>
      </trkpt>
      <trkpt lat="41.686573" lon="2.266073">
        <ele>411.622</ele>
        <time>2022-10-23T09:31:48Z</time>
      </trkpt>
      <trkpt lat="41.686596" lon="2.266058">
        <ele>411.858</ele>
        <time>2022-10-23T09:31:49Z</time>
      </trkpt>
      <trkpt lat="41.686618" lon="2.266044">
        <ele>412.271</ele>
        <time>2022-10-23T09:31:50Z</time>
      </trkpt>
      <trkpt lat="41.686638" lon="2.266031">
        <ele>412.417</ele>
        <time>2022-10-23T09:31:51Z</time>
      </trkpt>
      <trkpt lat="41.686656" lon="2.266019">
        <ele>412.625</ele>
        <time>2022-10-23T09:31:52Z</time>
      </trkpt>
      <trkpt lat="41.686675" lon="2.266008">
        <ele>412.891</ele>
        <time>2022-10-23T09:31:53Z</time>
      </trkpt>
      <trkpt lat="41.686695" lon="2.265993">
        <ele>413.081</ele>
        <time>2022-10-23T09:31:54Z</time>
      </trkpt>
      <trkpt lat="41.686713" lon="2.265977">
        <ele>413.234</ele>
        <time>2022-10-23T09:31:55Z</time>
      </trkpt>
      <trkpt lat="41.686733" lon="2.265964">
        <ele>413.428</ele>
        <time>2022-10-23T09:31:56Z</time>
      </trkpt>
      <trkpt lat="41.686753" lon="2.265951">
        <ele>413.689</ele>
        <time>2022-10-23T09:31:57Z</time>
      </trkpt>
      <trkpt lat="41.686771" lon="2.265935">
        <ele>413.817</ele>
        <time>2022-10-23T09:31:58Z</time>
      </trkpt>
      <trkpt lat="41.686790" lon="2.265922">
        <ele>414.009</ele>
        <time>2022-10-23T09:31:59Z</time>
      </trkpt>
      <trkpt lat="41.686806" lon="2.265908">
        <ele>414.083</ele>
        <time>2022-10-23T09:32:00Z</time>
      </trkpt>
      <trkpt lat="41.686820" lon="2.265890">
        <ele>414.283</ele>
        <time>2022-10-23T09:32:01Z</time>
      </trkpt>
      <trkpt lat="41.686833" lon="2.265876">
        <ele>414.439</ele>
        <time>2022-10-23T09:32:02Z</time>
      </trkpt>
      <trkpt lat="41.686847" lon="2.265863">
        <ele>414.432</ele>
        <time>2022-10-23T09:32:03Z</time>
      </trkpt>
      <trkpt lat="41.686863" lon="2.265846">
        <ele>414.668</ele>
        <time>2022-10-23T09:32:04Z</time>
      </trkpt>
      <trkpt lat="41.686880" lon="2.265827">
        <ele>414.696</ele>
        <time>2022-10-23T09:32:05Z</time>
      </trkpt>
      <trkpt lat="41.686896" lon="2.265810">
        <ele>414.812</ele>
        <time>2022-10-23T09:32:06Z</time>
      </trkpt>
      <trkpt lat="41.686914" lon="2.265797">
        <ele>415.082</ele>
        <time>2022-10-23T09:32:07Z</time>
      </trkpt>
      <trkpt lat="41.686935" lon="2.265791">
        <ele>415.285</ele>
        <time>2022-10-23T09:32:08Z</time>
      </trkpt>
      <trkpt lat="41.686960" lon="2.265787">
        <ele>415.614</ele>
        <time>2022-10-23T09:32:09Z</time>
      </trkpt>
      <trkpt lat="41.686985" lon="2.265793">
        <ele>415.854</ele>
        <time>2022-10-23T09:32:10Z</time>
      </trkpt>
      <trkpt lat="41.687008" lon="2.265804">
        <ele>415.809</ele>
        <time>2022-10-23T09:32:11Z</time>
      </trkpt>
      <trkpt lat="41.687030" lon="2.265814">
        <ele>416.009</ele>
        <time>2022-10-23T09:32:12Z</time>
      </trkpt>
      <trkpt lat="41.687055" lon="2.265825">
        <ele>416.262</ele>
        <time>2022-10-23T09:32:13Z</time>
      </trkpt>
      <trkpt lat="41.687081" lon="2.265836">
        <ele>416.492</ele>
        <time>2022-10-23T09:32:14Z</time>
      </trkpt>
      <trkpt lat="41.687107" lon="2.265844">
        <ele>416.898</ele>
        <time>2022-10-23T09:32:15Z</time>
      </trkpt>
      <trkpt lat="41.687132" lon="2.265850">
        <ele>417.021</ele>
        <time>2022-10-23T09:32:16Z</time>
      </trkpt>
      <trkpt lat="41.687157" lon="2.265859">
        <ele>417.457</ele>
        <time>2022-10-23T09:32:17Z</time>
      </trkpt>
      <trkpt lat="41.687184" lon="2.265869">
        <ele>417.815</ele>
        <time>2022-10-23T09:32:18Z</time>
      </trkpt>
      <trkpt lat="41.687212" lon="2.265881">
        <ele>417.881</ele>
        <time>2022-10-23T09:32:19Z</time>
      </trkpt>
      <trkpt lat="41.687241" lon="2.265894">
        <ele>418.231</ele>
        <time>2022-10-23T09:32:20Z</time>
      </trkpt>
      <trkpt lat="41.687270" lon="2.265907">
        <ele>418.694</ele>
        <time>2022-10-23T09:32:21Z</time>
      </trkpt>
      <trkpt lat="41.687297" lon="2.265920">
        <ele>418.649</ele>
        <time>2022-10-23T09:32:22Z</time>
      </trkpt>
      <trkpt lat="41.687321" lon="2.265937">
        <ele>418.802</ele>
        <time>2022-10-23T09:32:23Z</time>
      </trkpt>
      <trkpt lat="41.687345" lon="2.265955">
        <ele>418.822</ele>
        <time>2022-10-23T09:32:24Z</time>
      </trkpt>
      <trkpt lat="41.687370" lon="2.265971">
        <ele>419.009</ele>
        <time>2022-10-23T09:32:25Z</time>
      </trkpt>
      <trkpt lat="41.687394" lon="2.265986">
        <ele>419.255</ele>
        <time>2022-10-23T09:32:26Z</time>
      </trkpt>
      <trkpt lat="41.687421" lon="2.265999">
        <ele>419.275</ele>
        <time>2022-10-23T09:32:27Z</time>
      </trkpt>
      <trkpt lat="41.687448" lon="2.266008">
        <ele>419.411</ele>
        <time>2022-10-23T09:32:28Z</time>
      </trkpt>
      <trkpt lat="41.687474" lon="2.266019">
        <ele>419.624</ele>
        <time>2022-10-23T09:32:29Z</time>
      </trkpt>
      <trkpt lat="41.687502" lon="2.266031">
        <ele>419.840</ele>
        <time>2022-10-23T09:32:30Z</time>
      </trkpt>
      <trkpt lat="41.687530" lon="2.266041">
        <ele>420.088</ele>
        <time>2022-10-23T09:32:31Z</time>
      </trkpt>
      <trkpt lat="41.687558" lon="2.266050">
        <ele>420.474</ele>
        <time>2022-10-23T09:32:32Z</time>
      </trkpt>
      <trkpt lat="41.687584" lon="2.266057">
        <ele>420.644</ele>
        <time>2022-10-23T09:32:33Z</time>
      </trkpt>
      <trkpt lat="41.687610" lon="2.266060">
        <ele>421.067</ele>
        <time>2022-10-23T09:32:34Z</time>
      </trkpt>
      <trkpt lat="41.687634" lon="2.266058">
        <ele>421.214</ele>
        <time>2022-10-23T09:32:35Z</time>
      </trkpt>
      <trkpt lat="41.687657" lon="2.266051">
        <ele>421.454</ele>
        <time>2022-10-23T09:32:36Z</time>
      </trkpt>
      <trkpt lat="41.687682" lon="2.266040">
        <ele>421.809</ele>
        <time>2022-10-23T09:32:37Z</time>
      </trkpt>
      <trkpt lat="41.687707" lon="2.266024">
        <ele>422.209</ele>
        <time>2022-10-23T09:32:38Z</time>
      </trkpt>
      <trkpt lat="41.687733" lon="2.266004">
        <ele>422.442</ele>
        <time>2022-10-23T09:32:39Z</time>
      </trkpt>
      <trkpt lat="41.687757" lon="2.265980">
        <ele>422.872</ele>
        <time>2022-10-23T09:32:40Z</time>
      </trkpt>
      <trkpt lat="41.687779" lon="2.265957">
        <ele>423.078</ele>
        <time>2022-10-23T09:32:41Z</time>
      </trkpt>
      <trkpt lat="41.687799" lon="2.265932">
        <ele>423.291</ele>
        <time>2022-10-23T09:32:42Z</time>
      </trkpt>
      <trkpt lat="41.687820" lon="2.265907">
        <ele>423.437</ele>
        <time>2022-10-23T09:32:43Z</time>
      </trkpt>
      <trkpt lat="41.687842" lon="2.265881">
        <ele>423.855</ele>
        <time>2022-10-23T09:32:44Z</time>
      </trkpt>
      <trkpt lat="41.687864" lon="2.265855">
        <ele>424.021</ele>
        <time>2022-10-23T09:32:45Z</time>
      </trkpt>
      <trkpt lat="41.687887" lon="2.265830">
        <ele>424.261</ele>
        <time>2022-10-23T09:32:46Z</time>
      </trkpt>
      <trkpt lat="41.687910" lon="2.265809">
        <ele>424.674</ele>
        <time>2022-10-23T09:32:47Z</time>
      </trkpt>
      <trkpt lat="41.687935" lon="2.265789">
        <ele>425.232</ele>
        <time>2022-10-23T09:32:48Z</time>
      </trkpt>
      <trkpt lat="41.687960" lon="2.265769">
        <ele>425.692</ele>
        <time>2022-10-23T09:32:49Z</time>
      </trkpt>
      <trkpt lat="41.687985" lon="2.265748">
        <ele>425.811</ele>
        <time>2022-10-23T09:32:50Z</time>
      </trkpt>
      <trkpt lat="41.688010" lon="2.265726">
        <ele>426.009</ele>
        <time>2022-10-23T09:32:51Z</time>
      </trkpt>
      <trkpt lat="41.688036" lon="2.265706">
        <ele>426.214</ele>
        <time>2022-10-23T09:32:52Z</time>
      </trkpt>
      <trkpt lat="41.688059" lon="2.265685">
        <ele>426.474</ele>
        <time>2022-10-23T09:32:53Z</time>
      </trkpt>
      <trkpt lat="41.688083" lon="2.265665">
        <ele>426.690</ele>
        <time>2022-10-23T09:32:54Z</time>
      </trkpt>
      <trkpt lat="41.688110" lon="2.265642">
        <ele>426.863</ele>
        <time>2022-10-23T09:32:55Z</time>
      </trkpt>
      <trkpt lat="41.688139" lon="2.265617">
        <ele>427.299</ele>
        <time>2022-10-23T09:32:56Z</time>
      </trkpt>
      <trkpt lat="41.688168" lon="2.265594">
        <ele>427.427</ele>
        <time>2022-10-23T09:32:57Z</time>
      </trkpt>
      <trkpt lat="41.688196" lon="2.265572">
        <ele>427.623</ele>
        <time>2022-10-23T09:32:58Z</time>
      </trkpt>
      <trkpt lat="41.688221" lon="2.265550">
        <ele>427.883</ele>
        <time>2022-10-23T09:32:59Z</time>
      </trkpt>
      <trkpt lat="41.688248" lon="2.265529">
        <ele>428.226</ele>
        <time>2022-10-23T09:33:00Z</time>
      </trkpt>
      <trkpt lat="41.688276" lon="2.265506">
        <ele>428.467</ele>
        <time>2022-10-23T09:33:01Z</time>
      </trkpt>
      <trkpt lat="41.688305" lon="2.265484">
        <ele>428.681</ele>
        <time>2022-10-23T09:33:02Z</time>
      </trkpt>
      <trkpt lat="41.688335" lon="2.265463">
        <ele>428.619</ele>
        <time>2022-10-23T09:33:03Z</time>
      </trkpt>
      <trkpt lat="41.688364" lon="2.265440">
        <ele>428.809</ele>
        <time>2022-10-23T09:33:04Z</time>
      </trkpt>
      <trkpt lat="41.688391" lon="2.265418">
        <ele>429.077</ele>
        <time>2022-10-23T09:33:05Z</time>
      </trkpt>
      <trkpt lat="41.688416" lon="2.265398">
        <ele>429.267</ele>
        <time>2022-10-23T09:33:06Z</time>
      </trkpt>
      <trkpt lat="41.688440" lon="2.265378">
        <ele>429.493</ele>
        <time>2022-10-23T09:33:07Z</time>
      </trkpt>
      <trkpt lat="41.688464" lon="2.265351">
        <ele>429.656</ele>
        <time>2022-10-23T09:33:08Z</time>
      </trkpt>
      <trkpt lat="41.688486" lon="2.265321">
        <ele>430.012</ele>
        <time>2022-10-23T09:33:09Z</time>
      </trkpt>
      <trkpt lat="41.688505" lon="2.265283">
        <ele>430.230</ele>
        <time>2022-10-23T09:33:10Z</time>
      </trkpt>
      <trkpt lat="41.688522" lon="2.265244">
        <ele>430.666</ele>
        <time>2022-10-23T09:33:11Z</time>
      </trkpt>
      <trkpt lat="41.688538" lon="2.265202">
        <ele>430.886</ele>
        <time>2022-10-23T09:33:12Z</time>
      </trkpt>
      <trkpt lat="41.688554" lon="2.265161">
        <ele>431.029</ele>
        <time>2022-10-23T09:33:13Z</time>
      </trkpt>
      <trkpt lat="41.688568" lon="2.265120">
        <ele>431.211</ele>
        <time>2022-10-23T09:33:14Z</time>
      </trkpt>
      <trkpt lat="41.688582" lon="2.265080">
        <ele>431.621</ele>
        <time>2022-10-23T09:33:15Z</time>
      </trkpt>
      <trkpt lat="41.688594" lon="2.265039">
        <ele>431.803</ele>
        <time>2022-10-23T09:33:16Z</time>
      </trkpt>
      <trkpt lat="41.688603" lon="2.264998">
        <ele>431.809</ele>
        <time>2022-10-23T09:33:17Z</time>
      </trkpt>
      <trkpt lat="41.688614" lon="2.264957">
        <ele>431.882</ele>
        <time>2022-10-23T09:33:18Z</time>
      </trkpt>
      <trkpt lat="41.688626" lon="2.264915">
        <ele>432.012</ele>
        <time>2022-10-23T09:33:19Z</time>
      </trkpt>
      <trkpt lat="41.688638" lon="2.264875">
        <ele>432.298</ele>
        <time>2022-10-23T09:33:20Z</time>
      </trkpt>
      <trkpt lat="41.688656" lon="2.264833">
        <ele>432.431</ele>
        <time>2022-10-23T09:33:21Z</time>
      </trkpt>
      <trkpt lat="41.688676" lon="2.264792">
        <ele>432.487</ele>
        <time>2022-10-23T09:33:22Z</time>
      </trkpt>
      <trkpt lat="41.688699" lon="2.264757">
        <ele>432.655</ele>
        <time>2022-10-23T09:33:23Z</time>
      </trkpt>
      <trkpt lat="41.688726" lon="2.264728">
        <ele>432.681</ele>
        <time>2022-10-23T09:33:24Z</time>
      </trkpt>
      <trkpt lat="41.688754" lon="2.264702">
        <ele>432.841</ele>
        <time>2022-10-23T09:33:25Z</time>
      </trkpt>
      <trkpt lat="41.688785" lon="2.264679">
        <ele>433.094</ele>
        <time>2022-10-23T09:33:26Z</time>
      </trkpt>
      <trkpt lat="41.688817" lon="2.264662">
        <ele>433.033</ele>
        <time>2022-10-23T09:33:27Z</time>
      </trkpt>
      <trkpt lat="41.688850" lon="2.264649">
        <ele>433.023</ele>
        <time>2022-10-23T09:33:28Z</time>
      </trkpt>
      <trkpt lat="41.688884" lon="2.264640">
        <ele>433.215</ele>
        <time>2022-10-23T09:33:29Z</time>
      </trkpt>
      <trkpt lat="41.688918" lon="2.264630">
        <ele>433.409</ele>
        <time>2022-10-23T09:33:30Z</time>
      </trkpt>
      <trkpt lat="41.688952" lon="2.264618">
        <ele>433.484</ele>
        <time>2022-10-23T09:33:31Z</time>
      </trkpt>
      <trkpt lat="41.688986" lon="2.264606">
        <ele>433.634</ele>
        <time>2022-10-23T09:33:32Z</time>
      </trkpt>
      <trkpt lat="41.689017" lon="2.264593">
        <ele>433.610</ele>
        <time>2022-10-23T09:33:33Z</time>
      </trkpt>
      <trkpt lat="41.689051" lon="2.264584">
        <ele>433.893</ele>
        <time>2022-10-23T09:33:34Z</time>
      </trkpt>
      <trkpt lat="41.689086" lon="2.264571">
        <ele>434.039</ele>
        <time>2022-10-23T09:33:35Z</time>
      </trkpt>
      <trkpt lat="41.689123" lon="2.264562">
        <ele>434.297</ele>
        <time>2022-10-23T09:33:36Z</time>
      </trkpt>
      <trkpt lat="41.689160" lon="2.264550">
        <ele>434.483</ele>
        <time>2022-10-23T09:33:37Z</time>
      </trkpt>
      <trkpt lat="41.689196" lon="2.264538">
        <ele>434.653</ele>
        <time>2022-10-23T09:33:38Z</time>
      </trkpt>
      <trkpt lat="41.689233" lon="2.264527">
        <ele>434.686</ele>
        <time>2022-10-23T09:33:39Z</time>
      </trkpt>
      <trkpt lat="41.689267" lon="2.264514">
        <ele>434.821</ele>
        <time>2022-10-23T09:33:40Z</time>
      </trkpt>
      <trkpt lat="41.689301" lon="2.264506">
        <ele>435.041</ele>
        <time>2022-10-23T09:33:41Z</time>
      </trkpt>
      <trkpt lat="41.689333" lon="2.264498">
        <ele>435.005</ele>
        <time>2022-10-23T09:33:42Z</time>
      </trkpt>
      <trkpt lat="41.689367" lon="2.264490">
        <ele>435.409</ele>
        <time>2022-10-23T09:33:43Z</time>
      </trkpt>
      <trkpt lat="41.689403" lon="2.264479">
        <ele>435.653</ele>
        <time>2022-10-23T09:33:44Z</time>
      </trkpt>
      <trkpt lat="41.689440" lon="2.264468">
        <ele>435.843</ele>
        <time>2022-10-23T09:33:45Z</time>
      </trkpt>
      <trkpt lat="41.689477" lon="2.264458">
        <ele>435.869</ele>
        <time>2022-10-23T09:33:46Z</time>
      </trkpt>
      <trkpt lat="41.689514" lon="2.264447">
        <ele>435.882</ele>
        <time>2022-10-23T09:33:47Z</time>
      </trkpt>
      <trkpt lat="41.689552" lon="2.264438">
        <ele>436.068</ele>
        <time>2022-10-23T09:33:48Z</time>
      </trkpt>
      <trkpt lat="41.689587" lon="2.264426">
        <ele>436.266</ele>
        <time>2022-10-23T09:33:49Z</time>
      </trkpt>
      <trkpt lat="41.689619" lon="2.264415">
        <ele>436.412</ele>
        <time>2022-10-23T09:33:50Z</time>
      </trkpt>
      <trkpt lat="41.689648" lon="2.264402">
        <ele>436.622</ele>
        <time>2022-10-23T09:33:51Z</time>
      </trkpt>
      <trkpt lat="41.689674" lon="2.264391">
        <ele>436.835</ele>
        <time>2022-10-23T09:33:52Z</time>
      </trkpt>
      <trkpt lat="41.689705" lon="2.264382">
        <ele>437.011</ele>
        <time>2022-10-23T09:33:53Z</time>
      </trkpt>
      <trkpt lat="41.689732" lon="2.264370">
        <ele>437.021</ele>
        <time>2022-10-23T09:33:54Z</time>
      </trkpt>
      <trkpt lat="41.689759" lon="2.264357">
        <ele>437.203</ele>
        <time>2022-10-23T09:33:55Z</time>
      </trkpt>
      <trkpt lat="41.689785" lon="2.264342">
        <ele>437.209</ele>
        <time>2022-10-23T09:33:56Z</time>
      </trkpt>
      <trkpt lat="41.689811" lon="2.264323">
        <ele>437.452</ele>
        <time>2022-10-23T09:33:57Z</time>
      </trkpt>
      <trkpt lat="41.689839" lon="2.264299">
        <ele>437.652</ele>
        <time>2022-10-23T09:33:58Z</time>
      </trkpt>
      <trkpt lat="41.689865" lon="2.264273">
        <ele>437.628</ele>
        <time>2022-10-23T09:33:59Z</time>
      </trkpt>
      <trkpt lat="41.689892" lon="2.264245">
        <ele>437.851</ele>
        <time>2022-10-23T09:34:00Z</time>
      </trkpt>
      <trkpt lat="41.689918" lon="2.264217">
        <ele>438.027</ele>
        <time>2022-10-23T09:34:01Z</time>
      </trkpt>
      <trkpt lat="41.689943" lon="2.264187">
        <ele>438.215</ele>
        <time>2022-10-23T09:34:02Z</time>
      </trkpt>
      <trkpt lat="41.689968" lon="2.264157">
        <ele>438.421</ele>
        <time>2022-10-23T09:34:03Z</time>
      </trkpt>
      <trkpt lat="41.689994" lon="2.264126">
        <ele>438.681</ele>
        <time>2022-10-23T09:34:04Z</time>
      </trkpt>
      <trkpt lat="41.690022" lon="2.264094">
        <ele>438.884</ele>
        <time>2022-10-23T09:34:05Z</time>
      </trkpt>
      <trkpt lat="41.690045" lon="2.264064">
        <ele>439.089</ele>
        <time>2022-10-23T09:34:06Z</time>
      </trkpt>
      <trkpt lat="41.690067" lon="2.264039">
        <ele>439.206</ele>
        <time>2022-10-23T09:34:07Z</time>
      </trkpt>
      <trkpt lat="41.690086" lon="2.264019">
        <ele>439.426</ele>
        <time>2022-10-23T09:34:08Z</time>
      </trkpt>
      <trkpt lat="41.690103" lon="2.264001">
        <ele>439.609</ele>
        <time>2022-10-23T09:34:09Z</time>
      </trkpt>
      <trkpt lat="41.690121" lon="2.263981">
        <ele>439.889</ele>
        <time>2022-10-23T09:34:10Z</time>
      </trkpt>
      <trkpt lat="41.690137" lon="2.263967">
        <ele>440.489</ele>
        <time>2022-10-23T09:34:11Z</time>
      </trkpt>
      <trkpt lat="41.690156" lon="2.263949">
        <ele>440.825</ele>
        <time>2022-10-23T09:34:12Z</time>
      </trkpt>
      <trkpt lat="41.690178" lon="2.263936">
        <ele>441.048</ele>
        <time>2022-10-23T09:34:13Z</time>
      </trkpt>
      <trkpt lat="41.690200" lon="2.263925">
        <ele>441.644</ele>
        <time>2022-10-23T09:34:14Z</time>
      </trkpt>
      <trkpt lat="41.690222" lon="2.263918">
        <ele>442.042</ele>
        <time>2022-10-23T09:34:15Z</time>
      </trkpt>
      <trkpt lat="41.690248" lon="2.263917">
        <ele>442.688</ele>
        <time>2022-10-23T09:34:16Z</time>
      </trkpt>
      <trkpt lat="41.690275" lon="2.263919">
        <ele>443.078</ele>
        <time>2022-10-23T09:34:17Z</time>
      </trkpt>
      <trkpt lat="41.690306" lon="2.263923">
        <ele>443.431</ele>
        <time>2022-10-23T09:34:18Z</time>
      </trkpt>
      <trkpt lat="41.690335" lon="2.263929">
        <ele>443.886</ele>
        <time>2022-10-23T09:34:19Z</time>
      </trkpt>
      <trkpt lat="41.690361" lon="2.263932">
        <ele>444.060</ele>
        <time>2022-10-23T09:34:20Z</time>
      </trkpt>
      <trkpt lat="41.690386" lon="2.263937">
        <ele>444.426</ele>
        <time>2022-10-23T09:34:21Z</time>
      </trkpt>
      <trkpt lat="41.690415" lon="2.263939">
        <ele>444.809</ele>
        <time>2022-10-23T09:34:22Z</time>
      </trkpt>
      <trkpt lat="41.690444" lon="2.263936">
        <ele>445.239</ele>
        <time>2022-10-23T09:34:23Z</time>
      </trkpt>
      <trkpt lat="41.690475" lon="2.263934">
        <ele>445.439</ele>
        <time>2022-10-23T09:34:24Z</time>
      </trkpt>
      <trkpt lat="41.690506" lon="2.263929">
        <ele>445.675</ele>
        <time>2022-10-23T09:34:25Z</time>
      </trkpt>
      <trkpt lat="41.690536" lon="2.263922">
        <ele>445.828</ele>
        <time>2022-10-23T09:34:26Z</time>
      </trkpt>
      <trkpt lat="41.690567" lon="2.263916">
        <ele>445.814</ele>
        <time>2022-10-23T09:34:27Z</time>
      </trkpt>
      <trkpt lat="41.690590" lon="2.263906">
        <ele>446.242</ele>
        <time>2022-10-23T09:34:28Z</time>
      </trkpt>
      <trkpt lat="41.690612" lon="2.263898">
        <ele>446.228</ele>
        <time>2022-10-23T09:34:29Z</time>
      </trkpt>
      <trkpt lat="41.690633" lon="2.263893">
        <ele>446.418</ele>
        <time>2022-10-23T09:34:30Z</time>
      </trkpt>
      <trkpt lat="41.690656" lon="2.263886">
        <ele>446.481</ele>
        <time>2022-10-23T09:34:31Z</time>
      </trkpt>
      <trkpt lat="41.690682" lon="2.263881">
        <ele>446.656</ele>
        <time>2022-10-23T09:34:32Z</time>
      </trkpt>
      <trkpt lat="41.690711" lon="2.263885">
        <ele>446.859</ele>
        <time>2022-10-23T09:34:33Z</time>
      </trkpt>
      <trkpt lat="41.690739" lon="2.263890">
        <ele>447.014</ele>
        <time>2022-10-23T09:34:34Z</time>
      </trkpt>
      <trkpt lat="41.690761" lon="2.263898">
        <ele>447.209</ele>
        <time>2022-10-23T09:34:35Z</time>
      </trkpt>
      <trkpt lat="41.690787" lon="2.263904">
        <ele>447.456</ele>
        <time>2022-10-23T09:34:36Z</time>
      </trkpt>
      <trkpt lat="41.690811" lon="2.263910">
        <ele>447.616</ele>
        <time>2022-10-23T09:34:37Z</time>
      </trkpt>
      <trkpt lat="41.690836" lon="2.263914">
        <ele>447.852</ele>
        <time>2022-10-23T09:34:38Z</time>
      </trkpt>
      <trkpt lat="41.690864" lon="2.263915">
        <ele>448.025</ele>
        <time>2022-10-23T09:34:39Z</time>
      </trkpt>
      <trkpt lat="41.690890" lon="2.263913">
        <ele>448.451</ele>
        <time>2022-10-23T09:34:40Z</time>
      </trkpt>
      <trkpt lat="41.690912" lon="2.263911">
        <ele>448.669</ele>
        <time>2022-10-23T09:34:41Z</time>
      </trkpt>
      <trkpt lat="41.690935" lon="2.263905">
        <ele>448.895</ele>
        <time>2022-10-23T09:34:42Z</time>
      </trkpt>
      <trkpt lat="41.690959" lon="2.263897">
        <ele>449.035</ele>
        <time>2022-10-23T09:34:43Z</time>
      </trkpt>
      <trkpt lat="41.690987" lon="2.263887">
        <ele>449.638</ele>
        <time>2022-10-23T09:34:44Z</time>
      </trkpt>
      <trkpt lat="41.691011" lon="2.263870">
        <ele>449.844</ele>
        <time>2022-10-23T09:34:45Z</time>
      </trkpt>
      <trkpt lat="41.691033" lon="2.263849">
        <ele>450.005</ele>
        <time>2022-10-23T09:34:46Z</time>
      </trkpt>
      <trkpt lat="41.691051" lon="2.263823">
        <ele>450.415</ele>
        <time>2022-10-23T09:34:47Z</time>
      </trkpt>
      <trkpt lat="41.691066" lon="2.263803">
        <ele>450.609</ele>
        <time>2022-10-23T09:34:48Z</time>
      </trkpt>
      <trkpt lat="41.691080" lon="2.263781">
        <ele>450.865</ele>
        <time>2022-10-23T09:34:49Z</time>
      </trkpt>
      <trkpt lat="41.691098" lon="2.263761">
        <ele>451.095</ele>
        <time>2022-10-23T09:34:50Z</time>
      </trkpt>
      <trkpt lat="41.691116" lon="2.263738">
        <ele>451.411</ele>
        <time>2022-10-23T09:34:51Z</time>
      </trkpt>
      <trkpt lat="41.691135" lon="2.263719">
        <ele>451.444</ele>
        <time>2022-10-23T09:34:52Z</time>
      </trkpt>
      <trkpt lat="41.691153" lon="2.263697">
        <ele>451.660</ele>
        <time>2022-10-23T09:34:53Z</time>
      </trkpt>
      <trkpt lat="41.691175" lon="2.263678">
        <ele>452.028</ele>
        <time>2022-10-23T09:34:54Z</time>
      </trkpt>
      <trkpt lat="41.691195" lon="2.263662">
        <ele>452.274</ele>
        <time>2022-10-23T09:34:55Z</time>
      </trkpt>
      <trkpt lat="41.691213" lon="2.263651">
        <ele>452.474</ele>
        <time>2022-10-23T09:34:56Z</time>
      </trkpt>
      <trkpt lat="41.691232" lon="2.263639">
        <ele>452.687</ele>
        <time>2022-10-23T09:34:57Z</time>
      </trkpt>
      <trkpt lat="41.691252" lon="2.263630">
        <ele>453.093</ele>
        <time>2022-10-23T09:34:58Z</time>
      </trkpt>
      <trkpt lat="41.691268" lon="2.263617">
        <ele>453.465</ele>
        <time>2022-10-23T09:34:59Z</time>
      </trkpt>
      <trkpt lat="41.691285" lon="2.263604">
        <ele>453.621</ele>
        <time>2022-10-23T09:35:00Z</time>
      </trkpt>
      <trkpt lat="41.691303" lon="2.263590">
        <ele>454.209</ele>
        <time>2022-10-23T09:35:01Z</time>
      </trkpt>
      <trkpt lat="41.691321" lon="2.263575">
        <ele>454.650</ele>
        <time>2022-10-23T09:35:02Z</time>
      </trkpt>
      <trkpt lat="41.691338" lon="2.263556">
        <ele>455.270</ele>
        <time>2022-10-23T09:35:03Z</time>
      </trkpt>
      <trkpt lat="41.691357" lon="2.263530">
        <ele>455.686</ele>
        <time>2022-10-23T09:35:04Z</time>
      </trkpt>
      <trkpt lat="41.691374" lon="2.263504">
        <ele>456.259</ele>
        <time>2022-10-23T09:35:05Z</time>
      </trkpt>
      <trkpt lat="41.691389" lon="2.263475">
        <ele>456.855</ele>
        <time>2022-10-23T09:35:06Z</time>
      </trkpt>
      <trkpt lat="41.691404" lon="2.263446">
        <ele>458.093</ele>
        <time>2022-10-23T09:35:07Z</time>
      </trkpt>
      <trkpt lat="41.691418" lon="2.263419">
        <ele>458.469</ele>
        <time>2022-10-23T09:35:08Z</time>
      </trkpt>
      <trkpt lat="41.691431" lon="2.263391">
        <ele>458.699</ele>
        <time>2022-10-23T09:35:09Z</time>
      </trkpt>
      <trkpt lat="41.691443" lon="2.263363">
        <ele>459.012</ele>
        <time>2022-10-23T09:35:10Z</time>
      </trkpt>
      <trkpt lat="41.691456" lon="2.263334">
        <ele>459.421</ele>
        <time>2022-10-23T09:35:11Z</time>
      </trkpt>
      <trkpt lat="41.691468" lon="2.263311">
        <ele>459.841</ele>
        <time>2022-10-23T09:35:12Z</time>
      </trkpt>
      <trkpt lat="41.691481" lon="2.263289">
        <ele>460.205</ele>
        <time>2022-10-23T09:35:13Z</time>
      </trkpt>
      <trkpt lat="41.691493" lon="2.263266">
        <ele>460.609</ele>
        <time>2022-10-23T09:35:14Z</time>
      </trkpt>
      <trkpt lat="41.691505" lon="2.263242">
        <ele>461.013</ele>
        <time>2022-10-23T09:35:15Z</time>
      </trkpt>
      <trkpt lat="41.691516" lon="2.263219">
        <ele>461.473</ele>
        <time>2022-10-23T09:35:16Z</time>
      </trkpt>
      <trkpt lat="41.691525" lon="2.263194">
        <ele>461.899</ele>
        <time>2022-10-23T09:35:17Z</time>
      </trkpt>
      <trkpt lat="41.691536" lon="2.263170">
        <ele>462.082</ele>
        <time>2022-10-23T09:35:18Z</time>
      </trkpt>
      <trkpt lat="41.691548" lon="2.263148">
        <ele>462.688</ele>
        <time>2022-10-23T09:35:19Z</time>
      </trkpt>
      <trkpt lat="41.691558" lon="2.263126">
        <ele>463.276</ele>
        <time>2022-10-23T09:35:20Z</time>
      </trkpt>
      <trkpt lat="41.691564" lon="2.263101">
        <ele>463.652</ele>
        <time>2022-10-23T09:35:21Z</time>
      </trkpt>
      <trkpt lat="41.691568" lon="2.263076">
        <ele>463.852</ele>
        <time>2022-10-23T09:35:22Z</time>
      </trkpt>
      <trkpt lat="41.691571" lon="2.263053">
        <ele>464.245</ele>
        <time>2022-10-23T09:35:23Z</time>
      </trkpt>
      <trkpt lat="41.691574" lon="2.263033">
        <ele>464.435</ele>
        <time>2022-10-23T09:35:24Z</time>
      </trkpt>
      <trkpt lat="41.691574" lon="2.263012">
        <ele>464.886</ele>
        <time>2022-10-23T09:35:25Z</time>
      </trkpt>
      <trkpt lat="41.691576" lon="2.262989">
        <ele>465.214</ele>
        <time>2022-10-23T09:35:26Z</time>
      </trkpt>
      <trkpt lat="41.691575" lon="2.262967">
        <ele>465.609</ele>
        <time>2022-10-23T09:35:27Z</time>
      </trkpt>
      <trkpt lat="41.691575" lon="2.262946">
        <ele>466.024</ele>
        <time>2022-10-23T09:35:28Z</time>
      </trkpt>
      <trkpt lat="41.691574" lon="2.262924">
        <ele>466.444</ele>
        <time>2022-10-23T09:35:29Z</time>
      </trkpt>
      <trkpt lat="41.691569" lon="2.262903">
        <ele>466.860</ele>
        <time>2022-10-23T09:35:30Z</time>
      </trkpt>
      <trkpt lat="41.691566" lon="2.262884">
        <ele>467.213</ele>
        <time>2022-10-23T09:35:31Z</time>
      </trkpt>
      <trkpt lat="41.691567" lon="2.262867">
        <ele>467.819</ele>
        <time>2022-10-23T09:35:32Z</time>
      </trkpt>
      <trkpt lat="41.691568" lon="2.262848">
        <ele>468.267</ele>
        <time>2022-10-23T09:35:33Z</time>
      </trkpt>
      <trkpt lat="41.691566" lon="2.262829">
        <ele>468.833</ele>
        <time>2022-10-23T09:35:34Z</time>
      </trkpt>
      <trkpt lat="41.691566" lon="2.262806">
        <ele>469.213</ele>
        <time>2022-10-23T09:35:35Z</time>
      </trkpt>
      <trkpt lat="41.691565" lon="2.262782">
        <ele>469.646</ele>
        <time>2022-10-23T09:35:36Z</time>
      </trkpt>
      <trkpt lat="41.691565" lon="2.262763">
        <ele>470.014</ele>
        <time>2022-10-23T09:35:37Z</time>
      </trkpt>
      <trkpt lat="41.691572" lon="2.262749">
        <ele>470.454</ele>
        <time>2022-10-23T09:35:38Z</time>
      </trkpt>
      <trkpt lat="41.691586" lon="2.262743">
        <ele>470.809</ele>
        <time>2022-10-23T09:35:39Z</time>
      </trkpt>
      <trkpt lat="41.691600" lon="2.262746">
        <ele>471.209</ele>
        <time>2022-10-23T09:35:40Z</time>
      </trkpt>
      <trkpt lat="41.691618" lon="2.262754">
        <ele>471.672</ele>
        <time>2022-10-23T09:35:41Z</time>
      </trkpt>
      <trkpt lat="41.691635" lon="2.262760">
        <ele>471.822</ele>
        <time>2022-10-23T09:35:42Z</time>
      </trkpt>
      <trkpt lat="41.691654" lon="2.262765">
        <ele>472.268</ele>
        <time>2022-10-23T09:35:43Z</time>
      </trkpt>
      <trkpt lat="41.691673" lon="2.262769">
        <ele>472.451</ele>
        <time>2022-10-23T09:35:44Z</time>
      </trkpt>
      <trkpt lat="41.691694" lon="2.262773">
        <ele>472.847</ele>
        <time>2022-10-23T09:35:45Z</time>
      </trkpt>
      <trkpt lat="41.691718" lon="2.262777">
        <ele>473.055</ele>
        <time>2022-10-23T09:35:46Z</time>
      </trkpt>
      <trkpt lat="41.691741" lon="2.262781">
        <ele>473.291</ele>
        <time>2022-10-23T09:35:47Z</time>
      </trkpt>
      <trkpt lat="41.691758" lon="2.262786">
        <ele>473.481</ele>
        <time>2022-10-23T09:35:48Z</time>
      </trkpt>
      <trkpt lat="41.691772" lon="2.262788">
        <ele>473.684</ele>
        <time>2022-10-23T09:35:49Z</time>
      </trkpt>
      <trkpt lat="41.691789" lon="2.262790">
        <ele>473.885</ele>
        <time>2022-10-23T09:35:50Z</time>
      </trkpt>
      <trkpt lat="41.691806" lon="2.262795">
        <ele>474.289</ele>
        <time>2022-10-23T09:35:51Z</time>
      </trkpt>
      <trkpt lat="41.691823" lon="2.262800">
        <ele>474.417</ele>
        <time>2022-10-23T09:35:52Z</time>
      </trkpt>
      <trkpt lat="41.691844" lon="2.262805">
        <ele>474.809</ele>
        <time>2022-10-23T09:35:53Z</time>
      </trkpt>
      <trkpt lat="41.691868" lon="2.262807">
        <ele>475.039</ele>
        <time>2022-10-23T09:35:54Z</time>
      </trkpt>
      <trkpt lat="41.691890" lon="2.262811">
        <ele>475.289</ele>
        <time>2022-10-23T09:35:55Z</time>
      </trkpt>
      <trkpt lat="41.691913" lon="2.262817">
        <ele>475.625</ele>
        <time>2022-10-23T09:35:56Z</time>
      </trkpt>
      <trkpt lat="41.691933" lon="2.262821">
        <ele>475.888</ele>
        <time>2022-10-23T09:35:57Z</time>
      </trkpt>
      <trkpt lat="41.691955" lon="2.262825">
        <ele>476.094</ele>
        <time>2022-10-23T09:35:58Z</time>
      </trkpt>
      <trkpt lat="41.691975" lon="2.262830">
        <ele>476.222</ele>
        <time>2022-10-23T09:35:59Z</time>
      </trkpt>
      <trkpt lat="41.691997" lon="2.262837">
        <ele>476.698</ele>
        <time>2022-10-23T09:36:00Z</time>
      </trkpt>
      <trkpt lat="41.692019" lon="2.262843">
        <ele>476.878</ele>
        <time>2022-10-23T09:36:01Z</time>
      </trkpt>
      <trkpt lat="41.692042" lon="2.262848">
        <ele>477.621</ele>
        <time>2022-10-23T09:36:02Z</time>
      </trkpt>
      <trkpt lat="41.692065" lon="2.262854">
        <ele>478.095</ele>
        <time>2022-10-23T09:36:03Z</time>
      </trkpt>
      <trkpt lat="41.692086" lon="2.262857">
        <ele>478.449</ele>
        <time>2022-10-23T09:36:04Z</time>
      </trkpt>
      <trkpt lat="41.692104" lon="2.262860">
        <ele>478.623</ele>
        <time>2022-10-23T09:36:05Z</time>
      </trkpt>
      <trkpt lat="41.692124" lon="2.262862">
        <ele>479.009</ele>
        <time>2022-10-23T09:36:06Z</time>
      </trkpt>
      <trkpt lat="41.692146" lon="2.262863">
        <ele>479.460</ele>
        <time>2022-10-23T09:36:07Z</time>
      </trkpt>
      <trkpt lat="41.692170" lon="2.262863">
        <ele>479.620</ele>
        <time>2022-10-23T09:36:08Z</time>
      </trkpt>
      <trkpt lat="41.692191" lon="2.262862">
        <ele>480.036</ele>
        <time>2022-10-23T09:36:09Z</time>
      </trkpt>
      <trkpt lat="41.692216" lon="2.262863">
        <ele>480.239</ele>
        <time>2022-10-23T09:36:10Z</time>
      </trkpt>
      <trkpt lat="41.692240" lon="2.262861">
        <ele>480.655</ele>
        <time>2022-10-23T09:36:11Z</time>
      </trkpt>
      <trkpt lat="41.692260" lon="2.262862">
        <ele>481.013</ele>
        <time>2022-10-23T09:36:12Z</time>
      </trkpt>
      <trkpt lat="41.692281" lon="2.262866">
        <ele>481.289</ele>
        <time>2022-10-23T09:36:13Z</time>
      </trkpt>
      <trkpt lat="41.692302" lon="2.262869">
        <ele>481.689</ele>
        <time>2022-10-23T09:36:14Z</time>
      </trkpt>
      <trkpt lat="41.692324" lon="2.262872">
        <ele>482.022</ele>
        <time>2022-10-23T09:36:15Z</time>
      </trkpt>
      <trkpt lat="41.692345" lon="2.262876">
        <ele>482.277</ele>
        <time>2022-10-23T09:36:16Z</time>
      </trkpt>
      <trkpt lat="41.692366" lon="2.262878">
        <ele>482.661</ele>
        <time>2022-10-23T09:36:17Z</time>
      </trkpt>
      <trkpt lat="41.692386" lon="2.262882">
        <ele>483.027</ele>
        <time>2022-10-23T09:36:18Z</time>
      </trkpt>
      <trkpt lat="41.692406" lon="2.262888">
        <ele>483.409</ele>
        <time>2022-10-23T09:36:19Z</time>
      </trkpt>
      <trkpt lat="41.692429" lon="2.262892">
        <ele>483.888</ele>
        <time>2022-10-23T09:36:20Z</time>
      </trkpt>
      <trkpt lat="41.692454" lon="2.262898">
        <ele>484.248</ele>
        <time>2022-10-23T09:36:21Z</time>
      </trkpt>
      <trkpt lat="41.692476" lon="2.262904">
        <ele>484.624</ele>
        <time>2022-10-23T09:36:22Z</time>
      </trkpt>
      <trkpt lat="41.692499" lon="2.262909">
        <ele>484.847</ele>
        <time>2022-10-23T09:36:23Z</time>
      </trkpt>
      <trkpt lat="41.692523" lon="2.262914">
        <ele>485.283</ele>
        <time>2022-10-23T09:36:24Z</time>
      </trkpt>
      <trkpt lat="41.692544" lon="2.262918">
        <ele>485.461</ele>
        <time>2022-10-23T09:36:25Z</time>
      </trkpt>
      <trkpt lat="41.692570" lon="2.262925">
        <ele>485.817</ele>
        <time>2022-10-23T09:36:26Z</time>
      </trkpt>
      <trkpt lat="41.692592" lon="2.262932">
        <ele>486.057</ele>
        <time>2022-10-23T09:36:27Z</time>
      </trkpt>
      <trkpt lat="41.692613" lon="2.262939">
        <ele>486.450</ele>
        <time>2022-10-23T09:36:28Z</time>
      </trkpt>
      <trkpt lat="41.692634" lon="2.262945">
        <ele>486.839</ele>
        <time>2022-10-23T09:36:29Z</time>
      </trkpt>
      <trkpt lat="41.692657" lon="2.262950">
        <ele>487.401</ele>
        <time>2022-10-23T09:36:30Z</time>
      </trkpt>
      <trkpt lat="41.692681" lon="2.262955">
        <ele>487.621</ele>
        <time>2022-10-23T09:36:31Z</time>
      </trkpt>
      <trkpt lat="41.692705" lon="2.262964">
        <ele>487.809</ele>
        <time>2022-10-23T09:36:32Z</time>
      </trkpt>
      <trkpt lat="41.692730" lon="2.262977">
        <ele>488.094</ele>
        <time>2022-10-23T09:36:33Z</time>
      </trkpt>
      <trkpt lat="41.692756" lon="2.262991">
        <ele>488.214</ele>
        <time>2022-10-23T09:36:34Z</time>
      </trkpt>
      <trkpt lat="41.692782" lon="2.263004">
        <ele>488.440</ele>
        <time>2022-10-23T09:36:35Z</time>
      </trkpt>
      <trkpt lat="41.692808" lon="2.263016">
        <ele>488.623</ele>
        <time>2022-10-23T09:36:36Z</time>
      </trkpt>
      <trkpt lat="41.692836" lon="2.263027">
        <ele>488.829</ele>
        <time>2022-10-23T09:36:37Z</time>
      </trkpt>
      <trkpt lat="41.692864" lon="2.263035">
        <ele>489.097</ele>
        <time>2022-10-23T09:36:38Z</time>
      </trkpt>
      <trkpt lat="41.692892" lon="2.263038">
        <ele>489.023</ele>
        <time>2022-10-23T09:36:39Z</time>
      </trkpt>
      <trkpt lat="41.692919" lon="2.263039">
        <ele>489.073</ele>
        <time>2022-10-23T09:36:40Z</time>
      </trkpt>
      <trkpt lat="41.692948" lon="2.263040">
        <ele>489.226</ele>
        <time>2022-10-23T09:36:41Z</time>
      </trkpt>
      <trkpt lat="41.692976" lon="2.263038">
        <ele>489.231</ele>
        <time>2022-10-23T09:36:42Z</time>
      </trkpt>
      <trkpt lat="41.693007" lon="2.263035">
        <ele>489.461</ele>
        <time>2022-10-23T09:36:43Z</time>
      </trkpt>
      <trkpt lat="41.693039" lon="2.263033">
        <ele>489.407</ele>
        <time>2022-10-23T09:36:44Z</time>
      </trkpt>
      <trkpt lat="41.693071" lon="2.263027">
        <ele>489.609</ele>
        <time>2022-10-23T09:36:45Z</time>
      </trkpt>
      <trkpt lat="41.693102" lon="2.263023">
        <ele>489.884</ele>
        <time>2022-10-23T09:36:46Z</time>
      </trkpt>
      <trkpt lat="41.693132" lon="2.263018">
        <ele>490.074</ele>
        <time>2022-10-23T09:36:47Z</time>
      </trkpt>
      <trkpt lat="41.693164" lon="2.263018">
        <ele>490.280</ele>
        <time>2022-10-23T09:36:48Z</time>
      </trkpt>
      <trkpt lat="41.693196" lon="2.263014">
        <ele>490.453</ele>
        <time>2022-10-23T09:36:49Z</time>
      </trkpt>
      <trkpt lat="41.693228" lon="2.263009">
        <ele>490.679</ele>
        <time>2022-10-23T09:36:50Z</time>
      </trkpt>
      <trkpt lat="41.693261" lon="2.263003">
        <ele>490.657</ele>
        <time>2022-10-23T09:36:51Z</time>
      </trkpt>
      <trkpt lat="41.693292" lon="2.262993">
        <ele>490.683</ele>
        <time>2022-10-23T09:36:52Z</time>
      </trkpt>
      <trkpt lat="41.693322" lon="2.262984">
        <ele>490.813</ele>
        <time>2022-10-23T09:36:53Z</time>
      </trkpt>
      <trkpt lat="41.693350" lon="2.262973">
        <ele>491.076</ele>
        <time>2022-10-23T09:36:54Z</time>
      </trkpt>
      <trkpt lat="41.693378" lon="2.262960">
        <ele>491.293</ele>
        <time>2022-10-23T09:36:55Z</time>
      </trkpt>
      <trkpt lat="41.693404" lon="2.262941">
        <ele>491.465</ele>
        <time>2022-10-23T09:36:56Z</time>
      </trkpt>
      <trkpt lat="41.693431" lon="2.262923">
        <ele>491.621</ele>
        <time>2022-10-23T09:36:57Z</time>
      </trkpt>
      <trkpt lat="41.693459" lon="2.262916">
        <ele>491.809</ele>
        <time>2022-10-23T09:36:58Z</time>
      </trkpt>
      <trkpt lat="41.693487" lon="2.262914">
        <ele>492.070</ele>
        <time>2022-10-23T09:36:59Z</time>
      </trkpt>
      <trkpt lat="41.693514" lon="2.262914">
        <ele>492.210</ele>
        <time>2022-10-23T09:37:00Z</time>
      </trkpt>
      <trkpt lat="41.693545" lon="2.262916">
        <ele>492.616</ele>
        <time>2022-10-23T09:37:01Z</time>
      </trkpt>
      <trkpt lat="41.693577" lon="2.262921">
        <ele>493.089</ele>
        <time>2022-10-23T09:37:02Z</time>
      </trkpt>
      <trkpt lat="41.693608" lon="2.262923">
        <ele>493.265</ele>
        <time>2022-10-23T09:37:03Z</time>
      </trkpt>
      <trkpt lat="41.693640" lon="2.262926">
        <ele>493.643</ele>
        <time>2022-10-23T09:37:04Z</time>
      </trkpt>
      <trkpt lat="41.693673" lon="2.262928">
        <ele>494.069</ele>
        <time>2022-10-23T09:37:05Z</time>
      </trkpt>
      <trkpt lat="41.693707" lon="2.262926">
        <ele>494.499</ele>
        <time>2022-10-23T09:37:06Z</time>
      </trkpt>
      <trkpt lat="41.693739" lon="2.262917">
        <ele>494.642</ele>
        <time>2022-10-23T09:37:07Z</time>
      </trkpt>
      <trkpt lat="41.693768" lon="2.262902">
        <ele>494.833</ele>
        <time>2022-10-23T09:37:08Z</time>
      </trkpt>
      <trkpt lat="41.693798" lon="2.262886">
        <ele>495.023</ele>
        <time>2022-10-23T09:37:09Z</time>
      </trkpt>
      <trkpt lat="41.693827" lon="2.262871">
        <ele>495.415</ele>
        <time>2022-10-23T09:37:10Z</time>
      </trkpt>
      <trkpt lat="41.693857" lon="2.262853">
        <ele>495.609</ele>
        <time>2022-10-23T09:37:11Z</time>
      </trkpt>
      <trkpt lat="41.693884" lon="2.262834">
        <ele>495.834</ele>
        <time>2022-10-23T09:37:12Z</time>
      </trkpt>
      <trkpt lat="41.693911" lon="2.262817">
        <ele>496.034</ele>
        <time>2022-10-23T09:37:13Z</time>
      </trkpt>
      <trkpt lat="41.693941" lon="2.262806">
        <ele>496.270</ele>
        <time>2022-10-23T09:37:14Z</time>
      </trkpt>
      <trkpt lat="41.693971" lon="2.262797">
        <ele>496.443</ele>
        <time>2022-10-23T09:37:15Z</time>
      </trkpt>
      <trkpt lat="41.694003" lon="2.262788">
        <ele>496.419</ele>
        <time>2022-10-23T09:37:16Z</time>
      </trkpt>
      <trkpt lat="41.694034" lon="2.262785">
        <ele>496.687</ele>
        <time>2022-10-23T09:37:17Z</time>
      </trkpt>
      <trkpt lat="41.694065" lon="2.262784">
        <ele>496.643</ele>
        <time>2022-10-23T09:37:18Z</time>
      </trkpt>
      <trkpt lat="41.694094" lon="2.262788">
        <ele>496.673</ele>
        <time>2022-10-23T09:37:19Z</time>
      </trkpt>
      <trkpt lat="41.694122" lon="2.262790">
        <ele>496.686</ele>
        <time>2022-10-23T09:37:20Z</time>
      </trkpt>
      <trkpt lat="41.694151" lon="2.262797">
        <ele>496.859</ele>
        <time>2022-10-23T09:37:21Z</time>
      </trkpt>
      <trkpt lat="41.694180" lon="2.262807">
        <ele>496.803</ele>
        <time>2022-10-23T09:37:22Z</time>
      </trkpt>
      <trkpt lat="41.694208" lon="2.262820">
        <ele>497.223</ele>
        <time>2022-10-23T09:37:23Z</time>
      </trkpt>
      <trkpt lat="41.694234" lon="2.262837">
        <ele>497.409</ele>
        <time>2022-10-23T09:37:24Z</time>
      </trkpt>
      <trkpt lat="41.694258" lon="2.262853">
        <ele>497.816</ele>
        <time>2022-10-23T09:37:25Z</time>
      </trkpt>
      <trkpt lat="41.694282" lon="2.262869">
        <ele>498.066</ele>
        <time>2022-10-23T09:37:26Z</time>
      </trkpt>
      <trkpt lat="41.694308" lon="2.262881">
        <ele>498.622</ele>
        <time>2022-10-23T09:37:27Z</time>
      </trkpt>
      <trkpt lat="41.694334" lon="2.262893">
        <ele>498.815</ele>
        <time>2022-10-23T09:37:28Z</time>
      </trkpt>
      <trkpt lat="41.694357" lon="2.262903">
        <ele>499.041</ele>
        <time>2022-10-23T09:37:29Z</time>
      </trkpt>
      <trkpt lat="41.694377" lon="2.262910">
        <ele>499.419</ele>
        <time>2022-10-23T09:37:30Z</time>
      </trkpt>
      <trkpt lat="41.694398" lon="2.262914">
        <ele>499.815</ele>
        <time>2022-10-23T09:37:31Z</time>
      </trkpt>
      <trkpt lat="41.694420" lon="2.262918">
        <ele>500.015</ele>
        <time>2022-10-23T09:37:32Z</time>
      </trkpt>
      <trkpt lat="41.694442" lon="2.262922">
        <ele>500.238</ele>
        <time>2022-10-23T09:37:33Z</time>
      </trkpt>
      <trkpt lat="41.694462" lon="2.262925">
        <ele>500.635</ele>
        <time>2022-10-23T09:37:34Z</time>
      </trkpt>
      <trkpt lat="41.694480" lon="2.262925">
        <ele>501.086</ele>
        <time>2022-10-23T09:37:35Z</time>
      </trkpt>
      <trkpt lat="41.694494" lon="2.262927">
        <ele>501.414</ele>
        <time>2022-10-23T09:37:36Z</time>
      </trkpt>
      <trkpt lat="41.694504" lon="2.262930">
        <ele>502.009</ele>
        <time>2022-10-23T09:37:37Z</time>
      </trkpt>
      <trkpt lat="41.694515" lon="2.262926">
        <ele>502.414</ele>
        <time>2022-10-23T09:37:38Z</time>
      </trkpt>
      <trkpt lat="41.694526" lon="2.262920">
        <ele>503.014</ele>
        <time>2022-10-23T09:37:39Z</time>
      </trkpt>
      <trkpt lat="41.694540" lon="2.262916">
        <ele>503.250</ele>
        <time>2022-10-23T09:37:40Z</time>
      </trkpt>
      <trkpt lat="41.694553" lon="2.262917">
        <ele>503.413</ele>
        <time>2022-10-23T09:37:41Z</time>
      </trkpt>
      <trkpt lat="41.694563" lon="2.262923">
        <ele>503.899</ele>
        <time>2022-10-23T09:37:42Z</time>
      </trkpt>
      <trkpt lat="41.694570" lon="2.262934">
        <ele>504.247</ele>
        <time>2022-10-23T09:37:43Z</time>
      </trkpt>
      <trkpt lat="41.694573" lon="2.262951">
        <ele>504.493</ele>
        <time>2022-10-23T09:37:44Z</time>
      </trkpt>
      <trkpt lat="41.694574" lon="2.262962">
        <ele>504.633</ele>
        <time>2022-10-23T09:37:45Z</time>
      </trkpt>
      <trkpt lat="41.694576" lon="2.262961">
        <ele>505.076</ele>
        <time>2022-10-23T09:37:46Z</time>
      </trkpt>
      <trkpt lat="41.694463" lon="2.262970">
        <ele>505.045</ele>
        <time>2022-10-23T09:40:43Z</time>
      </trkpt>
      <trkpt lat="41.694420" lon="2.263000">
        <ele>505.047</ele>
        <time>2022-10-23T09:40:44Z</time>
      </trkpt>
      <trkpt lat="41.694374" lon="2.263029">
        <ele>504.811</ele>
        <time>2022-10-23T09:40:45Z</time>
      </trkpt>
      <trkpt lat="41.694330" lon="2.263047">
        <ele>504.809</ele>
        <time>2022-10-23T09:40:46Z</time>
      </trkpt>
      <trkpt lat="41.694293" lon="2.263057">
        <ele>504.815</ele>
        <time>2022-10-23T09:40:47Z</time>
      </trkpt>
      <trkpt lat="41.694260" lon="2.263065">
        <ele>504.895</ele>
        <time>2022-10-23T09:40:48Z</time>
      </trkpt>
      <trkpt lat="41.694230" lon="2.263073">
        <ele>504.881</ele>
        <time>2022-10-23T09:40:49Z</time>
      </trkpt>
      <trkpt lat="41.694206" lon="2.263087">
        <ele>504.884</ele>
        <time>2022-10-23T09:40:50Z</time>
      </trkpt>
      <trkpt lat="41.694189" lon="2.263108">
        <ele>504.830</ele>
        <time>2022-10-23T09:40:51Z</time>
      </trkpt>
      <trkpt lat="41.694171" lon="2.263134">
        <ele>504.848</ele>
        <time>2022-10-23T09:40:52Z</time>
      </trkpt>
      <trkpt lat="41.694147" lon="2.263161">
        <ele>505.044</ele>
        <time>2022-10-23T09:40:53Z</time>
      </trkpt>
      <trkpt lat="41.694120" lon="2.263180">
        <ele>505.074</ele>
        <time>2022-10-23T09:40:54Z</time>
      </trkpt>
      <trkpt lat="41.694096" lon="2.263191">
        <ele>505.037</ele>
        <time>2022-10-23T09:40:55Z</time>
      </trkpt>
      <trkpt lat="41.694077" lon="2.263200">
        <ele>505.018</ele>
        <time>2022-10-23T09:40:56Z</time>
      </trkpt>
      <trkpt lat="41.694057" lon="2.263206">
        <ele>505.298</ele>
        <time>2022-10-23T09:40:57Z</time>
      </trkpt>
      <trkpt lat="41.694029" lon="2.263211">
        <ele>505.417</ele>
        <time>2022-10-23T09:40:58Z</time>
      </trkpt>
      <trkpt lat="41.694002" lon="2.263222">
        <ele>505.609</ele>
        <time>2022-10-23T09:40:59Z</time>
      </trkpt>
      <trkpt lat="41.693976" lon="2.263246">
        <ele>506.042</ele>
        <time>2022-10-23T09:41:00Z</time>
      </trkpt>
      <trkpt lat="41.693952" lon="2.263270">
        <ele>506.622</ele>
        <time>2022-10-23T09:41:01Z</time>
      </trkpt>
      <trkpt lat="41.693928" lon="2.263294">
        <ele>507.228</ele>
        <time>2022-10-23T09:41:02Z</time>
      </trkpt>
      <trkpt lat="41.693903" lon="2.263316">
        <ele>507.671</ele>
        <time>2022-10-23T09:41:03Z</time>
      </trkpt>
      <trkpt lat="41.693879" lon="2.263333">
        <ele>507.857</ele>
        <time>2022-10-23T09:41:04Z</time>
      </trkpt>
      <trkpt lat="41.693854" lon="2.263339">
        <ele>508.285</ele>
        <time>2022-10-23T09:41:05Z</time>
      </trkpt>
      <trkpt lat="41.693831" lon="2.263341">
        <ele>508.221</ele>
        <time>2022-10-23T09:41:06Z</time>
      </trkpt>
      <trkpt lat="41.693812" lon="2.263347">
        <ele>508.471</ele>
        <time>2022-10-23T09:41:07Z</time>
      </trkpt>
      <trkpt lat="41.693793" lon="2.263359">
        <ele>508.444</ele>
        <time>2022-10-23T09:41:08Z</time>
      </trkpt>
      <trkpt lat="41.693770" lon="2.263370">
        <ele>508.416</ele>
        <time>2022-10-23T09:41:09Z</time>
      </trkpt>
      <trkpt lat="41.693745" lon="2.263376">
        <ele>508.676</ele>
        <time>2022-10-23T09:41:10Z</time>
      </trkpt>
      <trkpt lat="41.693723" lon="2.263378">
        <ele>508.813</ele>
        <time>2022-10-23T09:41:11Z</time>
      </trkpt>
      <trkpt lat="41.693705" lon="2.263383">
        <ele>509.009</ele>
        <time>2022-10-23T09:41:12Z</time>
      </trkpt>
      <trkpt lat="41.693686" lon="2.263396">
        <ele>509.262</ele>
        <time>2022-10-23T09:41:13Z</time>
      </trkpt>
      <trkpt lat="41.693667" lon="2.263412">
        <ele>509.672</ele>
        <time>2022-10-23T09:41:14Z</time>
      </trkpt>
      <trkpt lat="41.693650" lon="2.263423">
        <ele>510.098</ele>
        <time>2022-10-23T09:41:15Z</time>
      </trkpt>
      <trkpt lat="41.693629" lon="2.263427">
        <ele>510.211</ele>
        <time>2022-10-23T09:41:16Z</time>
      </trkpt>
      <trkpt lat="41.693605" lon="2.263434">
        <ele>510.487</ele>
        <time>2022-10-23T09:41:17Z</time>
      </trkpt>
      <trkpt lat="41.693579" lon="2.263449">
        <ele>510.415</ele>
        <time>2022-10-23T09:41:18Z</time>
      </trkpt>
      <trkpt lat="41.693543" lon="2.263484">
        <ele>510.491</ele>
        <time>2022-10-23T09:41:19Z</time>
      </trkpt>
      <trkpt lat="41.693507" lon="2.263520">
        <ele>510.491</ele>
        <time>2022-10-23T09:41:20Z</time>
      </trkpt>
      <trkpt lat="41.693466" lon="2.263537">
        <ele>510.434</ele>
        <time>2022-10-23T09:41:21Z</time>
      </trkpt>
      <trkpt lat="41.693424" lon="2.263539">
        <ele>510.413</ele>
        <time>2022-10-23T09:41:22Z</time>
      </trkpt>
      <trkpt lat="41.693380" lon="2.263530">
        <ele>510.443</ele>
        <time>2022-10-23T09:41:23Z</time>
      </trkpt>
      <trkpt lat="41.693339" lon="2.263524">
        <ele>510.407</ele>
        <time>2022-10-23T09:41:24Z</time>
      </trkpt>
      <trkpt lat="41.693306" lon="2.263536">
        <ele>510.409</ele>
        <time>2022-10-23T09:41:25Z</time>
      </trkpt>
      <trkpt lat="41.693268" lon="2.263553">
        <ele>509.642</ele>
        <time>2022-10-23T09:41:26Z</time>
      </trkpt>
      <trkpt lat="41.693225" lon="2.263582">
        <ele>509.052</ele>
        <time>2022-10-23T09:41:27Z</time>
      </trkpt>
      <trkpt lat="41.693184" lon="2.263617">
        <ele>508.618</ele>
        <time>2022-10-23T09:41:28Z</time>
      </trkpt>
      <trkpt lat="41.693142" lon="2.263658">
        <ele>507.831</ele>
        <time>2022-10-23T09:41:29Z</time>
      </trkpt>
      <trkpt lat="41.693104" lon="2.263703">
        <ele>507.287</ele>
        <time>2022-10-23T09:41:30Z</time>
      </trkpt>
      <trkpt lat="41.693056" lon="2.263740">
        <ele>506.025</ele>
        <time>2022-10-23T09:41:31Z</time>
      </trkpt>
      <trkpt lat="41.692993" lon="2.263768">
        <ele>505.061</ele>
        <time>2022-10-23T09:41:32Z</time>
      </trkpt>
      <trkpt lat="41.692932" lon="2.263787">
        <ele>504.271</ele>
        <time>2022-10-23T09:41:33Z</time>
      </trkpt>
      <trkpt lat="41.692883" lon="2.263822">
        <ele>503.664</ele>
        <time>2022-10-23T09:41:34Z</time>
      </trkpt>
      <trkpt lat="41.692843" lon="2.263866">
        <ele>502.873</ele>
        <time>2022-10-23T09:41:35Z</time>
      </trkpt>
      <trkpt lat="41.692813" lon="2.263905">
        <ele>502.485</ele>
        <time>2022-10-23T09:41:36Z</time>
      </trkpt>
      <trkpt lat="41.692793" lon="2.263934">
        <ele>502.013</ele>
        <time>2022-10-23T09:41:37Z</time>
      </trkpt>
      <trkpt lat="41.692777" lon="2.263962">
        <ele>501.409</ele>
        <time>2022-10-23T09:41:38Z</time>
      </trkpt>
      <trkpt lat="41.692764" lon="2.263988">
        <ele>500.858</ele>
        <time>2022-10-23T09:41:39Z</time>
      </trkpt>
      <trkpt lat="41.692752" lon="2.264013">
        <ele>499.868</ele>
        <time>2022-10-23T09:41:40Z</time>
      </trkpt>
      <trkpt lat="41.692739" lon="2.264039">
        <ele>498.844</ele>
        <time>2022-10-23T09:41:41Z</time>
      </trkpt>
      <trkpt lat="41.692723" lon="2.264061">
        <ele>498.017</ele>
        <time>2022-10-23T09:41:42Z</time>
      </trkpt>
      <trkpt lat="41.692704" lon="2.264065">
        <ele>497.423</ele>
        <time>2022-10-23T09:41:43Z</time>
      </trkpt>
      <trkpt lat="41.692683" lon="2.264071">
        <ele>496.881</ele>
        <time>2022-10-23T09:41:44Z</time>
      </trkpt>
      <trkpt lat="41.692655" lon="2.264063">
        <ele>496.217</ele>
        <time>2022-10-23T09:41:45Z</time>
      </trkpt>
      <trkpt lat="41.692625" lon="2.264053">
        <ele>495.677</ele>
        <time>2022-10-23T09:41:46Z</time>
      </trkpt>
      <trkpt lat="41.692588" lon="2.264054">
        <ele>495.060</ele>
        <time>2022-10-23T09:41:47Z</time>
      </trkpt>
      <trkpt lat="41.692548" lon="2.264056">
        <ele>494.447</ele>
        <time>2022-10-23T09:41:48Z</time>
      </trkpt>
      <trkpt lat="41.692518" lon="2.264054">
        <ele>493.629</ele>
        <time>2022-10-23T09:41:49Z</time>
      </trkpt>
      <trkpt lat="41.692496" lon="2.264058">
        <ele>493.021</ele>
        <time>2022-10-23T09:41:50Z</time>
      </trkpt>
      <trkpt lat="41.692459" lon="2.264061">
        <ele>492.409</ele>
        <time>2022-10-23T09:41:51Z</time>
      </trkpt>
      <trkpt lat="41.692422" lon="2.264060">
        <ele>491.825</ele>
        <time>2022-10-23T09:41:52Z</time>
      </trkpt>
      <trkpt lat="41.692379" lon="2.264064">
        <ele>491.055</ele>
        <time>2022-10-23T09:41:53Z</time>
      </trkpt>
      <trkpt lat="41.692343" lon="2.264050">
        <ele>490.281</ele>
        <time>2022-10-23T09:41:54Z</time>
      </trkpt>
      <trkpt lat="41.692321" lon="2.264013">
        <ele>489.054</ele>
        <time>2022-10-23T09:41:55Z</time>
      </trkpt>
      <trkpt lat="41.692302" lon="2.263976">
        <ele>488.480</ele>
        <time>2022-10-23T09:41:56Z</time>
      </trkpt>
      <trkpt lat="41.692277" lon="2.263952">
        <ele>487.818</ele>
        <time>2022-10-23T09:41:57Z</time>
      </trkpt>
      <trkpt lat="41.692240" lon="2.263940">
        <ele>487.284</ele>
        <time>2022-10-23T09:41:58Z</time>
      </trkpt>
      <trkpt lat="41.692190" lon="2.263949">
        <ele>486.274</ele>
        <time>2022-10-23T09:41:59Z</time>
      </trkpt>
      <trkpt lat="41.692145" lon="2.263963">
        <ele>485.287</ele>
        <time>2022-10-23T09:42:00Z</time>
      </trkpt>
      <trkpt lat="41.692105" lon="2.263994">
        <ele>484.431</ele>
        <time>2022-10-23T09:42:01Z</time>
      </trkpt>
      <trkpt lat="41.692072" lon="2.264041">
        <ele>483.661</ele>
        <time>2022-10-23T09:42:02Z</time>
      </trkpt>
      <trkpt lat="41.692030" lon="2.264086">
        <ele>482.807</ele>
        <time>2022-10-23T09:42:03Z</time>
      </trkpt>
      <trkpt lat="41.691987" lon="2.264129">
        <ele>482.409</ele>
        <time>2022-10-23T09:42:04Z</time>
      </trkpt>
      <trkpt lat="41.691938" lon="2.264163">
        <ele>482.224</ele>
        <time>2022-10-23T09:42:05Z</time>
      </trkpt>
      <trkpt lat="41.691888" lon="2.264188">
        <ele>479.874</ele>
        <time>2022-10-23T09:42:06Z</time>
      </trkpt>
      <trkpt lat="41.691851" lon="2.264224">
        <ele>478.240</ele>
        <time>2022-10-23T09:42:07Z</time>
      </trkpt>
      <trkpt lat="41.691820" lon="2.264261">
        <ele>477.023</ele>
        <time>2022-10-23T09:42:08Z</time>
      </trkpt>
      <trkpt lat="41.691803" lon="2.264291">
        <ele>475.619</ele>
        <time>2022-10-23T09:42:09Z</time>
      </trkpt>
      <trkpt lat="41.691794" lon="2.264327">
        <ele>474.257</ele>
        <time>2022-10-23T09:42:10Z</time>
      </trkpt>
      <trkpt lat="41.691792" lon="2.264374">
        <ele>472.853</ele>
        <time>2022-10-23T09:42:11Z</time>
      </trkpt>
      <trkpt lat="41.691784" lon="2.264427">
        <ele>471.693</ele>
        <time>2022-10-23T09:42:12Z</time>
      </trkpt>
      <trkpt lat="41.691767" lon="2.264479">
        <ele>470.276</ele>
        <time>2022-10-23T09:42:13Z</time>
      </trkpt>
      <trkpt lat="41.691728" lon="2.264536">
        <ele>468.213</ele>
        <time>2022-10-23T09:42:14Z</time>
      </trkpt>
      <trkpt lat="41.691697" lon="2.264585">
        <ele>466.843</ele>
        <time>2022-10-23T09:42:15Z</time>
      </trkpt>
      <trkpt lat="41.691666" lon="2.264634">
        <ele>465.807</ele>
        <time>2022-10-23T09:42:16Z</time>
      </trkpt>
      <trkpt lat="41.691637" lon="2.264668">
        <ele>465.409</ele>
        <time>2022-10-23T09:42:17Z</time>
      </trkpt>
      <trkpt lat="41.691612" lon="2.264691">
        <ele>465.032</ele>
        <time>2022-10-23T09:42:18Z</time>
      </trkpt>
      <trkpt lat="41.691592" lon="2.264701">
        <ele>464.852</ele>
        <time>2022-10-23T09:42:19Z</time>
      </trkpt>
      <trkpt lat="41.691578" lon="2.264707">
        <ele>464.278</ele>
        <time>2022-10-23T09:42:20Z</time>
      </trkpt>
      <trkpt lat="41.691568" lon="2.264710">
        <ele>463.241</ele>
        <time>2022-10-23T09:42:21Z</time>
      </trkpt>
      <trkpt lat="41.691559" lon="2.264713">
        <ele>462.477</ele>
        <time>2022-10-23T09:42:22Z</time>
      </trkpt>
      <trkpt lat="41.691551" lon="2.264720">
        <ele>461.435</ele>
        <time>2022-10-23T09:42:23Z</time>
      </trkpt>
      <trkpt lat="41.691545" lon="2.264725">
        <ele>460.621</ele>
        <time>2022-10-23T09:42:24Z</time>
      </trkpt>
      <trkpt lat="41.691540" lon="2.264731">
        <ele>459.681</ele>
        <time>2022-10-23T09:42:25Z</time>
      </trkpt>
      <trkpt lat="41.691414" lon="2.264771">
        <ele>457.674</ele>
        <time>2022-10-23T09:42:32Z</time>
      </trkpt>
      <trkpt lat="41.691381" lon="2.264767">
        <ele>457.417</ele>
        <time>2022-10-23T09:42:33Z</time>
      </trkpt>
      <trkpt lat="41.691341" lon="2.264756">
        <ele>457.287</ele>
        <time>2022-10-23T09:42:34Z</time>
      </trkpt>
      <trkpt lat="41.691293" lon="2.264751">
        <ele>457.015</ele>
        <time>2022-10-23T09:42:35Z</time>
      </trkpt>
      <trkpt lat="41.691241" lon="2.264764">
        <ele>456.809</ele>
        <time>2022-10-23T09:42:36Z</time>
      </trkpt>
      <trkpt lat="41.691196" lon="2.264775">
        <ele>456.482</ele>
        <time>2022-10-23T09:42:37Z</time>
      </trkpt>
      <trkpt lat="41.691153" lon="2.264789">
        <ele>455.882</ele>
        <time>2022-10-23T09:42:38Z</time>
      </trkpt>
      <trkpt lat="41.691105" lon="2.264798">
        <ele>455.248</ele>
        <time>2022-10-23T09:42:39Z</time>
      </trkpt>
      <trkpt lat="41.691059" lon="2.264801">
        <ele>454.051</ele>
        <time>2022-10-23T09:42:40Z</time>
      </trkpt>
      <trkpt lat="41.691019" lon="2.264805">
        <ele>453.017</ele>
        <time>2022-10-23T09:42:41Z</time>
      </trkpt>
      <trkpt lat="41.690987" lon="2.264824">
        <ele>452.035</ele>
        <time>2022-10-23T09:42:42Z</time>
      </trkpt>
      <trkpt lat="41.690960" lon="2.264854">
        <ele>450.891</ele>
        <time>2022-10-23T09:42:43Z</time>
      </trkpt>
      <trkpt lat="41.690933" lon="2.264897">
        <ele>449.611</ele>
        <time>2022-10-23T09:42:44Z</time>
      </trkpt>
      <trkpt lat="41.690906" lon="2.264941">
        <ele>448.074</ele>
        <time>2022-10-23T09:42:45Z</time>
      </trkpt>
      <trkpt lat="41.690881" lon="2.264982">
        <ele>446.886</ele>
        <time>2022-10-23T09:42:46Z</time>
      </trkpt>
      <trkpt lat="41.690856" lon="2.265032">
        <ele>445.660</ele>
        <time>2022-10-23T09:42:47Z</time>
      </trkpt>
      <trkpt lat="41.690827" lon="2.265082">
        <ele>445.026</ele>
        <time>2022-10-23T09:42:48Z</time>
      </trkpt>
      <trkpt lat="41.690797" lon="2.265119">
        <ele>444.609</ele>
        <time>2022-10-23T09:42:49Z</time>
      </trkpt>
      <trkpt lat="41.690751" lon="2.265138">
        <ele>443.889</ele>
        <time>2022-10-23T09:42:50Z</time>
      </trkpt>
      <trkpt lat="41.690705" lon="2.265141">
        <ele>443.079</ele>
        <time>2022-10-23T09:42:51Z</time>
      </trkpt>
      <trkpt lat="41.690656" lon="2.265132">
        <ele>441.825</ele>
        <time>2022-10-23T09:42:52Z</time>
      </trkpt>
      <trkpt lat="41.690607" lon="2.265138">
        <ele>440.448</ele>
        <time>2022-10-23T09:42:53Z</time>
      </trkpt>
      <trkpt lat="41.690555" lon="2.265163">
        <ele>439.034</ele>
        <time>2022-10-23T09:42:54Z</time>
      </trkpt>
      <trkpt lat="41.690495" lon="2.265199">
        <ele>437.422</ele>
        <time>2022-10-23T09:42:55Z</time>
      </trkpt>
      <trkpt lat="41.690441" lon="2.265219">
        <ele>436.068</ele>
        <time>2022-10-23T09:42:56Z</time>
      </trkpt>
      <trkpt lat="41.690393" lon="2.265245">
        <ele>434.488</ele>
        <time>2022-10-23T09:42:57Z</time>
      </trkpt>
      <trkpt lat="41.690352" lon="2.265294">
        <ele>433.281</ele>
        <time>2022-10-23T09:42:58Z</time>
      </trkpt>
      <trkpt lat="41.690305" lon="2.265353">
        <ele>432.293</ele>
        <time>2022-10-23T09:42:59Z</time>
      </trkpt>
      <trkpt lat="41.690245" lon="2.265416">
        <ele>431.465</ele>
        <time>2022-10-23T09:43:00Z</time>
      </trkpt>
      <trkpt lat="41.690197" lon="2.265471">
        <ele>430.821</ele>
        <time>2022-10-23T09:43:01Z</time>
      </trkpt>
      <trkpt lat="41.690158" lon="2.265509">
        <ele>429.009</ele>
        <time>2022-10-23T09:43:02Z</time>
      </trkpt>
      <trkpt lat="41.690126" lon="2.265542">
        <ele>427.860</ele>
        <time>2022-10-23T09:43:03Z</time>
      </trkpt>
      <trkpt lat="41.690112" lon="2.265574">
        <ele>426.610</ele>
        <time>2022-10-23T09:43:04Z</time>
      </trkpt>
      <trkpt lat="41.690114" lon="2.265606">
        <ele>425.046</ele>
        <time>2022-10-23T09:43:05Z</time>
      </trkpt>
      <trkpt lat="41.690111" lon="2.265647">
        <ele>423.259</ele>
        <time>2022-10-23T09:43:06Z</time>
      </trkpt>
      <trkpt lat="41.690102" lon="2.265682">
        <ele>421.495</ele>
        <time>2022-10-23T09:43:07Z</time>
      </trkpt>
      <trkpt lat="41.690077" lon="2.265712">
        <ele>419.863</ele>
        <time>2022-10-23T09:43:08Z</time>
      </trkpt>
      <trkpt lat="41.690046" lon="2.265744">
        <ele>418.699</ele>
        <time>2022-10-23T09:43:09Z</time>
      </trkpt>
      <trkpt lat="41.690004" lon="2.265769">
        <ele>417.479</ele>
        <time>2022-10-23T09:43:10Z</time>
      </trkpt>
      <trkpt lat="41.689963" lon="2.265791">
        <ele>416.212</ele>
        <time>2022-10-23T09:43:11Z</time>
      </trkpt>
      <trkpt lat="41.689934" lon="2.265809">
        <ele>415.471</ele>
        <time>2022-10-23T09:43:12Z</time>
      </trkpt>
      <trkpt lat="41.689913" lon="2.265838">
        <ele>414.241</ele>
        <time>2022-10-23T09:43:13Z</time>
      </trkpt>
      <trkpt lat="41.689912" lon="2.265873">
        <ele>412.815</ele>
        <time>2022-10-23T09:43:14Z</time>
      </trkpt>
      <trkpt lat="41.689918" lon="2.265906">
        <ele>411.809</ele>
        <time>2022-10-23T09:43:15Z</time>
      </trkpt>
      <trkpt lat="41.689920" lon="2.265938">
        <ele>410.688</ele>
        <time>2022-10-23T09:43:16Z</time>
      </trkpt>
      <trkpt lat="41.689917" lon="2.265979">
        <ele>409.228</ele>
        <time>2022-10-23T09:43:17Z</time>
      </trkpt>
      <trkpt lat="41.689904" lon="2.266024">
        <ele>408.034</ele>
        <time>2022-10-23T09:43:18Z</time>
      </trkpt>
      <trkpt lat="41.689894" lon="2.266071">
        <ele>407.477</ele>
        <time>2022-10-23T09:43:19Z</time>
      </trkpt>
      <trkpt lat="41.689883" lon="2.266129">
        <ele>406.233</ele>
        <time>2022-10-23T09:43:20Z</time>
      </trkpt>
      <trkpt lat="41.689870" lon="2.266188">
        <ele>404.891</ele>
        <time>2022-10-23T09:43:21Z</time>
      </trkpt>
      <trkpt lat="41.689841" lon="2.266247">
        <ele>403.877</ele>
        <time>2022-10-23T09:43:22Z</time>
      </trkpt>
      <trkpt lat="41.689807" lon="2.266298">
        <ele>402.827</ele>
        <time>2022-10-23T09:43:23Z</time>
      </trkpt>
      <trkpt lat="41.689777" lon="2.266342">
        <ele>402.090</ele>
        <time>2022-10-23T09:43:24Z</time>
      </trkpt>
      <trkpt lat="41.689756" lon="2.266397">
        <ele>401.248</ele>
        <time>2022-10-23T09:43:25Z</time>
      </trkpt>
      <trkpt lat="41.689742" lon="2.266469">
        <ele>400.461</ele>
        <time>2022-10-23T09:43:26Z</time>
      </trkpt>
      <trkpt lat="41.689734" lon="2.266540">
        <ele>399.617</ele>
        <time>2022-10-23T09:43:27Z</time>
      </trkpt>
      <trkpt lat="41.689733" lon="2.266606">
        <ele>399.209</ele>
        <time>2022-10-23T09:43:28Z</time>
      </trkpt>
      <trkpt lat="41.689736" lon="2.266668">
        <ele>396.415</ele>
        <time>2022-10-23T09:43:29Z</time>
      </trkpt>
      <trkpt lat="41.689748" lon="2.266725">
        <ele>395.275</ele>
        <time>2022-10-23T09:43:30Z</time>
      </trkpt>
      <trkpt lat="41.689769" lon="2.266765">
        <ele>393.831</ele>
        <time>2022-10-23T09:43:31Z</time>
      </trkpt>
      <trkpt lat="41.689794" lon="2.266794">
        <ele>392.874</ele>
        <time>2022-10-23T09:43:32Z</time>
      </trkpt>
      <trkpt lat="41.689813" lon="2.266818">
        <ele>392.010</ele>
        <time>2022-10-23T09:43:33Z</time>
      </trkpt>
      <trkpt lat="41.689822" lon="2.266854">
        <ele>391.278</ele>
        <time>2022-10-23T09:43:34Z</time>
      </trkpt>
      <trkpt lat="41.689843" lon="2.266900">
        <ele>390.474</ele>
        <time>2022-10-23T09:43:35Z</time>
      </trkpt>
      <trkpt lat="41.689855" lon="2.266947">
        <ele>389.644</ele>
        <time>2022-10-23T09:43:36Z</time>
      </trkpt>
      <trkpt lat="41.689862" lon="2.266994">
        <ele>388.417</ele>
        <time>2022-10-23T09:43:37Z</time>
      </trkpt>
      <trkpt lat="41.689862" lon="2.267020">
        <ele>387.223</ele>
        <time>2022-10-23T09:43:38Z</time>
      </trkpt>
      <trkpt lat="41.689863" lon="2.267032">
        <ele>386.083</ele>
        <time>2022-10-23T09:43:39Z</time>
      </trkpt>
      <trkpt lat="41.689866" lon="2.267038">
        <ele>384.811</ele>
        <time>2022-10-23T09:43:40Z</time>
      </trkpt>
      <trkpt lat="41.689869" lon="2.267042">
        <ele>383.009</ele>
        <time>2022-10-23T09:43:41Z</time>
      </trkpt>
      <trkpt lat="41.689854" lon="2.267094">
        <ele>379.483</ele>
        <time>2022-10-23T09:44:01Z</time>
      </trkpt>
      <trkpt lat="41.689841" lon="2.267114">
        <ele>379.413</ele>
        <time>2022-10-23T09:44:02Z</time>
      </trkpt>
      <trkpt lat="41.689826" lon="2.267139">
        <ele>379.219</ele>
        <time>2022-10-23T09:44:03Z</time>
      </trkpt>
      <trkpt lat="41.689812" lon="2.267172">
        <ele>379.242</ele>
        <time>2022-10-23T09:44:04Z</time>
      </trkpt>
      <trkpt lat="41.689803" lon="2.267225">
        <ele>379.268</ele>
        <time>2022-10-23T09:44:05Z</time>
      </trkpt>
      <trkpt lat="41.689798" lon="2.267291">
        <ele>379.296</ele>
        <time>2022-10-23T09:44:06Z</time>
      </trkpt>
      <trkpt lat="41.689784" lon="2.267357">
        <ele>379.082</ele>
        <time>2022-10-23T09:44:07Z</time>
      </trkpt>
      <trkpt lat="41.689759" lon="2.267423">
        <ele>379.082</ele>
        <time>2022-10-23T09:44:08Z</time>
      </trkpt>
      <trkpt lat="41.689729" lon="2.267492">
        <ele>379.015</ele>
        <time>2022-10-23T09:44:09Z</time>
      </trkpt>
      <trkpt lat="41.689701" lon="2.267565">
        <ele>378.813</ele>
        <time>2022-10-23T09:44:10Z</time>
      </trkpt>
      <trkpt lat="41.689672" lon="2.267638">
        <ele>378.643</ele>
        <time>2022-10-23T09:44:11Z</time>
      </trkpt>
      <trkpt lat="41.689645" lon="2.267718">
        <ele>378.607</ele>
        <time>2022-10-23T09:44:12Z</time>
      </trkpt>
      <trkpt lat="41.689616" lon="2.267802">
        <ele>378.209</ele>
        <time>2022-10-23T09:44:13Z</time>
      </trkpt>
      <trkpt lat="41.689574" lon="2.267896">
        <ele>377.642</ele>
        <time>2022-10-23T09:44:14Z</time>
      </trkpt>
      <trkpt lat="41.689531" lon="2.267982">
        <ele>377.212</ele>
        <time>2022-10-23T09:44:15Z</time>
      </trkpt>
      <trkpt lat="41.689485" lon="2.268072">
        <ele>376.838</ele>
        <time>2022-10-23T09:44:16Z</time>
      </trkpt>
      <trkpt lat="41.689442" lon="2.268157">
        <ele>376.431</ele>
        <time>2022-10-23T09:44:17Z</time>
      </trkpt>
      <trkpt lat="41.689413" lon="2.268238">
        <ele>376.037</ele>
        <time>2022-10-23T09:44:18Z</time>
      </trkpt>
      <trkpt lat="41.689401" lon="2.268321">
        <ele>375.485</ele>
        <time>2022-10-23T09:44:19Z</time>
      </trkpt>
      <trkpt lat="41.689391" lon="2.268414">
        <ele>375.011</ele>
        <time>2022-10-23T09:44:20Z</time>
      </trkpt>
      <trkpt lat="41.689386" lon="2.268510">
        <ele>373.851</ele>
        <time>2022-10-23T09:44:21Z</time>
      </trkpt>
      <trkpt lat="41.689379" lon="2.268606">
        <ele>372.824</ele>
        <time>2022-10-23T09:44:22Z</time>
      </trkpt>
      <trkpt lat="41.689360" lon="2.268711">
        <ele>372.229</ele>
        <time>2022-10-23T09:44:23Z</time>
      </trkpt>
      <trkpt lat="41.689321" lon="2.268800">
        <ele>370.600</ele>
        <time>2022-10-23T09:44:24Z</time>
      </trkpt>
      <trkpt lat="41.689278" lon="2.268879">
        <ele>369.420</ele>
        <time>2022-10-23T09:44:25Z</time>
      </trkpt>
      <trkpt lat="41.689240" lon="2.268952">
        <ele>368.809</ele>
        <time>2022-10-23T09:44:26Z</time>
      </trkpt>
      <trkpt lat="41.689215" lon="2.269022">
        <ele>368.083</ele>
        <time>2022-10-23T09:44:27Z</time>
      </trkpt>
      <trkpt lat="41.689201" lon="2.269090">
        <ele>367.453</ele>
        <time>2022-10-23T09:44:28Z</time>
      </trkpt>
      <trkpt lat="41.689198" lon="2.269161">
        <ele>366.859</ele>
        <time>2022-10-23T09:44:29Z</time>
      </trkpt>
      <trkpt lat="41.689185" lon="2.269234">
        <ele>366.462</ele>
        <time>2022-10-23T09:44:30Z</time>
      </trkpt>
      <trkpt lat="41.689171" lon="2.269309">
        <ele>366.068</ele>
        <time>2022-10-23T09:44:31Z</time>
      </trkpt>
      <trkpt lat="41.689150" lon="2.269387">
        <ele>365.026</ele>
        <time>2022-10-23T09:44:32Z</time>
      </trkpt>
      <trkpt lat="41.689121" lon="2.269461">
        <ele>364.482</ele>
        <time>2022-10-23T09:44:33Z</time>
      </trkpt>
      <trkpt lat="41.689090" lon="2.269535">
        <ele>363.852</ele>
        <time>2022-10-23T09:44:34Z</time>
      </trkpt>
      <trkpt lat="41.689056" lon="2.269616">
        <ele>363.225</ele>
        <time>2022-10-23T09:44:35Z</time>
      </trkpt>
      <trkpt lat="41.689024" lon="2.269689">
        <ele>362.672</ele>
        <time>2022-10-23T09:44:36Z</time>
      </trkpt>
      <trkpt lat="41.688997" lon="2.269756">
        <ele>362.013</ele>
        <time>2022-10-23T09:44:37Z</time>
      </trkpt>
      <trkpt lat="41.688983" lon="2.269804">
        <ele>361.214</ele>
        <time>2022-10-23T09:44:38Z</time>
      </trkpt>
      <trkpt lat="41.688970" lon="2.269845">
        <ele>360.009</ele>
        <time>2022-10-23T09:44:39Z</time>
      </trkpt>
      <trkpt lat="41.688964" lon="2.269891">
        <ele>359.288</ele>
        <time>2022-10-23T09:44:40Z</time>
      </trkpt>
      <trkpt lat="41.688957" lon="2.269953">
        <ele>358.898</ele>
        <time>2022-10-23T09:44:41Z</time>
      </trkpt>
      <trkpt lat="41.688949" lon="2.270020">
        <ele>358.214</ele>
        <time>2022-10-23T09:44:42Z</time>
      </trkpt>
      <trkpt lat="41.688931" lon="2.270079">
        <ele>357.487</ele>
        <time>2022-10-23T09:44:43Z</time>
      </trkpt>
      <trkpt lat="41.688911" lon="2.270139">
        <ele>356.693</ele>
        <time>2022-10-23T09:44:44Z</time>
      </trkpt>
      <trkpt lat="41.688905" lon="2.270213">
        <ele>355.891</ele>
        <time>2022-10-23T09:44:45Z</time>
      </trkpt>
      <trkpt lat="41.688901" lon="2.270303">
        <ele>355.417</ele>
        <time>2022-10-23T09:44:46Z</time>
      </trkpt>
      <trkpt lat="41.688890" lon="2.270389">
        <ele>354.657</ele>
        <time>2022-10-23T09:44:47Z</time>
      </trkpt>
      <trkpt lat="41.688869" lon="2.270468">
        <ele>353.890</ele>
        <time>2022-10-23T09:44:48Z</time>
      </trkpt>
      <trkpt lat="41.688854" lon="2.270545">
        <ele>352.827</ele>
        <time>2022-10-23T09:44:49Z</time>
      </trkpt>
      <trkpt lat="41.688847" lon="2.270626">
        <ele>352.268</ele>
        <time>2022-10-23T09:44:50Z</time>
      </trkpt>
      <trkpt lat="41.688839" lon="2.270709">
        <ele>351.814</ele>
        <time>2022-10-23T09:44:51Z</time>
      </trkpt>
      <trkpt lat="41.688827" lon="2.270787">
        <ele>349.809</ele>
        <time>2022-10-23T09:44:52Z</time>
      </trkpt>
      <trkpt lat="41.688821" lon="2.270865">
        <ele>349.083</ele>
        <time>2022-10-23T09:44:53Z</time>
      </trkpt>
      <trkpt lat="41.688807" lon="2.270942">
        <ele>348.623</ele>
        <time>2022-10-23T09:44:54Z</time>
      </trkpt>
      <trkpt lat="41.688771" lon="2.271018">
        <ele>348.079</ele>
        <time>2022-10-23T09:44:55Z</time>
      </trkpt>
      <trkpt lat="41.688733" lon="2.271089">
        <ele>347.472</ele>
        <time>2022-10-23T09:44:56Z</time>
      </trkpt>
      <trkpt lat="41.688703" lon="2.271146">
        <ele>346.858</ele>
        <time>2022-10-23T09:44:57Z</time>
      </trkpt>
      <trkpt lat="41.688691" lon="2.271184">
        <ele>346.486</ele>
        <time>2022-10-23T09:44:58Z</time>
      </trkpt>
      <trkpt lat="41.688688" lon="2.271207">
        <ele>346.492</ele>
        <time>2022-10-23T09:44:59Z</time>
      </trkpt>
      <trkpt lat="41.688686" lon="2.271218">
        <ele>345.882</ele>
        <time>2022-10-23T09:45:00Z</time>
      </trkpt>
      <trkpt lat="41.688686" lon="2.271227">
        <ele>345.265</ele>
        <time>2022-10-23T09:45:01Z</time>
      </trkpt>
      <trkpt lat="41.688746" lon="2.271265">
        <ele>341.845</ele>
        <time>2022-10-23T09:45:18Z</time>
      </trkpt>
      <trkpt lat="41.688773" lon="2.271287">
        <ele>341.647</ele>
        <time>2022-10-23T09:45:19Z</time>
      </trkpt>
      <trkpt lat="41.688796" lon="2.271321">
        <ele>341.611</ele>
        <time>2022-10-23T09:45:20Z</time>
      </trkpt>
      <trkpt lat="41.688801" lon="2.271367">
        <ele>341.609</ele>
        <time>2022-10-23T09:45:21Z</time>
      </trkpt>
      <trkpt lat="41.688790" lon="2.271424">
        <ele>341.695</ele>
        <time>2022-10-23T09:45:22Z</time>
      </trkpt>
      <trkpt lat="41.688771" lon="2.271488">
        <ele>341.495</ele>
        <time>2022-10-23T09:45:23Z</time>
      </trkpt>
      <trkpt lat="41.688757" lon="2.271549">
        <ele>341.061</ele>
        <time>2022-10-23T09:45:24Z</time>
      </trkpt>
      <trkpt lat="41.688745" lon="2.271613">
        <ele>340.434</ele>
        <time>2022-10-23T09:45:25Z</time>
      </trkpt>
      <trkpt lat="41.688739" lon="2.271676">
        <ele>340.030</ele>
        <time>2022-10-23T09:45:26Z</time>
      </trkpt>
      <trkpt lat="41.688730" lon="2.271743">
        <ele>339.668</ele>
        <time>2022-10-23T09:45:27Z</time>
      </trkpt>
      <trkpt lat="41.688720" lon="2.271802">
        <ele>338.694</ele>
        <time>2022-10-23T09:45:28Z</time>
      </trkpt>
      <trkpt lat="41.688713" lon="2.271854">
        <ele>337.624</ele>
        <time>2022-10-23T09:45:29Z</time>
      </trkpt>
      <trkpt lat="41.688711" lon="2.271906">
        <ele>336.617</ele>
        <time>2022-10-23T09:45:30Z</time>
      </trkpt>
      <trkpt lat="41.688711" lon="2.271950">
        <ele>335.688</ele>
        <time>2022-10-23T09:45:31Z</time>
      </trkpt>
      <trkpt lat="41.688721" lon="2.271995">
        <ele>334.624</ele>
        <time>2022-10-23T09:45:32Z</time>
      </trkpt>
      <trkpt lat="41.688718" lon="2.272043">
        <ele>333.426</ele>
        <time>2022-10-23T09:45:33Z</time>
      </trkpt>
      <trkpt lat="41.688706" lon="2.272094">
        <ele>332.009</ele>
        <time>2022-10-23T09:45:34Z</time>
      </trkpt>
      <trkpt lat="41.688702" lon="2.272154">
        <ele>330.439</ele>
        <time>2022-10-23T09:45:35Z</time>
      </trkpt>
      <trkpt lat="41.688706" lon="2.272204">
        <ele>329.219</ele>
        <time>2022-10-23T09:45:36Z</time>
      </trkpt>
      <trkpt lat="41.688713" lon="2.272252">
        <ele>328.035</ele>
        <time>2022-10-23T09:45:37Z</time>
      </trkpt>
      <trkpt lat="41.688720" lon="2.272293">
        <ele>326.678</ele>
        <time>2022-10-23T09:45:38Z</time>
      </trkpt>
      <trkpt lat="41.688721" lon="2.272340">
        <ele>325.434</ele>
        <time>2022-10-23T09:45:39Z</time>
      </trkpt>
      <trkpt lat="41.688714" lon="2.272385">
        <ele>324.222</ele>
        <time>2022-10-23T09:45:40Z</time>
      </trkpt>
      <trkpt lat="41.688701" lon="2.272428">
        <ele>323.298</ele>
        <time>2022-10-23T09:45:41Z</time>
      </trkpt>
      <trkpt lat="41.688697" lon="2.272481">
        <ele>322.458</ele>
        <time>2022-10-23T09:45:42Z</time>
      </trkpt>
      <trkpt lat="41.688683" lon="2.272537">
        <ele>320.641</ele>
        <time>2022-10-23T09:45:43Z</time>
      </trkpt>
      <trkpt lat="41.688670" lon="2.272587">
        <ele>319.286</ele>
        <time>2022-10-23T09:45:44Z</time>
      </trkpt>
      <trkpt lat="41.688650" lon="2.272638">
        <ele>318.260</ele>
        <time>2022-10-23T09:45:45Z</time>
      </trkpt>
      <trkpt lat="41.688629" lon="2.272692">
        <ele>317.426</ele>
        <time>2022-10-23T09:45:46Z</time>
      </trkpt>
      <trkpt lat="41.688602" lon="2.272747">
        <ele>315.809</ele>
        <time>2022-10-23T09:45:47Z</time>
      </trkpt>
      <trkpt lat="41.688572" lon="2.272810">
        <ele>314.839</ele>
        <time>2022-10-23T09:45:48Z</time>
      </trkpt>
      <trkpt lat="41.688547" lon="2.272855">
        <ele>313.839</ele>
        <time>2022-10-23T09:45:49Z</time>
      </trkpt>
      <trkpt lat="41.688538" lon="2.272877">
        <ele>312.835</ele>
        <time>2022-10-23T09:45:50Z</time>
      </trkpt>
      <trkpt lat="41.688540" lon="2.272893">
        <ele>311.258</ele>
        <time>2022-10-23T09:45:51Z</time>
      </trkpt>
      <trkpt lat="41.688544" lon="2.272900">
        <ele>310.014</ele>
        <time>2022-10-23T09:45:52Z</time>
      </trkpt>
      <trkpt lat="41.688551" lon="2.272909">
        <ele>309.032</ele>
        <time>2022-10-23T09:45:53Z</time>
      </trkpt>
      <trkpt lat="41.688508" lon="2.272963">
        <ele>304.848</ele>
        <time>2022-10-23T09:46:08Z</time>
      </trkpt>
      <trkpt lat="41.688488" lon="2.272993">
        <ele>304.838</ele>
        <time>2022-10-23T09:46:09Z</time>
      </trkpt>
      <trkpt lat="41.688464" lon="2.273039">
        <ele>304.841</ele>
        <time>2022-10-23T09:46:10Z</time>
      </trkpt>
      <trkpt lat="41.688437" lon="2.273102">
        <ele>304.887</ele>
        <time>2022-10-23T09:46:11Z</time>
      </trkpt>
      <trkpt lat="41.688404" lon="2.273164">
        <ele>304.842</ele>
        <time>2022-10-23T09:46:12Z</time>
      </trkpt>
      <trkpt lat="41.688368" lon="2.273226">
        <ele>304.826</ele>
        <time>2022-10-23T09:46:13Z</time>
      </trkpt>
      <trkpt lat="41.688333" lon="2.273289">
        <ele>304.409</ele>
        <time>2022-10-23T09:46:14Z</time>
      </trkpt>
      <trkpt lat="41.688301" lon="2.273348">
        <ele>303.019</ele>
        <time>2022-10-23T09:46:15Z</time>
      </trkpt>
      <trkpt lat="41.688271" lon="2.273404">
        <ele>302.099</ele>
        <time>2022-10-23T09:46:16Z</time>
      </trkpt>
      <trkpt lat="41.688231" lon="2.273464">
        <ele>300.425</ele>
        <time>2022-10-23T09:46:17Z</time>
      </trkpt>
      <trkpt lat="41.688185" lon="2.273543">
        <ele>298.678</ele>
        <time>2022-10-23T09:46:18Z</time>
      </trkpt>
      <trkpt lat="41.688150" lon="2.273632">
        <ele>297.024</ele>
        <time>2022-10-23T09:46:19Z</time>
      </trkpt>
      <trkpt lat="41.688113" lon="2.273736">
        <ele>295.272</ele>
        <time>2022-10-23T09:46:20Z</time>
      </trkpt>
      <trkpt lat="41.688077" lon="2.273846">
        <ele>293.838</ele>
        <time>2022-10-23T09:46:21Z</time>
      </trkpt>
      <trkpt lat="41.688026" lon="2.273944">
        <ele>293.078</ele>
        <time>2022-10-23T09:46:22Z</time>
      </trkpt>
      <trkpt lat="41.687968" lon="2.274020">
        <ele>292.011</ele>
        <time>2022-10-23T09:46:23Z</time>
      </trkpt>
      <trkpt lat="41.687910" lon="2.274072">
        <ele>291.689</ele>
        <time>2022-10-23T09:46:24Z</time>
      </trkpt>
      <trkpt lat="41.687856" lon="2.274132">
        <ele>291.206</ele>
        <time>2022-10-23T09:46:25Z</time>
      </trkpt>
      <trkpt lat="41.687813" lon="2.274165">
        <ele>290.026</ele>
        <time>2022-10-23T09:46:26Z</time>
      </trkpt>
      <trkpt lat="41.687769" lon="2.274197">
        <ele>289.009</ele>
        <time>2022-10-23T09:46:27Z</time>
      </trkpt>
      <trkpt lat="41.687726" lon="2.274223">
        <ele>288.439</ele>
        <time>2022-10-23T09:46:28Z</time>
      </trkpt>
      <trkpt lat="41.687689" lon="2.274244">
        <ele>288.099</ele>
        <time>2022-10-23T09:46:29Z</time>
      </trkpt>
      <trkpt lat="41.687661" lon="2.274267">
        <ele>287.825</ele>
        <time>2022-10-23T09:46:30Z</time>
      </trkpt>
      <trkpt lat="41.687638" lon="2.274299">
        <ele>287.688</ele>
        <time>2022-10-23T09:46:31Z</time>
      </trkpt>
      <trkpt lat="41.687615" lon="2.274320">
        <ele>287.454</ele>
        <time>2022-10-23T09:46:32Z</time>
      </trkpt>
      <trkpt lat="41.687598" lon="2.274331">
        <ele>287.242</ele>
        <time>2022-10-23T09:46:33Z</time>
      </trkpt>
      <trkpt lat="41.687582" lon="2.274346">
        <ele>287.268</ele>
        <time>2022-10-23T09:46:34Z</time>
      </trkpt>
      <trkpt lat="41.687565" lon="2.274358">
        <ele>287.278</ele>
        <time>2022-10-23T09:46:35Z</time>
      </trkpt>
      <trkpt lat="41.687545" lon="2.274372">
        <ele>287.081</ele>
        <time>2022-10-23T09:46:36Z</time>
      </trkpt>
      <trkpt lat="41.687526" lon="2.274393">
        <ele>287.045</ele>
        <time>2022-10-23T09:46:37Z</time>
      </trkpt>
      <trkpt lat="41.687514" lon="2.274421">
        <ele>287.047</ele>
        <time>2022-10-23T09:46:38Z</time>
      </trkpt>
      <trkpt lat="41.687510" lon="2.274461">
        <ele>287.011</ele>
        <time>2022-10-23T09:46:39Z</time>
      </trkpt>
      <trkpt lat="41.687500" lon="2.274517">
        <ele>286.809</ele>
        <time>2022-10-23T09:46:40Z</time>
      </trkpt>
      <trkpt lat="41.687478" lon="2.274573">
        <ele>286.895</ele>
        <time>2022-10-23T09:46:41Z</time>
      </trkpt>
      <trkpt lat="41.687451" lon="2.274626">
        <ele>286.625</ele>
        <time>2022-10-23T09:46:42Z</time>
      </trkpt>
      <trkpt lat="41.687417" lon="2.274674">
        <ele>286.441</ele>
        <time>2022-10-23T09:46:43Z</time>
      </trkpt>
      <trkpt lat="41.687385" lon="2.274723">
        <ele>286.044</ele>
        <time>2022-10-23T09:46:44Z</time>
      </trkpt>
      <trkpt lat="41.687360" lon="2.274779">
        <ele>285.690</ele>
        <time>2022-10-23T09:46:45Z</time>
      </trkpt>
      <trkpt lat="41.687335" lon="2.274843">
        <ele>285.298</ele>
        <time>2022-10-23T09:46:46Z</time>
      </trkpt>
      <trkpt lat="41.687313" lon="2.274908">
        <ele>284.624</ele>
        <time>2022-10-23T09:46:47Z</time>
      </trkpt>
      <trkpt lat="41.687286" lon="2.274971">
        <ele>283.864</ele>
        <time>2022-10-23T09:46:48Z</time>
      </trkpt>
      <trkpt lat="41.687260" lon="2.275021">
        <ele>283.097</ele>
        <time>2022-10-23T09:46:49Z</time>
      </trkpt>
      <trkpt lat="41.687235" lon="2.275068">
        <ele>282.291</ele>
        <time>2022-10-23T09:46:50Z</time>
      </trkpt>
      <trkpt lat="41.687216" lon="2.275117">
        <ele>281.681</ele>
        <time>2022-10-23T09:46:51Z</time>
      </trkpt>
      <trkpt lat="41.687199" lon="2.275177">
        <ele>281.019</ele>
        <time>2022-10-23T09:46:52Z</time>
      </trkpt>
      <trkpt lat="41.687181" lon="2.275235">
        <ele>280.009</ele>
        <time>2022-10-23T09:46:53Z</time>
      </trkpt>
      <trkpt lat="41.687165" lon="2.275300">
        <ele>279.470</ele>
        <time>2022-10-23T09:46:54Z</time>
      </trkpt>
      <trkpt lat="41.687150" lon="2.275362">
        <ele>279.090</ele>
        <time>2022-10-23T09:46:55Z</time>
      </trkpt>
      <trkpt lat="41.687136" lon="2.275421">
        <ele>278.416</ele>
        <time>2022-10-23T09:46:56Z</time>
      </trkpt>
      <trkpt lat="41.687123" lon="2.275476">
        <ele>277.639</ele>
        <time>2022-10-23T09:46:57Z</time>
      </trkpt>
      <trkpt lat="41.687112" lon="2.275526">
        <ele>277.015</ele>
        <time>2022-10-23T09:46:58Z</time>
      </trkpt>
      <trkpt lat="41.687102" lon="2.275577">
        <ele>276.263</ele>
        <time>2022-10-23T09:46:59Z</time>
      </trkpt>
      <trkpt lat="41.687097" lon="2.275623">
        <ele>275.039</ele>
        <time>2022-10-23T09:47:00Z</time>
      </trkpt>
      <trkpt lat="41.687094" lon="2.275672">
        <ele>274.249</ele>
        <time>2022-10-23T09:47:01Z</time>
      </trkpt>
      <trkpt lat="41.687096" lon="2.275721">
        <ele>273.022</ele>
        <time>2022-10-23T09:47:02Z</time>
      </trkpt>
      <trkpt lat="41.687107" lon="2.275776">
        <ele>272.493</ele>
        <time>2022-10-23T09:47:03Z</time>
      </trkpt>
      <trkpt lat="41.687103" lon="2.275828">
        <ele>271.665</ele>
        <time>2022-10-23T09:47:04Z</time>
      </trkpt>
      <trkpt lat="41.687090" lon="2.275880">
        <ele>270.621</ele>
        <time>2022-10-23T09:47:05Z</time>
      </trkpt>
      <trkpt lat="41.687078" lon="2.275932">
        <ele>269.409</ele>
        <time>2022-10-23T09:47:06Z</time>
      </trkpt>
      <trkpt lat="41.687079" lon="2.275993">
        <ele>268.440</ele>
        <time>2022-10-23T09:47:07Z</time>
      </trkpt>
      <trkpt lat="41.687087" lon="2.276047">
        <ele>267.030</ele>
        <time>2022-10-23T09:47:08Z</time>
      </trkpt>
      <trkpt lat="41.687105" lon="2.276103">
        <ele>265.436</ele>
        <time>2022-10-23T09:47:09Z</time>
      </trkpt>
      <trkpt lat="41.687131" lon="2.276155">
        <ele>262.489</ele>
        <time>2022-10-23T09:47:10Z</time>
      </trkpt>
      <trkpt lat="41.687151" lon="2.276208">
        <ele>261.445</ele>
        <time>2022-10-23T09:47:11Z</time>
      </trkpt>
      <trkpt lat="41.687170" lon="2.276256">
        <ele>260.453</ele>
        <time>2022-10-23T09:47:12Z</time>
      </trkpt>
      <trkpt lat="41.687201" lon="2.276313">
        <ele>259.489</ele>
        <time>2022-10-23T09:47:13Z</time>
      </trkpt>
      <trkpt lat="41.687224" lon="2.276374">
        <ele>258.679</ele>
        <time>2022-10-23T09:47:14Z</time>
      </trkpt>
      <trkpt lat="41.687243" lon="2.276437">
        <ele>258.062</ele>
        <time>2022-10-23T09:47:15Z</time>
      </trkpt>
      <trkpt lat="41.687249" lon="2.276504">
        <ele>257.632</ele>
        <time>2022-10-23T09:47:16Z</time>
      </trkpt>
      <trkpt lat="41.687251" lon="2.276574">
        <ele>257.492</ele>
        <time>2022-10-23T09:47:17Z</time>
      </trkpt>
      <trkpt lat="41.687257" lon="2.276659">
        <ele>256.811</ele>
        <time>2022-10-23T09:47:18Z</time>
      </trkpt>
      <trkpt lat="41.687256" lon="2.276738">
        <ele>256.609</ele>
        <time>2022-10-23T09:47:19Z</time>
      </trkpt>
      <trkpt lat="41.687248" lon="2.276822">
        <ele>256.474</ele>
        <time>2022-10-23T09:47:20Z</time>
      </trkpt>
      <trkpt lat="41.687237" lon="2.276894">
        <ele>256.274</ele>
        <time>2022-10-23T09:47:21Z</time>
      </trkpt>
      <trkpt lat="41.687234" lon="2.276967">
        <ele>256.290</ele>
        <time>2022-10-23T09:47:22Z</time>
      </trkpt>
      <trkpt lat="41.687228" lon="2.277040">
        <ele>256.053</ele>
        <time>2022-10-23T09:47:23Z</time>
      </trkpt>
      <trkpt lat="41.687217" lon="2.277117">
        <ele>255.899</ele>
        <time>2022-10-23T09:47:24Z</time>
      </trkpt>
      <trkpt lat="41.687210" lon="2.277197">
        <ele>255.857</ele>
        <time>2022-10-23T09:47:25Z</time>
      </trkpt>
      <trkpt lat="41.687207" lon="2.277284">
        <ele>255.663</ele>
        <time>2022-10-23T09:47:26Z</time>
      </trkpt>
      <trkpt lat="41.687203" lon="2.277373">
        <ele>255.433</ele>
        <time>2022-10-23T09:47:27Z</time>
      </trkpt>
      <trkpt lat="41.687199" lon="2.277470">
        <ele>255.256</ele>
        <time>2022-10-23T09:47:28Z</time>
      </trkpt>
      <trkpt lat="41.687190" lon="2.277561">
        <ele>254.871</ele>
        <time>2022-10-23T09:47:29Z</time>
      </trkpt>
      <trkpt lat="41.687181" lon="2.277651">
        <ele>254.641</ele>
        <time>2022-10-23T09:47:30Z</time>
      </trkpt>
      <trkpt lat="41.687161" lon="2.277746">
        <ele>254.615</ele>
        <time>2022-10-23T09:47:31Z</time>
      </trkpt>
      <trkpt lat="41.687140" lon="2.277835">
        <ele>254.409</ele>
        <time>2022-10-23T09:47:32Z</time>
      </trkpt>
      <trkpt lat="41.687119" lon="2.277907">
        <ele>254.478</ele>
        <time>2022-10-23T09:47:33Z</time>
      </trkpt>
      <trkpt lat="41.687098" lon="2.277969">
        <ele>254.428</ele>
        <time>2022-10-23T09:47:34Z</time>
      </trkpt>
      <trkpt lat="41.687078" lon="2.278022">
        <ele>254.234</ele>
        <time>2022-10-23T09:47:35Z</time>
      </trkpt>
      <trkpt lat="41.687061" lon="2.278070">
        <ele>254.237</ele>
        <time>2022-10-23T09:47:36Z</time>
      </trkpt>
      <trkpt lat="41.687040" lon="2.278109">
        <ele>254.023</ele>
        <time>2022-10-23T09:47:37Z</time>
      </trkpt>
      <trkpt lat="41.687019" lon="2.278143">
        <ele>253.441</ele>
        <time>2022-10-23T09:47:38Z</time>
      </trkpt>
      <trkpt lat="41.686999" lon="2.278174">
        <ele>253.287</ele>
        <time>2022-10-23T09:47:39Z</time>
      </trkpt>
      <trkpt lat="41.686979" lon="2.278203">
        <ele>253.067</ele>
        <time>2022-10-23T09:47:40Z</time>
      </trkpt>
      <trkpt lat="41.686957" lon="2.278243">
        <ele>252.890</ele>
        <time>2022-10-23T09:47:41Z</time>
      </trkpt>
      <trkpt lat="41.686949" lon="2.278316">
        <ele>252.665</ele>
        <time>2022-10-23T09:47:42Z</time>
      </trkpt>
      <trkpt lat="41.686926" lon="2.278368">
        <ele>252.268</ele>
        <time>2022-10-23T09:47:43Z</time>
      </trkpt>
      <trkpt lat="41.686908" lon="2.278422">
        <ele>251.814</ele>
        <time>2022-10-23T09:47:44Z</time>
      </trkpt>
      <trkpt lat="41.686894" lon="2.278483">
        <ele>251.409</ele>
        <time>2022-10-23T09:47:45Z</time>
      </trkpt>
      <trkpt lat="41.686877" lon="2.278562">
        <ele>251.467</ele>
        <time>2022-10-23T09:47:46Z</time>
      </trkpt>
      <trkpt lat="41.686863" lon="2.278625">
        <ele>251.237</ele>
        <time>2022-10-23T09:47:47Z</time>
      </trkpt>
      <trkpt lat="41.686848" lon="2.278679">
        <ele>251.043</ele>
        <time>2022-10-23T09:47:48Z</time>
      </trkpt>
      <trkpt lat="41.686830" lon="2.278730">
        <ele>251.046</ele>
        <time>2022-10-23T09:47:49Z</time>
      </trkpt>
      <trkpt lat="41.686826" lon="2.278785">
        <ele>250.852</ele>
        <time>2022-10-23T09:47:50Z</time>
      </trkpt>
      <trkpt lat="41.686819" lon="2.278837">
        <ele>250.850</ele>
        <time>2022-10-23T09:47:51Z</time>
      </trkpt>
      <trkpt lat="41.686811" lon="2.278886">
        <ele>250.866</ele>
        <time>2022-10-23T09:47:52Z</time>
      </trkpt>
      <trkpt lat="41.686803" lon="2.278931">
        <ele>250.646</ele>
        <time>2022-10-23T09:47:53Z</time>
      </trkpt>
      <trkpt lat="41.686795" lon="2.278976">
        <ele>250.489</ele>
        <time>2022-10-23T09:47:54Z</time>
      </trkpt>
      <trkpt lat="41.686794" lon="2.279025">
        <ele>250.281</ele>
        <time>2022-10-23T09:47:55Z</time>
      </trkpt>
      <trkpt lat="41.686787" lon="2.279061">
        <ele>250.261</ele>
        <time>2022-10-23T09:47:56Z</time>
      </trkpt>
      <trkpt lat="41.686783" lon="2.279095">
        <ele>250.017</ele>
        <time>2022-10-23T09:47:57Z</time>
      </trkpt>
      <trkpt lat="41.686778" lon="2.279124">
        <ele>250.009</ele>
        <time>2022-10-23T09:47:58Z</time>
      </trkpt>
      <trkpt lat="41.686776" lon="2.279146">
        <ele>249.879</ele>
        <time>2022-10-23T09:47:59Z</time>
      </trkpt>
      <trkpt lat="41.686781" lon="2.279163">
        <ele>249.829</ele>
        <time>2022-10-23T09:48:00Z</time>
      </trkpt>
      <trkpt lat="41.686794" lon="2.279175">
        <ele>249.815</ele>
        <time>2022-10-23T09:48:01Z</time>
      </trkpt>
      <trkpt lat="41.686810" lon="2.279178">
        <ele>249.678</ele>
        <time>2022-10-23T09:48:02Z</time>
      </trkpt>
      <trkpt lat="41.686832" lon="2.279183">
        <ele>249.484</ele>
        <time>2022-10-23T09:48:03Z</time>
      </trkpt>
      <trkpt lat="41.686851" lon="2.279187">
        <ele>249.282</ele>
        <time>2022-10-23T09:48:04Z</time>
      </trkpt>
      <trkpt lat="41.686868" lon="2.279191">
        <ele>249.248</ele>
        <time>2022-10-23T09:48:05Z</time>
      </trkpt>
      <trkpt lat="41.686884" lon="2.279195">
        <ele>249.238</ele>
        <time>2022-10-23T09:48:06Z</time>
      </trkpt>
      <trkpt lat="41.686900" lon="2.279197">
        <ele>249.251</ele>
        <time>2022-10-23T09:48:07Z</time>
      </trkpt>
      <trkpt lat="41.686918" lon="2.279196">
        <ele>249.223</ele>
        <time>2022-10-23T09:48:08Z</time>
      </trkpt>
      <trkpt lat="41.686938" lon="2.279193">
        <ele>249.283</ele>
        <time>2022-10-23T09:48:09Z</time>
      </trkpt>
      <trkpt lat="41.686957" lon="2.279192">
        <ele>249.211</ele>
        <time>2022-10-23T09:48:10Z</time>
      </trkpt>
      <trkpt lat="41.686976" lon="2.279189">
        <ele>249.209</ele>
        <time>2022-10-23T09:48:11Z</time>
      </trkpt>
      <trkpt lat="41.686995" lon="2.279186">
        <ele>249.273</ele>
        <time>2022-10-23T09:48:12Z</time>
      </trkpt>
      <trkpt lat="41.687012" lon="2.279182">
        <ele>249.263</ele>
        <time>2022-10-23T09:48:13Z</time>
      </trkpt>
      <trkpt lat="41.687032" lon="2.279182">
        <ele>249.229</ele>
        <time>2022-10-23T09:48:14Z</time>
      </trkpt>
      <trkpt lat="41.687054" lon="2.279174">
        <ele>249.262</ele>
        <time>2022-10-23T09:48:15Z</time>
      </trkpt>
      <trkpt lat="41.687077" lon="2.279165">
        <ele>249.468</ele>
        <time>2022-10-23T09:48:16Z</time>
      </trkpt>
      <trkpt lat="41.687100" lon="2.279153">
        <ele>249.426</ele>
        <time>2022-10-23T09:48:17Z</time>
      </trkpt>
      <trkpt lat="41.687124" lon="2.279139">
        <ele>249.642</ele>
        <time>2022-10-23T09:48:18Z</time>
      </trkpt>
      <trkpt lat="41.687149" lon="2.279122">
        <ele>249.692</ele>
        <time>2022-10-23T09:48:19Z</time>
      </trkpt>
      <trkpt lat="41.687175" lon="2.279106">
        <ele>249.845</ele>
        <time>2022-10-23T09:48:20Z</time>
      </trkpt>
      <trkpt lat="41.687203" lon="2.279087">
        <ele>249.818</ele>
        <time>2022-10-23T09:48:21Z</time>
      </trkpt>
      <trkpt lat="41.687229" lon="2.279063">
        <ele>249.898</ele>
        <time>2022-10-23T09:48:22Z</time>
      </trkpt>
      <trkpt lat="41.687257" lon="2.279037">
        <ele>249.817</ele>
        <time>2022-10-23T09:48:23Z</time>
      </trkpt>
      <trkpt lat="41.687288" lon="2.279018">
        <ele>249.809</ele>
        <time>2022-10-23T09:48:24Z</time>
      </trkpt>
      <trkpt lat="41.687323" lon="2.279005">
        <ele>249.872</ele>
        <time>2022-10-23T09:48:25Z</time>
      </trkpt>
      <trkpt lat="41.687361" lon="2.278998">
        <ele>249.832</ele>
        <time>2022-10-23T09:48:26Z</time>
      </trkpt>
      <trkpt lat="41.687397" lon="2.278989">
        <ele>249.878</ele>
        <time>2022-10-23T09:48:27Z</time>
      </trkpt>
      <trkpt lat="41.687433" lon="2.278979">
        <ele>249.841</ele>
        <time>2022-10-23T09:48:28Z</time>
      </trkpt>
      <trkpt lat="41.687468" lon="2.278975">
        <ele>249.857</ele>
        <time>2022-10-23T09:48:29Z</time>
      </trkpt>
      <trkpt lat="41.687504" lon="2.278969">
        <ele>249.815</ele>
        <time>2022-10-23T09:48:30Z</time>
      </trkpt>
      <trkpt lat="41.687537" lon="2.278963">
        <ele>249.851</ele>
        <time>2022-10-23T09:48:31Z</time>
      </trkpt>
      <trkpt lat="41.687572" lon="2.278964">
        <ele>249.861</ele>
        <time>2022-10-23T09:48:32Z</time>
      </trkpt>
      <trkpt lat="41.687605" lon="2.278969">
        <ele>249.614</ele>
        <time>2022-10-23T09:48:33Z</time>
      </trkpt>
      <trkpt lat="41.687635" lon="2.278977">
        <ele>249.631</ele>
        <time>2022-10-23T09:48:34Z</time>
      </trkpt>
      <trkpt lat="41.687668" lon="2.278985">
        <ele>249.661</ele>
        <time>2022-10-23T09:48:35Z</time>
      </trkpt>
      <trkpt lat="41.687704" lon="2.278992">
        <ele>249.607</ele>
        <time>2022-10-23T09:48:36Z</time>
      </trkpt>
      <trkpt lat="41.687737" lon="2.279005">
        <ele>249.609</ele>
        <time>2022-10-23T09:48:37Z</time>
      </trkpt>
      <trkpt lat="41.687770" lon="2.279027">
        <ele>249.684</ele>
        <time>2022-10-23T09:48:38Z</time>
      </trkpt>
      <trkpt lat="41.687801" lon="2.279047">
        <ele>249.654</ele>
        <time>2022-10-23T09:48:39Z</time>
      </trkpt>
      <trkpt lat="41.687834" lon="2.279067">
        <ele>249.620</ele>
        <time>2022-10-23T09:48:40Z</time>
      </trkpt>
      <trkpt lat="41.687867" lon="2.279088">
        <ele>249.883</ele>
        <time>2022-10-23T09:48:41Z</time>
      </trkpt>
      <trkpt lat="41.687895" lon="2.279108">
        <ele>249.849</ele>
        <time>2022-10-23T09:48:42Z</time>
      </trkpt>
      <trkpt lat="41.687923" lon="2.279131">
        <ele>250.077</ele>
        <time>2022-10-23T09:48:43Z</time>
      </trkpt>
      <trkpt lat="41.687952" lon="2.279155">
        <ele>250.093</ele>
        <time>2022-10-23T09:48:44Z</time>
      </trkpt>
      <trkpt lat="41.687980" lon="2.279175">
        <ele>250.023</ele>
        <time>2022-10-23T09:48:45Z</time>
      </trkpt>
      <trkpt lat="41.688006" lon="2.279194">
        <ele>250.246</ele>
        <time>2022-10-23T09:48:46Z</time>
      </trkpt>
      <trkpt lat="41.688031" lon="2.279212">
        <ele>250.239</ele>
        <time>2022-10-23T09:48:47Z</time>
      </trkpt>
      <trkpt lat="41.688058" lon="2.279228">
        <ele>250.201</ele>
        <time>2022-10-23T09:48:48Z</time>
      </trkpt>
      <trkpt lat="41.688087" lon="2.279243">
        <ele>250.221</ele>
        <time>2022-10-23T09:48:49Z</time>
      </trkpt>
      <trkpt lat="41.688116" lon="2.279256">
        <ele>250.409</ele>
        <time>2022-10-23T09:48:50Z</time>
      </trkpt>
      <trkpt lat="41.688146" lon="2.279268">
        <ele>250.464</ele>
        <time>2022-10-23T09:48:51Z</time>
      </trkpt>
      <trkpt lat="41.688178" lon="2.279278">
        <ele>250.424</ele>
        <time>2022-10-23T09:48:52Z</time>
      </trkpt>
      <trkpt lat="41.688210" lon="2.279285">
        <ele>250.440</ele>
        <time>2022-10-23T09:48:53Z</time>
      </trkpt>
      <trkpt lat="41.688241" lon="2.279288">
        <ele>250.473</ele>
        <time>2022-10-23T09:48:54Z</time>
      </trkpt>
      <trkpt lat="41.688270" lon="2.279285">
        <ele>250.419</ele>
        <time>2022-10-23T09:48:55Z</time>
      </trkpt>
      <trkpt lat="41.688299" lon="2.279277">
        <ele>250.627</ele>
        <time>2022-10-23T09:48:56Z</time>
      </trkpt>
      <trkpt lat="41.688326" lon="2.279265">
        <ele>250.623</ele>
        <time>2022-10-23T09:48:57Z</time>
      </trkpt>
      <trkpt lat="41.688352" lon="2.279248">
        <ele>250.693</ele>
        <time>2022-10-23T09:48:58Z</time>
      </trkpt>
      <trkpt lat="41.688376" lon="2.279222">
        <ele>250.646</ele>
        <time>2022-10-23T09:48:59Z</time>
      </trkpt>
      <trkpt lat="41.688399" lon="2.279193">
        <ele>250.625</ele>
        <time>2022-10-23T09:49:00Z</time>
      </trkpt>
      <trkpt lat="41.688421" lon="2.279166">
        <ele>250.826</ele>
        <time>2022-10-23T09:49:01Z</time>
      </trkpt>
      <trkpt lat="41.688441" lon="2.279138">
        <ele>251.008</ele>
        <time>2022-10-23T09:49:02Z</time>
      </trkpt>
      <trkpt lat="41.688462" lon="2.279113">
        <ele>251.209</ele>
        <time>2022-10-23T09:49:03Z</time>
      </trkpt>
      <trkpt lat="41.688481" lon="2.279087">
        <ele>251.443</ele>
        <time>2022-10-23T09:49:04Z</time>
      </trkpt>
      <trkpt lat="41.688498" lon="2.279065">
        <ele>251.643</ele>
        <time>2022-10-23T09:49:05Z</time>
      </trkpt>
      <trkpt lat="41.688516" lon="2.279048">
        <ele>251.829</ele>
        <time>2022-10-23T09:49:06Z</time>
      </trkpt>
      <trkpt lat="41.688537" lon="2.279034">
        <ele>252.012</ele>
        <time>2022-10-23T09:49:07Z</time>
      </trkpt>
      <trkpt lat="41.688562" lon="2.279022">
        <ele>252.218</ele>
        <time>2022-10-23T09:49:08Z</time>
      </trkpt>
      <trkpt lat="41.688586" lon="2.279013">
        <ele>252.686</ele>
        <time>2022-10-23T09:49:09Z</time>
      </trkpt>
      <trkpt lat="41.688612" lon="2.279012">
        <ele>253.062</ele>
        <time>2022-10-23T09:49:10Z</time>
      </trkpt>
      <trkpt lat="41.688639" lon="2.279013">
        <ele>253.472</ele>
        <time>2022-10-23T09:49:11Z</time>
      </trkpt>
      <trkpt lat="41.688664" lon="2.279019">
        <ele>254.035</ele>
        <time>2022-10-23T09:49:12Z</time>
      </trkpt>
      <trkpt lat="41.688689" lon="2.279028">
        <ele>254.625</ele>
        <time>2022-10-23T09:49:13Z</time>
      </trkpt>
      <trkpt lat="41.688713" lon="2.279040">
        <ele>254.826</ele>
        <time>2022-10-23T09:49:14Z</time>
      </trkpt>
      <trkpt lat="41.688737" lon="2.279053">
        <ele>255.008</ele>
        <time>2022-10-23T09:49:15Z</time>
      </trkpt>
      <trkpt lat="41.688763" lon="2.279068">
        <ele>255.009</ele>
        <time>2022-10-23T09:49:16Z</time>
      </trkpt>
      <trkpt lat="41.688790" lon="2.279087">
        <ele>255.253</ele>
        <time>2022-10-23T09:49:17Z</time>
      </trkpt>
      <trkpt lat="41.688820" lon="2.279107">
        <ele>255.283</ele>
        <time>2022-10-23T09:49:18Z</time>
      </trkpt>
      <trkpt lat="41.688853" lon="2.279127">
        <ele>255.249</ele>
        <time>2022-10-23T09:49:19Z</time>
      </trkpt>
      <trkpt lat="41.688886" lon="2.279151">
        <ele>255.232</ele>
        <time>2022-10-23T09:49:20Z</time>
      </trkpt>
      <trkpt lat="41.688920" lon="2.279178">
        <ele>255.218</ele>
        <time>2022-10-23T09:49:21Z</time>
      </trkpt>
      <trkpt lat="41.688952" lon="2.279204">
        <ele>255.276</ele>
        <time>2022-10-23T09:49:22Z</time>
      </trkpt>
      <trkpt lat="41.688982" lon="2.279230">
        <ele>255.222</ele>
        <time>2022-10-23T09:49:23Z</time>
      </trkpt>
      <trkpt lat="41.689013" lon="2.279255">
        <ele>255.252</ele>
        <time>2022-10-23T09:49:24Z</time>
      </trkpt>
      <trkpt lat="41.689041" lon="2.279280">
        <ele>255.235</ele>
        <time>2022-10-23T09:49:25Z</time>
      </trkpt>
      <trkpt lat="41.689070" lon="2.279304">
        <ele>255.076</ele>
        <time>2022-10-23T09:49:26Z</time>
      </trkpt>
      <trkpt lat="41.689098" lon="2.279327">
        <ele>255.090</ele>
        <time>2022-10-23T09:49:27Z</time>
      </trkpt>
      <trkpt lat="41.689126" lon="2.279353">
        <ele>254.819</ele>
        <time>2022-10-23T09:49:28Z</time>
      </trkpt>
      <trkpt lat="41.689154" lon="2.279378">
        <ele>254.609</ele>
        <time>2022-10-23T09:49:29Z</time>
      </trkpt>
      <trkpt lat="41.689176" lon="2.279402">
        <ele>254.458</ele>
        <time>2022-10-23T09:49:30Z</time>
      </trkpt>
      <trkpt lat="41.689190" lon="2.279427">
        <ele>254.248</ele>
        <time>2022-10-23T09:49:31Z</time>
      </trkpt>
      <trkpt lat="41.689203" lon="2.279460">
        <ele>254.284</ele>
        <time>2022-10-23T09:49:32Z</time>
      </trkpt>
      <trkpt lat="41.689218" lon="2.279500">
        <ele>254.067</ele>
        <time>2022-10-23T09:49:33Z</time>
      </trkpt>
      <trkpt lat="41.689237" lon="2.279538">
        <ele>254.063</ele>
        <time>2022-10-23T09:49:34Z</time>
      </trkpt>
      <trkpt lat="41.689260" lon="2.279573">
        <ele>254.061</ele>
        <time>2022-10-23T09:49:35Z</time>
      </trkpt>
      <trkpt lat="41.689284" lon="2.279605">
        <ele>253.857</ele>
        <time>2022-10-23T09:49:36Z</time>
      </trkpt>
      <trkpt lat="41.689308" lon="2.279633">
        <ele>253.857</ele>
        <time>2022-10-23T09:49:37Z</time>
      </trkpt>
      <trkpt lat="41.689330" lon="2.279662">
        <ele>253.810</ele>
        <time>2022-10-23T09:49:38Z</time>
      </trkpt>
      <trkpt lat="41.689353" lon="2.279693">
        <ele>253.812</ele>
        <time>2022-10-23T09:49:39Z</time>
      </trkpt>
      <trkpt lat="41.689376" lon="2.279727">
        <ele>253.832</ele>
        <time>2022-10-23T09:49:40Z</time>
      </trkpt>
      <trkpt lat="41.689398" lon="2.279766">
        <ele>253.605</ele>
        <time>2022-10-23T09:49:41Z</time>
      </trkpt>
      <trkpt lat="41.689419" lon="2.279806">
        <ele>253.609</ele>
        <time>2022-10-23T09:49:42Z</time>
      </trkpt>
      <trkpt lat="41.689440" lon="2.279849">
        <ele>253.622</ele>
        <time>2022-10-23T09:49:43Z</time>
      </trkpt>
      <trkpt lat="41.689461" lon="2.279893">
        <ele>253.482</ele>
        <time>2022-10-23T09:49:44Z</time>
      </trkpt>
      <trkpt lat="41.689479" lon="2.279935">
        <ele>253.248</ele>
        <time>2022-10-23T09:49:45Z</time>
      </trkpt>
      <trkpt lat="41.689500" lon="2.279972">
        <ele>253.011</ele>
        <time>2022-10-23T09:49:46Z</time>
      </trkpt>
      <trkpt lat="41.689525" lon="2.280004">
        <ele>253.087</ele>
        <time>2022-10-23T09:49:47Z</time>
      </trkpt>
      <trkpt lat="41.689553" lon="2.280029">
        <ele>252.885</ele>
        <time>2022-10-23T09:49:48Z</time>
      </trkpt>
      <trkpt lat="41.689580" lon="2.280050">
        <ele>252.651</ele>
        <time>2022-10-23T09:49:49Z</time>
      </trkpt>
      <trkpt lat="41.689606" lon="2.280069">
        <ele>252.661</ele>
        <time>2022-10-23T09:49:50Z</time>
      </trkpt>
      <trkpt lat="41.689629" lon="2.280089">
        <ele>252.434</ele>
        <time>2022-10-23T09:49:51Z</time>
      </trkpt>
      <trkpt lat="41.689653" lon="2.280105">
        <ele>252.282</ele>
        <time>2022-10-23T09:49:52Z</time>
      </trkpt>
      <trkpt lat="41.689676" lon="2.280119">
        <ele>252.243</ele>
        <time>2022-10-23T09:49:53Z</time>
      </trkpt>
      <trkpt lat="41.689698" lon="2.280124">
        <ele>252.217</ele>
        <time>2022-10-23T09:49:54Z</time>
      </trkpt>
      <trkpt lat="41.689722" lon="2.280129">
        <ele>252.209</ele>
        <time>2022-10-23T09:49:55Z</time>
      </trkpt>
      <trkpt lat="41.689749" lon="2.280135">
        <ele>252.089</ele>
        <time>2022-10-23T09:49:56Z</time>
      </trkpt>
      <trkpt lat="41.689778" lon="2.280142">
        <ele>252.289</ele>
        <time>2022-10-23T09:49:57Z</time>
      </trkpt>
      <trkpt lat="41.689804" lon="2.280146">
        <ele>252.085</ele>
        <time>2022-10-23T09:49:58Z</time>
      </trkpt>
      <trkpt lat="41.689828" lon="2.280149">
        <ele>252.058</ele>
        <time>2022-10-23T09:49:59Z</time>
      </trkpt>
      <trkpt lat="41.689853" lon="2.280154">
        <ele>252.044</ele>
        <time>2022-10-23T09:50:00Z</time>
      </trkpt>
      <trkpt lat="41.689878" lon="2.280157">
        <ele>252.072</ele>
        <time>2022-10-23T09:50:01Z</time>
      </trkpt>
      <trkpt lat="41.689903" lon="2.280162">
        <ele>252.048</ele>
        <time>2022-10-23T09:50:02Z</time>
      </trkpt>
      <trkpt lat="41.689933" lon="2.280173">
        <ele>252.078</ele>
        <time>2022-10-23T09:50:03Z</time>
      </trkpt>
      <trkpt lat="41.689965" lon="2.280185">
        <ele>252.081</ele>
        <time>2022-10-23T09:50:04Z</time>
      </trkpt>
      <trkpt lat="41.689996" lon="2.280195">
        <ele>252.035</ele>
        <time>2022-10-23T09:50:05Z</time>
      </trkpt>
      <trkpt lat="41.690024" lon="2.280208">
        <ele>252.086</ele>
        <time>2022-10-23T09:50:06Z</time>
      </trkpt>
      <trkpt lat="41.690050" lon="2.280223">
        <ele>251.814</ele>
        <time>2022-10-23T09:50:07Z</time>
      </trkpt>
      <trkpt lat="41.690074" lon="2.280241">
        <ele>251.809</ele>
        <time>2022-10-23T09:50:08Z</time>
      </trkpt>
      <trkpt lat="41.690094" lon="2.280260">
        <ele>251.874</ele>
        <time>2022-10-23T09:50:09Z</time>
      </trkpt>
      <trkpt lat="41.690114" lon="2.280278">
        <ele>251.814</ele>
        <time>2022-10-23T09:50:10Z</time>
      </trkpt>
      <trkpt lat="41.690132" lon="2.280296">
        <ele>251.870</ele>
        <time>2022-10-23T09:50:11Z</time>
      </trkpt>
      <trkpt lat="41.690149" lon="2.280312">
        <ele>251.813</ele>
        <time>2022-10-23T09:50:12Z</time>
      </trkpt>
      <trkpt lat="41.690164" lon="2.280327">
        <ele>251.859</ele>
        <time>2022-10-23T09:50:13Z</time>
      </trkpt>
      <trkpt lat="41.690179" lon="2.280339">
        <ele>251.817</ele>
        <time>2022-10-23T09:50:14Z</time>
      </trkpt>
      <trkpt lat="41.690194" lon="2.280351">
        <ele>251.833</ele>
        <time>2022-10-23T09:50:15Z</time>
      </trkpt>
      <trkpt lat="41.690207" lon="2.280363">
        <ele>251.813</ele>
        <time>2022-10-23T09:50:16Z</time>
      </trkpt>
      <trkpt lat="41.690223" lon="2.280379">
        <ele>251.826</ele>
        <time>2022-10-23T09:50:17Z</time>
      </trkpt>
      <trkpt lat="41.690241" lon="2.280398">
        <ele>251.877</ele>
        <time>2022-10-23T09:50:18Z</time>
      </trkpt>
      <trkpt lat="41.690258" lon="2.280420">
        <ele>251.861</ele>
        <time>2022-10-23T09:50:19Z</time>
      </trkpt>
      <trkpt lat="41.690278" lon="2.280439">
        <ele>251.827</ele>
        <time>2022-10-23T09:50:20Z</time>
      </trkpt>
      <trkpt lat="41.690302" lon="2.280457">
        <ele>251.809</ele>
        <time>2022-10-23T09:50:21Z</time>
      </trkpt>
      <trkpt lat="41.690326" lon="2.280480">
        <ele>251.828</ele>
        <time>2022-10-23T09:50:22Z</time>
      </trkpt>
      <trkpt lat="41.690350" lon="2.280505">
        <ele>251.848</ele>
        <time>2022-10-23T09:50:23Z</time>
      </trkpt>
      <trkpt lat="41.690376" lon="2.280529">
        <ele>251.884</ele>
        <time>2022-10-23T09:50:24Z</time>
      </trkpt>
      <trkpt lat="41.690403" lon="2.280553">
        <ele>251.827</ele>
        <time>2022-10-23T09:50:25Z</time>
      </trkpt>
      <trkpt lat="41.690432" lon="2.280578">
        <ele>251.853</ele>
        <time>2022-10-23T09:50:26Z</time>
      </trkpt>
      <trkpt lat="41.690461" lon="2.280602">
        <ele>251.851</ele>
        <time>2022-10-23T09:50:27Z</time>
      </trkpt>
      <trkpt lat="41.690489" lon="2.280624">
        <ele>251.867</ele>
        <time>2022-10-23T09:50:28Z</time>
      </trkpt>
      <trkpt lat="41.690518" lon="2.280646">
        <ele>251.847</ele>
        <time>2022-10-23T09:50:29Z</time>
      </trkpt>
      <trkpt lat="41.690546" lon="2.280668">
        <ele>251.660</ele>
        <time>2022-10-23T09:50:30Z</time>
      </trkpt>
      <trkpt lat="41.690570" lon="2.280689">
        <ele>251.673</ele>
        <time>2022-10-23T09:50:31Z</time>
      </trkpt>
      <trkpt lat="41.690585" lon="2.280707">
        <ele>251.485</ele>
        <time>2022-10-23T09:50:32Z</time>
      </trkpt>
      <trkpt lat="41.690607" lon="2.280711">
        <ele>251.413</ele>
        <time>2022-10-23T09:50:33Z</time>
      </trkpt>
      <trkpt lat="41.690633" lon="2.280703">
        <ele>251.209</ele>
        <time>2022-10-23T09:50:34Z</time>
      </trkpt>
      <trkpt lat="41.690656" lon="2.280690">
        <ele>251.218</ele>
        <time>2022-10-23T09:50:35Z</time>
      </trkpt>
      <trkpt lat="41.690676" lon="2.280670">
        <ele>251.238</ele>
        <time>2022-10-23T09:50:36Z</time>
      </trkpt>
      <trkpt lat="41.690696" lon="2.280646">
        <ele>251.254</ele>
        <time>2022-10-23T09:50:37Z</time>
      </trkpt>
      <trkpt lat="41.690714" lon="2.280624">
        <ele>251.237</ele>
        <time>2022-10-23T09:50:38Z</time>
      </trkpt>
      <trkpt lat="41.690732" lon="2.280605">
        <ele>251.293</ele>
        <time>2022-10-23T09:50:39Z</time>
      </trkpt>
      <trkpt lat="41.690749" lon="2.280583">
        <ele>251.221</ele>
        <time>2022-10-23T09:50:40Z</time>
      </trkpt>
      <trkpt lat="41.690766" lon="2.280563">
        <ele>251.267</ele>
        <time>2022-10-23T09:50:41Z</time>
      </trkpt>
      <trkpt lat="41.690787" lon="2.280550">
        <ele>251.227</ele>
        <time>2022-10-23T09:50:42Z</time>
      </trkpt>
      <trkpt lat="41.690803" lon="2.280533">
        <ele>251.220</ele>
        <time>2022-10-23T09:50:43Z</time>
      </trkpt>
      <trkpt lat="41.690822" lon="2.280526">
        <ele>251.267</ele>
        <time>2022-10-23T09:50:44Z</time>
      </trkpt>
      <trkpt lat="41.690844" lon="2.280527">
        <ele>251.481</ele>
        <time>2022-10-23T09:50:45Z</time>
      </trkpt>
      <trkpt lat="41.690867" lon="2.280534">
        <ele>251.619</ele>
        <time>2022-10-23T09:50:46Z</time>
      </trkpt>
      <trkpt lat="41.690889" lon="2.280548">
        <ele>251.609</ele>
        <time>2022-10-23T09:50:47Z</time>
      </trkpt>
      <trkpt lat="41.690914" lon="2.280565">
        <ele>251.827</ele>
        <time>2022-10-23T09:50:48Z</time>
      </trkpt>
      <trkpt lat="41.690938" lon="2.280584">
        <ele>252.047</ele>
        <time>2022-10-23T09:50:49Z</time>
      </trkpt>
      <trkpt lat="41.690962" lon="2.280607">
        <ele>252.043</ele>
        <time>2022-10-23T09:50:50Z</time>
      </trkpt>
      <trkpt lat="41.690985" lon="2.280629">
        <ele>252.266</ele>
        <time>2022-10-23T09:50:51Z</time>
      </trkpt>
      <trkpt lat="41.691011" lon="2.280648">
        <ele>252.272</ele>
        <time>2022-10-23T09:50:52Z</time>
      </trkpt>
      <trkpt lat="41.691035" lon="2.280665">
        <ele>252.260</ele>
        <time>2022-10-23T09:50:53Z</time>
      </trkpt>
      <trkpt lat="41.691057" lon="2.280688">
        <ele>252.256</ele>
        <time>2022-10-23T09:50:54Z</time>
      </trkpt>
      <trkpt lat="41.691083" lon="2.280711">
        <ele>252.226</ele>
        <time>2022-10-23T09:50:55Z</time>
      </trkpt>
      <trkpt lat="41.691112" lon="2.280732">
        <ele>252.289</ele>
        <time>2022-10-23T09:50:56Z</time>
      </trkpt>
      <trkpt lat="41.691141" lon="2.280748">
        <ele>252.283</ele>
        <time>2022-10-23T09:50:57Z</time>
      </trkpt>
      <trkpt lat="41.691171" lon="2.280764">
        <ele>252.225</ele>
        <time>2022-10-23T09:50:58Z</time>
      </trkpt>
      <trkpt lat="41.691202" lon="2.280785">
        <ele>252.217</ele>
        <time>2022-10-23T09:50:59Z</time>
      </trkpt>
      <trkpt lat="41.691233" lon="2.280808">
        <ele>252.209</ele>
        <time>2022-10-23T09:51:00Z</time>
      </trkpt>
      <trkpt lat="41.691264" lon="2.280833">
        <ele>252.279</ele>
        <time>2022-10-23T09:51:01Z</time>
      </trkpt>
      <trkpt lat="41.691296" lon="2.280858">
        <ele>252.249</ele>
        <time>2022-10-23T09:51:02Z</time>
      </trkpt>
      <trkpt lat="41.691331" lon="2.280878">
        <ele>252.015</ele>
        <time>2022-10-23T09:51:03Z</time>
      </trkpt>
      <trkpt lat="41.691367" lon="2.280899">
        <ele>252.048</ele>
        <time>2022-10-23T09:51:04Z</time>
      </trkpt>
      <trkpt lat="41.691403" lon="2.280924">
        <ele>251.834</ele>
        <time>2022-10-23T09:51:05Z</time>
      </trkpt>
      <trkpt lat="41.691441" lon="2.280951">
        <ele>251.852</ele>
        <time>2022-10-23T09:51:06Z</time>
      </trkpt>
      <trkpt lat="41.691476" lon="2.280981">
        <ele>251.818</ele>
        <time>2022-10-23T09:51:07Z</time>
      </trkpt>
      <trkpt lat="41.691509" lon="2.281007">
        <ele>251.678</ele>
        <time>2022-10-23T09:51:08Z</time>
      </trkpt>
      <trkpt lat="41.691538" lon="2.281039">
        <ele>251.671</ele>
        <time>2022-10-23T09:51:09Z</time>
      </trkpt>
      <trkpt lat="41.691567" lon="2.281069">
        <ele>251.694</ele>
        <time>2022-10-23T09:51:10Z</time>
      </trkpt>
      <trkpt lat="41.691600" lon="2.281100">
        <ele>251.657</ele>
        <time>2022-10-23T09:51:11Z</time>
      </trkpt>
      <trkpt lat="41.691635" lon="2.281129">
        <ele>251.622</ele>
        <time>2022-10-23T09:51:12Z</time>
      </trkpt>
      <trkpt lat="41.691670" lon="2.281157">
        <ele>251.609</ele>
        <time>2022-10-23T09:51:13Z</time>
      </trkpt>
      <trkpt lat="41.691704" lon="2.281191">
        <ele>251.650</ele>
        <time>2022-10-23T09:51:14Z</time>
      </trkpt>
      <trkpt lat="41.691738" lon="2.281226">
        <ele>251.430</ele>
        <time>2022-10-23T09:51:15Z</time>
      </trkpt>
      <trkpt lat="41.691771" lon="2.281258">
        <ele>251.216</ele>
        <time>2022-10-23T09:51:16Z</time>
      </trkpt>
      <trkpt lat="41.691808" lon="2.281293">
        <ele>251.219</ele>
        <time>2022-10-23T09:51:17Z</time>
      </trkpt>
      <trkpt lat="41.691843" lon="2.281328">
        <ele>251.245</ele>
        <time>2022-10-23T09:51:18Z</time>
      </trkpt>
      <trkpt lat="41.691876" lon="2.281369">
        <ele>251.023</ele>
        <time>2022-10-23T09:51:19Z</time>
      </trkpt>
      <trkpt lat="41.691904" lon="2.281416">
        <ele>251.069</ele>
        <time>2022-10-23T09:51:20Z</time>
      </trkpt>
      <trkpt lat="41.691930" lon="2.281469">
        <ele>250.889</ele>
        <time>2022-10-23T09:51:21Z</time>
      </trkpt>
      <trkpt lat="41.691953" lon="2.281527">
        <ele>250.872</ele>
        <time>2022-10-23T09:51:22Z</time>
      </trkpt>
      <trkpt lat="41.691975" lon="2.281581">
        <ele>250.811</ele>
        <time>2022-10-23T09:51:23Z</time>
      </trkpt>
      <trkpt lat="41.691995" lon="2.281637">
        <ele>250.821</ele>
        <time>2022-10-23T09:51:24Z</time>
      </trkpt>
      <trkpt lat="41.692014" lon="2.281693">
        <ele>250.603</ele>
        <time>2022-10-23T09:51:25Z</time>
      </trkpt>
      <trkpt lat="41.692033" lon="2.281748">
        <ele>250.609</ele>
        <time>2022-10-23T09:51:26Z</time>
      </trkpt>
      <trkpt lat="41.692048" lon="2.281809">
        <ele>250.682</ele>
        <time>2022-10-23T09:51:27Z</time>
      </trkpt>
      <trkpt lat="41.692064" lon="2.281866">
        <ele>250.422</ele>
        <time>2022-10-23T09:51:28Z</time>
      </trkpt>
      <trkpt lat="41.692082" lon="2.281920">
        <ele>250.458</ele>
        <time>2022-10-23T09:51:29Z</time>
      </trkpt>
      <trkpt lat="41.692102" lon="2.281974">
        <ele>250.491</ele>
        <time>2022-10-23T09:51:30Z</time>
      </trkpt>
      <trkpt lat="41.692123" lon="2.282030">
        <ele>250.227</ele>
        <time>2022-10-23T09:51:31Z</time>
      </trkpt>
      <trkpt lat="41.692145" lon="2.282084">
        <ele>250.225</ele>
        <time>2022-10-23T09:51:32Z</time>
      </trkpt>
      <trkpt lat="41.692165" lon="2.282139">
        <ele>250.261</ele>
        <time>2022-10-23T09:51:33Z</time>
      </trkpt>
      <trkpt lat="41.692185" lon="2.282194">
        <ele>250.211</ele>
        <time>2022-10-23T09:51:34Z</time>
      </trkpt>
      <trkpt lat="41.692206" lon="2.282247">
        <ele>250.214</ele>
        <time>2022-10-23T09:51:35Z</time>
      </trkpt>
      <trkpt lat="41.692228" lon="2.282298">
        <ele>250.245</ele>
        <time>2022-10-23T09:51:36Z</time>
      </trkpt>
      <trkpt lat="41.692253" lon="2.282351">
        <ele>250.247</ele>
        <time>2022-10-23T09:51:37Z</time>
      </trkpt>
      <trkpt lat="41.692279" lon="2.282401">
        <ele>250.211</ele>
        <time>2022-10-23T09:51:38Z</time>
      </trkpt>
      <trkpt lat="41.692311" lon="2.282445">
        <ele>250.209</ele>
        <time>2022-10-23T09:51:39Z</time>
      </trkpt>
      <trkpt lat="41.692348" lon="2.282481">
        <ele>250.015</ele>
        <time>2022-10-23T09:51:40Z</time>
      </trkpt>
      <trkpt lat="41.692385" lon="2.282510">
        <ele>250.055</ele>
        <time>2022-10-23T09:51:41Z</time>
      </trkpt>
      <trkpt lat="41.692422" lon="2.282531">
        <ele>250.051</ele>
        <time>2022-10-23T09:51:42Z</time>
      </trkpt>
      <trkpt lat="41.692459" lon="2.282550">
        <ele>250.054</ele>
        <time>2022-10-23T09:51:43Z</time>
      </trkpt>
      <trkpt lat="41.692497" lon="2.282565">
        <ele>250.080</ele>
        <time>2022-10-23T09:51:44Z</time>
      </trkpt>
      <trkpt lat="41.692537" lon="2.282573">
        <ele>250.098</ele>
        <time>2022-10-23T09:51:45Z</time>
      </trkpt>
      <trkpt lat="41.692579" lon="2.282578">
        <ele>250.024</ele>
        <time>2022-10-23T09:51:46Z</time>
      </trkpt>
      <trkpt lat="41.692622" lon="2.282582">
        <ele>250.074</ele>
        <time>2022-10-23T09:51:47Z</time>
      </trkpt>
      <trkpt lat="41.692664" lon="2.282585">
        <ele>250.067</ele>
        <time>2022-10-23T09:51:48Z</time>
      </trkpt>
      <trkpt lat="41.692707" lon="2.282589">
        <ele>250.064</ele>
        <time>2022-10-23T09:51:49Z</time>
      </trkpt>
      <trkpt lat="41.692750" lon="2.282594">
        <ele>250.006</ele>
        <time>2022-10-23T09:51:50Z</time>
      </trkpt>
      <trkpt lat="41.692794" lon="2.282599">
        <ele>250.016</ele>
        <time>2022-10-23T09:51:51Z</time>
      </trkpt>
      <trkpt lat="41.692838" lon="2.282608">
        <ele>250.009</ele>
        <time>2022-10-23T09:51:52Z</time>
      </trkpt>
      <trkpt lat="41.692879" lon="2.282618">
        <ele>250.017</ele>
        <time>2022-10-23T09:51:53Z</time>
      </trkpt>
      <trkpt lat="41.692921" lon="2.282626">
        <ele>250.237</ele>
        <time>2022-10-23T09:51:54Z</time>
      </trkpt>
      <trkpt lat="41.692962" lon="2.282630">
        <ele>250.223</ele>
        <time>2022-10-23T09:51:55Z</time>
      </trkpt>
      <trkpt lat="41.693004" lon="2.282634">
        <ele>250.476</ele>
        <time>2022-10-23T09:51:56Z</time>
      </trkpt>
      <trkpt lat="41.693047" lon="2.282639">
        <ele>250.692</ele>
        <time>2022-10-23T09:51:57Z</time>
      </trkpt>
      <trkpt lat="41.693088" lon="2.282642">
        <ele>250.670</ele>
        <time>2022-10-23T09:51:58Z</time>
      </trkpt>
      <trkpt lat="41.693130" lon="2.282647">
        <ele>250.696</ele>
        <time>2022-10-23T09:51:59Z</time>
      </trkpt>
      <trkpt lat="41.693175" lon="2.282653">
        <ele>250.696</ele>
        <time>2022-10-23T09:52:00Z</time>
      </trkpt>
      <trkpt lat="41.693219" lon="2.282661">
        <ele>250.879</ele>
        <time>2022-10-23T09:52:01Z</time>
      </trkpt>
      <trkpt lat="41.693263" lon="2.282669">
        <ele>251.053</ele>
        <time>2022-10-23T09:52:02Z</time>
      </trkpt>
      <trkpt lat="41.693308" lon="2.282676">
        <ele>251.004</ele>
        <time>2022-10-23T09:52:03Z</time>
      </trkpt>
      <trkpt lat="41.693352" lon="2.282684">
        <ele>251.014</ele>
        <time>2022-10-23T09:52:04Z</time>
      </trkpt>
      <trkpt lat="41.693396" lon="2.282691">
        <ele>251.209</ele>
        <time>2022-10-23T09:52:05Z</time>
      </trkpt>
      <trkpt lat="41.693439" lon="2.282696">
        <ele>251.286</ele>
        <time>2022-10-23T09:52:06Z</time>
      </trkpt>
      <trkpt lat="41.693481" lon="2.282701">
        <ele>251.486</ele>
        <time>2022-10-23T09:52:07Z</time>
      </trkpt>
      <trkpt lat="41.693520" lon="2.282706">
        <ele>251.672</ele>
        <time>2022-10-23T09:52:08Z</time>
      </trkpt>
      <trkpt lat="41.693559" lon="2.282711">
        <ele>251.615</ele>
        <time>2022-10-23T09:52:09Z</time>
      </trkpt>
      <trkpt lat="41.693598" lon="2.282718">
        <ele>251.851</ele>
        <time>2022-10-23T09:52:10Z</time>
      </trkpt>
      <trkpt lat="41.693636" lon="2.282726">
        <ele>251.869</ele>
        <time>2022-10-23T09:52:11Z</time>
      </trkpt>
      <trkpt lat="41.693672" lon="2.282733">
        <ele>251.875</ele>
        <time>2022-10-23T09:52:12Z</time>
      </trkpt>
      <trkpt lat="41.693706" lon="2.282740">
        <ele>252.075</ele>
        <time>2022-10-23T09:52:13Z</time>
      </trkpt>
      <trkpt lat="41.693737" lon="2.282751">
        <ele>252.058</ele>
        <time>2022-10-23T09:52:14Z</time>
      </trkpt>
      <trkpt lat="41.693764" lon="2.282769">
        <ele>252.263</ele>
        <time>2022-10-23T09:52:15Z</time>
      </trkpt>
      <trkpt lat="41.693783" lon="2.282800">
        <ele>252.244</ele>
        <time>2022-10-23T09:52:16Z</time>
      </trkpt>
      <trkpt lat="41.693793" lon="2.282842">
        <ele>252.218</ele>
        <time>2022-10-23T09:52:17Z</time>
      </trkpt>
      <trkpt lat="41.693796" lon="2.282893">
        <ele>252.209</ele>
        <time>2022-10-23T09:52:18Z</time>
      </trkpt>
      <trkpt lat="41.693794" lon="2.282952">
        <ele>252.447</ele>
        <time>2022-10-23T09:52:19Z</time>
      </trkpt>
      <trkpt lat="41.693789" lon="2.283017">
        <ele>252.467</ele>
        <time>2022-10-23T09:52:20Z</time>
      </trkpt>
      <trkpt lat="41.693784" lon="2.283088">
        <ele>252.473</ele>
        <time>2022-10-23T09:52:21Z</time>
      </trkpt>
      <trkpt lat="41.693776" lon="2.283162">
        <ele>252.486</ele>
        <time>2022-10-23T09:52:22Z</time>
      </trkpt>
      <trkpt lat="41.693769" lon="2.283235">
        <ele>252.432</ele>
        <time>2022-10-23T09:52:23Z</time>
      </trkpt>
      <trkpt lat="41.693767" lon="2.283304">
        <ele>252.470</ele>
        <time>2022-10-23T09:52:24Z</time>
      </trkpt>
      <trkpt lat="41.693773" lon="2.283362">
        <ele>252.446</ele>
        <time>2022-10-23T09:52:25Z</time>
      </trkpt>
      <trkpt lat="41.693789" lon="2.283410">
        <ele>252.446</ele>
        <time>2022-10-23T09:52:26Z</time>
      </trkpt>
      <trkpt lat="41.693810" lon="2.283453">
        <ele>252.299</ele>
        <time>2022-10-23T09:52:27Z</time>
      </trkpt>
      <trkpt lat="41.693833" lon="2.283494">
        <ele>251.818</ele>
        <time>2022-10-23T09:52:28Z</time>
      </trkpt>
      <trkpt lat="41.693860" lon="2.283529">
        <ele>251.498</ele>
        <time>2022-10-23T09:52:29Z</time>
      </trkpt>
      <trkpt lat="41.693894" lon="2.283563">
        <ele>251.017</ele>
        <time>2022-10-23T09:52:30Z</time>
      </trkpt>
      <trkpt lat="41.693928" lon="2.283598">
        <ele>250.609</ele>
        <time>2022-10-23T09:52:31Z</time>
      </trkpt>
      <trkpt lat="41.693965" lon="2.283635">
        <ele>250.212</ele>
        <time>2022-10-23T09:52:32Z</time>
      </trkpt>
      <trkpt lat="41.694002" lon="2.283668">
        <ele>250.062</ele>
        <time>2022-10-23T09:52:33Z</time>
      </trkpt>
      <trkpt lat="41.694040" lon="2.283696">
        <ele>249.838</ele>
        <time>2022-10-23T09:52:34Z</time>
      </trkpt>
      <trkpt lat="41.694075" lon="2.283723">
        <ele>249.841</ele>
        <time>2022-10-23T09:52:35Z</time>
      </trkpt>
      <trkpt lat="41.694108" lon="2.283751">
        <ele>249.817</ele>
        <time>2022-10-23T09:52:36Z</time>
      </trkpt>
      <trkpt lat="41.694140" lon="2.283779">
        <ele>249.855</ele>
        <time>2022-10-23T09:52:37Z</time>
      </trkpt>
      <trkpt lat="41.694167" lon="2.283810">
        <ele>249.841</ele>
        <time>2022-10-23T09:52:38Z</time>
      </trkpt>
      <trkpt lat="41.694185" lon="2.283846">
        <ele>249.651</ele>
        <time>2022-10-23T09:52:39Z</time>
      </trkpt>
      <trkpt lat="41.694197" lon="2.283885">
        <ele>249.634</ele>
        <time>2022-10-23T09:52:40Z</time>
      </trkpt>
      <trkpt lat="41.694206" lon="2.283926">
        <ele>249.696</ele>
        <time>2022-10-23T09:52:41Z</time>
      </trkpt>
      <trkpt lat="41.694217" lon="2.283965">
        <ele>249.831</ele>
        <time>2022-10-23T09:52:42Z</time>
      </trkpt>
      <trkpt lat="41.694228" lon="2.284000">
        <ele>249.824</ele>
        <time>2022-10-23T09:52:43Z</time>
      </trkpt>
      <trkpt lat="41.694239" lon="2.284037">
        <ele>249.809</ele>
        <time>2022-10-23T09:52:44Z</time>
      </trkpt>
      <trkpt lat="41.694255" lon="2.284075">
        <ele>250.010</ele>
        <time>2022-10-23T09:52:45Z</time>
      </trkpt>
      <trkpt lat="41.694271" lon="2.284111">
        <ele>250.060</ele>
        <time>2022-10-23T09:52:46Z</time>
      </trkpt>
      <trkpt lat="41.694284" lon="2.284147">
        <ele>250.036</ele>
        <time>2022-10-23T09:52:47Z</time>
      </trkpt>
      <trkpt lat="41.694299" lon="2.284183">
        <ele>250.299</ele>
        <time>2022-10-23T09:52:48Z</time>
      </trkpt>
      <trkpt lat="41.694308" lon="2.284220">
        <ele>250.425</ele>
        <time>2022-10-23T09:52:49Z</time>
      </trkpt>
      <trkpt lat="41.694316" lon="2.284255">
        <ele>250.463</ele>
        <time>2022-10-23T09:52:50Z</time>
      </trkpt>
      <trkpt lat="41.694324" lon="2.284290">
        <ele>250.459</ele>
        <time>2022-10-23T09:52:51Z</time>
      </trkpt>
      <trkpt lat="41.694335" lon="2.284325">
        <ele>250.469</ele>
        <time>2022-10-23T09:52:52Z</time>
      </trkpt>
      <trkpt lat="41.694349" lon="2.284359">
        <ele>250.482</ele>
        <time>2022-10-23T09:52:53Z</time>
      </trkpt>
      <trkpt lat="41.694365" lon="2.284388">
        <ele>250.475</ele>
        <time>2022-10-23T09:52:54Z</time>
      </trkpt>
      <trkpt lat="41.694384" lon="2.284413">
        <ele>250.428</ele>
        <time>2022-10-23T09:52:55Z</time>
      </trkpt>
      <trkpt lat="41.694404" lon="2.284433">
        <ele>250.420</ele>
        <time>2022-10-23T09:52:56Z</time>
      </trkpt>
      <trkpt lat="41.694428" lon="2.284448">
        <ele>250.409</ele>
        <time>2022-10-23T09:52:57Z</time>
      </trkpt>
      <trkpt lat="41.694453" lon="2.284454">
        <ele>250.498</ele>
        <time>2022-10-23T09:52:58Z</time>
      </trkpt>
      <trkpt lat="41.694478" lon="2.284460">
        <ele>250.678</ele>
        <time>2022-10-23T09:52:59Z</time>
      </trkpt>
      <trkpt lat="41.694507" lon="2.284462">
        <ele>250.674</ele>
        <time>2022-10-23T09:53:00Z</time>
      </trkpt>
      <trkpt lat="41.694534" lon="2.284459">
        <ele>250.697</ele>
        <time>2022-10-23T09:53:01Z</time>
      </trkpt>
      <trkpt lat="41.694560" lon="2.284460">
        <ele>250.613</ele>
        <time>2022-10-23T09:53:02Z</time>
      </trkpt>
      <trkpt lat="41.694582" lon="2.284465">
        <ele>250.691</ele>
        <time>2022-10-23T09:53:03Z</time>
      </trkpt>
      <trkpt lat="41.694606" lon="2.284465">
        <ele>250.617</ele>
        <time>2022-10-23T09:53:04Z</time>
      </trkpt>
      <trkpt lat="41.694633" lon="2.284464">
        <ele>250.617</ele>
        <time>2022-10-23T09:53:05Z</time>
      </trkpt>
      <trkpt lat="41.694662" lon="2.284461">
        <ele>250.690</ele>
        <time>2022-10-23T09:53:06Z</time>
      </trkpt>
      <trkpt lat="41.694694" lon="2.284459">
        <ele>250.822</ele>
        <time>2022-10-23T09:53:07Z</time>
      </trkpt>
      <trkpt lat="41.694728" lon="2.284457">
        <ele>250.862</ele>
        <time>2022-10-23T09:53:08Z</time>
      </trkpt>
      <trkpt lat="41.694763" lon="2.284449">
        <ele>250.808</ele>
        <time>2022-10-23T09:53:09Z</time>
      </trkpt>
      <trkpt lat="41.694796" lon="2.284446">
        <ele>251.009</ele>
        <time>2022-10-23T09:53:10Z</time>
      </trkpt>
      <trkpt lat="41.694826" lon="2.284443">
        <ele>251.043</ele>
        <time>2022-10-23T09:53:11Z</time>
      </trkpt>
      <trkpt lat="41.694856" lon="2.284439">
        <ele>251.033</ele>
        <time>2022-10-23T09:53:12Z</time>
      </trkpt>
      <trkpt lat="41.694889" lon="2.284440">
        <ele>251.249</ele>
        <time>2022-10-23T09:53:13Z</time>
      </trkpt>
      <trkpt lat="41.694923" lon="2.284442">
        <ele>251.262</ele>
        <time>2022-10-23T09:53:14Z</time>
      </trkpt>
      <trkpt lat="41.694957" lon="2.284445">
        <ele>251.258</ele>
        <time>2022-10-23T09:53:15Z</time>
      </trkpt>
      <trkpt lat="41.694992" lon="2.284449">
        <ele>251.296</ele>
        <time>2022-10-23T09:53:16Z</time>
      </trkpt>
      <trkpt lat="41.695028" lon="2.284452">
        <ele>251.282</ele>
        <time>2022-10-23T09:53:17Z</time>
      </trkpt>
      <trkpt lat="41.695063" lon="2.284454">
        <ele>251.432</ele>
        <time>2022-10-23T09:53:18Z</time>
      </trkpt>
      <trkpt lat="41.695098" lon="2.284456">
        <ele>251.485</ele>
        <time>2022-10-23T09:53:19Z</time>
      </trkpt>
      <trkpt lat="41.695133" lon="2.284454">
        <ele>251.696</ele>
        <time>2022-10-23T09:53:20Z</time>
      </trkpt>
      <trkpt lat="41.695168" lon="2.284451">
        <ele>251.631</ele>
        <time>2022-10-23T09:53:21Z</time>
      </trkpt>
      <trkpt lat="41.695203" lon="2.284448">
        <ele>251.624</ele>
        <time>2022-10-23T09:53:22Z</time>
      </trkpt>
      <trkpt lat="41.695238" lon="2.284444">
        <ele>251.809</ele>
        <time>2022-10-23T09:53:23Z</time>
      </trkpt>
      <trkpt lat="41.695272" lon="2.284438">
        <ele>251.840</ele>
        <time>2022-10-23T09:53:24Z</time>
      </trkpt>
      <trkpt lat="41.695305" lon="2.284430">
        <ele>251.860</ele>
        <time>2022-10-23T09:53:25Z</time>
      </trkpt>
      <trkpt lat="41.695338" lon="2.284421">
        <ele>251.836</ele>
        <time>2022-10-23T09:53:26Z</time>
      </trkpt>
      <trkpt lat="41.695372" lon="2.284414">
        <ele>251.859</ele>
        <time>2022-10-23T09:53:27Z</time>
      </trkpt>
      <trkpt lat="41.695407" lon="2.284406">
        <ele>252.015</ele>
        <time>2022-10-23T09:53:28Z</time>
      </trkpt>
      <trkpt lat="41.695443" lon="2.284400">
        <ele>252.063</ele>
        <time>2022-10-23T09:53:29Z</time>
      </trkpt>
      <trkpt lat="41.695479" lon="2.284394">
        <ele>252.049</ele>
        <time>2022-10-23T09:53:30Z</time>
      </trkpt>
      <trkpt lat="41.695516" lon="2.284388">
        <ele>252.079</ele>
        <time>2022-10-23T09:53:31Z</time>
      </trkpt>
      <trkpt lat="41.695553" lon="2.284385">
        <ele>252.012</ele>
        <time>2022-10-23T09:53:32Z</time>
      </trkpt>
      <trkpt lat="41.695589" lon="2.284382">
        <ele>252.043</ele>
        <time>2022-10-23T09:53:33Z</time>
      </trkpt>
      <trkpt lat="41.695624" lon="2.284379">
        <ele>252.264</ele>
        <time>2022-10-23T09:53:34Z</time>
      </trkpt>
      <trkpt lat="41.695660" lon="2.284380">
        <ele>252.410</ele>
        <time>2022-10-23T09:53:35Z</time>
      </trkpt>
      <trkpt lat="41.695694" lon="2.284385">
        <ele>252.409</ele>
        <time>2022-10-23T09:53:36Z</time>
      </trkpt>
      <trkpt lat="41.695725" lon="2.284398">
        <ele>252.465</ele>
        <time>2022-10-23T09:53:37Z</time>
      </trkpt>
      <trkpt lat="41.695751" lon="2.284426">
        <ele>252.465</ele>
        <time>2022-10-23T09:53:38Z</time>
      </trkpt>
      <trkpt lat="41.695770" lon="2.284461">
        <ele>252.411</ele>
        <time>2022-10-23T09:53:39Z</time>
      </trkpt>
      <trkpt lat="41.695781" lon="2.284503">
        <ele>252.414</ele>
        <time>2022-10-23T09:53:40Z</time>
      </trkpt>
      <trkpt lat="41.695788" lon="2.284549">
        <ele>252.420</ele>
        <time>2022-10-23T09:53:41Z</time>
      </trkpt>
      <trkpt lat="41.695795" lon="2.284599">
        <ele>252.458</ele>
        <time>2022-10-23T09:53:42Z</time>
      </trkpt>
      <trkpt lat="41.695804" lon="2.284651">
        <ele>252.424</ele>
        <time>2022-10-23T09:53:43Z</time>
      </trkpt>
      <trkpt lat="41.695813" lon="2.284700">
        <ele>252.414</ele>
        <time>2022-10-23T09:53:44Z</time>
      </trkpt>
      <trkpt lat="41.695821" lon="2.284748">
        <ele>252.447</ele>
        <time>2022-10-23T09:53:45Z</time>
      </trkpt>
      <trkpt lat="41.695828" lon="2.284798">
        <ele>252.492</ele>
        <time>2022-10-23T09:53:46Z</time>
      </trkpt>
      <trkpt lat="41.695834" lon="2.284848">
        <ele>252.473</ele>
        <time>2022-10-23T09:53:47Z</time>
      </trkpt>
      <trkpt lat="41.695843" lon="2.284901">
        <ele>252.420</ele>
        <time>2022-10-23T09:53:48Z</time>
      </trkpt>
      <trkpt lat="41.695852" lon="2.284951">
        <ele>252.409</ele>
        <time>2022-10-23T09:53:49Z</time>
      </trkpt>
      <trkpt lat="41.695859" lon="2.284998">
        <ele>252.430</ele>
        <time>2022-10-23T09:53:50Z</time>
      </trkpt>
      <trkpt lat="41.695864" lon="2.285046">
        <ele>252.440</ele>
        <time>2022-10-23T09:53:51Z</time>
      </trkpt>
      <trkpt lat="41.695868" lon="2.285093">
        <ele>252.476</ele>
        <time>2022-10-23T09:53:52Z</time>
      </trkpt>
      <trkpt lat="41.695875" lon="2.285140">
        <ele>252.689</ele>
        <time>2022-10-23T09:53:53Z</time>
      </trkpt>
      <trkpt lat="41.695888" lon="2.285185">
        <ele>252.695</ele>
        <time>2022-10-23T09:53:54Z</time>
      </trkpt>
      <trkpt lat="41.695907" lon="2.285227">
        <ele>252.653</ele>
        <time>2022-10-23T09:53:55Z</time>
      </trkpt>
      <trkpt lat="41.695929" lon="2.285271">
        <ele>252.619</ele>
        <time>2022-10-23T09:53:56Z</time>
      </trkpt>
      <trkpt lat="41.695952" lon="2.285315">
        <ele>252.629</ele>
        <time>2022-10-23T09:53:57Z</time>
      </trkpt>
      <trkpt lat="41.695977" lon="2.285357">
        <ele>252.852</ele>
        <time>2022-10-23T09:53:58Z</time>
      </trkpt>
      <trkpt lat="41.696004" lon="2.285395">
        <ele>252.899</ele>
        <time>2022-10-23T09:53:59Z</time>
      </trkpt>
      <trkpt lat="41.696031" lon="2.285433">
        <ele>252.807</ele>
        <time>2022-10-23T09:54:00Z</time>
      </trkpt>
      <trkpt lat="41.696056" lon="2.285472">
        <ele>252.827</ele>
        <time>2022-10-23T09:54:01Z</time>
      </trkpt>
      <trkpt lat="41.696081" lon="2.285512">
        <ele>252.809</ele>
        <time>2022-10-23T09:54:02Z</time>
      </trkpt>
      <trkpt lat="41.696106" lon="2.285549">
        <ele>253.070</ele>
        <time>2022-10-23T09:54:03Z</time>
      </trkpt>
      <trkpt lat="41.696132" lon="2.285585">
        <ele>253.030</ele>
        <time>2022-10-23T09:54:04Z</time>
      </trkpt>
      <trkpt lat="41.696160" lon="2.285611">
        <ele>253.086</ele>
        <time>2022-10-23T09:54:05Z</time>
      </trkpt>
      <trkpt lat="41.696194" lon="2.285627">
        <ele>253.289</ele>
        <time>2022-10-23T09:54:06Z</time>
      </trkpt>
      <trkpt lat="41.696229" lon="2.285632">
        <ele>253.235</ele>
        <time>2022-10-23T09:54:07Z</time>
      </trkpt>
      <trkpt lat="41.696266" lon="2.285633">
        <ele>253.233</ele>
        <time>2022-10-23T09:54:08Z</time>
      </trkpt>
      <trkpt lat="41.696300" lon="2.285633">
        <ele>253.499</ele>
        <time>2022-10-23T09:54:09Z</time>
      </trkpt>
      <trkpt lat="41.696333" lon="2.285631">
        <ele>253.429</ele>
        <time>2022-10-23T09:54:10Z</time>
      </trkpt>
      <trkpt lat="41.696368" lon="2.285627">
        <ele>253.612</ele>
        <time>2022-10-23T09:54:11Z</time>
      </trkpt>
      <trkpt lat="41.696402" lon="2.285622">
        <ele>253.689</ele>
        <time>2022-10-23T09:54:12Z</time>
      </trkpt>
      <trkpt lat="41.696437" lon="2.285616">
        <ele>253.806</ele>
        <time>2022-10-23T09:54:13Z</time>
      </trkpt>
      <trkpt lat="41.696474" lon="2.285606">
        <ele>254.026</ele>
        <time>2022-10-23T09:54:14Z</time>
      </trkpt>
      <trkpt lat="41.696512" lon="2.285595">
        <ele>254.209</ele>
        <time>2022-10-23T09:54:15Z</time>
      </trkpt>
      <trkpt lat="41.696547" lon="2.285579">
        <ele>254.439</ele>
        <time>2022-10-23T09:54:16Z</time>
      </trkpt>
      <trkpt lat="41.696581" lon="2.285558">
        <ele>254.649</ele>
        <time>2022-10-23T09:54:17Z</time>
      </trkpt>
      <trkpt lat="41.696611" lon="2.285544">
        <ele>254.635</ele>
        <time>2022-10-23T09:54:18Z</time>
      </trkpt>
      <trkpt lat="41.696640" lon="2.285528">
        <ele>254.668</ele>
        <time>2022-10-23T09:54:19Z</time>
      </trkpt>
      <trkpt lat="41.696670" lon="2.285516">
        <ele>254.844</ele>
        <time>2022-10-23T09:54:20Z</time>
      </trkpt>
      <trkpt lat="41.696699" lon="2.285507">
        <ele>254.862</ele>
        <time>2022-10-23T09:54:21Z</time>
      </trkpt>
      <trkpt lat="41.696729" lon="2.285499">
        <ele>255.018</ele>
        <time>2022-10-23T09:54:22Z</time>
      </trkpt>
      <trkpt lat="41.696761" lon="2.285491">
        <ele>255.238</ele>
        <time>2022-10-23T09:54:23Z</time>
      </trkpt>
      <trkpt lat="41.696793" lon="2.285480">
        <ele>255.251</ele>
        <time>2022-10-23T09:54:24Z</time>
      </trkpt>
      <trkpt lat="41.696826" lon="2.285465">
        <ele>255.489</ele>
        <time>2022-10-23T09:54:25Z</time>
      </trkpt>
      <trkpt lat="41.696861" lon="2.285450">
        <ele>255.606</ele>
        <time>2022-10-23T09:54:26Z</time>
      </trkpt>
      <trkpt lat="41.696896" lon="2.285437">
        <ele>255.826</ele>
        <time>2022-10-23T09:54:27Z</time>
      </trkpt>
      <trkpt lat="41.696931" lon="2.285423">
        <ele>256.009</ele>
        <time>2022-10-23T09:54:28Z</time>
      </trkpt>
      <trkpt lat="41.696967" lon="2.285409">
        <ele>256.019</ele>
        <time>2022-10-23T09:54:29Z</time>
      </trkpt>
      <trkpt lat="41.697002" lon="2.285397">
        <ele>256.489</ele>
        <time>2022-10-23T09:54:30Z</time>
      </trkpt>
      <trkpt lat="41.697036" lon="2.285385">
        <ele>256.435</ele>
        <time>2022-10-23T09:54:31Z</time>
      </trkpt>
      <trkpt lat="41.697070" lon="2.285376">
        <ele>256.448</ele>
        <time>2022-10-23T09:54:32Z</time>
      </trkpt>
      <trkpt lat="41.697104" lon="2.285368">
        <ele>256.494</ele>
        <time>2022-10-23T09:54:33Z</time>
      </trkpt>
      <trkpt lat="41.697135" lon="2.285360">
        <ele>256.412</ele>
        <time>2022-10-23T09:54:34Z</time>
      </trkpt>
      <trkpt lat="41.697169" lon="2.285349">
        <ele>256.458</ele>
        <time>2022-10-23T09:54:35Z</time>
      </trkpt>
      <trkpt lat="41.697205" lon="2.285339">
        <ele>256.458</ele>
        <time>2022-10-23T09:54:36Z</time>
      </trkpt>
      <trkpt lat="41.697241" lon="2.285324">
        <ele>256.421</ele>
        <time>2022-10-23T09:54:37Z</time>
      </trkpt>
      <trkpt lat="41.697280" lon="2.285310">
        <ele>256.425</ele>
        <time>2022-10-23T09:54:38Z</time>
      </trkpt>
      <trkpt lat="41.697321" lon="2.285299">
        <ele>256.426</ele>
        <time>2022-10-23T09:54:39Z</time>
      </trkpt>
      <trkpt lat="41.697359" lon="2.285287">
        <ele>256.408</ele>
        <time>2022-10-23T09:54:40Z</time>
      </trkpt>
      <trkpt lat="41.697396" lon="2.285274">
        <ele>256.409</ele>
        <time>2022-10-23T09:54:41Z</time>
      </trkpt>
      <trkpt lat="41.697431" lon="2.285259">
        <ele>256.473</ele>
        <time>2022-10-23T09:54:42Z</time>
      </trkpt>
      <trkpt lat="41.697466" lon="2.285243">
        <ele>256.433</ele>
        <time>2022-10-23T09:54:43Z</time>
      </trkpt>
      <trkpt lat="41.697498" lon="2.285233">
        <ele>256.489</ele>
        <time>2022-10-23T09:54:44Z</time>
      </trkpt>
      <trkpt lat="41.697532" lon="2.285222">
        <ele>256.432</ele>
        <time>2022-10-23T09:54:45Z</time>
      </trkpt>
      <trkpt lat="41.697563" lon="2.285215">
        <ele>256.418</ele>
        <time>2022-10-23T09:54:46Z</time>
      </trkpt>
      <trkpt lat="41.697597" lon="2.285211">
        <ele>256.446</ele>
        <time>2022-10-23T09:54:47Z</time>
      </trkpt>
      <trkpt lat="41.697629" lon="2.285209">
        <ele>256.482</ele>
        <time>2022-10-23T09:54:48Z</time>
      </trkpt>
      <trkpt lat="41.697664" lon="2.285205">
        <ele>256.432</ele>
        <time>2022-10-23T09:54:49Z</time>
      </trkpt>
      <trkpt lat="41.697698" lon="2.285199">
        <ele>256.655</ele>
        <time>2022-10-23T09:54:50Z</time>
      </trkpt>
      <trkpt lat="41.697736" lon="2.285193">
        <ele>256.666</ele>
        <time>2022-10-23T09:54:51Z</time>
      </trkpt>
      <trkpt lat="41.697775" lon="2.285185">
        <ele>256.629</ele>
        <time>2022-10-23T09:54:52Z</time>
      </trkpt>
      <trkpt lat="41.697811" lon="2.285176">
        <ele>256.621</ele>
        <time>2022-10-23T09:54:53Z</time>
      </trkpt>
      <trkpt lat="41.697848" lon="2.285166">
        <ele>257.009</ele>
        <time>2022-10-23T09:54:54Z</time>
      </trkpt>
      <trkpt lat="41.697887" lon="2.285155">
        <ele>257.057</ele>
        <time>2022-10-23T09:54:55Z</time>
      </trkpt>
      <trkpt lat="41.697924" lon="2.285148">
        <ele>257.037</ele>
        <time>2022-10-23T09:54:56Z</time>
      </trkpt>
      <trkpt lat="41.697960" lon="2.285137">
        <ele>257.093</ele>
        <time>2022-10-23T09:54:57Z</time>
      </trkpt>
      <trkpt lat="41.697995" lon="2.285128">
        <ele>257.016</ele>
        <time>2022-10-23T09:54:58Z</time>
      </trkpt>
      <trkpt lat="41.698031" lon="2.285116">
        <ele>257.022</ele>
        <time>2022-10-23T09:54:59Z</time>
      </trkpt>
      <trkpt lat="41.698069" lon="2.285105">
        <ele>257.250</ele>
        <time>2022-10-23T09:55:00Z</time>
      </trkpt>
      <trkpt lat="41.698108" lon="2.285092">
        <ele>257.266</ele>
        <time>2022-10-23T09:55:01Z</time>
      </trkpt>
      <trkpt lat="41.698146" lon="2.285073">
        <ele>257.486</ele>
        <time>2022-10-23T09:55:02Z</time>
      </trkpt>
      <trkpt lat="41.698186" lon="2.285052">
        <ele>257.889</ele>
        <time>2022-10-23T09:55:03Z</time>
      </trkpt>
      <trkpt lat="41.698226" lon="2.285041">
        <ele>258.294</ele>
        <time>2022-10-23T09:55:04Z</time>
      </trkpt>
      <trkpt lat="41.698269" lon="2.285020">
        <ele>258.457</ele>
        <time>2022-10-23T09:55:05Z</time>
      </trkpt>
      <trkpt lat="41.698308" lon="2.285001">
        <ele>258.622</ele>
        <time>2022-10-23T09:55:06Z</time>
      </trkpt>
      <trkpt lat="41.698346" lon="2.284982">
        <ele>259.009</ele>
        <time>2022-10-23T09:55:07Z</time>
      </trkpt>
      <trkpt lat="41.698386" lon="2.284963">
        <ele>259.070</ele>
        <time>2022-10-23T09:55:08Z</time>
      </trkpt>
      <trkpt lat="41.698426" lon="2.284942">
        <ele>259.050</ele>
        <time>2022-10-23T09:55:09Z</time>
      </trkpt>
      <trkpt lat="41.698465" lon="2.284924">
        <ele>259.286</ele>
        <time>2022-10-23T09:55:10Z</time>
      </trkpt>
      <trkpt lat="41.698503" lon="2.284909">
        <ele>259.229</ele>
        <time>2022-10-23T09:55:11Z</time>
      </trkpt>
      <trkpt lat="41.698540" lon="2.284893">
        <ele>259.215</ele>
        <time>2022-10-23T09:55:12Z</time>
      </trkpt>
      <trkpt lat="41.698575" lon="2.284880">
        <ele>259.613</ele>
        <time>2022-10-23T09:55:13Z</time>
      </trkpt>
      <trkpt lat="41.698608" lon="2.284871">
        <ele>259.659</ele>
        <time>2022-10-23T09:55:14Z</time>
      </trkpt>
      <trkpt lat="41.698639" lon="2.284868">
        <ele>259.689</ele>
        <time>2022-10-23T09:55:15Z</time>
      </trkpt>
      <trkpt lat="41.698663" lon="2.284866">
        <ele>260.042</ele>
        <time>2022-10-23T09:55:16Z</time>
      </trkpt>
      <trkpt lat="41.698683" lon="2.284872">
        <ele>260.065</ele>
        <time>2022-10-23T09:55:17Z</time>
      </trkpt>
      <trkpt lat="41.698701" lon="2.284889">
        <ele>260.268</ele>
        <time>2022-10-23T09:55:18Z</time>
      </trkpt>
      <trkpt lat="41.698712" lon="2.284920">
        <ele>260.214</ele>
        <time>2022-10-23T09:55:19Z</time>
      </trkpt>
      <trkpt lat="41.698707" lon="2.284957">
        <ele>260.409</ele>
        <time>2022-10-23T09:55:20Z</time>
      </trkpt>
      <trkpt lat="41.698688" lon="2.284998">
        <ele>260.657</ele>
        <time>2022-10-23T09:55:21Z</time>
      </trkpt>
      <trkpt lat="41.698663" lon="2.285037">
        <ele>260.837</ele>
        <time>2022-10-23T09:55:22Z</time>
      </trkpt>
      <trkpt lat="41.698635" lon="2.285076">
        <ele>261.093</ele>
        <time>2022-10-23T09:55:23Z</time>
      </trkpt>
      <trkpt lat="41.698607" lon="2.285116">
        <ele>261.416</ele>
        <time>2022-10-23T09:55:24Z</time>
      </trkpt>
      <trkpt lat="41.698583" lon="2.285157">
        <ele>261.492</ele>
        <time>2022-10-23T09:55:25Z</time>
      </trkpt>
      <trkpt lat="41.698562" lon="2.285198">
        <ele>261.650</ele>
        <time>2022-10-23T09:55:26Z</time>
      </trkpt>
      <trkpt lat="41.698543" lon="2.285239">
        <ele>261.826</ele>
        <time>2022-10-23T09:55:27Z</time>
      </trkpt>
      <trkpt lat="41.698527" lon="2.285279">
        <ele>262.086</ele>
        <time>2022-10-23T09:55:28Z</time>
      </trkpt>
      <trkpt lat="41.698512" lon="2.285316">
        <ele>262.269</ele>
        <time>2022-10-23T09:55:29Z</time>
      </trkpt>
      <trkpt lat="41.698500" lon="2.285353">
        <ele>262.418</ele>
        <time>2022-10-23T09:55:30Z</time>
      </trkpt>
      <trkpt lat="41.698490" lon="2.285391">
        <ele>262.898</ele>
        <time>2022-10-23T09:55:31Z</time>
      </trkpt>
      <trkpt lat="41.698479" lon="2.285429">
        <ele>263.217</ele>
        <time>2022-10-23T09:55:32Z</time>
      </trkpt>
      <trkpt lat="41.698467" lon="2.285466">
        <ele>263.409</ele>
        <time>2022-10-23T09:55:33Z</time>
      </trkpt>
      <trkpt lat="41.698456" lon="2.285506">
        <ele>263.642</ele>
        <time>2022-10-23T09:55:34Z</time>
      </trkpt>
      <trkpt lat="41.698447" lon="2.285549">
        <ele>263.822</ele>
        <time>2022-10-23T09:55:35Z</time>
      </trkpt>
      <trkpt lat="41.698438" lon="2.285591">
        <ele>264.038</ele>
        <time>2022-10-23T09:55:36Z</time>
      </trkpt>
      <trkpt lat="41.698427" lon="2.285634">
        <ele>264.231</ele>
        <time>2022-10-23T09:55:37Z</time>
      </trkpt>
      <trkpt lat="41.698421" lon="2.285679">
        <ele>264.467</ele>
        <time>2022-10-23T09:55:38Z</time>
      </trkpt>
      <trkpt lat="41.698419" lon="2.285725">
        <ele>264.675</ele>
        <time>2022-10-23T09:55:39Z</time>
      </trkpt>
      <trkpt lat="41.698423" lon="2.285771">
        <ele>264.821</ele>
        <time>2022-10-23T09:55:40Z</time>
      </trkpt>
      <trkpt lat="41.698436" lon="2.285814">
        <ele>264.811</ele>
        <time>2022-10-23T09:55:41Z</time>
      </trkpt>
      <trkpt lat="41.698454" lon="2.285851">
        <ele>265.084</ele>
        <time>2022-10-23T09:55:42Z</time>
      </trkpt>
      <trkpt lat="41.698476" lon="2.285878">
        <ele>265.026</ele>
        <time>2022-10-23T09:55:43Z</time>
      </trkpt>
      <trkpt lat="41.698502" lon="2.285892">
        <ele>265.247</ele>
        <time>2022-10-23T09:55:44Z</time>
      </trkpt>
      <trkpt lat="41.698530" lon="2.285895">
        <ele>265.211</ele>
        <time>2022-10-23T09:55:45Z</time>
      </trkpt>
      <trkpt lat="41.698559" lon="2.285887">
        <ele>265.209</ele>
        <time>2022-10-23T09:55:46Z</time>
      </trkpt>
      <trkpt lat="41.698591" lon="2.285875">
        <ele>265.253</ele>
        <time>2022-10-23T09:55:47Z</time>
      </trkpt>
      <trkpt lat="41.698624" lon="2.285858">
        <ele>265.223</ele>
        <time>2022-10-23T09:55:48Z</time>
      </trkpt>
      <trkpt lat="41.698656" lon="2.285841">
        <ele>265.219</ele>
        <time>2022-10-23T09:55:49Z</time>
      </trkpt>
      <trkpt lat="41.698689" lon="2.285827">
        <ele>265.442</ele>
        <time>2022-10-23T09:55:50Z</time>
      </trkpt>
      <trkpt lat="41.698723" lon="2.285815">
        <ele>265.488</ele>
        <time>2022-10-23T09:55:51Z</time>
      </trkpt>
      <trkpt lat="41.698759" lon="2.285803">
        <ele>265.666</ele>
        <time>2022-10-23T09:55:52Z</time>
      </trkpt>
      <trkpt lat="41.698794" lon="2.285788">
        <ele>265.862</ele>
        <time>2022-10-23T09:55:53Z</time>
      </trkpt>
      <trkpt lat="41.698828" lon="2.285774">
        <ele>266.082</ele>
        <time>2022-10-23T09:55:54Z</time>
      </trkpt>
      <trkpt lat="41.698864" lon="2.285757">
        <ele>266.255</ele>
        <time>2022-10-23T09:55:55Z</time>
      </trkpt>
      <trkpt lat="41.698900" lon="2.285739">
        <ele>266.212</ele>
        <time>2022-10-23T09:55:56Z</time>
      </trkpt>
      <trkpt lat="41.698937" lon="2.285723">
        <ele>266.432</ele>
        <time>2022-10-23T09:55:57Z</time>
      </trkpt>
      <trkpt lat="41.698972" lon="2.285707">
        <ele>266.405</ele>
        <time>2022-10-23T09:55:58Z</time>
      </trkpt>
      <trkpt lat="41.699006" lon="2.285689">
        <ele>266.609</ele>
        <time>2022-10-23T09:55:59Z</time>
      </trkpt>
      <trkpt lat="41.699037" lon="2.285669">
        <ele>266.862</ele>
        <time>2022-10-23T09:56:00Z</time>
      </trkpt>
      <trkpt lat="41.699070" lon="2.285649">
        <ele>267.082</ele>
        <time>2022-10-23T09:56:01Z</time>
      </trkpt>
      <trkpt lat="41.699102" lon="2.285631">
        <ele>267.098</ele>
        <time>2022-10-23T09:56:02Z</time>
      </trkpt>
      <trkpt lat="41.699134" lon="2.285609">
        <ele>267.281</ele>
        <time>2022-10-23T09:56:03Z</time>
      </trkpt>
      <trkpt lat="41.699165" lon="2.285589">
        <ele>267.437</ele>
        <time>2022-10-23T09:56:04Z</time>
      </trkpt>
      <trkpt lat="41.699196" lon="2.285571">
        <ele>267.685</ele>
        <time>2022-10-23T09:56:05Z</time>
      </trkpt>
      <trkpt lat="41.699227" lon="2.285550">
        <ele>267.681</ele>
        <time>2022-10-23T09:56:06Z</time>
      </trkpt>
      <trkpt lat="41.699256" lon="2.285527">
        <ele>267.841</ele>
        <time>2022-10-23T09:56:07Z</time>
      </trkpt>
      <trkpt lat="41.699283" lon="2.285503">
        <ele>268.034</ele>
        <time>2022-10-23T09:56:08Z</time>
      </trkpt>
      <trkpt lat="41.699308" lon="2.285486">
        <ele>268.284</ele>
        <time>2022-10-23T09:56:09Z</time>
      </trkpt>
      <trkpt lat="41.699333" lon="2.285472">
        <ele>268.407</ele>
        <time>2022-10-23T09:56:10Z</time>
      </trkpt>
      <trkpt lat="41.699362" lon="2.285461">
        <ele>268.417</ele>
        <time>2022-10-23T09:56:11Z</time>
      </trkpt>
      <trkpt lat="41.699397" lon="2.285459">
        <ele>268.609</ele>
        <time>2022-10-23T09:56:12Z</time>
      </trkpt>
      <trkpt lat="41.699437" lon="2.285471">
        <ele>268.849</ele>
        <time>2022-10-23T09:56:13Z</time>
      </trkpt>
      <trkpt lat="41.699475" lon="2.285496">
        <ele>268.879</ele>
        <time>2022-10-23T09:56:14Z</time>
      </trkpt>
      <trkpt lat="41.699509" lon="2.285527">
        <ele>269.045</ele>
        <time>2022-10-23T09:56:15Z</time>
      </trkpt>
      <trkpt lat="41.699538" lon="2.285558">
        <ele>269.088</ele>
        <time>2022-10-23T09:56:16Z</time>
      </trkpt>
      <trkpt lat="41.699563" lon="2.285591">
        <ele>269.214</ele>
        <time>2022-10-23T09:56:17Z</time>
      </trkpt>
      <trkpt lat="41.699583" lon="2.285621">
        <ele>269.292</ele>
        <time>2022-10-23T09:56:18Z</time>
      </trkpt>
      <trkpt lat="41.699601" lon="2.285653">
        <ele>269.248</ele>
        <time>2022-10-23T09:56:19Z</time>
      </trkpt>
      <trkpt lat="41.699616" lon="2.285685">
        <ele>269.278</ele>
        <time>2022-10-23T09:56:20Z</time>
      </trkpt>
      <trkpt lat="41.699630" lon="2.285721">
        <ele>269.411</ele>
        <time>2022-10-23T09:56:21Z</time>
      </trkpt>
      <trkpt lat="41.699646" lon="2.285757">
        <ele>269.472</ele>
        <time>2022-10-23T09:56:22Z</time>
      </trkpt>
      <trkpt lat="41.699660" lon="2.285792">
        <ele>269.413</ele>
        <time>2022-10-23T09:56:23Z</time>
      </trkpt>
      <trkpt lat="41.699674" lon="2.285829">
        <ele>269.414</ele>
        <time>2022-10-23T09:56:24Z</time>
      </trkpt>
      <trkpt lat="41.699692" lon="2.285868">
        <ele>269.609</ele>
        <time>2022-10-23T09:56:25Z</time>
      </trkpt>
      <trkpt lat="41.699711" lon="2.285911">
        <ele>269.618</ele>
        <time>2022-10-23T09:56:26Z</time>
      </trkpt>
      <trkpt lat="41.699734" lon="2.285945">
        <ele>270.098</ele>
        <time>2022-10-23T09:56:27Z</time>
      </trkpt>
      <trkpt lat="41.699755" lon="2.285979">
        <ele>270.294</ele>
        <time>2022-10-23T09:56:28Z</time>
      </trkpt>
      <trkpt lat="41.699777" lon="2.286013">
        <ele>270.447</ele>
        <time>2022-10-23T09:56:29Z</time>
      </trkpt>
      <trkpt lat="41.699799" lon="2.286051">
        <ele>270.623</ele>
        <time>2022-10-23T09:56:30Z</time>
      </trkpt>
      <trkpt lat="41.699820" lon="2.286088">
        <ele>270.871</ele>
        <time>2022-10-23T09:56:31Z</time>
      </trkpt>
      <trkpt lat="41.699840" lon="2.286127">
        <ele>271.067</ele>
        <time>2022-10-23T09:56:32Z</time>
      </trkpt>
      <trkpt lat="41.699859" lon="2.286168">
        <ele>271.057</ele>
        <time>2022-10-23T09:56:33Z</time>
      </trkpt>
      <trkpt lat="41.699880" lon="2.286210">
        <ele>271.030</ele>
        <time>2022-10-23T09:56:34Z</time>
      </trkpt>
      <trkpt lat="41.699898" lon="2.286248">
        <ele>271.254</ele>
        <time>2022-10-23T09:56:35Z</time>
      </trkpt>
      <trkpt lat="41.699917" lon="2.286282">
        <ele>271.456</ele>
        <time>2022-10-23T09:56:36Z</time>
      </trkpt>
      <trkpt lat="41.699940" lon="2.286317">
        <ele>271.611</ele>
        <time>2022-10-23T09:56:37Z</time>
      </trkpt>
      <trkpt lat="41.699964" lon="2.286354">
        <ele>271.809</ele>
        <time>2022-10-23T09:56:38Z</time>
      </trkpt>
      <trkpt lat="41.699984" lon="2.286386">
        <ele>272.016</ele>
        <time>2022-10-23T09:56:39Z</time>
      </trkpt>
      <trkpt lat="41.700004" lon="2.286417">
        <ele>272.256</ele>
        <time>2022-10-23T09:56:40Z</time>
      </trkpt>
      <trkpt lat="41.700024" lon="2.286450">
        <ele>272.452</ele>
        <time>2022-10-23T09:56:41Z</time>
      </trkpt>
      <trkpt lat="41.700038" lon="2.286483">
        <ele>272.445</ele>
        <time>2022-10-23T09:56:42Z</time>
      </trkpt>
      <trkpt lat="41.700044" lon="2.286520">
        <ele>272.621</ele>
        <time>2022-10-23T09:56:43Z</time>
      </trkpt>
      <trkpt lat="41.700042" lon="2.286562">
        <ele>273.099</ele>
        <time>2022-10-23T09:56:44Z</time>
      </trkpt>
      <trkpt lat="41.700028" lon="2.286605">
        <ele>273.095</ele>
        <time>2022-10-23T09:56:45Z</time>
      </trkpt>
      <trkpt lat="41.700001" lon="2.286646">
        <ele>273.215</ele>
        <time>2022-10-23T09:56:46Z</time>
      </trkpt>
      <trkpt lat="41.699966" lon="2.286678">
        <ele>273.458</ele>
        <time>2022-10-23T09:56:47Z</time>
      </trkpt>
      <trkpt lat="41.699925" lon="2.286699">
        <ele>273.469</ele>
        <time>2022-10-23T09:56:48Z</time>
      </trkpt>
      <trkpt lat="41.699885" lon="2.286712">
        <ele>273.404</ele>
        <time>2022-10-23T09:56:49Z</time>
      </trkpt>
      <trkpt lat="41.699849" lon="2.286734">
        <ele>273.424</ele>
        <time>2022-10-23T09:56:50Z</time>
      </trkpt>
      <trkpt lat="41.699817" lon="2.286763">
        <ele>273.409</ele>
        <time>2022-10-23T09:56:51Z</time>
      </trkpt>
      <trkpt lat="41.699794" lon="2.286792">
        <ele>273.437</ele>
        <time>2022-10-23T09:56:52Z</time>
      </trkpt>
      <trkpt lat="41.699777" lon="2.286828">
        <ele>273.477</ele>
        <time>2022-10-23T09:56:53Z</time>
      </trkpt>
      <trkpt lat="41.699771" lon="2.286872">
        <ele>273.483</ele>
        <time>2022-10-23T09:56:54Z</time>
      </trkpt>
      <trkpt lat="41.699768" lon="2.286917">
        <ele>273.286</ele>
        <time>2022-10-23T09:56:55Z</time>
      </trkpt>
      <trkpt lat="41.699773" lon="2.286961">
        <ele>273.022</ele>
        <time>2022-10-23T09:56:56Z</time>
      </trkpt>
      <trkpt lat="41.699779" lon="2.287000">
        <ele>272.840</ele>
        <time>2022-10-23T09:56:57Z</time>
      </trkpt>
      <trkpt lat="41.699794" lon="2.287056">
        <ele>272.476</ele>
        <time>2022-10-23T09:56:58Z</time>
      </trkpt>
      <trkpt lat="41.699808" lon="2.287097">
        <ele>272.276</ele>
        <time>2022-10-23T09:56:59Z</time>
      </trkpt>
      <trkpt lat="41.699822" lon="2.287140">
        <ele>272.039</ele>
        <time>2022-10-23T09:57:00Z</time>
      </trkpt>
      <trkpt lat="41.699849" lon="2.287186">
        <ele>272.038</ele>
        <time>2022-10-23T09:57:01Z</time>
      </trkpt>
      <trkpt lat="41.699877" lon="2.287225">
        <ele>272.070</ele>
        <time>2022-10-23T09:57:02Z</time>
      </trkpt>
      <trkpt lat="41.699908" lon="2.287261">
        <ele>272.017</ele>
        <time>2022-10-23T09:57:03Z</time>
      </trkpt>
      <trkpt lat="41.699933" lon="2.287297">
        <ele>271.809</ele>
        <time>2022-10-23T09:57:04Z</time>
      </trkpt>
      <trkpt lat="41.699961" lon="2.287336">
        <ele>271.894</ele>
        <time>2022-10-23T09:57:05Z</time>
      </trkpt>
      <trkpt lat="41.699989" lon="2.287373">
        <ele>271.874</ele>
        <time>2022-10-23T09:57:06Z</time>
      </trkpt>
      <trkpt lat="41.700015" lon="2.287404">
        <ele>271.840</ele>
        <time>2022-10-23T09:57:07Z</time>
      </trkpt>
      <trkpt lat="41.700046" lon="2.287438">
        <ele>271.873</ele>
        <time>2022-10-23T09:57:08Z</time>
      </trkpt>
      <trkpt lat="41.700073" lon="2.287469">
        <ele>272.079</ele>
        <time>2022-10-23T09:57:09Z</time>
      </trkpt>
      <trkpt lat="41.700100" lon="2.287496">
        <ele>272.267</ele>
        <time>2022-10-23T09:57:10Z</time>
      </trkpt>
      <trkpt lat="41.700126" lon="2.287526">
        <ele>272.413</ele>
        <time>2022-10-23T09:57:11Z</time>
      </trkpt>
      <trkpt lat="41.700152" lon="2.287550">
        <ele>272.643</ele>
        <time>2022-10-23T09:57:12Z</time>
      </trkpt>
      <trkpt lat="41.700175" lon="2.287576">
        <ele>273.036</ele>
        <time>2022-10-23T09:57:13Z</time>
      </trkpt>
      <trkpt lat="41.700201" lon="2.287599">
        <ele>273.485</ele>
        <time>2022-10-23T09:57:14Z</time>
      </trkpt>
      <trkpt lat="41.700231" lon="2.287622">
        <ele>273.689</ele>
        <time>2022-10-23T09:57:15Z</time>
      </trkpt>
      <trkpt lat="41.700254" lon="2.287645">
        <ele>274.017</ele>
        <time>2022-10-23T09:57:16Z</time>
      </trkpt>
      <trkpt lat="41.700283" lon="2.287666">
        <ele>274.209</ele>
        <time>2022-10-23T09:57:17Z</time>
      </trkpt>
      <trkpt lat="41.700317" lon="2.287690">
        <ele>274.639</ele>
        <time>2022-10-23T09:57:18Z</time>
      </trkpt>
      <trkpt lat="41.700347" lon="2.287713">
        <ele>275.059</ele>
        <time>2022-10-23T09:57:19Z</time>
      </trkpt>
      <trkpt lat="41.700375" lon="2.287738">
        <ele>275.425</ele>
        <time>2022-10-23T09:57:20Z</time>
      </trkpt>
      <trkpt lat="41.700404" lon="2.287763">
        <ele>276.058</ele>
        <time>2022-10-23T09:57:21Z</time>
      </trkpt>
      <trkpt lat="41.700433" lon="2.287784">
        <ele>276.844</ele>
        <time>2022-10-23T09:57:22Z</time>
      </trkpt>
      <trkpt lat="41.700460" lon="2.287803">
        <ele>277.262</ele>
        <time>2022-10-23T09:57:23Z</time>
      </trkpt>
      <trkpt lat="41.700486" lon="2.287821">
        <ele>277.658</ele>
        <time>2022-10-23T09:57:24Z</time>
      </trkpt>
      <trkpt lat="41.700508" lon="2.287842">
        <ele>278.088</ele>
        <time>2022-10-23T09:57:25Z</time>
      </trkpt>
      <trkpt lat="41.700524" lon="2.287863">
        <ele>278.491</ele>
        <time>2022-10-23T09:57:26Z</time>
      </trkpt>
      <trkpt lat="41.700537" lon="2.287883">
        <ele>278.856</ele>
        <time>2022-10-23T09:57:27Z</time>
      </trkpt>
      <trkpt lat="41.700550" lon="2.287899">
        <ele>279.459</ele>
        <time>2022-10-23T09:57:28Z</time>
      </trkpt>
      <trkpt lat="41.700557" lon="2.287918">
        <ele>279.614</ele>
        <time>2022-10-23T09:57:29Z</time>
      </trkpt>
      <trkpt lat="41.700556" lon="2.287937">
        <ele>279.809</ele>
        <time>2022-10-23T09:57:30Z</time>
      </trkpt>
      <trkpt lat="41.700546" lon="2.287952">
        <ele>280.296</ele>
        <time>2022-10-23T09:57:31Z</time>
      </trkpt>
      <trkpt lat="41.700530" lon="2.287963">
        <ele>280.876</ele>
        <time>2022-10-23T09:57:32Z</time>
      </trkpt>
      <trkpt lat="41.700517" lon="2.287967">
        <ele>281.482</ele>
        <time>2022-10-23T09:57:33Z</time>
      </trkpt>
      <trkpt lat="41.700514" lon="2.287961">
        <ele>282.065</ele>
        <time>2022-10-23T09:57:34Z</time>
      </trkpt>
      <trkpt lat="41.700517" lon="2.287951">
        <ele>282.481</ele>
        <time>2022-10-23T09:57:35Z</time>
      </trkpt>
      <trkpt lat="41.700520" lon="2.287947">
        <ele>282.859</ele>
        <time>2022-10-23T09:57:36Z</time>
      </trkpt>
      <trkpt lat="41.700528" lon="2.287949">
        <ele>282.835</ele>
        <time>2022-10-23T09:57:37Z</time>
      </trkpt>
      <trkpt lat="41.700533" lon="2.287944">
        <ele>283.095</ele>
        <time>2022-10-23T09:57:38Z</time>
      </trkpt>
      <trkpt lat="41.700541" lon="2.287939">
        <ele>283.288</ele>
        <time>2022-10-23T09:57:39Z</time>
      </trkpt>
      <trkpt lat="41.700549" lon="2.287938">
        <ele>283.284</ele>
        <time>2022-10-23T09:57:40Z</time>
      </trkpt>
      <trkpt lat="41.700560" lon="2.287936">
        <ele>283.207</ele>
        <time>2022-10-23T09:57:41Z</time>
      </trkpt>
      <trkpt lat="41.700568" lon="2.287938">
        <ele>283.217</ele>
        <time>2022-10-23T09:57:42Z</time>
      </trkpt>
      <trkpt lat="41.700574" lon="2.287944">
        <ele>283.209</ele>
        <time>2022-10-23T09:57:43Z</time>
      </trkpt>
      <trkpt lat="41.700577" lon="2.287959">
        <ele>283.259</ele>
        <time>2022-10-23T09:57:44Z</time>
      </trkpt>
      <trkpt lat="41.700586" lon="2.287978">
        <ele>283.639</ele>
        <time>2022-10-23T09:57:45Z</time>
      </trkpt>
      <trkpt lat="41.700594" lon="2.287998">
        <ele>283.665</ele>
        <time>2022-10-23T09:57:46Z</time>
      </trkpt>
      <trkpt lat="41.700604" lon="2.288023">
        <ele>283.688</ele>
        <time>2022-10-23T09:57:47Z</time>
      </trkpt>
      <trkpt lat="41.700611" lon="2.288049">
        <ele>283.694</ele>
        <time>2022-10-23T09:57:48Z</time>
      </trkpt>
      <trkpt lat="41.700614" lon="2.288078">
        <ele>283.632</ele>
        <time>2022-10-23T09:57:49Z</time>
      </trkpt>
      <trkpt lat="41.700614" lon="2.288110">
        <ele>283.618</ele>
        <time>2022-10-23T09:57:50Z</time>
      </trkpt>
      <trkpt lat="41.700610" lon="2.288143">
        <ele>283.618</ele>
        <time>2022-10-23T09:57:51Z</time>
      </trkpt>
      <trkpt lat="41.700608" lon="2.288178">
        <ele>283.681</ele>
        <time>2022-10-23T09:57:52Z</time>
      </trkpt>
      <trkpt lat="41.700611" lon="2.288217">
        <ele>283.617</ele>
        <time>2022-10-23T09:57:53Z</time>
      </trkpt>
      <trkpt lat="41.700612" lon="2.288254">
        <ele>283.887</ele>
        <time>2022-10-23T09:57:54Z</time>
      </trkpt>
      <trkpt lat="41.700611" lon="2.288293">
        <ele>284.215</ele>
        <time>2022-10-23T09:57:55Z</time>
      </trkpt>
      <trkpt lat="41.700614" lon="2.288335">
        <ele>284.209</ele>
        <time>2022-10-23T09:57:56Z</time>
      </trkpt>
      <trkpt lat="41.700618" lon="2.288377">
        <ele>284.282</ele>
        <time>2022-10-23T09:57:57Z</time>
      </trkpt>
      <trkpt lat="41.700620" lon="2.288419">
        <ele>284.432</ele>
        <time>2022-10-23T09:57:58Z</time>
      </trkpt>
      <trkpt lat="41.700628" lon="2.288461">
        <ele>284.678</ele>
        <time>2022-10-23T09:57:59Z</time>
      </trkpt>
      <trkpt lat="41.700634" lon="2.288505">
        <ele>284.621</ele>
        <time>2022-10-23T09:58:00Z</time>
      </trkpt>
      <trkpt lat="41.700643" lon="2.288547">
        <ele>284.687</ele>
        <time>2022-10-23T09:58:01Z</time>
      </trkpt>
      <trkpt lat="41.700649" lon="2.288588">
        <ele>284.685</ele>
        <time>2022-10-23T09:58:02Z</time>
      </trkpt>
      <trkpt lat="41.700650" lon="2.288623">
        <ele>284.851</ele>
        <time>2022-10-23T09:58:03Z</time>
      </trkpt>
      <trkpt lat="41.700650" lon="2.288661">
        <ele>284.841</ele>
        <time>2022-10-23T09:58:04Z</time>
      </trkpt>
      <trkpt lat="41.700650" lon="2.288703">
        <ele>285.034</ele>
        <time>2022-10-23T09:58:05Z</time>
      </trkpt>
      <trkpt lat="41.700650" lon="2.288749">
        <ele>285.244</ele>
        <time>2022-10-23T09:58:06Z</time>
      </trkpt>
      <trkpt lat="41.700649" lon="2.288791">
        <ele>285.605</ele>
        <time>2022-10-23T09:58:07Z</time>
      </trkpt>
      <trkpt lat="41.700645" lon="2.288832">
        <ele>285.815</ele>
        <time>2022-10-23T09:58:08Z</time>
      </trkpt>
      <trkpt lat="41.700640" lon="2.288871">
        <ele>285.809</ele>
        <time>2022-10-23T09:58:09Z</time>
      </trkpt>
      <trkpt lat="41.700635" lon="2.288912">
        <ele>286.065</ele>
        <time>2022-10-23T09:58:10Z</time>
      </trkpt>
      <trkpt lat="41.700628" lon="2.288953">
        <ele>286.085</ele>
        <time>2022-10-23T09:58:11Z</time>
      </trkpt>
      <trkpt lat="41.700622" lon="2.288996">
        <ele>286.241</ele>
        <time>2022-10-23T09:58:12Z</time>
      </trkpt>
      <trkpt lat="41.700612" lon="2.289038">
        <ele>286.664</ele>
        <time>2022-10-23T09:58:13Z</time>
      </trkpt>
      <trkpt lat="41.700601" lon="2.289079">
        <ele>287.090</ele>
        <time>2022-10-23T09:58:14Z</time>
      </trkpt>
      <trkpt lat="41.700591" lon="2.289119">
        <ele>287.238</ele>
        <time>2022-10-23T09:58:15Z</time>
      </trkpt>
      <trkpt lat="41.700582" lon="2.289158">
        <ele>287.654</ele>
        <time>2022-10-23T09:58:16Z</time>
      </trkpt>
      <trkpt lat="41.700571" lon="2.289194">
        <ele>288.094</ele>
        <time>2022-10-23T09:58:17Z</time>
      </trkpt>
      <trkpt lat="41.700563" lon="2.289232">
        <ele>288.887</ele>
        <time>2022-10-23T09:58:18Z</time>
      </trkpt>
      <trkpt lat="41.700560" lon="2.289270">
        <ele>289.047</ele>
        <time>2022-10-23T09:58:19Z</time>
      </trkpt>
      <trkpt lat="41.700555" lon="2.289305">
        <ele>289.229</ele>
        <time>2022-10-23T09:58:20Z</time>
      </trkpt>
      <trkpt lat="41.700552" lon="2.289340">
        <ele>289.221</ele>
        <time>2022-10-23T09:58:21Z</time>
      </trkpt>
      <trkpt lat="41.700552" lon="2.289372">
        <ele>289.409</ele>
        <time>2022-10-23T09:58:22Z</time>
      </trkpt>
      <trkpt lat="41.700552" lon="2.289401">
        <ele>289.665</ele>
        <time>2022-10-23T09:58:23Z</time>
      </trkpt>
      <trkpt lat="41.700550" lon="2.289426">
        <ele>289.815</ele>
        <time>2022-10-23T09:58:24Z</time>
      </trkpt>
      <trkpt lat="41.700547" lon="2.289448">
        <ele>290.041</ele>
        <time>2022-10-23T09:58:25Z</time>
      </trkpt>
      <trkpt lat="41.700552" lon="2.289475">
        <ele>290.234</ele>
        <time>2022-10-23T09:58:26Z</time>
      </trkpt>
      <trkpt lat="41.700557" lon="2.289502">
        <ele>290.490</ele>
        <time>2022-10-23T09:58:27Z</time>
      </trkpt>
      <trkpt lat="41.700564" lon="2.289534">
        <ele>290.428</ele>
        <time>2022-10-23T09:58:28Z</time>
      </trkpt>
      <trkpt lat="41.700568" lon="2.289562">
        <ele>290.474</ele>
        <time>2022-10-23T09:58:29Z</time>
      </trkpt>
      <trkpt lat="41.700575" lon="2.289593">
        <ele>290.624</ele>
        <time>2022-10-23T09:58:30Z</time>
      </trkpt>
      <trkpt lat="41.700582" lon="2.289624">
        <ele>291.057</ele>
        <time>2022-10-23T09:58:31Z</time>
      </trkpt>
      <trkpt lat="41.700595" lon="2.289662">
        <ele>291.298</ele>
        <time>2022-10-23T09:58:32Z</time>
      </trkpt>
      <trkpt lat="41.700602" lon="2.289698">
        <ele>291.415</ele>
        <time>2022-10-23T09:58:33Z</time>
      </trkpt>
      <trkpt lat="41.700608" lon="2.289736">
        <ele>291.626</ele>
        <time>2022-10-23T09:58:34Z</time>
      </trkpt>
      <trkpt lat="41.700617" lon="2.289771">
        <ele>291.809</ele>
        <time>2022-10-23T09:58:35Z</time>
      </trkpt>
      <trkpt lat="41.700631" lon="2.289804">
        <ele>292.060</ele>
        <time>2022-10-23T09:58:36Z</time>
      </trkpt>
      <trkpt lat="41.700644" lon="2.289839">
        <ele>292.210</ele>
        <time>2022-10-23T09:58:37Z</time>
      </trkpt>
      <trkpt lat="41.700662" lon="2.289878">
        <ele>292.266</ele>
        <time>2022-10-23T09:58:38Z</time>
      </trkpt>
      <trkpt lat="41.700678" lon="2.289915">
        <ele>292.639</ele>
        <time>2022-10-23T09:58:39Z</time>
      </trkpt>
      <trkpt lat="41.700692" lon="2.289948">
        <ele>292.865</ele>
        <time>2022-10-23T09:58:40Z</time>
      </trkpt>
      <trkpt lat="41.700706" lon="2.289979">
        <ele>293.053</ele>
        <time>2022-10-23T09:58:41Z</time>
      </trkpt>
      <trkpt lat="41.700721" lon="2.290018">
        <ele>293.429</ele>
        <time>2022-10-23T09:58:42Z</time>
      </trkpt>
      <trkpt lat="41.700735" lon="2.290055">
        <ele>293.679</ele>
        <time>2022-10-23T09:58:43Z</time>
      </trkpt>
      <trkpt lat="41.700745" lon="2.290093">
        <ele>293.812</ele>
        <time>2022-10-23T09:58:44Z</time>
      </trkpt>
      <trkpt lat="41.700756" lon="2.290131">
        <ele>294.065</ele>
        <time>2022-10-23T09:58:45Z</time>
      </trkpt>
      <trkpt lat="41.700771" lon="2.290166">
        <ele>294.468</ele>
        <time>2022-10-23T09:58:46Z</time>
      </trkpt>
      <trkpt lat="41.700786" lon="2.290200">
        <ele>294.814</ele>
        <time>2022-10-23T09:58:47Z</time>
      </trkpt>
      <trkpt lat="41.700806" lon="2.290239">
        <ele>294.809</ele>
        <time>2022-10-23T09:58:48Z</time>
      </trkpt>
      <trkpt lat="41.700827" lon="2.290282">
        <ele>295.087</ele>
        <time>2022-10-23T09:58:49Z</time>
      </trkpt>
      <trkpt lat="41.700849" lon="2.290320">
        <ele>295.217</ele>
        <time>2022-10-23T09:58:50Z</time>
      </trkpt>
      <trkpt lat="41.700871" lon="2.290358">
        <ele>295.423</ele>
        <time>2022-10-23T09:58:51Z</time>
      </trkpt>
      <trkpt lat="41.700896" lon="2.290399">
        <ele>295.656</ele>
        <time>2022-10-23T09:58:52Z</time>
      </trkpt>
      <trkpt lat="41.700917" lon="2.290437">
        <ele>295.872</ele>
        <time>2022-10-23T09:58:53Z</time>
      </trkpt>
      <trkpt lat="41.700933" lon="2.290472">
        <ele>296.210</ele>
        <time>2022-10-23T09:58:54Z</time>
      </trkpt>
      <trkpt lat="41.700945" lon="2.290506">
        <ele>296.466</ele>
        <time>2022-10-23T09:58:55Z</time>
      </trkpt>
      <trkpt lat="41.700959" lon="2.290540">
        <ele>296.656</ele>
        <time>2022-10-23T09:58:56Z</time>
      </trkpt>
      <trkpt lat="41.700975" lon="2.290574">
        <ele>296.859</ele>
        <time>2022-10-23T09:58:57Z</time>
      </trkpt>
      <trkpt lat="41.700987" lon="2.290607">
        <ele>297.274</ele>
        <time>2022-10-23T09:58:58Z</time>
      </trkpt>
      <trkpt lat="41.701008" lon="2.290646">
        <ele>297.456</ele>
        <time>2022-10-23T09:58:59Z</time>
      </trkpt>
      <trkpt lat="41.701024" lon="2.290682">
        <ele>297.821</ele>
        <time>2022-10-23T09:59:00Z</time>
      </trkpt>
      <trkpt lat="41.701038" lon="2.290714">
        <ele>298.009</ele>
        <time>2022-10-23T09:59:01Z</time>
      </trkpt>
      <trkpt lat="41.701049" lon="2.290748">
        <ele>298.448</ele>
        <time>2022-10-23T09:59:02Z</time>
      </trkpt>
      <trkpt lat="41.701062" lon="2.290786">
        <ele>298.838</ele>
        <time>2022-10-23T09:59:03Z</time>
      </trkpt>
      <trkpt lat="41.701076" lon="2.290827">
        <ele>299.454</ele>
        <time>2022-10-23T09:59:04Z</time>
      </trkpt>
      <trkpt lat="41.701090" lon="2.290865">
        <ele>299.657</ele>
        <time>2022-10-23T09:59:05Z</time>
      </trkpt>
      <trkpt lat="41.701099" lon="2.290898">
        <ele>300.083</ele>
        <time>2022-10-23T09:59:06Z</time>
      </trkpt>
      <trkpt lat="41.701112" lon="2.290930">
        <ele>300.251</ele>
        <time>2022-10-23T09:59:07Z</time>
      </trkpt>
      <trkpt lat="41.701122" lon="2.290964">
        <ele>300.657</ele>
        <time>2022-10-23T09:59:08Z</time>
      </trkpt>
      <trkpt lat="41.701130" lon="2.290993">
        <ele>301.047</ele>
        <time>2022-10-23T09:59:09Z</time>
      </trkpt>
      <trkpt lat="41.701142" lon="2.291021">
        <ele>301.610</ele>
        <time>2022-10-23T09:59:10Z</time>
      </trkpt>
      <trkpt lat="41.701159" lon="2.291055">
        <ele>302.058</ele>
        <time>2022-10-23T09:59:11Z</time>
      </trkpt>
      <trkpt lat="41.701174" lon="2.291085">
        <ele>302.652</ele>
        <time>2022-10-23T09:59:12Z</time>
      </trkpt>
      <trkpt lat="41.701191" lon="2.291112">
        <ele>303.417</ele>
        <time>2022-10-23T09:59:13Z</time>
      </trkpt>
      <trkpt lat="41.701198" lon="2.291143">
        <ele>304.009</ele>
        <time>2022-10-23T09:59:14Z</time>
      </trkpt>
      <trkpt lat="41.701204" lon="2.291179">
        <ele>304.636</ele>
        <time>2022-10-23T09:59:15Z</time>
      </trkpt>
      <trkpt lat="41.701214" lon="2.291207">
        <ele>305.086</ele>
        <time>2022-10-23T09:59:16Z</time>
      </trkpt>
      <trkpt lat="41.701227" lon="2.291237">
        <ele>305.632</ele>
        <time>2022-10-23T09:59:17Z</time>
      </trkpt>
      <trkpt lat="41.701241" lon="2.291272">
        <ele>306.085</ele>
        <time>2022-10-23T09:59:18Z</time>
      </trkpt>
      <trkpt lat="41.701259" lon="2.291307">
        <ele>306.491</ele>
        <time>2022-10-23T09:59:19Z</time>
      </trkpt>
      <trkpt lat="41.701278" lon="2.291338">
        <ele>307.039</ele>
        <time>2022-10-23T09:59:20Z</time>
      </trkpt>
      <trkpt lat="41.701289" lon="2.291362">
        <ele>307.225</ele>
        <time>2022-10-23T09:59:21Z</time>
      </trkpt>
      <trkpt lat="41.701302" lon="2.291390">
        <ele>307.675</ele>
        <time>2022-10-23T09:59:22Z</time>
      </trkpt>
      <trkpt lat="41.701314" lon="2.291416">
        <ele>308.048</ele>
        <time>2022-10-23T09:59:23Z</time>
      </trkpt>
      <trkpt lat="41.701331" lon="2.291448">
        <ele>308.453</ele>
        <time>2022-10-23T09:59:24Z</time>
      </trkpt>
      <trkpt lat="41.701346" lon="2.291482">
        <ele>309.004</ele>
        <time>2022-10-23T09:59:25Z</time>
      </trkpt>
      <trkpt lat="41.701356" lon="2.291518">
        <ele>309.414</ele>
        <time>2022-10-23T09:59:26Z</time>
      </trkpt>
      <trkpt lat="41.701365" lon="2.291550">
        <ele>309.809</ele>
        <time>2022-10-23T09:59:27Z</time>
      </trkpt>
      <trkpt lat="41.701375" lon="2.291595">
        <ele>310.496</ele>
        <time>2022-10-23T09:59:28Z</time>
      </trkpt>
      <trkpt lat="41.701380" lon="2.291636">
        <ele>310.836</ele>
        <time>2022-10-23T09:59:29Z</time>
      </trkpt>
      <trkpt lat="41.701380" lon="2.291676">
        <ele>311.262</ele>
        <time>2022-10-23T09:59:30Z</time>
      </trkpt>
      <trkpt lat="41.701376" lon="2.291712">
        <ele>311.435</ele>
        <time>2022-10-23T09:59:31Z</time>
      </trkpt>
      <trkpt lat="41.701364" lon="2.291731">
        <ele>311.871</ele>
        <time>2022-10-23T09:59:32Z</time>
      </trkpt>
      <trkpt lat="41.701345" lon="2.291733">
        <ele>312.249</ele>
        <time>2022-10-23T09:59:33Z</time>
      </trkpt>
      <trkpt lat="41.701327" lon="2.291720">
        <ele>312.665</ele>
        <time>2022-10-23T09:59:34Z</time>
      </trkpt>
      <trkpt lat="41.701311" lon="2.291695">
        <ele>312.835</ele>
        <time>2022-10-23T09:59:35Z</time>
      </trkpt>
      <trkpt lat="41.701294" lon="2.291671">
        <ele>313.018</ele>
        <time>2022-10-23T09:59:36Z</time>
      </trkpt>
      <trkpt lat="41.701269" lon="2.291655">
        <ele>313.246</ele>
        <time>2022-10-23T09:59:37Z</time>
      </trkpt>
      <trkpt lat="41.701242" lon="2.291638">
        <ele>313.488</ele>
        <time>2022-10-23T09:59:38Z</time>
      </trkpt>
      <trkpt lat="41.701212" lon="2.291622">
        <ele>313.616</ele>
        <time>2022-10-23T09:59:39Z</time>
      </trkpt>
      <trkpt lat="41.701182" lon="2.291604">
        <ele>313.609</ele>
        <time>2022-10-23T09:59:40Z</time>
      </trkpt>
      <trkpt lat="41.701155" lon="2.291586">
        <ele>313.865</ele>
        <time>2022-10-23T09:59:41Z</time>
      </trkpt>
      <trkpt lat="41.701129" lon="2.291563">
        <ele>313.835</ele>
        <time>2022-10-23T09:59:42Z</time>
      </trkpt>
      <trkpt lat="41.701103" lon="2.291538">
        <ele>313.861</ele>
        <time>2022-10-23T09:59:43Z</time>
      </trkpt>
      <trkpt lat="41.701081" lon="2.291507">
        <ele>313.864</ele>
        <time>2022-10-23T09:59:44Z</time>
      </trkpt>
      <trkpt lat="41.701062" lon="2.291473">
        <ele>313.810</ele>
        <time>2022-10-23T09:59:45Z</time>
      </trkpt>
      <trkpt lat="41.701043" lon="2.291437">
        <ele>314.038</ele>
        <time>2022-10-23T09:59:46Z</time>
      </trkpt>
      <trkpt lat="41.701024" lon="2.291409">
        <ele>313.814</ele>
        <time>2022-10-23T09:59:47Z</time>
      </trkpt>
      <trkpt lat="41.701005" lon="2.291382">
        <ele>313.814</ele>
        <time>2022-10-23T09:59:48Z</time>
      </trkpt>
      <trkpt lat="41.700979" lon="2.291349">
        <ele>313.867</ele>
        <time>2022-10-23T09:59:49Z</time>
      </trkpt>
      <trkpt lat="41.700952" lon="2.291315">
        <ele>313.898</ele>
        <time>2022-10-23T09:59:50Z</time>
      </trkpt>
      <trkpt lat="41.700920" lon="2.291278">
        <ele>313.815</ele>
        <time>2022-10-23T09:59:51Z</time>
      </trkpt>
      <trkpt lat="41.700894" lon="2.291238">
        <ele>313.826</ele>
        <time>2022-10-23T09:59:52Z</time>
      </trkpt>
      <trkpt lat="41.700868" lon="2.291199">
        <ele>313.809</ele>
        <time>2022-10-23T09:59:53Z</time>
      </trkpt>
      <trkpt lat="41.700846" lon="2.291160">
        <ele>313.870</ele>
        <time>2022-10-23T09:59:54Z</time>
      </trkpt>
      <trkpt lat="41.700823" lon="2.291119">
        <ele>313.840</ele>
        <time>2022-10-23T09:59:55Z</time>
      </trkpt>
      <trkpt lat="41.700806" lon="2.291082">
        <ele>313.836</ele>
        <time>2022-10-23T09:59:56Z</time>
      </trkpt>
      <trkpt lat="41.700783" lon="2.291037">
        <ele>313.889</ele>
        <time>2022-10-23T09:59:57Z</time>
      </trkpt>
      <trkpt lat="41.700754" lon="2.290994">
        <ele>313.875</ele>
        <time>2022-10-23T09:59:58Z</time>
      </trkpt>
      <trkpt lat="41.700725" lon="2.290950">
        <ele>313.823</ele>
        <time>2022-10-23T09:59:59Z</time>
      </trkpt>
      <trkpt lat="41.700695" lon="2.290909">
        <ele>313.849</ele>
        <time>2022-10-23T10:00:00Z</time>
      </trkpt>
      <trkpt lat="41.700665" lon="2.290862">
        <ele>313.819</ele>
        <time>2022-10-23T10:00:01Z</time>
      </trkpt>
      <trkpt lat="41.700635" lon="2.290807">
        <ele>313.672</ele>
        <time>2022-10-23T10:00:02Z</time>
      </trkpt>
      <trkpt lat="41.700604" lon="2.290753">
        <ele>313.466</ele>
        <time>2022-10-23T10:00:03Z</time>
      </trkpt>
      <trkpt lat="41.700569" lon="2.290701">
        <ele>313.429</ele>
        <time>2022-10-23T10:00:04Z</time>
      </trkpt>
      <trkpt lat="41.700538" lon="2.290650">
        <ele>313.221</ele>
        <time>2022-10-23T10:00:05Z</time>
      </trkpt>
      <trkpt lat="41.700506" lon="2.290602">
        <ele>313.009</ele>
        <time>2022-10-23T10:00:06Z</time>
      </trkpt>
      <trkpt lat="41.700473" lon="2.290557">
        <ele>312.827</ele>
        <time>2022-10-23T10:00:07Z</time>
      </trkpt>
      <trkpt lat="41.700443" lon="2.290511">
        <ele>312.487</ele>
        <time>2022-10-23T10:00:08Z</time>
      </trkpt>
      <trkpt lat="41.700417" lon="2.290461">
        <ele>312.263</ele>
        <time>2022-10-23T10:00:09Z</time>
      </trkpt>
      <trkpt lat="41.700394" lon="2.290410">
        <ele>311.816</ele>
        <time>2022-10-23T10:00:10Z</time>
      </trkpt>
      <trkpt lat="41.700370" lon="2.290354">
        <ele>311.672</ele>
        <time>2022-10-23T10:00:11Z</time>
      </trkpt>
      <trkpt lat="41.700346" lon="2.290297">
        <ele>311.480</ele>
        <time>2022-10-23T10:00:12Z</time>
      </trkpt>
      <trkpt lat="41.700319" lon="2.290240">
        <ele>311.246</ele>
        <time>2022-10-23T10:00:13Z</time>
      </trkpt>
      <trkpt lat="41.700291" lon="2.290186">
        <ele>311.036</ele>
        <time>2022-10-23T10:00:14Z</time>
      </trkpt>
      <trkpt lat="41.700265" lon="2.290130">
        <ele>311.039</ele>
        <time>2022-10-23T10:00:15Z</time>
      </trkpt>
      <trkpt lat="41.700237" lon="2.290078">
        <ele>310.832</ele>
        <time>2022-10-23T10:00:16Z</time>
      </trkpt>
      <trkpt lat="41.700212" lon="2.290028">
        <ele>310.892</ele>
        <time>2022-10-23T10:00:17Z</time>
      </trkpt>
      <trkpt lat="41.700191" lon="2.289981">
        <ele>310.611</ele>
        <time>2022-10-23T10:00:18Z</time>
      </trkpt>
      <trkpt lat="41.700171" lon="2.289937">
        <ele>310.409</ele>
        <time>2022-10-23T10:00:19Z</time>
      </trkpt>
      <trkpt lat="41.700149" lon="2.289889">
        <ele>310.414</ele>
        <time>2022-10-23T10:00:20Z</time>
      </trkpt>
      <trkpt lat="41.700129" lon="2.289840">
        <ele>310.224</ele>
        <time>2022-10-23T10:00:21Z</time>
      </trkpt>
      <trkpt lat="41.700112" lon="2.289795">
        <ele>310.040</ele>
        <time>2022-10-23T10:00:22Z</time>
      </trkpt>
      <trkpt lat="41.700096" lon="2.289753">
        <ele>310.023</ele>
        <time>2022-10-23T10:00:23Z</time>
      </trkpt>
      <trkpt lat="41.700079" lon="2.289718">
        <ele>310.019</ele>
        <time>2022-10-23T10:00:24Z</time>
      </trkpt>
      <trkpt lat="41.700062" lon="2.289682">
        <ele>310.077</ele>
        <time>2022-10-23T10:00:25Z</time>
      </trkpt>
      <trkpt lat="41.700045" lon="2.289641">
        <ele>310.023</ele>
        <time>2022-10-23T10:00:26Z</time>
      </trkpt>
      <trkpt lat="41.700026" lon="2.289602">
        <ele>310.043</ele>
        <time>2022-10-23T10:00:27Z</time>
      </trkpt>
      <trkpt lat="41.700011" lon="2.289561">
        <ele>310.086</ele>
        <time>2022-10-23T10:00:28Z</time>
      </trkpt>
      <trkpt lat="41.699995" lon="2.289525">
        <ele>310.069</ele>
        <time>2022-10-23T10:00:29Z</time>
      </trkpt>
      <trkpt lat="41.699981" lon="2.289492">
        <ele>310.004</ele>
        <time>2022-10-23T10:00:30Z</time>
      </trkpt>
      <trkpt lat="41.699967" lon="2.289458">
        <ele>310.024</ele>
        <time>2022-10-23T10:00:31Z</time>
      </trkpt>
      <trkpt lat="41.699951" lon="2.289426">
        <ele>310.009</ele>
        <time>2022-10-23T10:00:32Z</time>
      </trkpt>
      <trkpt lat="41.699931" lon="2.289397">
        <ele>310.067</ele>
        <time>2022-10-23T10:00:33Z</time>
      </trkpt>
      <trkpt lat="41.699910" lon="2.289367">
        <ele>310.027</ele>
        <time>2022-10-23T10:00:34Z</time>
      </trkpt>
      <trkpt lat="41.699888" lon="2.289339">
        <ele>310.033</ele>
        <time>2022-10-23T10:00:35Z</time>
      </trkpt>
      <trkpt lat="41.699867" lon="2.289313">
        <ele>309.836</ele>
        <time>2022-10-23T10:00:36Z</time>
      </trkpt>
      <trkpt lat="41.699837" lon="2.289294">
        <ele>309.812</ele>
        <time>2022-10-23T10:00:37Z</time>
      </trkpt>
      <trkpt lat="41.699804" lon="2.289273">
        <ele>309.860</ele>
        <time>2022-10-23T10:00:38Z</time>
      </trkpt>
      <trkpt lat="41.699766" lon="2.289248">
        <ele>309.816</ele>
        <time>2022-10-23T10:00:39Z</time>
      </trkpt>
      <trkpt lat="41.699725" lon="2.289223">
        <ele>309.866</ele>
        <time>2022-10-23T10:00:40Z</time>
      </trkpt>
      <trkpt lat="41.699685" lon="2.289202">
        <ele>309.849</ele>
        <time>2022-10-23T10:00:41Z</time>
      </trkpt>
      <trkpt lat="41.699646" lon="2.289182">
        <ele>309.828</ele>
        <time>2022-10-23T10:00:42Z</time>
      </trkpt>
      <trkpt lat="41.699604" lon="2.289163">
        <ele>309.689</ele>
        <time>2022-10-23T10:00:43Z</time>
      </trkpt>
      <trkpt lat="41.699561" lon="2.289142">
        <ele>309.217</ele>
        <time>2022-10-23T10:00:44Z</time>
      </trkpt>
      <trkpt lat="41.699516" lon="2.289126">
        <ele>308.809</ele>
        <time>2022-10-23T10:00:45Z</time>
      </trkpt>
      <trkpt lat="41.699467" lon="2.289114">
        <ele>308.613</ele>
        <time>2022-10-23T10:00:46Z</time>
      </trkpt>
      <trkpt lat="41.699420" lon="2.289113">
        <ele>308.093</ele>
        <time>2022-10-23T10:00:47Z</time>
      </trkpt>
      <trkpt lat="41.699385" lon="2.289125">
        <ele>307.699</ele>
        <time>2022-10-23T10:00:48Z</time>
      </trkpt>
      <trkpt lat="41.699345" lon="2.289146">
        <ele>307.052</ele>
        <time>2022-10-23T10:00:49Z</time>
      </trkpt>
      <trkpt lat="41.699304" lon="2.289169">
        <ele>306.418</ele>
        <time>2022-10-23T10:00:50Z</time>
      </trkpt>
      <trkpt lat="41.699264" lon="2.289197">
        <ele>306.076</ele>
        <time>2022-10-23T10:00:51Z</time>
      </trkpt>
      <trkpt lat="41.699232" lon="2.289229">
        <ele>305.422</ele>
        <time>2022-10-23T10:00:52Z</time>
      </trkpt>
      <trkpt lat="41.699203" lon="2.289267">
        <ele>304.812</ele>
        <time>2022-10-23T10:00:53Z</time>
      </trkpt>
      <trkpt lat="41.699174" lon="2.289302">
        <ele>304.425</ele>
        <time>2022-10-23T10:00:54Z</time>
      </trkpt>
      <trkpt lat="41.699148" lon="2.289338">
        <ele>303.854</ele>
        <time>2022-10-23T10:00:55Z</time>
      </trkpt>
      <trkpt lat="41.699118" lon="2.289371">
        <ele>303.256</ele>
        <time>2022-10-23T10:00:56Z</time>
      </trkpt>
      <trkpt lat="41.699093" lon="2.289403">
        <ele>303.011</ele>
        <time>2022-10-23T10:00:57Z</time>
      </trkpt>
      <trkpt lat="41.699072" lon="2.289431">
        <ele>302.809</ele>
        <time>2022-10-23T10:00:58Z</time>
      </trkpt>
      <trkpt lat="41.699057" lon="2.289463">
        <ele>302.846</ele>
        <time>2022-10-23T10:00:59Z</time>
      </trkpt>
      <trkpt lat="41.699044" lon="2.289497">
        <ele>302.636</ele>
        <time>2022-10-23T10:01:00Z</time>
      </trkpt>
      <trkpt lat="41.699034" lon="2.289532">
        <ele>302.622</ele>
        <time>2022-10-23T10:01:01Z</time>
      </trkpt>
      <trkpt lat="41.699021" lon="2.289570">
        <ele>302.625</ele>
        <time>2022-10-23T10:01:02Z</time>
      </trkpt>
      <trkpt lat="41.699008" lon="2.289613">
        <ele>302.691</ele>
        <time>2022-10-23T10:01:03Z</time>
      </trkpt>
      <trkpt lat="41.698996" lon="2.289655">
        <ele>302.629</ele>
        <time>2022-10-23T10:01:04Z</time>
      </trkpt>
      <trkpt lat="41.698986" lon="2.289702">
        <ele>302.865</ele>
        <time>2022-10-23T10:01:05Z</time>
      </trkpt>
      <trkpt lat="41.698976" lon="2.289745">
        <ele>303.035</ele>
        <time>2022-10-23T10:01:06Z</time>
      </trkpt>
      <trkpt lat="41.698963" lon="2.289773">
        <ele>303.458</ele>
        <time>2022-10-23T10:01:07Z</time>
      </trkpt>
      <trkpt lat="41.698944" lon="2.289791">
        <ele>303.475</ele>
        <time>2022-10-23T10:01:08Z</time>
      </trkpt>
      <trkpt lat="41.698925" lon="2.289805">
        <ele>303.828</ele>
        <time>2022-10-23T10:01:09Z</time>
      </trkpt>
      <trkpt lat="41.698907" lon="2.289819">
        <ele>304.220</ele>
        <time>2022-10-23T10:01:10Z</time>
      </trkpt>
      <trkpt lat="41.698889" lon="2.289829">
        <ele>304.409</ele>
        <time>2022-10-23T10:01:11Z</time>
      </trkpt>
      <trkpt lat="41.698868" lon="2.289836">
        <ele>304.878</ele>
        <time>2022-10-23T10:01:12Z</time>
      </trkpt>
      <trkpt lat="41.698849" lon="2.289850">
        <ele>305.278</ele>
        <time>2022-10-23T10:01:13Z</time>
      </trkpt>
      <trkpt lat="41.698830" lon="2.289866">
        <ele>305.894</ele>
        <time>2022-10-23T10:01:14Z</time>
      </trkpt>
      <trkpt lat="41.698811" lon="2.289884">
        <ele>306.227</ele>
        <time>2022-10-23T10:01:15Z</time>
      </trkpt>
      <trkpt lat="41.698793" lon="2.289910">
        <ele>306.653</ele>
        <time>2022-10-23T10:01:16Z</time>
      </trkpt>
      <trkpt lat="41.698778" lon="2.289938">
        <ele>307.061</ele>
        <time>2022-10-23T10:01:17Z</time>
      </trkpt>
      <trkpt lat="41.698767" lon="2.289967">
        <ele>307.417</ele>
        <time>2022-10-23T10:01:18Z</time>
      </trkpt>
      <trkpt lat="41.698761" lon="2.290002">
        <ele>307.627</ele>
        <time>2022-10-23T10:01:19Z</time>
      </trkpt>
      <trkpt lat="41.698758" lon="2.290037">
        <ele>307.620</ele>
        <time>2022-10-23T10:01:20Z</time>
      </trkpt>
      <trkpt lat="41.698758" lon="2.290073">
        <ele>307.891</ele>
        <time>2022-10-23T10:01:21Z</time>
      </trkpt>
      <trkpt lat="41.698755" lon="2.290111">
        <ele>307.881</ele>
        <time>2022-10-23T10:01:22Z</time>
      </trkpt>
      <trkpt lat="41.698753" lon="2.290149">
        <ele>307.819</ele>
        <time>2022-10-23T10:01:23Z</time>
      </trkpt>
      <trkpt lat="41.698749" lon="2.290179">
        <ele>307.809</ele>
        <time>2022-10-23T10:01:24Z</time>
      </trkpt>
      <trkpt lat="41.698751" lon="2.290211">
        <ele>308.060</ele>
        <time>2022-10-23T10:01:25Z</time>
      </trkpt>
      <trkpt lat="41.698756" lon="2.290240">
        <ele>308.060</ele>
        <time>2022-10-23T10:01:26Z</time>
      </trkpt>
      <trkpt lat="41.698762" lon="2.290269">
        <ele>308.266</ele>
        <time>2022-10-23T10:01:27Z</time>
      </trkpt>
      <trkpt lat="41.698766" lon="2.290302">
        <ele>308.459</ele>
        <time>2022-10-23T10:01:28Z</time>
      </trkpt>
      <trkpt lat="41.698768" lon="2.290332">
        <ele>308.695</ele>
        <time>2022-10-23T10:01:29Z</time>
      </trkpt>
      <trkpt lat="41.698769" lon="2.290360">
        <ele>309.083</ele>
        <time>2022-10-23T10:01:30Z</time>
      </trkpt>
      <trkpt lat="41.698772" lon="2.290390">
        <ele>310.029</ele>
        <time>2022-10-23T10:01:31Z</time>
      </trkpt>
      <trkpt lat="41.698773" lon="2.290413">
        <ele>310.489</ele>
        <time>2022-10-23T10:01:32Z</time>
      </trkpt>
      <trkpt lat="41.698777" lon="2.290438">
        <ele>310.862</ele>
        <time>2022-10-23T10:01:33Z</time>
      </trkpt>
      <trkpt lat="41.698779" lon="2.290459">
        <ele>311.286</ele>
        <time>2022-10-23T10:01:34Z</time>
      </trkpt>
      <trkpt lat="41.698787" lon="2.290480">
        <ele>311.460</ele>
        <time>2022-10-23T10:01:35Z</time>
      </trkpt>
      <trkpt lat="41.698799" lon="2.290511">
        <ele>312.026</ele>
        <time>2022-10-23T10:01:36Z</time>
      </trkpt>
      <trkpt lat="41.698815" lon="2.290538">
        <ele>312.609</ele>
        <time>2022-10-23T10:01:37Z</time>
      </trkpt>
      <trkpt lat="41.698832" lon="2.290566">
        <ele>313.079</ele>
        <time>2022-10-23T10:01:38Z</time>
      </trkpt>
      <trkpt lat="41.698847" lon="2.290584">
        <ele>313.699</ele>
        <time>2022-10-23T10:01:39Z</time>
      </trkpt>
      <trkpt lat="41.698864" lon="2.290597">
        <ele>314.215</ele>
        <time>2022-10-23T10:01:40Z</time>
      </trkpt>
      <trkpt lat="41.698881" lon="2.290603">
        <ele>314.278</ele>
        <time>2022-10-23T10:01:41Z</time>
      </trkpt>
      <trkpt lat="41.698897" lon="2.290607">
        <ele>314.814</ele>
        <time>2022-10-23T10:01:42Z</time>
      </trkpt>
      <trkpt lat="41.698912" lon="2.290608">
        <ele>315.012</ele>
        <time>2022-10-23T10:01:43Z</time>
      </trkpt>
      <trkpt lat="41.698924" lon="2.290608">
        <ele>315.678</ele>
        <time>2022-10-23T10:01:44Z</time>
      </trkpt>
      <trkpt lat="41.698936" lon="2.290609">
        <ele>315.818</ele>
        <time>2022-10-23T10:01:45Z</time>
      </trkpt>
      <trkpt lat="41.698951" lon="2.290613">
        <ele>316.471</ele>
        <time>2022-10-23T10:01:46Z</time>
      </trkpt>
      <trkpt lat="41.698970" lon="2.290616">
        <ele>316.843</ele>
        <time>2022-10-23T10:01:47Z</time>
      </trkpt>
      <trkpt lat="41.698990" lon="2.290620">
        <ele>317.264</ele>
        <time>2022-10-23T10:01:48Z</time>
      </trkpt>
      <trkpt lat="41.699008" lon="2.290624">
        <ele>317.810</ele>
        <time>2022-10-23T10:01:49Z</time>
      </trkpt>
      <trkpt lat="41.699023" lon="2.290625">
        <ele>318.209</ele>
        <time>2022-10-23T10:01:50Z</time>
      </trkpt>
      <trkpt lat="41.699037" lon="2.290625">
        <ele>318.825</ele>
        <time>2022-10-23T10:01:51Z</time>
      </trkpt>
      <trkpt lat="41.699048" lon="2.290624">
        <ele>319.445</ele>
        <time>2022-10-23T10:01:52Z</time>
      </trkpt>
      <trkpt lat="41.699061" lon="2.290620">
        <ele>320.091</ele>
        <time>2022-10-23T10:01:53Z</time>
      </trkpt>
      <trkpt lat="41.699076" lon="2.290618">
        <ele>320.434</ele>
        <time>2022-10-23T10:01:54Z</time>
      </trkpt>
      <trkpt lat="41.699094" lon="2.290617">
        <ele>320.620</ele>
        <time>2022-10-23T10:01:55Z</time>
      </trkpt>
      <trkpt lat="41.699113" lon="2.290620">
        <ele>321.018</ele>
        <time>2022-10-23T10:01:56Z</time>
      </trkpt>
      <trkpt lat="41.699134" lon="2.290624">
        <ele>321.694</ele>
        <time>2022-10-23T10:01:57Z</time>
      </trkpt>
      <trkpt lat="41.699153" lon="2.290629">
        <ele>322.064</ele>
        <time>2022-10-23T10:01:58Z</time>
      </trkpt>
      <trkpt lat="41.699174" lon="2.290629">
        <ele>323.227</ele>
        <time>2022-10-23T10:01:59Z</time>
      </trkpt>
      <trkpt lat="41.699198" lon="2.290630">
        <ele>323.666</ele>
        <time>2022-10-23T10:02:00Z</time>
      </trkpt>
      <trkpt lat="41.699222" lon="2.290624">
        <ele>323.829</ele>
        <time>2022-10-23T10:02:01Z</time>
      </trkpt>
      <trkpt lat="41.699242" lon="2.290623">
        <ele>324.021</ele>
        <time>2022-10-23T10:02:02Z</time>
      </trkpt>
      <trkpt lat="41.699264" lon="2.290622">
        <ele>324.409</ele>
        <time>2022-10-23T10:02:03Z</time>
      </trkpt>
      <trkpt lat="41.699284" lon="2.290620">
        <ele>324.897</ele>
        <time>2022-10-23T10:02:04Z</time>
      </trkpt>
      <trkpt lat="41.699302" lon="2.290621">
        <ele>325.277</ele>
        <time>2022-10-23T10:02:05Z</time>
      </trkpt>
      <trkpt lat="41.699324" lon="2.290626">
        <ele>325.643</ele>
        <time>2022-10-23T10:02:06Z</time>
      </trkpt>
      <trkpt lat="41.699349" lon="2.290627">
        <ele>325.836</ele>
        <time>2022-10-23T10:02:07Z</time>
      </trkpt>
      <trkpt lat="41.699375" lon="2.290620">
        <ele>326.282</ele>
        <time>2022-10-23T10:02:08Z</time>
      </trkpt>
      <trkpt lat="41.699398" lon="2.290613">
        <ele>326.620</ele>
        <time>2022-10-23T10:02:09Z</time>
      </trkpt>
      <trkpt lat="41.699415" lon="2.290606">
        <ele>327.236</ele>
        <time>2022-10-23T10:02:10Z</time>
      </trkpt>
      <trkpt lat="41.699431" lon="2.290601">
        <ele>327.686</ele>
        <time>2022-10-23T10:02:11Z</time>
      </trkpt>
      <trkpt lat="41.699447" lon="2.290600">
        <ele>328.229</ele>
        <time>2022-10-23T10:02:12Z</time>
      </trkpt>
      <trkpt lat="41.699462" lon="2.290596">
        <ele>328.874</ele>
        <time>2022-10-23T10:02:13Z</time>
      </trkpt>
      <trkpt lat="41.699478" lon="2.290592">
        <ele>329.256</ele>
        <time>2022-10-23T10:02:14Z</time>
      </trkpt>
      <trkpt lat="41.699498" lon="2.290595">
        <ele>329.621</ele>
        <time>2022-10-23T10:02:15Z</time>
      </trkpt>
      <trkpt lat="41.699521" lon="2.290592">
        <ele>329.809</ele>
        <time>2022-10-23T10:02:16Z</time>
      </trkpt>
      <trkpt lat="41.699542" lon="2.290597">
        <ele>330.248</ele>
        <time>2022-10-23T10:02:17Z</time>
      </trkpt>
      <trkpt lat="41.699566" lon="2.290604">
        <ele>330.478</ele>
        <time>2022-10-23T10:02:18Z</time>
      </trkpt>
      <trkpt lat="41.699595" lon="2.290598">
        <ele>330.664</ele>
        <time>2022-10-23T10:02:19Z</time>
      </trkpt>
      <trkpt lat="41.699623" lon="2.290598">
        <ele>331.057</ele>
        <time>2022-10-23T10:02:20Z</time>
      </trkpt>
      <trkpt lat="41.699642" lon="2.290615">
        <ele>331.243</ele>
        <time>2022-10-23T10:02:21Z</time>
      </trkpt>
      <trkpt lat="41.699657" lon="2.290630">
        <ele>331.661</ele>
        <time>2022-10-23T10:02:22Z</time>
      </trkpt>
      <trkpt lat="41.699671" lon="2.290641">
        <ele>331.857</ele>
        <time>2022-10-23T10:02:23Z</time>
      </trkpt>
      <trkpt lat="41.699681" lon="2.290660">
        <ele>332.087</ele>
        <time>2022-10-23T10:02:24Z</time>
      </trkpt>
      <trkpt lat="41.699686" lon="2.290680">
        <ele>332.280</ele>
        <time>2022-10-23T10:02:25Z</time>
      </trkpt>
      <trkpt lat="41.699688" lon="2.290702">
        <ele>332.465</ele>
        <time>2022-10-23T10:02:26Z</time>
      </trkpt>
      <trkpt lat="41.699692" lon="2.290734">
        <ele>333.268</ele>
        <time>2022-10-23T10:02:27Z</time>
      </trkpt>
      <trkpt lat="41.699687" lon="2.290762">
        <ele>333.814</ele>
        <time>2022-10-23T10:02:28Z</time>
      </trkpt>
      <trkpt lat="41.699683" lon="2.290791">
        <ele>334.209</ele>
        <time>2022-10-23T10:02:29Z</time>
      </trkpt>
      <trkpt lat="41.699680" lon="2.290823">
        <ele>334.697</ele>
        <time>2022-10-23T10:02:30Z</time>
      </trkpt>
      <trkpt lat="41.699674" lon="2.290857">
        <ele>335.017</ele>
        <time>2022-10-23T10:02:31Z</time>
      </trkpt>
      <trkpt lat="41.699664" lon="2.290887">
        <ele>335.253</ele>
        <time>2022-10-23T10:02:32Z</time>
      </trkpt>
      <trkpt lat="41.699659" lon="2.290916">
        <ele>335.486</ele>
        <time>2022-10-23T10:02:33Z</time>
      </trkpt>
      <trkpt lat="41.699653" lon="2.290944">
        <ele>335.642</ele>
        <time>2022-10-23T10:02:34Z</time>
      </trkpt>
      <trkpt lat="41.699646" lon="2.290970">
        <ele>336.060</ele>
        <time>2022-10-23T10:02:35Z</time>
      </trkpt>
      <trkpt lat="41.699640" lon="2.290999">
        <ele>336.416</ele>
        <time>2022-10-23T10:02:36Z</time>
      </trkpt>
      <trkpt lat="41.699631" lon="2.291026">
        <ele>336.696</ele>
        <time>2022-10-23T10:02:37Z</time>
      </trkpt>
      <trkpt lat="41.699622" lon="2.291055">
        <ele>336.879</ele>
        <time>2022-10-23T10:02:38Z</time>
      </trkpt>
      <trkpt lat="41.699615" lon="2.291083">
        <ele>337.241</ele>
        <time>2022-10-23T10:02:39Z</time>
      </trkpt>
      <trkpt lat="41.699606" lon="2.291107">
        <ele>337.481</ele>
        <time>2022-10-23T10:02:40Z</time>
      </trkpt>
      <trkpt lat="41.699600" lon="2.291132">
        <ele>337.809</ele>
        <time>2022-10-23T10:02:41Z</time>
      </trkpt>
      <trkpt lat="41.699594" lon="2.291161">
        <ele>338.009</ele>
        <time>2022-10-23T10:02:42Z</time>
      </trkpt>
      <trkpt lat="41.699587" lon="2.291188">
        <ele>338.235</ele>
        <time>2022-10-23T10:02:43Z</time>
      </trkpt>
      <trkpt lat="41.699579" lon="2.291215">
        <ele>338.465</ele>
        <time>2022-10-23T10:02:44Z</time>
      </trkpt>
      <trkpt lat="41.699569" lon="2.291245">
        <ele>338.691</ele>
        <time>2022-10-23T10:02:45Z</time>
      </trkpt>
      <trkpt lat="41.699560" lon="2.291273">
        <ele>338.884</ele>
        <time>2022-10-23T10:02:46Z</time>
      </trkpt>
      <trkpt lat="41.699554" lon="2.291299">
        <ele>339.040</ele>
        <time>2022-10-23T10:02:47Z</time>
      </trkpt>
      <trkpt lat="41.699549" lon="2.291326">
        <ele>339.428</ele>
        <time>2022-10-23T10:02:48Z</time>
      </trkpt>
      <trkpt lat="41.699543" lon="2.291354">
        <ele>339.894</ele>
        <time>2022-10-23T10:02:49Z</time>
      </trkpt>
      <trkpt lat="41.699539" lon="2.291385">
        <ele>340.014</ele>
        <time>2022-10-23T10:02:50Z</time>
      </trkpt>
      <trkpt lat="41.699531" lon="2.291410">
        <ele>340.497</ele>
        <time>2022-10-23T10:02:51Z</time>
      </trkpt>
      <trkpt lat="41.699522" lon="2.291438">
        <ele>340.447</ele>
        <time>2022-10-23T10:02:52Z</time>
      </trkpt>
      <trkpt lat="41.699512" lon="2.291465">
        <ele>340.629</ele>
        <time>2022-10-23T10:02:53Z</time>
      </trkpt>
      <trkpt lat="41.699507" lon="2.291495">
        <ele>341.021</ele>
        <time>2022-10-23T10:02:54Z</time>
      </trkpt>
      <trkpt lat="41.699503" lon="2.291522">
        <ele>341.409</ele>
        <time>2022-10-23T10:02:55Z</time>
      </trkpt>
      <trkpt lat="41.699503" lon="2.291550">
        <ele>341.685</ele>
        <time>2022-10-23T10:02:56Z</time>
      </trkpt>
      <trkpt lat="41.699503" lon="2.291576">
        <ele>341.875</ele>
        <time>2022-10-23T10:02:57Z</time>
      </trkpt>
      <trkpt lat="41.699508" lon="2.291602">
        <ele>342.261</ele>
        <time>2022-10-23T10:02:58Z</time>
      </trkpt>
      <trkpt lat="41.699520" lon="2.291628">
        <ele>342.444</ele>
        <time>2022-10-23T10:02:59Z</time>
      </trkpt>
      <trkpt lat="41.699534" lon="2.291651">
        <ele>342.820</ele>
        <time>2022-10-23T10:03:00Z</time>
      </trkpt>
      <trkpt lat="41.699546" lon="2.291672">
        <ele>343.028</ele>
        <time>2022-10-23T10:03:01Z</time>
      </trkpt>
      <trkpt lat="41.699562" lon="2.291698">
        <ele>343.274</ele>
        <time>2022-10-23T10:03:02Z</time>
      </trkpt>
      <trkpt lat="41.699575" lon="2.291720">
        <ele>343.674</ele>
        <time>2022-10-23T10:03:03Z</time>
      </trkpt>
      <trkpt lat="41.699592" lon="2.291744">
        <ele>344.067</ele>
        <time>2022-10-23T10:03:04Z</time>
      </trkpt>
      <trkpt lat="41.699610" lon="2.291768">
        <ele>344.483</ele>
        <time>2022-10-23T10:03:05Z</time>
      </trkpt>
      <trkpt lat="41.699626" lon="2.291791">
        <ele>344.625</ele>
        <time>2022-10-23T10:03:06Z</time>
      </trkpt>
      <trkpt lat="41.699641" lon="2.291814">
        <ele>345.217</ele>
        <time>2022-10-23T10:03:07Z</time>
      </trkpt>
      <trkpt lat="41.699659" lon="2.291840">
        <ele>345.609</ele>
        <time>2022-10-23T10:03:08Z</time>
      </trkpt>
      <trkpt lat="41.699675" lon="2.291859">
        <ele>346.089</ele>
        <time>2022-10-23T10:03:09Z</time>
      </trkpt>
      <trkpt lat="41.699692" lon="2.291874">
        <ele>346.659</ele>
        <time>2022-10-23T10:03:10Z</time>
      </trkpt>
      <trkpt lat="41.699708" lon="2.291883">
        <ele>347.065</ele>
        <time>2022-10-23T10:03:11Z</time>
      </trkpt>
      <trkpt lat="41.699726" lon="2.291894">
        <ele>347.428</ele>
        <time>2022-10-23T10:03:12Z</time>
      </trkpt>
      <trkpt lat="41.699746" lon="2.291903">
        <ele>347.824</ele>
        <time>2022-10-23T10:03:13Z</time>
      </trkpt>
      <trkpt lat="41.699761" lon="2.291933">
        <ele>348.252</ele>
        <time>2022-10-23T10:03:14Z</time>
      </trkpt>
      <trkpt lat="41.699776" lon="2.291963">
        <ele>348.898</ele>
        <time>2022-10-23T10:03:15Z</time>
      </trkpt>
      <trkpt lat="41.699793" lon="2.291982">
        <ele>349.288</ele>
        <time>2022-10-23T10:03:16Z</time>
      </trkpt>
      <trkpt lat="41.699811" lon="2.291999">
        <ele>349.421</ele>
        <time>2022-10-23T10:03:17Z</time>
      </trkpt>
      <trkpt lat="41.699828" lon="2.292021">
        <ele>349.879</ele>
        <time>2022-10-23T10:03:18Z</time>
      </trkpt>
      <trkpt lat="41.699844" lon="2.292040">
        <ele>350.005</ele>
        <time>2022-10-23T10:03:19Z</time>
      </trkpt>
      <trkpt lat="41.699859" lon="2.292060">
        <ele>350.425</ele>
        <time>2022-10-23T10:03:20Z</time>
      </trkpt>
      <trkpt lat="41.699874" lon="2.292085">
        <ele>350.609</ele>
        <time>2022-10-23T10:03:21Z</time>
      </trkpt>
      <trkpt lat="41.699890" lon="2.292107">
        <ele>351.648</ele>
        <time>2022-10-23T10:03:22Z</time>
      </trkpt>
      <trkpt lat="41.699908" lon="2.292125">
        <ele>351.898</ele>
        <time>2022-10-23T10:03:23Z</time>
      </trkpt>
      <trkpt lat="41.699927" lon="2.292149">
        <ele>352.464</ele>
        <time>2022-10-23T10:03:24Z</time>
      </trkpt>
      <trkpt lat="41.699943" lon="2.292173">
        <ele>352.857</ele>
        <time>2022-10-23T10:03:25Z</time>
      </trkpt>
      <trkpt lat="41.699961" lon="2.292196">
        <ele>353.013</ele>
        <time>2022-10-23T10:03:26Z</time>
      </trkpt>
      <trkpt lat="41.699977" lon="2.292219">
        <ele>353.421</ele>
        <time>2022-10-23T10:03:27Z</time>
      </trkpt>
      <trkpt lat="41.699992" lon="2.292239">
        <ele>353.627</ele>
        <time>2022-10-23T10:03:28Z</time>
      </trkpt>
      <trkpt lat="41.700005" lon="2.292259">
        <ele>354.037</ele>
        <time>2022-10-23T10:03:29Z</time>
      </trkpt>
      <trkpt lat="41.700018" lon="2.292277">
        <ele>354.480</ele>
        <time>2022-10-23T10:03:30Z</time>
      </trkpt>
      <trkpt lat="41.700032" lon="2.292290">
        <ele>354.626</ele>
        <time>2022-10-23T10:03:31Z</time>
      </trkpt>
      <trkpt lat="41.700046" lon="2.292305">
        <ele>354.847</ele>
        <time>2022-10-23T10:03:32Z</time>
      </trkpt>
      <trkpt lat="41.700058" lon="2.292324">
        <ele>355.211</ele>
        <time>2022-10-23T10:03:33Z</time>
      </trkpt>
      <trkpt lat="41.700072" lon="2.292345">
        <ele>355.409</ele>
        <time>2022-10-23T10:03:34Z</time>
      </trkpt>
      <trkpt lat="41.700086" lon="2.292366">
        <ele>355.673</ele>
        <time>2022-10-23T10:03:35Z</time>
      </trkpt>
      <trkpt lat="41.700096" lon="2.292393">
        <ele>356.053</ele>
        <time>2022-10-23T10:03:36Z</time>
      </trkpt>
      <trkpt lat="41.700105" lon="2.292415">
        <ele>356.619</ele>
        <time>2022-10-23T10:03:37Z</time>
      </trkpt>
      <trkpt lat="41.700115" lon="2.292434">
        <ele>357.092</ele>
        <time>2022-10-23T10:03:38Z</time>
      </trkpt>
      <trkpt lat="41.700126" lon="2.292457">
        <ele>357.278</ele>
        <time>2022-10-23T10:03:39Z</time>
      </trkpt>
      <trkpt lat="41.700141" lon="2.292482">
        <ele>357.686</ele>
        <time>2022-10-23T10:03:40Z</time>
      </trkpt>
      <trkpt lat="41.700157" lon="2.292504">
        <ele>357.852</ele>
        <time>2022-10-23T10:03:41Z</time>
      </trkpt>
      <trkpt lat="41.700173" lon="2.292526">
        <ele>358.222</ele>
        <time>2022-10-23T10:03:42Z</time>
      </trkpt>
      <trkpt lat="41.700186" lon="2.292544">
        <ele>358.695</ele>
        <time>2022-10-23T10:03:43Z</time>
      </trkpt>
      <trkpt lat="41.700197" lon="2.292557">
        <ele>359.077</ele>
        <time>2022-10-23T10:03:44Z</time>
      </trkpt>
      <trkpt lat="41.700205" lon="2.292569">
        <ele>359.461</ele>
        <time>2022-10-23T10:03:45Z</time>
      </trkpt>
      <trkpt lat="41.700214" lon="2.292582">
        <ele>359.827</ele>
        <time>2022-10-23T10:03:46Z</time>
      </trkpt>
      <trkpt lat="41.700223" lon="2.292594">
        <ele>360.409</ele>
        <time>2022-10-23T10:03:47Z</time>
      </trkpt>
      <trkpt lat="41.700233" lon="2.292605">
        <ele>360.868</ele>
        <time>2022-10-23T10:03:48Z</time>
      </trkpt>
      <trkpt lat="41.700245" lon="2.292617">
        <ele>361.028</ele>
        <time>2022-10-23T10:03:49Z</time>
      </trkpt>
      <trkpt lat="41.700259" lon="2.292629">
        <ele>361.454</ele>
        <time>2022-10-23T10:03:50Z</time>
      </trkpt>
      <trkpt lat="41.700268" lon="2.292639">
        <ele>361.857</ele>
        <time>2022-10-23T10:03:51Z</time>
      </trkpt>
      <trkpt lat="41.700274" lon="2.292650">
        <ele>362.073</ele>
        <time>2022-10-23T10:03:52Z</time>
      </trkpt>
      <trkpt lat="41.700278" lon="2.292664">
        <ele>362.411</ele>
        <time>2022-10-23T10:03:53Z</time>
      </trkpt>
      <trkpt lat="41.700284" lon="2.292679">
        <ele>362.657</ele>
        <time>2022-10-23T10:03:54Z</time>
      </trkpt>
      <trkpt lat="41.700294" lon="2.292696">
        <ele>362.867</ele>
        <time>2022-10-23T10:03:55Z</time>
      </trkpt>
      <trkpt lat="41.700304" lon="2.292707">
        <ele>363.050</ele>
        <time>2022-10-23T10:03:56Z</time>
      </trkpt>
      <trkpt lat="41.700315" lon="2.292720">
        <ele>363.295</ele>
        <time>2022-10-23T10:03:57Z</time>
      </trkpt>
      <trkpt lat="41.700329" lon="2.292734">
        <ele>363.449</ele>
        <time>2022-10-23T10:03:58Z</time>
      </trkpt>
      <trkpt lat="41.700340" lon="2.292753">
        <ele>364.023</ele>
        <time>2022-10-23T10:03:59Z</time>
      </trkpt>
      <trkpt lat="41.700356" lon="2.292771">
        <ele>364.209</ele>
        <time>2022-10-23T10:04:00Z</time>
      </trkpt>
      <trkpt lat="41.700377" lon="2.292787">
        <ele>364.480</ele>
        <time>2022-10-23T10:04:01Z</time>
      </trkpt>
      <trkpt lat="41.700400" lon="2.292803">
        <ele>364.810</ele>
        <time>2022-10-23T10:04:02Z</time>
      </trkpt>
      <trkpt lat="41.700419" lon="2.292818">
        <ele>365.036</ele>
        <time>2022-10-23T10:04:03Z</time>
      </trkpt>
      <trkpt lat="41.700439" lon="2.292834">
        <ele>365.459</ele>
        <time>2022-10-23T10:04:04Z</time>
      </trkpt>
      <trkpt lat="41.700456" lon="2.292849">
        <ele>365.895</ele>
        <time>2022-10-23T10:04:05Z</time>
      </trkpt>
      <trkpt lat="41.700474" lon="2.292862">
        <ele>366.283</ele>
        <time>2022-10-23T10:04:06Z</time>
      </trkpt>
      <trkpt lat="41.700487" lon="2.292872">
        <ele>366.479</ele>
        <time>2022-10-23T10:04:07Z</time>
      </trkpt>
      <trkpt lat="41.700503" lon="2.292881">
        <ele>366.829</ele>
        <time>2022-10-23T10:04:08Z</time>
      </trkpt>
      <trkpt lat="41.700517" lon="2.292893">
        <ele>367.272</ele>
        <time>2022-10-23T10:04:09Z</time>
      </trkpt>
      <trkpt lat="41.700530" lon="2.292903">
        <ele>367.816</ele>
        <time>2022-10-23T10:04:10Z</time>
      </trkpt>
      <trkpt lat="41.700541" lon="2.292911">
        <ele>368.276</ele>
        <time>2022-10-23T10:04:11Z</time>
      </trkpt>
      <trkpt lat="41.700550" lon="2.292921">
        <ele>368.613</ele>
        <time>2022-10-23T10:04:12Z</time>
      </trkpt>
      <trkpt lat="41.700555" lon="2.292933">
        <ele>369.009</ele>
        <time>2022-10-23T10:04:13Z</time>
      </trkpt>
      <trkpt lat="41.700553" lon="2.292949">
        <ele>369.432</ele>
        <time>2022-10-23T10:04:14Z</time>
      </trkpt>
      <trkpt lat="41.700547" lon="2.292961">
        <ele>369.832</ele>
        <time>2022-10-23T10:04:15Z</time>
      </trkpt>
      <trkpt lat="41.700537" lon="2.292970">
        <ele>370.298</ele>
        <time>2022-10-23T10:04:16Z</time>
      </trkpt>
      <trkpt lat="41.700526" lon="2.292976">
        <ele>370.821</ele>
        <time>2022-10-23T10:04:17Z</time>
      </trkpt>
      <trkpt lat="41.700513" lon="2.292982">
        <ele>371.057</ele>
        <time>2022-10-23T10:04:18Z</time>
      </trkpt>
      <trkpt lat="41.700501" lon="2.292986">
        <ele>371.285</ele>
        <time>2022-10-23T10:04:19Z</time>
      </trkpt>
      <trkpt lat="41.700487" lon="2.292982">
        <ele>371.471</ele>
        <time>2022-10-23T10:04:20Z</time>
      </trkpt>
      <trkpt lat="41.700472" lon="2.292976">
        <ele>371.631</ele>
        <time>2022-10-23T10:04:21Z</time>
      </trkpt>
      <trkpt lat="41.700454" lon="2.292971">
        <ele>371.844</ele>
        <time>2022-10-23T10:04:22Z</time>
      </trkpt>
      <trkpt lat="41.700432" lon="2.292964">
        <ele>372.029</ele>
        <time>2022-10-23T10:04:23Z</time>
      </trkpt>
      <trkpt lat="41.700412" lon="2.292960">
        <ele>372.200</ele>
        <time>2022-10-23T10:04:24Z</time>
      </trkpt>
      <trkpt lat="41.700391" lon="2.292960">
        <ele>372.420</ele>
        <time>2022-10-23T10:04:25Z</time>
      </trkpt>
      <trkpt lat="41.700369" lon="2.292958">
        <ele>372.609</ele>
        <time>2022-10-23T10:04:26Z</time>
      </trkpt>
      <trkpt lat="41.700348" lon="2.292957">
        <ele>372.613</ele>
        <time>2022-10-23T10:04:27Z</time>
      </trkpt>
      <trkpt lat="41.700328" lon="2.292956">
        <ele>372.853</ele>
        <time>2022-10-23T10:04:28Z</time>
      </trkpt>
      <trkpt lat="41.700310" lon="2.292958">
        <ele>372.859</ele>
        <time>2022-10-23T10:04:29Z</time>
      </trkpt>
      <trkpt lat="41.700292" lon="2.292960">
        <ele>372.852</ele>
        <time>2022-10-23T10:04:30Z</time>
      </trkpt>
      <trkpt lat="41.700275" lon="2.292965">
        <ele>373.078</ele>
        <time>2022-10-23T10:04:31Z</time>
      </trkpt>
      <trkpt lat="41.700259" lon="2.292970">
        <ele>373.226</ele>
        <time>2022-10-23T10:04:32Z</time>
      </trkpt>
      <trkpt lat="41.700243" lon="2.292975">
        <ele>373.222</ele>
        <time>2022-10-23T10:04:33Z</time>
      </trkpt>
      <trkpt lat="41.700226" lon="2.292979">
        <ele>373.672</ele>
        <time>2022-10-23T10:04:34Z</time>
      </trkpt>
      <trkpt lat="41.700210" lon="2.292979">
        <ele>373.815</ele>
        <time>2022-10-23T10:04:35Z</time>
      </trkpt>
      <trkpt lat="41.700193" lon="2.292985">
        <ele>374.087</ele>
        <time>2022-10-23T10:04:36Z</time>
      </trkpt>
      <trkpt lat="41.700174" lon="2.292993">
        <ele>374.442</ele>
        <time>2022-10-23T10:04:37Z</time>
      </trkpt>
      <trkpt lat="41.700155" lon="2.293002">
        <ele>374.826</ele>
        <time>2022-10-23T10:04:38Z</time>
      </trkpt>
      <trkpt lat="41.700135" lon="2.293011">
        <ele>375.209</ele>
        <time>2022-10-23T10:04:39Z</time>
      </trkpt>
      <trkpt lat="41.700117" lon="2.293020">
        <ele>375.629</ele>
        <time>2022-10-23T10:04:40Z</time>
      </trkpt>
      <trkpt lat="41.700099" lon="2.293027">
        <ele>375.879</ele>
        <time>2022-10-23T10:04:41Z</time>
      </trkpt>
      <trkpt lat="41.700079" lon="2.293037">
        <ele>376.075</ele>
        <time>2022-10-23T10:04:42Z</time>
      </trkpt>
      <trkpt lat="41.700059" lon="2.293042">
        <ele>376.278</ele>
        <time>2022-10-23T10:04:43Z</time>
      </trkpt>
      <trkpt lat="41.700039" lon="2.293042">
        <ele>376.444</ele>
        <time>2022-10-23T10:04:44Z</time>
      </trkpt>
      <trkpt lat="41.700019" lon="2.293046">
        <ele>377.272</ele>
        <time>2022-10-23T10:04:45Z</time>
      </trkpt>
      <trkpt lat="41.700002" lon="2.293054">
        <ele>377.638</ele>
        <time>2022-10-23T10:04:46Z</time>
      </trkpt>
      <trkpt lat="41.699983" lon="2.293059">
        <ele>377.818</ele>
        <time>2022-10-23T10:04:47Z</time>
      </trkpt>
      <trkpt lat="41.699966" lon="2.293062">
        <ele>378.291</ele>
        <time>2022-10-23T10:04:48Z</time>
      </trkpt>
      <trkpt lat="41.699948" lon="2.293063">
        <ele>378.837</ele>
        <time>2022-10-23T10:04:49Z</time>
      </trkpt>
      <trkpt lat="41.699930" lon="2.293060">
        <ele>379.249</ele>
        <time>2022-10-23T10:04:50Z</time>
      </trkpt>
      <trkpt lat="41.699914" lon="2.293060">
        <ele>379.613</ele>
        <time>2022-10-23T10:04:51Z</time>
      </trkpt>
      <trkpt lat="41.699900" lon="2.293063">
        <ele>380.009</ele>
        <time>2022-10-23T10:04:52Z</time>
      </trkpt>
      <trkpt lat="41.699881" lon="2.293067">
        <ele>380.624</ele>
        <time>2022-10-23T10:04:53Z</time>
      </trkpt>
      <trkpt lat="41.699863" lon="2.293073">
        <ele>381.084</ele>
        <time>2022-10-23T10:04:54Z</time>
      </trkpt>
      <trkpt lat="41.699843" lon="2.293082">
        <ele>381.490</ele>
        <time>2022-10-23T10:04:55Z</time>
      </trkpt>
      <trkpt lat="41.699823" lon="2.293094">
        <ele>381.873</ele>
        <time>2022-10-23T10:04:56Z</time>
      </trkpt>
      <trkpt lat="41.699805" lon="2.293107">
        <ele>382.029</ele>
        <time>2022-10-23T10:04:57Z</time>
      </trkpt>
      <trkpt lat="41.699787" lon="2.293115">
        <ele>382.417</ele>
        <time>2022-10-23T10:04:58Z</time>
      </trkpt>
      <trkpt lat="41.699771" lon="2.293125">
        <ele>382.673</ele>
        <time>2022-10-23T10:04:59Z</time>
      </trkpt>
      <trkpt lat="41.699758" lon="2.293139">
        <ele>383.053</ele>
        <time>2022-10-23T10:05:00Z</time>
      </trkpt>
      <trkpt lat="41.699741" lon="2.293153">
        <ele>383.256</ele>
        <time>2022-10-23T10:05:01Z</time>
      </trkpt>
      <trkpt lat="41.699722" lon="2.293172">
        <ele>383.418</ele>
        <time>2022-10-23T10:05:02Z</time>
      </trkpt>
      <trkpt lat="41.699703" lon="2.293187">
        <ele>383.698</ele>
        <time>2022-10-23T10:05:03Z</time>
      </trkpt>
      <trkpt lat="41.699685" lon="2.293202">
        <ele>384.017</ele>
        <time>2022-10-23T10:05:04Z</time>
      </trkpt>
      <trkpt lat="41.699665" lon="2.293218">
        <ele>384.409</ele>
        <time>2022-10-23T10:05:05Z</time>
      </trkpt>
      <trkpt lat="41.699650" lon="2.293226">
        <ele>384.822</ele>
        <time>2022-10-23T10:05:06Z</time>
      </trkpt>
      <trkpt lat="41.699632" lon="2.293237">
        <ele>385.212</ele>
        <time>2022-10-23T10:05:07Z</time>
      </trkpt>
      <trkpt lat="41.699612" lon="2.293249">
        <ele>385.638</ele>
        <time>2022-10-23T10:05:08Z</time>
      </trkpt>
      <trkpt lat="41.699592" lon="2.293259">
        <ele>386.081</ele>
        <time>2022-10-23T10:05:09Z</time>
      </trkpt>
      <trkpt lat="41.699572" lon="2.293268">
        <ele>386.437</ele>
        <time>2022-10-23T10:05:10Z</time>
      </trkpt>
      <trkpt lat="41.699551" lon="2.293275">
        <ele>387.015</ele>
        <time>2022-10-23T10:05:11Z</time>
      </trkpt>
      <trkpt lat="41.699532" lon="2.293287">
        <ele>388.061</ele>
        <time>2022-10-23T10:05:12Z</time>
      </trkpt>
      <trkpt lat="41.699514" lon="2.293299">
        <ele>388.421</ele>
        <time>2022-10-23T10:05:13Z</time>
      </trkpt>
      <trkpt lat="41.699495" lon="2.293316">
        <ele>388.884</ele>
        <time>2022-10-23T10:05:14Z</time>
      </trkpt>
      <trkpt lat="41.699474" lon="2.293334">
        <ele>389.243</ele>
        <time>2022-10-23T10:05:15Z</time>
      </trkpt>
      <trkpt lat="41.699457" lon="2.293353">
        <ele>389.664</ele>
        <time>2022-10-23T10:05:16Z</time>
      </trkpt>
      <trkpt lat="41.699432" lon="2.293375">
        <ele>390.010</ele>
        <time>2022-10-23T10:05:17Z</time>
      </trkpt>
      <trkpt lat="41.699409" lon="2.293397">
        <ele>390.609</ele>
        <time>2022-10-23T10:05:18Z</time>
      </trkpt>
      <trkpt lat="41.699391" lon="2.293416">
        <ele>391.075</ele>
        <time>2022-10-23T10:05:19Z</time>
      </trkpt>
      <trkpt lat="41.699375" lon="2.293435">
        <ele>391.225</ele>
        <time>2022-10-23T10:05:20Z</time>
      </trkpt>
      <trkpt lat="41.699358" lon="2.293453">
        <ele>391.261</ele>
        <time>2022-10-23T10:05:21Z</time>
      </trkpt>
      <trkpt lat="41.699343" lon="2.293476">
        <ele>391.454</ele>
        <time>2022-10-23T10:05:22Z</time>
      </trkpt>
      <trkpt lat="41.699329" lon="2.293499">
        <ele>391.410</ele>
        <time>2022-10-23T10:05:23Z</time>
      </trkpt>
      <trkpt lat="41.699316" lon="2.293518">
        <ele>391.428</ele>
        <time>2022-10-23T10:05:24Z</time>
      </trkpt>
      <trkpt lat="41.699300" lon="2.293536">
        <ele>391.894</ele>
        <time>2022-10-23T10:05:25Z</time>
      </trkpt>
      <trkpt lat="41.699288" lon="2.293554">
        <ele>392.084</ele>
        <time>2022-10-23T10:05:26Z</time>
      </trkpt>
      <trkpt lat="41.699278" lon="2.293573">
        <ele>392.287</ele>
        <time>2022-10-23T10:05:27Z</time>
      </trkpt>
      <trkpt lat="41.699265" lon="2.293593">
        <ele>392.626</ele>
        <time>2022-10-23T10:05:28Z</time>
      </trkpt>
      <trkpt lat="41.699250" lon="2.293619">
        <ele>393.047</ele>
        <time>2022-10-23T10:05:29Z</time>
      </trkpt>
      <trkpt lat="41.699234" lon="2.293647">
        <ele>393.411</ele>
        <time>2022-10-23T10:05:30Z</time>
      </trkpt>
      <trkpt lat="41.699218" lon="2.293671">
        <ele>393.809</ele>
        <time>2022-10-23T10:05:31Z</time>
      </trkpt>
      <trkpt lat="41.699204" lon="2.293696">
        <ele>394.423</ele>
        <time>2022-10-23T10:05:32Z</time>
      </trkpt>
      <trkpt lat="41.699192" lon="2.293721">
        <ele>394.893</ele>
        <time>2022-10-23T10:05:33Z</time>
      </trkpt>
      <trkpt lat="41.699186" lon="2.293748">
        <ele>395.229</ele>
        <time>2022-10-23T10:05:34Z</time>
      </trkpt>
      <trkpt lat="41.699179" lon="2.293773">
        <ele>395.472</ele>
        <time>2022-10-23T10:05:35Z</time>
      </trkpt>
      <trkpt lat="41.699171" lon="2.293793">
        <ele>395.668</ele>
        <time>2022-10-23T10:05:36Z</time>
      </trkpt>
      <trkpt lat="41.699163" lon="2.293812">
        <ele>396.046</ele>
        <time>2022-10-23T10:05:37Z</time>
      </trkpt>
      <trkpt lat="41.699156" lon="2.293835">
        <ele>396.492</ele>
        <time>2022-10-23T10:05:38Z</time>
      </trkpt>
      <trkpt lat="41.699150" lon="2.293858">
        <ele>396.852</ele>
        <time>2022-10-23T10:05:39Z</time>
      </trkpt>
      <trkpt lat="41.699144" lon="2.293879">
        <ele>397.835</ele>
        <time>2022-10-23T10:05:40Z</time>
      </trkpt>
      <trkpt lat="41.699139" lon="2.293899">
        <ele>398.418</ele>
        <time>2022-10-23T10:05:41Z</time>
      </trkpt>
      <trkpt lat="41.699130" lon="2.293918">
        <ele>399.098</ele>
        <time>2022-10-23T10:05:42Z</time>
      </trkpt>
      <trkpt lat="41.699120" lon="2.293936">
        <ele>399.417</ele>
        <time>2022-10-23T10:05:43Z</time>
      </trkpt>
      <trkpt lat="41.699114" lon="2.293958">
        <ele>399.809</ele>
        <time>2022-10-23T10:05:44Z</time>
      </trkpt>
      <trkpt lat="41.699107" lon="2.293977">
        <ele>400.292</ele>
        <time>2022-10-23T10:05:45Z</time>
      </trkpt>
      <trkpt lat="41.699102" lon="2.293999">
        <ele>400.852</ele>
        <time>2022-10-23T10:05:46Z</time>
      </trkpt>
      <trkpt lat="41.699096" lon="2.294020">
        <ele>401.488</ele>
        <time>2022-10-23T10:05:47Z</time>
      </trkpt>
      <trkpt lat="41.699086" lon="2.294041">
        <ele>402.031</ele>
        <time>2022-10-23T10:05:48Z</time>
      </trkpt>
      <trkpt lat="41.699079" lon="2.294061">
        <ele>402.617</ele>
        <time>2022-10-23T10:05:49Z</time>
      </trkpt>
      <trkpt lat="41.699070" lon="2.294081">
        <ele>403.235</ele>
        <time>2022-10-23T10:05:50Z</time>
      </trkpt>
      <trkpt lat="41.699064" lon="2.294104">
        <ele>403.631</ele>
        <time>2022-10-23T10:05:51Z</time>
      </trkpt>
      <trkpt lat="41.699059" lon="2.294124">
        <ele>404.251</ele>
        <time>2022-10-23T10:05:52Z</time>
      </trkpt>
      <trkpt lat="41.699053" lon="2.294146">
        <ele>404.674</ele>
        <time>2022-10-23T10:05:53Z</time>
      </trkpt>
      <trkpt lat="41.699046" lon="2.294169">
        <ele>405.027</ele>
        <time>2022-10-23T10:05:54Z</time>
      </trkpt>
      <trkpt lat="41.699038" lon="2.294192">
        <ele>405.468</ele>
        <time>2022-10-23T10:05:55Z</time>
      </trkpt>
      <trkpt lat="41.699030" lon="2.294214">
        <ele>405.814</ele>
        <time>2022-10-23T10:05:56Z</time>
      </trkpt>
      <trkpt lat="41.699024" lon="2.294239">
        <ele>406.409</ele>
        <time>2022-10-23T10:05:57Z</time>
      </trkpt>
      <trkpt lat="41.699017" lon="2.294263">
        <ele>406.843</ele>
        <time>2022-10-23T10:05:58Z</time>
      </trkpt>
      <trkpt lat="41.699008" lon="2.294285">
        <ele>407.273</ele>
        <time>2022-10-23T10:05:59Z</time>
      </trkpt>
      <trkpt lat="41.698998" lon="2.294304">
        <ele>407.849</ele>
        <time>2022-10-23T10:06:00Z</time>
      </trkpt>
      <trkpt lat="41.698989" lon="2.294322">
        <ele>408.292</ele>
        <time>2022-10-23T10:06:01Z</time>
      </trkpt>
      <trkpt lat="41.698983" lon="2.294340">
        <ele>408.658</ele>
        <time>2022-10-23T10:06:02Z</time>
      </trkpt>
      <trkpt lat="41.698979" lon="2.294358">
        <ele>408.856</ele>
        <time>2022-10-23T10:06:03Z</time>
      </trkpt>
      <trkpt lat="41.698976" lon="2.294378">
        <ele>409.262</ele>
        <time>2022-10-23T10:06:04Z</time>
      </trkpt>
      <trkpt lat="41.698973" lon="2.294403">
        <ele>409.892</ele>
        <time>2022-10-23T10:06:05Z</time>
      </trkpt>
      <trkpt lat="41.698967" lon="2.294429">
        <ele>410.415</ele>
        <time>2022-10-23T10:06:06Z</time>
      </trkpt>
      <trkpt lat="41.698961" lon="2.294452">
        <ele>411.036</ele>
        <time>2022-10-23T10:06:07Z</time>
      </trkpt>
      <trkpt lat="41.698957" lon="2.294476">
        <ele>412.217</ele>
        <time>2022-10-23T10:06:08Z</time>
      </trkpt>
      <trkpt lat="41.698951" lon="2.294497">
        <ele>412.818</ele>
        <time>2022-10-23T10:06:09Z</time>
      </trkpt>
      <trkpt lat="41.698946" lon="2.294517">
        <ele>413.209</ele>
        <time>2022-10-23T10:06:10Z</time>
      </trkpt>
      <trkpt lat="41.698939" lon="2.294539">
        <ele>413.694</ele>
        <time>2022-10-23T10:06:11Z</time>
      </trkpt>
      <trkpt lat="41.698935" lon="2.294566">
        <ele>414.014</ele>
        <time>2022-10-23T10:06:12Z</time>
      </trkpt>
      <trkpt lat="41.698929" lon="2.294592">
        <ele>414.470</ele>
        <time>2022-10-23T10:06:13Z</time>
      </trkpt>
      <trkpt lat="41.698920" lon="2.294614">
        <ele>414.873</ele>
        <time>2022-10-23T10:06:14Z</time>
      </trkpt>
      <trkpt lat="41.698912" lon="2.294636">
        <ele>415.019</ele>
        <time>2022-10-23T10:06:15Z</time>
      </trkpt>
      <trkpt lat="41.698904" lon="2.294658">
        <ele>415.437</ele>
        <time>2022-10-23T10:06:16Z</time>
      </trkpt>
      <trkpt lat="41.698896" lon="2.294686">
        <ele>415.893</ele>
        <time>2022-10-23T10:06:17Z</time>
      </trkpt>
      <trkpt lat="41.698891" lon="2.294715">
        <ele>416.223</ele>
        <time>2022-10-23T10:06:18Z</time>
      </trkpt>
      <trkpt lat="41.698883" lon="2.294746">
        <ele>416.426</ele>
        <time>2022-10-23T10:06:19Z</time>
      </trkpt>
      <trkpt lat="41.698874" lon="2.294777">
        <ele>416.875</ele>
        <time>2022-10-23T10:06:20Z</time>
      </trkpt>
      <trkpt lat="41.698866" lon="2.294807">
        <ele>417.228</ele>
        <time>2022-10-23T10:06:21Z</time>
      </trkpt>
      <trkpt lat="41.698856" lon="2.294833">
        <ele>417.620</ele>
        <time>2022-10-23T10:06:22Z</time>
      </trkpt>
      <trkpt lat="41.698845" lon="2.294855">
        <ele>417.809</ele>
        <time>2022-10-23T10:06:23Z</time>
      </trkpt>
      <trkpt lat="41.698836" lon="2.294877">
        <ele>418.278</ele>
        <time>2022-10-23T10:06:24Z</time>
      </trkpt>
      <trkpt lat="41.698827" lon="2.294900">
        <ele>418.448</ele>
        <time>2022-10-23T10:06:25Z</time>
      </trkpt>
      <trkpt lat="41.698817" lon="2.294922">
        <ele>418.444</ele>
        <time>2022-10-23T10:06:26Z</time>
      </trkpt>
      <trkpt lat="41.698809" lon="2.294946">
        <ele>418.697</ele>
        <time>2022-10-23T10:06:27Z</time>
      </trkpt>
      <trkpt lat="41.698804" lon="2.294974">
        <ele>419.013</ele>
        <time>2022-10-23T10:06:28Z</time>
      </trkpt>
      <trkpt lat="41.698800" lon="2.295000">
        <ele>419.231</ele>
        <time>2022-10-23T10:06:29Z</time>
      </trkpt>
      <trkpt lat="41.698791" lon="2.295030">
        <ele>419.477</ele>
        <time>2022-10-23T10:06:30Z</time>
      </trkpt>
      <trkpt lat="41.698782" lon="2.295060">
        <ele>419.887</ele>
        <time>2022-10-23T10:06:31Z</time>
      </trkpt>
      <trkpt lat="41.698773" lon="2.295092">
        <ele>420.010</ele>
        <time>2022-10-23T10:06:32Z</time>
      </trkpt>
      <trkpt lat="41.698764" lon="2.295123">
        <ele>420.632</ele>
        <time>2022-10-23T10:06:33Z</time>
      </trkpt>
      <trkpt lat="41.698754" lon="2.295152">
        <ele>421.092</ele>
        <time>2022-10-23T10:06:34Z</time>
      </trkpt>
      <trkpt lat="41.698744" lon="2.295176">
        <ele>421.611</ele>
        <time>2022-10-23T10:06:35Z</time>
      </trkpt>
      <trkpt lat="41.698736" lon="2.295205">
        <ele>422.009</ele>
        <time>2022-10-23T10:06:36Z</time>
      </trkpt>
      <trkpt lat="41.698730" lon="2.295232">
        <ele>422.294</ele>
        <time>2022-10-23T10:06:37Z</time>
      </trkpt>
      <trkpt lat="41.698721" lon="2.295258">
        <ele>422.464</ele>
        <time>2022-10-23T10:06:38Z</time>
      </trkpt>
      <trkpt lat="41.698712" lon="2.295289">
        <ele>422.630</ele>
        <time>2022-10-23T10:06:39Z</time>
      </trkpt>
      <trkpt lat="41.698700" lon="2.295323">
        <ele>423.093</ele>
        <time>2022-10-23T10:06:40Z</time>
      </trkpt>
      <trkpt lat="41.698690" lon="2.295354">
        <ele>423.259</ele>
        <time>2022-10-23T10:06:41Z</time>
      </trkpt>
      <trkpt lat="41.698680" lon="2.295380">
        <ele>423.617</ele>
        <time>2022-10-23T10:06:42Z</time>
      </trkpt>
      <trkpt lat="41.698672" lon="2.295408">
        <ele>423.833</ele>
        <time>2022-10-23T10:06:43Z</time>
      </trkpt>
      <trkpt lat="41.698663" lon="2.295434">
        <ele>424.013</ele>
        <time>2022-10-23T10:06:44Z</time>
      </trkpt>
      <trkpt lat="41.698653" lon="2.295458">
        <ele>424.256</ele>
        <time>2022-10-23T10:06:45Z</time>
      </trkpt>
      <trkpt lat="41.698645" lon="2.295482">
        <ele>424.472</ele>
        <time>2022-10-23T10:06:46Z</time>
      </trkpt>
      <trkpt lat="41.698635" lon="2.295507">
        <ele>424.613</ele>
        <time>2022-10-23T10:06:47Z</time>
      </trkpt>
      <trkpt lat="41.698624" lon="2.295534">
        <ele>425.014</ele>
        <time>2022-10-23T10:06:48Z</time>
      </trkpt>
      <trkpt lat="41.698614" lon="2.295562">
        <ele>425.409</ele>
        <time>2022-10-23T10:06:49Z</time>
      </trkpt>
      <trkpt lat="41.698604" lon="2.295591">
        <ele>425.698</ele>
        <time>2022-10-23T10:06:50Z</time>
      </trkpt>
      <trkpt lat="41.698597" lon="2.295616">
        <ele>426.048</ele>
        <time>2022-10-23T10:06:51Z</time>
      </trkpt>
      <trkpt lat="41.698593" lon="2.295642">
        <ele>426.464</ele>
        <time>2022-10-23T10:06:52Z</time>
      </trkpt>
      <trkpt lat="41.698586" lon="2.295664">
        <ele>426.667</ele>
        <time>2022-10-23T10:06:53Z</time>
      </trkpt>
      <trkpt lat="41.698578" lon="2.295685">
        <ele>426.863</ele>
        <time>2022-10-23T10:06:54Z</time>
      </trkpt>
      <trkpt lat="41.698570" lon="2.295712">
        <ele>427.031</ele>
        <time>2022-10-23T10:06:55Z</time>
      </trkpt>
      <trkpt lat="41.698561" lon="2.295746">
        <ele>427.467</ele>
        <time>2022-10-23T10:06:56Z</time>
      </trkpt>
      <trkpt lat="41.698552" lon="2.295787">
        <ele>427.857</ele>
        <time>2022-10-23T10:06:57Z</time>
      </trkpt>
      <trkpt lat="41.698544" lon="2.295828">
        <ele>428.230</ele>
        <time>2022-10-23T10:06:58Z</time>
      </trkpt>
      <trkpt lat="41.698536" lon="2.295867">
        <ele>428.425</ele>
        <time>2022-10-23T10:06:59Z</time>
      </trkpt>
      <trkpt lat="41.698524" lon="2.295902">
        <ele>428.626</ele>
        <time>2022-10-23T10:07:00Z</time>
      </trkpt>
      <trkpt lat="41.698507" lon="2.295936">
        <ele>428.808</ele>
        <time>2022-10-23T10:07:01Z</time>
      </trkpt>
      <trkpt lat="41.698495" lon="2.295970">
        <ele>429.009</ele>
        <time>2022-10-23T10:07:02Z</time>
      </trkpt>
      <trkpt lat="41.698486" lon="2.296004">
        <ele>429.283</ele>
        <time>2022-10-23T10:07:03Z</time>
      </trkpt>
      <trkpt lat="41.698475" lon="2.296038">
        <ele>429.213</ele>
        <time>2022-10-23T10:07:04Z</time>
      </trkpt>
      <trkpt lat="41.698464" lon="2.296072">
        <ele>429.279</ele>
        <time>2022-10-23T10:07:05Z</time>
      </trkpt>
      <trkpt lat="41.698452" lon="2.296105">
        <ele>429.472</ele>
        <time>2022-10-23T10:07:06Z</time>
      </trkpt>
      <trkpt lat="41.698437" lon="2.296136">
        <ele>429.428</ele>
        <time>2022-10-23T10:07:07Z</time>
      </trkpt>
      <trkpt lat="41.698420" lon="2.296172">
        <ele>429.496</ele>
        <time>2022-10-23T10:07:08Z</time>
      </trkpt>
      <trkpt lat="41.698402" lon="2.296210">
        <ele>429.492</ele>
        <time>2022-10-23T10:07:09Z</time>
      </trkpt>
      <trkpt lat="41.698384" lon="2.296249">
        <ele>429.422</ele>
        <time>2022-10-23T10:07:10Z</time>
      </trkpt>
      <trkpt lat="41.698363" lon="2.296284">
        <ele>429.635</ele>
        <time>2022-10-23T10:07:11Z</time>
      </trkpt>
      <trkpt lat="41.698339" lon="2.296313">
        <ele>429.685</ele>
        <time>2022-10-23T10:07:12Z</time>
      </trkpt>
      <trkpt lat="41.698314" lon="2.296332">
        <ele>429.689</ele>
        <time>2022-10-23T10:07:13Z</time>
      </trkpt>
      <trkpt lat="41.698285" lon="2.296342">
        <ele>429.617</ele>
        <time>2022-10-23T10:07:14Z</time>
      </trkpt>
      <trkpt lat="41.698255" lon="2.296341">
        <ele>429.609</ele>
        <time>2022-10-23T10:07:15Z</time>
      </trkpt>
      <trkpt lat="41.698229" lon="2.296341">
        <ele>429.669</ele>
        <time>2022-10-23T10:07:16Z</time>
      </trkpt>
      <trkpt lat="41.698203" lon="2.296341">
        <ele>429.879</ele>
        <time>2022-10-23T10:07:17Z</time>
      </trkpt>
      <trkpt lat="41.698177" lon="2.296339">
        <ele>429.835</ele>
        <time>2022-10-23T10:07:18Z</time>
      </trkpt>
      <trkpt lat="41.698154" lon="2.296336">
        <ele>429.828</ele>
        <time>2022-10-23T10:07:19Z</time>
      </trkpt>
      <trkpt lat="41.698134" lon="2.296334">
        <ele>429.894</ele>
        <time>2022-10-23T10:07:20Z</time>
      </trkpt>
      <trkpt lat="41.698113" lon="2.296332">
        <ele>430.212</ele>
        <time>2022-10-23T10:07:21Z</time>
      </trkpt>
      <trkpt lat="41.698093" lon="2.296328">
        <ele>430.658</ele>
        <time>2022-10-23T10:07:22Z</time>
      </trkpt>
      <trkpt lat="41.698072" lon="2.296327">
        <ele>431.228</ele>
        <time>2022-10-23T10:07:23Z</time>
      </trkpt>
      <trkpt lat="41.698052" lon="2.296329">
        <ele>431.841</ele>
        <time>2022-10-23T10:07:24Z</time>
      </trkpt>
      <trkpt lat="41.698032" lon="2.296334">
        <ele>432.447</ele>
        <time>2022-10-23T10:07:25Z</time>
      </trkpt>
      <trkpt lat="41.698009" lon="2.296343">
        <ele>432.829</ele>
        <time>2022-10-23T10:07:26Z</time>
      </trkpt>
      <trkpt lat="41.697987" lon="2.296358">
        <ele>433.421</ele>
        <time>2022-10-23T10:07:27Z</time>
      </trkpt>
      <trkpt lat="41.697965" lon="2.296375">
        <ele>434.009</ele>
        <time>2022-10-23T10:07:28Z</time>
      </trkpt>
      <trkpt lat="41.697942" lon="2.296390">
        <ele>434.675</ele>
        <time>2022-10-23T10:07:29Z</time>
      </trkpt>
      <trkpt lat="41.697923" lon="2.296408">
        <ele>435.475</ele>
        <time>2022-10-23T10:07:30Z</time>
      </trkpt>
      <trkpt lat="41.697905" lon="2.296430">
        <ele>435.861</ele>
        <time>2022-10-23T10:07:31Z</time>
      </trkpt>
      <trkpt lat="41.697883" lon="2.296450">
        <ele>436.684</ele>
        <time>2022-10-23T10:07:32Z</time>
      </trkpt>
      <trkpt lat="41.697859" lon="2.296470">
        <ele>437.260</ele>
        <time>2022-10-23T10:07:33Z</time>
      </trkpt>
      <trkpt lat="41.697833" lon="2.296488">
        <ele>437.628</ele>
        <time>2022-10-23T10:07:34Z</time>
      </trkpt>
      <trkpt lat="41.697811" lon="2.296506">
        <ele>438.074</ele>
        <time>2022-10-23T10:07:35Z</time>
      </trkpt>
      <trkpt lat="41.697790" lon="2.296527">
        <ele>438.244</ele>
        <time>2022-10-23T10:07:36Z</time>
      </trkpt>
      <trkpt lat="41.697769" lon="2.296552">
        <ele>438.617</ele>
        <time>2022-10-23T10:07:37Z</time>
      </trkpt>
      <trkpt lat="41.697748" lon="2.296572">
        <ele>438.884</ele>
        <time>2022-10-23T10:07:38Z</time>
      </trkpt>
      <trkpt lat="41.697731" lon="2.296589">
        <ele>439.207</ele>
        <time>2022-10-23T10:07:39Z</time>
      </trkpt>
      <trkpt lat="41.697711" lon="2.296600">
        <ele>439.217</ele>
        <time>2022-10-23T10:07:40Z</time>
      </trkpt>
      <trkpt lat="41.697689" lon="2.296601">
        <ele>439.209</ele>
        <time>2022-10-23T10:07:41Z</time>
      </trkpt>
      <trkpt lat="41.697669" lon="2.296600">
        <ele>439.489</ele>
        <time>2022-10-23T10:07:42Z</time>
      </trkpt>
      <trkpt lat="41.697651" lon="2.296590">
        <ele>439.639</ele>
        <time>2022-10-23T10:07:43Z</time>
      </trkpt>
      <trkpt lat="41.697631" lon="2.296577">
        <ele>440.025</ele>
        <time>2022-10-23T10:07:44Z</time>
      </trkpt>
      <trkpt lat="41.697613" lon="2.296559">
        <ele>440.288</ele>
        <time>2022-10-23T10:07:45Z</time>
      </trkpt>
      <trkpt lat="41.697593" lon="2.296543">
        <ele>440.474</ele>
        <time>2022-10-23T10:07:46Z</time>
      </trkpt>
      <trkpt lat="41.697572" lon="2.296521">
        <ele>440.862</ele>
        <time>2022-10-23T10:07:47Z</time>
      </trkpt>
      <trkpt lat="41.697551" lon="2.296495">
        <ele>440.848</ele>
        <time>2022-10-23T10:07:48Z</time>
      </trkpt>
      <trkpt lat="41.697530" lon="2.296468">
        <ele>441.028</ele>
        <time>2022-10-23T10:07:49Z</time>
      </trkpt>
      <trkpt lat="41.697510" lon="2.296440">
        <ele>441.221</ele>
        <time>2022-10-23T10:07:50Z</time>
      </trkpt>
      <trkpt lat="41.697491" lon="2.296415">
        <ele>441.291</ele>
        <time>2022-10-23T10:07:51Z</time>
      </trkpt>
      <trkpt lat="41.697474" lon="2.296387">
        <ele>441.281</ele>
        <time>2022-10-23T10:07:52Z</time>
      </trkpt>
      <trkpt lat="41.697456" lon="2.296362">
        <ele>441.419</ele>
        <time>2022-10-23T10:07:53Z</time>
      </trkpt>
      <trkpt lat="41.697433" lon="2.296342">
        <ele>441.409</ele>
        <time>2022-10-23T10:07:54Z</time>
      </trkpt>
      <trkpt lat="41.697406" lon="2.296320">
        <ele>441.440</ele>
        <time>2022-10-23T10:07:55Z</time>
      </trkpt>
      <trkpt lat="41.697380" lon="2.296299">
        <ele>441.420</ele>
        <time>2022-10-23T10:07:56Z</time>
      </trkpt>
      <trkpt lat="41.697353" lon="2.296280">
        <ele>441.456</ele>
        <time>2022-10-23T10:07:57Z</time>
      </trkpt>
      <trkpt lat="41.697323" lon="2.296262">
        <ele>441.429</ele>
        <time>2022-10-23T10:07:58Z</time>
      </trkpt>
      <trkpt lat="41.697293" lon="2.296245">
        <ele>441.425</ele>
        <time>2022-10-23T10:07:59Z</time>
      </trkpt>
      <trkpt lat="41.697263" lon="2.296234">
        <ele>441.443</ele>
        <time>2022-10-23T10:08:00Z</time>
      </trkpt>
      <trkpt lat="41.697234" lon="2.296226">
        <ele>441.299</ele>
        <time>2022-10-23T10:08:01Z</time>
      </trkpt>
      <trkpt lat="41.697209" lon="2.296222">
        <ele>441.279</ele>
        <time>2022-10-23T10:08:02Z</time>
      </trkpt>
      <trkpt lat="41.697194" lon="2.296222">
        <ele>441.082</ele>
        <time>2022-10-23T10:08:03Z</time>
      </trkpt>
      <trkpt lat="41.697189" lon="2.296222">
        <ele>441.066</ele>
        <time>2022-10-23T10:08:04Z</time>
      </trkpt>
      <trkpt lat="41.697185" lon="2.296225">
        <ele>440.829</ele>
        <time>2022-10-23T10:08:05Z</time>
      </trkpt>
      <trkpt lat="41.697092" lon="2.296218">
        <ele>436.621</ele>
        <time>2022-10-23T10:09:19Z</time>
      </trkpt>
      <trkpt lat="41.697088" lon="2.296202">
        <ele>436.609</ele>
        <time>2022-10-23T10:09:20Z</time>
      </trkpt>
      <trkpt lat="41.697093" lon="2.296185">
        <ele>436.657</ele>
        <time>2022-10-23T10:09:21Z</time>
      </trkpt>
      <trkpt lat="41.697101" lon="2.296165">
        <ele>436.657</ele>
        <time>2022-10-23T10:09:22Z</time>
      </trkpt>
      <trkpt lat="41.697114" lon="2.296143">
        <ele>436.483</ele>
        <time>2022-10-23T10:09:23Z</time>
      </trkpt>
      <trkpt lat="41.697124" lon="2.296124">
        <ele>436.486</ele>
        <time>2022-10-23T10:09:24Z</time>
      </trkpt>
      <trkpt lat="41.697135" lon="2.296104">
        <ele>436.262</ele>
        <time>2022-10-23T10:09:25Z</time>
      </trkpt>
      <trkpt lat="41.697147" lon="2.296083">
        <ele>436.050</ele>
        <time>2022-10-23T10:09:26Z</time>
      </trkpt>
      <trkpt lat="41.697165" lon="2.296066">
        <ele>435.616</ele>
        <time>2022-10-23T10:09:27Z</time>
      </trkpt>
      <trkpt lat="41.697189" lon="2.296054">
        <ele>435.056</ele>
        <time>2022-10-23T10:09:28Z</time>
      </trkpt>
      <trkpt lat="41.697212" lon="2.296032">
        <ele>434.689</ele>
        <time>2022-10-23T10:09:29Z</time>
      </trkpt>
      <trkpt lat="41.697226" lon="2.296012">
        <ele>434.264</ele>
        <time>2022-10-23T10:09:30Z</time>
      </trkpt>
      <trkpt lat="41.697228" lon="2.295983">
        <ele>433.606</ele>
        <time>2022-10-23T10:09:31Z</time>
      </trkpt>
      <trkpt lat="41.697222" lon="2.295961">
        <ele>433.216</ele>
        <time>2022-10-23T10:09:32Z</time>
      </trkpt>
      <trkpt lat="41.697209" lon="2.295936">
        <ele>432.609</ele>
        <time>2022-10-23T10:09:33Z</time>
      </trkpt>
      <trkpt lat="41.697198" lon="2.295916">
        <ele>431.837</ele>
        <time>2022-10-23T10:09:34Z</time>
      </trkpt>
      <trkpt lat="41.697186" lon="2.295902">
        <ele>431.497</ele>
        <time>2022-10-23T10:09:35Z</time>
      </trkpt>
      <trkpt lat="41.697178" lon="2.295899">
        <ele>431.013</ele>
        <time>2022-10-23T10:09:36Z</time>
      </trkpt>
      <trkpt lat="41.697170" lon="2.295892">
        <ele>430.816</ele>
        <time>2022-10-23T10:09:37Z</time>
      </trkpt>
      <trkpt lat="41.697160" lon="2.295885">
        <ele>430.292</ele>
        <time>2022-10-23T10:09:38Z</time>
      </trkpt>
      <trkpt lat="41.697157" lon="2.295883">
        <ele>429.410</ele>
        <time>2022-10-23T10:09:39Z</time>
      </trkpt>
      <trkpt lat="41.697153" lon="2.295879">
        <ele>428.446</ele>
        <time>2022-10-23T10:09:40Z</time>
      </trkpt>
      <trkpt lat="41.696996" lon="2.295797">
        <ele>423.086</ele>
        <time>2022-10-23T10:09:54Z</time>
      </trkpt>
      <trkpt lat="41.696973" lon="2.295806">
        <ele>422.659</ele>
        <time>2022-10-23T10:09:55Z</time>
      </trkpt>
      <trkpt lat="41.696954" lon="2.295818">
        <ele>422.444</ele>
        <time>2022-10-23T10:09:56Z</time>
      </trkpt>
      <trkpt lat="41.696938" lon="2.295830">
        <ele>422.005</ele>
        <time>2022-10-23T10:09:57Z</time>
      </trkpt>
      <trkpt lat="41.696916" lon="2.295829">
        <ele>421.815</ele>
        <time>2022-10-23T10:09:58Z</time>
      </trkpt>
      <trkpt lat="41.696890" lon="2.295818">
        <ele>421.609</ele>
        <time>2022-10-23T10:09:59Z</time>
      </trkpt>
      <trkpt lat="41.696860" lon="2.295796">
        <ele>421.475</ele>
        <time>2022-10-23T10:10:00Z</time>
      </trkpt>
      <trkpt lat="41.696831" lon="2.295778">
        <ele>421.095</ele>
        <time>2022-10-23T10:10:01Z</time>
      </trkpt>
      <trkpt lat="41.696799" lon="2.295772">
        <ele>420.661</ele>
        <time>2022-10-23T10:10:02Z</time>
      </trkpt>
      <trkpt lat="41.696761" lon="2.295775">
        <ele>420.244</ele>
        <time>2022-10-23T10:10:03Z</time>
      </trkpt>
      <trkpt lat="41.696717" lon="2.295778">
        <ele>419.850</ele>
        <time>2022-10-23T10:10:04Z</time>
      </trkpt>
      <trkpt lat="41.696676" lon="2.295783">
        <ele>419.428</ele>
        <time>2022-10-23T10:10:05Z</time>
      </trkpt>
      <trkpt lat="41.696639" lon="2.295775">
        <ele>419.214</ele>
        <time>2022-10-23T10:10:06Z</time>
      </trkpt>
      <trkpt lat="41.696599" lon="2.295762">
        <ele>418.464</ele>
        <time>2022-10-23T10:10:07Z</time>
      </trkpt>
      <trkpt lat="41.696557" lon="2.295745">
        <ele>417.027</ele>
        <time>2022-10-23T10:10:08Z</time>
      </trkpt>
      <trkpt lat="41.696512" lon="2.295729">
        <ele>415.887</ele>
        <time>2022-10-23T10:10:09Z</time>
      </trkpt>
      <trkpt lat="41.696469" lon="2.295711">
        <ele>414.842</ele>
        <time>2022-10-23T10:10:10Z</time>
      </trkpt>
      <trkpt lat="41.696428" lon="2.295697">
        <ele>413.826</ele>
        <time>2022-10-23T10:10:11Z</time>
      </trkpt>
      <trkpt lat="41.696385" lon="2.295692">
        <ele>412.609</ele>
        <time>2022-10-23T10:10:12Z</time>
      </trkpt>
      <trkpt lat="41.696343" lon="2.295687">
        <ele>411.289</ele>
        <time>2022-10-23T10:10:13Z</time>
      </trkpt>
      <trkpt lat="41.696309" lon="2.295682">
        <ele>410.219</ele>
        <time>2022-10-23T10:10:14Z</time>
      </trkpt>
      <trkpt lat="41.696268" lon="2.295688">
        <ele>409.255</ele>
        <time>2022-10-23T10:10:15Z</time>
      </trkpt>
      <trkpt lat="41.696228" lon="2.295691">
        <ele>407.248</ele>
        <time>2022-10-23T10:10:16Z</time>
      </trkpt>
      <trkpt lat="41.696183" lon="2.295691">
        <ele>406.074</ele>
        <time>2022-10-23T10:10:17Z</time>
      </trkpt>
      <trkpt lat="41.696141" lon="2.295686">
        <ele>404.642</ele>
        <time>2022-10-23T10:10:18Z</time>
      </trkpt>
      <trkpt lat="41.696114" lon="2.295676">
        <ele>403.678</ele>
        <time>2022-10-23T10:10:19Z</time>
      </trkpt>
      <trkpt lat="41.696105" lon="2.295654">
        <ele>402.688</ele>
        <time>2022-10-23T10:10:20Z</time>
      </trkpt>
      <trkpt lat="41.696103" lon="2.295625">
        <ele>401.871</ele>
        <time>2022-10-23T10:10:21Z</time>
      </trkpt>
      <trkpt lat="41.696094" lon="2.295596">
        <ele>400.663</ele>
        <time>2022-10-23T10:10:22Z</time>
      </trkpt>
      <trkpt lat="41.696082" lon="2.295554">
        <ele>399.444</ele>
        <time>2022-10-23T10:10:23Z</time>
      </trkpt>
      <trkpt lat="41.696072" lon="2.295518">
        <ele>398.018</ele>
        <time>2022-10-23T10:10:24Z</time>
      </trkpt>
      <trkpt lat="41.696070" lon="2.295496">
        <ele>396.809</ele>
        <time>2022-10-23T10:10:25Z</time>
      </trkpt>
      <trkpt lat="41.696060" lon="2.295477">
        <ele>395.427</ele>
        <time>2022-10-23T10:10:26Z</time>
      </trkpt>
      <trkpt lat="41.696045" lon="2.295455">
        <ele>394.237</ele>
        <time>2022-10-23T10:10:27Z</time>
      </trkpt>
      <trkpt lat="41.696027" lon="2.295438">
        <ele>393.413</ele>
        <time>2022-10-23T10:10:28Z</time>
      </trkpt>
      <trkpt lat="41.695996" lon="2.295439">
        <ele>392.456</ele>
        <time>2022-10-23T10:10:29Z</time>
      </trkpt>
      <trkpt lat="41.695967" lon="2.295448">
        <ele>391.092</ele>
        <time>2022-10-23T10:10:30Z</time>
      </trkpt>
      <trkpt lat="41.695931" lon="2.295439">
        <ele>389.640</ele>
        <time>2022-10-23T10:10:31Z</time>
      </trkpt>
      <trkpt lat="41.695903" lon="2.295410">
        <ele>388.466</ele>
        <time>2022-10-23T10:10:32Z</time>
      </trkpt>
      <trkpt lat="41.695878" lon="2.295371">
        <ele>387.436</ele>
        <time>2022-10-23T10:10:33Z</time>
      </trkpt>
      <trkpt lat="41.695857" lon="2.295331">
        <ele>386.819</ele>
        <time>2022-10-23T10:10:34Z</time>
      </trkpt>
      <trkpt lat="41.695833" lon="2.295289">
        <ele>385.638</ele>
        <time>2022-10-23T10:10:35Z</time>
      </trkpt>
      <trkpt lat="41.695799" lon="2.295253">
        <ele>384.670</ele>
        <time>2022-10-23T10:10:36Z</time>
      </trkpt>
      <trkpt lat="41.695754" lon="2.295215">
        <ele>383.417</ele>
        <time>2022-10-23T10:10:37Z</time>
      </trkpt>
      <trkpt lat="41.695715" lon="2.295174">
        <ele>382.809</ele>
        <time>2022-10-23T10:10:38Z</time>
      </trkpt>
      <trkpt lat="41.695683" lon="2.295125">
        <ele>382.254</ele>
        <time>2022-10-23T10:10:39Z</time>
      </trkpt>
      <trkpt lat="41.695664" lon="2.295074">
        <ele>381.454</ele>
        <time>2022-10-23T10:10:40Z</time>
      </trkpt>
      <trkpt lat="41.695650" lon="2.295020">
        <ele>380.470</ele>
        <time>2022-10-23T10:10:41Z</time>
      </trkpt>
      <trkpt lat="41.695641" lon="2.294974">
        <ele>379.253</ele>
        <time>2022-10-23T10:10:42Z</time>
      </trkpt>
      <trkpt lat="41.695644" lon="2.294927">
        <ele>376.689</ele>
        <time>2022-10-23T10:10:43Z</time>
      </trkpt>
      <trkpt lat="41.695671" lon="2.294894">
        <ele>375.067</ele>
        <time>2022-10-23T10:10:44Z</time>
      </trkpt>
      <trkpt lat="41.695702" lon="2.294876">
        <ele>373.873</ele>
        <time>2022-10-23T10:10:45Z</time>
      </trkpt>
      <trkpt lat="41.695730" lon="2.294855">
        <ele>372.483</ele>
        <time>2022-10-23T10:10:46Z</time>
      </trkpt>
      <trkpt lat="41.695748" lon="2.294829">
        <ele>371.296</ele>
        <time>2022-10-23T10:10:47Z</time>
      </trkpt>
      <trkpt lat="41.695757" lon="2.294802">
        <ele>370.254</ele>
        <time>2022-10-23T10:10:48Z</time>
      </trkpt>
      <trkpt lat="41.695754" lon="2.294768">
        <ele>369.256</ele>
        <time>2022-10-23T10:10:49Z</time>
      </trkpt>
      <trkpt lat="41.695738" lon="2.294721">
        <ele>368.011</ele>
        <time>2022-10-23T10:10:50Z</time>
      </trkpt>
      <trkpt lat="41.695717" lon="2.294677">
        <ele>367.409</ele>
        <time>2022-10-23T10:10:51Z</time>
      </trkpt>
      <trkpt lat="41.695701" lon="2.294637">
        <ele>367.016</ele>
        <time>2022-10-23T10:10:52Z</time>
      </trkpt>
      <trkpt lat="41.695691" lon="2.294592">
        <ele>366.636</ele>
        <time>2022-10-23T10:10:53Z</time>
      </trkpt>
      <trkpt lat="41.695682" lon="2.294542">
        <ele>366.442</ele>
        <time>2022-10-23T10:10:54Z</time>
      </trkpt>
      <trkpt lat="41.695679" lon="2.294489">
        <ele>366.245</ele>
        <time>2022-10-23T10:10:55Z</time>
      </trkpt>
      <trkpt lat="41.695669" lon="2.294435">
        <ele>366.211</ele>
        <time>2022-10-23T10:10:56Z</time>
      </trkpt>
      <trkpt lat="41.695665" lon="2.294382">
        <ele>365.689</ele>
        <time>2022-10-23T10:10:57Z</time>
      </trkpt>
      <trkpt lat="41.695658" lon="2.294325">
        <ele>364.465</ele>
        <time>2022-10-23T10:10:58Z</time>
      </trkpt>
      <trkpt lat="41.695641" lon="2.294269">
        <ele>363.265</ele>
        <time>2022-10-23T10:10:59Z</time>
      </trkpt>
      <trkpt lat="41.695624" lon="2.294226">
        <ele>362.238</ele>
        <time>2022-10-23T10:11:00Z</time>
      </trkpt>
      <trkpt lat="41.695609" lon="2.294189">
        <ele>361.012</ele>
        <time>2022-10-23T10:11:01Z</time>
      </trkpt>
      <trkpt lat="41.695602" lon="2.294157">
        <ele>360.032</ele>
        <time>2022-10-23T10:11:02Z</time>
      </trkpt>
      <trkpt lat="41.695601" lon="2.294134">
        <ele>358.805</ele>
        <time>2022-10-23T10:11:03Z</time>
      </trkpt>
      <trkpt lat="41.695598" lon="2.294116">
        <ele>357.809</ele>
        <time>2022-10-23T10:11:04Z</time>
      </trkpt>
      <trkpt lat="41.695589" lon="2.294103">
        <ele>357.092</ele>
        <time>2022-10-23T10:11:05Z</time>
      </trkpt>
      <trkpt lat="41.695580" lon="2.294090">
        <ele>355.822</ele>
        <time>2022-10-23T10:11:06Z</time>
      </trkpt>
      <trkpt lat="41.695535" lon="2.293942">
        <ele>350.468</ele>
        <time>2022-10-23T10:11:25Z</time>
      </trkpt>
      <trkpt lat="41.695538" lon="2.293910">
        <ele>350.411</ele>
        <time>2022-10-23T10:11:26Z</time>
      </trkpt>
      <trkpt lat="41.695534" lon="2.293884">
        <ele>350.437</ele>
        <time>2022-10-23T10:11:27Z</time>
      </trkpt>
      <trkpt lat="41.695522" lon="2.293857">
        <ele>350.445</ele>
        <time>2022-10-23T10:11:28Z</time>
      </trkpt>
      <trkpt lat="41.695503" lon="2.293836">
        <ele>350.231</ele>
        <time>2022-10-23T10:11:29Z</time>
      </trkpt>
      <trkpt lat="41.695476" lon="2.293813">
        <ele>350.211</ele>
        <time>2022-10-23T10:11:30Z</time>
      </trkpt>
      <trkpt lat="41.695451" lon="2.293786">
        <ele>350.074</ele>
        <time>2022-10-23T10:11:31Z</time>
      </trkpt>
      <trkpt lat="41.695425" lon="2.293757">
        <ele>349.692</ele>
        <time>2022-10-23T10:11:32Z</time>
      </trkpt>
      <trkpt lat="41.695396" lon="2.293729">
        <ele>349.073</ele>
        <time>2022-10-23T10:11:33Z</time>
      </trkpt>
      <trkpt lat="41.695363" lon="2.293697">
        <ele>348.420</ele>
        <time>2022-10-23T10:11:34Z</time>
      </trkpt>
      <trkpt lat="41.695336" lon="2.293668">
        <ele>347.409</ele>
        <time>2022-10-23T10:11:35Z</time>
      </trkpt>
      <trkpt lat="41.695319" lon="2.293636">
        <ele>346.680</ele>
        <time>2022-10-23T10:11:36Z</time>
      </trkpt>
      <trkpt lat="41.695315" lon="2.293593">
        <ele>345.870</ele>
        <time>2022-10-23T10:11:37Z</time>
      </trkpt>
      <trkpt lat="41.695323" lon="2.293550">
        <ele>345.236</ele>
        <time>2022-10-23T10:11:38Z</time>
      </trkpt>
      <trkpt lat="41.695331" lon="2.293501">
        <ele>344.679</ele>
        <time>2022-10-23T10:11:39Z</time>
      </trkpt>
      <trkpt lat="41.695332" lon="2.293454">
        <ele>343.085</ele>
        <time>2022-10-23T10:11:40Z</time>
      </trkpt>
      <trkpt lat="41.695327" lon="2.293412">
        <ele>342.653</ele>
        <time>2022-10-23T10:11:41Z</time>
      </trkpt>
      <trkpt lat="41.695314" lon="2.293385">
        <ele>342.049</ele>
        <time>2022-10-23T10:11:42Z</time>
      </trkpt>
      <trkpt lat="41.695292" lon="2.293355">
        <ele>341.259</ele>
        <time>2022-10-23T10:11:43Z</time>
      </trkpt>
      <trkpt lat="41.695270" lon="2.293320">
        <ele>339.862</ele>
        <time>2022-10-23T10:11:44Z</time>
      </trkpt>
      <trkpt lat="41.695255" lon="2.293280">
        <ele>338.898</ele>
        <time>2022-10-23T10:11:45Z</time>
      </trkpt>
      <trkpt lat="41.695240" lon="2.293233">
        <ele>337.815</ele>
        <time>2022-10-23T10:11:46Z</time>
      </trkpt>
      <trkpt lat="41.695228" lon="2.293183">
        <ele>337.226</ele>
        <time>2022-10-23T10:11:47Z</time>
      </trkpt>
      <trkpt lat="41.695222" lon="2.293138">
        <ele>336.809</ele>
        <time>2022-10-23T10:11:48Z</time>
      </trkpt>
      <trkpt lat="41.695228" lon="2.293089">
        <ele>336.680</ele>
        <time>2022-10-23T10:11:49Z</time>
      </trkpt>
      <trkpt lat="41.695243" lon="2.293032">
        <ele>336.620</ele>
        <time>2022-10-23T10:11:50Z</time>
      </trkpt>
      <trkpt lat="41.695258" lon="2.292975">
        <ele>336.466</ele>
        <time>2022-10-23T10:11:51Z</time>
      </trkpt>
      <trkpt lat="41.695267" lon="2.292924">
        <ele>336.249</ele>
        <time>2022-10-23T10:11:52Z</time>
      </trkpt>
      <trkpt lat="41.695272" lon="2.292875">
        <ele>336.065</ele>
        <time>2022-10-23T10:11:53Z</time>
      </trkpt>
      <trkpt lat="41.695278" lon="2.292815">
        <ele>335.853</ele>
        <time>2022-10-23T10:11:54Z</time>
      </trkpt>
      <trkpt lat="41.695290" lon="2.292756">
        <ele>335.689</ele>
        <time>2022-10-23T10:11:55Z</time>
      </trkpt>
      <trkpt lat="41.695295" lon="2.292693">
        <ele>335.429</ele>
        <time>2022-10-23T10:11:56Z</time>
      </trkpt>
      <trkpt lat="41.695299" lon="2.292625">
        <ele>335.222</ele>
        <time>2022-10-23T10:11:57Z</time>
      </trkpt>
      <trkpt lat="41.695298" lon="2.292552">
        <ele>334.896</ele>
        <time>2022-10-23T10:11:58Z</time>
      </trkpt>
      <trkpt lat="41.695293" lon="2.292473">
        <ele>333.831</ele>
        <time>2022-10-23T10:11:59Z</time>
      </trkpt>
      <trkpt lat="41.695280" lon="2.292399">
        <ele>333.024</ele>
        <time>2022-10-23T10:12:00Z</time>
      </trkpt>
      <trkpt lat="41.695267" lon="2.292340">
        <ele>332.409</ele>
        <time>2022-10-23T10:12:01Z</time>
      </trkpt>
      <trkpt lat="41.695247" lon="2.292288">
        <ele>331.820</ele>
        <time>2022-10-23T10:12:02Z</time>
      </trkpt>
      <trkpt lat="41.695213" lon="2.292253">
        <ele>331.080</ele>
        <time>2022-10-23T10:12:03Z</time>
      </trkpt>
      <trkpt lat="41.695183" lon="2.292218">
        <ele>330.026</ele>
        <time>2022-10-23T10:12:04Z</time>
      </trkpt>
      <trkpt lat="41.695168" lon="2.292198">
        <ele>328.829</ele>
        <time>2022-10-23T10:12:05Z</time>
      </trkpt>
      <trkpt lat="41.695161" lon="2.292193">
        <ele>328.285</ele>
        <time>2022-10-23T10:12:06Z</time>
      </trkpt>
      <trkpt lat="41.695158" lon="2.292188">
        <ele>326.813</ele>
        <time>2022-10-23T10:12:07Z</time>
      </trkpt>
      <trkpt lat="41.695156" lon="2.292187">
        <ele>326.249</ele>
        <time>2022-10-23T10:12:08Z</time>
      </trkpt>
      <trkpt lat="41.695092" lon="2.292051">
        <ele>324.879</ele>
        <time>2022-10-23T10:12:19Z</time>
      </trkpt>
      <trkpt lat="41.695079" lon="2.291994">
        <ele>324.812</ele>
        <time>2022-10-23T10:12:20Z</time>
      </trkpt>
      <trkpt lat="41.695077" lon="2.291939">
        <ele>324.892</ele>
        <time>2022-10-23T10:12:21Z</time>
      </trkpt>
      <trkpt lat="41.695086" lon="2.291884">
        <ele>324.873</ele>
        <time>2022-10-23T10:12:22Z</time>
      </trkpt>
      <trkpt lat="41.695099" lon="2.291824">
        <ele>324.620</ele>
        <time>2022-10-23T10:12:23Z</time>
      </trkpt>
      <trkpt lat="41.695116" lon="2.291771">
        <ele>324.609</ele>
        <time>2022-10-23T10:12:24Z</time>
      </trkpt>
      <trkpt lat="41.695126" lon="2.291729">
        <ele>324.470</ele>
        <time>2022-10-23T10:12:25Z</time>
      </trkpt>
      <trkpt lat="41.695142" lon="2.291706">
        <ele>324.080</ele>
        <time>2022-10-23T10:12:26Z</time>
      </trkpt>
      <trkpt lat="41.695164" lon="2.291690">
        <ele>323.686</ele>
        <time>2022-10-23T10:12:27Z</time>
      </trkpt>
      <trkpt lat="41.695186" lon="2.291678">
        <ele>323.089</ele>
        <time>2022-10-23T10:12:28Z</time>
      </trkpt>
      <trkpt lat="41.695212" lon="2.291678">
        <ele>322.225</ele>
        <time>2022-10-23T10:12:29Z</time>
      </trkpt>
      <trkpt lat="41.695238" lon="2.291680">
        <ele>321.483</ele>
        <time>2022-10-23T10:12:30Z</time>
      </trkpt>
      <trkpt lat="41.695257" lon="2.291688">
        <ele>320.669</ele>
        <time>2022-10-23T10:12:31Z</time>
      </trkpt>
      <trkpt lat="41.695271" lon="2.291702">
        <ele>319.829</ele>
        <time>2022-10-23T10:12:32Z</time>
      </trkpt>
      <trkpt lat="41.695283" lon="2.291719">
        <ele>319.022</ele>
        <time>2022-10-23T10:12:33Z</time>
      </trkpt>
      <trkpt lat="41.695293" lon="2.291735">
        <ele>318.477</ele>
        <time>2022-10-23T10:12:34Z</time>
      </trkpt>
      <trkpt lat="41.695301" lon="2.291747">
        <ele>317.661</ele>
        <time>2022-10-23T10:12:35Z</time>
      </trkpt>
      <trkpt lat="41.695310" lon="2.291756">
        <ele>317.427</ele>
        <time>2022-10-23T10:12:36Z</time>
      </trkpt>
      <trkpt lat="41.695317" lon="2.291765">
        <ele>317.009</ele>
        <time>2022-10-23T10:12:37Z</time>
      </trkpt>
      <trkpt lat="41.695327" lon="2.291774">
        <ele>316.898</ele>
        <time>2022-10-23T10:12:38Z</time>
      </trkpt>
      <trkpt lat="41.695337" lon="2.291787">
        <ele>316.628</ele>
        <time>2022-10-23T10:12:39Z</time>
      </trkpt>
      <trkpt lat="41.695343" lon="2.291799">
        <ele>316.634</ele>
        <time>2022-10-23T10:12:40Z</time>
      </trkpt>
      <trkpt lat="41.695346" lon="2.291805">
        <ele>316.667</ele>
        <time>2022-10-23T10:12:41Z</time>
      </trkpt>
      <trkpt lat="41.695345" lon="2.291802">
        <ele>316.423</ele>
        <time>2022-10-23T10:12:42Z</time>
      </trkpt>
      <trkpt lat="41.695343" lon="2.291800">
        <ele>316.451</ele>
        <time>2022-10-23T10:12:43Z</time>
      </trkpt>
      <trkpt lat="41.695359" lon="2.291832">
        <ele>315.487</ele>
        <time>2022-10-23T10:13:07Z</time>
      </trkpt>
      <trkpt lat="41.695369" lon="2.291859">
        <ele>315.477</ele>
        <time>2022-10-23T10:13:08Z</time>
      </trkpt>
      <trkpt lat="41.695382" lon="2.291892">
        <ele>315.490</ele>
        <time>2022-10-23T10:13:09Z</time>
      </trkpt>
      <trkpt lat="41.695400" lon="2.291920">
        <ele>315.456</ele>
        <time>2022-10-23T10:13:10Z</time>
      </trkpt>
      <trkpt lat="41.695423" lon="2.291931">
        <ele>315.459</ele>
        <time>2022-10-23T10:13:11Z</time>
      </trkpt>
      <trkpt lat="41.695451" lon="2.291925">
        <ele>315.214</ele>
        <time>2022-10-23T10:13:12Z</time>
      </trkpt>
      <trkpt lat="41.695473" lon="2.291903">
        <ele>315.209</ele>
        <time>2022-10-23T10:13:13Z</time>
      </trkpt>
      <trkpt lat="41.695490" lon="2.291881">
        <ele>315.246</ele>
        <time>2022-10-23T10:13:14Z</time>
      </trkpt>
      <trkpt lat="41.695505" lon="2.291866">
        <ele>315.016</ele>
        <time>2022-10-23T10:13:15Z</time>
      </trkpt>
      <trkpt lat="41.695516" lon="2.291843">
        <ele>315.082</ele>
        <time>2022-10-23T10:13:16Z</time>
      </trkpt>
      <trkpt lat="41.695533" lon="2.291825">
        <ele>315.045</ele>
        <time>2022-10-23T10:13:17Z</time>
      </trkpt>
      <trkpt lat="41.695551" lon="2.291805">
        <ele>315.021</ele>
        <time>2022-10-23T10:13:18Z</time>
      </trkpt>
      <trkpt lat="41.695569" lon="2.291787">
        <ele>315.019</ele>
        <time>2022-10-23T10:13:19Z</time>
      </trkpt>
      <trkpt lat="41.695587" lon="2.291765">
        <ele>315.035</ele>
        <time>2022-10-23T10:13:20Z</time>
      </trkpt>
      <trkpt lat="41.695609" lon="2.291746">
        <ele>314.825</ele>
        <time>2022-10-23T10:13:21Z</time>
      </trkpt>
      <trkpt lat="41.695627" lon="2.291726">
        <ele>314.878</ele>
        <time>2022-10-23T10:13:22Z</time>
      </trkpt>
      <trkpt lat="41.695639" lon="2.291707">
        <ele>314.838</ele>
        <time>2022-10-23T10:13:23Z</time>
      </trkpt>
      <trkpt lat="41.695649" lon="2.291690">
        <ele>314.870</ele>
        <time>2022-10-23T10:13:24Z</time>
      </trkpt>
      <trkpt lat="41.695657" lon="2.291670">
        <ele>314.817</ele>
        <time>2022-10-23T10:13:25Z</time>
      </trkpt>
      <trkpt lat="41.695663" lon="2.291645">
        <ele>314.809</ele>
        <time>2022-10-23T10:13:26Z</time>
      </trkpt>
      <trkpt lat="41.695669" lon="2.291613">
        <ele>314.834</ele>
        <time>2022-10-23T10:13:27Z</time>
      </trkpt>
      <trkpt lat="41.695677" lon="2.291578">
        <ele>314.874</ele>
        <time>2022-10-23T10:13:28Z</time>
      </trkpt>
      <trkpt lat="41.695685" lon="2.291538">
        <ele>314.810</ele>
        <time>2022-10-23T10:13:29Z</time>
      </trkpt>
      <trkpt lat="41.695698" lon="2.291493">
        <ele>314.883</ele>
        <time>2022-10-23T10:13:30Z</time>
      </trkpt>
      <trkpt lat="41.695716" lon="2.291444">
        <ele>314.869</ele>
        <time>2022-10-23T10:13:31Z</time>
      </trkpt>
      <trkpt lat="41.695742" lon="2.291399">
        <ele>314.687</ele>
        <time>2022-10-23T10:13:32Z</time>
      </trkpt>
      <trkpt lat="41.695774" lon="2.291370">
        <ele>314.483</ele>
        <time>2022-10-23T10:13:33Z</time>
      </trkpt>
      <trkpt lat="41.695805" lon="2.291353">
        <ele>314.293</ele>
        <time>2022-10-23T10:13:34Z</time>
      </trkpt>
      <trkpt lat="41.695833" lon="2.291339">
        <ele>314.016</ele>
        <time>2022-10-23T10:13:35Z</time>
      </trkpt>
      <trkpt lat="41.695861" lon="2.291330">
        <ele>314.083</ele>
        <time>2022-10-23T10:13:36Z</time>
      </trkpt>
      <trkpt lat="41.695885" lon="2.291322">
        <ele>314.025</ele>
        <time>2022-10-23T10:13:37Z</time>
      </trkpt>
      <trkpt lat="41.695908" lon="2.291310">
        <ele>314.217</ele>
        <time>2022-10-23T10:13:38Z</time>
      </trkpt>
      <trkpt lat="41.695930" lon="2.291295">
        <ele>314.209</ele>
        <time>2022-10-23T10:13:39Z</time>
      </trkpt>
      <trkpt lat="41.695951" lon="2.291274">
        <ele>314.469</ele>
        <time>2022-10-23T10:13:40Z</time>
      </trkpt>
      <trkpt lat="41.695968" lon="2.291250">
        <ele>314.419</ele>
        <time>2022-10-23T10:13:41Z</time>
      </trkpt>
      <trkpt lat="41.695985" lon="2.291226">
        <ele>314.425</ele>
        <time>2022-10-23T10:13:42Z</time>
      </trkpt>
      <trkpt lat="41.696003" lon="2.291201">
        <ele>314.628</ele>
        <time>2022-10-23T10:13:43Z</time>
      </trkpt>
      <trkpt lat="41.696017" lon="2.291170">
        <ele>314.684</ele>
        <time>2022-10-23T10:13:44Z</time>
      </trkpt>
      <trkpt lat="41.696031" lon="2.291143">
        <ele>314.612</ele>
        <time>2022-10-23T10:13:45Z</time>
      </trkpt>
      <trkpt lat="41.696048" lon="2.291120">
        <ele>314.698</ele>
        <time>2022-10-23T10:13:46Z</time>
      </trkpt>
      <trkpt lat="41.696065" lon="2.291095">
        <ele>314.828</ele>
        <time>2022-10-23T10:13:47Z</time>
      </trkpt>
      <trkpt lat="41.696081" lon="2.291070">
        <ele>315.271</ele>
        <time>2022-10-23T10:13:48Z</time>
      </trkpt>
      <trkpt lat="41.696101" lon="2.291044">
        <ele>315.652</ele>
        <time>2022-10-23T10:13:49Z</time>
      </trkpt>
      <trkpt lat="41.696121" lon="2.291018">
        <ele>316.053</ele>
        <time>2022-10-23T10:13:50Z</time>
      </trkpt>
      <trkpt lat="41.696143" lon="2.290994">
        <ele>316.208</ele>
        <time>2022-10-23T10:13:51Z</time>
      </trkpt>
      <trkpt lat="41.696164" lon="2.290972">
        <ele>316.809</ele>
        <time>2022-10-23T10:13:52Z</time>
      </trkpt>
      <trkpt lat="41.696186" lon="2.290948">
        <ele>317.416</ele>
        <time>2022-10-23T10:13:53Z</time>
      </trkpt>
      <trkpt lat="41.696209" lon="2.290924">
        <ele>317.656</ele>
        <time>2022-10-23T10:13:54Z</time>
      </trkpt>
      <trkpt lat="41.696232" lon="2.290897">
        <ele>318.262</ele>
        <time>2022-10-23T10:13:55Z</time>
      </trkpt>
      <trkpt lat="41.696257" lon="2.290870">
        <ele>318.825</ele>
        <time>2022-10-23T10:13:56Z</time>
      </trkpt>
      <trkpt lat="41.696281" lon="2.290845">
        <ele>319.241</ele>
        <time>2022-10-23T10:13:57Z</time>
      </trkpt>
      <trkpt lat="41.696305" lon="2.290822">
        <ele>319.899</ele>
        <time>2022-10-23T10:13:58Z</time>
      </trkpt>
      <trkpt lat="41.696326" lon="2.290807">
        <ele>320.245</ele>
        <time>2022-10-23T10:13:59Z</time>
      </trkpt>
      <trkpt lat="41.696348" lon="2.290800">
        <ele>320.685</ele>
        <time>2022-10-23T10:14:00Z</time>
      </trkpt>
      <trkpt lat="41.696373" lon="2.290796">
        <ele>320.848</ele>
        <time>2022-10-23T10:14:01Z</time>
      </trkpt>
      <trkpt lat="41.696401" lon="2.290800">
        <ele>321.084</ele>
        <time>2022-10-23T10:14:02Z</time>
      </trkpt>
      <trkpt lat="41.696428" lon="2.290805">
        <ele>321.407</ele>
        <time>2022-10-23T10:14:03Z</time>
      </trkpt>
      <trkpt lat="41.696458" lon="2.290812">
        <ele>321.617</ele>
        <time>2022-10-23T10:14:04Z</time>
      </trkpt>
      <trkpt lat="41.696488" lon="2.290817">
        <ele>322.009</ele>
        <time>2022-10-23T10:14:05Z</time>
      </trkpt>
      <trkpt lat="41.696516" lon="2.290818">
        <ele>322.629</ele>
        <time>2022-10-23T10:14:06Z</time>
      </trkpt>
      <trkpt lat="41.696539" lon="2.290814">
        <ele>323.219</ele>
        <time>2022-10-23T10:14:07Z</time>
      </trkpt>
      <trkpt lat="41.696563" lon="2.290804">
        <ele>323.635</ele>
        <time>2022-10-23T10:14:08Z</time>
      </trkpt>
      <trkpt lat="41.696586" lon="2.290788">
        <ele>324.288</ele>
        <time>2022-10-23T10:14:09Z</time>
      </trkpt>
      <trkpt lat="41.696613" lon="2.290774">
        <ele>324.654</ele>
        <time>2022-10-23T10:14:10Z</time>
      </trkpt>
      <trkpt lat="41.696643" lon="2.290764">
        <ele>325.082</ele>
        <time>2022-10-23T10:14:11Z</time>
      </trkpt>
      <trkpt lat="41.696674" lon="2.290754">
        <ele>325.418</ele>
        <time>2022-10-23T10:14:12Z</time>
      </trkpt>
      <trkpt lat="41.696704" lon="2.290754">
        <ele>325.888</ele>
        <time>2022-10-23T10:14:13Z</time>
      </trkpt>
      <trkpt lat="41.696736" lon="2.290762">
        <ele>325.821</ele>
        <time>2022-10-23T10:14:14Z</time>
      </trkpt>
      <trkpt lat="41.696772" lon="2.290781">
        <ele>326.077</ele>
        <time>2022-10-23T10:14:15Z</time>
      </trkpt>
      <trkpt lat="41.696813" lon="2.290806">
        <ele>326.061</ele>
        <time>2022-10-23T10:14:16Z</time>
      </trkpt>
      <trkpt lat="41.696856" lon="2.290836">
        <ele>326.027</ele>
        <time>2022-10-23T10:14:17Z</time>
      </trkpt>
      <trkpt lat="41.696900" lon="2.290864">
        <ele>326.009</ele>
        <time>2022-10-23T10:14:18Z</time>
      </trkpt>
      <trkpt lat="41.696945" lon="2.290902">
        <ele>326.078</ele>
        <time>2022-10-23T10:14:19Z</time>
      </trkpt>
      <trkpt lat="41.696988" lon="2.290945">
        <ele>326.028</ele>
        <time>2022-10-23T10:14:20Z</time>
      </trkpt>
      <trkpt lat="41.697027" lon="2.290991">
        <ele>326.094</ele>
        <time>2022-10-23T10:14:21Z</time>
      </trkpt>
      <trkpt lat="41.697065" lon="2.291042">
        <ele>326.077</ele>
        <time>2022-10-23T10:14:22Z</time>
      </trkpt>
      <trkpt lat="41.697102" lon="2.291084">
        <ele>326.043</ele>
        <time>2022-10-23T10:14:23Z</time>
      </trkpt>
      <trkpt lat="41.697138" lon="2.291108">
        <ele>325.871</ele>
        <time>2022-10-23T10:14:24Z</time>
      </trkpt>
      <trkpt lat="41.697179" lon="2.291111">
        <ele>325.017</ele>
        <time>2022-10-23T10:14:25Z</time>
      </trkpt>
      <trkpt lat="41.697226" lon="2.291102">
        <ele>324.637</ele>
        <time>2022-10-23T10:14:26Z</time>
      </trkpt>
      <trkpt lat="41.697279" lon="2.291094">
        <ele>324.420</ele>
        <time>2022-10-23T10:14:27Z</time>
      </trkpt>
      <trkpt lat="41.697336" lon="2.291082">
        <ele>323.892</ele>
        <time>2022-10-23T10:14:28Z</time>
      </trkpt>
      <trkpt lat="41.697400" lon="2.291083">
        <ele>323.073</ele>
        <time>2022-10-23T10:14:29Z</time>
      </trkpt>
      <trkpt lat="41.697467" lon="2.291101">
        <ele>322.220</ele>
        <time>2022-10-23T10:14:30Z</time>
      </trkpt>
      <trkpt lat="41.697535" lon="2.291128">
        <ele>321.609</ele>
        <time>2022-10-23T10:14:31Z</time>
      </trkpt>
      <trkpt lat="41.697599" lon="2.291159">
        <ele>321.230</ele>
        <time>2022-10-23T10:14:32Z</time>
      </trkpt>
      <trkpt lat="41.697662" lon="2.291195">
        <ele>320.850</ele>
        <time>2022-10-23T10:14:33Z</time>
      </trkpt>
      <trkpt lat="41.697721" lon="2.291238">
        <ele>320.416</ele>
        <time>2022-10-23T10:14:34Z</time>
      </trkpt>
      <trkpt lat="41.697774" lon="2.291282">
        <ele>320.069</ele>
        <time>2022-10-23T10:14:35Z</time>
      </trkpt>
      <trkpt lat="41.697809" lon="2.291323">
        <ele>319.275</ele>
        <time>2022-10-23T10:14:36Z</time>
      </trkpt>
      <trkpt lat="41.697830" lon="2.291364">
        <ele>318.693</ele>
        <time>2022-10-23T10:14:37Z</time>
      </trkpt>
      <trkpt lat="41.697848" lon="2.291411">
        <ele>318.039</ele>
        <time>2022-10-23T10:14:38Z</time>
      </trkpt>
      <trkpt lat="41.697862" lon="2.291465">
        <ele>317.639</ele>
        <time>2022-10-23T10:14:39Z</time>
      </trkpt>
      <trkpt lat="41.697884" lon="2.291515">
        <ele>317.082</ele>
        <time>2022-10-23T10:14:40Z</time>
      </trkpt>
      <trkpt lat="41.697914" lon="2.291547">
        <ele>316.631</ele>
        <time>2022-10-23T10:14:41Z</time>
      </trkpt>
      <trkpt lat="41.697951" lon="2.291540">
        <ele>316.261</ele>
        <time>2022-10-23T10:14:42Z</time>
      </trkpt>
      <trkpt lat="41.697990" lon="2.291507">
        <ele>316.007</ele>
        <time>2022-10-23T10:14:43Z</time>
      </trkpt>
      <trkpt lat="41.698028" lon="2.291482">
        <ele>315.809</ele>
        <time>2022-10-23T10:14:44Z</time>
      </trkpt>
      <trkpt lat="41.698065" lon="2.291462">
        <ele>315.894</ele>
        <time>2022-10-23T10:14:45Z</time>
      </trkpt>
      <trkpt lat="41.698102" lon="2.291441">
        <ele>315.654</ele>
        <time>2022-10-23T10:14:46Z</time>
      </trkpt>
      <trkpt lat="41.698132" lon="2.291412">
        <ele>315.040</ele>
        <time>2022-10-23T10:14:47Z</time>
      </trkpt>
      <trkpt lat="41.698150" lon="2.291369">
        <ele>314.463</ele>
        <time>2022-10-23T10:14:48Z</time>
      </trkpt>
      <trkpt lat="41.698165" lon="2.291320">
        <ele>314.299</ele>
        <time>2022-10-23T10:14:49Z</time>
      </trkpt>
      <trkpt lat="41.698173" lon="2.291263">
        <ele>314.047</ele>
        <time>2022-10-23T10:14:50Z</time>
      </trkpt>
      <trkpt lat="41.698177" lon="2.291209">
        <ele>313.863</ele>
        <time>2022-10-23T10:14:51Z</time>
      </trkpt>
      <trkpt lat="41.698179" lon="2.291152">
        <ele>313.643</ele>
        <time>2022-10-23T10:14:52Z</time>
      </trkpt>
      <trkpt lat="41.698197" lon="2.291103">
        <ele>313.416</ele>
        <time>2022-10-23T10:14:53Z</time>
      </trkpt>
      <trkpt lat="41.698230" lon="2.291075">
        <ele>313.454</ele>
        <time>2022-10-23T10:14:54Z</time>
      </trkpt>
      <trkpt lat="41.698283" lon="2.291062">
        <ele>313.456</ele>
        <time>2022-10-23T10:14:55Z</time>
      </trkpt>
      <trkpt lat="41.698338" lon="2.291036">
        <ele>313.411</ele>
        <time>2022-10-23T10:14:56Z</time>
      </trkpt>
      <trkpt lat="41.698383" lon="2.290999">
        <ele>313.409</ele>
        <time>2022-10-23T10:14:57Z</time>
      </trkpt>
      <trkpt lat="41.698410" lon="2.290938">
        <ele>313.296</ele>
        <time>2022-10-23T10:14:58Z</time>
      </trkpt>
      <trkpt lat="41.698426" lon="2.290880">
        <ele>312.656</ele>
        <time>2022-10-23T10:14:59Z</time>
      </trkpt>
      <trkpt lat="41.698441" lon="2.290817">
        <ele>312.292</ele>
        <time>2022-10-23T10:15:00Z</time>
      </trkpt>
      <trkpt lat="41.698463" lon="2.290766">
        <ele>311.465</ele>
        <time>2022-10-23T10:15:01Z</time>
      </trkpt>
      <trkpt lat="41.698493" lon="2.290718">
        <ele>310.671</ele>
        <time>2022-10-23T10:15:02Z</time>
      </trkpt>
      <trkpt lat="41.698526" lon="2.290666">
        <ele>309.859</ele>
        <time>2022-10-23T10:15:03Z</time>
      </trkpt>
      <trkpt lat="41.698549" lon="2.290605">
        <ele>309.485</ele>
        <time>2022-10-23T10:15:04Z</time>
      </trkpt>
      <trkpt lat="41.698553" lon="2.290540">
        <ele>309.015</ele>
        <time>2022-10-23T10:15:05Z</time>
      </trkpt>
      <trkpt lat="41.698546" lon="2.290475">
        <ele>308.818</ele>
        <time>2022-10-23T10:15:06Z</time>
      </trkpt>
      <trkpt lat="41.698536" lon="2.290418">
        <ele>308.899</ele>
        <time>2022-10-23T10:15:07Z</time>
      </trkpt>
      <trkpt lat="41.698530" lon="2.290359">
        <ele>308.607</ele>
        <time>2022-10-23T10:15:08Z</time>
      </trkpt>
      <trkpt lat="41.698531" lon="2.290298">
        <ele>308.227</ele>
        <time>2022-10-23T10:15:09Z</time>
      </trkpt>
      <trkpt lat="41.698538" lon="2.290239">
        <ele>307.809</ele>
        <time>2022-10-23T10:15:10Z</time>
      </trkpt>
      <trkpt lat="41.698553" lon="2.290193">
        <ele>307.810</ele>
        <time>2022-10-23T10:15:11Z</time>
      </trkpt>
      <trkpt lat="41.698577" lon="2.290157">
        <ele>307.690</ele>
        <time>2022-10-23T10:15:12Z</time>
      </trkpt>
      <trkpt lat="41.698599" lon="2.290127">
        <ele>307.476</ele>
        <time>2022-10-23T10:15:13Z</time>
      </trkpt>
      <trkpt lat="41.698619" lon="2.290110">
        <ele>307.429</ele>
        <time>2022-10-23T10:15:14Z</time>
      </trkpt>
      <trkpt lat="41.698638" lon="2.290103">
        <ele>307.495</ele>
        <time>2022-10-23T10:15:15Z</time>
      </trkpt>
      <trkpt lat="41.698657" lon="2.290108">
        <ele>307.463</ele>
        <time>2022-10-23T10:15:16Z</time>
      </trkpt>
      <trkpt lat="41.698671" lon="2.290118">
        <ele>307.489</ele>
        <time>2022-10-23T10:15:17Z</time>
      </trkpt>
      <trkpt lat="41.698678" lon="2.290131">
        <ele>307.489</ele>
        <time>2022-10-23T10:15:18Z</time>
      </trkpt>
      <trkpt lat="41.698679" lon="2.290148">
        <ele>307.412</ele>
        <time>2022-10-23T10:15:19Z</time>
      </trkpt>
      <trkpt lat="41.698677" lon="2.290171">
        <ele>307.468</ele>
        <time>2022-10-23T10:15:20Z</time>
      </trkpt>
      <trkpt lat="41.698674" lon="2.290195">
        <ele>307.642</ele>
        <time>2022-10-23T10:15:21Z</time>
      </trkpt>
      <trkpt lat="41.698674" lon="2.290218">
        <ele>307.626</ele>
        <time>2022-10-23T10:15:22Z</time>
      </trkpt>
      <trkpt lat="41.698676" lon="2.290244">
        <ele>307.809</ele>
        <time>2022-10-23T10:15:23Z</time>
      </trkpt>
      <trkpt lat="41.698677" lon="2.290269">
        <ele>308.057</ele>
        <time>2022-10-23T10:15:24Z</time>
      </trkpt>
      <trkpt lat="41.698676" lon="2.290299">
        <ele>308.287</ele>
        <time>2022-10-23T10:15:25Z</time>
      </trkpt>
      <trkpt lat="41.698673" lon="2.290325">
        <ele>308.623</ele>
        <time>2022-10-23T10:15:26Z</time>
      </trkpt>
      <trkpt lat="41.698673" lon="2.290350">
        <ele>308.836</ele>
        <time>2022-10-23T10:15:27Z</time>
      </trkpt>
      <trkpt lat="41.698676" lon="2.290375">
        <ele>309.272</ele>
        <time>2022-10-23T10:15:28Z</time>
      </trkpt>
      <trkpt lat="41.698674" lon="2.290398">
        <ele>309.620</ele>
        <time>2022-10-23T10:15:29Z</time>
      </trkpt>
      <trkpt lat="41.698675" lon="2.290431">
        <ele>310.016</ele>
        <time>2022-10-23T10:15:30Z</time>
      </trkpt>
      <trkpt lat="41.698685" lon="2.290462">
        <ele>310.436</ele>
        <time>2022-10-23T10:15:31Z</time>
      </trkpt>
      <trkpt lat="41.698703" lon="2.290499">
        <ele>310.859</ele>
        <time>2022-10-23T10:15:32Z</time>
      </trkpt>
      <trkpt lat="41.698723" lon="2.290533">
        <ele>311.277</ele>
        <time>2022-10-23T10:15:33Z</time>
      </trkpt>
      <trkpt lat="41.698749" lon="2.290561">
        <ele>311.661</ele>
        <time>2022-10-23T10:15:34Z</time>
      </trkpt>
      <trkpt lat="41.698778" lon="2.290587">
        <ele>312.227</ele>
        <time>2022-10-23T10:15:35Z</time>
      </trkpt>
      <trkpt lat="41.698809" lon="2.290605">
        <ele>312.809</ele>
        <time>2022-10-23T10:15:36Z</time>
      </trkpt>
      <trkpt lat="41.698838" lon="2.290611">
        <ele>313.258</ele>
        <time>2022-10-23T10:15:37Z</time>
      </trkpt>
      <trkpt lat="41.698863" lon="2.290611">
        <ele>313.878</ele>
        <time>2022-10-23T10:15:38Z</time>
      </trkpt>
      <trkpt lat="41.698899" lon="2.290614">
        <ele>314.244</ele>
        <time>2022-10-23T10:15:39Z</time>
      </trkpt>
      <trkpt lat="41.698931" lon="2.290614">
        <ele>314.857</ele>
        <time>2022-10-23T10:15:40Z</time>
      </trkpt>
      <trkpt lat="41.698962" lon="2.290612">
        <ele>315.493</ele>
        <time>2022-10-23T10:15:41Z</time>
      </trkpt>
      <trkpt lat="41.698987" lon="2.290607">
        <ele>316.271</ele>
        <time>2022-10-23T10:15:42Z</time>
      </trkpt>
      <trkpt lat="41.699010" lon="2.290601">
        <ele>316.857</ele>
        <time>2022-10-23T10:15:43Z</time>
      </trkpt>
      <trkpt lat="41.699036" lon="2.290594">
        <ele>317.227</ele>
        <time>2022-10-23T10:15:44Z</time>
      </trkpt>
      <trkpt lat="41.699062" lon="2.290594">
        <ele>318.060</ele>
        <time>2022-10-23T10:15:45Z</time>
      </trkpt>
      <trkpt lat="41.699087" lon="2.290591">
        <ele>318.614</ele>
        <time>2022-10-23T10:15:46Z</time>
      </trkpt>
      <trkpt lat="41.699109" lon="2.290586">
        <ele>319.854</ele>
        <time>2022-10-23T10:15:47Z</time>
      </trkpt>
      <trkpt lat="41.699135" lon="2.290583">
        <ele>320.409</ele>
        <time>2022-10-23T10:15:48Z</time>
      </trkpt>
      <trkpt lat="41.699160" lon="2.290576">
        <ele>321.209</ele>
        <time>2022-10-23T10:15:49Z</time>
      </trkpt>
      <trkpt lat="41.699182" lon="2.290568">
        <ele>322.092</ele>
        <time>2022-10-23T10:15:50Z</time>
      </trkpt>
      <trkpt lat="41.699201" lon="2.290562">
        <ele>322.682</ele>
        <time>2022-10-23T10:15:51Z</time>
      </trkpt>
      <trkpt lat="41.699222" lon="2.290565">
        <ele>323.228</ele>
        <time>2022-10-23T10:15:52Z</time>
      </trkpt>
      <trkpt lat="41.699240" lon="2.290564">
        <ele>323.821</ele>
        <time>2022-10-23T10:15:53Z</time>
      </trkpt>
      <trkpt lat="41.699261" lon="2.290564">
        <ele>324.257</ele>
        <time>2022-10-23T10:15:54Z</time>
      </trkpt>
      <trkpt lat="41.699289" lon="2.290566">
        <ele>324.645</ele>
        <time>2022-10-23T10:15:55Z</time>
      </trkpt>
      <trkpt lat="41.699316" lon="2.290570">
        <ele>324.821</ele>
        <time>2022-10-23T10:15:56Z</time>
      </trkpt>
      <trkpt lat="41.699342" lon="2.290569">
        <ele>325.271</ele>
        <time>2022-10-23T10:15:57Z</time>
      </trkpt>
      <trkpt lat="41.699369" lon="2.290566">
        <ele>325.644</ele>
        <time>2022-10-23T10:15:58Z</time>
      </trkpt>
      <trkpt lat="41.699393" lon="2.290563">
        <ele>326.044</ele>
        <time>2022-10-23T10:15:59Z</time>
      </trkpt>
      <trkpt lat="41.699415" lon="2.290560">
        <ele>326.405</ele>
        <time>2022-10-23T10:16:00Z</time>
      </trkpt>
      <trkpt lat="41.699434" lon="2.290558">
        <ele>326.815</ele>
        <time>2022-10-23T10:16:01Z</time>
      </trkpt>
      <trkpt lat="41.699464" lon="2.290554">
        <ele>327.809</ele>
        <time>2022-10-23T10:16:02Z</time>
      </trkpt>
      <trkpt lat="41.699499" lon="2.290556">
        <ele>328.425</ele>
        <time>2022-10-23T10:16:03Z</time>
      </trkpt>
      <trkpt lat="41.699535" lon="2.290558">
        <ele>328.845</ele>
        <time>2022-10-23T10:16:04Z</time>
      </trkpt>
      <trkpt lat="41.699565" lon="2.290564">
        <ele>329.421</ele>
        <time>2022-10-23T10:16:05Z</time>
      </trkpt>
      <trkpt lat="41.699590" lon="2.290576">
        <ele>329.654</ele>
        <time>2022-10-23T10:16:06Z</time>
      </trkpt>
      <trkpt lat="41.699609" lon="2.290594">
        <ele>330.050</ele>
        <time>2022-10-23T10:16:07Z</time>
      </trkpt>
      <trkpt lat="41.699620" lon="2.290611">
        <ele>330.268</ele>
        <time>2022-10-23T10:16:08Z</time>
      </trkpt>
      <trkpt lat="41.699629" lon="2.290628">
        <ele>330.424</ele>
        <time>2022-10-23T10:16:09Z</time>
      </trkpt>
      <trkpt lat="41.699636" lon="2.290646">
        <ele>330.624</ele>
        <time>2022-10-23T10:16:10Z</time>
      </trkpt>
      <trkpt lat="41.699643" lon="2.290674">
        <ele>331.017</ele>
        <time>2022-10-23T10:16:11Z</time>
      </trkpt>
      <trkpt lat="41.699646" lon="2.290705">
        <ele>331.643</ele>
        <time>2022-10-23T10:16:12Z</time>
      </trkpt>
      <trkpt lat="41.699646" lon="2.290738">
        <ele>332.064</ele>
        <time>2022-10-23T10:16:13Z</time>
      </trkpt>
      <trkpt lat="41.699643" lon="2.290773">
        <ele>333.210</ele>
        <time>2022-10-23T10:16:14Z</time>
      </trkpt>
      <trkpt lat="41.699637" lon="2.290806">
        <ele>333.809</ele>
        <time>2022-10-23T10:16:15Z</time>
      </trkpt>
      <trkpt lat="41.699630" lon="2.290837">
        <ele>334.415</ele>
        <time>2022-10-23T10:16:16Z</time>
      </trkpt>
      <trkpt lat="41.699624" lon="2.290867">
        <ele>334.895</ele>
        <time>2022-10-23T10:16:17Z</time>
      </trkpt>
      <trkpt lat="41.699619" lon="2.290899">
        <ele>335.081</ele>
        <time>2022-10-23T10:16:18Z</time>
      </trkpt>
      <trkpt lat="41.699610" lon="2.290929">
        <ele>335.234</ele>
        <time>2022-10-23T10:16:19Z</time>
      </trkpt>
      <trkpt lat="41.699600" lon="2.290962">
        <ele>335.620</ele>
        <time>2022-10-23T10:16:20Z</time>
      </trkpt>
      <trkpt lat="41.699590" lon="2.290997">
        <ele>336.058</ele>
        <time>2022-10-23T10:16:21Z</time>
      </trkpt>
      <trkpt lat="41.699579" lon="2.291029">
        <ele>336.234</ele>
        <time>2022-10-23T10:16:22Z</time>
      </trkpt>
      <trkpt lat="41.699568" lon="2.291063">
        <ele>336.614</ele>
        <time>2022-10-23T10:16:23Z</time>
      </trkpt>
      <trkpt lat="41.699560" lon="2.291097">
        <ele>337.077</ele>
        <time>2022-10-23T10:16:24Z</time>
      </trkpt>
      <trkpt lat="41.699554" lon="2.291132">
        <ele>337.442</ele>
        <time>2022-10-23T10:16:25Z</time>
      </trkpt>
      <trkpt lat="41.699546" lon="2.291172">
        <ele>337.622</ele>
        <time>2022-10-23T10:16:26Z</time>
      </trkpt>
      <trkpt lat="41.699535" lon="2.291210">
        <ele>338.014</ele>
        <time>2022-10-23T10:16:27Z</time>
      </trkpt>
      <trkpt lat="41.699521" lon="2.291246">
        <ele>338.209</ele>
        <time>2022-10-23T10:16:28Z</time>
      </trkpt>
      <trkpt lat="41.699508" lon="2.291282">
        <ele>338.635</ele>
        <time>2022-10-23T10:16:29Z</time>
      </trkpt>
      <trkpt lat="41.699484" lon="2.291347">
        <ele>339.095</ele>
        <time>2022-10-23T10:16:30Z</time>
      </trkpt>
      <trkpt lat="41.699484" lon="2.291347">
        <ele>339.411</ele>
        <time>2022-10-23T10:16:31Z</time>
      </trkpt>
      <trkpt lat="41.699476" lon="2.291380">
        <ele>339.854</ele>
        <time>2022-10-23T10:16:32Z</time>
      </trkpt>
      <trkpt lat="41.699468" lon="2.291413">
        <ele>340.270</ele>
        <time>2022-10-23T10:16:33Z</time>
      </trkpt>
      <trkpt lat="41.699459" lon="2.291447">
        <ele>340.418</ele>
        <time>2022-10-23T10:16:34Z</time>
      </trkpt>
      <trkpt lat="41.699451" lon="2.291481">
        <ele>340.634</ele>
        <time>2022-10-23T10:16:35Z</time>
      </trkpt>
      <trkpt lat="41.699447" lon="2.291520">
        <ele>341.054</ele>
        <time>2022-10-23T10:16:36Z</time>
      </trkpt>
      <trkpt lat="41.699448" lon="2.291557">
        <ele>341.287</ele>
        <time>2022-10-23T10:16:37Z</time>
      </trkpt>
      <trkpt lat="41.699455" lon="2.291592">
        <ele>341.659</ele>
        <time>2022-10-23T10:16:38Z</time>
      </trkpt>
      <trkpt lat="41.699467" lon="2.291624">
        <ele>341.803</ele>
        <time>2022-10-23T10:16:39Z</time>
      </trkpt>
      <trkpt lat="41.699501" lon="2.291688">
        <ele>342.023</ele>
        <time>2022-10-23T10:16:40Z</time>
      </trkpt>
      <trkpt lat="41.699501" lon="2.291688">
        <ele>342.409</ele>
        <time>2022-10-23T10:16:41Z</time>
      </trkpt>
      <trkpt lat="41.699539" lon="2.291746">
        <ele>343.296</ele>
        <time>2022-10-23T10:16:42Z</time>
      </trkpt>
      <trkpt lat="41.699539" lon="2.291746">
        <ele>343.626</ele>
        <time>2022-10-23T10:16:43Z</time>
      </trkpt>
      <trkpt lat="41.699559" lon="2.291772">
        <ele>344.092</ele>
        <time>2022-10-23T10:16:44Z</time>
      </trkpt>
      <trkpt lat="41.699581" lon="2.291796">
        <ele>344.495</ele>
        <time>2022-10-23T10:16:45Z</time>
      </trkpt>
      <trkpt lat="41.699606" lon="2.291817">
        <ele>344.831</ele>
        <time>2022-10-23T10:16:46Z</time>
      </trkpt>
      <trkpt lat="41.699630" lon="2.291835">
        <ele>345.299</ele>
        <time>2022-10-23T10:16:47Z</time>
      </trkpt>
      <trkpt lat="41.699655" lon="2.291853">
        <ele>345.465</ele>
        <time>2022-10-23T10:16:48Z</time>
      </trkpt>
      <trkpt lat="41.699679" lon="2.291873">
        <ele>346.045</ele>
        <time>2022-10-23T10:16:49Z</time>
      </trkpt>
      <trkpt lat="41.699704" lon="2.291897">
        <ele>346.488</ele>
        <time>2022-10-23T10:16:50Z</time>
      </trkpt>
      <trkpt lat="41.699730" lon="2.291920">
        <ele>347.032</ele>
        <time>2022-10-23T10:16:51Z</time>
      </trkpt>
      <trkpt lat="41.699755" lon="2.291943">
        <ele>347.692</ele>
        <time>2022-10-23T10:16:52Z</time>
      </trkpt>
      <trkpt lat="41.699779" lon="2.291968">
        <ele>348.011</ele>
        <time>2022-10-23T10:16:53Z</time>
      </trkpt>
      <trkpt lat="41.699803" lon="2.291995">
        <ele>348.209</ele>
        <time>2022-10-23T10:16:54Z</time>
      </trkpt>
      <trkpt lat="41.699825" lon="2.292020">
        <ele>348.464</ele>
        <time>2022-10-23T10:16:55Z</time>
      </trkpt>
      <trkpt lat="41.699846" lon="2.292040">
        <ele>348.844</ele>
        <time>2022-10-23T10:16:56Z</time>
      </trkpt>
      <trkpt lat="41.699867" lon="2.292068">
        <ele>349.620</ele>
        <time>2022-10-23T10:16:57Z</time>
      </trkpt>
      <trkpt lat="41.699889" lon="2.292094">
        <ele>350.213</ele>
        <time>2022-10-23T10:16:58Z</time>
      </trkpt>
      <trkpt lat="41.699909" lon="2.292115">
        <ele>350.629</ele>
        <time>2022-10-23T10:16:59Z</time>
      </trkpt>
      <trkpt lat="41.699928" lon="2.292138">
        <ele>351.257</ele>
        <time>2022-10-23T10:17:00Z</time>
      </trkpt>
      <trkpt lat="41.699949" lon="2.292168">
        <ele>351.633</ele>
        <time>2022-10-23T10:17:01Z</time>
      </trkpt>
      <trkpt lat="41.699968" lon="2.292203">
        <ele>352.023</ele>
        <time>2022-10-23T10:17:02Z</time>
      </trkpt>
      <trkpt lat="41.699984" lon="2.292235">
        <ele>352.666</ele>
        <time>2022-10-23T10:17:03Z</time>
      </trkpt>
      <trkpt lat="41.699999" lon="2.292264">
        <ele>353.083</ele>
        <time>2022-10-23T10:17:04Z</time>
      </trkpt>
      <trkpt lat="41.700015" lon="2.292294">
        <ele>353.425</ele>
        <time>2022-10-23T10:17:05Z</time>
      </trkpt>
      <trkpt lat="41.700051" lon="2.292352">
        <ele>353.817</ele>
        <time>2022-10-23T10:17:06Z</time>
      </trkpt>
      <trkpt lat="41.700051" lon="2.292352">
        <ele>354.209</ele>
        <time>2022-10-23T10:17:07Z</time>
      </trkpt>
      <trkpt lat="41.700069" lon="2.292382">
        <ele>354.419</ele>
        <time>2022-10-23T10:17:08Z</time>
      </trkpt>
      <trkpt lat="41.700080" lon="2.292414">
        <ele>354.869</ele>
        <time>2022-10-23T10:17:09Z</time>
      </trkpt>
      <trkpt lat="41.700097" lon="2.292447">
        <ele>355.685</ele>
        <time>2022-10-23T10:17:10Z</time>
      </trkpt>
      <trkpt lat="41.700113" lon="2.292474">
        <ele>356.098</ele>
        <time>2022-10-23T10:17:11Z</time>
      </trkpt>
      <trkpt lat="41.700133" lon="2.292504">
        <ele>356.674</ele>
        <time>2022-10-23T10:17:12Z</time>
      </trkpt>
      <trkpt lat="41.700152" lon="2.292535">
        <ele>356.872</ele>
        <time>2022-10-23T10:17:13Z</time>
      </trkpt>
      <trkpt lat="41.700171" lon="2.292568">
        <ele>357.218</ele>
        <time>2022-10-23T10:17:14Z</time>
      </trkpt>
      <trkpt lat="41.700188" lon="2.292593">
        <ele>357.688</ele>
        <time>2022-10-23T10:17:15Z</time>
      </trkpt>
      <trkpt lat="41.700205" lon="2.292619">
        <ele>358.231</ele>
        <time>2022-10-23T10:17:16Z</time>
      </trkpt>
      <trkpt lat="41.700222" lon="2.292648">
        <ele>358.848</ele>
        <time>2022-10-23T10:17:17Z</time>
      </trkpt>
      <trkpt lat="41.700240" lon="2.292673">
        <ele>359.461</ele>
        <time>2022-10-23T10:17:18Z</time>
      </trkpt>
      <trkpt lat="41.700258" lon="2.292696">
        <ele>360.017</ele>
        <time>2022-10-23T10:17:19Z</time>
      </trkpt>
      <trkpt lat="41.700278" lon="2.292719">
        <ele>360.609</ele>
        <time>2022-10-23T10:17:20Z</time>
      </trkpt>
      <trkpt lat="41.700299" lon="2.292741">
        <ele>360.885</ele>
        <time>2022-10-23T10:17:21Z</time>
      </trkpt>
      <trkpt lat="41.700319" lon="2.292760">
        <ele>361.495</ele>
        <time>2022-10-23T10:17:22Z</time>
      </trkpt>
      <trkpt lat="41.700336" lon="2.292785">
        <ele>361.861</ele>
        <time>2022-10-23T10:17:23Z</time>
      </trkpt>
      <trkpt lat="41.700376" lon="2.292823">
        <ele>362.294</ele>
        <time>2022-10-23T10:17:24Z</time>
      </trkpt>
      <trkpt lat="41.700376" lon="2.292823">
        <ele>362.610</ele>
        <time>2022-10-23T10:17:25Z</time>
      </trkpt>
      <trkpt lat="41.700397" lon="2.292840">
        <ele>363.018</ele>
        <time>2022-10-23T10:17:26Z</time>
      </trkpt>
      <trkpt lat="41.700415" lon="2.292856">
        <ele>363.674</ele>
        <time>2022-10-23T10:17:27Z</time>
      </trkpt>
      <trkpt lat="41.700430" lon="2.292873">
        <ele>364.444</ele>
        <time>2022-10-23T10:17:28Z</time>
      </trkpt>
      <trkpt lat="41.700446" lon="2.292889">
        <ele>365.057</ele>
        <time>2022-10-23T10:17:29Z</time>
      </trkpt>
      <trkpt lat="41.700459" lon="2.292906">
        <ele>365.437</ele>
        <time>2022-10-23T10:17:30Z</time>
      </trkpt>
      <trkpt lat="41.700474" lon="2.292922">
        <ele>366.049</ele>
        <time>2022-10-23T10:17:31Z</time>
      </trkpt>
      <trkpt lat="41.700493" lon="2.292936">
        <ele>366.613</ele>
        <time>2022-10-23T10:17:32Z</time>
      </trkpt>
      <trkpt lat="41.700509" lon="2.292948">
        <ele>367.009</ele>
        <time>2022-10-23T10:17:33Z</time>
      </trkpt>
      <trkpt lat="41.700523" lon="2.292958">
        <ele>367.424</ele>
        <time>2022-10-23T10:17:34Z</time>
      </trkpt>
      <trkpt lat="41.700531" lon="2.292975">
        <ele>368.074</ele>
        <time>2022-10-23T10:17:35Z</time>
      </trkpt>
      <trkpt lat="41.700535" lon="2.292995">
        <ele>368.620</ele>
        <time>2022-10-23T10:17:36Z</time>
      </trkpt>
      <trkpt lat="41.700528" lon="2.293009">
        <ele>369.023</ele>
        <time>2022-10-23T10:17:37Z</time>
      </trkpt>
      <trkpt lat="41.700512" lon="2.293018">
        <ele>369.879</ele>
        <time>2022-10-23T10:17:38Z</time>
      </trkpt>
      <trkpt lat="41.700486" lon="2.293016">
        <ele>370.227</ele>
        <time>2022-10-23T10:17:39Z</time>
      </trkpt>
      <trkpt lat="41.700457" lon="2.293007">
        <ele>370.693</ele>
        <time>2022-10-23T10:17:40Z</time>
      </trkpt>
      <trkpt lat="41.700428" lon="2.292996">
        <ele>371.043</ele>
        <time>2022-10-23T10:17:41Z</time>
      </trkpt>
      <trkpt lat="41.700402" lon="2.292986">
        <ele>371.416</ele>
        <time>2022-10-23T10:17:42Z</time>
      </trkpt>
      <trkpt lat="41.700376" lon="2.292985">
        <ele>371.856</ele>
        <time>2022-10-23T10:17:43Z</time>
      </trkpt>
      <trkpt lat="41.700350" lon="2.292984">
        <ele>372.059</ele>
        <time>2022-10-23T10:17:44Z</time>
      </trkpt>
      <trkpt lat="41.700325" lon="2.292981">
        <ele>372.414</ele>
        <time>2022-10-23T10:17:45Z</time>
      </trkpt>
      <trkpt lat="41.700299" lon="2.292976">
        <ele>372.609</ele>
        <time>2022-10-23T10:17:46Z</time>
      </trkpt>
      <trkpt lat="41.700274" lon="2.292976">
        <ele>372.846</ele>
        <time>2022-10-23T10:17:47Z</time>
      </trkpt>
      <trkpt lat="41.700249" lon="2.292978">
        <ele>372.856</ele>
        <time>2022-10-23T10:17:48Z</time>
      </trkpt>
      <trkpt lat="41.700226" lon="2.292982">
        <ele>373.052</ele>
        <time>2022-10-23T10:17:49Z</time>
      </trkpt>
      <trkpt lat="41.700200" lon="2.292990">
        <ele>373.095</ele>
        <time>2022-10-23T10:17:50Z</time>
      </trkpt>
      <trkpt lat="41.700175" lon="2.292998">
        <ele>373.081</ele>
        <time>2022-10-23T10:17:51Z</time>
      </trkpt>
      <trkpt lat="41.700150" lon="2.293002">
        <ele>373.229</ele>
        <time>2022-10-23T10:17:52Z</time>
      </trkpt>
      <trkpt lat="41.700125" lon="2.293009">
        <ele>373.645</ele>
        <time>2022-10-23T10:17:53Z</time>
      </trkpt>
      <trkpt lat="41.700100" lon="2.293019">
        <ele>373.865</ele>
        <time>2022-10-23T10:17:54Z</time>
      </trkpt>
      <trkpt lat="41.700083" lon="2.293032">
        <ele>374.438</ele>
        <time>2022-10-23T10:17:55Z</time>
      </trkpt>
      <trkpt lat="41.700061" lon="2.293041">
        <ele>374.845</ele>
        <time>2022-10-23T10:17:56Z</time>
      </trkpt>
      <trkpt lat="41.700040" lon="2.293043">
        <ele>375.247</ele>
        <time>2022-10-23T10:17:57Z</time>
      </trkpt>
      <trkpt lat="41.700016" lon="2.293047">
        <ele>375.811</ele>
        <time>2022-10-23T10:17:58Z</time>
      </trkpt>
      <trkpt lat="41.699996" lon="2.293047">
        <ele>376.209</ele>
        <time>2022-10-23T10:17:59Z</time>
      </trkpt>
      <trkpt lat="41.699976" lon="2.293046">
        <ele>376.485</ele>
        <time>2022-10-23T10:18:00Z</time>
      </trkpt>
      <trkpt lat="41.699956" lon="2.293045">
        <ele>377.015</ele>
        <time>2022-10-23T10:18:01Z</time>
      </trkpt>
      <trkpt lat="41.699933" lon="2.293044">
        <ele>377.471</ele>
        <time>2022-10-23T10:18:02Z</time>
      </trkpt>
      <trkpt lat="41.699909" lon="2.293044">
        <ele>377.884</ele>
        <time>2022-10-23T10:18:03Z</time>
      </trkpt>
      <trkpt lat="41.699887" lon="2.293044">
        <ele>378.670</ele>
        <time>2022-10-23T10:18:04Z</time>
      </trkpt>
      <trkpt lat="41.699866" lon="2.293050">
        <ele>379.238</ele>
        <time>2022-10-23T10:18:05Z</time>
      </trkpt>
      <trkpt lat="41.699843" lon="2.293059">
        <ele>380.214</ele>
        <time>2022-10-23T10:18:06Z</time>
      </trkpt>
      <trkpt lat="41.699821" lon="2.293068">
        <ele>380.614</ele>
        <time>2022-10-23T10:18:07Z</time>
      </trkpt>
      <trkpt lat="41.699800" lon="2.293085">
        <ele>381.097</ele>
        <time>2022-10-23T10:18:08Z</time>
      </trkpt>
      <trkpt lat="41.699779" lon="2.293102">
        <ele>381.493</ele>
        <time>2022-10-23T10:18:09Z</time>
      </trkpt>
      <trkpt lat="41.699760" lon="2.293116">
        <ele>381.865</ele>
        <time>2022-10-23T10:18:10Z</time>
      </trkpt>
      <trkpt lat="41.699739" lon="2.293130">
        <ele>382.021</ele>
        <time>2022-10-23T10:18:11Z</time>
      </trkpt>
      <trkpt lat="41.699721" lon="2.293141">
        <ele>382.409</ele>
        <time>2022-10-23T10:18:12Z</time>
      </trkpt>
      <trkpt lat="41.699705" lon="2.293154">
        <ele>382.860</ele>
        <time>2022-10-23T10:18:13Z</time>
      </trkpt>
      <trkpt lat="41.699688" lon="2.293165">
        <ele>383.070</ele>
        <time>2022-10-23T10:18:14Z</time>
      </trkpt>
      <trkpt lat="41.699670" lon="2.293174">
        <ele>383.676</ele>
        <time>2022-10-23T10:18:15Z</time>
      </trkpt>
      <trkpt lat="41.699648" lon="2.293184">
        <ele>384.019</ele>
        <time>2022-10-23T10:18:16Z</time>
      </trkpt>
      <trkpt lat="41.699627" lon="2.293197">
        <ele>384.475</ele>
        <time>2022-10-23T10:18:17Z</time>
      </trkpt>
      <trkpt lat="41.699609" lon="2.293212">
        <ele>385.053</ele>
        <time>2022-10-23T10:18:18Z</time>
      </trkpt>
      <trkpt lat="41.699589" lon="2.293223">
        <ele>385.479</ele>
        <time>2022-10-23T10:18:19Z</time>
      </trkpt>
      <trkpt lat="41.699572" lon="2.293229">
        <ele>385.869</ele>
        <time>2022-10-23T10:18:20Z</time>
      </trkpt>
      <trkpt lat="41.699555" lon="2.293238">
        <ele>386.422</ele>
        <time>2022-10-23T10:18:21Z</time>
      </trkpt>
      <trkpt lat="41.699536" lon="2.293249">
        <ele>387.078</ele>
        <time>2022-10-23T10:18:22Z</time>
      </trkpt>
      <trkpt lat="41.699511" lon="2.293266">
        <ele>387.633</ele>
        <time>2022-10-23T10:18:23Z</time>
      </trkpt>
      <trkpt lat="41.699488" lon="2.293281">
        <ele>388.026</ele>
        <time>2022-10-23T10:18:24Z</time>
      </trkpt>
      <trkpt lat="41.699463" lon="2.293303">
        <ele>388.409</ele>
        <time>2022-10-23T10:18:25Z</time>
      </trkpt>
      <trkpt lat="41.699438" lon="2.293327">
        <ele>389.068</ele>
        <time>2022-10-23T10:18:26Z</time>
      </trkpt>
      <trkpt lat="41.699414" lon="2.293353">
        <ele>389.418</ele>
        <time>2022-10-23T10:18:27Z</time>
      </trkpt>
      <trkpt lat="41.699388" lon="2.293383">
        <ele>390.034</ele>
        <time>2022-10-23T10:18:28Z</time>
      </trkpt>
      <trkpt lat="41.699363" lon="2.293412">
        <ele>390.217</ele>
        <time>2022-10-23T10:18:29Z</time>
      </trkpt>
      <trkpt lat="41.699343" lon="2.293442">
        <ele>390.483</ele>
        <time>2022-10-23T10:18:30Z</time>
      </trkpt>
      <trkpt lat="41.699326" lon="2.293472">
        <ele>390.621</ele>
        <time>2022-10-23T10:18:31Z</time>
      </trkpt>
      <trkpt lat="41.699311" lon="2.293494">
        <ele>390.887</ele>
        <time>2022-10-23T10:18:32Z</time>
      </trkpt>
      <trkpt lat="41.699296" lon="2.293520">
        <ele>390.827</ele>
        <time>2022-10-23T10:18:33Z</time>
      </trkpt>
      <trkpt lat="41.699279" lon="2.293553">
        <ele>391.280</ele>
        <time>2022-10-23T10:18:34Z</time>
      </trkpt>
      <trkpt lat="41.699262" lon="2.293584">
        <ele>391.843</ele>
        <time>2022-10-23T10:18:35Z</time>
      </trkpt>
      <trkpt lat="41.699244" lon="2.293614">
        <ele>392.264</ele>
        <time>2022-10-23T10:18:36Z</time>
      </trkpt>
      <trkpt lat="41.699229" lon="2.293645">
        <ele>393.010</ele>
        <time>2022-10-23T10:18:37Z</time>
      </trkpt>
      <trkpt lat="41.699215" lon="2.293675">
        <ele>393.609</ele>
        <time>2022-10-23T10:18:38Z</time>
      </trkpt>
      <trkpt lat="41.699204" lon="2.293700">
        <ele>394.435</ele>
        <time>2022-10-23T10:18:39Z</time>
      </trkpt>
      <trkpt lat="41.699191" lon="2.293725">
        <ele>395.095</ele>
        <time>2022-10-23T10:18:40Z</time>
      </trkpt>
      <trkpt lat="41.699178" lon="2.293749">
        <ele>395.451</ele>
        <time>2022-10-23T10:18:41Z</time>
      </trkpt>
      <trkpt lat="41.699166" lon="2.293771">
        <ele>395.644</ele>
        <time>2022-10-23T10:18:42Z</time>
      </trkpt>
      <trkpt lat="41.699154" lon="2.293795">
        <ele>396.220</ele>
        <time>2022-10-23T10:18:43Z</time>
      </trkpt>
      <trkpt lat="41.699147" lon="2.293825">
        <ele>396.648</ele>
        <time>2022-10-23T10:18:44Z</time>
      </trkpt>
      <trkpt lat="41.699142" lon="2.293856">
        <ele>397.254</ele>
        <time>2022-10-23T10:18:45Z</time>
      </trkpt>
      <trkpt lat="41.699137" lon="2.293881">
        <ele>397.854</ele>
        <time>2022-10-23T10:18:46Z</time>
      </trkpt>
      <trkpt lat="41.699126" lon="2.293900">
        <ele>398.427</ele>
        <time>2022-10-23T10:18:47Z</time>
      </trkpt>
      <trkpt lat="41.699119" lon="2.293920">
        <ele>399.073</ele>
        <time>2022-10-23T10:18:48Z</time>
      </trkpt>
      <trkpt lat="41.699109" lon="2.293938">
        <ele>399.485</ele>
        <time>2022-10-23T10:18:49Z</time>
      </trkpt>
      <trkpt lat="41.699103" lon="2.293960">
        <ele>400.013</ele>
        <time>2022-10-23T10:18:50Z</time>
      </trkpt>
      <trkpt lat="41.699098" lon="2.293983">
        <ele>400.609</ele>
        <time>2022-10-23T10:18:51Z</time>
      </trkpt>
      <trkpt lat="41.699095" lon="2.294006">
        <ele>401.298</ele>
        <time>2022-10-23T10:18:52Z</time>
      </trkpt>
      <trkpt lat="41.699090" lon="2.294031">
        <ele>401.848</ele>
        <time>2022-10-23T10:18:53Z</time>
      </trkpt>
      <trkpt lat="41.699083" lon="2.294053">
        <ele>402.484</ele>
        <time>2022-10-23T10:18:54Z</time>
      </trkpt>
      <trkpt lat="41.699076" lon="2.294077">
        <ele>402.817</ele>
        <time>2022-10-23T10:18:55Z</time>
      </trkpt>
      <trkpt lat="41.699071" lon="2.294101">
        <ele>403.413</ele>
        <time>2022-10-23T10:18:56Z</time>
      </trkpt>
      <trkpt lat="41.699063" lon="2.294124">
        <ele>403.671</ele>
        <time>2022-10-23T10:18:57Z</time>
      </trkpt>
      <trkpt lat="41.699063" lon="2.294151">
        <ele>404.047</ele>
        <time>2022-10-23T10:18:58Z</time>
      </trkpt>
      <trkpt lat="41.699059" lon="2.294180">
        <ele>404.417</ele>
        <time>2022-10-23T10:18:59Z</time>
      </trkpt>
      <trkpt lat="41.699052" lon="2.294211">
        <ele>404.860</ele>
        <time>2022-10-23T10:19:00Z</time>
      </trkpt>
      <trkpt lat="41.699042" lon="2.294243">
        <ele>405.285</ele>
        <time>2022-10-23T10:19:01Z</time>
      </trkpt>
      <trkpt lat="41.699031" lon="2.294271">
        <ele>406.089</ele>
        <time>2022-10-23T10:19:02Z</time>
      </trkpt>
      <trkpt lat="41.699018" lon="2.294296">
        <ele>406.817</ele>
        <time>2022-10-23T10:19:03Z</time>
      </trkpt>
      <trkpt lat="41.699006" lon="2.294321">
        <ele>407.409</ele>
        <time>2022-10-23T10:19:04Z</time>
      </trkpt>
      <trkpt lat="41.698999" lon="2.294345">
        <ele>408.099</ele>
        <time>2022-10-23T10:19:05Z</time>
      </trkpt>
      <trkpt lat="41.698992" lon="2.294368">
        <ele>408.649</ele>
        <time>2022-10-23T10:19:06Z</time>
      </trkpt>
      <trkpt lat="41.698984" lon="2.294395">
        <ele>409.015</ele>
        <time>2022-10-23T10:19:07Z</time>
      </trkpt>
      <trkpt lat="41.698976" lon="2.294429">
        <ele>409.478</ele>
        <time>2022-10-23T10:19:08Z</time>
      </trkpt>
      <trkpt lat="41.698965" lon="2.294463">
        <ele>410.034</ele>
        <time>2022-10-23T10:19:09Z</time>
      </trkpt>
      <trkpt lat="41.698953" lon="2.294494">
        <ele>410.632</ele>
        <time>2022-10-23T10:19:10Z</time>
      </trkpt>
      <trkpt lat="41.698945" lon="2.294519">
        <ele>411.258</ele>
        <time>2022-10-23T10:19:11Z</time>
      </trkpt>
      <trkpt lat="41.698937" lon="2.294542">
        <ele>411.858</ele>
        <time>2022-10-23T10:19:12Z</time>
      </trkpt>
      <trkpt lat="41.698926" lon="2.294565">
        <ele>412.421</ele>
        <time>2022-10-23T10:19:13Z</time>
      </trkpt>
      <trkpt lat="41.698917" lon="2.294595">
        <ele>412.861</ele>
        <time>2022-10-23T10:19:14Z</time>
      </trkpt>
      <trkpt lat="41.698908" lon="2.294621">
        <ele>413.221</ele>
        <time>2022-10-23T10:19:15Z</time>
      </trkpt>
      <trkpt lat="41.698901" lon="2.294647">
        <ele>413.613</ele>
        <time>2022-10-23T10:19:16Z</time>
      </trkpt>
      <trkpt lat="41.698893" lon="2.294673">
        <ele>414.209</ele>
        <time>2022-10-23T10:19:17Z</time>
      </trkpt>
      <trkpt lat="41.698885" lon="2.294699">
        <ele>414.677</ele>
        <time>2022-10-23T10:19:18Z</time>
      </trkpt>
      <trkpt lat="41.698878" lon="2.294728">
        <ele>415.297</ele>
        <time>2022-10-23T10:19:19Z</time>
      </trkpt>
      <trkpt lat="41.698868" lon="2.294757">
        <ele>415.643</ele>
        <time>2022-10-23T10:19:20Z</time>
      </trkpt>
      <trkpt lat="41.698859" lon="2.294789">
        <ele>416.016</ele>
        <time>2022-10-23T10:19:21Z</time>
      </trkpt>
      <trkpt lat="41.698849" lon="2.294820">
        <ele>416.472</ele>
        <time>2022-10-23T10:19:22Z</time>
      </trkpt>
      <trkpt lat="41.698837" lon="2.294850">
        <ele>416.620</ele>
        <time>2022-10-23T10:19:23Z</time>
      </trkpt>
      <trkpt lat="41.698830" lon="2.294883">
        <ele>417.056</ele>
        <time>2022-10-23T10:19:24Z</time>
      </trkpt>
      <trkpt lat="41.698822" lon="2.294916">
        <ele>417.436</ele>
        <time>2022-10-23T10:19:25Z</time>
      </trkpt>
      <trkpt lat="41.698811" lon="2.294951">
        <ele>417.899</ele>
        <time>2022-10-23T10:19:26Z</time>
      </trkpt>
      <trkpt lat="41.698805" lon="2.294987">
        <ele>417.866</ele>
        <time>2022-10-23T10:19:27Z</time>
      </trkpt>
      <trkpt lat="41.698784" lon="2.295051">
        <ele>418.029</ele>
        <time>2022-10-23T10:19:28Z</time>
      </trkpt>
      <trkpt lat="41.698784" lon="2.295051">
        <ele>418.221</ele>
        <time>2022-10-23T10:19:29Z</time>
      </trkpt>
      <trkpt lat="41.698771" lon="2.295089">
        <ele>418.409</ele>
        <time>2022-10-23T10:19:30Z</time>
      </trkpt>
      <trkpt lat="41.698759" lon="2.295130">
        <ele>419.667</ele>
        <time>2022-10-23T10:19:31Z</time>
      </trkpt>
      <trkpt lat="41.698745" lon="2.295166">
        <ele>419.857</ele>
        <time>2022-10-23T10:19:32Z</time>
      </trkpt>
      <trkpt lat="41.698734" lon="2.295201">
        <ele>420.433</ele>
        <time>2022-10-23T10:19:33Z</time>
      </trkpt>
      <trkpt lat="41.698718" lon="2.295238">
        <ele>420.816</ele>
        <time>2022-10-23T10:19:34Z</time>
      </trkpt>
      <trkpt lat="41.698704" lon="2.295275">
        <ele>421.232</ele>
        <time>2022-10-23T10:19:35Z</time>
      </trkpt>
      <trkpt lat="41.698689" lon="2.295312">
        <ele>421.610</ele>
        <time>2022-10-23T10:19:36Z</time>
      </trkpt>
      <trkpt lat="41.698674" lon="2.295345">
        <ele>421.846</ele>
        <time>2022-10-23T10:19:37Z</time>
      </trkpt>
      <trkpt lat="41.698660" lon="2.295375">
        <ele>422.276</ele>
        <time>2022-10-23T10:19:38Z</time>
      </trkpt>
      <trkpt lat="41.698648" lon="2.295405">
        <ele>422.629</ele>
        <time>2022-10-23T10:19:39Z</time>
      </trkpt>
      <trkpt lat="41.698634" lon="2.295433">
        <ele>423.077</ele>
        <time>2022-10-23T10:19:40Z</time>
      </trkpt>
      <trkpt lat="41.698619" lon="2.295462">
        <ele>423.261</ele>
        <time>2022-10-23T10:19:41Z</time>
      </trkpt>
      <trkpt lat="41.698606" lon="2.295492">
        <ele>423.627</ele>
        <time>2022-10-23T10:19:42Z</time>
      </trkpt>
      <trkpt lat="41.698595" lon="2.295524">
        <ele>424.009</ele>
        <time>2022-10-23T10:19:43Z</time>
      </trkpt>
      <trkpt lat="41.698585" lon="2.295558">
        <ele>424.458</ele>
        <time>2022-10-23T10:19:44Z</time>
      </trkpt>
      <trkpt lat="41.698576" lon="2.295590">
        <ele>424.638</ele>
        <time>2022-10-23T10:19:45Z</time>
      </trkpt>
      <trkpt lat="41.698567" lon="2.295619">
        <ele>425.044</ele>
        <time>2022-10-23T10:19:46Z</time>
      </trkpt>
      <trkpt lat="41.698560" lon="2.295648">
        <ele>425.427</ele>
        <time>2022-10-23T10:19:47Z</time>
      </trkpt>
      <trkpt lat="41.698552" lon="2.295673">
        <ele>425.873</ele>
        <time>2022-10-23T10:19:48Z</time>
      </trkpt>
      <trkpt lat="41.698544" lon="2.295704">
        <ele>426.021</ele>
        <time>2022-10-23T10:19:49Z</time>
      </trkpt>
      <trkpt lat="41.698535" lon="2.295736">
        <ele>426.267</ele>
        <time>2022-10-23T10:19:50Z</time>
      </trkpt>
      <trkpt lat="41.698526" lon="2.295771">
        <ele>426.637</ele>
        <time>2022-10-23T10:19:51Z</time>
      </trkpt>
      <trkpt lat="41.698516" lon="2.295803">
        <ele>427.060</ele>
        <time>2022-10-23T10:19:52Z</time>
      </trkpt>
      <trkpt lat="41.698506" lon="2.295839">
        <ele>427.415</ele>
        <time>2022-10-23T10:19:53Z</time>
      </trkpt>
      <trkpt lat="41.698490" lon="2.295877">
        <ele>427.665</ele>
        <time>2022-10-23T10:19:54Z</time>
      </trkpt>
      <trkpt lat="41.698474" lon="2.295915">
        <ele>427.811</ele>
        <time>2022-10-23T10:19:55Z</time>
      </trkpt>
      <trkpt lat="41.698460" lon="2.295950">
        <ele>428.009</ele>
        <time>2022-10-23T10:19:56Z</time>
      </trkpt>
      <trkpt lat="41.698446" lon="2.295982">
        <ele>428.072</ele>
        <time>2022-10-23T10:19:57Z</time>
      </trkpt>
      <trkpt lat="41.698434" lon="2.296016">
        <ele>428.092</ele>
        <time>2022-10-23T10:19:58Z</time>
      </trkpt>
      <trkpt lat="41.698421" lon="2.296055">
        <ele>428.228</ele>
        <time>2022-10-23T10:19:59Z</time>
      </trkpt>
      <trkpt lat="41.698408" lon="2.296094">
        <ele>428.251</ele>
        <time>2022-10-23T10:20:00Z</time>
      </trkpt>
      <trkpt lat="41.698389" lon="2.296132">
        <ele>428.297</ele>
        <time>2022-10-23T10:20:01Z</time>
      </trkpt>
      <trkpt lat="41.698367" lon="2.296170">
        <ele>428.485</ele>
        <time>2022-10-23T10:20:02Z</time>
      </trkpt>
      <trkpt lat="41.698347" lon="2.296206">
        <ele>428.481</ele>
        <time>2022-10-23T10:20:03Z</time>
      </trkpt>
      <trkpt lat="41.698330" lon="2.296238">
        <ele>428.621</ele>
        <time>2022-10-23T10:20:04Z</time>
      </trkpt>
      <trkpt lat="41.698310" lon="2.296270">
        <ele>428.664</ele>
        <time>2022-10-23T10:20:05Z</time>
      </trkpt>
      <trkpt lat="41.698289" lon="2.296294">
        <ele>428.841</ele>
        <time>2022-10-23T10:20:06Z</time>
      </trkpt>
      <trkpt lat="41.698269" lon="2.296308">
        <ele>428.881</ele>
        <time>2022-10-23T10:20:07Z</time>
      </trkpt>
      <trkpt lat="41.698247" lon="2.296315">
        <ele>428.809</ele>
        <time>2022-10-23T10:20:08Z</time>
      </trkpt>
      <trkpt lat="41.698223" lon="2.296316">
        <ele>428.809</ele>
        <time>2022-10-23T10:20:09Z</time>
      </trkpt>
      <trkpt lat="41.698201" lon="2.296317">
        <ele>429.025</ele>
        <time>2022-10-23T10:20:10Z</time>
      </trkpt>
      <trkpt lat="41.698180" lon="2.296318">
        <ele>429.065</ele>
        <time>2022-10-23T10:20:11Z</time>
      </trkpt>
      <trkpt lat="41.698159" lon="2.296321">
        <ele>429.081</ele>
        <time>2022-10-23T10:20:12Z</time>
      </trkpt>
      <trkpt lat="41.698138" lon="2.296320">
        <ele>429.284</ele>
        <time>2022-10-23T10:20:13Z</time>
      </trkpt>
      <trkpt lat="41.698114" lon="2.296321">
        <ele>429.640</ele>
        <time>2022-10-23T10:20:14Z</time>
      </trkpt>
      <trkpt lat="41.698090" lon="2.296320">
        <ele>430.028</ele>
        <time>2022-10-23T10:20:15Z</time>
      </trkpt>
      <trkpt lat="41.698068" lon="2.296324">
        <ele>430.474</ele>
        <time>2022-10-23T10:20:16Z</time>
      </trkpt>
      <trkpt lat="41.698046" lon="2.296326">
        <ele>431.224</ele>
        <time>2022-10-23T10:20:17Z</time>
      </trkpt>
      <trkpt lat="41.698026" lon="2.296330">
        <ele>431.827</ele>
        <time>2022-10-23T10:20:18Z</time>
      </trkpt>
      <trkpt lat="41.698005" lon="2.296338">
        <ele>432.244</ele>
        <time>2022-10-23T10:20:19Z</time>
      </trkpt>
      <trkpt lat="41.697982" lon="2.296350">
        <ele>432.405</ele>
        <time>2022-10-23T10:20:20Z</time>
      </trkpt>
      <trkpt lat="41.697959" lon="2.296365">
        <ele>433.015</ele>
        <time>2022-10-23T10:20:21Z</time>
      </trkpt>
      <trkpt lat="41.697938" lon="2.296380">
        <ele>433.609</ele>
        <time>2022-10-23T10:20:22Z</time>
      </trkpt>
      <trkpt lat="41.697916" lon="2.296397">
        <ele>434.285</ele>
        <time>2022-10-23T10:20:23Z</time>
      </trkpt>
      <trkpt lat="41.697897" lon="2.296415">
        <ele>434.675</ele>
        <time>2022-10-23T10:20:24Z</time>
      </trkpt>
      <trkpt lat="41.697871" lon="2.296431">
        <ele>435.281</ele>
        <time>2022-10-23T10:20:25Z</time>
      </trkpt>
      <trkpt lat="41.697847" lon="2.296449">
        <ele>436.284</ele>
        <time>2022-10-23T10:20:26Z</time>
      </trkpt>
      <trkpt lat="41.697823" lon="2.296465">
        <ele>436.650</ele>
        <time>2022-10-23T10:20:27Z</time>
      </trkpt>
      <trkpt lat="41.697804" lon="2.296485">
        <ele>437.038</ele>
        <time>2022-10-23T10:20:28Z</time>
      </trkpt>
      <trkpt lat="41.697786" lon="2.296508">
        <ele>437.444</ele>
        <time>2022-10-23T10:20:29Z</time>
      </trkpt>
      <trkpt lat="41.697770" lon="2.296531">
        <ele>437.664</ele>
        <time>2022-10-23T10:20:30Z</time>
      </trkpt>
      <trkpt lat="41.697751" lon="2.296552">
        <ele>438.047</ele>
        <time>2022-10-23T10:20:31Z</time>
      </trkpt>
      <trkpt lat="41.697728" lon="2.296565">
        <ele>438.259</ele>
        <time>2022-10-23T10:20:32Z</time>
      </trkpt>
      <trkpt lat="41.697704" lon="2.296573">
        <ele>438.403</ele>
        <time>2022-10-23T10:20:33Z</time>
      </trkpt>
      <trkpt lat="41.697679" lon="2.296576">
        <ele>438.423</ele>
        <time>2022-10-23T10:20:34Z</time>
      </trkpt>
      <trkpt lat="41.697655" lon="2.296575">
        <ele>438.809</ele>
        <time>2022-10-23T10:20:35Z</time>
      </trkpt>
      <trkpt lat="41.697631" lon="2.296569">
        <ele>439.036</ele>
        <time>2022-10-23T10:20:36Z</time>
      </trkpt>
      <trkpt lat="41.697610" lon="2.296560">
        <ele>439.256</ele>
        <time>2022-10-23T10:20:37Z</time>
      </trkpt>
      <trkpt lat="41.697588" lon="2.296545">
        <ele>439.672</ele>
        <time>2022-10-23T10:20:38Z</time>
      </trkpt>
      <trkpt lat="41.697566" lon="2.296527">
        <ele>440.075</ele>
        <time>2022-10-23T10:20:39Z</time>
      </trkpt>
      <trkpt lat="41.697545" lon="2.296508">
        <ele>440.221</ele>
        <time>2022-10-23T10:20:40Z</time>
      </trkpt>
      <trkpt lat="41.697525" lon="2.296486">
        <ele>440.089</ele>
        <time>2022-10-23T10:20:41Z</time>
      </trkpt>
      <trkpt lat="41.697504" lon="2.296468">
        <ele>440.265</ele>
        <time>2022-10-23T10:20:42Z</time>
      </trkpt>
      <trkpt lat="41.697487" lon="2.296446">
        <ele>440.265</ele>
        <time>2022-10-23T10:20:43Z</time>
      </trkpt>
      <trkpt lat="41.697473" lon="2.296431">
        <ele>440.268</ele>
        <time>2022-10-23T10:20:44Z</time>
      </trkpt>
      <trkpt lat="41.697456" lon="2.296414">
        <ele>440.216</ele>
        <time>2022-10-23T10:20:45Z</time>
      </trkpt>
      <trkpt lat="41.697437" lon="2.296396">
        <ele>440.276</ele>
        <time>2022-10-23T10:20:46Z</time>
      </trkpt>
      <trkpt lat="41.697417" lon="2.296380">
        <ele>440.213</ele>
        <time>2022-10-23T10:20:47Z</time>
      </trkpt>
      <trkpt lat="41.697398" lon="2.296366">
        <ele>440.209</ele>
        <time>2022-10-23T10:20:48Z</time>
      </trkpt>
      <trkpt lat="41.697378" lon="2.296349">
        <ele>440.282</ele>
        <time>2022-10-23T10:20:49Z</time>
      </trkpt>
      <trkpt lat="41.697357" lon="2.296332">
        <ele>440.252</ele>
        <time>2022-10-23T10:20:50Z</time>
      </trkpt>
      <trkpt lat="41.697335" lon="2.296316">
        <ele>440.238</ele>
        <time>2022-10-23T10:20:51Z</time>
      </trkpt>
      <trkpt lat="41.697311" lon="2.296292">
        <ele>440.221</ele>
        <time>2022-10-23T10:20:52Z</time>
      </trkpt>
      <trkpt lat="41.697285" lon="2.296275">
        <ele>440.267</ele>
        <time>2022-10-23T10:20:53Z</time>
      </trkpt>
      <trkpt lat="41.697258" lon="2.296258">
        <ele>440.285</ele>
        <time>2022-10-23T10:20:54Z</time>
      </trkpt>
      <trkpt lat="41.697227" lon="2.296247">
        <ele>440.281</ele>
        <time>2022-10-23T10:20:55Z</time>
      </trkpt>
      <trkpt lat="41.697194" lon="2.296239">
        <ele>440.021</ele>
        <time>2022-10-23T10:20:56Z</time>
      </trkpt>
      <trkpt lat="41.697163" lon="2.296235">
        <ele>440.034</ele>
        <time>2022-10-23T10:20:57Z</time>
      </trkpt>
      <trkpt lat="41.697136" lon="2.296233">
        <ele>439.844</ele>
        <time>2022-10-23T10:20:58Z</time>
      </trkpt>
      <trkpt lat="41.697116" lon="2.296234">
        <ele>439.605</ele>
        <time>2022-10-23T10:20:59Z</time>
      </trkpt>
      <trkpt lat="41.697100" lon="2.296232">
        <ele>439.615</ele>
        <time>2022-10-23T10:21:00Z</time>
      </trkpt>
      <trkpt lat="41.697089" lon="2.296223">
        <ele>439.209</ele>
        <time>2022-10-23T10:21:01Z</time>
      </trkpt>
      <trkpt lat="41.697081" lon="2.296209">
        <ele>438.615</ele>
        <time>2022-10-23T10:21:02Z</time>
      </trkpt>
      <trkpt lat="41.697074" lon="2.296192">
        <ele>438.015</ele>
        <time>2022-10-23T10:21:03Z</time>
      </trkpt>
      <trkpt lat="41.697076" lon="2.296177">
        <ele>437.691</ele>
        <time>2022-10-23T10:21:04Z</time>
      </trkpt>
      <trkpt lat="41.697085" lon="2.296151">
        <ele>437.254</ele>
        <time>2022-10-23T10:21:05Z</time>
      </trkpt>
      <trkpt lat="41.697100" lon="2.296119">
        <ele>436.620</ele>
        <time>2022-10-23T10:21:06Z</time>
      </trkpt>
      <trkpt lat="41.697118" lon="2.296087">
        <ele>436.218</ele>
        <time>2022-10-23T10:21:07Z</time>
      </trkpt>
      <trkpt lat="41.697140" lon="2.296063">
        <ele>436.084</ele>
        <time>2022-10-23T10:21:08Z</time>
      </trkpt>
      <trkpt lat="41.697165" lon="2.296044">
        <ele>435.634</ele>
        <time>2022-10-23T10:21:09Z</time>
      </trkpt>
      <trkpt lat="41.697183" lon="2.296023">
        <ele>435.417</ele>
        <time>2022-10-23T10:21:10Z</time>
      </trkpt>
      <trkpt lat="41.697191" lon="2.296005">
        <ele>435.273</ele>
        <time>2022-10-23T10:21:11Z</time>
      </trkpt>
      <trkpt lat="41.697171" lon="2.295972">
        <ele>434.885</ele>
        <time>2022-10-23T10:21:12Z</time>
      </trkpt>
      <trkpt lat="41.697158" lon="2.295950">
        <ele>434.213</ele>
        <time>2022-10-23T10:21:13Z</time>
      </trkpt>
      <trkpt lat="41.697141" lon="2.295931">
        <ele>433.609</ele>
        <time>2022-10-23T10:21:14Z</time>
      </trkpt>
      <trkpt lat="41.697119" lon="2.295915">
        <ele>432.868</ele>
        <time>2022-10-23T10:21:15Z</time>
      </trkpt>
      <trkpt lat="41.697099" lon="2.295895">
        <ele>432.028</ele>
        <time>2022-10-23T10:21:16Z</time>
      </trkpt>
      <trkpt lat="41.697084" lon="2.295871">
        <ele>431.454</ele>
        <time>2022-10-23T10:21:17Z</time>
      </trkpt>
      <trkpt lat="41.697082" lon="2.295850">
        <ele>430.887</ele>
        <time>2022-10-23T10:21:18Z</time>
      </trkpt>
      <trkpt lat="41.697100" lon="2.295817">
        <ele>430.053</ele>
        <time>2022-10-23T10:21:19Z</time>
      </trkpt>
      <trkpt lat="41.697127" lon="2.295783">
        <ele>428.861</ele>
        <time>2022-10-23T10:21:20Z</time>
      </trkpt>
      <trkpt lat="41.697162" lon="2.295751">
        <ele>427.847</ele>
        <time>2022-10-23T10:21:21Z</time>
      </trkpt>
      <trkpt lat="41.697197" lon="2.295727">
        <ele>425.827</ele>
        <time>2022-10-23T10:21:22Z</time>
      </trkpt>
      <trkpt lat="41.697223" lon="2.295697">
        <ele>425.070</ele>
        <time>2022-10-23T10:21:23Z</time>
      </trkpt>
      <trkpt lat="41.697241" lon="2.295667">
        <ele>424.237</ele>
        <time>2022-10-23T10:21:24Z</time>
      </trkpt>
      <trkpt lat="41.697244" lon="2.295633">
        <ele>423.249</ele>
        <time>2022-10-23T10:21:25Z</time>
      </trkpt>
      <trkpt lat="41.697234" lon="2.295590">
        <ele>422.213</ele>
        <time>2022-10-23T10:21:26Z</time>
      </trkpt>
      <trkpt lat="41.697234" lon="2.295550">
        <ele>421.409</ele>
        <time>2022-10-23T10:21:27Z</time>
      </trkpt>
      <trkpt lat="41.697250" lon="2.295492">
        <ele>420.644</ele>
        <time>2022-10-23T10:21:28Z</time>
      </trkpt>
      <trkpt lat="41.697269" lon="2.295446">
        <ele>420.234</ele>
        <time>2022-10-23T10:21:29Z</time>
      </trkpt>
      <trkpt lat="41.697278" lon="2.295402">
        <ele>420.090</ele>
        <time>2022-10-23T10:21:30Z</time>
      </trkpt>
      <trkpt lat="41.697274" lon="2.295365">
        <ele>419.893</ele>
        <time>2022-10-23T10:21:31Z</time>
      </trkpt>
      <trkpt lat="41.697259" lon="2.295337">
        <ele>419.289</ele>
        <time>2022-10-23T10:21:32Z</time>
      </trkpt>
      <trkpt lat="41.697237" lon="2.295306">
        <ele>418.447</ele>
        <time>2022-10-23T10:21:33Z</time>
      </trkpt>
      <trkpt lat="41.697219" lon="2.295267">
        <ele>417.223</ele>
        <time>2022-10-23T10:21:34Z</time>
      </trkpt>
      <trkpt lat="41.697212" lon="2.295224">
        <ele>416.033</ele>
        <time>2022-10-23T10:21:35Z</time>
      </trkpt>
      <trkpt lat="41.697222" lon="2.295176">
        <ele>414.626</ele>
        <time>2022-10-23T10:21:36Z</time>
      </trkpt>
      <trkpt lat="41.697239" lon="2.295139">
        <ele>413.244</ele>
        <time>2022-10-23T10:21:37Z</time>
      </trkpt>
      <trkpt lat="41.697256" lon="2.295103">
        <ele>412.205</ele>
        <time>2022-10-23T10:21:38Z</time>
      </trkpt>
      <trkpt lat="41.697269" lon="2.295051">
        <ele>411.615</ele>
        <time>2022-10-23T10:21:39Z</time>
      </trkpt>
      <trkpt lat="41.697281" lon="2.295014">
        <ele>411.009</ele>
        <time>2022-10-23T10:21:40Z</time>
      </trkpt>
      <trkpt lat="41.697281" lon="2.294979">
        <ele>410.015</ele>
        <time>2022-10-23T10:21:41Z</time>
      </trkpt>
      <trkpt lat="41.697276" lon="2.294941">
        <ele>409.265</ele>
        <time>2022-10-23T10:21:42Z</time>
      </trkpt>
      <trkpt lat="41.697273" lon="2.294901">
        <ele>408.021</ele>
        <time>2022-10-23T10:21:43Z</time>
      </trkpt>
      <trkpt lat="41.697271" lon="2.294861">
        <ele>407.474</ele>
        <time>2022-10-23T10:21:44Z</time>
      </trkpt>
      <trkpt lat="41.697256" lon="2.294804">
        <ele>406.830</ele>
        <time>2022-10-23T10:21:45Z</time>
      </trkpt>
      <trkpt lat="41.697250" lon="2.294760">
        <ele>406.298</ele>
        <time>2022-10-23T10:21:46Z</time>
      </trkpt>
      <trkpt lat="41.697240" lon="2.294714">
        <ele>405.894</ele>
        <time>2022-10-23T10:21:47Z</time>
      </trkpt>
      <trkpt lat="41.697220" lon="2.294665">
        <ele>405.494</ele>
        <time>2022-10-23T10:21:48Z</time>
      </trkpt>
      <trkpt lat="41.697191" lon="2.294634">
        <ele>404.447</ele>
        <time>2022-10-23T10:21:49Z</time>
      </trkpt>
      <trkpt lat="41.697161" lon="2.294611">
        <ele>403.451</ele>
        <time>2022-10-23T10:21:50Z</time>
      </trkpt>
      <trkpt lat="41.697134" lon="2.294579">
        <ele>402.401</ele>
        <time>2022-10-23T10:21:51Z</time>
      </trkpt>
      <trkpt lat="41.697113" lon="2.294528">
        <ele>401.611</ele>
        <time>2022-10-23T10:21:52Z</time>
      </trkpt>
      <trkpt lat="41.697111" lon="2.294459">
        <ele>400.809</ele>
        <time>2022-10-23T10:21:53Z</time>
      </trkpt>
      <trkpt lat="41.697112" lon="2.294398">
        <ele>400.456</ele>
        <time>2022-10-23T10:21:54Z</time>
      </trkpt>
      <trkpt lat="41.697105" lon="2.294342">
        <ele>399.436</ele>
        <time>2022-10-23T10:21:55Z</time>
      </trkpt>
      <trkpt lat="41.697086" lon="2.294293">
        <ele>398.032</ele>
        <time>2022-10-23T10:21:56Z</time>
      </trkpt>
      <trkpt lat="41.697062" lon="2.294242">
        <ele>396.615</ele>
        <time>2022-10-23T10:21:57Z</time>
      </trkpt>
      <trkpt lat="41.697039" lon="2.294202">
        <ele>395.271</ele>
        <time>2022-10-23T10:21:58Z</time>
      </trkpt>
      <trkpt lat="41.697023" lon="2.294165">
        <ele>394.489</ele>
        <time>2022-10-23T10:21:59Z</time>
      </trkpt>
      <trkpt lat="41.697011" lon="2.294129">
        <ele>393.695</ele>
        <time>2022-10-23T10:22:00Z</time>
      </trkpt>
      <trkpt lat="41.697002" lon="2.294102">
        <ele>392.825</ele>
        <time>2022-10-23T10:22:01Z</time>
      </trkpt>
      <trkpt lat="41.696994" lon="2.294072">
        <ele>392.218</ele>
        <time>2022-10-23T10:22:02Z</time>
      </trkpt>
      <trkpt lat="41.696986" lon="2.294037">
        <ele>391.815</ele>
        <time>2022-10-23T10:22:03Z</time>
      </trkpt>
      <trkpt lat="41.696983" lon="2.293998">
        <ele>391.465</ele>
        <time>2022-10-23T10:22:04Z</time>
      </trkpt>
      <trkpt lat="41.696996" lon="2.293961">
        <ele>390.811</ele>
        <time>2022-10-23T10:22:05Z</time>
      </trkpt>
      <trkpt lat="41.697012" lon="2.293921">
        <ele>390.209</ele>
        <time>2022-10-23T10:22:06Z</time>
      </trkpt>
      <trkpt lat="41.697025" lon="2.293878">
        <ele>389.432</ele>
        <time>2022-10-23T10:22:07Z</time>
      </trkpt>
      <trkpt lat="41.697033" lon="2.293835">
        <ele>388.632</ele>
        <time>2022-10-23T10:22:08Z</time>
      </trkpt>
      <trkpt lat="41.697034" lon="2.293794">
        <ele>388.088</ele>
        <time>2022-10-23T10:22:09Z</time>
      </trkpt>
      <trkpt lat="41.697014" lon="2.293754">
        <ele>386.871</ele>
        <time>2022-10-23T10:22:10Z</time>
      </trkpt>
      <trkpt lat="41.696984" lon="2.293715">
        <ele>385.817</ele>
        <time>2022-10-23T10:22:11Z</time>
      </trkpt>
      <trkpt lat="41.696941" lon="2.293688">
        <ele>385.055</ele>
        <time>2022-10-23T10:22:12Z</time>
      </trkpt>
      <trkpt lat="41.696890" lon="2.293677">
        <ele>384.451</ele>
        <time>2022-10-23T10:22:13Z</time>
      </trkpt>
      <trkpt lat="41.696856" lon="2.293641">
        <ele>383.891</ele>
        <time>2022-10-23T10:22:14Z</time>
      </trkpt>
      <trkpt lat="41.696815" lon="2.293605">
        <ele>383.254</ele>
        <time>2022-10-23T10:22:15Z</time>
      </trkpt>
      <trkpt lat="41.696793" lon="2.293561">
        <ele>382.043</ele>
        <time>2022-10-23T10:22:16Z</time>
      </trkpt>
      <trkpt lat="41.696784" lon="2.293508">
        <ele>380.464</ele>
        <time>2022-10-23T10:22:17Z</time>
      </trkpt>
      <trkpt lat="41.696790" lon="2.293455">
        <ele>379.610</ele>
        <time>2022-10-23T10:22:18Z</time>
      </trkpt>
      <trkpt lat="41.696799" lon="2.293413">
        <ele>379.009</ele>
        <time>2022-10-23T10:22:19Z</time>
      </trkpt>
      <trkpt lat="41.696804" lon="2.293380">
        <ele>378.855</ele>
        <time>2022-10-23T10:22:20Z</time>
      </trkpt>
      <trkpt lat="41.696810" lon="2.293357">
        <ele>378.055</ele>
        <time>2022-10-23T10:22:21Z</time>
      </trkpt>
      <trkpt lat="41.696815" lon="2.293341">
        <ele>377.251</ele>
        <time>2022-10-23T10:22:22Z</time>
      </trkpt>
      <trkpt lat="41.696822" lon="2.293330">
        <ele>376.264</ele>
        <time>2022-10-23T10:22:23Z</time>
      </trkpt>
      <trkpt lat="41.696833" lon="2.293317">
        <ele>375.210</ele>
        <time>2022-10-23T10:22:24Z</time>
      </trkpt>
      <trkpt lat="41.696845" lon="2.293293">
        <ele>374.628</ele>
        <time>2022-10-23T10:22:25Z</time>
      </trkpt>
      <trkpt lat="41.696859" lon="2.293260">
        <ele>374.284</ele>
        <time>2022-10-23T10:22:26Z</time>
      </trkpt>
      <trkpt lat="41.696876" lon="2.293220">
        <ele>374.044</ele>
        <time>2022-10-23T10:22:27Z</time>
      </trkpt>
      <trkpt lat="41.696892" lon="2.293174">
        <ele>373.687</ele>
        <time>2022-10-23T10:22:28Z</time>
      </trkpt>
      <trkpt lat="41.696907" lon="2.293129">
        <ele>373.036</ele>
        <time>2022-10-23T10:22:29Z</time>
      </trkpt>
      <trkpt lat="41.696914" lon="2.293084">
        <ele>372.817</ele>
        <time>2022-10-23T10:22:30Z</time>
      </trkpt>
      <trkpt lat="41.696909" lon="2.293039">
        <ele>372.418</ele>
        <time>2022-10-23T10:22:31Z</time>
      </trkpt>
      <trkpt lat="41.696903" lon="2.292995">
        <ele>371.609</ele>
        <time>2022-10-23T10:22:32Z</time>
      </trkpt>
      <trkpt lat="41.696897" lon="2.292946">
        <ele>370.844</ele>
        <time>2022-10-23T10:22:33Z</time>
      </trkpt>
      <trkpt lat="41.696877" lon="2.292901">
        <ele>370.214</ele>
        <time>2022-10-23T10:22:34Z</time>
      </trkpt>
      <trkpt lat="41.696849" lon="2.292863">
        <ele>369.070</ele>
        <time>2022-10-23T10:22:35Z</time>
      </trkpt>
      <trkpt lat="41.696808" lon="2.292836">
        <ele>368.093</ele>
        <time>2022-10-23T10:22:36Z</time>
      </trkpt>
      <trkpt lat="41.696759" lon="2.292811">
        <ele>366.619</ele>
        <time>2022-10-23T10:22:37Z</time>
      </trkpt>
      <trkpt lat="41.696730" lon="2.292786">
        <ele>365.897</ele>
        <time>2022-10-23T10:22:38Z</time>
      </trkpt>
      <trkpt lat="41.696713" lon="2.292751">
        <ele>365.083</ele>
        <time>2022-10-23T10:22:39Z</time>
      </trkpt>
      <trkpt lat="41.696692" lon="2.292728">
        <ele>364.263</ele>
        <time>2022-10-23T10:22:40Z</time>
      </trkpt>
      <trkpt lat="41.696667" lon="2.292715">
        <ele>363.216</ele>
        <time>2022-10-23T10:22:41Z</time>
      </trkpt>
      <trkpt lat="41.696626" lon="2.292708">
        <ele>362.483</ele>
        <time>2022-10-23T10:22:42Z</time>
      </trkpt>
      <trkpt lat="41.696578" lon="2.292698">
        <ele>362.025</ele>
        <time>2022-10-23T10:22:43Z</time>
      </trkpt>
      <trkpt lat="41.696542" lon="2.292681">
        <ele>361.417</ele>
        <time>2022-10-23T10:22:44Z</time>
      </trkpt>
      <trkpt lat="41.696525" lon="2.292652">
        <ele>361.209</ele>
        <time>2022-10-23T10:22:45Z</time>
      </trkpt>
      <trkpt lat="41.696524" lon="2.292611">
        <ele>360.429</ele>
        <time>2022-10-23T10:22:46Z</time>
      </trkpt>
      <trkpt lat="41.696535" lon="2.292561">
        <ele>359.629</ele>
        <time>2022-10-23T10:22:47Z</time>
      </trkpt>
      <trkpt lat="41.696551" lon="2.292514">
        <ele>359.015</ele>
        <time>2022-10-23T10:22:48Z</time>
      </trkpt>
      <trkpt lat="41.696568" lon="2.292471">
        <ele>358.268</ele>
        <time>2022-10-23T10:22:49Z</time>
      </trkpt>
      <trkpt lat="41.696586" lon="2.292426">
        <ele>357.674</ele>
        <time>2022-10-23T10:22:50Z</time>
      </trkpt>
      <trkpt lat="41.696589" lon="2.292364">
        <ele>356.692</ele>
        <time>2022-10-23T10:22:51Z</time>
      </trkpt>
      <trkpt lat="41.696585" lon="2.292305">
        <ele>355.828</ele>
        <time>2022-10-23T10:22:52Z</time>
      </trkpt>
      <trkpt lat="41.696578" lon="2.292249">
        <ele>355.248</ele>
        <time>2022-10-23T10:22:53Z</time>
      </trkpt>
      <trkpt lat="41.696562" lon="2.292201">
        <ele>354.491</ele>
        <time>2022-10-23T10:22:54Z</time>
      </trkpt>
      <trkpt lat="41.696533" lon="2.292191">
        <ele>354.247</ele>
        <time>2022-10-23T10:22:55Z</time>
      </trkpt>
      <trkpt lat="41.696492" lon="2.292178">
        <ele>354.029</ele>
        <time>2022-10-23T10:22:56Z</time>
      </trkpt>
      <trkpt lat="41.696455" lon="2.292150">
        <ele>353.421</ele>
        <time>2022-10-23T10:22:57Z</time>
      </trkpt>
      <trkpt lat="41.696424" lon="2.292105">
        <ele>353.009</ele>
        <time>2022-10-23T10:22:58Z</time>
      </trkpt>
      <trkpt lat="41.696425" lon="2.292046">
        <ele>352.285</ele>
        <time>2022-10-23T10:22:59Z</time>
      </trkpt>
      <trkpt lat="41.696437" lon="2.291995">
        <ele>351.465</ele>
        <time>2022-10-23T10:23:00Z</time>
      </trkpt>
      <trkpt lat="41.696455" lon="2.291935">
        <ele>350.471</ele>
        <time>2022-10-23T10:23:01Z</time>
      </trkpt>
      <trkpt lat="41.696471" lon="2.291865">
        <ele>349.664</ele>
        <time>2022-10-23T10:23:02Z</time>
      </trkpt>
      <trkpt lat="41.696486" lon="2.291805">
        <ele>348.890</ele>
        <time>2022-10-23T10:23:03Z</time>
      </trkpt>
      <trkpt lat="41.696497" lon="2.291760">
        <ele>348.028</ele>
        <time>2022-10-23T10:23:04Z</time>
      </trkpt>
      <trkpt lat="41.696499" lon="2.291719">
        <ele>347.074</ele>
        <time>2022-10-23T10:23:05Z</time>
      </trkpt>
      <trkpt lat="41.696495" lon="2.291675">
        <ele>346.044</ele>
        <time>2022-10-23T10:23:06Z</time>
      </trkpt>
      <trkpt lat="41.696482" lon="2.291637">
        <ele>345.267</ele>
        <time>2022-10-23T10:23:07Z</time>
      </trkpt>
      <trkpt lat="41.696467" lon="2.291615">
        <ele>344.427</ele>
        <time>2022-10-23T10:23:08Z</time>
      </trkpt>
      <trkpt lat="41.696451" lon="2.291596">
        <ele>344.068</ele>
        <time>2022-10-23T10:23:09Z</time>
      </trkpt>
      <trkpt lat="41.696438" lon="2.291577">
        <ele>343.414</ele>
        <time>2022-10-23T10:23:10Z</time>
      </trkpt>
      <trkpt lat="41.696424" lon="2.291554">
        <ele>343.009</ele>
        <time>2022-10-23T10:23:11Z</time>
      </trkpt>
      <trkpt lat="41.696405" lon="2.291534">
        <ele>342.843</ele>
        <time>2022-10-23T10:23:12Z</time>
      </trkpt>
      <trkpt lat="41.696381" lon="2.291530">
        <ele>342.453</ele>
        <time>2022-10-23T10:23:13Z</time>
      </trkpt>
      <trkpt lat="41.696351" lon="2.291539">
        <ele>341.449</ele>
        <time>2022-10-23T10:23:14Z</time>
      </trkpt>
      <trkpt lat="41.696317" lon="2.291560">
        <ele>340.432</ele>
        <time>2022-10-23T10:23:15Z</time>
      </trkpt>
      <trkpt lat="41.696277" lon="2.291581">
        <ele>339.258</ele>
        <time>2022-10-23T10:23:16Z</time>
      </trkpt>
      <trkpt lat="41.696239" lon="2.291597">
        <ele>338.456</ele>
        <time>2022-10-23T10:23:17Z</time>
      </trkpt>
      <trkpt lat="41.696217" lon="2.291609">
        <ele>337.482</ele>
        <time>2022-10-23T10:23:18Z</time>
      </trkpt>
      <trkpt lat="41.696207" lon="2.291611">
        <ele>336.422</ele>
        <time>2022-10-23T10:23:19Z</time>
      </trkpt>
      <trkpt lat="41.696200" lon="2.291610">
        <ele>335.295</ele>
        <time>2022-10-23T10:23:20Z</time>
      </trkpt>
      <trkpt lat="41.696197" lon="2.291612">
        <ele>334.227</ele>
        <time>2022-10-23T10:23:21Z</time>
      </trkpt>
      <trkpt lat="41.696196" lon="2.291611">
        <ele>333.268</ele>
        <time>2022-10-23T10:23:22Z</time>
      </trkpt>
      <trkpt lat="41.696195" lon="2.291610">
        <ele>332.214</ele>
        <time>2022-10-23T10:23:23Z</time>
      </trkpt>
      <trkpt lat="41.696191" lon="2.291610">
        <ele>331.609</ele>
        <time>2022-10-23T10:23:24Z</time>
      </trkpt>
      <trkpt lat="41.696101" lon="2.291628">
        <ele>330.413</ele>
        <time>2022-10-23T10:23:41Z</time>
      </trkpt>
      <trkpt lat="41.696073" lon="2.291648">
        <ele>330.283</ele>
        <time>2022-10-23T10:23:42Z</time>
      </trkpt>
      <trkpt lat="41.696040" lon="2.291668">
        <ele>330.299</ele>
        <time>2022-10-23T10:23:43Z</time>
      </trkpt>
      <trkpt lat="41.696001" lon="2.291692">
        <ele>330.272</ele>
        <time>2022-10-23T10:23:44Z</time>
      </trkpt>
      <trkpt lat="41.695959" lon="2.291717">
        <ele>330.248</ele>
        <time>2022-10-23T10:23:45Z</time>
      </trkpt>
      <trkpt lat="41.695920" lon="2.291755">
        <ele>329.856</ele>
        <time>2022-10-23T10:23:46Z</time>
      </trkpt>
      <trkpt lat="41.695881" lon="2.291789">
        <ele>329.622</ele>
        <time>2022-10-23T10:23:47Z</time>
      </trkpt>
      <trkpt lat="41.695835" lon="2.291819">
        <ele>329.492</ele>
        <time>2022-10-23T10:23:48Z</time>
      </trkpt>
      <trkpt lat="41.695785" lon="2.291849">
        <ele>329.075</ele>
        <time>2022-10-23T10:23:49Z</time>
      </trkpt>
      <trkpt lat="41.695731" lon="2.291872">
        <ele>328.885</ele>
        <time>2022-10-23T10:23:50Z</time>
      </trkpt>
      <trkpt lat="41.695679" lon="2.291892">
        <ele>328.289</ele>
        <time>2022-10-23T10:23:51Z</time>
      </trkpt>
      <trkpt lat="41.695634" lon="2.291906">
        <ele>327.617</ele>
        <time>2022-10-23T10:23:52Z</time>
      </trkpt>
      <trkpt lat="41.695597" lon="2.291909">
        <ele>327.009</ele>
        <time>2022-10-23T10:23:53Z</time>
      </trkpt>
      <trkpt lat="41.695565" lon="2.291904">
        <ele>326.259</ele>
        <time>2022-10-23T10:23:54Z</time>
      </trkpt>
      <trkpt lat="41.695526" lon="2.291897">
        <ele>325.429</ele>
        <time>2022-10-23T10:23:55Z</time>
      </trkpt>
      <trkpt lat="41.695494" lon="2.291887">
        <ele>324.865</ele>
        <time>2022-10-23T10:23:56Z</time>
      </trkpt>
      <trkpt lat="41.695467" lon="2.291875">
        <ele>324.058</ele>
        <time>2022-10-23T10:23:57Z</time>
      </trkpt>
      <trkpt lat="41.695449" lon="2.291856">
        <ele>322.834</ele>
        <time>2022-10-23T10:23:58Z</time>
      </trkpt>
      <trkpt lat="41.695433" lon="2.291837">
        <ele>321.812</ele>
        <time>2022-10-23T10:23:59Z</time>
      </trkpt>
      <trkpt lat="41.695421" lon="2.291818">
        <ele>321.048</ele>
        <time>2022-10-23T10:24:00Z</time>
      </trkpt>
      <trkpt lat="41.695409" lon="2.291801">
        <ele>320.068</ele>
        <time>2022-10-23T10:24:01Z</time>
      </trkpt>
      <trkpt lat="41.695397" lon="2.291789">
        <ele>319.031</ele>
        <time>2022-10-23T10:24:02Z</time>
      </trkpt>
      <trkpt lat="41.695389" lon="2.291774">
        <ele>318.612</ele>
        <time>2022-10-23T10:24:03Z</time>
      </trkpt>
      <trkpt lat="41.695382" lon="2.291761">
        <ele>318.232</ele>
        <time>2022-10-23T10:24:04Z</time>
      </trkpt>
      <trkpt lat="41.695374" lon="2.291750">
        <ele>318.205</ele>
        <time>2022-10-23T10:24:05Z</time>
      </trkpt>
      <trkpt lat="41.695372" lon="2.291748">
        <ele>318.009</ele>
        <time>2022-10-23T10:24:06Z</time>
      </trkpt>
      <trkpt lat="41.695372" lon="2.291748">
        <ele>318.022</ele>
        <time>2022-10-23T10:24:07Z</time>
      </trkpt>
      <trkpt lat="41.695339" lon="2.291614">
        <ele>318.482</ele>
        <time>2022-10-23T10:24:18Z</time>
      </trkpt>
      <trkpt lat="41.695323" lon="2.291549">
        <ele>318.498</ele>
        <time>2022-10-23T10:24:19Z</time>
      </trkpt>
      <trkpt lat="41.695299" lon="2.291474">
        <ele>318.431</ele>
        <time>2022-10-23T10:24:20Z</time>
      </trkpt>
      <trkpt lat="41.695280" lon="2.291404">
        <ele>318.427</ele>
        <time>2022-10-23T10:24:21Z</time>
      </trkpt>
      <trkpt lat="41.695275" lon="2.291339">
        <ele>318.465</ele>
        <time>2022-10-23T10:24:22Z</time>
      </trkpt>
      <trkpt lat="41.695267" lon="2.291262">
        <ele>318.231</ele>
        <time>2022-10-23T10:24:23Z</time>
      </trkpt>
      <trkpt lat="41.695254" lon="2.291198">
        <ele>317.881</ele>
        <time>2022-10-23T10:24:24Z</time>
      </trkpt>
      <trkpt lat="41.695226" lon="2.291153">
        <ele>317.684</ele>
        <time>2022-10-23T10:24:25Z</time>
      </trkpt>
      <trkpt lat="41.695188" lon="2.291105">
        <ele>317.231</ele>
        <time>2022-10-23T10:24:26Z</time>
      </trkpt>
      <trkpt lat="41.695148" lon="2.291052">
        <ele>317.061</ele>
        <time>2022-10-23T10:24:27Z</time>
      </trkpt>
      <trkpt lat="41.695114" lon="2.291000">
        <ele>316.807</ele>
        <time>2022-10-23T10:24:28Z</time>
      </trkpt>
      <trkpt lat="41.695089" lon="2.290941">
        <ele>316.209</ele>
        <time>2022-10-23T10:24:29Z</time>
      </trkpt>
      <trkpt lat="41.695066" lon="2.290872">
        <ele>315.674</ele>
        <time>2022-10-23T10:24:30Z</time>
      </trkpt>
      <trkpt lat="41.695041" lon="2.290809">
        <ele>314.654</ele>
        <time>2022-10-23T10:24:31Z</time>
      </trkpt>
      <trkpt lat="41.695005" lon="2.290759">
        <ele>314.070</ele>
        <time>2022-10-23T10:24:32Z</time>
      </trkpt>
      <trkpt lat="41.694969" lon="2.290711">
        <ele>313.443</ele>
        <time>2022-10-23T10:24:33Z</time>
      </trkpt>
      <trkpt lat="41.694933" lon="2.290668">
        <ele>312.459</ele>
        <time>2022-10-23T10:24:34Z</time>
      </trkpt>
      <trkpt lat="41.694900" lon="2.290624">
        <ele>310.217</ele>
        <time>2022-10-23T10:24:35Z</time>
      </trkpt>
      <trkpt lat="41.694877" lon="2.290571">
        <ele>309.413</ele>
        <time>2022-10-23T10:24:36Z</time>
      </trkpt>
      <trkpt lat="41.694870" lon="2.290523">
        <ele>308.643</ele>
        <time>2022-10-23T10:24:37Z</time>
      </trkpt>
      <trkpt lat="41.694877" lon="2.290485">
        <ele>308.066</ele>
        <time>2022-10-23T10:24:38Z</time>
      </trkpt>
      <trkpt lat="41.694899" lon="2.290444">
        <ele>307.473</ele>
        <time>2022-10-23T10:24:39Z</time>
      </trkpt>
      <trkpt lat="41.694913" lon="2.290394">
        <ele>306.685</ele>
        <time>2022-10-23T10:24:40Z</time>
      </trkpt>
      <trkpt lat="41.694934" lon="2.290342">
        <ele>306.213</ele>
        <time>2022-10-23T10:24:41Z</time>
      </trkpt>
      <trkpt lat="41.694966" lon="2.290298">
        <ele>305.809</ele>
        <time>2022-10-23T10:24:42Z</time>
      </trkpt>
      <trkpt lat="41.695004" lon="2.290256">
        <ele>305.088</ele>
        <time>2022-10-23T10:24:43Z</time>
      </trkpt>
      <trkpt lat="41.695045" lon="2.290203">
        <ele>304.428</ele>
        <time>2022-10-23T10:24:44Z</time>
      </trkpt>
      <trkpt lat="41.695080" lon="2.290141">
        <ele>303.874</ele>
        <time>2022-10-23T10:24:45Z</time>
      </trkpt>
      <trkpt lat="41.695109" lon="2.290090">
        <ele>303.097</ele>
        <time>2022-10-23T10:24:46Z</time>
      </trkpt>
      <trkpt lat="41.695137" lon="2.290032">
        <ele>302.273</ele>
        <time>2022-10-23T10:24:47Z</time>
      </trkpt>
      <trkpt lat="41.695153" lon="2.289966">
        <ele>301.671</ele>
        <time>2022-10-23T10:24:48Z</time>
      </trkpt>
      <trkpt lat="41.695159" lon="2.289899">
        <ele>301.017</ele>
        <time>2022-10-23T10:24:49Z</time>
      </trkpt>
      <trkpt lat="41.695154" lon="2.289842">
        <ele>300.437</ele>
        <time>2022-10-23T10:24:50Z</time>
      </trkpt>
      <trkpt lat="41.695140" lon="2.289790">
        <ele>300.080</ele>
        <time>2022-10-23T10:24:51Z</time>
      </trkpt>
      <trkpt lat="41.695119" lon="2.289743">
        <ele>299.653</ele>
        <time>2022-10-23T10:24:52Z</time>
      </trkpt>
      <trkpt lat="41.695096" lon="2.289690">
        <ele>299.204</ele>
        <time>2022-10-23T10:24:53Z</time>
      </trkpt>
      <trkpt lat="41.695073" lon="2.289628">
        <ele>298.814</ele>
        <time>2022-10-23T10:24:54Z</time>
      </trkpt>
      <trkpt lat="41.695050" lon="2.289560">
        <ele>298.209</ele>
        <time>2022-10-23T10:24:55Z</time>
      </trkpt>
      <trkpt lat="41.695040" lon="2.289489">
        <ele>296.856</ele>
        <time>2022-10-23T10:24:56Z</time>
      </trkpt>
      <trkpt lat="41.695041" lon="2.289430">
        <ele>295.846</ele>
        <time>2022-10-23T10:24:57Z</time>
      </trkpt>
      <trkpt lat="41.695056" lon="2.289385">
        <ele>295.292</ele>
        <time>2022-10-23T10:24:58Z</time>
      </trkpt>
      <trkpt lat="41.695089" lon="2.289360">
        <ele>294.815</ele>
        <time>2022-10-23T10:24:59Z</time>
      </trkpt>
      <trkpt lat="41.695125" lon="2.289355">
        <ele>294.681</ele>
        <time>2022-10-23T10:25:00Z</time>
      </trkpt>
      <trkpt lat="41.695159" lon="2.289343">
        <ele>294.459</ele>
        <time>2022-10-23T10:25:01Z</time>
      </trkpt>
      <trkpt lat="41.695188" lon="2.289331">
        <ele>292.445</ele>
        <time>2022-10-23T10:25:02Z</time>
      </trkpt>
      <trkpt lat="41.695209" lon="2.289320">
        <ele>292.045</ele>
        <time>2022-10-23T10:25:03Z</time>
      </trkpt>
      <trkpt lat="41.695221" lon="2.289311">
        <ele>291.038</ele>
        <time>2022-10-23T10:25:04Z</time>
      </trkpt>
      <trkpt lat="41.695225" lon="2.289309">
        <ele>290.212</ele>
        <time>2022-10-23T10:25:05Z</time>
      </trkpt>
      <trkpt lat="41.695226" lon="2.289308">
        <ele>289.232</ele>
        <time>2022-10-23T10:25:06Z</time>
      </trkpt>
      <trkpt lat="41.695215" lon="2.289191">
        <ele>283.605</ele>
        <time>2022-10-23T10:25:14Z</time>
      </trkpt>
      <trkpt lat="41.695206" lon="2.289159">
        <ele>283.409</ele>
        <time>2022-10-23T10:25:15Z</time>
      </trkpt>
      <trkpt lat="41.695203" lon="2.289130">
        <ele>283.222</ele>
        <time>2022-10-23T10:25:16Z</time>
      </trkpt>
      <trkpt lat="41.695209" lon="2.289103">
        <ele>283.292</ele>
        <time>2022-10-23T10:25:17Z</time>
      </trkpt>
      <trkpt lat="41.695216" lon="2.289079">
        <ele>283.258</ele>
        <time>2022-10-23T10:25:18Z</time>
      </trkpt>
      <trkpt lat="41.695220" lon="2.289063">
        <ele>283.061</ele>
        <time>2022-10-23T10:25:19Z</time>
      </trkpt>
      <trkpt lat="41.695221" lon="2.289054">
        <ele>283.027</ele>
        <time>2022-10-23T10:25:20Z</time>
      </trkpt>
      <trkpt lat="41.695220" lon="2.289051">
        <ele>282.655</ele>
        <time>2022-10-23T10:25:21Z</time>
      </trkpt>
      <trkpt lat="41.695247" lon="2.288925">
        <ele>278.841</ele>
        <time>2022-10-23T10:25:30Z</time>
      </trkpt>
      <trkpt lat="41.695253" lon="2.288900">
        <ele>278.811</ele>
        <time>2022-10-23T10:25:31Z</time>
      </trkpt>
      <trkpt lat="41.695252" lon="2.288863">
        <ele>278.854</ele>
        <time>2022-10-23T10:25:32Z</time>
      </trkpt>
      <trkpt lat="41.695247" lon="2.288825">
        <ele>278.689</ele>
        <time>2022-10-23T10:25:33Z</time>
      </trkpt>
      <trkpt lat="41.695247" lon="2.288788">
        <ele>278.606</ele>
        <time>2022-10-23T10:25:34Z</time>
      </trkpt>
      <trkpt lat="41.695243" lon="2.288753">
        <ele>278.426</ele>
        <time>2022-10-23T10:25:35Z</time>
      </trkpt>
      <trkpt lat="41.695240" lon="2.288719">
        <ele>278.209</ele>
        <time>2022-10-23T10:25:36Z</time>
      </trkpt>
      <trkpt lat="41.695237" lon="2.288685">
        <ele>277.829</ele>
        <time>2022-10-23T10:25:37Z</time>
      </trkpt>
      <trkpt lat="41.695227" lon="2.288652">
        <ele>277.039</ele>
        <time>2022-10-23T10:25:38Z</time>
      </trkpt>
      <trkpt lat="41.695212" lon="2.288616">
        <ele>276.055</ele>
        <time>2022-10-23T10:25:39Z</time>
      </trkpt>
      <trkpt lat="41.695189" lon="2.288573">
        <ele>274.878</ele>
        <time>2022-10-23T10:25:40Z</time>
      </trkpt>
      <trkpt lat="41.695161" lon="2.288509">
        <ele>273.864</ele>
        <time>2022-10-23T10:25:41Z</time>
      </trkpt>
      <trkpt lat="41.695129" lon="2.288443">
        <ele>272.862</ele>
        <time>2022-10-23T10:25:42Z</time>
      </trkpt>
      <trkpt lat="41.695098" lon="2.288368">
        <ele>272.018</ele>
        <time>2022-10-23T10:25:43Z</time>
      </trkpt>
      <trkpt lat="41.695063" lon="2.288301">
        <ele>271.018</ele>
        <time>2022-10-23T10:25:44Z</time>
      </trkpt>
      <trkpt lat="41.695046" lon="2.288214">
        <ele>270.691</ele>
        <time>2022-10-23T10:25:45Z</time>
      </trkpt>
      <trkpt lat="41.695041" lon="2.288124">
        <ele>269.243</ele>
        <time>2022-10-23T10:25:46Z</time>
      </trkpt>
      <trkpt lat="41.695040" lon="2.288036">
        <ele>268.064</ele>
        <time>2022-10-23T10:25:47Z</time>
      </trkpt>
      <trkpt lat="41.695041" lon="2.287960">
        <ele>267.010</ele>
        <time>2022-10-23T10:25:48Z</time>
      </trkpt>
      <trkpt lat="41.695031" lon="2.287886">
        <ele>266.209</ele>
        <time>2022-10-23T10:25:49Z</time>
      </trkpt>
      <trkpt lat="41.694998" lon="2.287828">
        <ele>265.645</ele>
        <time>2022-10-23T10:25:50Z</time>
      </trkpt>
      <trkpt lat="41.694947" lon="2.287791">
        <ele>265.225</ele>
        <time>2022-10-23T10:25:51Z</time>
      </trkpt>
      <trkpt lat="41.694888" lon="2.287762">
        <ele>264.661</ele>
        <time>2022-10-23T10:25:52Z</time>
      </trkpt>
      <trkpt lat="41.694823" lon="2.287744">
        <ele>264.074</ele>
        <time>2022-10-23T10:25:53Z</time>
      </trkpt>
      <trkpt lat="41.694763" lon="2.287731">
        <ele>263.270</ele>
        <time>2022-10-23T10:25:54Z</time>
      </trkpt>
      <trkpt lat="41.694713" lon="2.287713">
        <ele>262.288</ele>
        <time>2022-10-23T10:25:55Z</time>
      </trkpt>
      <trkpt lat="41.694682" lon="2.287684">
        <ele>261.234</ele>
        <time>2022-10-23T10:25:56Z</time>
      </trkpt>
      <trkpt lat="41.694663" lon="2.287645">
        <ele>259.834</ele>
        <time>2022-10-23T10:25:57Z</time>
      </trkpt>
      <trkpt lat="41.694644" lon="2.287598">
        <ele>259.247</ele>
        <time>2022-10-23T10:25:58Z</time>
      </trkpt>
      <trkpt lat="41.694630" lon="2.287548">
        <ele>258.635</ele>
        <time>2022-10-23T10:25:59Z</time>
      </trkpt>
      <trkpt lat="41.694614" lon="2.287489">
        <ele>258.286</ele>
        <time>2022-10-23T10:26:00Z</time>
      </trkpt>
      <trkpt lat="41.694597" lon="2.287430">
        <ele>257.814</ele>
        <time>2022-10-23T10:26:01Z</time>
      </trkpt>
      <trkpt lat="41.694578" lon="2.287380">
        <ele>257.609</ele>
        <time>2022-10-23T10:26:02Z</time>
      </trkpt>
      <trkpt lat="41.694570" lon="2.287347">
        <ele>257.634</ele>
        <time>2022-10-23T10:26:03Z</time>
      </trkpt>
      <trkpt lat="41.694567" lon="2.287332">
        <ele>257.434</ele>
        <time>2022-10-23T10:26:04Z</time>
      </trkpt>
      <trkpt lat="41.694563" lon="2.287324">
        <ele>257.250</ele>
        <time>2022-10-23T10:26:05Z</time>
      </trkpt>
      <trkpt lat="41.694558" lon="2.287318">
        <ele>256.823</ele>
        <time>2022-10-23T10:26:06Z</time>
      </trkpt>
      <trkpt lat="41.694534" lon="2.287268">
        <ele>255.289</ele>
        <time>2022-10-23T10:26:17Z</time>
      </trkpt>
      <trkpt lat="41.694517" lon="2.287230">
        <ele>255.257</ele>
        <time>2022-10-23T10:26:18Z</time>
      </trkpt>
      <trkpt lat="41.694495" lon="2.287186">
        <ele>255.293</ele>
        <time>2022-10-23T10:26:19Z</time>
      </trkpt>
      <trkpt lat="41.694472" lon="2.287144">
        <ele>255.093</ele>
        <time>2022-10-23T10:26:20Z</time>
      </trkpt>
      <trkpt lat="41.694451" lon="2.287112">
        <ele>255.036</ele>
        <time>2022-10-23T10:26:21Z</time>
      </trkpt>
      <trkpt lat="41.694439" lon="2.287090">
        <ele>255.027</ele>
        <time>2022-10-23T10:26:22Z</time>
      </trkpt>
      <trkpt lat="41.694435" lon="2.287079">
        <ele>255.068</ele>
        <time>2022-10-23T10:26:23Z</time>
      </trkpt>
      <trkpt lat="41.694433" lon="2.287076">
        <ele>255.014</ele>
        <time>2022-10-23T10:26:24Z</time>
      </trkpt>
      <trkpt lat="41.694426" lon="2.287028">
        <ele>254.009</ele>
        <time>2022-10-23T10:26:32Z</time>
      </trkpt>
      <trkpt lat="41.694418" lon="2.286997">
        <ele>253.843</ele>
        <time>2022-10-23T10:26:33Z</time>
      </trkpt>
      <trkpt lat="41.694404" lon="2.286959">
        <ele>253.843</ele>
        <time>2022-10-23T10:26:34Z</time>
      </trkpt>
      <trkpt lat="41.694386" lon="2.286916">
        <ele>253.849</ele>
        <time>2022-10-23T10:26:35Z</time>
      </trkpt>
      <trkpt lat="41.694368" lon="2.286871">
        <ele>253.822</ele>
        <time>2022-10-23T10:26:36Z</time>
      </trkpt>
      <trkpt lat="41.694352" lon="2.286826">
        <ele>253.668</ele>
        <time>2022-10-23T10:26:37Z</time>
      </trkpt>
      <trkpt lat="41.694336" lon="2.286782">
        <ele>253.666</ele>
        <time>2022-10-23T10:26:38Z</time>
      </trkpt>
      <trkpt lat="41.694322" lon="2.286740">
        <ele>253.682</ele>
        <time>2022-10-23T10:26:39Z</time>
      </trkpt>
      <trkpt lat="41.694305" lon="2.286704">
        <ele>253.632</ele>
        <time>2022-10-23T10:26:40Z</time>
      </trkpt>
      <trkpt lat="41.694295" lon="2.286677">
        <ele>253.445</ele>
        <time>2022-10-23T10:26:41Z</time>
      </trkpt>
      <trkpt lat="41.694289" lon="2.286668">
        <ele>253.218</ele>
        <time>2022-10-23T10:26:42Z</time>
      </trkpt>
      <trkpt lat="41.694286" lon="2.286662">
        <ele>253.298</ele>
        <time>2022-10-23T10:26:43Z</time>
      </trkpt>
      <trkpt lat="41.694267" lon="2.286619">
        <ele>253.017</ele>
        <time>2022-10-23T10:26:45Z</time>
      </trkpt>
      <trkpt lat="41.694254" lon="2.286591">
        <ele>252.809</ele>
        <time>2022-10-23T10:26:46Z</time>
      </trkpt>
      <trkpt lat="41.694236" lon="2.286561">
        <ele>252.692</ele>
        <time>2022-10-23T10:26:47Z</time>
      </trkpt>
      <trkpt lat="41.694218" lon="2.286527">
        <ele>252.472</ele>
        <time>2022-10-23T10:26:48Z</time>
      </trkpt>
      <trkpt lat="41.694203" lon="2.286488">
        <ele>252.268</ele>
        <time>2022-10-23T10:26:49Z</time>
      </trkpt>
      <trkpt lat="41.694193" lon="2.286442">
        <ele>252.091</ele>
        <time>2022-10-23T10:26:50Z</time>
      </trkpt>
      <trkpt lat="41.694189" lon="2.286395">
        <ele>252.057</ele>
        <time>2022-10-23T10:26:51Z</time>
      </trkpt>
      <trkpt lat="41.694189" lon="2.286344">
        <ele>252.045</ele>
        <time>2022-10-23T10:26:52Z</time>
      </trkpt>
      <trkpt lat="41.694196" lon="2.286292">
        <ele>251.851</ele>
        <time>2022-10-23T10:26:53Z</time>
      </trkpt>
      <trkpt lat="41.694212" lon="2.286251">
        <ele>251.861</ele>
        <time>2022-10-23T10:26:54Z</time>
      </trkpt>
      <trkpt lat="41.694237" lon="2.286222">
        <ele>251.874</ele>
        <time>2022-10-23T10:26:55Z</time>
      </trkpt>
      <trkpt lat="41.694265" lon="2.286201">
        <ele>251.861</ele>
        <time>2022-10-23T10:26:56Z</time>
      </trkpt>
      <trkpt lat="41.694301" lon="2.286179">
        <ele>251.621</ele>
        <time>2022-10-23T10:26:57Z</time>
      </trkpt>
      <trkpt lat="41.694334" lon="2.286159">
        <ele>251.613</ele>
        <time>2022-10-23T10:26:58Z</time>
      </trkpt>
      <trkpt lat="41.694365" lon="2.286132">
        <ele>251.609</ele>
        <time>2022-10-23T10:26:59Z</time>
      </trkpt>
      <trkpt lat="41.694398" lon="2.286107">
        <ele>251.657</ele>
        <time>2022-10-23T10:27:00Z</time>
      </trkpt>
      <trkpt lat="41.694430" lon="2.286082">
        <ele>251.687</ele>
        <time>2022-10-23T10:27:01Z</time>
      </trkpt>
      <trkpt lat="41.694465" lon="2.286057">
        <ele>251.653</ele>
        <time>2022-10-23T10:27:02Z</time>
      </trkpt>
      <trkpt lat="41.694500" lon="2.286034">
        <ele>251.616</ele>
        <time>2022-10-23T10:27:03Z</time>
      </trkpt>
      <trkpt lat="41.694536" lon="2.286007">
        <ele>251.672</ele>
        <time>2022-10-23T10:27:04Z</time>
      </trkpt>
      <trkpt lat="41.694572" lon="2.285975">
        <ele>251.630</ele>
        <time>2022-10-23T10:27:05Z</time>
      </trkpt>
      <trkpt lat="41.694609" lon="2.285945">
        <ele>251.646</ele>
        <time>2022-10-23T10:27:06Z</time>
      </trkpt>
      <trkpt lat="41.694647" lon="2.285919">
        <ele>251.696</ele>
        <time>2022-10-23T10:27:07Z</time>
      </trkpt>
      <trkpt lat="41.694682" lon="2.285898">
        <ele>251.659</ele>
        <time>2022-10-23T10:27:08Z</time>
      </trkpt>
      <trkpt lat="41.694720" lon="2.285874">
        <ele>251.667</ele>
        <time>2022-10-23T10:27:09Z</time>
      </trkpt>
      <trkpt lat="41.694759" lon="2.285857">
        <ele>251.681</ele>
        <time>2022-10-23T10:27:10Z</time>
      </trkpt>
      <trkpt lat="41.694794" lon="2.285838">
        <ele>251.619</ele>
        <time>2022-10-23T10:27:11Z</time>
      </trkpt>
      <trkpt lat="41.694832" lon="2.285813">
        <ele>251.609</ele>
        <time>2022-10-23T10:27:12Z</time>
      </trkpt>
      <trkpt lat="41.694872" lon="2.285786">
        <ele>251.637</ele>
        <time>2022-10-23T10:27:13Z</time>
      </trkpt>
      <trkpt lat="41.694910" lon="2.285760">
        <ele>251.627</ele>
        <time>2022-10-23T10:27:14Z</time>
      </trkpt>
      <trkpt lat="41.694946" lon="2.285732">
        <ele>251.683</ele>
        <time>2022-10-23T10:27:15Z</time>
      </trkpt>
      <trkpt lat="41.694986" lon="2.285693">
        <ele>251.686</ele>
        <time>2022-10-23T10:27:16Z</time>
      </trkpt>
      <trkpt lat="41.695025" lon="2.285662">
        <ele>251.892</ele>
        <time>2022-10-23T10:27:17Z</time>
      </trkpt>
      <trkpt lat="41.695065" lon="2.285634">
        <ele>252.050</ele>
        <time>2022-10-23T10:27:18Z</time>
      </trkpt>
      <trkpt lat="41.695104" lon="2.285608">
        <ele>252.096</ele>
        <time>2022-10-23T10:27:19Z</time>
      </trkpt>
      <trkpt lat="41.695142" lon="2.285585">
        <ele>252.096</ele>
        <time>2022-10-23T10:27:20Z</time>
      </trkpt>
      <trkpt lat="41.695176" lon="2.285560">
        <ele>252.049</ele>
        <time>2022-10-23T10:27:21Z</time>
      </trkpt>
      <trkpt lat="41.695208" lon="2.285536">
        <ele>252.293</ele>
        <time>2022-10-23T10:27:22Z</time>
      </trkpt>
      <trkpt lat="41.695243" lon="2.285509">
        <ele>252.265</ele>
        <time>2022-10-23T10:27:23Z</time>
      </trkpt>
      <trkpt lat="41.695282" lon="2.285482">
        <ele>252.221</ele>
        <time>2022-10-23T10:27:24Z</time>
      </trkpt>
      <trkpt lat="41.695318" lon="2.285455">
        <ele>252.209</ele>
        <time>2022-10-23T10:27:25Z</time>
      </trkpt>
      <trkpt lat="41.695358" lon="2.285429">
        <ele>252.270</ele>
        <time>2022-10-23T10:27:26Z</time>
      </trkpt>
      <trkpt lat="41.695398" lon="2.285403">
        <ele>252.220</ele>
        <time>2022-10-23T10:27:27Z</time>
      </trkpt>
      <trkpt lat="41.695437" lon="2.285374">
        <ele>252.286</ele>
        <time>2022-10-23T10:27:28Z</time>
      </trkpt>
      <trkpt lat="41.695473" lon="2.285344">
        <ele>252.259</ele>
        <time>2022-10-23T10:27:29Z</time>
      </trkpt>
      <trkpt lat="41.695511" lon="2.285314">
        <ele>252.425</ele>
        <time>2022-10-23T10:27:30Z</time>
      </trkpt>
      <trkpt lat="41.695549" lon="2.285287">
        <ele>252.463</ele>
        <time>2022-10-23T10:27:31Z</time>
      </trkpt>
      <trkpt lat="41.695588" lon="2.285263">
        <ele>252.419</ele>
        <time>2022-10-23T10:27:32Z</time>
      </trkpt>
      <trkpt lat="41.695627" lon="2.285239">
        <ele>252.699</ele>
        <time>2022-10-23T10:27:33Z</time>
      </trkpt>
      <trkpt lat="41.695665" lon="2.285216">
        <ele>252.692</ele>
        <time>2022-10-23T10:27:34Z</time>
      </trkpt>
      <trkpt lat="41.695706" lon="2.285194">
        <ele>252.692</ele>
        <time>2022-10-23T10:27:35Z</time>
      </trkpt>
      <trkpt lat="41.695746" lon="2.285171">
        <ele>252.673</ele>
        <time>2022-10-23T10:27:36Z</time>
      </trkpt>
      <trkpt lat="41.695783" lon="2.285147">
        <ele>252.620</ele>
        <time>2022-10-23T10:27:37Z</time>
      </trkpt>
      <trkpt lat="41.695812" lon="2.285115">
        <ele>252.609</ele>
        <time>2022-10-23T10:27:38Z</time>
      </trkpt>
      <trkpt lat="41.695833" lon="2.285074">
        <ele>252.690</ele>
        <time>2022-10-23T10:27:39Z</time>
      </trkpt>
      <trkpt lat="41.695837" lon="2.285024">
        <ele>252.650</ele>
        <time>2022-10-23T10:27:40Z</time>
      </trkpt>
      <trkpt lat="41.695830" lon="2.284965">
        <ele>252.646</ele>
        <time>2022-10-23T10:27:41Z</time>
      </trkpt>
      <trkpt lat="41.695823" lon="2.284905">
        <ele>252.679</ele>
        <time>2022-10-23T10:27:42Z</time>
      </trkpt>
      <trkpt lat="41.695814" lon="2.284846">
        <ele>252.615</ele>
        <time>2022-10-23T10:27:43Z</time>
      </trkpt>
      <trkpt lat="41.695804" lon="2.284786">
        <ele>252.643</ele>
        <time>2022-10-23T10:27:44Z</time>
      </trkpt>
      <trkpt lat="41.695796" lon="2.284731">
        <ele>252.669</ele>
        <time>2022-10-23T10:27:45Z</time>
      </trkpt>
      <trkpt lat="41.695786" lon="2.284679">
        <ele>252.639</ele>
        <time>2022-10-23T10:27:46Z</time>
      </trkpt>
      <trkpt lat="41.695778" lon="2.284626">
        <ele>252.612</ele>
        <time>2022-10-23T10:27:47Z</time>
      </trkpt>
      <trkpt lat="41.695768" lon="2.284575">
        <ele>252.648</ele>
        <time>2022-10-23T10:27:48Z</time>
      </trkpt>
      <trkpt lat="41.695753" lon="2.284526">
        <ele>252.461</ele>
        <time>2022-10-23T10:27:49Z</time>
      </trkpt>
      <trkpt lat="41.695727" lon="2.284490">
        <ele>252.417</ele>
        <time>2022-10-23T10:27:50Z</time>
      </trkpt>
      <trkpt lat="41.695690" lon="2.284465">
        <ele>252.409</ele>
        <time>2022-10-23T10:27:51Z</time>
      </trkpt>
      <trkpt lat="41.695649" lon="2.284446">
        <ele>252.265</ele>
        <time>2022-10-23T10:27:52Z</time>
      </trkpt>
      <trkpt lat="41.695605" lon="2.284437">
        <ele>252.255</ele>
        <time>2022-10-23T10:27:53Z</time>
      </trkpt>
      <trkpt lat="41.695561" lon="2.284436">
        <ele>252.251</ele>
        <time>2022-10-23T10:27:54Z</time>
      </trkpt>
      <trkpt lat="41.695517" lon="2.284441">
        <ele>252.284</ele>
        <time>2022-10-23T10:27:55Z</time>
      </trkpt>
      <trkpt lat="41.695472" lon="2.284445">
        <ele>252.070</ele>
        <time>2022-10-23T10:27:56Z</time>
      </trkpt>
      <trkpt lat="41.695427" lon="2.284450">
        <ele>252.028</ele>
        <time>2022-10-23T10:27:57Z</time>
      </trkpt>
      <trkpt lat="41.695382" lon="2.284455">
        <ele>252.044</ele>
        <time>2022-10-23T10:27:58Z</time>
      </trkpt>
      <trkpt lat="41.695339" lon="2.284463">
        <ele>252.044</ele>
        <time>2022-10-23T10:27:59Z</time>
      </trkpt>
      <trkpt lat="41.695297" lon="2.284471">
        <ele>252.077</ele>
        <time>2022-10-23T10:28:00Z</time>
      </trkpt>
      <trkpt lat="41.695256" lon="2.284478">
        <ele>252.092</ele>
        <time>2022-10-23T10:28:01Z</time>
      </trkpt>
      <trkpt lat="41.695214" lon="2.284485">
        <ele>252.073</ele>
        <time>2022-10-23T10:28:02Z</time>
      </trkpt>
      <trkpt lat="41.695173" lon="2.284491">
        <ele>252.020</ele>
        <time>2022-10-23T10:28:03Z</time>
      </trkpt>
      <trkpt lat="41.695134" lon="2.284499">
        <ele>252.009</ele>
        <time>2022-10-23T10:28:04Z</time>
      </trkpt>
      <trkpt lat="41.695096" lon="2.284505">
        <ele>252.040</ele>
        <time>2022-10-23T10:28:05Z</time>
      </trkpt>
      <trkpt lat="41.695059" lon="2.284512">
        <ele>251.870</ele>
        <time>2022-10-23T10:28:06Z</time>
      </trkpt>
      <trkpt lat="41.695024" lon="2.284514">
        <ele>251.896</ele>
        <time>2022-10-23T10:28:07Z</time>
      </trkpt>
      <trkpt lat="41.694992" lon="2.284508">
        <ele>252.089</ele>
        <time>2022-10-23T10:28:08Z</time>
      </trkpt>
      <trkpt lat="41.694961" lon="2.284500">
        <ele>252.015</ele>
        <time>2022-10-23T10:28:09Z</time>
      </trkpt>
      <trkpt lat="41.694931" lon="2.284494">
        <ele>252.013</ele>
        <time>2022-10-23T10:28:10Z</time>
      </trkpt>
      <trkpt lat="41.694901" lon="2.284492">
        <ele>251.849</ele>
        <time>2022-10-23T10:28:11Z</time>
      </trkpt>
      <trkpt lat="41.694873" lon="2.284497">
        <ele>251.839</ele>
        <time>2022-10-23T10:28:12Z</time>
      </trkpt>
      <trkpt lat="41.694845" lon="2.284502">
        <ele>251.862</ele>
        <time>2022-10-23T10:28:13Z</time>
      </trkpt>
      <trkpt lat="41.694819" lon="2.284501">
        <ele>251.832</ele>
        <time>2022-10-23T10:28:14Z</time>
      </trkpt>
      <trkpt lat="41.694797" lon="2.284499">
        <ele>251.892</ele>
        <time>2022-10-23T10:28:15Z</time>
      </trkpt>
      <trkpt lat="41.694781" lon="2.284499">
        <ele>251.811</ele>
        <time>2022-10-23T10:28:16Z</time>
      </trkpt>
      <trkpt lat="41.694766" lon="2.284502">
        <ele>251.809</ele>
        <time>2022-10-23T10:28:17Z</time>
      </trkpt>
      <trkpt lat="41.694750" lon="2.284505">
        <ele>251.854</ele>
        <time>2022-10-23T10:28:18Z</time>
      </trkpt>
      <trkpt lat="41.694729" lon="2.284512">
        <ele>251.654</ele>
        <time>2022-10-23T10:28:19Z</time>
      </trkpt>
      <trkpt lat="41.694702" lon="2.284516">
        <ele>251.690</ele>
        <time>2022-10-23T10:28:20Z</time>
      </trkpt>
      <trkpt lat="41.694673" lon="2.284514">
        <ele>251.643</ele>
        <time>2022-10-23T10:28:21Z</time>
      </trkpt>
      <trkpt lat="41.694647" lon="2.284509">
        <ele>251.629</ele>
        <time>2022-10-23T10:28:22Z</time>
      </trkpt>
      <trkpt lat="41.694626" lon="2.284503">
        <ele>251.437</ele>
        <time>2022-10-23T10:28:23Z</time>
      </trkpt>
      <trkpt lat="41.694606" lon="2.284496">
        <ele>251.433</ele>
        <time>2022-10-23T10:28:24Z</time>
      </trkpt>
      <trkpt lat="41.694585" lon="2.284494">
        <ele>251.423</ele>
        <time>2022-10-23T10:28:25Z</time>
      </trkpt>
      <trkpt lat="41.694562" lon="2.284497">
        <ele>251.466</ele>
        <time>2022-10-23T10:28:26Z</time>
      </trkpt>
      <trkpt lat="41.694540" lon="2.284503">
        <ele>251.471</ele>
        <time>2022-10-23T10:28:27Z</time>
      </trkpt>
      <trkpt lat="41.694518" lon="2.284512">
        <ele>251.441</ele>
        <time>2022-10-23T10:28:28Z</time>
      </trkpt>
      <trkpt lat="41.694501" lon="2.284518">
        <ele>251.415</ele>
        <time>2022-10-23T10:28:29Z</time>
      </trkpt>
      <trkpt lat="41.694488" lon="2.284525">
        <ele>251.209</ele>
        <time>2022-10-23T10:28:30Z</time>
      </trkpt>
      <trkpt lat="41.694474" lon="2.284536">
        <ele>251.258</ele>
        <time>2022-10-23T10:28:31Z</time>
      </trkpt>
      <trkpt lat="41.694458" lon="2.284539">
        <ele>251.028</ele>
        <time>2022-10-23T10:28:32Z</time>
      </trkpt>
      <trkpt lat="41.694442" lon="2.284540">
        <ele>251.074</ele>
        <time>2022-10-23T10:28:33Z</time>
      </trkpt>
      <trkpt lat="41.694430" lon="2.284546">
        <ele>250.857</ele>
        <time>2022-10-23T10:28:34Z</time>
      </trkpt>
      <trkpt lat="41.694425" lon="2.284550">
        <ele>250.883</ele>
        <time>2022-10-23T10:28:35Z</time>
      </trkpt>
      <trkpt lat="41.694422" lon="2.284551">
        <ele>250.851</ele>
        <time>2022-10-23T10:28:36Z</time>
      </trkpt>
    </trkseg>
  </trk>
</gpx>
